<?xml version='1.0' encoding='UTF-8'?><gpx version="1.1" creator="JPX - https://github.com/jenetics/jpx" xmlns="http://www.topografix.com/GPX/1/1"><trk><trkseg><trkpt lat="36.766299842991984" lon="-5.185462970072555"><ele>504.0</ele><time>2026-04-25T07:22:28.999Z</time></trkpt><trkpt lat="36.76622085075713" lon="-5.185513783928577"><ele>504.0</ele><time>2026-04-25T07:22:32.999Z</time></trkpt><trkpt lat="36.76616037587995" lon="-5.185485216093573"><ele>504.0</ele><time>2026-04-25T07:22:34.999Z</time></trkpt><trkpt lat="36.766100935128506" lon="-5.185415428148554"><ele>504.0</ele><time>2026-04-25T07:22:37.998Z</time></trkpt><trkpt lat="36.766095881830005" lon="-5.185327044262"><ele>504.0</ele><time>2026-04-25T07:22:39.998Z</time></trkpt><trkpt lat="36.76612871141442" lon="-5.1852509412333845"><ele>504.0</ele><time>2026-04-25T07:22:41.998Z</time></trkpt><trkpt lat="36.766146727321676" lon="-5.185171986442905"><ele>504.0</ele><time>2026-04-25T07:22:44.998Z</time></trkpt><trkpt lat="36.76617327434098" lon="-5.185069959962116"><ele>504.0</ele><time>2026-04-25T07:22:49.998Z</time></trkpt><trkpt lat="36.76622043842785" lon="-5.184975580676373"><ele>504.0</ele><time>2026-04-25T07:22:52.998Z</time></trkpt><trkpt lat="36.76625814564501" lon="-5.18489332759108"><ele>504.0</ele><time>2026-04-25T07:22:56.998Z</time></trkpt><trkpt lat="36.766180920324224" lon="-5.184813002388816"><ele>504.0</ele><time>2026-04-25T07:22:59.998Z</time></trkpt><trkpt lat="36.76610167064159" lon="-5.184820099510053"><ele>504.0</ele><time>2026-04-25T07:23:01.998Z</time></trkpt><trkpt lat="36.766037294089784" lon="-5.184811900394813"><ele>504.0</ele><time>2026-04-25T07:23:03.998Z</time></trkpt><trkpt lat="36.76596968029457" lon="-5.184797661444459"><ele>503.0</ele><time>2026-04-25T07:23:06.998Z</time></trkpt><trkpt lat="36.76589181597774" lon="-5.184801300247595"><ele>502.0</ele><time>2026-04-25T07:23:10.998Z</time></trkpt><trkpt lat="36.765811319688275" lon="-5.184794691624325"><ele>501.0</ele><time>2026-04-25T07:23:13.998Z</time></trkpt><trkpt lat="36.76574753686955" lon="-5.184797784412012"><ele>500.0</ele><time>2026-04-25T07:23:35.999Z</time></trkpt><trkpt lat="36.76568483711026" lon="-5.184807055598158"><ele>499.0</ele><time>2026-04-25T07:25:04.998Z</time></trkpt><trkpt lat="36.76561655296287" lon="-5.184839046761893"><ele>498.0</ele><time>2026-04-25T07:25:06.998Z</time></trkpt><trkpt lat="36.7655320618996" lon="-5.18490312988156"><ele>498.0</ele><time>2026-04-25T07:25:08.998Z</time></trkpt><trkpt lat="36.76545335592518" lon="-5.184970331856942"><ele>498.0</ele><time>2026-04-25T07:25:10.998Z</time></trkpt><trkpt lat="36.76539196931555" lon="-5.185023272240297"><ele>498.0</ele><time>2026-04-25T07:25:11.998Z</time></trkpt><trkpt lat="36.76533436362025" lon="-5.1850709742257095"><ele>498.0</ele><time>2026-04-25T07:25:12.998Z</time></trkpt><trkpt lat="36.76525154905076" lon="-5.185141191510828"><ele>498.0</ele><time>2026-04-25T07:25:14.998Z</time></trkpt><trkpt lat="36.7651894049212" lon="-5.185251086353468"><ele>498.0</ele><time>2026-04-25T07:25:16.998Z</time></trkpt><trkpt lat="36.765135406915384" lon="-5.185299760541212"><ele>497.5</ele><time>2026-04-25T07:25:17.998Z</time></trkpt><trkpt lat="36.765055518433094" lon="-5.185405077153345"><ele>497.0</ele><time>2026-04-25T07:25:19.998Z</time></trkpt><trkpt lat="36.7650002525878" lon="-5.185454467277635"><ele>496.5</ele><time>2026-04-25T07:25:21Z</time></trkpt><trkpt lat="36.764943943929886" lon="-5.185504108441549"><ele>496.0</ele><time>2026-04-25T07:25:22Z</time></trkpt><trkpt lat="36.7648918423182" lon="-5.1855642099022665"><ele>495.5</ele><time>2026-04-25T07:25:23Z</time></trkpt><trkpt lat="36.76484687467047" lon="-5.185630635845071"><ele>495.0</ele><time>2026-04-25T07:25:24Z</time></trkpt><trkpt lat="36.764806291156006" lon="-5.185706834139245"><ele>494.99999999999994</ele><time>2026-04-25T07:25:25Z</time></trkpt><trkpt lat="36.764769698391895" lon="-5.185786435593946"><ele>495.0</ele><time>2026-04-25T07:25:26Z</time></trkpt><trkpt lat="36.764736658325525" lon="-5.185861654415996"><ele>494.99999999999994</ele><time>2026-04-25T07:25:27Z</time></trkpt><trkpt lat="36.76470048709925" lon="-5.185931469603083"><ele>494.99999999999994</ele><time>2026-04-25T07:25:28Z</time></trkpt><trkpt lat="36.764683283805205" lon="-5.186007998081169"><ele>495.0</ele><time>2026-04-25T07:25:29Z</time></trkpt><trkpt lat="36.764657885941936" lon="-5.186080055907694"><ele>494.99999999999994</ele><time>2026-04-25T07:25:30Z</time></trkpt><trkpt lat="36.764600739096345" lon="-5.186138024962345"><ele>494.99999999999994</ele><time>2026-04-25T07:25:31Z</time></trkpt><trkpt lat="36.76457469600494" lon="-5.186212540060501"><ele>495.0</ele><time>2026-04-25T07:25:32Z</time></trkpt><trkpt lat="36.76455393820886" lon="-5.186292388316198"><ele>495.0</ele><time>2026-04-25T07:25:33Z</time></trkpt><trkpt lat="36.76453550316873" lon="-5.186375172548593"><ele>495.0</ele><time>2026-04-25T07:25:34Z</time></trkpt><trkpt lat="36.764534057558336" lon="-5.186466370517588"><ele>495.0</ele><time>2026-04-25T07:25:35Z</time></trkpt><trkpt lat="36.7645312170083" lon="-5.186552832067023"><ele>495.0</ele><time>2026-04-25T07:25:36Z</time></trkpt><trkpt lat="36.76456842920075" lon="-5.186677465013089"><ele>495.0</ele><time>2026-04-25T07:25:38Z</time></trkpt><trkpt lat="36.764618231780275" lon="-5.186734053301877"><ele>495.2</ele><time>2026-04-25T07:25:39Z</time></trkpt><trkpt lat="36.764716768119946" lon="-5.186819231008666"><ele>495.4</ele><time>2026-04-25T07:25:41Z</time></trkpt><trkpt lat="36.76478611398868" lon="-5.18694667182547"><ele>495.6</ele><time>2026-04-25T07:25:43Z</time></trkpt><trkpt lat="36.76481814209816" lon="-5.187025300885872"><ele>495.8</ele><time>2026-04-25T07:25:44Z</time></trkpt><trkpt lat="36.764852216775765" lon="-5.187117622736405"><ele>496.0</ele><time>2026-04-25T07:25:45Z</time></trkpt><trkpt lat="36.76488485980042" lon="-5.187214081028759"><ele>496.0</ele><time>2026-04-25T07:25:46Z</time></trkpt><trkpt lat="36.76490798396703" lon="-5.187314905774204"><ele>496.0</ele><time>2026-04-25T07:25:47Z</time></trkpt><trkpt lat="36.764922928299846" lon="-5.187423011676244"><ele>496.0</ele><time>2026-04-25T07:25:48Z</time></trkpt><trkpt lat="36.76492970987875" lon="-5.187540659007186"><ele>496.0</ele><time>2026-04-25T07:25:49Z</time></trkpt><trkpt lat="36.76493477704316" lon="-5.1876640807524685"><ele>496.0</ele><time>2026-04-25T07:25:50Z</time></trkpt><trkpt lat="36.764935501114884" lon="-5.187786394065423"><ele>496.20000000000005</ele><time>2026-04-25T07:25:51Z</time></trkpt><trkpt lat="36.764933299519484" lon="-5.187906252092894"><ele>496.40000000000003</ele><time>2026-04-25T07:25:52Z</time></trkpt><trkpt lat="36.7649329627089" lon="-5.188036283972815"><ele>496.6</ele><time>2026-04-25T07:25:53Z</time></trkpt><trkpt lat="36.76494103282695" lon="-5.18816558104857"><ele>496.8</ele><time>2026-04-25T07:25:54Z</time></trkpt><trkpt lat="36.76492757638725" lon="-5.1883043128754345"><ele>497.0</ele><time>2026-04-25T07:25:55Z</time></trkpt><trkpt lat="36.76492384684936" lon="-5.188437489847862"><ele>497.6</ele><time>2026-04-25T07:25:56Z</time></trkpt><trkpt lat="36.76492004258534" lon="-5.188577194776451"><ele>498.20000000000005</ele><time>2026-04-25T07:25:57Z</time></trkpt><trkpt lat="36.76491636624933" lon="-5.188711486849117"><ele>498.8</ele><time>2026-04-25T07:25:57.999Z</time></trkpt><trkpt lat="36.76491167472739" lon="-5.188849243031111"><ele>499.4</ele><time>2026-04-25T07:25:58.999Z</time></trkpt><trkpt lat="36.76490476612538" lon="-5.188980911305324"><ele>500.0</ele><time>2026-04-25T07:25:59.999Z</time></trkpt><trkpt lat="36.76490141086193" lon="-5.189116375308917"><ele>500.0</ele><time>2026-04-25T07:26:00.999Z</time></trkpt><trkpt lat="36.76489905012688" lon="-5.189245290622713"><ele>500.0</ele><time>2026-04-25T07:26:01.999Z</time></trkpt><trkpt lat="36.76489325075405" lon="-5.189382160013272"><ele>500.0</ele><time>2026-04-25T07:26:02.999Z</time></trkpt><trkpt lat="36.76488373727307" lon="-5.189519890824023"><ele>500.0</ele><time>2026-04-25T07:26:03.999Z</time></trkpt><trkpt lat="36.76487974988932" lon="-5.189659093782176"><ele>500.0</ele><time>2026-04-25T07:26:04.999Z</time></trkpt><trkpt lat="36.76487084907155" lon="-5.1897978909981095"><ele>500.0</ele><time>2026-04-25T07:26:05.999Z</time></trkpt><trkpt lat="36.764870743417404" lon="-5.1899325534774"><ele>500.0</ele><time>2026-04-25T07:26:06.999Z</time></trkpt><trkpt lat="36.76487256641107" lon="-5.190072888589216"><ele>500.0</ele><time>2026-04-25T07:26:07.999Z</time></trkpt><trkpt lat="36.76486931816096" lon="-5.190206730076885"><ele>500.0</ele><time>2026-04-25T07:26:08.999Z</time></trkpt><trkpt lat="36.76486354583592" lon="-5.1903390102093265"><ele>500.0</ele><time>2026-04-25T07:26:09.999Z</time></trkpt><trkpt lat="36.76485752663468" lon="-5.190466937063877"><ele>500.0</ele><time>2026-04-25T07:26:10.999Z</time></trkpt><trkpt lat="36.76485767812795" lon="-5.190593896712763"><ele>500.0</ele><time>2026-04-25T07:26:11.999Z</time></trkpt><trkpt lat="36.764851970751195" lon="-5.190722839543292"><ele>500.0</ele><time>2026-04-25T07:26:12.999Z</time></trkpt><trkpt lat="36.76485048697582" lon="-5.190850570437989"><ele>500.0</ele><time>2026-04-25T07:26:13.999Z</time></trkpt><trkpt lat="36.7648470334773" lon="-5.190975740868516"><ele>500.0</ele><time>2026-04-25T07:26:14.999Z</time></trkpt><trkpt lat="36.76484699691515" lon="-5.191092948478378"><ele>500.0</ele><time>2026-04-25T07:26:15.999Z</time></trkpt><trkpt lat="36.76485776179453" lon="-5.191198455204753"><ele>500.0</ele><time>2026-04-25T07:26:16.999Z</time></trkpt><trkpt lat="36.76489316838881" lon="-5.1912891925991"><ele>500.0</ele><time>2026-04-25T07:26:17.999Z</time></trkpt><trkpt lat="36.76494949398791" lon="-5.191370244981087"><ele>500.0</ele><time>2026-04-25T07:26:18.999Z</time></trkpt><trkpt lat="36.765055214694016" lon="-5.191518409810679"><ele>500.0</ele><time>2026-04-25T07:26:19.999Z</time></trkpt><trkpt lat="36.76498828141901" lon="-5.191607837694661"><ele>500.0</ele><time>2026-04-25T07:26:21.999Z</time></trkpt><trkpt lat="36.764955790897595" lon="-5.191689054063839"><ele>500.0</ele><time>2026-04-25T07:26:22.999Z</time></trkpt><trkpt lat="36.76491076270747" lon="-5.191766851864486"><ele>500.0</ele><time>2026-04-25T07:26:23.999Z</time></trkpt><trkpt lat="36.76486161032175" lon="-5.191822906885997"><ele>500.0</ele><time>2026-04-25T07:26:24.999Z</time></trkpt><trkpt lat="36.76480320295395" lon="-5.191873846018965"><ele>500.0</ele><time>2026-04-25T07:26:26.999Z</time></trkpt><trkpt lat="36.76466671859148" lon="-5.191760378124935"><ele>499.99999999999994</ele><time>2026-04-25T07:26:46.999Z</time></trkpt><trkpt lat="36.76466843978272" lon="-5.191662648147554"><ele>500.0</ele><time>2026-04-25T07:26:47.999Z</time></trkpt><trkpt lat="36.764645098449805" lon="-5.191570440937715"><ele>500.0</ele><time>2026-04-25T07:26:48.999Z</time></trkpt><trkpt lat="36.76462582881525" lon="-5.191477044559566"><ele>500.0</ele><time>2026-04-25T07:26:49.999Z</time></trkpt><trkpt lat="36.76460785135565" lon="-5.1913649669252"><ele>499.99999999999994</ele><time>2026-04-25T07:26:50.999Z</time></trkpt><trkpt lat="36.764583440471135" lon="-5.191239326120264"><ele>500.0</ele><time>2026-04-25T07:26:51.999Z</time></trkpt><trkpt lat="36.7645570403591" lon="-5.1911054346814565"><ele>500.0</ele><time>2026-04-25T07:26:52.999Z</time></trkpt><trkpt lat="36.764531799961986" lon="-5.1909760202452615"><ele>500.0</ele><time>2026-04-25T07:26:53.999Z</time></trkpt><trkpt lat="36.76450918804717" lon="-5.190842036652923"><ele>500.0</ele><time>2026-04-25T07:26:54.999Z</time></trkpt><trkpt lat="36.76448136954892" lon="-5.190697774993662"><ele>500.0</ele><time>2026-04-25T07:26:55.999Z</time></trkpt><trkpt lat="36.764453405410954" lon="-5.1905494941131565"><ele>500.0</ele><time>2026-04-25T07:26:56.999Z</time></trkpt><trkpt lat="36.76442927115953" lon="-5.190396433795386"><ele>500.0</ele><time>2026-04-25T07:26:57.999Z</time></trkpt><trkpt lat="36.76440557161768" lon="-5.190237368688748"><ele>500.0</ele><time>2026-04-25T07:26:58.999Z</time></trkpt><trkpt lat="36.76438204950359" lon="-5.1900795717879555"><ele>500.0</ele><time>2026-04-25T07:26:59.999Z</time></trkpt><trkpt lat="36.76435430676791" lon="-5.189917089636429"><ele>498.75</ele><time>2026-04-25T07:27:00.999Z</time></trkpt><trkpt lat="36.76432094667091" lon="-5.1897498011527565"><ele>497.5</ele><time>2026-04-25T07:27:01.999Z</time></trkpt><trkpt lat="36.764290264569254" lon="-5.189586743970314"><ele>496.25</ele><time>2026-04-25T07:27:02.999Z</time></trkpt><trkpt lat="36.76425648762675" lon="-5.189428409258636"><ele>495.0</ele><time>2026-04-25T07:27:03.999Z</time></trkpt><trkpt lat="36.764209924072155" lon="-5.189266800672292"><ele>495.0</ele><time>2026-04-25T07:27:04.999Z</time></trkpt><trkpt lat="36.764186953868155" lon="-5.189102453388008"><ele>495.0</ele><time>2026-04-25T07:27:05.999Z</time></trkpt><trkpt lat="36.76414819572447" lon="-5.188935724839909"><ele>495.0</ele><time>2026-04-25T07:27:06.999Z</time></trkpt><trkpt lat="36.76411702341277" lon="-5.1887611697220155"><ele>495.0</ele><time>2026-04-25T07:27:07.999Z</time></trkpt><trkpt lat="36.7640796383537" lon="-5.188584476914732"><ele>494.25</ele><time>2026-04-25T07:27:08.999Z</time></trkpt><trkpt lat="36.764042909209095" lon="-5.188406777503959"><ele>493.5</ele><time>2026-04-25T07:27:09.999Z</time></trkpt><trkpt lat="36.76400580730143" lon="-5.188224688281713"><ele>492.75</ele><time>2026-04-25T07:27:10.999Z</time></trkpt><trkpt lat="36.76396912601805" lon="-5.188044449849366"><ele>492.0</ele><time>2026-04-25T07:27:11.999Z</time></trkpt><trkpt lat="36.76393400453304" lon="-5.187859959711054"><ele>491.75</ele><time>2026-04-25T07:27:12.999Z</time></trkpt><trkpt lat="36.76389735613305" lon="-5.187679464888541"><ele>491.5</ele><time>2026-04-25T07:27:13.998Z</time></trkpt><trkpt lat="36.763863630744865" lon="-5.187500246303356"><ele>491.25</ele><time>2026-04-25T07:27:14.998Z</time></trkpt><trkpt lat="36.763827974090155" lon="-5.18732187654604"><ele>491.0</ele><time>2026-04-25T07:27:15.998Z</time></trkpt><trkpt lat="36.7637935830617" lon="-5.1871374412178675"><ele>492.0</ele><time>2026-04-25T07:27:16.998Z</time></trkpt><trkpt lat="36.76375690031924" lon="-5.186954063532178"><ele>493.0</ele><time>2026-04-25T07:27:17.998Z</time></trkpt><trkpt lat="36.76372347519125" lon="-5.186772646427885"><ele>494.0</ele><time>2026-04-25T07:27:18.998Z</time></trkpt><trkpt lat="36.76368503186196" lon="-5.18659060934406"><ele>494.25</ele><time>2026-04-25T07:27:19.998Z</time></trkpt><trkpt lat="36.76365379407613" lon="-5.186410335276151"><ele>494.5</ele><time>2026-04-25T07:27:20.998Z</time></trkpt><trkpt lat="36.76362340488298" lon="-5.186228041433462"><ele>494.75</ele><time>2026-04-25T07:27:21.998Z</time></trkpt><trkpt lat="36.76359815106203" lon="-5.186041405984492"><ele>495.0</ele><time>2026-04-25T07:27:22.998Z</time></trkpt><trkpt lat="36.76355869594672" lon="-5.185864743336629"><ele>495.0</ele><time>2026-04-25T07:27:23.998Z</time></trkpt><trkpt lat="36.763553609313014" lon="-5.185679217135103"><ele>495.0</ele><time>2026-04-25T07:27:24.998Z</time></trkpt><trkpt lat="36.76353459440963" lon="-5.185491770378419"><ele>495.0</ele><time>2026-04-25T07:27:25.998Z</time></trkpt><trkpt lat="36.76351417767686" lon="-5.185298487869945"><ele>498.66666666666663</ele><time>2026-04-25T07:27:26.999Z</time></trkpt><trkpt lat="36.76350045160853" lon="-5.185099996961508"><ele>502.3333333333333</ele><time>2026-04-25T07:27:27.999Z</time></trkpt><trkpt lat="36.763494690718986" lon="-5.1848992244214855"><ele>506.0</ele><time>2026-04-25T07:27:28.999Z</time></trkpt><trkpt lat="36.76349000094134" lon="-5.184690151133464"><ele>508.0</ele><time>2026-04-25T07:27:29.999Z</time></trkpt><trkpt lat="36.76348899278274" lon="-5.184481937838258"><ele>510.0</ele><time>2026-04-25T07:27:30.999Z</time></trkpt><trkpt lat="36.76348800634164" lon="-5.184265244774299"><ele>512.0</ele><time>2026-04-25T07:27:31.999Z</time></trkpt><trkpt lat="36.76349277726964" lon="-5.1840442365516965"><ele>511.66666666666663</ele><time>2026-04-25T07:27:32.999Z</time></trkpt><trkpt lat="36.76350197811818" lon="-5.183820994030003"><ele>511.33333333333337</ele><time>2026-04-25T07:27:33.999Z</time></trkpt><trkpt lat="36.763518814344856" lon="-5.1835954553028145"><ele>511.0</ele><time>2026-04-25T07:27:34.999Z</time></trkpt><trkpt lat="36.763541289132256" lon="-5.183374153562355"><ele>513.0</ele><time>2026-04-25T07:27:35.999Z</time></trkpt><trkpt lat="36.76356553491287" lon="-5.183146588481325"><ele>515.0</ele><time>2026-04-25T07:27:37Z</time></trkpt><trkpt lat="36.763597696384075" lon="-5.182923235788443"><ele>517.0</ele><time>2026-04-25T07:27:38Z</time></trkpt><trkpt lat="36.76363070266316" lon="-5.182699777413418"><ele>517.0</ele><time>2026-04-25T07:27:39Z</time></trkpt><trkpt lat="36.76367131849139" lon="-5.182486788124317"><ele>517.0</ele><time>2026-04-25T07:27:40Z</time></trkpt><trkpt lat="36.76371235009615" lon="-5.182269390241871"><ele>517.0</ele><time>2026-04-25T07:27:41Z</time></trkpt><trkpt lat="36.76375717469751" lon="-5.182047251441081"><ele>518.6666666666667</ele><time>2026-04-25T07:27:42Z</time></trkpt><trkpt lat="36.76380941850072" lon="-5.18182834799646"><ele>520.3333333333334</ele><time>2026-04-25T07:27:43Z</time></trkpt><trkpt lat="36.76386858500262" lon="-5.181610295922501"><ele>522.0</ele><time>2026-04-25T07:27:44Z</time></trkpt><trkpt lat="36.763930991241" lon="-5.181391349548211"><ele>522.6666666666666</ele><time>2026-04-25T07:27:45Z</time></trkpt><trkpt lat="36.763997335793455" lon="-5.181179656404855"><ele>523.3333333333333</ele><time>2026-04-25T07:27:46Z</time></trkpt><trkpt lat="36.76405969281261" lon="-5.180966684275903"><ele>524.0</ele><time>2026-04-25T07:27:47Z</time></trkpt><trkpt lat="36.76412782346996" lon="-5.180756464845323"><ele>526.6666666666666</ele><time>2026-04-25T07:27:48Z</time></trkpt><trkpt lat="36.7641981669834" lon="-5.180554558300386"><ele>529.3333333333334</ele><time>2026-04-25T07:27:49Z</time></trkpt><trkpt lat="36.76426272008129" lon="-5.180363442813269"><ele>532.0</ele><time>2026-04-25T07:27:50Z</time></trkpt><trkpt lat="36.764327685043014" lon="-5.180164470006793"><ele>530.0</ele><time>2026-04-25T07:27:51Z</time></trkpt><trkpt lat="36.764386573252025" lon="-5.179963443790864"><ele>528.0</ele><time>2026-04-25T07:27:52Z</time></trkpt><trkpt lat="36.76445101963293" lon="-5.179777122969658"><ele>526.0</ele><time>2026-04-25T07:27:53Z</time></trkpt><trkpt lat="36.764512421257244" lon="-5.17958690504642"><ele>526.0</ele><time>2026-04-25T07:27:54Z</time></trkpt><trkpt lat="36.76457523843435" lon="-5.1793974853269376"><ele>526.0</ele><time>2026-04-25T07:27:55Z</time></trkpt><trkpt lat="36.76463756976129" lon="-5.1792101676798135"><ele>526.0</ele><time>2026-04-25T07:27:56Z</time></trkpt><trkpt lat="36.76470123644345" lon="-5.179018574582995"><ele>528.3333333333334</ele><time>2026-04-25T07:27:57Z</time></trkpt><trkpt lat="36.76476438420283" lon="-5.178829325452244"><ele>530.6666666666666</ele><time>2026-04-25T07:27:58Z</time></trkpt><trkpt lat="36.764826485862365" lon="-5.17863258423425"><ele>533.0</ele><time>2026-04-25T07:27:59Z</time></trkpt><trkpt lat="36.76488967294007" lon="-5.178439950095175"><ele>533.0</ele><time>2026-04-25T07:27:59.999Z</time></trkpt><trkpt lat="36.76495145862463" lon="-5.178249115940081"><ele>533.0</ele><time>2026-04-25T07:28:00.999Z</time></trkpt><trkpt lat="36.76502191706605" lon="-5.178051670633612"><ele>533.0</ele><time>2026-04-25T07:28:01.999Z</time></trkpt><trkpt lat="36.76508950807009" lon="-5.1778525782731055"><ele>533.3333333333333</ele><time>2026-04-25T07:28:02.999Z</time></trkpt><trkpt lat="36.76515369384281" lon="-5.177655062001724"><ele>533.6666666666666</ele><time>2026-04-25T07:28:03.999Z</time></trkpt><trkpt lat="36.76522090492406" lon="-5.177459268517332"><ele>534.0</ele><time>2026-04-25T07:28:04.999Z</time></trkpt><trkpt lat="36.76529028663199" lon="-5.177262731682266"><ele>534.0</ele><time>2026-04-25T07:28:05.999Z</time></trkpt><trkpt lat="36.76536630702717" lon="-5.1770706666117245"><ele>534.0</ele><time>2026-04-25T07:28:06.999Z</time></trkpt><trkpt lat="36.76544960052705" lon="-5.17688215948451"><ele>534.0</ele><time>2026-04-25T07:28:07.999Z</time></trkpt><trkpt lat="36.76554449944398" lon="-5.176700502810195"><ele>534.0</ele><time>2026-04-25T07:28:08.999Z</time></trkpt><trkpt lat="36.76563638008225" lon="-5.176531172349738"><ele>534.0</ele><time>2026-04-25T07:28:09.999Z</time></trkpt><trkpt lat="36.76573582254288" lon="-5.176384515274277"><ele>534.0</ele><time>2026-04-25T07:28:10.999Z</time></trkpt><trkpt lat="36.76583954379718" lon="-5.176239999061903"><ele>532.3333333333334</ele><time>2026-04-25T07:28:11.999Z</time></trkpt><trkpt lat="36.76594778531209" lon="-5.176096658164103"><ele>530.6666666666667</ele><time>2026-04-25T07:28:12.999Z</time></trkpt><trkpt lat="36.766058928091475" lon="-5.175947900008869"><ele>529.0</ele><time>2026-04-25T07:28:13.999Z</time></trkpt><trkpt lat="36.76617586143933" lon="-5.175798324424498"><ele>532.6666666666667</ele><time>2026-04-25T07:28:14.999Z</time></trkpt><trkpt lat="36.766297059986776" lon="-5.175656032578841"><ele>536.3333333333334</ele><time>2026-04-25T07:28:15.999Z</time></trkpt><trkpt lat="36.76642295763493" lon="-5.175505508338628"><ele>540.0</ele><time>2026-04-25T07:28:16.999Z</time></trkpt><trkpt lat="36.76654686983565" lon="-5.1753581136215425"><ele>540.0</ele><time>2026-04-25T07:28:17.999Z</time></trkpt><trkpt lat="36.7666717638019" lon="-5.175205653018998"><ele>540.0</ele><time>2026-04-25T07:28:18.999Z</time></trkpt><trkpt lat="36.76679919320232" lon="-5.175045234982076"><ele>540.0</ele><time>2026-04-25T07:28:19.999Z</time></trkpt><trkpt lat="36.76692495550369" lon="-5.174883532174992"><ele>538.6666666666666</ele><time>2026-04-25T07:28:20.999Z</time></trkpt><trkpt lat="36.767054034912434" lon="-5.1747242806505485"><ele>537.3333333333333</ele><time>2026-04-25T07:28:21.999Z</time></trkpt><trkpt lat="36.76718481261307" lon="-5.174559416573334"><ele>536.0</ele><time>2026-04-25T07:28:22.999Z</time></trkpt><trkpt lat="36.76731321863448" lon="-5.174400485656091"><ele>536.0</ele><time>2026-04-25T07:28:23.999Z</time></trkpt><trkpt lat="36.76742770299838" lon="-5.17423980037509"><ele>536.0</ele><time>2026-04-25T07:28:24.999Z</time></trkpt><trkpt lat="36.767531031811224" lon="-5.174070899669722"><ele>536.0</ele><time>2026-04-25T07:28:25.999Z</time></trkpt><trkpt lat="36.76761863425648" lon="-5.173885478984031"><ele>536.6666666666666</ele><time>2026-04-25T07:28:26.999Z</time></trkpt><trkpt lat="36.767685531384636" lon="-5.173684641898335"><ele>537.3333333333334</ele><time>2026-04-25T07:28:27.999Z</time></trkpt><trkpt lat="36.76773899897641" lon="-5.173475917829506"><ele>538.0</ele><time>2026-04-25T07:28:28.999Z</time></trkpt><trkpt lat="36.767754106640155" lon="-5.173255339063155"><ele>534.6666666666667</ele><time>2026-04-25T07:28:29.999Z</time></trkpt><trkpt lat="36.76776832517865" lon="-5.173041294151819"><ele>531.3333333333334</ele><time>2026-04-25T07:28:30.999Z</time></trkpt><trkpt lat="36.76776232530759" lon="-5.1728272936398385"><ele>528.0</ele><time>2026-04-25T07:28:31.999Z</time></trkpt><trkpt lat="36.767734825354154" lon="-5.172623753083637"><ele>531.6666666666666</ele><time>2026-04-25T07:28:32.999Z</time></trkpt><trkpt lat="36.76768653274918" lon="-5.172417728622501"><ele>535.3333333333333</ele><time>2026-04-25T07:28:33.999Z</time></trkpt><trkpt lat="36.76762700439852" lon="-5.172224436426875"><ele>539.0</ele><time>2026-04-25T07:28:34.999Z</time></trkpt><trkpt lat="36.76754439783311" lon="-5.172042059481207"><ele>540.6666666666666</ele><time>2026-04-25T07:28:35.999Z</time></trkpt><trkpt lat="36.76745053557698" lon="-5.171866239664833"><ele>542.3333333333334</ele><time>2026-04-25T07:28:36.999Z</time></trkpt><trkpt lat="36.76733895755713" lon="-5.171709544660916"><ele>544.0</ele><time>2026-04-25T07:28:37.999Z</time></trkpt><trkpt lat="36.76721582361391" lon="-5.171562933905947"><ele>543.0</ele><time>2026-04-25T07:28:38.999Z</time></trkpt><trkpt lat="36.767092842838906" lon="-5.171417548453828"><ele>542.0</ele><time>2026-04-25T07:28:39.999Z</time></trkpt><trkpt lat="36.76693452495744" lon="-5.171328149588024"><ele>541.0</ele><time>2026-04-25T07:28:40.999Z</time></trkpt><trkpt lat="36.766779946495014" lon="-5.171216917714245"><ele>544.6666666666667</ele><time>2026-04-25T07:28:41.999Z</time></trkpt><trkpt lat="36.7666028681588" lon="-5.171147660582047"><ele>548.3333333333334</ele><time>2026-04-25T07:28:42.999Z</time></trkpt><trkpt lat="36.76642450541487" lon="-5.171103755911536"><ele>552.0</ele><time>2026-04-25T07:28:43.999Z</time></trkpt><trkpt lat="36.76623332166648" lon="-5.171086932571094"><ele>552.0</ele><time>2026-04-25T07:28:44.999Z</time></trkpt><trkpt lat="36.76604955201718" lon="-5.171095660382672"><ele>552.0</ele><time>2026-04-25T07:28:45.999Z</time></trkpt><trkpt lat="36.765868587350205" lon="-5.17113155784194"><ele>552.0</ele><time>2026-04-25T07:28:46.999Z</time></trkpt><trkpt lat="36.76569465924761" lon="-5.171201429485272"><ele>553.3333333333334</ele><time>2026-04-25T07:28:47.999Z</time></trkpt><trkpt lat="36.765528839868104" lon="-5.1712941779578125"><ele>554.6666666666667</ele><time>2026-04-25T07:28:48.999Z</time></trkpt><trkpt lat="36.76536959133086" lon="-5.17141136609785"><ele>556.0</ele><time>2026-04-25T07:28:49.999Z</time></trkpt><trkpt lat="36.76522302642745" lon="-5.171542262162833"><ele>558.6666666666667</ele><time>2026-04-25T07:28:50.999Z</time></trkpt><trkpt lat="36.76508580996926" lon="-5.171701080268215"><ele>561.3333333333334</ele><time>2026-04-25T07:28:51.999Z</time></trkpt><trkpt lat="36.76496344478551" lon="-5.171877906093098"><ele>564.0</ele><time>2026-04-25T07:28:52.999Z</time></trkpt><trkpt lat="36.76485277037354" lon="-5.17206173888481"><ele>564.0</ele><time>2026-04-25T07:28:53.999Z</time></trkpt><trkpt lat="36.76477425434581" lon="-5.172288029040394"><ele>564.0</ele><time>2026-04-25T07:28:54.999Z</time></trkpt><trkpt lat="36.7647088354946" lon="-5.172507059910655"><ele>564.0</ele><time>2026-04-25T07:28:55.999Z</time></trkpt><trkpt lat="36.764648634343" lon="-5.172739635912331"><ele>564.0</ele><time>2026-04-25T07:28:56.999Z</time></trkpt><trkpt lat="36.764592692809714" lon="-5.172955809319433"><ele>564.0</ele><time>2026-04-25T07:28:57.999Z</time></trkpt><trkpt lat="36.76453668470726" lon="-5.173173339857539"><ele>564.0</ele><time>2026-04-25T07:28:58.999Z</time></trkpt><trkpt lat="36.764479166414105" lon="-5.173388059107723"><ele>564.0</ele><time>2026-04-25T07:28:59.999Z</time></trkpt><trkpt lat="36.764419416101795" lon="-5.173600647101648"><ele>564.0</ele><time>2026-04-25T07:29:00.999Z</time></trkpt><trkpt lat="36.76436340660398" lon="-5.173811395671509"><ele>564.0</ele><time>2026-04-25T07:29:01.999Z</time></trkpt><trkpt lat="36.764312050249565" lon="-5.174021248473491"><ele>569.0</ele><time>2026-04-25T07:29:02.999Z</time></trkpt><trkpt lat="36.76425799246356" lon="-5.174229344541711"><ele>574.0</ele><time>2026-04-25T07:29:03.999Z</time></trkpt><trkpt lat="36.764201437575906" lon="-5.174429111134409"><ele>579.0</ele><time>2026-04-25T07:29:04.999Z</time></trkpt><trkpt lat="36.76413921470545" lon="-5.174628699749953"><ele>579.0</ele><time>2026-04-25T07:29:05.999Z</time></trkpt><trkpt lat="36.764072016640874" lon="-5.174828284942393"><ele>579.0</ele><time>2026-04-25T07:29:06.999Z</time></trkpt><trkpt lat="36.76400386139582" lon="-5.175029583224683"><ele>579.0</ele><time>2026-04-25T07:29:07.999Z</time></trkpt><trkpt lat="36.76392337606195" lon="-5.1752216031430205"><ele>578.3333333333334</ele><time>2026-04-25T07:29:08.999Z</time></trkpt><trkpt lat="36.76384204065272" lon="-5.1754191547707045"><ele>577.6666666666667</ele><time>2026-04-25T07:29:09.999Z</time></trkpt><trkpt lat="36.763754174419866" lon="-5.1756053838233536"><ele>577.0</ele><time>2026-04-25T07:29:10.999Z</time></trkpt><trkpt lat="36.76366151256503" lon="-5.175788142707747"><ele>576.0</ele><time>2026-04-25T07:29:11.999Z</time></trkpt><trkpt lat="36.763562157463426" lon="-5.175963738928675"><ele>575.0</ele><time>2026-04-25T07:29:12.999Z</time></trkpt><trkpt lat="36.76345809147001" lon="-5.176134084773482"><ele>574.0</ele><time>2026-04-25T07:29:13.999Z</time></trkpt><trkpt lat="36.763345285612196" lon="-5.176305627366354"><ele>576.6666666666667</ele><time>2026-04-25T07:29:14.999Z</time></trkpt><trkpt lat="36.76322592521784" lon="-5.176471309000583"><ele>579.3333333333334</ele><time>2026-04-25T07:29:15.999Z</time></trkpt><trkpt lat="36.76309618066692" lon="-5.176622875049533"><ele>582.0</ele><time>2026-04-25T07:29:16.999Z</time></trkpt><trkpt lat="36.76295487545085" lon="-5.176766052229088"><ele>582.0</ele><time>2026-04-25T07:29:17.999Z</time></trkpt><trkpt lat="36.762803509801664" lon="-5.176900157833802"><ele>582.0</ele><time>2026-04-25T07:29:18.999Z</time></trkpt><trkpt lat="36.76264659494107" lon="-5.177029946612046"><ele>582.0</ele><time>2026-04-25T07:29:19.999Z</time></trkpt><trkpt lat="36.762490112879476" lon="-5.177153319223664"><ele>583.3333333333334</ele><time>2026-04-25T07:29:20.999Z</time></trkpt><trkpt lat="36.76233116472909" lon="-5.177268316317151"><ele>584.6666666666667</ele><time>2026-04-25T07:29:21.999Z</time></trkpt><trkpt lat="36.762168333990004" lon="-5.177369603286432"><ele>586.0</ele><time>2026-04-25T07:29:22.999Z</time></trkpt><trkpt lat="36.7620038802218" lon="-5.177461118179785"><ele>588.3333333333334</ele><time>2026-04-25T07:29:23.999Z</time></trkpt><trkpt lat="36.761837271113585" lon="-5.17754098625439"><ele>590.6666666666666</ele><time>2026-04-25T07:29:24.999Z</time></trkpt><trkpt lat="36.761668133080065" lon="-5.177619454407746"><ele>593.0</ele><time>2026-04-25T07:29:25.999Z</time></trkpt><trkpt lat="36.76149756481461" lon="-5.177697372739214"><ele>593.0</ele><time>2026-04-25T07:29:26.999Z</time></trkpt><trkpt lat="36.76132564482108" lon="-5.177771224711742"><ele>593.0</ele><time>2026-04-25T07:29:27.998Z</time></trkpt><trkpt lat="36.76115241124758" lon="-5.177841311627792"><ele>593.0</ele><time>2026-04-25T07:29:28.998Z</time></trkpt><trkpt lat="36.7609777399194" lon="-5.177913740141423"><ele>595.6666666666666</ele><time>2026-04-25T07:29:29.998Z</time></trkpt><trkpt lat="36.76079970286776" lon="-5.177986937582608"><ele>598.3333333333334</ele><time>2026-04-25T07:29:30.998Z</time></trkpt><trkpt lat="36.760624834922424" lon="-5.178057917142695"><ele>601.0</ele><time>2026-04-25T07:29:31.998Z</time></trkpt><trkpt lat="36.760446967959346" lon="-5.17812840136176"><ele>600.3333333333334</ele><time>2026-04-25T07:29:33Z</time></trkpt><trkpt lat="36.76027186623303" lon="-5.178194384426497"><ele>599.6666666666666</ele><time>2026-04-25T07:29:34Z</time></trkpt><trkpt lat="36.76009444214908" lon="-5.178260639497631"><ele>599.0</ele><time>2026-04-25T07:29:35Z</time></trkpt><trkpt lat="36.759918032773335" lon="-5.178326946305379"><ele>599.0</ele><time>2026-04-25T07:29:36Z</time></trkpt><trkpt lat="36.75974213629835" lon="-5.178396346959684"><ele>599.0</ele><time>2026-04-25T07:29:37Z</time></trkpt><trkpt lat="36.75956889025121" lon="-5.1784635964008165"><ele>599.0</ele><time>2026-04-25T07:29:38Z</time></trkpt><trkpt lat="36.759398350151784" lon="-5.178530924233146"><ele>604.3333333333333</ele><time>2026-04-25T07:29:39Z</time></trkpt><trkpt lat="36.759224060755635" lon="-5.178594963832016"><ele>609.6666666666666</ele><time>2026-04-25T07:29:40Z</time></trkpt><trkpt lat="36.759045477070075" lon="-5.178658375344486"><ele>615.0</ele><time>2026-04-25T07:29:41Z</time></trkpt><trkpt lat="36.758866734491875" lon="-5.178725377881325"><ele>615.0</ele><time>2026-04-25T07:29:42Z</time></trkpt><trkpt lat="36.75868929140377" lon="-5.178794546275772"><ele>615.0</ele><time>2026-04-25T07:29:43Z</time></trkpt><trkpt lat="36.75850684261326" lon="-5.178868031292786"><ele>615.0</ele><time>2026-04-25T07:29:44Z</time></trkpt><trkpt lat="36.75832598020066" lon="-5.178943911118909"><ele>613.0</ele><time>2026-04-25T07:29:45Z</time></trkpt><trkpt lat="36.75814124212328" lon="-5.179019696588773"><ele>611.0</ele><time>2026-04-25T07:29:46Z</time></trkpt><trkpt lat="36.75795678250115" lon="-5.179092328177254"><ele>609.0</ele><time>2026-04-25T07:29:47Z</time></trkpt><trkpt lat="36.757772705634466" lon="-5.179169339654226"><ele>610.6666666666666</ele><time>2026-04-25T07:29:48Z</time></trkpt><trkpt lat="36.75758442426865" lon="-5.179246641995773"><ele>612.3333333333333</ele><time>2026-04-25T07:29:49Z</time></trkpt><trkpt lat="36.75740150210616" lon="-5.1793227684716"><ele>614.0</ele><time>2026-04-25T07:29:50Z</time></trkpt><trkpt lat="36.75721711936186" lon="-5.17939249216752"><ele>614.0</ele><time>2026-04-25T07:29:51Z</time></trkpt><trkpt lat="36.75703477623524" lon="-5.17946463130369"><ele>614.0</ele><time>2026-04-25T07:29:52Z</time></trkpt><trkpt lat="36.75685264726775" lon="-5.179542287429738"><ele>614.0</ele><time>2026-04-25T07:29:53Z</time></trkpt><trkpt lat="36.75666841958421" lon="-5.179623044514124"><ele>612.3333333333333</ele><time>2026-04-25T07:29:54Z</time></trkpt><trkpt lat="36.756489974408375" lon="-5.179701068750073"><ele>610.6666666666666</ele><time>2026-04-25T07:29:55Z</time></trkpt><trkpt lat="36.75631189136294" lon="-5.1797806625506055"><ele>609.0</ele><time>2026-04-25T07:29:56Z</time></trkpt><trkpt lat="36.75613475426038" lon="-5.1798605184622515"><ele>612.3333333333334</ele><time>2026-04-25T07:29:57Z</time></trkpt><trkpt lat="36.755955907941875" lon="-5.1799395342908925"><ele>615.6666666666667</ele><time>2026-04-25T07:29:58Z</time></trkpt><trkpt lat="36.755773291221836" lon="-5.1800202116509935"><ele>619.0</ele><time>2026-04-25T07:29:59Z</time></trkpt><trkpt lat="36.75559361866209" lon="-5.180098060798664"><ele>619.0</ele><time>2026-04-25T07:30:00Z</time></trkpt><trkpt lat="36.755412094765006" lon="-5.180167936470907"><ele>619.0</ele><time>2026-04-25T07:30:01Z</time></trkpt><trkpt lat="36.75523150706828" lon="-5.180234659404152"><ele>619.0</ele><time>2026-04-25T07:30:02Z</time></trkpt><trkpt lat="36.75505258119413" lon="-5.180303569212761"><ele>623.0</ele><time>2026-04-25T07:30:03Z</time></trkpt><trkpt lat="36.75487630055251" lon="-5.1803741347898535"><ele>627.0</ele><time>2026-04-25T07:30:04Z</time></trkpt><trkpt lat="36.75469857777858" lon="-5.180445563018464"><ele>631.0</ele><time>2026-04-25T07:30:05Z</time></trkpt><trkpt lat="36.75452040187902" lon="-5.180518304826644"><ele>628.6666666666667</ele><time>2026-04-25T07:30:06Z</time></trkpt><trkpt lat="36.75434582057494" lon="-5.180594379263837"><ele>626.3333333333334</ele><time>2026-04-25T07:30:07Z</time></trkpt><trkpt lat="36.75416456433243" lon="-5.180669071052171"><ele>624.0</ele><time>2026-04-25T07:30:08Z</time></trkpt><trkpt lat="36.753982918551394" lon="-5.180742248411183"><ele>624.0</ele><time>2026-04-25T07:30:09Z</time></trkpt><trkpt lat="36.75380298477685" lon="-5.18081603853696"><ele>624.0</ele><time>2026-04-25T07:30:10Z</time></trkpt><trkpt lat="36.75362300803572" lon="-5.180894581194688"><ele>624.0</ele><time>2026-04-25T07:30:11Z</time></trkpt><trkpt lat="36.75344485117088" lon="-5.180971334977398"><ele>626.3333333333334</ele><time>2026-04-25T07:30:12Z</time></trkpt><trkpt lat="36.75326522594479" lon="-5.181041806047206"><ele>628.6666666666667</ele><time>2026-04-25T07:30:13Z</time></trkpt><trkpt lat="36.75309423424673" lon="-5.181115087749809"><ele>631.0</ele><time>2026-04-25T07:30:14Z</time></trkpt><trkpt lat="36.752925754031146" lon="-5.181189412603775"><ele>631.0</ele><time>2026-04-25T07:30:15Z</time></trkpt><trkpt lat="36.752757759836086" lon="-5.181270464559816"><ele>631.0</ele><time>2026-04-25T07:30:16Z</time></trkpt><trkpt lat="36.752600608721764" lon="-5.181374246458846"><ele>631.0</ele><time>2026-04-25T07:30:16.999Z</time></trkpt><trkpt lat="36.75244958502007" lon="-5.181484622096791"><ele>628.0</ele><time>2026-04-25T07:30:17.999Z</time></trkpt><trkpt lat="36.752298270002846" lon="-5.181603054388301"><ele>625.0</ele><time>2026-04-25T07:30:18.999Z</time></trkpt><trkpt lat="36.75215689692661" lon="-5.181723567773829"><ele>622.0</ele><time>2026-04-25T07:30:19.999Z</time></trkpt><trkpt lat="36.75201355823859" lon="-5.181848782193322"><ele>624.6666666666667</ele><time>2026-04-25T07:30:20.999Z</time></trkpt><trkpt lat="36.75187143890256" lon="-5.181961555986235"><ele>627.3333333333334</ele><time>2026-04-25T07:30:21.999Z</time></trkpt><trkpt lat="36.75172585329216" lon="-5.182054720923082"><ele>630.0</ele><time>2026-04-25T07:30:22.999Z</time></trkpt><trkpt lat="36.751580525605" lon="-5.1821207707396555"><ele>630.0</ele><time>2026-04-25T07:30:23.999Z</time></trkpt><trkpt lat="36.751421544975386" lon="-5.182156435009373"><ele>630.0</ele><time>2026-04-25T07:30:24.999Z</time></trkpt><trkpt lat="36.751272562437194" lon="-5.182138323117904"><ele>630.0</ele><time>2026-04-25T07:30:25.999Z</time></trkpt><trkpt lat="36.75112669657222" lon="-5.18208680355307"><ele>630.5</ele><time>2026-04-25T07:30:26.999Z</time></trkpt><trkpt lat="36.750981129005766" lon="-5.182031600372572"><ele>631.0</ele><time>2026-04-25T07:30:27.999Z</time></trkpt><trkpt lat="36.75087317065619" lon="-5.1819065045232495"><ele>631.5</ele><time>2026-04-25T07:30:28.999Z</time></trkpt><trkpt lat="36.750782141216135" lon="-5.181770831718989"><ele>632.0</ele><time>2026-04-25T07:30:29.999Z</time></trkpt><trkpt lat="36.75071038574359" lon="-5.181612270812608"><ele>634.25</ele><time>2026-04-25T07:30:30.999Z</time></trkpt><trkpt lat="36.75065734917325" lon="-5.181444169582229"><ele>636.5</ele><time>2026-04-25T07:30:31.999Z</time></trkpt><trkpt lat="36.75062623231165" lon="-5.181269504690948"><ele>638.75</ele><time>2026-04-25T07:30:32.999Z</time></trkpt><trkpt lat="36.75063194307437" lon="-5.1810841170523965"><ele>641.0</ele><time>2026-04-25T07:30:33.999Z</time></trkpt><trkpt lat="36.75064401234014" lon="-5.180893799731596"><ele>641.0</ele><time>2026-04-25T07:30:34.999Z</time></trkpt><trkpt lat="36.75071194871678" lon="-5.1807232098468265"><ele>641.0</ele><time>2026-04-25T07:30:35.999Z</time></trkpt><trkpt lat="36.75080075690822" lon="-5.180562350582589"><ele>641.0</ele><time>2026-04-25T07:30:36.999Z</time></trkpt><trkpt lat="36.75090739034534" lon="-5.180416154572544"><ele>641.0</ele><time>2026-04-25T07:30:37.999Z</time></trkpt><trkpt lat="36.75103527554161" lon="-5.180298693806789"><ele>641.0</ele><time>2026-04-25T07:30:38.999Z</time></trkpt><trkpt lat="36.75118562017708" lon="-5.180221206609846"><ele>641.0</ele><time>2026-04-25T07:30:39.999Z</time></trkpt><trkpt lat="36.751352745071024" lon="-5.1801770635549795"><ele>645.6666666666666</ele><time>2026-04-25T07:30:40.999Z</time></trkpt><trkpt lat="36.75152740046932" lon="-5.180152741513891"><ele>650.3333333333334</ele><time>2026-04-25T07:30:41.999Z</time></trkpt><trkpt lat="36.751712085227375" lon="-5.180140389521721"><ele>655.0</ele><time>2026-04-25T07:30:42.999Z</time></trkpt><trkpt lat="36.75191284640663" lon="-5.18011447280935"><ele>655.0</ele><time>2026-04-25T07:30:43.999Z</time></trkpt><trkpt lat="36.75211189033704" lon="-5.1800702468554"><ele>655.0</ele><time>2026-04-25T07:30:44.999Z</time></trkpt><trkpt lat="36.75231513595832" lon="-5.180028173998876"><ele>655.0</ele><time>2026-04-25T07:30:45.999Z</time></trkpt><trkpt lat="36.752514439889275" lon="-5.179976520048313"><ele>652.6666666666667</ele><time>2026-04-25T07:30:46.999Z</time></trkpt><trkpt lat="36.75271722351484" lon="-5.179909389717212"><ele>650.3333333333334</ele><time>2026-04-25T07:30:47.999Z</time></trkpt><trkpt lat="36.75292179302409" lon="-5.17981720732259"><ele>648.0</ele><time>2026-04-25T07:30:48.999Z</time></trkpt><trkpt lat="36.75310600641514" lon="-5.179714433527327"><ele>649.3333333333334</ele><time>2026-04-25T07:30:49.999Z</time></trkpt><trkpt lat="36.7532839484942" lon="-5.1795865761490845"><ele>650.6666666666667</ele><time>2026-04-25T07:30:50.999Z</time></trkpt><trkpt lat="36.753458644912286" lon="-5.179442939063692"><ele>652.0</ele><time>2026-04-25T07:30:51.999Z</time></trkpt><trkpt lat="36.753629388226926" lon="-5.179299043150376"><ele>652.0</ele><time>2026-04-25T07:30:52.999Z</time></trkpt><trkpt lat="36.753787637010895" lon="-5.17915232909715"><ele>652.0</ele><time>2026-04-25T07:30:53.999Z</time></trkpt><trkpt lat="36.75393299471372" lon="-5.179004435811239"><ele>652.0</ele><time>2026-04-25T07:30:54.999Z</time></trkpt><trkpt lat="36.75406749252969" lon="-5.17884351982799"><ele>653.0</ele><time>2026-04-25T07:30:55.999Z</time></trkpt><trkpt lat="36.75419417596539" lon="-5.178674989739401"><ele>654.0</ele><time>2026-04-25T07:30:56.999Z</time></trkpt><trkpt lat="36.7543036246125" lon="-5.1785022236375875"><ele>655.0</ele><time>2026-04-25T07:30:57.999Z</time></trkpt><trkpt lat="36.75438934051335" lon="-5.178355650251034"><ele>655.0</ele><time>2026-04-25T07:30:58.999Z</time></trkpt><trkpt lat="36.75445611328902" lon="-5.178232046138319"><ele>655.0</ele><time>2026-04-25T07:30:59.999Z</time></trkpt><trkpt lat="36.75451229105241" lon="-5.178123004213134"><ele>655.0</ele><time>2026-04-25T07:31:00.999Z</time></trkpt><trkpt lat="36.75456810282865" lon="-5.178002094946988"><ele>655.0</ele><time>2026-04-25T07:31:01.999Z</time></trkpt><trkpt lat="36.75462265836719" lon="-5.177870917935006"><ele>658.25</ele><time>2026-04-25T07:31:02.999Z</time></trkpt><trkpt lat="36.75467572472358" lon="-5.177731648400351"><ele>661.5</ele><time>2026-04-25T07:31:03.999Z</time></trkpt><trkpt lat="36.75472498581854" lon="-5.1775847094668"><ele>664.75</ele><time>2026-04-25T07:31:04.999Z</time></trkpt><trkpt lat="36.75477386873489" lon="-5.17743500625252"><ele>668.0</ele><time>2026-04-25T07:31:05.999Z</time></trkpt><trkpt lat="36.75482322821976" lon="-5.177287406475317"><ele>669.5</ele><time>2026-04-25T07:31:06.999Z</time></trkpt><trkpt lat="36.754874027132175" lon="-5.1771309298208745"><ele>671.0</ele><time>2026-04-25T07:31:07.999Z</time></trkpt><trkpt lat="36.75490498626748" lon="-5.176969764019566"><ele>672.5</ele><time>2026-04-25T07:31:08.999Z</time></trkpt><trkpt lat="36.75492652323221" lon="-5.176800061292424"><ele>674.0</ele><time>2026-04-25T07:31:09.999Z</time></trkpt><trkpt lat="36.75493858446471" lon="-5.176632406491805"><ele>675.25</ele><time>2026-04-25T07:31:10.999Z</time></trkpt><trkpt lat="36.754950570266935" lon="-5.176463878348255"><ele>676.5</ele><time>2026-04-25T07:31:11.999Z</time></trkpt><trkpt lat="36.754966018662" lon="-5.176290857072662"><ele>677.75</ele><time>2026-04-25T07:31:12.999Z</time></trkpt><trkpt lat="36.754971693130265" lon="-5.176112788445059"><ele>679.0</ele><time>2026-04-25T07:31:13.999Z</time></trkpt><trkpt lat="36.75497532615019" lon="-5.175933758594666"><ele>679.0</ele><time>2026-04-25T07:31:14.999Z</time></trkpt><trkpt lat="36.75497924885478" lon="-5.175739202417071"><ele>679.0</ele><time>2026-04-25T07:31:15.999Z</time></trkpt><trkpt lat="36.754969234194775" lon="-5.175566509173381"><ele>679.0</ele><time>2026-04-25T07:31:16.999Z</time></trkpt><trkpt lat="36.75494537869622" lon="-5.1753887797785705"><ele>679.0</ele><time>2026-04-25T07:31:17.999Z</time></trkpt><trkpt lat="36.754909233653116" lon="-5.175212728579032"><ele>679.25</ele><time>2026-04-25T07:31:18.999Z</time></trkpt><trkpt lat="36.75485193198344" lon="-5.1750486513766605"><ele>679.5</ele><time>2026-04-25T07:31:19.999Z</time></trkpt><trkpt lat="36.75478417581237" lon="-5.174896092571154"><ele>679.75</ele><time>2026-04-25T07:31:20.999Z</time></trkpt><trkpt lat="36.754715008649356" lon="-5.174766179632762"><ele>680.0</ele><time>2026-04-25T07:31:21.999Z</time></trkpt><trkpt lat="36.754653016280685" lon="-5.17462962579839"><ele>681.25</ele><time>2026-04-25T07:31:22.999Z</time></trkpt><trkpt lat="36.75460362380069" lon="-5.174483043949498"><ele>682.5</ele><time>2026-04-25T07:31:23.999Z</time></trkpt><trkpt lat="36.75456881964713" lon="-5.174324868523463"><ele>683.75</ele><time>2026-04-25T07:31:24.999Z</time></trkpt><trkpt lat="36.75456575359821" lon="-5.174156308110443"><ele>685.0</ele><time>2026-04-25T07:31:25.999Z</time></trkpt><trkpt lat="36.75457731668832" lon="-5.17398813456757"><ele>686.25</ele><time>2026-04-25T07:31:26.999Z</time></trkpt><trkpt lat="36.75460323645608" lon="-5.173819760820651"><ele>687.5</ele><time>2026-04-25T07:31:27.999Z</time></trkpt><trkpt lat="36.754616171433796" lon="-5.173653626181706"><ele>688.75</ele><time>2026-04-25T07:31:28.999Z</time></trkpt><trkpt lat="36.75461319795819" lon="-5.173498677518866"><ele>690.0</ele><time>2026-04-25T07:31:29.999Z</time></trkpt><trkpt lat="36.75460199967785" lon="-5.173349432585926"><ele>690.0</ele><time>2026-04-25T07:31:30.999Z</time></trkpt><trkpt lat="36.75458746679267" lon="-5.173208411201177"><ele>690.0</ele><time>2026-04-25T07:31:31.999Z</time></trkpt><trkpt lat="36.75456946990905" lon="-5.173081035214686"><ele>690.0</ele><time>2026-04-25T07:31:32.999Z</time></trkpt><trkpt lat="36.75453010472645" lon="-5.1729836966820235"><ele>690.0</ele><time>2026-04-25T07:31:33.999Z</time></trkpt><trkpt lat="36.75451465631912" lon="-5.172898381186213"><ele>690.0</ele><time>2026-04-25T07:31:34.999Z</time></trkpt><trkpt lat="36.75447724561653" lon="-5.172822241622892"><ele>690.0</ele><time>2026-04-25T07:31:35.999Z</time></trkpt><trkpt lat="36.75442457526622" lon="-5.172757708921567"><ele>690.8571428571429</ele><time>2026-04-25T07:31:36.999Z</time></trkpt><trkpt lat="36.75436487306625" lon="-5.1727128233775606"><ele>691.7142857142857</ele><time>2026-04-25T07:31:37.999Z</time></trkpt><trkpt lat="36.75429930089493" lon="-5.172681535782551"><ele>692.5714285714286</ele><time>2026-04-25T07:31:39Z</time></trkpt><trkpt lat="36.75423041270952" lon="-5.172651884453111"><ele>693.4285714285714</ele><time>2026-04-25T07:31:40Z</time></trkpt><trkpt lat="36.7541814375379" lon="-5.172584361805343"><ele>694.2857142857143</ele><time>2026-04-25T07:31:41Z</time></trkpt><trkpt lat="36.75415731957233" lon="-5.172497796453537"><ele>695.1428571428571</ele><time>2026-04-25T07:31:42Z</time></trkpt><trkpt lat="36.754185954931" lon="-5.172401837108174"><ele>696.0</ele><time>2026-04-25T07:31:43Z</time></trkpt><trkpt lat="36.75418410922166" lon="-5.172316671877205"><ele>695.5999999999999</ele><time>2026-04-25T07:31:44Z</time></trkpt><trkpt lat="36.75433254607246" lon="-5.172218317955545"><ele>695.2</ele><time>2026-04-25T07:31:46Z</time></trkpt><trkpt lat="36.75439829950063" lon="-5.172241126570796"><ele>694.8</ele><time>2026-04-25T07:31:47Z</time></trkpt><trkpt lat="36.75447402551977" lon="-5.172155093014478"><ele>694.4000000000001</ele><time>2026-04-25T07:31:48Z</time></trkpt><trkpt lat="36.75453929838867" lon="-5.172082105317133"><ele>694.0</ele><time>2026-04-25T07:31:49Z</time></trkpt><trkpt lat="36.7546126583193" lon="-5.17201335605581"><ele>694.0</ele><time>2026-04-25T07:31:50Z</time></trkpt><trkpt lat="36.75463010952387" lon="-5.171849045818206"><ele>694.0</ele><time>2026-04-25T07:31:51Z</time></trkpt><trkpt lat="36.75465156571355" lon="-5.171694208818094"><ele>694.0</ele><time>2026-04-25T07:31:52Z</time></trkpt><trkpt lat="36.754662942144506" lon="-5.171597821644653"><ele>694.0</ele><time>2026-04-25T07:31:53Z</time></trkpt><trkpt lat="36.754682173442" lon="-5.17145372399471"><ele>694.5</ele><time>2026-04-25T07:31:54Z</time></trkpt><trkpt lat="36.75472070079203" lon="-5.171315841317701"><ele>695.0</ele><time>2026-04-25T07:31:55Z</time></trkpt><trkpt lat="36.75473917481593" lon="-5.171176375706421"><ele>695.5</ele><time>2026-04-25T07:31:56Z</time></trkpt><trkpt lat="36.75478165369611" lon="-5.171012879824763"><ele>696.0</ele><time>2026-04-25T07:31:57Z</time></trkpt><trkpt lat="36.75483237984338" lon="-5.170827883448693"><ele>697.0</ele><time>2026-04-25T07:31:58Z</time></trkpt><trkpt lat="36.75486900088295" lon="-5.170618249967669"><ele>698.0</ele><time>2026-04-25T07:31:59Z</time></trkpt><trkpt lat="36.754919665339784" lon="-5.170407727501558"><ele>699.0</ele><time>2026-04-25T07:32:00Z</time></trkpt><trkpt lat="36.75498086622569" lon="-5.170218707397985"><ele>699.0</ele><time>2026-04-25T07:32:01Z</time></trkpt><trkpt lat="36.75501476314424" lon="-5.170052095625818"><ele>699.0</ele><time>2026-04-25T07:32:02Z</time></trkpt><trkpt lat="36.75504825331911" lon="-5.169900041506712"><ele>699.0</ele><time>2026-04-25T07:32:03Z</time></trkpt><trkpt lat="36.755082560736376" lon="-5.169732761947463"><ele>699.0</ele><time>2026-04-25T07:32:04Z</time></trkpt><trkpt lat="36.7551187658167" lon="-5.169567230154918"><ele>698.75</ele><time>2026-04-25T07:32:05Z</time></trkpt><trkpt lat="36.755152949653464" lon="-5.169399561703444"><ele>698.5</ele><time>2026-04-25T07:32:06Z</time></trkpt><trkpt lat="36.755186600452554" lon="-5.169236242836133"><ele>698.25</ele><time>2026-04-25T07:32:07Z</time></trkpt><trkpt lat="36.755219883846316" lon="-5.16907854411923"><ele>698.0</ele><time>2026-04-25T07:32:08Z</time></trkpt><trkpt lat="36.75524620272211" lon="-5.168913049673916"><ele>699.25</ele><time>2026-04-25T07:32:09Z</time></trkpt><trkpt lat="36.75527896001159" lon="-5.168743421657065"><ele>700.5</ele><time>2026-04-25T07:32:10Z</time></trkpt><trkpt lat="36.75531281541566" lon="-5.168568705298793"><ele>701.75</ele><time>2026-04-25T07:32:11Z</time></trkpt><trkpt lat="36.755349023037475" lon="-5.168393764058018"><ele>703.0</ele><time>2026-04-25T07:32:12Z</time></trkpt><trkpt lat="36.755385876899446" lon="-5.16821635440936"><ele>703.75</ele><time>2026-04-25T07:32:13Z</time></trkpt><trkpt lat="36.75541671166022" lon="-5.168035684151307"><ele>704.5</ele><time>2026-04-25T07:32:14Z</time></trkpt><trkpt lat="36.755442608730284" lon="-5.167877664548476"><ele>705.25</ele><time>2026-04-25T07:32:15Z</time></trkpt><trkpt lat="36.75545503405019" lon="-5.16775804891223"><ele>706.0</ele><time>2026-04-25T07:32:16Z</time></trkpt><trkpt lat="36.75541790551577" lon="-5.167650482472126"><ele>706.0</ele><time>2026-04-25T07:32:17Z</time></trkpt><trkpt lat="36.755383937415" lon="-5.167561301382021"><ele>706.0</ele><time>2026-04-25T07:32:18Z</time></trkpt><trkpt lat="36.755299525918176" lon="-5.167516636841602"><ele>706.0</ele><time>2026-04-25T07:32:19Z</time></trkpt><trkpt lat="36.75521130172911" lon="-5.1675132768614205"><ele>706.0</ele><time>2026-04-25T07:32:20Z</time></trkpt><trkpt lat="36.75512291183951" lon="-5.167529388729186"><ele>706.0</ele><time>2026-04-25T07:32:21Z</time></trkpt><trkpt lat="36.755022314974106" lon="-5.167566785446115"><ele>709.5</ele><time>2026-04-25T07:32:22Z</time></trkpt><trkpt lat="36.75494099438823" lon="-5.167652133461833"><ele>713.0</ele><time>2026-04-25T07:32:23Z</time></trkpt><trkpt lat="36.75485531222373" lon="-5.167742063606636"><ele>716.5</ele><time>2026-04-25T07:32:24Z</time></trkpt><trkpt lat="36.75475915129811" lon="-5.167828308859931"><ele>720.0</ele><time>2026-04-25T07:32:25Z</time></trkpt><trkpt lat="36.75465883023417" lon="-5.16793158254126"><ele>720.0</ele><time>2026-04-25T07:32:26Z</time></trkpt><trkpt lat="36.75454930811346" lon="-5.168035248495908"><ele>720.0</ele><time>2026-04-25T07:32:27Z</time></trkpt><trkpt lat="36.75443595844505" lon="-5.168146072877805"><ele>720.0</ele><time>2026-04-25T07:32:28Z</time></trkpt><trkpt lat="36.75432257713202" lon="-5.168257750659413"><ele>720.0</ele><time>2026-04-25T07:32:29Z</time></trkpt><trkpt lat="36.7542072398545" lon="-5.16836402644702"><ele>720.75</ele><time>2026-04-25T07:32:30Z</time></trkpt><trkpt lat="36.754089770532225" lon="-5.168469073898757"><ele>721.5</ele><time>2026-04-25T07:32:31Z</time></trkpt><trkpt lat="36.75396899692704" lon="-5.1685787307690525"><ele>722.25</ele><time>2026-04-25T07:32:32Z</time></trkpt><trkpt lat="36.75385313506989" lon="-5.168689193898802"><ele>723.0</ele><time>2026-04-25T07:32:33Z</time></trkpt><trkpt lat="36.75374067203823" lon="-5.168799534136968"><ele>723.0</ele><time>2026-04-25T07:32:34Z</time></trkpt><trkpt lat="36.753623614371016" lon="-5.168905239700443"><ele>723.0</ele><time>2026-04-25T07:32:35Z</time></trkpt><trkpt lat="36.75349791121" lon="-5.169010385139591"><ele>723.0</ele><time>2026-04-25T07:32:36Z</time></trkpt><trkpt lat="36.75337755923782" lon="-5.169120888020162"><ele>723.0</ele><time>2026-04-25T07:32:37Z</time></trkpt><trkpt lat="36.75325636240608" lon="-5.169227839018518"><ele>724.3333333333334</ele><time>2026-04-25T07:32:38Z</time></trkpt><trkpt lat="36.753130585784724" lon="-5.169341452367831"><ele>725.6666666666667</ele><time>2026-04-25T07:32:39Z</time></trkpt><trkpt lat="36.7530035822161" lon="-5.169453083411176"><ele>727.0</ele><time>2026-04-25T07:32:40Z</time></trkpt><trkpt lat="36.75287708094564" lon="-5.169560636966767"><ele>727.0</ele><time>2026-04-25T07:32:41Z</time></trkpt><trkpt lat="36.75274431012566" lon="-5.1696666379634895"><ele>727.0</ele><time>2026-04-25T07:32:41.999Z</time></trkpt><trkpt lat="36.75260976535833" lon="-5.1697602762295976"><ele>727.0</ele><time>2026-04-25T07:32:42.999Z</time></trkpt><trkpt lat="36.752472987113954" lon="-5.169848875125584"><ele>728.0</ele><time>2026-04-25T07:32:43.999Z</time></trkpt><trkpt lat="36.75234139823676" lon="-5.169922256871786"><ele>729.0</ele><time>2026-04-25T07:32:44.999Z</time></trkpt><trkpt lat="36.75220878050258" lon="-5.169992592096879"><ele>730.0</ele><time>2026-04-25T07:32:45.999Z</time></trkpt><trkpt lat="36.7520680167124" lon="-5.170046785896516"><ele>731.0</ele><time>2026-04-25T07:32:46.999Z</time></trkpt><trkpt lat="36.75193073737292" lon="-5.17009434324562"><ele>733.0</ele><time>2026-04-25T07:32:47.999Z</time></trkpt><trkpt lat="36.75181550432381" lon="-5.1701222079306"><ele>735.0</ele><time>2026-04-25T07:32:48.999Z</time></trkpt><trkpt lat="36.75171989383647" lon="-5.170139353638091"><ele>737.0</ele><time>2026-04-25T07:32:49.999Z</time></trkpt><trkpt lat="36.75164485027778" lon="-5.170145844498391"><ele>739.0</ele><time>2026-04-25T07:32:50.999Z</time></trkpt><trkpt lat="36.75156716081655" lon="-5.170154672412241"><ele>741.0</ele><time>2026-04-25T07:32:51.999Z</time></trkpt><trkpt lat="36.75148492196851" lon="-5.170161710437146"><ele>741.0</ele><time>2026-04-25T07:32:52.999Z</time></trkpt><trkpt lat="36.751392749957304" lon="-5.17016908871731"><ele>741.0</ele><time>2026-04-25T07:32:53.999Z</time></trkpt><trkpt lat="36.75129621402503" lon="-5.17017254545364"><ele>741.0</ele><time>2026-04-25T07:32:54.999Z</time></trkpt><trkpt lat="36.75120088103087" lon="-5.170169118377855"><ele>741.0</ele><time>2026-04-25T07:32:55.999Z</time></trkpt><trkpt lat="36.75110187723802" lon="-5.170158687477759"><ele>741.0</ele><time>2026-04-25T07:32:56.999Z</time></trkpt><trkpt lat="36.75100036194288" lon="-5.170148011819522"><ele>742.25</ele><time>2026-04-25T07:32:57.999Z</time></trkpt><trkpt lat="36.75088956089691" lon="-5.1701244612724215"><ele>743.5</ele><time>2026-04-25T07:32:58.999Z</time></trkpt><trkpt lat="36.75076923980098" lon="-5.170108139706897"><ele>744.75</ele><time>2026-04-25T07:32:59.999Z</time></trkpt><trkpt lat="36.750648922803094" lon="-5.170064364211867"><ele>746.0</ele><time>2026-04-25T07:33:00.999Z</time></trkpt><trkpt lat="36.75053156382093" lon="-5.170029309927301"><ele>746.0</ele><time>2026-04-25T07:33:01.999Z</time></trkpt><trkpt lat="36.7504098157285" lon="-5.169984769491597"><ele>746.0</ele><time>2026-04-25T07:33:02.999Z</time></trkpt><trkpt lat="36.750287478155286" lon="-5.169922932346604"><ele>746.0</ele><time>2026-04-25T07:33:03.999Z</time></trkpt><trkpt lat="36.75016207476463" lon="-5.169853661193235"><ele>746.0</ele><time>2026-04-25T07:33:04.999Z</time></trkpt><trkpt lat="36.75003627696872" lon="-5.169777784065799"><ele>747.25</ele><time>2026-04-25T07:33:05.999Z</time></trkpt><trkpt lat="36.74991475219389" lon="-5.169692649890392"><ele>748.5</ele><time>2026-04-25T07:33:06.999Z</time></trkpt><trkpt lat="36.74979131275835" lon="-5.16960447009031"><ele>749.75</ele><time>2026-04-25T07:33:07.999Z</time></trkpt><trkpt lat="36.74966515245772" lon="-5.1695142012195765"><ele>751.0</ele><time>2026-04-25T07:33:08.999Z</time></trkpt><trkpt lat="36.74954411065798" lon="-5.169420524413097"><ele>751.0</ele><time>2026-04-25T07:33:09.999Z</time></trkpt><trkpt lat="36.74942400398331" lon="-5.169327786338311"><ele>751.0</ele><time>2026-04-25T07:33:10.999Z</time></trkpt><trkpt lat="36.749320901996164" lon="-5.16924662836154"><ele>751.0</ele><time>2026-04-25T07:33:11.999Z</time></trkpt><trkpt lat="36.7492297209921" lon="-5.1691739049605046"><ele>751.0</ele><time>2026-04-25T07:33:12.999Z</time></trkpt><trkpt lat="36.749133961118666" lon="-5.169132637892083"><ele>750.6666666666667</ele><time>2026-04-25T07:33:13.999Z</time></trkpt><trkpt lat="36.74907236997836" lon="-5.169057002236524"><ele>750.3333333333334</ele><time>2026-04-25T07:33:14.999Z</time></trkpt><trkpt lat="36.749010886733004" lon="-5.169007780617302"><ele>750.0</ele><time>2026-04-25T07:33:15.999Z</time></trkpt><trkpt lat="36.74894446165867" lon="-5.168964718822342"><ele>749.6666666666666</ele><time>2026-04-25T07:33:16.999Z</time></trkpt><trkpt lat="36.74886958765957" lon="-5.168927450527083"><ele>749.3333333333333</ele><time>2026-04-25T07:33:17.999Z</time></trkpt><trkpt lat="36.748791795018846" lon="-5.168886550187636"><ele>749.0</ele><time>2026-04-25T07:33:18.999Z</time></trkpt><trkpt lat="36.748717143968996" lon="-5.16884130378372"><ele>749.3333333333333</ele><time>2026-04-25T07:33:19.999Z</time></trkpt><trkpt lat="36.74864259397172" lon="-5.168794788621005"><ele>749.6666666666666</ele><time>2026-04-25T07:33:20.999Z</time></trkpt><trkpt lat="36.74857516766568" lon="-5.16874010136825"><ele>750.0</ele><time>2026-04-25T07:33:21.999Z</time></trkpt><trkpt lat="36.748491782236634" lon="-5.168703095943862"><ele>750.3333333333334</ele><time>2026-04-25T07:33:22.999Z</time></trkpt><trkpt lat="36.74842226396387" lon="-5.168635575101161"><ele>750.6666666666667</ele><time>2026-04-25T07:33:23.999Z</time></trkpt><trkpt lat="36.74833135200409" lon="-5.1685772599629445"><ele>751.0</ele><time>2026-04-25T07:33:24.999Z</time></trkpt><trkpt lat="36.748236565112556" lon="-5.168522707490294"><ele>751.0</ele><time>2026-04-25T07:33:25.999Z</time></trkpt><trkpt lat="36.74815866055891" lon="-5.168446349723469"><ele>751.0</ele><time>2026-04-25T07:33:26.999Z</time></trkpt><trkpt lat="36.748085212811255" lon="-5.168398999683731"><ele>751.0</ele><time>2026-04-25T07:33:27.999Z</time></trkpt><trkpt lat="36.74802542765604" lon="-5.168356928630465"><ele>751.0</ele><time>2026-04-25T07:33:28.999Z</time></trkpt><trkpt lat="36.747935854697715" lon="-5.168304761607096"><ele>751.0</ele><time>2026-04-25T07:33:30.999Z</time></trkpt><trkpt lat="36.74787456621097" lon="-5.168375957584598"><ele>751.0</ele><time>2026-04-25T07:33:32.999Z</time></trkpt><trkpt lat="36.74781307598164" lon="-5.1684925731096465"><ele>751.0</ele><time>2026-04-25T07:33:34.999Z</time></trkpt><trkpt lat="36.747771770791495" lon="-5.168592303539333"><ele>751.0</ele><time>2026-04-25T07:33:36.999Z</time></trkpt><trkpt lat="36.74772563802474" lon="-5.168671188605902"><ele>751.0</ele><time>2026-04-25T07:33:39.999Z</time></trkpt><trkpt lat="36.74764126996221" lon="-5.168664317920549"><ele>751.0</ele><time>2026-04-25T07:33:43.999Z</time></trkpt><trkpt lat="36.747586023885944" lon="-5.168622100837807"><ele>751.0</ele><time>2026-04-25T07:33:47Z</time></trkpt><trkpt lat="36.7475213220765" lon="-5.168575735034307"><ele>751.0</ele><time>2026-04-25T07:33:50Z</time></trkpt><trkpt lat="36.74745619485836" lon="-5.1685333090318135"><ele>750.6666666666667</ele><time>2026-04-25T07:33:53Z</time></trkpt><trkpt lat="36.747393085930014" lon="-5.168489484887003"><ele>750.3333333333334</ele><time>2026-04-25T07:33:58Z</time></trkpt><trkpt lat="36.74737638259436" lon="-5.168383619406352"><ele>750.0</ele><time>2026-04-25T07:34:04Z</time></trkpt><trkpt lat="36.7474281578843" lon="-5.168256809654544"><ele>749.6666666666666</ele><time>2026-04-25T07:34:06Z</time></trkpt><trkpt lat="36.74746869895269" lon="-5.168165394872493"><ele>749.3333333333333</ele><time>2026-04-25T07:34:08Z</time></trkpt><trkpt lat="36.747508540713305" lon="-5.168068648672288"><ele>749.0</ele><time>2026-04-25T07:34:10Z</time></trkpt><trkpt lat="36.74754802448732" lon="-5.167970004765539"><ele>749.0</ele><time>2026-04-25T07:34:12Z</time></trkpt><trkpt lat="36.74758519344958" lon="-5.16783533559027"><ele>749.0</ele><time>2026-04-25T07:34:14Z</time></trkpt><trkpt lat="36.747620074997144" lon="-5.1677569154262715"><ele>749.0</ele><time>2026-04-25T07:34:15Z</time></trkpt><trkpt lat="36.74765815024048" lon="-5.167671315280191"><ele>749.0</ele><time>2026-04-25T07:34:16Z</time></trkpt><trkpt lat="36.74769248413533" lon="-5.167593591846978"><ele>749.0</ele><time>2026-04-25T07:34:17Z</time></trkpt><trkpt lat="36.74774415470123" lon="-5.167449664866699"><ele>749.1666666666666</ele><time>2026-04-25T07:34:19Z</time></trkpt><trkpt lat="36.74775839517504" lon="-5.167364638070624"><ele>749.3333333333333</ele><time>2026-04-25T07:34:20Z</time></trkpt><trkpt lat="36.74775492532712" lon="-5.167271934810338"><ele>749.5</ele><time>2026-04-25T07:34:21Z</time></trkpt><trkpt lat="36.7477464187108" lon="-5.167161213361876"><ele>749.6666666666666</ele><time>2026-04-25T07:34:22Z</time></trkpt><trkpt lat="36.74774973618059" lon="-5.167045967571032"><ele>749.8333333333334</ele><time>2026-04-25T07:34:23Z</time></trkpt><trkpt lat="36.7477363769944" lon="-5.1669389456960095"><ele>750.0</ele><time>2026-04-25T07:34:24Z</time></trkpt><trkpt lat="36.7477245226084" lon="-5.166841054594366"><ele>749.8333333333334</ele><time>2026-04-25T07:34:25Z</time></trkpt><trkpt lat="36.74770291093997" lon="-5.166763150131668"><ele>749.6666666666666</ele><time>2026-04-25T07:34:26Z</time></trkpt><trkpt lat="36.747670616231204" lon="-5.166690299966886"><ele>749.5</ele><time>2026-04-25T07:34:27Z</time></trkpt><trkpt lat="36.747579298904796" lon="-5.1665648342585"><ele>749.3333333333333</ele><time>2026-04-25T07:34:29Z</time></trkpt><trkpt lat="36.74752459281646" lon="-5.166520178516125"><ele>749.1666666666666</ele><time>2026-04-25T07:34:30Z</time></trkpt><trkpt lat="36.74745662424986" lon="-5.166482983330047"><ele>749.0</ele><time>2026-04-25T07:34:31Z</time></trkpt><trkpt lat="36.747398998874985" lon="-5.166429150809489"><ele>748.1666666666666</ele><time>2026-04-25T07:34:32Z</time></trkpt><trkpt lat="36.747338973483004" lon="-5.166382516154748"><ele>747.3333333333333</ele><time>2026-04-25T07:34:33Z</time></trkpt><trkpt lat="36.74727539760058" lon="-5.166327447437265"><ele>746.5</ele><time>2026-04-25T07:34:34Z</time></trkpt><trkpt lat="36.74720750732115" lon="-5.1662740312135105"><ele>745.6666666666666</ele><time>2026-04-25T07:34:35Z</time></trkpt><trkpt lat="36.747136976268855" lon="-5.166211442931333"><ele>744.8333333333334</ele><time>2026-04-25T07:34:36Z</time></trkpt><trkpt lat="36.74707184301266" lon="-5.1661496261168685"><ele>744.0</ele><time>2026-04-25T07:34:37Z</time></trkpt><trkpt lat="36.74700734788087" lon="-5.166073396395623"><ele>744.0</ele><time>2026-04-25T07:34:38Z</time></trkpt><trkpt lat="36.74693510922175" lon="-5.166041987033251"><ele>744.0</ele><time>2026-04-25T07:34:39Z</time></trkpt><trkpt lat="36.746855103874495" lon="-5.165970864483873"><ele>744.0</ele><time>2026-04-25T07:34:40Z</time></trkpt><trkpt lat="36.74677559647924" lon="-5.165911102273597"><ele>744.0</ele><time>2026-04-25T07:34:41Z</time></trkpt><trkpt lat="36.74669480392515" lon="-5.165848770785201"><ele>744.0</ele><time>2026-04-25T07:34:42Z</time></trkpt><trkpt lat="36.74662899018375" lon="-5.165802603204852"><ele>744.0</ele><time>2026-04-25T07:34:43Z</time></trkpt><trkpt lat="36.74657271241527" lon="-5.165761181504591"><ele>743.6</ele><time>2026-04-25T07:34:44Z</time></trkpt><trkpt lat="36.74647952893236" lon="-5.165688479553786"><ele>743.2</ele><time>2026-04-25T07:34:46Z</time></trkpt><trkpt lat="36.74639109876972" lon="-5.1656198928087305"><ele>742.8000000000001</ele><time>2026-04-25T07:34:47.999Z</time></trkpt><trkpt lat="36.746320769252314" lon="-5.165544145846987"><ele>742.4000000000001</ele><time>2026-04-25T07:34:49.999Z</time></trkpt><trkpt lat="36.74623608214096" lon="-5.165473696942486"><ele>742.0</ele><time>2026-04-25T07:34:51.999Z</time></trkpt><trkpt lat="36.74612453079718" lon="-5.165399741470192"><ele>741.6666666666667</ele><time>2026-04-25T07:34:53.999Z</time></trkpt><trkpt lat="36.746034719797045" lon="-5.165335315785917"><ele>741.3333333333334</ele><time>2026-04-25T07:34:55.999Z</time></trkpt><trkpt lat="36.74596552522421" lon="-5.16527765972651"><ele>741.0</ele><time>2026-04-25T07:34:57.999Z</time></trkpt><trkpt lat="36.745860377382364" lon="-5.165204372480942"><ele>740.6666666666666</ele><time>2026-04-25T07:34:59.999Z</time></trkpt><trkpt lat="36.74579323581164" lon="-5.165169703790927"><ele>740.3333333333333</ele><time>2026-04-25T07:35:00.999Z</time></trkpt><trkpt lat="36.74573351881062" lon="-5.165136112391934"><ele>740.0</ele><time>2026-04-25T07:35:01.999Z</time></trkpt><trkpt lat="36.74563251120279" lon="-5.165078218929459"><ele>740.0</ele><time>2026-04-25T07:35:03.999Z</time></trkpt><trkpt lat="36.74554926745318" lon="-5.16502476459089"><ele>740.0</ele><time>2026-04-25T07:35:05.999Z</time></trkpt><trkpt lat="36.74548761660278" lon="-5.164980769189916"><ele>740.0</ele><time>2026-04-25T07:35:07.999Z</time></trkpt><trkpt lat="36.74543305461639" lon="-5.164941493493453"><ele>740.0</ele><time>2026-04-25T07:35:11.999Z</time></trkpt><trkpt lat="36.74530513714926" lon="-5.1650932646343355"><ele>740.0</ele><time>2026-04-25T07:36:01Z</time></trkpt><trkpt lat="36.745261637398066" lon="-5.165203027529079"><ele>740.0</ele><time>2026-04-25T07:36:03Z</time></trkpt><trkpt lat="36.745218625207144" lon="-5.165325098666962"><ele>740.0</ele><time>2026-04-25T07:36:05Z</time></trkpt><trkpt lat="36.745151739111115" lon="-5.165456877912389"><ele>740.0</ele><time>2026-04-25T07:36:07Z</time></trkpt><trkpt lat="36.745120486290844" lon="-5.1655310173595295"><ele>740.0</ele><time>2026-04-25T07:36:08Z</time></trkpt><trkpt lat="36.74509246526095" lon="-5.1656032101309695"><ele>740.0</ele><time>2026-04-25T07:36:09Z</time></trkpt><trkpt lat="36.74506268899739" lon="-5.165678622233502"><ele>740.0</ele><time>2026-04-25T07:36:10Z</time></trkpt><trkpt lat="36.745029571785146" lon="-5.165756449581675"><ele>739.2</ele><time>2026-04-25T07:36:11Z</time></trkpt><trkpt lat="36.74497135684753" lon="-5.165875257904121"><ele>738.4</ele><time>2026-04-25T07:36:13Z</time></trkpt><trkpt lat="36.74494223008531" lon="-5.165960831191628"><ele>737.5999999999999</ele><time>2026-04-25T07:36:15Z</time></trkpt><trkpt lat="36.744927682109" lon="-5.166039017452191"><ele>736.8</ele><time>2026-04-25T07:36:17Z</time></trkpt><trkpt lat="36.745032581286615" lon="-5.166129930164824"><ele>736.0</ele><time>2026-04-25T07:36:19Z</time></trkpt><trkpt lat="36.74510129526135" lon="-5.166170488297997"><ele>736.0</ele><time>2026-04-25T07:36:20Z</time></trkpt><trkpt lat="36.74517822035666" lon="-5.166232587918648"><ele>736.0</ele><time>2026-04-25T07:36:21Z</time></trkpt><trkpt lat="36.74525993766928" lon="-5.166296991696892"><ele>736.0</ele><time>2026-04-25T07:36:22Z</time></trkpt><trkpt lat="36.745340501589396" lon="-5.166366653987023"><ele>736.0</ele><time>2026-04-25T07:36:23Z</time></trkpt><trkpt lat="36.74542019752786" lon="-5.166423051003646"><ele>736.0</ele><time>2026-04-25T07:36:24Z</time></trkpt><trkpt lat="36.74549299623206" lon="-5.166475595604228"><ele>736.4</ele><time>2026-04-25T07:36:25Z</time></trkpt><trkpt lat="36.74555187437722" lon="-5.16653098721591"><ele>736.8</ele><time>2026-04-25T07:36:26Z</time></trkpt><trkpt lat="36.74563776943217" lon="-5.1666053840402455"><ele>737.1999999999999</ele><time>2026-04-25T07:36:28Z</time></trkpt><trkpt lat="36.74570284377933" lon="-5.1666350768287215"><ele>737.5999999999999</ele><time>2026-04-25T07:36:29Z</time></trkpt><trkpt lat="36.74581700880808" lon="-5.1667199374691215"><ele>738.0</ele><time>2026-04-25T07:36:31Z</time></trkpt><trkpt lat="36.74587980135033" lon="-5.16677527998989"><ele>738.0</ele><time>2026-04-25T07:36:32Z</time></trkpt><trkpt lat="36.74594358835647" lon="-5.166834752421062"><ele>738.0</ele><time>2026-04-25T07:36:33Z</time></trkpt><trkpt lat="36.746015013543925" lon="-5.1668983225786205"><ele>738.0</ele><time>2026-04-25T07:36:34Z</time></trkpt><trkpt lat="36.746097528134484" lon="-5.166960590366641"><ele>738.0</ele><time>2026-04-25T07:36:35Z</time></trkpt><trkpt lat="36.74618918668578" lon="-5.167008331884581"><ele>738.0</ele><time>2026-04-25T07:36:36Z</time></trkpt><trkpt lat="36.74627037349296" lon="-5.167078791880822"><ele>739.0</ele><time>2026-04-25T07:36:37Z</time></trkpt><trkpt lat="36.74635919245953" lon="-5.167144382803309"><ele>740.0</ele><time>2026-04-25T07:36:38Z</time></trkpt><trkpt lat="36.746445188394794" lon="-5.167215999097462"><ele>741.0</ele><time>2026-04-25T07:36:39Z</time></trkpt><trkpt lat="36.74651737953567" lon="-5.167274501740127"><ele>742.0</ele><time>2026-04-25T07:36:40Z</time></trkpt><trkpt lat="36.746587341478275" lon="-5.167311282114365"><ele>743.0</ele><time>2026-04-25T07:36:41Z</time></trkpt><trkpt lat="36.746640523991076" lon="-5.1673638535261945"><ele>744.0</ele><time>2026-04-25T07:36:43Z</time></trkpt><trkpt lat="36.74674332384081" lon="-5.167420262352799"><ele>744.1666666666666</ele><time>2026-04-25T07:36:45.999Z</time></trkpt><trkpt lat="36.74679737538821" lon="-5.167484023078803"><ele>744.3333333333334</ele><time>2026-04-25T07:36:46.999Z</time></trkpt><trkpt lat="36.74687609002184" lon="-5.167518374816782"><ele>744.5</ele><time>2026-04-25T07:36:47.999Z</time></trkpt><trkpt lat="36.746953298579484" lon="-5.167575478836297"><ele>744.6666666666667</ele><time>2026-04-25T07:36:48.999Z</time></trkpt><trkpt lat="36.74702750533569" lon="-5.167630362742028"><ele>744.8333333333334</ele><time>2026-04-25T07:36:49.999Z</time></trkpt><trkpt lat="36.74709440378592" lon="-5.167688635863198"><ele>745.0</ele><time>2026-04-25T07:36:50.999Z</time></trkpt><trkpt lat="36.747155127506815" lon="-5.167741877623471"><ele>745.8</ele><time>2026-04-25T07:36:51.999Z</time></trkpt><trkpt lat="36.74721536924472" lon="-5.167774559756034"><ele>746.6</ele><time>2026-04-25T07:36:52.999Z</time></trkpt><trkpt lat="36.74730545484719" lon="-5.167850073931273"><ele>747.4000000000001</ele><time>2026-04-25T07:36:54.999Z</time></trkpt><trkpt lat="36.74741092709444" lon="-5.167926663488768"><ele>748.2</ele><time>2026-04-25T07:36:56.999Z</time></trkpt><trkpt lat="36.7474774225412" lon="-5.1679682368288065"><ele>749.0</ele><time>2026-04-25T07:36:58.999Z</time></trkpt><trkpt lat="36.747565676244676" lon="-5.168021135294718"><ele>749.0</ele><time>2026-04-25T07:37:01.999Z</time></trkpt><trkpt lat="36.7476262567284" lon="-5.168064874025839"><ele>749.0</ele><time>2026-04-25T07:37:02.999Z</time></trkpt><trkpt lat="36.74769941030979" lon="-5.168117497305389"><ele>749.0</ele><time>2026-04-25T07:37:03.999Z</time></trkpt><trkpt lat="36.747756519919584" lon="-5.168158961815861"><ele>749.0</ele><time>2026-04-25T07:37:04.999Z</time></trkpt><trkpt lat="36.74784047453549" lon="-5.168219917314699"><ele>749.0</ele><time>2026-04-25T07:37:06.999Z</time></trkpt><trkpt lat="36.7478998246101" lon="-5.16826300859229"><ele>749.0</ele><time>2026-04-25T07:37:08.999Z</time></trkpt><trkpt lat="36.747800390293094" lon="-5.168495482939432"><ele>749.0</ele><time>2026-04-25T07:37:10.999Z</time></trkpt><trkpt lat="36.747754514137604" lon="-5.168587818090764"><ele>749.0</ele><time>2026-04-25T07:37:11.999Z</time></trkpt><trkpt lat="36.74770911465263" lon="-5.168690403117509"><ele>749.0</ele><time>2026-04-25T07:37:12.999Z</time></trkpt><trkpt lat="36.747664675772306" lon="-5.168789217211118"><ele>749.0</ele><time>2026-04-25T07:37:13.999Z</time></trkpt><trkpt lat="36.74762832507351" lon="-5.1688757811787625"><ele>749.0</ele><time>2026-04-25T07:37:14.999Z</time></trkpt><trkpt lat="36.7475949958453" lon="-5.168947353325651"><ele>749.0</ele><time>2026-04-25T07:37:15.999Z</time></trkpt><trkpt lat="36.74755227205747" lon="-5.1690447918431275"><ele>749.0</ele><time>2026-04-25T07:37:17.999Z</time></trkpt><trkpt lat="36.7475101762414" lon="-5.169112813888686"><ele>749.0</ele><time>2026-04-25T07:37:19.999Z</time></trkpt><trkpt lat="36.747359798312644" lon="-5.169095890137254"><ele>749.0</ele><time>2026-04-25T07:37:22.999Z</time></trkpt><trkpt lat="36.747289300458114" lon="-5.1690539242893925"><ele>749.0</ele><time>2026-04-25T07:37:23.999Z</time></trkpt><trkpt lat="36.74723191694302" lon="-5.169015982035141"><ele>749.0</ele><time>2026-04-25T07:37:24.999Z</time></trkpt><trkpt lat="36.74717301632735" lon="-5.1689830200268405"><ele>749.0</ele><time>2026-04-25T07:37:25.999Z</time></trkpt><trkpt lat="36.747110623347446" lon="-5.168943436613007"><ele>748.8333333333333</ele><time>2026-04-25T07:37:26.999Z</time></trkpt><trkpt lat="36.7470518094324" lon="-5.1689048898909995"><ele>748.6666666666666</ele><time>2026-04-25T07:37:27.999Z</time></trkpt><trkpt lat="36.74697733543753" lon="-5.168881042847547"><ele>748.5</ele><time>2026-04-25T07:37:28.999Z</time></trkpt><trkpt lat="36.74690815126353" lon="-5.168838418057615"><ele>748.3333333333334</ele><time>2026-04-25T07:37:29.999Z</time></trkpt><trkpt lat="36.74683434743952" lon="-5.168792947046071"><ele>748.1666666666667</ele><time>2026-04-25T07:37:30.999Z</time></trkpt><trkpt lat="36.746757123375026" lon="-5.168745368822308"><ele>748.0</ele><time>2026-04-25T07:37:31.999Z</time></trkpt><trkpt lat="36.74668780482589" lon="-5.1686804139483975"><ele>747.3333333333334</ele><time>2026-04-25T07:37:32.999Z</time></trkpt><trkpt lat="36.746601214447345" lon="-5.16864931234686"><ele>746.6666666666667</ele><time>2026-04-25T07:37:33.999Z</time></trkpt><trkpt lat="36.74652147191043" lon="-5.168600200852017"><ele>746.0</ele><time>2026-04-25T07:37:34.999Z</time></trkpt><trkpt lat="36.74644346176168" lon="-5.1685521578793665"><ele>745.3333333333334</ele><time>2026-04-25T07:37:35.999Z</time></trkpt><trkpt lat="36.74637580840076" lon="-5.16851049318557"><ele>744.6666666666666</ele><time>2026-04-25T07:37:36.999Z</time></trkpt><trkpt lat="36.74631352718692" lon="-5.1684721369721105"><ele>744.0</ele><time>2026-04-25T07:37:37.999Z</time></trkpt><trkpt lat="36.74625369921628" lon="-5.168435291442331"><ele>744.0</ele><time>2026-04-25T07:37:38.999Z</time></trkpt><trkpt lat="36.74619441837012" lon="-5.16839912265711"><ele>744.0</ele><time>2026-04-25T07:37:39.999Z</time></trkpt><trkpt lat="36.74608617204339" lon="-5.168332957222169"><ele>744.0</ele><time>2026-04-25T07:37:41.999Z</time></trkpt><trkpt lat="36.74596889460071" lon="-5.168261271523753"><ele>744.0</ele><time>2026-04-25T07:37:43.999Z</time></trkpt><trkpt lat="36.74590533075812" lon="-5.168217804869402"><ele>744.0</ele><time>2026-04-25T07:37:44.999Z</time></trkpt><trkpt lat="36.74583466511594" lon="-5.168175464774051"><ele>743.1666666666666</ele><time>2026-04-25T07:37:45.999Z</time></trkpt><trkpt lat="36.74576352219287" lon="-5.1681388166976445"><ele>742.3333333333334</ele><time>2026-04-25T07:37:46.999Z</time></trkpt><trkpt lat="36.74568953752907" lon="-5.168096306851891"><ele>741.5</ele><time>2026-04-25T07:37:47.999Z</time></trkpt><trkpt lat="36.745616600123775" lon="-5.168046674402263"><ele>740.6666666666667</ele><time>2026-04-25T07:37:48.999Z</time></trkpt><trkpt lat="36.74554270291939" lon="-5.168004924323166"><ele>739.8333333333334</ele><time>2026-04-25T07:37:49.999Z</time></trkpt><trkpt lat="36.74546967046877" lon="-5.1679710050939445"><ele>739.0</ele><time>2026-04-25T07:37:50.999Z</time></trkpt><trkpt lat="36.74540625158698" lon="-5.1679412707843255"><ele>739.0</ele><time>2026-04-25T07:37:51.999Z</time></trkpt><trkpt lat="36.74534419053714" lon="-5.1679052135573755"><ele>739.0</ele><time>2026-04-25T07:37:52.999Z</time></trkpt><trkpt lat="36.74524666926828" lon="-5.167843056474341"><ele>739.0</ele><time>2026-04-25T07:37:54.999Z</time></trkpt><trkpt lat="36.745161972399345" lon="-5.167784805493254"><ele>739.0</ele><time>2026-04-25T07:37:57Z</time></trkpt><trkpt lat="36.74505894094761" lon="-5.167710504691194"><ele>739.0</ele><time>2026-04-25T07:37:59Z</time></trkpt><trkpt lat="36.74500329251122" lon="-5.167671680730894"><ele>738.8333333333334</ele><time>2026-04-25T07:38:00Z</time></trkpt><trkpt lat="36.74493763249889" lon="-5.167638090769667"><ele>738.6666666666667</ele><time>2026-04-25T07:38:01Z</time></trkpt><trkpt lat="36.744873275359154" lon="-5.1675926011647455"><ele>738.5</ele><time>2026-04-25T07:38:02Z</time></trkpt><trkpt lat="36.74480829363866" lon="-5.1675450785432515"><ele>738.3333333333334</ele><time>2026-04-25T07:38:03Z</time></trkpt><trkpt lat="36.74471200621215" lon="-5.16747970646902"><ele>738.1666666666666</ele><time>2026-04-25T07:38:05Z</time></trkpt><trkpt lat="36.74462743815293" lon="-5.167427613754419"><ele>738.0</ele><time>2026-04-25T07:38:07Z</time></trkpt><trkpt lat="36.74454908028907" lon="-5.1673830654866455"><ele>737.2</ele><time>2026-04-25T07:38:09Z</time></trkpt><trkpt lat="36.744459503314296" lon="-5.167321268382957"><ele>736.4</ele><time>2026-04-25T07:38:11Z</time></trkpt><trkpt lat="36.74435215902695" lon="-5.167268498289444"><ele>735.6</ele><time>2026-04-25T07:38:13Z</time></trkpt><trkpt lat="36.74428767216678" lon="-5.167264296411568"><ele>734.8000000000001</ele><time>2026-04-25T07:38:14Z</time></trkpt><trkpt lat="36.744164730203934" lon="-5.167276736412064"><ele>734.0</ele><time>2026-04-25T07:38:16Z</time></trkpt><trkpt lat="36.74410035589569" lon="-5.167277023864212"><ele>733.5714285714286</ele><time>2026-04-25T07:38:17Z</time></trkpt><trkpt lat="36.7440370718498" lon="-5.167273833630951"><ele>733.1428571428572</ele><time>2026-04-25T07:38:18Z</time></trkpt><trkpt lat="36.7439696027875" lon="-5.16725615078376"><ele>732.7142857142858</ele><time>2026-04-25T07:38:19Z</time></trkpt><trkpt lat="36.743902880678434" lon="-5.16723077373751"><ele>732.2857142857142</ele><time>2026-04-25T07:38:20Z</time></trkpt><trkpt lat="36.743838013110434" lon="-5.167199163753577"><ele>731.8571428571429</ele><time>2026-04-25T07:38:21Z</time></trkpt><trkpt lat="36.74377896751978" lon="-5.167170336978225"><ele>731.4285714285714</ele><time>2026-04-25T07:38:22Z</time></trkpt><trkpt lat="36.74367077367777" lon="-5.1671360558830735"><ele>731.0</ele><time>2026-04-25T07:38:24Z</time></trkpt><trkpt lat="36.74360155799152" lon="-5.167086338864458"><ele>734.0</ele><time>2026-04-25T07:38:55.999Z</time></trkpt><trkpt lat="36.74381791047445" lon="-5.1665136512244025"><ele>734.0</ele><time>2026-04-25T07:39:51.999Z</time></trkpt><trkpt lat="36.74387687934604" lon="-5.166401667359705"><ele>734.0</ele><time>2026-04-25T07:39:53.999Z</time></trkpt><trkpt lat="36.74392383908998" lon="-5.166306825689581"><ele>734.0</ele><time>2026-04-25T07:39:55.999Z</time></trkpt><trkpt lat="36.74395914177989" lon="-5.1662214750347255"><ele>734.0</ele><time>2026-04-25T07:39:58.999Z</time></trkpt><trkpt lat="36.74391336248055" lon="-5.166157988298665"><ele>734.0</ele><time>2026-04-25T07:40:04Z</time></trkpt><trkpt lat="36.743833001904285" lon="-5.166087855514057"><ele>734.0</ele><time>2026-04-25T07:40:06Z</time></trkpt><trkpt lat="36.743767651234336" lon="-5.166074818489194"><ele>734.0</ele><time>2026-04-25T07:40:07Z</time></trkpt><trkpt lat="36.74366159908683" lon="-5.1660096828555"><ele>734.0</ele><time>2026-04-25T07:40:09Z</time></trkpt><trkpt lat="36.74356581715659" lon="-5.165950009681764"><ele>734.0</ele><time>2026-04-25T07:40:11Z</time></trkpt><trkpt lat="36.74349395935522" lon="-5.1659089706785695"><ele>734.0</ele><time>2026-04-25T07:40:13Z</time></trkpt><trkpt lat="36.74343902362883" lon="-5.1658606445283555"><ele>734.0</ele><time>2026-04-25T07:40:15Z</time></trkpt><trkpt lat="36.74337215086266" lon="-5.165849446680751"><ele>734.0</ele><time>2026-04-25T07:40:19Z</time></trkpt><trkpt lat="36.74330560719194" lon="-5.165974518711316"><ele>732.5</ele><time>2026-04-25T07:40:25Z</time></trkpt><trkpt lat="36.74336584509599" lon="-5.165836616660063"><ele>731.0</ele><time>2026-04-25T07:40:31Z</time></trkpt><trkpt lat="36.743299006664806" lon="-5.165992380168878"><ele>729.5</ele><time>2026-04-25T07:40:34Z</time></trkpt><trkpt lat="36.74336584510275" lon="-5.165836616644261"><ele>728.0</ele><time>2026-04-25T07:40:38Z</time></trkpt><trkpt lat="36.743279957206475" lon="-5.166087250239814"><ele>728.0</ele><time>2026-04-25T07:40:57.999Z</time></trkpt><trkpt lat="36.74336353368992" lon="-5.166177747011333"><ele>728.0</ele><time>2026-04-25T07:40:59.999Z</time></trkpt><trkpt lat="36.743452301588974" lon="-5.16626944260918"><ele>728.0</ele><time>2026-04-25T07:41:01.999Z</time></trkpt><trkpt lat="36.74354294016544" lon="-5.166365563640648"><ele>728.0</ele><time>2026-04-25T07:41:03.999Z</time></trkpt><trkpt lat="36.743622056542534" lon="-5.166448190121745"><ele>728.0</ele><time>2026-04-25T07:41:05.999Z</time></trkpt><trkpt lat="36.74368107914869" lon="-5.166501048085617"><ele>728.75</ele><time>2026-04-25T07:41:07.999Z</time></trkpt><trkpt lat="36.74373434824154" lon="-5.166580545122723"><ele>729.5</ele><time>2026-04-25T07:41:26.999Z</time></trkpt><trkpt lat="36.74384036960391" lon="-5.166423442457183"><ele>730.25</ele><time>2026-04-25T07:41:33.999Z</time></trkpt><trkpt lat="36.743898323632415" lon="-5.166320343869275"><ele>731.0</ele><time>2026-04-25T07:41:35.999Z</time></trkpt><trkpt lat="36.743944840628316" lon="-5.166195841778474"><ele>734.0</ele><time>2026-04-25T07:41:37.999Z</time></trkpt><trkpt lat="36.74399444770746" lon="-5.16608654838716"><ele>734.0</ele><time>2026-04-25T07:41:39.999Z</time></trkpt><trkpt lat="36.74403134767478" lon="-5.165962972658816"><ele>734.0</ele><time>2026-04-25T07:41:41.999Z</time></trkpt><trkpt lat="36.74407513738214" lon="-5.165887402501583"><ele>734.0</ele><time>2026-04-25T07:41:43.999Z</time></trkpt><trkpt lat="36.74413232841337" lon="-5.165833267721228"><ele>734.0</ele><time>2026-04-25T07:42:04.998Z</time></trkpt></trkseg><trkseg><trkpt lat="36.74396091144229" lon="-5.165715459739012"><ele>734.0</ele><time>2026-04-25T08:30:38.995Z</time></trkpt><trkpt lat="36.744032450985856" lon="-5.1657349895734015"><ele>734.0</ele><time>2026-04-25T08:30:44Z</time></trkpt><trkpt lat="36.74409138852752" lon="-5.165790396603518"><ele>734.0</ele><time>2026-04-25T08:32:18.998Z</time></trkpt><trkpt lat="36.74415771478337" lon="-5.165771675740721"><ele>734.0</ele><time>2026-04-25T08:32:55.999Z</time></trkpt><trkpt lat="36.74419493991734" lon="-5.165705800681997"><ele>734.0</ele><time>2026-04-25T08:32:59.999Z</time></trkpt><trkpt lat="36.744237278336215" lon="-5.165635428003302"><ele>734.0</ele><time>2026-04-25T08:33:05.999Z</time></trkpt><trkpt lat="36.74428096516532" lon="-5.165565726732717"><ele>734.0</ele><time>2026-04-25T08:33:07.999Z</time></trkpt><trkpt lat="36.74431491281263" lon="-5.165468512229379"><ele>733.8000000000001</ele><time>2026-04-25T08:33:10.999Z</time></trkpt><trkpt lat="36.744356908369255" lon="-5.165387305780456"><ele>733.6</ele><time>2026-04-25T08:33:12.999Z</time></trkpt><trkpt lat="36.74439803713668" lon="-5.1652941661317255"><ele>733.4</ele><time>2026-04-25T08:33:14.999Z</time></trkpt><trkpt lat="36.74446279978988" lon="-5.165179771279077"><ele>733.2</ele><time>2026-04-25T08:33:16.999Z</time></trkpt><trkpt lat="36.744523091119106" lon="-5.165061994480857"><ele>733.0</ele><time>2026-04-25T08:33:18.999Z</time></trkpt><trkpt lat="36.744566517186236" lon="-5.1649696416538164"><ele>733.2</ele><time>2026-04-25T08:33:19.999Z</time></trkpt><trkpt lat="36.74460317905485" lon="-5.164888694407257"><ele>733.4</ele><time>2026-04-25T08:33:20.999Z</time></trkpt><trkpt lat="36.7446144597601" lon="-5.1648048369853905"><ele>733.6</ele><time>2026-04-25T08:33:21.999Z</time></trkpt><trkpt lat="36.74467286784652" lon="-5.16468463048339"><ele>733.8000000000001</ele><time>2026-04-25T08:33:23.999Z</time></trkpt><trkpt lat="36.744721687844404" lon="-5.164584156708109"><ele>734.0</ele><time>2026-04-25T08:33:25.999Z</time></trkpt><trkpt lat="36.74477313213899" lon="-5.164476886698483"><ele>734.0</ele><time>2026-04-25T08:33:27.999Z</time></trkpt><trkpt lat="36.744828088587" lon="-5.164361276078868"><ele>734.0</ele><time>2026-04-25T08:33:29.999Z</time></trkpt><trkpt lat="36.744888483787506" lon="-5.164234224079936"><ele>734.0</ele><time>2026-04-25T08:33:31.999Z</time></trkpt><trkpt lat="36.74494597740401" lon="-5.164113275947726"><ele>734.0</ele><time>2026-04-25T08:33:33.999Z</time></trkpt><trkpt lat="36.74498898378171" lon="-5.164022926188337"><ele>734.0</ele><time>2026-04-25T08:33:35.999Z</time></trkpt><trkpt lat="36.74504133272218" lon="-5.163913108512624"><ele>733.8333333333333</ele><time>2026-04-25T08:33:37.999Z</time></trkpt><trkpt lat="36.74507591639785" lon="-5.163840558707224"><ele>733.6666666666666</ele><time>2026-04-25T08:33:38.999Z</time></trkpt><trkpt lat="36.74513749853234" lon="-5.163711371608784"><ele>733.5</ele><time>2026-04-25T08:33:40.999Z</time></trkpt><trkpt lat="36.74517290296828" lon="-5.163637100089299"><ele>733.3333333333334</ele><time>2026-04-25T08:33:41.999Z</time></trkpt><trkpt lat="36.74521482075475" lon="-5.163556330638308"><ele>733.1666666666667</ele><time>2026-04-25T08:33:42.999Z</time></trkpt><trkpt lat="36.745256483427525" lon="-5.163461146905688"><ele>733.0</ele><time>2026-04-25T08:33:43.999Z</time></trkpt><trkpt lat="36.74531409306723" lon="-5.163351627266928"><ele>734.4</ele><time>2026-04-25T08:33:44.999Z</time></trkpt><trkpt lat="36.74538360540786" lon="-5.163208643202589"><ele>735.8</ele><time>2026-04-25T08:33:45.999Z</time></trkpt><trkpt lat="36.74542762322752" lon="-5.163092888926744"><ele>737.2</ele><time>2026-04-25T08:33:46.999Z</time></trkpt><trkpt lat="36.74548437631041" lon="-5.163015007398554"><ele>738.6</ele><time>2026-04-25T08:33:47.999Z</time></trkpt><trkpt lat="36.74552300292276" lon="-5.162936139881042"><ele>740.0</ele><time>2026-04-25T08:33:48.999Z</time></trkpt><trkpt lat="36.74557423493669" lon="-5.162785008806464"><ele>740.1666666666666</ele><time>2026-04-25T08:33:50.999Z</time></trkpt><trkpt lat="36.745617986770895" lon="-5.162698881192227"><ele>740.3333333333333</ele><time>2026-04-25T08:33:51.999Z</time></trkpt><trkpt lat="36.74566118913236" lon="-5.162612537593171"><ele>740.5</ele><time>2026-04-25T08:33:52.999Z</time></trkpt><trkpt lat="36.7456990771709" lon="-5.162539088593873"><ele>740.6666666666666</ele><time>2026-04-25T08:33:53.999Z</time></trkpt><trkpt lat="36.74573589516736" lon="-5.162459507975529"><ele>740.8333333333334</ele><time>2026-04-25T08:33:54.999Z</time></trkpt><trkpt lat="36.74576801810949" lon="-5.16237488949867"><ele>741.0</ele><time>2026-04-25T08:33:55.999Z</time></trkpt><trkpt lat="36.74581515763084" lon="-5.162291261060327"><ele>741.1666666666666</ele><time>2026-04-25T08:33:56.999Z</time></trkpt><trkpt lat="36.74585894910279" lon="-5.1622098287065805"><ele>741.3333333333334</ele><time>2026-04-25T08:33:57.999Z</time></trkpt><trkpt lat="36.74589937492211" lon="-5.162121068066448"><ele>741.5</ele><time>2026-04-25T08:33:58.999Z</time></trkpt><trkpt lat="36.745926016420974" lon="-5.162034988593607"><ele>741.6666666666667</ele><time>2026-04-25T08:33:59.999Z</time></trkpt><trkpt lat="36.74597257424528" lon="-5.161959339057052"><ele>741.8333333333334</ele><time>2026-04-25T08:34:00.999Z</time></trkpt><trkpt lat="36.746008332789955" lon="-5.161877336939194"><ele>742.0</ele><time>2026-04-25T08:34:01.999Z</time></trkpt><trkpt lat="36.746051564095836" lon="-5.161797647850874"><ele>742.0</ele><time>2026-04-25T08:34:02.999Z</time></trkpt><trkpt lat="36.746099667237004" lon="-5.161725537375911"><ele>742.0</ele><time>2026-04-25T08:34:03.999Z</time></trkpt><trkpt lat="36.74614267913908" lon="-5.1616541827901266"><ele>742.0</ele><time>2026-04-25T08:34:04.999Z</time></trkpt><trkpt lat="36.74619936845197" lon="-5.1615314631288784"><ele>742.0</ele><time>2026-04-25T08:34:06.999Z</time></trkpt><trkpt lat="36.74623652651363" lon="-5.161453057049508"><ele>742.0</ele><time>2026-04-25T08:34:08.999Z</time></trkpt><trkpt lat="36.74621427257644" lon="-5.161315961223158"><ele>742.0</ele><time>2026-04-25T08:34:11.999Z</time></trkpt><trkpt lat="36.746171051099566" lon="-5.161181918174756"><ele>741.8</ele><time>2026-04-25T08:34:13.999Z</time></trkpt><trkpt lat="36.746213446692146" lon="-5.161019748717022"><ele>741.6</ele><time>2026-04-25T08:34:15.999Z</time></trkpt><trkpt lat="36.74625385790785" lon="-5.160933846469606"><ele>741.4</ele><time>2026-04-25T08:34:16.999Z</time></trkpt><trkpt lat="36.746291559916365" lon="-5.160859707256953"><ele>741.1999999999999</ele><time>2026-04-25T08:34:17.999Z</time></trkpt><trkpt lat="36.74635295050143" lon="-5.160731320697992"><ele>741.0</ele><time>2026-04-25T08:34:19.999Z</time></trkpt><trkpt lat="36.74639501206488" lon="-5.160628099677837"><ele>741.5</ele><time>2026-04-25T08:34:21.998Z</time></trkpt><trkpt lat="36.74640922580198" lon="-5.1605217659698"><ele>742.0</ele><time>2026-04-25T08:34:24.998Z</time></trkpt><trkpt lat="36.74633093233014" lon="-5.1604468332539755"><ele>742.5</ele><time>2026-04-25T08:34:26.998Z</time></trkpt><trkpt lat="36.74627525310474" lon="-5.160407813556046"><ele>743.0</ele><time>2026-04-25T08:34:27.998Z</time></trkpt><trkpt lat="36.74621535646651" lon="-5.160371909044759"><ele>743.5</ele><time>2026-04-25T08:34:28.998Z</time></trkpt><trkpt lat="36.746155146560355" lon="-5.16033272771137"><ele>744.0</ele><time>2026-04-25T08:34:29.998Z</time></trkpt><trkpt lat="36.7460946859729" lon="-5.160288169270612"><ele>743.8000000000001</ele><time>2026-04-25T08:34:30.998Z</time></trkpt><trkpt lat="36.746034691976604" lon="-5.160251168979328"><ele>743.6</ele><time>2026-04-25T08:34:31.998Z</time></trkpt><trkpt lat="36.745978394320744" lon="-5.160207538842904"><ele>743.4</ele><time>2026-04-25T08:34:32.998Z</time></trkpt><trkpt lat="36.74589776492458" lon="-5.160105604819057"><ele>743.2</ele><time>2026-04-25T08:34:34.998Z</time></trkpt><trkpt lat="36.74588784845104" lon="-5.159971403719695"><ele>743.0</ele><time>2026-04-25T08:34:36.998Z</time></trkpt><trkpt lat="36.74592462648137" lon="-5.15983977432722"><ele>743.3333333333333</ele><time>2026-04-25T08:34:38.998Z</time></trkpt><trkpt lat="36.74596038909251" lon="-5.159767760042916"><ele>743.6666666666666</ele><time>2026-04-25T08:34:40.998Z</time></trkpt><trkpt lat="36.74600649917758" lon="-5.159691048339109"><ele>744.0</ele><time>2026-04-25T08:34:43.998Z</time></trkpt><trkpt lat="36.746054266124105" lon="-5.159591286595448"><ele>744.3333333333334</ele><time>2026-04-25T08:34:45.998Z</time></trkpt><trkpt lat="36.7460885057847" lon="-5.159524026790827"><ele>744.6666666666667</ele><time>2026-04-25T08:34:46.998Z</time></trkpt><trkpt lat="36.746134153660144" lon="-5.159439568764036"><ele>745.0</ele><time>2026-04-25T08:34:47.998Z</time></trkpt><trkpt lat="36.74618588422863" lon="-5.159350874197991"><ele>745.4</ele><time>2026-04-25T08:34:48.998Z</time></trkpt><trkpt lat="36.746238103394965" lon="-5.159261462391787"><ele>745.8</ele><time>2026-04-25T08:34:49.998Z</time></trkpt><trkpt lat="36.7462876118061" lon="-5.159170664374343"><ele>746.2</ele><time>2026-04-25T08:34:50.999Z</time></trkpt><trkpt lat="36.74634143993057" lon="-5.159080656067064"><ele>746.6</ele><time>2026-04-25T08:34:51.999Z</time></trkpt><trkpt lat="36.74639684666584" lon="-5.158978986021043"><ele>747.0</ele><time>2026-04-25T08:34:52.999Z</time></trkpt><trkpt lat="36.74645327740234" lon="-5.158872988658413"><ele>747.2</ele><time>2026-04-25T08:34:53.999Z</time></trkpt><trkpt lat="36.74650713023673" lon="-5.158774241473123"><ele>747.4000000000001</ele><time>2026-04-25T08:34:54.999Z</time></trkpt><trkpt lat="36.74656184851297" lon="-5.158686262109476"><ele>747.5999999999999</ele><time>2026-04-25T08:34:55.999Z</time></trkpt><trkpt lat="36.74661532833018" lon="-5.15859324803734"><ele>747.8</ele><time>2026-04-25T08:34:56.999Z</time></trkpt><trkpt lat="36.746680570049975" lon="-5.15849797836746"><ele>748.0</ele><time>2026-04-25T08:34:57.999Z</time></trkpt><trkpt lat="36.74674109173759" lon="-5.158402567269962"><ele>748.0</ele><time>2026-04-25T08:34:58.999Z</time></trkpt><trkpt lat="36.74679038854225" lon="-5.158312267870813"><ele>748.0</ele><time>2026-04-25T08:34:59.999Z</time></trkpt><trkpt lat="36.74683253373933" lon="-5.15822816458571"><ele>748.0</ele><time>2026-04-25T08:35:00.999Z</time></trkpt><trkpt lat="36.74687943941386" lon="-5.158149986812213"><ele>748.0</ele><time>2026-04-25T08:35:01.999Z</time></trkpt><trkpt lat="36.74693085777384" lon="-5.158073405725866"><ele>748.0</ele><time>2026-04-25T08:35:02.999Z</time></trkpt><trkpt lat="36.74698215654701" lon="-5.157989767427441"><ele>748.0</ele><time>2026-04-25T08:35:03.999Z</time></trkpt><trkpt lat="36.747031428031214" lon="-5.157889501532555"><ele>747.8</ele><time>2026-04-25T08:35:04.999Z</time></trkpt><trkpt lat="36.747085703401694" lon="-5.1577920969219315"><ele>747.5999999999999</ele><time>2026-04-25T08:35:05.999Z</time></trkpt><trkpt lat="36.74714755388667" lon="-5.15769383365877"><ele>747.4000000000001</ele><time>2026-04-25T08:35:06.999Z</time></trkpt><trkpt lat="36.74720960650177" lon="-5.157588005248051"><ele>747.2</ele><time>2026-04-25T08:35:07.999Z</time></trkpt><trkpt lat="36.74726477441736" lon="-5.157488162307544"><ele>747.0</ele><time>2026-04-25T08:35:08.999Z</time></trkpt><trkpt lat="36.74731577353259" lon="-5.15739119692054"><ele>746.5</ele><time>2026-04-25T08:35:09.999Z</time></trkpt><trkpt lat="36.74736706986477" lon="-5.157295625262865"><ele>746.0</ele><time>2026-04-25T08:35:10.999Z</time></trkpt><trkpt lat="36.747414671084" lon="-5.157210225631379"><ele>745.5</ele><time>2026-04-25T08:35:11.999Z</time></trkpt><trkpt lat="36.74745907750013" lon="-5.157135879689587"><ele>745.0</ele><time>2026-04-25T08:35:12.999Z</time></trkpt><trkpt lat="36.74749067735233" lon="-5.157062417639083"><ele>744.5</ele><time>2026-04-25T08:35:13.999Z</time></trkpt><trkpt lat="36.74751782758019" lon="-5.156987838170647"><ele>744.0</ele><time>2026-04-25T08:35:14.999Z</time></trkpt><trkpt lat="36.74754544718013" lon="-5.156909399485348"><ele>744.0</ele><time>2026-04-25T08:35:15.999Z</time></trkpt><trkpt lat="36.747572172270615" lon="-5.15681913233737"><ele>744.0</ele><time>2026-04-25T08:35:16.999Z</time></trkpt><trkpt lat="36.747625646892075" lon="-5.156730149271489"><ele>744.0</ele><time>2026-04-25T08:35:17.999Z</time></trkpt><trkpt lat="36.74770411482191" lon="-5.156668825031629"><ele>744.0</ele><time>2026-04-25T08:35:18.999Z</time></trkpt><trkpt lat="36.74775841118404" lon="-5.156580423460889"><ele>744.0</ele><time>2026-04-25T08:35:19.999Z</time></trkpt><trkpt lat="36.747810372497256" lon="-5.156478638085459"><ele>744.0</ele><time>2026-04-25T08:35:20.999Z</time></trkpt><trkpt lat="36.74786645766787" lon="-5.156377475053088"><ele>744.1666666666666</ele><time>2026-04-25T08:35:21.999Z</time></trkpt><trkpt lat="36.74793003724152" lon="-5.156276351458444"><ele>744.3333333333334</ele><time>2026-04-25T08:35:22.999Z</time></trkpt><trkpt lat="36.74799435607972" lon="-5.156175983394398"><ele>744.5</ele><time>2026-04-25T08:35:23.999Z</time></trkpt><trkpt lat="36.748045783194186" lon="-5.1560901518717355"><ele>744.6666666666667</ele><time>2026-04-25T08:35:24.999Z</time></trkpt><trkpt lat="36.748095073971626" lon="-5.156024121968005"><ele>744.8333333333334</ele><time>2026-04-25T08:35:25.999Z</time></trkpt><trkpt lat="36.74812910516499" lon="-5.155948664058759"><ele>745.0</ele><time>2026-04-25T08:35:26.999Z</time></trkpt><trkpt lat="36.74816093770302" lon="-5.155872105695795"><ele>745.0</ele><time>2026-04-25T08:35:27.999Z</time></trkpt><trkpt lat="36.74820072722954" lon="-5.155804890915621"><ele>745.0</ele><time>2026-04-25T08:35:28.999Z</time></trkpt><trkpt lat="36.748268582976515" lon="-5.155705050467213"><ele>745.0</ele><time>2026-04-25T08:35:30.999Z</time></trkpt><trkpt lat="36.74833556765431" lon="-5.155570199904868"><ele>745.0</ele><time>2026-04-25T08:35:32.999Z</time></trkpt><trkpt lat="36.74836448825398" lon="-5.155497300104233"><ele>745.0</ele><time>2026-04-25T08:35:33.999Z</time></trkpt><trkpt lat="36.74838463187335" lon="-5.15540755716209"><ele>745.0</ele><time>2026-04-25T08:35:34.999Z</time></trkpt><trkpt lat="36.748414895802284" lon="-5.155308968151334"><ele>745.0</ele><time>2026-04-25T08:35:35.999Z</time></trkpt><trkpt lat="36.74846533317744" lon="-5.155199007658852"><ele>745.0</ele><time>2026-04-25T08:35:36.999Z</time></trkpt><trkpt lat="36.74852959860867" lon="-5.15507574938672"><ele>745.0</ele><time>2026-04-25T08:35:37.999Z</time></trkpt><trkpt lat="36.748600829767256" lon="-5.154945973508554"><ele>745.0</ele><time>2026-04-25T08:35:38.999Z</time></trkpt><trkpt lat="36.74865950693067" lon="-5.1548301051943755"><ele>745.2</ele><time>2026-04-25T08:35:39.999Z</time></trkpt><trkpt lat="36.748714011084445" lon="-5.154728575430287"><ele>745.4</ele><time>2026-04-25T08:35:40.999Z</time></trkpt><trkpt lat="36.74877320259424" lon="-5.154629439749905"><ele>745.5999999999999</ele><time>2026-04-25T08:35:41.999Z</time></trkpt><trkpt lat="36.74882382572967" lon="-5.154536452350319"><ele>745.8</ele><time>2026-04-25T08:35:42.999Z</time></trkpt><trkpt lat="36.74888714301368" lon="-5.154436529727553"><ele>746.0</ele><time>2026-04-25T08:35:43.999Z</time></trkpt><trkpt lat="36.748936735099946" lon="-5.154353510984548"><ele>746.0</ele><time>2026-04-25T08:35:44.999Z</time></trkpt><trkpt lat="36.74897397666318" lon="-5.154266202544719"><ele>746.0</ele><time>2026-04-25T08:35:45.999Z</time></trkpt><trkpt lat="36.74902476072273" lon="-5.154167874071844"><ele>746.0</ele><time>2026-04-25T08:35:46.999Z</time></trkpt><trkpt lat="36.74908261580904" lon="-5.154057375130107"><ele>746.0</ele><time>2026-04-25T08:35:47.999Z</time></trkpt><trkpt lat="36.74914375840164" lon="-5.15394913730028"><ele>746.0</ele><time>2026-04-25T08:35:48.999Z</time></trkpt><trkpt lat="36.749196570169616" lon="-5.153849942113119"><ele>745.3333333333333</ele><time>2026-04-25T08:35:49.999Z</time></trkpt><trkpt lat="36.74924526994962" lon="-5.153762751092308"><ele>744.6666666666666</ele><time>2026-04-25T08:35:50.999Z</time></trkpt><trkpt lat="36.74929422594643" lon="-5.153682672884344"><ele>744.0</ele><time>2026-04-25T08:35:51.999Z</time></trkpt><trkpt lat="36.74933751446576" lon="-5.153607797225439"><ele>743.3333333333334</ele><time>2026-04-25T08:35:52.999Z</time></trkpt><trkpt lat="36.7493780267883" lon="-5.153534722536192"><ele>742.6666666666667</ele><time>2026-04-25T08:35:53.999Z</time></trkpt><trkpt lat="36.74943925168941" lon="-5.1534359470582745"><ele>742.0</ele><time>2026-04-25T08:35:55.999Z</time></trkpt><trkpt lat="36.74943410077788" lon="-5.153327107324545"><ele>742.0</ele><time>2026-04-25T08:35:57.999Z</time></trkpt><trkpt lat="36.74932933348548" lon="-5.153258974037541"><ele>742.0</ele><time>2026-04-25T08:35:59.999Z</time></trkpt><trkpt lat="36.74922708110293" lon="-5.153177567640265"><ele>742.0</ele><time>2026-04-25T08:36:01.999Z</time></trkpt><trkpt lat="36.749127492413635" lon="-5.153104009046396"><ele>742.0</ele><time>2026-04-25T08:36:03.999Z</time></trkpt><trkpt lat="36.749075388627354" lon="-5.153057736017081"><ele>742.0</ele><time>2026-04-25T08:36:04.999Z</time></trkpt><trkpt lat="36.74901360143244" lon="-5.153002862400155"><ele>740.2</ele><time>2026-04-25T08:36:05.999Z</time></trkpt><trkpt lat="36.74889069378605" lon="-5.1529146562344845"><ele>738.4000000000001</ele><time>2026-04-25T08:36:07.999Z</time></trkpt><trkpt lat="36.74882802309683" lon="-5.1528507258407465"><ele>736.5999999999999</ele><time>2026-04-25T08:36:08.999Z</time></trkpt><trkpt lat="36.74877040343908" lon="-5.152787347257249"><ele>734.8</ele><time>2026-04-25T08:36:09.999Z</time></trkpt><trkpt lat="36.74872262211543" lon="-5.152715945843394"><ele>733.0</ele><time>2026-04-25T08:36:10.999Z</time></trkpt><trkpt lat="36.748672309864425" lon="-5.152643533869579"><ele>733.0</ele><time>2026-04-25T08:36:11.999Z</time></trkpt><trkpt lat="36.74862188186286" lon="-5.1525613036438"><ele>733.0</ele><time>2026-04-25T08:36:12.999Z</time></trkpt><trkpt lat="36.74857520727827" lon="-5.1524719093648255"><ele>733.0</ele><time>2026-04-25T08:36:13.999Z</time></trkpt><trkpt lat="36.74851578241063" lon="-5.1524000011775"><ele>733.0</ele><time>2026-04-25T08:36:14.999Z</time></trkpt><trkpt lat="36.748474392090614" lon="-5.152323482644451"><ele>733.0</ele><time>2026-04-25T08:36:15.999Z</time></trkpt><trkpt lat="36.74841302411576" lon="-5.152211302188232"><ele>733.0</ele><time>2026-04-25T08:36:17.999Z</time></trkpt><trkpt lat="36.748374582711826" lon="-5.152131041091569"><ele>731.2</ele><time>2026-04-25T08:36:19.999Z</time></trkpt><trkpt lat="36.74833227262221" lon="-5.1520360179102385"><ele>729.4</ele><time>2026-04-25T08:36:22.999Z</time></trkpt><trkpt lat="36.7483001340058" lon="-5.151959547566597"><ele>727.6</ele><time>2026-04-25T08:36:24.999Z</time></trkpt><trkpt lat="36.748272014570794" lon="-5.151815668265354"><ele>725.8000000000001</ele><time>2026-04-25T08:36:26.999Z</time></trkpt><trkpt lat="36.74823749530964" lon="-5.151720312562975"><ele>724.0</ele><time>2026-04-25T08:36:27.999Z</time></trkpt><trkpt lat="36.74821248889369" lon="-5.151599286384959"><ele>723.2</ele><time>2026-04-25T08:36:28.999Z</time></trkpt><trkpt lat="36.74818817553711" lon="-5.151481614449414"><ele>722.4000000000001</ele><time>2026-04-25T08:36:29.999Z</time></trkpt><trkpt lat="36.74816335461756" lon="-5.151361486032272"><ele>721.6</ele><time>2026-04-25T08:36:30.999Z</time></trkpt><trkpt lat="36.74813849520182" lon="-5.151241170913217"><ele>720.8</ele><time>2026-04-25T08:36:31.999Z</time></trkpt><trkpt lat="36.74811708490559" lon="-5.151117752205651"><ele>720.0</ele><time>2026-04-25T08:36:32.998Z</time></trkpt><trkpt lat="36.748099006848555" lon="-5.151005571297522"><ele>720.0</ele><time>2026-04-25T08:36:33.998Z</time></trkpt><trkpt lat="36.74808394588579" lon="-5.15090962608346"><ele>720.0</ele><time>2026-04-25T08:36:34.998Z</time></trkpt><trkpt lat="36.74806852085437" lon="-5.150811361563967"><ele>720.0</ele><time>2026-04-25T08:36:35.998Z</time></trkpt><trkpt lat="36.7480538741839" lon="-5.1507118839612325"><ele>720.0</ele><time>2026-04-25T08:36:36.998Z</time></trkpt><trkpt lat="36.74804182360943" lon="-5.150616356550946"><ele>720.0</ele><time>2026-04-25T08:36:37.998Z</time></trkpt><trkpt lat="36.74803032016015" lon="-5.150510776288459"><ele>720.0</ele><time>2026-04-25T08:36:38.998Z</time></trkpt><trkpt lat="36.74802015130877" lon="-5.15041744527645"><ele>719.1666666666666</ele><time>2026-04-25T08:36:39.998Z</time></trkpt><trkpt lat="36.748009549364866" lon="-5.15032013911668"><ele>718.3333333333334</ele><time>2026-04-25T08:36:40.998Z</time></trkpt><trkpt lat="36.74799836859304" lon="-5.150217520430461"><ele>717.5</ele><time>2026-04-25T08:36:41.998Z</time></trkpt><trkpt lat="36.747987636395514" lon="-5.15009855027913"><ele>716.6666666666667</ele><time>2026-04-25T08:36:42.998Z</time></trkpt><trkpt lat="36.74797728991017" lon="-5.1499774863219745"><ele>715.8333333333334</ele><time>2026-04-25T08:36:43.998Z</time></trkpt><trkpt lat="36.74796881842195" lon="-5.149865450239889"><ele>715.0</ele><time>2026-04-25T08:36:44.998Z</time></trkpt><trkpt lat="36.74796120388968" lon="-5.149761209893189"><ele>714.7142857142858</ele><time>2026-04-25T08:36:45.998Z</time></trkpt><trkpt lat="36.747968129374016" lon="-5.149662919192373"><ele>714.4285714285713</ele><time>2026-04-25T08:36:46.998Z</time></trkpt><trkpt lat="36.74796134126195" lon="-5.149574825354893"><ele>714.1428571428571</ele><time>2026-04-25T08:36:47.998Z</time></trkpt><trkpt lat="36.74795004087796" lon="-5.1494862102634364"><ele>713.8571428571429</ele><time>2026-04-25T08:36:48.998Z</time></trkpt><trkpt lat="36.74794427566239" lon="-5.1493967586005125"><ele>713.5714285714287</ele><time>2026-04-25T08:36:49.998Z</time></trkpt><trkpt lat="36.74793635498335" lon="-5.149307026716318"><ele>713.2857142857142</ele><time>2026-04-25T08:36:50.998Z</time></trkpt><trkpt lat="36.74793159617004" lon="-5.149226152578433"><ele>713.0</ele><time>2026-04-25T08:36:51.998Z</time></trkpt><trkpt lat="36.74792758946152" lon="-5.1490853030391275"><ele>712.3333333333333</ele><time>2026-04-25T08:36:53.998Z</time></trkpt><trkpt lat="36.747919402265985" lon="-5.149001419489569"><ele>711.6666666666666</ele><time>2026-04-25T08:36:54.998Z</time></trkpt><trkpt lat="36.74791809184857" lon="-5.148914709663799"><ele>711.0</ele><time>2026-04-25T08:36:55.999Z</time></trkpt><trkpt lat="36.74791842185939" lon="-5.148813919543139"><ele>710.3333333333334</ele><time>2026-04-25T08:36:56.999Z</time></trkpt><trkpt lat="36.74791997304741" lon="-5.148707839663984"><ele>709.6666666666667</ele><time>2026-04-25T08:36:57.999Z</time></trkpt><trkpt lat="36.74792308763257" lon="-5.148583833397389"><ele>709.0</ele><time>2026-04-25T08:36:58.999Z</time></trkpt><trkpt lat="36.747928849404616" lon="-5.148446673473373"><ele>709.0</ele><time>2026-04-25T08:36:59.999Z</time></trkpt><trkpt lat="36.747932088696565" lon="-5.148308824577776"><ele>709.0</ele><time>2026-04-25T08:37:00.999Z</time></trkpt><trkpt lat="36.74794206396915" lon="-5.148182964283443"><ele>709.0</ele><time>2026-04-25T08:37:01.999Z</time></trkpt><trkpt lat="36.74795829593625" lon="-5.148062076314338"><ele>709.0</ele><time>2026-04-25T08:37:02.999Z</time></trkpt><trkpt lat="36.74796936987587" lon="-5.147941297486371"><ele>709.0</ele><time>2026-04-25T08:37:03.999Z</time></trkpt><trkpt lat="36.74798218498122" lon="-5.147823036165852"><ele>708.3333333333334</ele><time>2026-04-25T08:37:04.999Z</time></trkpt><trkpt lat="36.74799558310466" lon="-5.14770688492666"><ele>707.6666666666667</ele><time>2026-04-25T08:37:05.999Z</time></trkpt><trkpt lat="36.748009171160824" lon="-5.147597961703618"><ele>707.0</ele><time>2026-04-25T08:37:06.999Z</time></trkpt><trkpt lat="36.74802398611973" lon="-5.147487891039085"><ele>706.3333333333334</ele><time>2026-04-25T08:37:07.999Z</time></trkpt><trkpt lat="36.74803914608776" lon="-5.147387664741001"><ele>705.6666666666666</ele><time>2026-04-25T08:37:08.999Z</time></trkpt><trkpt lat="36.748057877658766" lon="-5.147296635319739"><ele>705.0</ele><time>2026-04-25T08:37:09.999Z</time></trkpt><trkpt lat="36.748067208333076" lon="-5.147210418426985"><ele>705.0</ele><time>2026-04-25T08:37:10.999Z</time></trkpt><trkpt lat="36.74805945074814" lon="-5.14712274759042"><ele>705.0</ele><time>2026-04-25T08:37:11.999Z</time></trkpt><trkpt lat="36.74803994749963" lon="-5.147039537746235"><ele>705.0</ele><time>2026-04-25T08:37:12.999Z</time></trkpt><trkpt lat="36.74802248059252" lon="-5.146939465781405"><ele>705.0</ele><time>2026-04-25T08:37:13.999Z</time></trkpt><trkpt lat="36.74800816029639" lon="-5.146832167576982"><ele>705.0</ele><time>2026-04-25T08:37:14.999Z</time></trkpt><trkpt lat="36.74798426977492" lon="-5.146725680447193"><ele>705.0</ele><time>2026-04-25T08:37:15.999Z</time></trkpt><trkpt lat="36.74794617975046" lon="-5.146605879279117"><ele>704.75</ele><time>2026-04-25T08:37:16.999Z</time></trkpt><trkpt lat="36.74789447651699" lon="-5.146472528073681"><ele>704.5</ele><time>2026-04-25T08:37:17.999Z</time></trkpt><trkpt lat="36.74785121602652" lon="-5.146332566598066"><ele>704.25</ele><time>2026-04-25T08:37:18.999Z</time></trkpt><trkpt lat="36.74781917625098" lon="-5.146196788391172"><ele>704.0</ele><time>2026-04-25T08:37:19.999Z</time></trkpt><trkpt lat="36.7477505936514" lon="-5.146088890271758"><ele>703.6</ele><time>2026-04-25T08:37:20.999Z</time></trkpt><trkpt lat="36.747685468592316" lon="-5.145996190904002"><ele>703.2</ele><time>2026-04-25T08:37:21.999Z</time></trkpt><trkpt lat="36.747583744102826" lon="-5.145927964854001"><ele>702.8000000000001</ele><time>2026-04-25T08:37:22.999Z</time></trkpt><trkpt lat="36.74751316700699" lon="-5.145826857653859"><ele>702.4000000000001</ele><time>2026-04-25T08:37:23.999Z</time></trkpt><trkpt lat="36.747478511607255" lon="-5.145692759404568"><ele>702.0</ele><time>2026-04-25T08:37:24.999Z</time></trkpt><trkpt lat="36.74741179840518" lon="-5.145588264760029"><ele>702.0</ele><time>2026-04-25T08:37:25.999Z</time></trkpt><trkpt lat="36.7473201766954" lon="-5.145507625225012"><ele>702.0</ele><time>2026-04-25T08:37:26.999Z</time></trkpt><trkpt lat="36.747211402421016" lon="-5.145449073333713"><ele>702.0</ele><time>2026-04-25T08:37:27.999Z</time></trkpt><trkpt lat="36.74708971383462" lon="-5.145402466252214"><ele>702.0</ele><time>2026-04-25T08:37:28.999Z</time></trkpt><trkpt lat="36.74696627924194" lon="-5.14535945389087"><ele>702.25</ele><time>2026-04-25T08:37:29.999Z</time></trkpt><trkpt lat="36.74683637256271" lon="-5.1453403431199956"><ele>702.5</ele><time>2026-04-25T08:37:30.999Z</time></trkpt><trkpt lat="36.746697797495884" lon="-5.145350050123796"><ele>702.75</ele><time>2026-04-25T08:37:31.999Z</time></trkpt><trkpt lat="36.74656174618702" lon="-5.145346605649634"><ele>703.0</ele><time>2026-04-25T08:37:32.999Z</time></trkpt><trkpt lat="36.746418113003045" lon="-5.145412104705941"><ele>703.0</ele><time>2026-04-25T08:37:33.999Z</time></trkpt><trkpt lat="36.74628541178107" lon="-5.145446421442284"><ele>703.0</ele><time>2026-04-25T08:37:34.999Z</time></trkpt><trkpt lat="36.74615747159239" lon="-5.145480343584255"><ele>703.0</ele><time>2026-04-25T08:37:35.999Z</time></trkpt><trkpt lat="36.74602623148098" lon="-5.14551561923052"><ele>703.0</ele><time>2026-04-25T08:37:36.999Z</time></trkpt><trkpt lat="36.745884736021836" lon="-5.145552577060573"><ele>704.0</ele><time>2026-04-25T08:37:37.999Z</time></trkpt><trkpt lat="36.745733019706904" lon="-5.145599337163785"><ele>705.0</ele><time>2026-04-25T08:37:38.999Z</time></trkpt><trkpt lat="36.74557495220824" lon="-5.145662909798088"><ele>706.0</ele><time>2026-04-25T08:37:39.999Z</time></trkpt><trkpt lat="36.74541618830274" lon="-5.145741998550512"><ele>705.6666666666667</ele><time>2026-04-25T08:37:40.999Z</time></trkpt><trkpt lat="36.74527897860495" lon="-5.145851363744103"><ele>705.3333333333334</ele><time>2026-04-25T08:37:41.999Z</time></trkpt><trkpt lat="36.74510070392907" lon="-5.145923443117267"><ele>705.0</ele><time>2026-04-25T08:37:42.999Z</time></trkpt><trkpt lat="36.744925136689126" lon="-5.145998479661541"><ele>705.0</ele><time>2026-04-25T08:37:43.999Z</time></trkpt><trkpt lat="36.74477354286796" lon="-5.146090553943146"><ele>705.0</ele><time>2026-04-25T08:37:44.999Z</time></trkpt><trkpt lat="36.744613834251304" lon="-5.14618750160844"><ele>705.0</ele><time>2026-04-25T08:37:45.999Z</time></trkpt><trkpt lat="36.74444665894762" lon="-5.1462864791231455"><ele>706.0</ele><time>2026-04-25T08:37:46.999Z</time></trkpt><trkpt lat="36.74428380967194" lon="-5.146391094187811"><ele>707.0</ele><time>2026-04-25T08:37:47.999Z</time></trkpt><trkpt lat="36.744126750327695" lon="-5.146489478356343"><ele>708.0</ele><time>2026-04-25T08:37:48.999Z</time></trkpt><trkpt lat="36.743974224370405" lon="-5.146597266835491"><ele>706.3333333333334</ele><time>2026-04-25T08:37:49.999Z</time></trkpt><trkpt lat="36.74381846219299" lon="-5.146705312951625"><ele>704.6666666666667</ele><time>2026-04-25T08:37:50.999Z</time></trkpt><trkpt lat="36.74365604486314" lon="-5.1468085223002955"><ele>703.0</ele><time>2026-04-25T08:37:51.999Z</time></trkpt><trkpt lat="36.743490698969396" lon="-5.146925968635383"><ele>703.0</ele><time>2026-04-25T08:37:52.999Z</time></trkpt><trkpt lat="36.743348818504266" lon="-5.147002950987777"><ele>703.0</ele><time>2026-04-25T08:37:53.999Z</time></trkpt><trkpt lat="36.743204426224004" lon="-5.147095328231904"><ele>703.0</ele><time>2026-04-25T08:37:54.999Z</time></trkpt><trkpt lat="36.743070151235734" lon="-5.147183718931951"><ele>703.0</ele><time>2026-04-25T08:37:55.999Z</time></trkpt><trkpt lat="36.74293209715251" lon="-5.147270014312667"><ele>703.0</ele><time>2026-04-25T08:37:56.999Z</time></trkpt><trkpt lat="36.74279841529017" lon="-5.147352334554373"><ele>703.0</ele><time>2026-04-25T08:37:57.999Z</time></trkpt><trkpt lat="36.742666299862755" lon="-5.147429706445138"><ele>703.0</ele><time>2026-04-25T08:37:58.999Z</time></trkpt><trkpt lat="36.74253024666737" lon="-5.147510511143018"><ele>704.3333333333334</ele><time>2026-04-25T08:37:59.999Z</time></trkpt><trkpt lat="36.74239361802156" lon="-5.147584534611503"><ele>705.6666666666666</ele><time>2026-04-25T08:38:00.999Z</time></trkpt><trkpt lat="36.74225762636123" lon="-5.147664304083854"><ele>707.0</ele><time>2026-04-25T08:38:01.999Z</time></trkpt><trkpt lat="36.74211612902309" lon="-5.147743764719663"><ele>707.0</ele><time>2026-04-25T08:38:02.999Z</time></trkpt><trkpt lat="36.74197536030348" lon="-5.147812071621892"><ele>707.0</ele><time>2026-04-25T08:38:03.999Z</time></trkpt><trkpt lat="36.741841409571286" lon="-5.14788842142226"><ele>707.0</ele><time>2026-04-25T08:38:04.999Z</time></trkpt><trkpt lat="36.741702531011605" lon="-5.147949488401429"><ele>707.0</ele><time>2026-04-25T08:38:05.999Z</time></trkpt><trkpt lat="36.74156110204654" lon="-5.148009842186803"><ele>706.6666666666666</ele><time>2026-04-25T08:38:06.999Z</time></trkpt><trkpt lat="36.741416954844034" lon="-5.148068289815842"><ele>706.3333333333334</ele><time>2026-04-25T08:38:07.999Z</time></trkpt><trkpt lat="36.74126284716667" lon="-5.148127197338542"><ele>706.0</ele><time>2026-04-25T08:38:08.999Z</time></trkpt><trkpt lat="36.74110427730264" lon="-5.148185335911657"><ele>703.3333333333334</ele><time>2026-04-25T08:38:09.999Z</time></trkpt><trkpt lat="36.740943846122214" lon="-5.148245957828243"><ele>700.6666666666666</ele><time>2026-04-25T08:38:10.999Z</time></trkpt><trkpt lat="36.740772851506804" lon="-5.148300589414897"><ele>698.0</ele><time>2026-04-25T08:38:11.999Z</time></trkpt><trkpt lat="36.74060219430664" lon="-5.148352159312353"><ele>698.0</ele><time>2026-04-25T08:38:12.999Z</time></trkpt><trkpt lat="36.7404232001999" lon="-5.148388254129126"><ele>698.0</ele><time>2026-04-25T08:38:13.999Z</time></trkpt><trkpt lat="36.74024086540613" lon="-5.148435381173018"><ele>698.0</ele><time>2026-04-25T08:38:14.999Z</time></trkpt><trkpt lat="36.7400640914638" lon="-5.1484784471131215"><ele>698.0</ele><time>2026-04-25T08:38:15.999Z</time></trkpt><trkpt lat="36.73988724943904" lon="-5.148512561032784"><ele>698.0</ele><time>2026-04-25T08:38:16.999Z</time></trkpt><trkpt lat="36.739701251059735" lon="-5.148536748926193"><ele>698.0</ele><time>2026-04-25T08:38:17.999Z</time></trkpt><trkpt lat="36.739514369583375" lon="-5.1485489803649145"><ele>696.0</ele><time>2026-04-25T08:38:18.999Z</time></trkpt><trkpt lat="36.73932388729897" lon="-5.148566050136749"><ele>694.0</ele><time>2026-04-25T08:38:19.999Z</time></trkpt><trkpt lat="36.73913299890314" lon="-5.148576785474324"><ele>692.0</ele><time>2026-04-25T08:38:20.999Z</time></trkpt><trkpt lat="36.7389372827984" lon="-5.14857817590477"><ele>692.0</ele><time>2026-04-25T08:38:21.999Z</time></trkpt><trkpt lat="36.73874458839513" lon="-5.148577796935036"><ele>692.0</ele><time>2026-04-25T08:38:22.999Z</time></trkpt><trkpt lat="36.73855005906707" lon="-5.14856469238679"><ele>692.0</ele><time>2026-04-25T08:38:23.999Z</time></trkpt><trkpt lat="36.7383697735428" lon="-5.148551835284249"><ele>689.6666666666666</ele><time>2026-04-25T08:38:24.999Z</time></trkpt><trkpt lat="36.73819111994091" lon="-5.148532079781387"><ele>687.3333333333334</ele><time>2026-04-25T08:38:25.999Z</time></trkpt><trkpt lat="36.73800361681823" lon="-5.148503701142314"><ele>685.0</ele><time>2026-04-25T08:38:26.999Z</time></trkpt><trkpt lat="36.737813819938154" lon="-5.148474695924255"><ele>684.3333333333334</ele><time>2026-04-25T08:38:27.999Z</time></trkpt><trkpt lat="36.73762012116191" lon="-5.148443026184326"><ele>683.6666666666666</ele><time>2026-04-25T08:38:28.999Z</time></trkpt><trkpt lat="36.737429994480706" lon="-5.14840825016793"><ele>683.0</ele><time>2026-04-25T08:38:29.999Z</time></trkpt><trkpt lat="36.73724390899804" lon="-5.148374476087724"><ele>683.0</ele><time>2026-04-25T08:38:30.999Z</time></trkpt><trkpt lat="36.737055385789276" lon="-5.14833123213872"><ele>683.0</ele><time>2026-04-25T08:38:31.999Z</time></trkpt><trkpt lat="36.73687095681698" lon="-5.148280709511081"><ele>683.0</ele><time>2026-04-25T08:38:32.999Z</time></trkpt><trkpt lat="36.736678023566284" lon="-5.148226367485034"><ele>681.0</ele><time>2026-04-25T08:38:33.999Z</time></trkpt><trkpt lat="36.736496756408386" lon="-5.148165572264236"><ele>679.0</ele><time>2026-04-25T08:38:34.999Z</time></trkpt><trkpt lat="36.73631020874764" lon="-5.148100613033504"><ele>677.0</ele><time>2026-04-25T08:38:35.999Z</time></trkpt><trkpt lat="36.73612888120758" lon="-5.148027472062254"><ele>679.3333333333333</ele><time>2026-04-25T08:38:36.999Z</time></trkpt><trkpt lat="36.735969865587734" lon="-5.14795959750943"><ele>681.6666666666666</ele><time>2026-04-25T08:38:37.999Z</time></trkpt><trkpt lat="36.73578594781165" lon="-5.147870616550151"><ele>684.0</ele><time>2026-04-25T08:38:38.999Z</time></trkpt><trkpt lat="36.73560845849172" lon="-5.1477896363592865"><ele>684.0</ele><time>2026-04-25T08:38:39.999Z</time></trkpt><trkpt lat="36.73543275638398" lon="-5.147714050999365"><ele>684.0</ele><time>2026-04-25T08:38:40.999Z</time></trkpt><trkpt lat="36.735260875618586" lon="-5.147638068080349"><ele>684.0</ele><time>2026-04-25T08:38:41.999Z</time></trkpt><trkpt lat="36.73508420574063" lon="-5.147559267132198"><ele>685.3333333333334</ele><time>2026-04-25T08:38:42.999Z</time></trkpt><trkpt lat="36.734903653785636" lon="-5.147501665833209"><ele>686.6666666666667</ele><time>2026-04-25T08:38:43.999Z</time></trkpt><trkpt lat="36.734729275231494" lon="-5.147413381763359"><ele>688.0</ele><time>2026-04-25T08:38:44.999Z</time></trkpt><trkpt lat="36.73454774324302" lon="-5.147340607050483"><ele>690.6666666666667</ele><time>2026-04-25T08:38:45.999Z</time></trkpt><trkpt lat="36.73436534900888" lon="-5.147270278940742"><ele>693.3333333333334</ele><time>2026-04-25T08:38:46.999Z</time></trkpt><trkpt lat="36.73418004825095" lon="-5.147216210822384"><ele>696.0</ele><time>2026-04-25T08:38:47.999Z</time></trkpt><trkpt lat="36.73399626122798" lon="-5.147170298125134"><ele>696.0</ele><time>2026-04-25T08:38:48.999Z</time></trkpt><trkpt lat="36.73380689357285" lon="-5.147129279773163"><ele>696.0</ele><time>2026-04-25T08:38:49.999Z</time></trkpt><trkpt lat="36.73361851305347" lon="-5.147098419941515"><ele>696.0</ele><time>2026-04-25T08:38:50.999Z</time></trkpt><trkpt lat="36.733430140015514" lon="-5.147068651293847"><ele>697.6666666666666</ele><time>2026-04-25T08:38:51.999Z</time></trkpt><trkpt lat="36.733238886317665" lon="-5.147060085395433"><ele>699.3333333333333</ele><time>2026-04-25T08:38:52.999Z</time></trkpt><trkpt lat="36.73304341077118" lon="-5.147058375565386"><ele>701.0</ele><time>2026-04-25T08:38:53.999Z</time></trkpt><trkpt lat="36.73284468392449" lon="-5.147071283355078"><ele>701.3333333333333</ele><time>2026-04-25T08:38:54.999Z</time></trkpt><trkpt lat="36.73264866960976" lon="-5.147094133302621"><ele>701.6666666666666</ele><time>2026-04-25T08:38:55.999Z</time></trkpt><trkpt lat="36.73244433152113" lon="-5.1471201471877155"><ele>702.0</ele><time>2026-04-25T08:38:56.999Z</time></trkpt><trkpt lat="36.732238103330324" lon="-5.147149733184741"><ele>702.0</ele><time>2026-04-25T08:38:57.999Z</time></trkpt><trkpt lat="36.73203250560815" lon="-5.147185493143174"><ele>702.0</ele><time>2026-04-25T08:38:58.999Z</time></trkpt><trkpt lat="36.731833354773045" lon="-5.147222251309526"><ele>702.0</ele><time>2026-04-25T08:38:59.999Z</time></trkpt><trkpt lat="36.73164626750756" lon="-5.147229998578101"><ele>702.3333333333334</ele><time>2026-04-25T08:39:00.999Z</time></trkpt><trkpt lat="36.73147543181374" lon="-5.147238786765677"><ele>702.6666666666667</ele><time>2026-04-25T08:39:02Z</time></trkpt><trkpt lat="36.73128891774442" lon="-5.147269997827016"><ele>703.0</ele><time>2026-04-25T08:39:03Z</time></trkpt><trkpt lat="36.73109579563454" lon="-5.147305329101912"><ele>705.0</ele><time>2026-04-25T08:39:04Z</time></trkpt><trkpt lat="36.73090383206655" lon="-5.147360141174591"><ele>707.0</ele><time>2026-04-25T08:39:05Z</time></trkpt><trkpt lat="36.73071012158786" lon="-5.147390975082689"><ele>709.0</ele><time>2026-04-25T08:39:06Z</time></trkpt><trkpt lat="36.73051744354139" lon="-5.147416952119092"><ele>709.0</ele><time>2026-04-25T08:39:07Z</time></trkpt><trkpt lat="36.73032433921598" lon="-5.147437064119973"><ele>709.0</ele><time>2026-04-25T08:39:08Z</time></trkpt><trkpt lat="36.73012930779714" lon="-5.147448831301674"><ele>709.0</ele><time>2026-04-25T08:39:09Z</time></trkpt><trkpt lat="36.72993444706754" lon="-5.1474561925035545"><ele>711.3333333333334</ele><time>2026-04-25T08:39:10Z</time></trkpt><trkpt lat="36.7297423151442" lon="-5.147462315374623"><ele>713.6666666666666</ele><time>2026-04-25T08:39:11Z</time></trkpt><trkpt lat="36.729553990431775" lon="-5.147455853451464"><ele>716.0</ele><time>2026-04-25T08:39:12Z</time></trkpt><trkpt lat="36.72935621721413" lon="-5.147457716090706"><ele>717.0</ele><time>2026-04-25T08:39:13Z</time></trkpt><trkpt lat="36.729154741588005" lon="-5.147445180990533"><ele>718.0</ele><time>2026-04-25T08:39:14Z</time></trkpt><trkpt lat="36.72893766098936" lon="-5.14744657223732"><ele>719.0</ele><time>2026-04-25T08:39:15Z</time></trkpt><trkpt lat="36.72873134011032" lon="-5.147428436850821"><ele>719.3333333333333</ele><time>2026-04-25T08:39:16Z</time></trkpt><trkpt lat="36.728516989319566" lon="-5.14739728936753"><ele>719.6666666666666</ele><time>2026-04-25T08:39:17Z</time></trkpt><trkpt lat="36.72830374967921" lon="-5.147353093334073"><ele>720.0</ele><time>2026-04-25T08:39:18Z</time></trkpt><trkpt lat="36.72810154718547" lon="-5.147319473248572"><ele>722.0</ele><time>2026-04-25T08:39:19Z</time></trkpt><trkpt lat="36.727898475121314" lon="-5.147279630109093"><ele>724.0</ele><time>2026-04-25T08:39:20Z</time></trkpt><trkpt lat="36.72769317255344" lon="-5.147257289167213"><ele>726.0</ele><time>2026-04-25T08:39:21Z</time></trkpt><trkpt lat="36.72749442846265" lon="-5.147188184677659"><ele>726.6666666666666</ele><time>2026-04-25T08:39:22Z</time></trkpt><trkpt lat="36.72729044406961" lon="-5.147135567913816"><ele>727.3333333333333</ele><time>2026-04-25T08:39:23Z</time></trkpt><trkpt lat="36.72708929261317" lon="-5.1470743913504995"><ele>728.0</ele><time>2026-04-25T08:39:24Z</time></trkpt><trkpt lat="36.726887729581975" lon="-5.147011156077542"><ele>729.0</ele><time>2026-04-25T08:39:25Z</time></trkpt><trkpt lat="36.72668915552709" lon="-5.1469442611637515"><ele>730.0</ele><time>2026-04-25T08:39:26Z</time></trkpt><trkpt lat="36.72649730886131" lon="-5.14687644621503"><ele>731.0</ele><time>2026-04-25T08:39:27Z</time></trkpt><trkpt lat="36.72631056340916" lon="-5.146808508730056"><ele>731.0</ele><time>2026-04-25T08:39:28Z</time></trkpt><trkpt lat="36.72613788728005" lon="-5.146748676901999"><ele>731.0</ele><time>2026-04-25T08:39:29Z</time></trkpt><trkpt lat="36.72596957986978" lon="-5.146686997486126"><ele>731.0</ele><time>2026-04-25T08:39:30Z</time></trkpt><trkpt lat="36.72580141529222" lon="-5.146628447585742"><ele>731.6666666666666</ele><time>2026-04-25T08:39:31Z</time></trkpt><trkpt lat="36.72563509936781" lon="-5.146571500536821"><ele>732.3333333333334</ele><time>2026-04-25T08:39:32Z</time></trkpt><trkpt lat="36.725470391632356" lon="-5.146515520955055"><ele>733.0</ele><time>2026-04-25T08:39:33Z</time></trkpt><trkpt lat="36.72530546565546" lon="-5.146458874012053"><ele>734.6666666666667</ele><time>2026-04-25T08:39:34Z</time></trkpt><trkpt lat="36.72513602108215" lon="-5.146403367999574"><ele>736.3333333333334</ele><time>2026-04-25T08:39:35Z</time></trkpt><trkpt lat="36.724964822909435" lon="-5.146353564742955"><ele>738.0</ele><time>2026-04-25T08:39:36Z</time></trkpt><trkpt lat="36.72479249436503" lon="-5.146304758386916"><ele>738.0</ele><time>2026-04-25T08:39:37Z</time></trkpt><trkpt lat="36.72461437516691" lon="-5.146256275703086"><ele>738.0</ele><time>2026-04-25T08:39:38Z</time></trkpt><trkpt lat="36.72443383664387" lon="-5.1462067095696264"><ele>738.0</ele><time>2026-04-25T08:39:39Z</time></trkpt><trkpt lat="36.72424559179338" lon="-5.146154942447406"><ele>739.0</ele><time>2026-04-25T08:39:40Z</time></trkpt><trkpt lat="36.724053988637905" lon="-5.146108083359"><ele>740.0</ele><time>2026-04-25T08:39:41Z</time></trkpt><trkpt lat="36.723861970213726" lon="-5.146061223871873"><ele>741.0</ele><time>2026-04-25T08:39:42Z</time></trkpt><trkpt lat="36.72366730325421" lon="-5.146015347572101"><ele>742.6666666666666</ele><time>2026-04-25T08:39:43Z</time></trkpt><trkpt lat="36.72347015955567" lon="-5.145977282794358"><ele>744.3333333333333</ele><time>2026-04-25T08:39:44Z</time></trkpt><trkpt lat="36.72327055592259" lon="-5.1459361164551485"><ele>746.0</ele><time>2026-04-25T08:39:45Z</time></trkpt><trkpt lat="36.72307091505912" lon="-5.145893064867041"><ele>746.0</ele><time>2026-04-25T08:39:46Z</time></trkpt><trkpt lat="36.72286943885234" lon="-5.145848895137062"><ele>746.0</ele><time>2026-04-25T08:39:47Z</time></trkpt><trkpt lat="36.72266721653467" lon="-5.145805499373296"><ele>746.0</ele><time>2026-04-25T08:39:48Z</time></trkpt><trkpt lat="36.72246755587845" lon="-5.145767510611357"><ele>745.6666666666666</ele><time>2026-04-25T08:39:49Z</time></trkpt><trkpt lat="36.72227841801795" lon="-5.145737527150574"><ele>745.3333333333334</ele><time>2026-04-25T08:39:50Z</time></trkpt><trkpt lat="36.72210022410128" lon="-5.1456954332618015"><ele>745.0</ele><time>2026-04-25T08:39:51Z</time></trkpt><trkpt lat="36.72192181631838" lon="-5.145631682160406"><ele>744.0</ele><time>2026-04-25T08:39:52Z</time></trkpt><trkpt lat="36.72174545478673" lon="-5.145564152486118"><ele>743.0</ele><time>2026-04-25T08:39:53Z</time></trkpt><trkpt lat="36.72157540606403" lon="-5.145468750634178"><ele>742.0</ele><time>2026-04-25T08:39:54Z</time></trkpt><trkpt lat="36.721411811604284" lon="-5.1453741722631845"><ele>742.0</ele><time>2026-04-25T08:39:55Z</time></trkpt><trkpt lat="36.72124829639244" lon="-5.145256036842013"><ele>742.0</ele><time>2026-04-25T08:39:56Z</time></trkpt><trkpt lat="36.72110058847177" lon="-5.145122766219634"><ele>742.0</ele><time>2026-04-25T08:39:57Z</time></trkpt><trkpt lat="36.72096331667221" lon="-5.144966037206451"><ele>741.6666666666667</ele><time>2026-04-25T08:39:58Z</time></trkpt><trkpt lat="36.72084008546559" lon="-5.144791087748689"><ele>741.3333333333334</ele><time>2026-04-25T08:39:58.999Z</time></trkpt><trkpt lat="36.72073188064623" lon="-5.144595861165315"><ele>741.0</ele><time>2026-04-25T08:39:59.999Z</time></trkpt><trkpt lat="36.72063442290725" lon="-5.1443881307208486"><ele>741.0</ele><time>2026-04-25T08:40:00.999Z</time></trkpt><trkpt lat="36.72055463520514" lon="-5.14416936462559"><ele>741.0</ele><time>2026-04-25T08:40:01.999Z</time></trkpt><trkpt lat="36.72049039521417" lon="-5.143944237136874"><ele>741.0</ele><time>2026-04-25T08:40:02.999Z</time></trkpt><trkpt lat="36.720448231665735" lon="-5.143713609041896"><ele>742.6666666666666</ele><time>2026-04-25T08:40:03.999Z</time></trkpt><trkpt lat="36.72040696161735" lon="-5.143469306819258"><ele>744.3333333333333</ele><time>2026-04-25T08:40:04.999Z</time></trkpt><trkpt lat="36.72036539187603" lon="-5.143229338542992"><ele>746.0</ele><time>2026-04-25T08:40:05.999Z</time></trkpt><trkpt lat="36.720317702441974" lon="-5.142992062505852"><ele>746.0</ele><time>2026-04-25T08:40:06.999Z</time></trkpt><trkpt lat="36.7202694402879" lon="-5.142768418593466"><ele>746.0</ele><time>2026-04-25T08:40:07.999Z</time></trkpt><trkpt lat="36.720212897677015" lon="-5.142553769382232"><ele>746.0</ele><time>2026-04-25T08:40:08.999Z</time></trkpt><trkpt lat="36.720162505795685" lon="-5.142357587240142"><ele>750.6666666666666</ele><time>2026-04-25T08:40:09.999Z</time></trkpt><trkpt lat="36.720121483861654" lon="-5.142168610880919"><ele>755.3333333333334</ele><time>2026-04-25T08:40:10.999Z</time></trkpt><trkpt lat="36.72006506056733" lon="-5.141965496266544"><ele>760.0</ele><time>2026-04-25T08:40:11.999Z</time></trkpt><trkpt lat="36.720025659024785" lon="-5.141760957573282"><ele>760.0</ele><time>2026-04-25T08:40:12.999Z</time></trkpt><trkpt lat="36.719967160162746" lon="-5.141557302090425"><ele>760.0</ele><time>2026-04-25T08:40:13.999Z</time></trkpt><trkpt lat="36.71990316018206" lon="-5.141347654694869"><ele>760.0</ele><time>2026-04-25T08:40:14.999Z</time></trkpt><trkpt lat="36.71983311758748" lon="-5.141147714884733"><ele>759.6666666666667</ele><time>2026-04-25T08:40:15.999Z</time></trkpt><trkpt lat="36.719736495083275" lon="-5.140954709576625"><ele>759.3333333333334</ele><time>2026-04-25T08:40:16.999Z</time></trkpt><trkpt lat="36.719624276295306" lon="-5.140770580665253"><ele>759.0</ele><time>2026-04-25T08:40:17.999Z</time></trkpt><trkpt lat="36.7195044026943" lon="-5.140598806664263"><ele>759.6666666666666</ele><time>2026-04-25T08:40:18.999Z</time></trkpt><trkpt lat="36.71938399057677" lon="-5.1404334025215475"><ele>760.3333333333333</ele><time>2026-04-25T08:40:19.999Z</time></trkpt><trkpt lat="36.71924590048321" lon="-5.140279022032725"><ele>761.0</ele><time>2026-04-25T08:40:20.999Z</time></trkpt><trkpt lat="36.71910584537272" lon="-5.140148918211241"><ele>761.0</ele><time>2026-04-25T08:40:21.999Z</time></trkpt><trkpt lat="36.718960822055074" lon="-5.140034826846715"><ele>761.0</ele><time>2026-04-25T08:40:22.999Z</time></trkpt><trkpt lat="36.7187936052332" lon="-5.139933200177373"><ele>761.0</ele><time>2026-04-25T08:40:23.999Z</time></trkpt><trkpt lat="36.71861696838354" lon="-5.139844191300831"><ele>762.3333333333333</ele><time>2026-04-25T08:40:24.999Z</time></trkpt><trkpt lat="36.71842738017511" lon="-5.13976136734542"><ele>763.6666666666666</ele><time>2026-04-25T08:40:25.999Z</time></trkpt><trkpt lat="36.71822730387026" lon="-5.139695484889392"><ele>765.0</ele><time>2026-04-25T08:40:26.999Z</time></trkpt><trkpt lat="36.71802361368527" lon="-5.139633994009118"><ele>765.0</ele><time>2026-04-25T08:40:27.999Z</time></trkpt><trkpt lat="36.717816136828226" lon="-5.1395775753046635"><ele>765.0</ele><time>2026-04-25T08:40:28.999Z</time></trkpt><trkpt lat="36.71761674919823" lon="-5.139523649349959"><ele>765.0</ele><time>2026-04-25T08:40:29.999Z</time></trkpt><trkpt lat="36.71742421122106" lon="-5.139468847316959"><ele>767.6666666666667</ele><time>2026-04-25T08:40:30.999Z</time></trkpt><trkpt lat="36.71723826357453" lon="-5.1394169719738905"><ele>770.3333333333334</ele><time>2026-04-25T08:40:31.999Z</time></trkpt><trkpt lat="36.71705632258101" lon="-5.139361055366105"><ele>773.0</ele><time>2026-04-25T08:40:32.999Z</time></trkpt><trkpt lat="36.71687484822135" lon="-5.139329378189963"><ele>776.0</ele><time>2026-04-25T08:40:33.999Z</time></trkpt><trkpt lat="36.71669642010865" lon="-5.139279772648051"><ele>779.0</ele><time>2026-04-25T08:40:34.999Z</time></trkpt><trkpt lat="36.71652329082174" lon="-5.13921198276894"><ele>782.0</ele><time>2026-04-25T08:40:35.999Z</time></trkpt><trkpt lat="36.71633964531569" lon="-5.139178814334112"><ele>782.0</ele><time>2026-04-25T08:40:36.999Z</time></trkpt><trkpt lat="36.71616148752428" lon="-5.139111860454065"><ele>782.0</ele><time>2026-04-25T08:40:37.999Z</time></trkpt><trkpt lat="36.715979927941014" lon="-5.139065427252961"><ele>782.0</ele><time>2026-04-25T08:40:38.999Z</time></trkpt><trkpt lat="36.71579763443118" lon="-5.139017169389266"><ele>783.0</ele><time>2026-04-25T08:40:39.999Z</time></trkpt><trkpt lat="36.71561498390014" lon="-5.138961132183017"><ele>784.0</ele><time>2026-04-25T08:40:40.999Z</time></trkpt><trkpt lat="36.71543184669793" lon="-5.138889558046604"><ele>785.0</ele><time>2026-04-25T08:40:41.999Z</time></trkpt><trkpt lat="36.715250102462065" lon="-5.138805105883769"><ele>789.3333333333334</ele><time>2026-04-25T08:40:42.999Z</time></trkpt><trkpt lat="36.715073327712076" lon="-5.138701063477073"><ele>793.6666666666667</ele><time>2026-04-25T08:40:43.999Z</time></trkpt><trkpt lat="36.71490720026544" lon="-5.138569022481047"><ele>798.0</ele><time>2026-04-25T08:40:44.999Z</time></trkpt><trkpt lat="36.71475119723188" lon="-5.13840712948807"><ele>798.0</ele><time>2026-04-25T08:40:45.999Z</time></trkpt><trkpt lat="36.71459649031046" lon="-5.138234594738755"><ele>798.0</ele><time>2026-04-25T08:40:46.999Z</time></trkpt><trkpt lat="36.71446058009036" lon="-5.138026072271234"><ele>798.0</ele><time>2026-04-25T08:40:47.999Z</time></trkpt><trkpt lat="36.71433750994806" lon="-5.13778241717448"><ele>801.0</ele><time>2026-04-25T08:40:48.999Z</time></trkpt><trkpt lat="36.71423195379688" lon="-5.137519736612038"><ele>804.0</ele><time>2026-04-25T08:40:49.999Z</time></trkpt><trkpt lat="36.71413515421512" lon="-5.137252555091687"><ele>804.5</ele><time>2026-04-25T08:40:50.999Z</time></trkpt><trkpt lat="36.71405032728365" lon="-5.13697604152068"><ele>805.0</ele><time>2026-04-25T08:40:51.999Z</time></trkpt><trkpt lat="36.713987062655924" lon="-5.136707378812428"><ele>805.6666666666666</ele><time>2026-04-25T08:40:52.999Z</time></trkpt><trkpt lat="36.713961930914905" lon="-5.136480551623618"><ele>806.3333333333333</ele><time>2026-04-25T08:40:53.999Z</time></trkpt><trkpt lat="36.71392099988336" lon="-5.136242952566993"><ele>807.0</ele><time>2026-04-25T08:40:54.999Z</time></trkpt><trkpt lat="36.71389654473252" lon="-5.136005506286382"><ele>807.0</ele><time>2026-04-25T08:40:55.999Z</time></trkpt><trkpt lat="36.713882972546656" lon="-5.135775528833454"><ele>807.0</ele><time>2026-04-25T08:40:56.999Z</time></trkpt><trkpt lat="36.713878129960115" lon="-5.135544635330296"><ele>807.0</ele><time>2026-04-25T08:40:57.999Z</time></trkpt><trkpt lat="36.71388524910842" lon="-5.135308140562976"><ele>807.6666666666667</ele><time>2026-04-25T08:40:58.999Z</time></trkpt><trkpt lat="36.71389204644242" lon="-5.135072770534501"><ele>808.3333333333334</ele><time>2026-04-25T08:40:59.999Z</time></trkpt><trkpt lat="36.71389630970332" lon="-5.134856583878464"><ele>809.0</ele><time>2026-04-25T08:41:00.999Z</time></trkpt><trkpt lat="36.71389750818682" lon="-5.1346568251624785"><ele>810.0</ele><time>2026-04-25T08:41:01.999Z</time></trkpt><trkpt lat="36.71388278984933" lon="-5.134446721920264"><ele>811.0</ele><time>2026-04-25T08:41:02.999Z</time></trkpt><trkpt lat="36.713855867444984" lon="-5.134239773566599"><ele>812.0</ele><time>2026-04-25T08:41:03.999Z</time></trkpt><trkpt lat="36.71380238906939" lon="-5.134038983317739"><ele>812.0</ele><time>2026-04-25T08:41:04.999Z</time></trkpt><trkpt lat="36.71373870245693" lon="-5.13384967368356"><ele>812.0</ele><time>2026-04-25T08:41:05.999Z</time></trkpt><trkpt lat="36.71366197542022" lon="-5.133667165486536"><ele>812.0</ele><time>2026-04-25T08:41:06.999Z</time></trkpt><trkpt lat="36.713567431225535" lon="-5.133485209978769"><ele>819.0</ele><time>2026-04-25T08:41:08Z</time></trkpt><trkpt lat="36.71346761579252" lon="-5.133300740366747"><ele>826.0</ele><time>2026-04-25T08:41:09Z</time></trkpt><trkpt lat="36.71336825885861" lon="-5.133116389084974"><ele>833.0</ele><time>2026-04-25T08:41:10Z</time></trkpt><trkpt lat="36.71325255089877" lon="-5.132942891125134"><ele>833.0</ele><time>2026-04-25T08:41:11Z</time></trkpt><trkpt lat="36.713150264535976" lon="-5.132764766589378"><ele>833.0</ele><time>2026-04-25T08:41:12Z</time></trkpt><trkpt lat="36.713043050565275" lon="-5.13257898874989"><ele>833.0</ele><time>2026-04-25T08:41:13Z</time></trkpt><trkpt lat="36.71293744713748" lon="-5.132391326811478"><ele>839.0</ele><time>2026-04-25T08:41:14Z</time></trkpt><trkpt lat="36.71283227372813" lon="-5.132204169431884"><ele>845.0</ele><time>2026-04-25T08:41:15Z</time></trkpt><trkpt lat="36.71274070466149" lon="-5.132012100623098"><ele>851.0</ele><time>2026-04-25T08:41:16Z</time></trkpt><trkpt lat="36.712634739827585" lon="-5.131841560043331"><ele>852.3333333333334</ele><time>2026-04-25T08:41:17Z</time></trkpt><trkpt lat="36.71252782542597" lon="-5.131686146576741"><ele>853.6666666666667</ele><time>2026-04-25T08:41:18Z</time></trkpt><trkpt lat="36.71241540759037" lon="-5.131542513443196"><ele>855.0</ele><time>2026-04-25T08:41:19Z</time></trkpt><trkpt lat="36.71228919967943" lon="-5.131414621753955"><ele>857.0</ele><time>2026-04-25T08:41:20Z</time></trkpt><trkpt lat="36.712138738804015" lon="-5.131312555852328"><ele>859.0</ele><time>2026-04-25T08:41:21Z</time></trkpt><trkpt lat="36.71197967226069" lon="-5.131231994628141"><ele>861.0</ele><time>2026-04-25T08:41:22Z</time></trkpt><trkpt lat="36.71181312003229" lon="-5.131158249578846"><ele>861.0</ele><time>2026-04-25T08:41:23Z</time></trkpt><trkpt lat="36.711636140503394" lon="-5.131113085425985"><ele>861.0</ele><time>2026-04-25T08:41:24Z</time></trkpt><trkpt lat="36.711455981142635" lon="-5.131090714873925"><ele>861.0</ele><time>2026-04-25T08:41:25Z</time></trkpt><trkpt lat="36.71127453856177" lon="-5.131099998098746"><ele>861.0</ele><time>2026-04-25T08:41:26Z</time></trkpt><trkpt lat="36.71110012128934" lon="-5.131135484592036"><ele>861.0</ele><time>2026-04-25T08:41:27Z</time></trkpt><trkpt lat="36.71092724942084" lon="-5.131199227147498"><ele>861.0</ele><time>2026-04-25T08:41:28Z</time></trkpt><trkpt lat="36.71077996775652" lon="-5.131271980854654"><ele>860.0</ele><time>2026-04-25T08:41:29Z</time></trkpt><trkpt lat="36.710615621378714" lon="-5.131394306347049"><ele>859.0</ele><time>2026-04-25T08:41:30Z</time></trkpt><trkpt lat="36.71048338964209" lon="-5.131506285466622"><ele>858.0</ele><time>2026-04-25T08:41:31Z</time></trkpt><trkpt lat="36.7103534225241" lon="-5.131680003941346"><ele>858.3333333333333</ele><time>2026-04-25T08:41:32Z</time></trkpt><trkpt lat="36.71022480919262" lon="-5.131839992953355"><ele>858.6666666666666</ele><time>2026-04-25T08:41:33Z</time></trkpt><trkpt lat="36.710107029239175" lon="-5.132013345692567"><ele>859.0</ele><time>2026-04-25T08:41:34Z</time></trkpt><trkpt lat="36.709991251342565" lon="-5.13215742739771"><ele>859.0</ele><time>2026-04-25T08:41:35Z</time></trkpt><trkpt lat="36.709884930676964" lon="-5.132302885792317"><ele>859.0</ele><time>2026-04-25T08:41:36Z</time></trkpt><trkpt lat="36.70978324450619" lon="-5.132449199631614"><ele>859.0</ele><time>2026-04-25T08:41:37Z</time></trkpt><trkpt lat="36.70967751977169" lon="-5.132586236828433"><ele>863.3333333333333</ele><time>2026-04-25T08:41:38Z</time></trkpt><trkpt lat="36.709552087428605" lon="-5.132713280684701"><ele>867.6666666666667</ele><time>2026-04-25T08:41:39Z</time></trkpt><trkpt lat="36.709410656881" lon="-5.132828592797684"><ele>872.0</ele><time>2026-04-25T08:41:40Z</time></trkpt><trkpt lat="36.709252278798566" lon="-5.132915865619341"><ele>872.0</ele><time>2026-04-25T08:41:41Z</time></trkpt><trkpt lat="36.70908082286234" lon="-5.13295739522697"><ele>872.0</ele><time>2026-04-25T08:41:42Z</time></trkpt><trkpt lat="36.708901994467745" lon="-5.132940733865113"><ele>872.0</ele><time>2026-04-25T08:41:43Z</time></trkpt><trkpt lat="36.7087160393482" lon="-5.1329061273341"><ele>877.0</ele><time>2026-04-25T08:41:44Z</time></trkpt><trkpt lat="36.70854938579221" lon="-5.132793408956595"><ele>882.0</ele><time>2026-04-25T08:41:45Z</time></trkpt><trkpt lat="36.70838636132103" lon="-5.132679534607275"><ele>887.0</ele><time>2026-04-25T08:41:46Z</time></trkpt><trkpt lat="36.70825707068336" lon="-5.132495758164118"><ele>887.0</ele><time>2026-04-25T08:41:47Z</time></trkpt><trkpt lat="36.70816486453954" lon="-5.132283069261562"><ele>887.0</ele><time>2026-04-25T08:41:48Z</time></trkpt><trkpt lat="36.7081012335143" lon="-5.132049789591029"><ele>887.0</ele><time>2026-04-25T08:41:49Z</time></trkpt><trkpt lat="36.70807963151262" lon="-5.131788992203842"><ele>890.0</ele><time>2026-04-25T08:41:50Z</time></trkpt><trkpt lat="36.70810652991086" lon="-5.1315328676020675"><ele>893.0</ele><time>2026-04-25T08:41:51Z</time></trkpt><trkpt lat="36.70810223152244" lon="-5.13127959038377"><ele>896.0</ele><time>2026-04-25T08:41:52Z</time></trkpt><trkpt lat="36.70809276616537" lon="-5.1310342066744274"><ele>896.0</ele><time>2026-04-25T08:41:53Z</time></trkpt><trkpt lat="36.708039054623555" lon="-5.130811066967376"><ele>896.0</ele><time>2026-04-25T08:41:54Z</time></trkpt><trkpt lat="36.70794446173792" lon="-5.130612959718937"><ele>896.0</ele><time>2026-04-25T08:41:55Z</time></trkpt><trkpt lat="36.70781311247834" lon="-5.130439458177849"><ele>895.0</ele><time>2026-04-25T08:41:56Z</time></trkpt><trkpt lat="36.707654916189824" lon="-5.1303097701207"><ele>894.0</ele><time>2026-04-25T08:41:57Z</time></trkpt><trkpt lat="36.70747999769511" lon="-5.130251039038469"><ele>893.0</ele><time>2026-04-25T08:41:58Z</time></trkpt><trkpt lat="36.70728245443763" lon="-5.130240692129637"><ele>893.0</ele><time>2026-04-25T08:41:59Z</time></trkpt><trkpt lat="36.70706508588881" lon="-5.130275544403358"><ele>893.0</ele><time>2026-04-25T08:42:00Z</time></trkpt><trkpt lat="36.706841495449" lon="-5.130327232696862"><ele>893.0</ele><time>2026-04-25T08:42:01Z</time></trkpt><trkpt lat="36.706622666177424" lon="-5.130371222105672"><ele>893.3333333333334</ele><time>2026-04-25T08:42:02Z</time></trkpt><trkpt lat="36.70640669320548" lon="-5.1304099766917775"><ele>893.6666666666667</ele><time>2026-04-25T08:42:03Z</time></trkpt><trkpt lat="36.70619408122117" lon="-5.130442761825867"><ele>894.0</ele><time>2026-04-25T08:42:04Z</time></trkpt><trkpt lat="36.70598424273704" lon="-5.130477789733568"><ele>894.0</ele><time>2026-04-25T08:42:05Z</time></trkpt><trkpt lat="36.705775715819975" lon="-5.130522262537654"><ele>894.0</ele><time>2026-04-25T08:42:06Z</time></trkpt><trkpt lat="36.70557676202729" lon="-5.130550678867295"><ele>894.0</ele><time>2026-04-25T08:42:07Z</time></trkpt><trkpt lat="36.70538376741275" lon="-5.130596340256624"><ele>896.0</ele><time>2026-04-25T08:42:08Z</time></trkpt><trkpt lat="36.7051894763696" lon="-5.130611953349826"><ele>898.0</ele><time>2026-04-25T08:42:09Z</time></trkpt><trkpt lat="36.704991938689" lon="-5.130573959042523"><ele>900.0</ele><time>2026-04-25T08:42:10Z</time></trkpt><trkpt lat="36.70479905833729" lon="-5.130492530000248"><ele>900.0</ele><time>2026-04-25T08:42:11Z</time></trkpt><trkpt lat="36.70461604456152" lon="-5.130375332307072"><ele>900.0</ele><time>2026-04-25T08:42:12Z</time></trkpt><trkpt lat="36.704447681410215" lon="-5.130225177465317"><ele>900.0</ele><time>2026-04-25T08:42:13Z</time></trkpt><trkpt lat="36.70429209571814" lon="-5.130046522643692"><ele>902.3333333333333</ele><time>2026-04-25T08:42:14Z</time></trkpt><trkpt lat="36.704151821163286" lon="-5.129847576100356"><ele>904.6666666666666</ele><time>2026-04-25T08:42:15Z</time></trkpt><trkpt lat="36.70401516348697" lon="-5.129643517011404"><ele>907.0</ele><time>2026-04-25T08:42:16Z</time></trkpt><trkpt lat="36.70387192197902" lon="-5.129443655271549"><ele>907.0</ele><time>2026-04-25T08:42:17Z</time></trkpt><trkpt lat="36.70373119123439" lon="-5.129244131215615"><ele>907.0</ele><time>2026-04-25T08:42:18Z</time></trkpt><trkpt lat="36.70358734366143" lon="-5.129041210396167"><ele>907.0</ele><time>2026-04-25T08:42:19Z</time></trkpt><trkpt lat="36.70344244480509" lon="-5.128840058195684"><ele>912.6666666666666</ele><time>2026-04-25T08:42:20Z</time></trkpt><trkpt lat="36.70329720573117" lon="-5.128638021327327"><ele>918.3333333333333</ele><time>2026-04-25T08:42:21Z</time></trkpt><trkpt lat="36.703152217483485" lon="-5.128434045063297"><ele>924.0</ele><time>2026-04-25T08:42:22Z</time></trkpt><trkpt lat="36.703013399729905" lon="-5.128234486673644"><ele>924.6666666666667</ele><time>2026-04-25T08:42:23Z</time></trkpt><trkpt lat="36.702881860132415" lon="-5.128044254230305"><ele>925.3333333333334</ele><time>2026-04-25T08:42:24Z</time></trkpt><trkpt lat="36.70276412188876" lon="-5.127884894503907"><ele>926.0</ele><time>2026-04-25T08:42:25Z</time></trkpt><trkpt lat="36.70266622689682" lon="-5.127742189210267"><ele>926.0</ele><time>2026-04-25T08:42:26Z</time></trkpt><trkpt lat="36.702578435512144" lon="-5.127623231757159"><ele>926.0</ele><time>2026-04-25T08:42:27Z</time></trkpt><trkpt lat="36.70249834132713" lon="-5.12751102930054"><ele>926.0</ele><time>2026-04-25T08:42:28Z</time></trkpt><trkpt lat="36.70241432642045" lon="-5.127392267061993"><ele>926.0</ele><time>2026-04-25T08:42:29Z</time></trkpt><trkpt lat="36.70232973047578" lon="-5.127265291386067"><ele>923.0</ele><time>2026-04-25T08:42:30Z</time></trkpt><trkpt lat="36.70224089021803" lon="-5.127133817643204"><ele>920.0</ele><time>2026-04-25T08:42:31Z</time></trkpt><trkpt lat="36.70215202870601" lon="-5.126996855872134"><ele>917.0</ele><time>2026-04-25T08:42:32Z</time></trkpt><trkpt lat="36.70206247586962" lon="-5.126855397771012"><ele>914.0</ele><time>2026-04-25T08:42:33Z</time></trkpt><trkpt lat="36.70197807829081" lon="-5.126713051316741"><ele>921.25</ele><time>2026-04-25T08:42:34Z</time></trkpt><trkpt lat="36.70190162999553" lon="-5.126561164993399"><ele>928.5</ele><time>2026-04-25T08:42:35Z</time></trkpt><trkpt lat="36.701842762131776" lon="-5.126392918588142"><ele>935.75</ele><time>2026-04-25T08:42:36Z</time></trkpt><trkpt lat="36.70179514200576" lon="-5.126213606262718"><ele>943.0</ele><time>2026-04-25T08:42:36.999Z</time></trkpt><trkpt lat="36.701768787947145" lon="-5.126014174940621"><ele>943.0</ele><time>2026-04-25T08:42:37.999Z</time></trkpt><trkpt lat="36.70174749688589" lon="-5.125802444293236"><ele>943.0</ele><time>2026-04-25T08:42:38.999Z</time></trkpt><trkpt lat="36.70172888678313" lon="-5.125594212058619"><ele>943.0</ele><time>2026-04-25T08:42:39.999Z</time></trkpt><trkpt lat="36.70171156215365" lon="-5.125377680719358"><ele>944.3333333333333</ele><time>2026-04-25T08:42:40.999Z</time></trkpt><trkpt lat="36.70169381932587" lon="-5.125147563955362"><ele>945.6666666666667</ele><time>2026-04-25T08:42:41.999Z</time></trkpt><trkpt lat="36.70167893315862" lon="-5.1249063272724"><ele>947.0</ele><time>2026-04-25T08:42:42.999Z</time></trkpt><trkpt lat="36.70166080259536" lon="-5.124661231272024"><ele>947.0</ele><time>2026-04-25T08:42:43.999Z</time></trkpt><trkpt lat="36.701643170014876" lon="-5.1244092001059585"><ele>947.0</ele><time>2026-04-25T08:42:44.999Z</time></trkpt><trkpt lat="36.7016307617825" lon="-5.124167059174442"><ele>947.0</ele><time>2026-04-25T08:42:45.999Z</time></trkpt><trkpt lat="36.70162526960557" lon="-5.1239195422825885"><ele>947.6666666666667</ele><time>2026-04-25T08:42:46.999Z</time></trkpt><trkpt lat="36.70162622212348" lon="-5.123675247767431"><ele>948.3333333333333</ele><time>2026-04-25T08:42:47.999Z</time></trkpt><trkpt lat="36.701629508209805" lon="-5.123434654140387"><ele>949.0</ele><time>2026-04-25T08:42:48.999Z</time></trkpt><trkpt lat="36.7016350601864" lon="-5.123192439367011"><ele>949.3333333333333</ele><time>2026-04-25T08:42:49.999Z</time></trkpt><trkpt lat="36.70164613994758" lon="-5.122949067806894"><ele>949.6666666666667</ele><time>2026-04-25T08:42:50.999Z</time></trkpt><trkpt lat="36.701660390543" lon="-5.122704919512435"><ele>950.0</ele><time>2026-04-25T08:42:51.999Z</time></trkpt><trkpt lat="36.70167336118488" lon="-5.122462580415864"><ele>950.6666666666667</ele><time>2026-04-25T08:42:52.999Z</time></trkpt><trkpt lat="36.701689493244544" lon="-5.122218078486792"><ele>951.3333333333333</ele><time>2026-04-25T08:42:53.999Z</time></trkpt><trkpt lat="36.70170659833401" lon="-5.121968451874336"><ele>952.0</ele><time>2026-04-25T08:42:54.999Z</time></trkpt><trkpt lat="36.701704635610156" lon="-5.1217197485121355"><ele>952.3333333333333</ele><time>2026-04-25T08:42:55.999Z</time></trkpt><trkpt lat="36.701717499228025" lon="-5.121479677492949"><ele>952.6666666666667</ele><time>2026-04-25T08:42:56.999Z</time></trkpt><trkpt lat="36.701743140590786" lon="-5.121243274282255"><ele>953.0</ele><time>2026-04-25T08:42:57.999Z</time></trkpt><trkpt lat="36.70174550464084" lon="-5.121006781919597"><ele>953.0</ele><time>2026-04-25T08:42:58.999Z</time></trkpt><trkpt lat="36.70173508952969" lon="-5.120771178364369"><ele>953.0</ele><time>2026-04-25T08:42:59.999Z</time></trkpt><trkpt lat="36.701711840801984" lon="-5.120538501010987"><ele>953.0</ele><time>2026-04-25T08:43:00.999Z</time></trkpt><trkpt lat="36.70167625705995" lon="-5.120302260117118"><ele>953.3333333333334</ele><time>2026-04-25T08:43:01.999Z</time></trkpt><trkpt lat="36.70163542168488" lon="-5.12006623745238"><ele>953.6666666666667</ele><time>2026-04-25T08:43:02.999Z</time></trkpt><trkpt lat="36.701585067256524" lon="-5.119832987747802"><ele>954.0</ele><time>2026-04-25T08:43:03.999Z</time></trkpt><trkpt lat="36.70152248452758" lon="-5.119607972749835"><ele>951.6666666666667</ele><time>2026-04-25T08:43:04.999Z</time></trkpt><trkpt lat="36.701443728252265" lon="-5.119390476172109"><ele>949.3333333333334</ele><time>2026-04-25T08:43:05.999Z</time></trkpt><trkpt lat="36.70133270159079" lon="-5.119202735347322"><ele>947.0</ele><time>2026-04-25T08:43:06.999Z</time></trkpt><trkpt lat="36.70120189139425" lon="-5.119034210381133"><ele>946.6666666666667</ele><time>2026-04-25T08:43:07.999Z</time></trkpt><trkpt lat="36.70104665489906" lon="-5.118888325140602"><ele>946.3333333333333</ele><time>2026-04-25T08:43:08.999Z</time></trkpt><trkpt lat="36.700887195193" lon="-5.118736612059972"><ele>946.0</ele><time>2026-04-25T08:43:09.999Z</time></trkpt><trkpt lat="36.70072657174771" lon="-5.118602040131091"><ele>946.0</ele><time>2026-04-25T08:43:10.999Z</time></trkpt><trkpt lat="36.70057462506282" lon="-5.11845425397138"><ele>946.0</ele><time>2026-04-25T08:43:11.999Z</time></trkpt><trkpt lat="36.70043385396085" lon="-5.118286559093985"><ele>946.0</ele><time>2026-04-25T08:43:12.999Z</time></trkpt><trkpt lat="36.70031098244595" lon="-5.118102334517435"><ele>949.6666666666666</ele><time>2026-04-25T08:43:14.001Z</time></trkpt><trkpt lat="36.700210533426606" lon="-5.117907144438952"><ele>953.3333333333333</ele><time>2026-04-25T08:43:15.001Z</time></trkpt><trkpt lat="36.70011766236975" lon="-5.117709884734761"><ele>957.0</ele><time>2026-04-25T08:43:16.001Z</time></trkpt><trkpt lat="36.70001918442353" lon="-5.117520460903621"><ele>952.6666666666667</ele><time>2026-04-25T08:43:17.001Z</time></trkpt><trkpt lat="36.69990902309142" lon="-5.11736455708448"><ele>948.3333333333334</ele><time>2026-04-25T08:43:18.001Z</time></trkpt><trkpt lat="36.69979220039277" lon="-5.11724394359383"><ele>944.0</ele><time>2026-04-25T08:43:19.001Z</time></trkpt><trkpt lat="36.69965678038838" lon="-5.117164427528459"><ele>944.0</ele><time>2026-04-25T08:43:20.001Z</time></trkpt><trkpt lat="36.699503672778995" lon="-5.117114078148781"><ele>944.0</ele><time>2026-04-25T08:43:21.001Z</time></trkpt><trkpt lat="36.69935228429973" lon="-5.117093526175397"><ele>944.0</ele><time>2026-04-25T08:43:22.001Z</time></trkpt><trkpt lat="36.69919600951592" lon="-5.117133337494419"><ele>946.0</ele><time>2026-04-25T08:43:23.001Z</time></trkpt><trkpt lat="36.699042842269826" lon="-5.117198017748889"><ele>948.0</ele><time>2026-04-25T08:43:24.001Z</time></trkpt><trkpt lat="36.698896016063074" lon="-5.117309488188621"><ele>950.0</ele><time>2026-04-25T08:43:25.001Z</time></trkpt><trkpt lat="36.69876619092058" lon="-5.11745544792934"><ele>947.6666666666667</ele><time>2026-04-25T08:43:26.001Z</time></trkpt><trkpt lat="36.6986438478325" lon="-5.117632760982056"><ele>945.3333333333333</ele><time>2026-04-25T08:43:27.001Z</time></trkpt><trkpt lat="36.69854443014791" lon="-5.117827185830575"><ele>943.0</ele><time>2026-04-25T08:43:28.001Z</time></trkpt><trkpt lat="36.6984484606682" lon="-5.118025711528711"><ele>943.0</ele><time>2026-04-25T08:43:29.001Z</time></trkpt><trkpt lat="36.69834463423494" lon="-5.118213505126573"><ele>943.0</ele><time>2026-04-25T08:43:30.001Z</time></trkpt><trkpt lat="36.69822563756539" lon="-5.11839027871821"><ele>943.0</ele><time>2026-04-25T08:43:31.001Z</time></trkpt><trkpt lat="36.69808665863919" lon="-5.118551051337978"><ele>945.3333333333333</ele><time>2026-04-25T08:43:32.001Z</time></trkpt><trkpt lat="36.697924671557914" lon="-5.118683774261761"><ele>947.6666666666667</ele><time>2026-04-25T08:43:33.001Z</time></trkpt><trkpt lat="36.69775031246944" lon="-5.118796949071316"><ele>950.0</ele><time>2026-04-25T08:43:34.001Z</time></trkpt><trkpt lat="36.697569350016515" lon="-5.118906844789154"><ele>952.0</ele><time>2026-04-25T08:43:35.001Z</time></trkpt><trkpt lat="36.69738228056188" lon="-5.118983383251126"><ele>954.0</ele><time>2026-04-25T08:43:36Z</time></trkpt><trkpt lat="36.69719668605966" lon="-5.1190512511595765"><ele>956.0</ele><time>2026-04-25T08:43:37Z</time></trkpt><trkpt lat="36.6970042300551" lon="-5.119115399176342"><ele>953.6666666666667</ele><time>2026-04-25T08:43:38Z</time></trkpt><trkpt lat="36.69680987397653" lon="-5.119168226307077"><ele>951.3333333333333</ele><time>2026-04-25T08:43:39Z</time></trkpt><trkpt lat="36.69661203810527" lon="-5.11921151935666"><ele>949.0</ele><time>2026-04-25T08:43:40Z</time></trkpt><trkpt lat="36.696408786154336" lon="-5.119246587792924"><ele>949.0</ele><time>2026-04-25T08:43:41Z</time></trkpt><trkpt lat="36.69620798819054" lon="-5.119248797942511"><ele>949.0</ele><time>2026-04-25T08:43:42Z</time></trkpt><trkpt lat="36.69601105807501" lon="-5.119268174866607"><ele>949.0</ele><time>2026-04-25T08:43:43Z</time></trkpt><trkpt lat="36.695821190240906" lon="-5.119285415163648"><ele>948.0</ele><time>2026-04-25T08:43:44Z</time></trkpt><trkpt lat="36.6956283712032" lon="-5.119304839116703"><ele>947.0</ele><time>2026-04-25T08:43:45Z</time></trkpt><trkpt lat="36.69543045730524" lon="-5.11932653326368"><ele>946.0</ele><time>2026-04-25T08:43:46Z</time></trkpt><trkpt lat="36.695231415535595" lon="-5.1193558603388345"><ele>946.0</ele><time>2026-04-25T08:43:47Z</time></trkpt><trkpt lat="36.69503270026259" lon="-5.119398604444834"><ele>946.0</ele><time>2026-04-25T08:43:48Z</time></trkpt><trkpt lat="36.69483761611876" lon="-5.119463702351124"><ele>946.0</ele><time>2026-04-25T08:43:49Z</time></trkpt><trkpt lat="36.694643303815795" lon="-5.119542972259332"><ele>946.0</ele><time>2026-04-25T08:43:50Z</time></trkpt><trkpt lat="36.69444870136019" lon="-5.119625935515207"><ele>946.0</ele><time>2026-04-25T08:43:51Z</time></trkpt><trkpt lat="36.694255858496625" lon="-5.119704837474287"><ele>946.0</ele><time>2026-04-25T08:43:52Z</time></trkpt><trkpt lat="36.694060615481824" lon="-5.119770865846294"><ele>947.6666666666666</ele><time>2026-04-25T08:43:53Z</time></trkpt><trkpt lat="36.69386676131546" lon="-5.119847784708309"><ele>949.3333333333333</ele><time>2026-04-25T08:43:54Z</time></trkpt><trkpt lat="36.69367326541473" lon="-5.119873486369303"><ele>951.0</ele><time>2026-04-25T08:43:55Z</time></trkpt><trkpt lat="36.69348309679806" lon="-5.119917054064358"><ele>951.0</ele><time>2026-04-25T08:43:56Z</time></trkpt><trkpt lat="36.69329491720452" lon="-5.119954359825786"><ele>951.0</ele><time>2026-04-25T08:43:57Z</time></trkpt><trkpt lat="36.69310501667398" lon="-5.119988858391731"><ele>951.0</ele><time>2026-04-25T08:43:58Z</time></trkpt><trkpt lat="36.69291056302314" lon="-5.120048945785637"><ele>947.6666666666667</ele><time>2026-04-25T08:43:59Z</time></trkpt><trkpt lat="36.69271119508636" lon="-5.120069750766472"><ele>944.3333333333334</ele><time>2026-04-25T08:44:00Z</time></trkpt><trkpt lat="36.69251026715244" lon="-5.120112245901354"><ele>941.0</ele><time>2026-04-25T08:44:01Z</time></trkpt><trkpt lat="36.69230882386839" lon="-5.120154777929298"><ele>941.0</ele><time>2026-04-25T08:44:02Z</time></trkpt><trkpt lat="36.69211114245352" lon="-5.1201976480782045"><ele>941.0</ele><time>2026-04-25T08:44:03Z</time></trkpt><trkpt lat="36.69191474334926" lon="-5.120238072293212"><ele>941.0</ele><time>2026-04-25T08:44:04Z</time></trkpt><trkpt lat="36.69172296417917" lon="-5.120278618368842"><ele>939.0</ele><time>2026-04-25T08:44:05Z</time></trkpt><trkpt lat="36.69152958638822" lon="-5.120321548561767"><ele>937.0</ele><time>2026-04-25T08:44:06Z</time></trkpt><trkpt lat="36.69133937463665" lon="-5.120362078101342"><ele>935.0</ele><time>2026-04-25T08:44:07Z</time></trkpt><trkpt lat="36.69115061222336" lon="-5.120403653054165"><ele>932.6666666666667</ele><time>2026-04-25T08:44:08Z</time></trkpt><trkpt lat="36.69096719321228" lon="-5.120441597892931"><ele>930.3333333333333</ele><time>2026-04-25T08:44:09Z</time></trkpt><trkpt lat="36.690787299692815" lon="-5.120478334538599"><ele>928.0</ele><time>2026-04-25T08:44:10Z</time></trkpt><trkpt lat="36.690612377553016" lon="-5.120514253673612"><ele>928.0</ele><time>2026-04-25T08:44:11Z</time></trkpt><trkpt lat="36.69043725577519" lon="-5.120550239322089"><ele>928.0</ele><time>2026-04-25T08:44:12Z</time></trkpt><trkpt lat="36.69026789677799" lon="-5.120567131280022"><ele>928.0</ele><time>2026-04-25T08:44:13Z</time></trkpt><trkpt lat="36.69009382391199" lon="-5.120549118398335"><ele>928.6666666666666</ele><time>2026-04-25T08:44:14Z</time></trkpt><trkpt lat="36.68992629131715" lon="-5.120489450766891"><ele>929.3333333333333</ele><time>2026-04-25T08:44:15Z</time></trkpt><trkpt lat="36.68976921550339" lon="-5.1203861816138625"><ele>930.0</ele><time>2026-04-25T08:44:16Z</time></trkpt><trkpt lat="36.68962781025898" lon="-5.120240346614753"><ele>930.0</ele><time>2026-04-25T08:44:17Z</time></trkpt><trkpt lat="36.689514299769726" lon="-5.120067719087219"><ele>930.0</ele><time>2026-04-25T08:44:18Z</time></trkpt><trkpt lat="36.68942600963105" lon="-5.119859649686841"><ele>930.0</ele><time>2026-04-25T08:44:19Z</time></trkpt><trkpt lat="36.68936919546107" lon="-5.1196387902945535"><ele>934.3333333333333</ele><time>2026-04-25T08:44:20Z</time></trkpt><trkpt lat="36.68934529400098" lon="-5.119399883528938"><ele>938.6666666666666</ele><time>2026-04-25T08:44:21Z</time></trkpt><trkpt lat="36.68932469231388" lon="-5.119154883717773"><ele>943.0</ele><time>2026-04-25T08:44:22Z</time></trkpt><trkpt lat="36.68930511661709" lon="-5.118917689672499"><ele>943.0</ele><time>2026-04-25T08:44:23Z</time></trkpt><trkpt lat="36.689288082286744" lon="-5.118705226261427"><ele>943.0</ele><time>2026-04-25T08:44:24Z</time></trkpt><trkpt lat="36.689266096460955" lon="-5.118513103586632"><ele>943.0</ele><time>2026-04-25T08:44:25Z</time></trkpt><trkpt lat="36.68922979940327" lon="-5.118328104006121"><ele>939.3333333333333</ele><time>2026-04-25T08:44:26Z</time></trkpt><trkpt lat="36.68917410420369" lon="-5.118151239765498"><ele>935.6666666666667</ele><time>2026-04-25T08:44:27Z</time></trkpt><trkpt lat="36.6890880715495" lon="-5.117991060387666"><ele>932.0</ele><time>2026-04-25T08:44:28Z</time></trkpt><trkpt lat="36.688989096790394" lon="-5.117842806121095"><ele>932.0</ele><time>2026-04-25T08:44:29Z</time></trkpt><trkpt lat="36.68888696271243" lon="-5.11770540660717"><ele>932.0</ele><time>2026-04-25T08:44:30Z</time></trkpt><trkpt lat="36.688787729392864" lon="-5.117548366410713"><ele>932.0</ele><time>2026-04-25T08:44:31Z</time></trkpt><trkpt lat="36.68866283671572" lon="-5.117415119820771"><ele>931.3333333333334</ele><time>2026-04-25T08:44:32Z</time></trkpt><trkpt lat="36.68854489165137" lon="-5.117262883113118"><ele>930.6666666666667</ele><time>2026-04-25T08:44:33Z</time></trkpt><trkpt lat="36.68842810059719" lon="-5.1171121359029685"><ele>930.0</ele><time>2026-04-25T08:44:34Z</time></trkpt><trkpt lat="36.688310287914845" lon="-5.116960403330511"><ele>930.0</ele><time>2026-04-25T08:44:35Z</time></trkpt><trkpt lat="36.688195302992064" lon="-5.116812561496806"><ele>930.0</ele><time>2026-04-25T08:44:36Z</time></trkpt><trkpt lat="36.688086859167676" lon="-5.116673129601233"><ele>930.0</ele><time>2026-04-25T08:44:37Z</time></trkpt><trkpt lat="36.68799094201733" lon="-5.1165243945303"><ele>928.0</ele><time>2026-04-25T08:44:38Z</time></trkpt><trkpt lat="36.68787729158142" lon="-5.116398506294926"><ele>926.0</ele><time>2026-04-25T08:44:39Z</time></trkpt><trkpt lat="36.687760636642594" lon="-5.116282184520191"><ele>924.0</ele><time>2026-04-25T08:44:40Z</time></trkpt><trkpt lat="36.68763517152899" lon="-5.116179126352956"><ele>924.0</ele><time>2026-04-25T08:44:41Z</time></trkpt><trkpt lat="36.68750213165609" lon="-5.116086123428932"><ele>924.0</ele><time>2026-04-25T08:44:42Z</time></trkpt><trkpt lat="36.687366870011985" lon="-5.116001919495818"><ele>924.0</ele><time>2026-04-25T08:44:43Z</time></trkpt><trkpt lat="36.68722835940158" lon="-5.11592649659314"><ele>924.0</ele><time>2026-04-25T08:44:44Z</time></trkpt><trkpt lat="36.68708262824602" lon="-5.115859219596605"><ele>924.0</ele><time>2026-04-25T08:44:45Z</time></trkpt><trkpt lat="36.68693060822022" lon="-5.1158040988645626"><ele>924.0</ele><time>2026-04-25T08:44:46Z</time></trkpt><trkpt lat="36.68677088433737" lon="-5.115753082443589"><ele>920.6666666666667</ele><time>2026-04-25T08:44:47Z</time></trkpt><trkpt lat="36.686604069725774" lon="-5.115715054218315"><ele>917.3333333333334</ele><time>2026-04-25T08:44:48Z</time></trkpt><trkpt lat="36.68643381362028" lon="-5.115689728850901"><ele>914.0</ele><time>2026-04-25T08:44:49Z</time></trkpt><trkpt lat="36.68625633151345" lon="-5.115672737704273"><ele>917.6666666666667</ele><time>2026-04-25T08:44:50Z</time></trkpt><trkpt lat="36.68607458662005" lon="-5.115654007362365"><ele>921.3333333333333</ele><time>2026-04-25T08:44:51Z</time></trkpt><trkpt lat="36.68589338903488" lon="-5.115658340824643"><ele>925.0</ele><time>2026-04-25T08:44:52Z</time></trkpt><trkpt lat="36.68570694371793" lon="-5.11564146226012"><ele>925.0</ele><time>2026-04-25T08:44:53Z</time></trkpt><trkpt lat="36.685526077227784" lon="-5.115611370434158"><ele>925.0</ele><time>2026-04-25T08:44:54Z</time></trkpt><trkpt lat="36.685352238663896" lon="-5.11557534002014"><ele>925.0</ele><time>2026-04-25T08:44:54.999Z</time></trkpt><trkpt lat="36.685188851835" lon="-5.115517763206882"><ele>929.0</ele><time>2026-04-25T08:44:55.999Z</time></trkpt><trkpt lat="36.68502506939042" lon="-5.115482374215444"><ele>933.0</ele><time>2026-04-25T08:44:56.999Z</time></trkpt><trkpt lat="36.684864985962" lon="-5.115448177476723"><ele>937.0</ele><time>2026-04-25T08:44:57.999Z</time></trkpt><trkpt lat="36.684704540349045" lon="-5.115413019214896"><ele>937.0</ele><time>2026-04-25T08:44:58.999Z</time></trkpt><trkpt lat="36.684539963543195" lon="-5.115373395235981"><ele>937.0</ele><time>2026-04-25T08:44:59.999Z</time></trkpt><trkpt lat="36.68437702000564" lon="-5.115333087488187"><ele>937.0</ele><time>2026-04-25T08:45:00.999Z</time></trkpt><trkpt lat="36.68421177590818" lon="-5.115293915203841"><ele>942.3333333333333</ele><time>2026-04-25T08:45:01.999Z</time></trkpt><trkpt lat="36.6840467385545" lon="-5.1152593101201065"><ele>947.6666666666667</ele><time>2026-04-25T08:45:02.999Z</time></trkpt><trkpt lat="36.68388017200869" lon="-5.115224965852466"><ele>953.0</ele><time>2026-04-25T08:45:03.999Z</time></trkpt><trkpt lat="36.68371226236727" lon="-5.115192984569795"><ele>954.6666666666667</ele><time>2026-04-25T08:45:04.999Z</time></trkpt><trkpt lat="36.68354282658181" lon="-5.115164538694802"><ele>956.3333333333333</ele><time>2026-04-25T08:45:05.999Z</time></trkpt><trkpt lat="36.68336843917361" lon="-5.1151373406669505"><ele>958.0</ele><time>2026-04-25T08:45:06.999Z</time></trkpt><trkpt lat="36.68318945954791" lon="-5.115109814157489"><ele>958.0</ele><time>2026-04-25T08:45:07.999Z</time></trkpt><trkpt lat="36.683007960994374" lon="-5.115081846056187"><ele>958.0</ele><time>2026-04-25T08:45:08.999Z</time></trkpt><trkpt lat="36.68282064644257" lon="-5.115056588924605"><ele>958.0</ele><time>2026-04-25T08:45:09.999Z</time></trkpt><trkpt lat="36.68263489060503" lon="-5.115035845057522"><ele>959.6666666666666</ele><time>2026-04-25T08:45:10.999Z</time></trkpt><trkpt lat="36.682443487487966" lon="-5.11502845346133"><ele>961.3333333333333</ele><time>2026-04-25T08:45:11.999Z</time></trkpt><trkpt lat="36.68225030260564" lon="-5.115032470439803"><ele>963.0</ele><time>2026-04-25T08:45:12.999Z</time></trkpt><trkpt lat="36.68206104188869" lon="-5.115074382916295"><ele>963.3333333333333</ele><time>2026-04-25T08:45:13.999Z</time></trkpt><trkpt lat="36.68187446643245" lon="-5.115150102021841"><ele>963.6666666666666</ele><time>2026-04-25T08:45:14.999Z</time></trkpt><trkpt lat="36.681699540757215" lon="-5.115247096615762"><ele>964.0</ele><time>2026-04-25T08:45:15.999Z</time></trkpt><trkpt lat="36.681526672952" lon="-5.115359492892947"><ele>964.0</ele><time>2026-04-25T08:45:16.999Z</time></trkpt><trkpt lat="36.681369082984766" lon="-5.115486101103234"><ele>964.0</ele><time>2026-04-25T08:45:17.999Z</time></trkpt><trkpt lat="36.68122547633539" lon="-5.115604657417356"><ele>964.0</ele><time>2026-04-25T08:45:18.999Z</time></trkpt><trkpt lat="36.681083529882535" lon="-5.115731359171171"><ele>968.6666666666666</ele><time>2026-04-25T08:45:20.001Z</time></trkpt><trkpt lat="36.680942261673046" lon="-5.1158604570433335"><ele>973.3333333333333</ele><time>2026-04-25T08:45:21.001Z</time></trkpt><trkpt lat="36.680807763787584" lon="-5.115995909590873"><ele>978.0</ele><time>2026-04-25T08:45:22.001Z</time></trkpt><trkpt lat="36.680675653248024" lon="-5.116134061839066"><ele>978.0</ele><time>2026-04-25T08:45:23.001Z</time></trkpt><trkpt lat="36.68054377918377" lon="-5.116272710824127"><ele>978.0</ele><time>2026-04-25T08:45:24.001Z</time></trkpt><trkpt lat="36.68041584431531" lon="-5.116410567108211"><ele>978.0</ele><time>2026-04-25T08:45:25.001Z</time></trkpt><trkpt lat="36.68028815831189" lon="-5.1165462309628"><ele>975.6666666666667</ele><time>2026-04-25T08:45:26.001Z</time></trkpt><trkpt lat="36.680155277368975" lon="-5.116680674519367"><ele>973.3333333333334</ele><time>2026-04-25T08:45:27.001Z</time></trkpt><trkpt lat="36.680022532370344" lon="-5.116816701841858"><ele>971.0</ele><time>2026-04-25T08:45:28.001Z</time></trkpt><trkpt lat="36.67988781962204" lon="-5.116954329991166"><ele>971.0</ele><time>2026-04-25T08:45:29.001Z</time></trkpt><trkpt lat="36.67975742394749" lon="-5.1170916274466"><ele>971.0</ele><time>2026-04-25T08:45:30.001Z</time></trkpt><trkpt lat="36.67962550464167" lon="-5.117223753058013"><ele>971.0</ele><time>2026-04-25T08:45:31.001Z</time></trkpt><trkpt lat="36.679493251480395" lon="-5.117359538567618"><ele>972.3333333333334</ele><time>2026-04-25T08:45:32.001Z</time></trkpt><trkpt lat="36.6793602647364" lon="-5.117502004045335"><ele>973.6666666666667</ele><time>2026-04-25T08:45:33.001Z</time></trkpt><trkpt lat="36.67922838712523" lon="-5.1176356336165485"><ele>975.0</ele><time>2026-04-25T08:45:34.001Z</time></trkpt><trkpt lat="36.679095701702316" lon="-5.117764066259203"><ele>975.0</ele><time>2026-04-25T08:45:35.001Z</time></trkpt><trkpt lat="36.678957887873125" lon="-5.117888437609275"><ele>975.0</ele><time>2026-04-25T08:45:36.001Z</time></trkpt><trkpt lat="36.6788119876806" lon="-5.118003008775266"><ele>975.0</ele><time>2026-04-25T08:45:37.001Z</time></trkpt><trkpt lat="36.67865726215087" lon="-5.118101887217785"><ele>977.0</ele><time>2026-04-25T08:45:38.001Z</time></trkpt><trkpt lat="36.67849761123199" lon="-5.118187176060428"><ele>979.0</ele><time>2026-04-25T08:45:39.001Z</time></trkpt><trkpt lat="36.6783296077595" lon="-5.118255367741299"><ele>981.0</ele><time>2026-04-25T08:45:40.001Z</time></trkpt><trkpt lat="36.678159765190145" lon="-5.118311386451452"><ele>981.0</ele><time>2026-04-25T08:45:41.001Z</time></trkpt><trkpt lat="36.67798507198536" lon="-5.118353044532864"><ele>981.0</ele><time>2026-04-25T08:45:42Z</time></trkpt><trkpt lat="36.67780622672998" lon="-5.118386897099793"><ele>981.0</ele><time>2026-04-25T08:45:43Z</time></trkpt><trkpt lat="36.677627211301626" lon="-5.1184150871834655"><ele>982.6666666666667</ele><time>2026-04-25T08:45:44Z</time></trkpt><trkpt lat="36.67744561687348" lon="-5.118437441854254"><ele>984.3333333333334</ele><time>2026-04-25T08:45:45Z</time></trkpt><trkpt lat="36.67726271899311" lon="-5.11846070060879"><ele>986.0</ele><time>2026-04-25T08:45:46Z</time></trkpt><trkpt lat="36.677079074508654" lon="-5.118484709475387"><ele>987.0</ele><time>2026-04-25T08:45:47Z</time></trkpt><trkpt lat="36.67689631322031" lon="-5.1185190324852945"><ele>988.0</ele><time>2026-04-25T08:45:48Z</time></trkpt><trkpt lat="36.676716010626215" lon="-5.118563843859142"><ele>989.0</ele><time>2026-04-25T08:45:49Z</time></trkpt><trkpt lat="36.67653759132437" lon="-5.118628146563666"><ele>989.0</ele><time>2026-04-25T08:45:50Z</time></trkpt><trkpt lat="36.67636284567849" lon="-5.118706071320909"><ele>989.0</ele><time>2026-04-25T08:45:51Z</time></trkpt><trkpt lat="36.67619502660271" lon="-5.118792705587386"><ele>989.0</ele><time>2026-04-25T08:45:52Z</time></trkpt><trkpt lat="36.67603439892967" lon="-5.118876731374356"><ele>990.6666666666667</ele><time>2026-04-25T08:45:53Z</time></trkpt><trkpt lat="36.675885889685645" lon="-5.118953350967427"><ele>992.3333333333333</ele><time>2026-04-25T08:45:54Z</time></trkpt><trkpt lat="36.67574112568216" lon="-5.119028776242125"><ele>994.0</ele><time>2026-04-25T08:45:55Z</time></trkpt><trkpt lat="36.67560112461749" lon="-5.119105543693471"><ele>994.0</ele><time>2026-04-25T08:45:56Z</time></trkpt><trkpt lat="36.675462146053434" lon="-5.1191740924215825"><ele>994.0</ele><time>2026-04-25T08:45:57Z</time></trkpt><trkpt lat="36.67532552244412" lon="-5.119241608390207"><ele>994.0</ele><time>2026-04-25T08:45:58Z</time></trkpt><trkpt lat="36.67518825309301" lon="-5.119311248236369"><ele>994.0</ele><time>2026-04-25T08:45:59Z</time></trkpt><trkpt lat="36.67505239584743" lon="-5.119382784582163"><ele>994.3333333333333</ele><time>2026-04-25T08:46:00Z</time></trkpt><trkpt lat="36.674915155367344" lon="-5.1194566843138505"><ele>994.6666666666667</ele><time>2026-04-25T08:46:01Z</time></trkpt><trkpt lat="36.67477285308388" lon="-5.119534663339093"><ele>995.0</ele><time>2026-04-25T08:46:02Z</time></trkpt><trkpt lat="36.67461997631207" lon="-5.119610083890797"><ele>995.0</ele><time>2026-04-25T08:46:03Z</time></trkpt><trkpt lat="36.67446766797964" lon="-5.119685470573473"><ele>995.0</ele><time>2026-04-25T08:46:04Z</time></trkpt><trkpt lat="36.674314397829015" lon="-5.119762109559376"><ele>995.0</ele><time>2026-04-25T08:46:05Z</time></trkpt><trkpt lat="36.674159456401654" lon="-5.119834852052489"><ele>994.6666666666667</ele><time>2026-04-25T08:46:06Z</time></trkpt><trkpt lat="36.67400004148583" lon="-5.119905896470776"><ele>994.3333333333333</ele><time>2026-04-25T08:46:07Z</time></trkpt><trkpt lat="36.673841531392114" lon="-5.119972110081891"><ele>994.0</ele><time>2026-04-25T08:46:08Z</time></trkpt><trkpt lat="36.673687206119496" lon="-5.120019822223479"><ele>995.0</ele><time>2026-04-25T08:46:09Z</time></trkpt><trkpt lat="36.6735375211293" lon="-5.12005906183356"><ele>996.0</ele><time>2026-04-25T08:46:10Z</time></trkpt><trkpt lat="36.673395937879015" lon="-5.120079461444758"><ele>997.0</ele><time>2026-04-25T08:46:11Z</time></trkpt><trkpt lat="36.673274655113374" lon="-5.120087396257603"><ele>998.0</ele><time>2026-04-25T08:46:12Z</time></trkpt><trkpt lat="36.67316496572162" lon="-5.120095391203782"><ele>998.0</ele><time>2026-04-25T08:46:13Z</time></trkpt><trkpt lat="36.67306604924557" lon="-5.120118772383007"><ele>998.0</ele><time>2026-04-25T08:46:14Z</time></trkpt><trkpt lat="36.67299530641301" lon="-5.1201690216031"><ele>998.0</ele><time>2026-04-25T08:46:15Z</time></trkpt><trkpt lat="36.672938208050354" lon="-5.120248490366988"><ele>998.0</ele><time>2026-04-25T08:46:16Z</time></trkpt><trkpt lat="36.6728851109549" lon="-5.12034443220878"><ele>998.0</ele><time>2026-04-25T08:46:17Z</time></trkpt><trkpt lat="36.672815821711225" lon="-5.120437753319716"><ele>997.0</ele><time>2026-04-25T08:46:18Z</time></trkpt><trkpt lat="36.672724188120604" lon="-5.120514819384286"><ele>996.0</ele><time>2026-04-25T08:46:19Z</time></trkpt><trkpt lat="36.672615345808374" lon="-5.1205833410784924"><ele>995.0</ele><time>2026-04-25T08:46:20Z</time></trkpt><trkpt lat="36.672491572688585" lon="-5.120628494272129"><ele>994.0</ele><time>2026-04-25T08:46:21Z</time></trkpt><trkpt lat="36.67236801561638" lon="-5.12066553749769"><ele>994.0</ele><time>2026-04-25T08:46:22Z</time></trkpt><trkpt lat="36.672246971666084" lon="-5.1206905849166455"><ele>994.0</ele><time>2026-04-25T08:46:23Z</time></trkpt><trkpt lat="36.67212205053671" lon="-5.120747690207708"><ele>994.0</ele><time>2026-04-25T08:46:24Z</time></trkpt><trkpt lat="36.67199080389208" lon="-5.120829217770124"><ele>994.0</ele><time>2026-04-25T08:46:25Z</time></trkpt><trkpt lat="36.67185236402329" lon="-5.1209236181995275"><ele>994.3333333333333</ele><time>2026-04-25T08:46:26Z</time></trkpt><trkpt lat="36.671720170203535" lon="-5.121046796092456"><ele>994.6666666666667</ele><time>2026-04-25T08:46:27Z</time></trkpt><trkpt lat="36.67156454326142" lon="-5.121143029537034"><ele>995.0</ele><time>2026-04-25T08:46:28Z</time></trkpt><trkpt lat="36.67143152814419" lon="-5.12126179460493"><ele>995.0</ele><time>2026-04-25T08:46:29Z</time></trkpt><trkpt lat="36.67131657077785" lon="-5.121398559913772"><ele>995.0</ele><time>2026-04-25T08:46:30Z</time></trkpt><trkpt lat="36.671214516043996" lon="-5.121558426196037"><ele>995.0</ele><time>2026-04-25T08:46:31Z</time></trkpt><trkpt lat="36.671119830233835" lon="-5.121729414065327"><ele>996.3333333333334</ele><time>2026-04-25T08:46:32Z</time></trkpt><trkpt lat="36.67100371480843" lon="-5.121878932672748"><ele>997.6666666666667</ele><time>2026-04-25T08:46:33Z</time></trkpt><trkpt lat="36.67087366069286" lon="-5.122003127805849"><ele>999.0</ele><time>2026-04-25T08:46:34Z</time></trkpt><trkpt lat="36.6707489475138" lon="-5.122105185561033"><ele>999.0</ele><time>2026-04-25T08:46:35Z</time></trkpt><trkpt lat="36.67062689256939" lon="-5.1222042882236485"><ele>999.0</ele><time>2026-04-25T08:46:36Z</time></trkpt><trkpt lat="36.670504380672874" lon="-5.122296031107609"><ele>999.0</ele><time>2026-04-25T08:46:37Z</time></trkpt><trkpt lat="36.670388258365925" lon="-5.122400505643661"><ele>999.0</ele><time>2026-04-25T08:46:38Z</time></trkpt><trkpt lat="36.67028448400548" lon="-5.122538272967275"><ele>998.3333333333333</ele><time>2026-04-25T08:46:39Z</time></trkpt><trkpt lat="36.67019156444986" lon="-5.12270510397297"><ele>997.6666666666666</ele><time>2026-04-25T08:46:40Z</time></trkpt><trkpt lat="36.670107780681484" lon="-5.12288021332186"><ele>997.0</ele><time>2026-04-25T08:46:41Z</time></trkpt><trkpt lat="36.67003672434702" lon="-5.123051978562667"><ele>997.0</ele><time>2026-04-25T08:46:42Z</time></trkpt><trkpt lat="36.66996807465562" lon="-5.123218707836401"><ele>997.0</ele><time>2026-04-25T08:46:43Z</time></trkpt><trkpt lat="36.6699006192984" lon="-5.123372545706626"><ele>997.0</ele><time>2026-04-25T08:46:44Z</time></trkpt><trkpt lat="36.669832655897565" lon="-5.123523673970139"><ele>997.0</ele><time>2026-04-25T08:46:45Z</time></trkpt><trkpt lat="36.66976093238353" lon="-5.1236726622795645"><ele>995.75</ele><time>2026-04-25T08:46:46Z</time></trkpt><trkpt lat="36.66967605053489" lon="-5.123806494540165"><ele>994.5</ele><time>2026-04-25T08:46:46.999Z</time></trkpt><trkpt lat="36.669574274429834" lon="-5.123914463732205"><ele>993.25</ele><time>2026-04-25T08:46:47.999Z</time></trkpt><trkpt lat="36.669470273056056" lon="-5.123995251466248"><ele>992.0</ele><time>2026-04-25T08:46:48.999Z</time></trkpt><trkpt lat="36.66937424290189" lon="-5.124076498297116"><ele>988.75</ele><time>2026-04-25T08:46:49.999Z</time></trkpt><trkpt lat="36.66931124868679" lon="-5.12418225131923"><ele>985.5</ele><time>2026-04-25T08:46:50.999Z</time></trkpt><trkpt lat="36.669291808405134" lon="-5.124316933762181"><ele>982.25</ele><time>2026-04-25T08:46:51.999Z</time></trkpt><trkpt lat="36.66929540797343" lon="-5.124456746655377"><ele>979.0</ele><time>2026-04-25T08:46:52.999Z</time></trkpt><trkpt lat="36.669401222321454" lon="-5.124546420239731"><ele>981.25</ele><time>2026-04-25T08:46:53.999Z</time></trkpt><trkpt lat="36.669531332336305" lon="-5.124515625337158"><ele>983.5</ele><time>2026-04-25T08:46:54.999Z</time></trkpt><trkpt lat="36.66964077248308" lon="-5.124560792088983"><ele>985.75</ele><time>2026-04-25T08:46:55.999Z</time></trkpt><trkpt lat="36.669770125236106" lon="-5.124592521481964"><ele>988.0</ele><time>2026-04-25T08:46:56.999Z</time></trkpt><trkpt lat="36.669673669166016" lon="-5.124558224155365"><ele>988.0</ele><time>2026-04-25T08:46:57.999Z</time></trkpt><trkpt lat="36.66975101847848" lon="-5.124635085532466"><ele>988.0</ele><time>2026-04-25T08:46:58.999Z</time></trkpt><trkpt lat="36.66981329604775" lon="-5.124756842656354"><ele>988.0</ele><time>2026-04-25T08:46:59.999Z</time></trkpt><trkpt lat="36.66986678209652" lon="-5.124900934833832"><ele>988.0</ele><time>2026-04-25T08:47:00.999Z</time></trkpt><trkpt lat="36.66993479920772" lon="-5.125045073260091"><ele>986.2</ele><time>2026-04-25T08:47:01.999Z</time></trkpt><trkpt lat="36.67001329831756" lon="-5.125161746294829"><ele>984.4</ele><time>2026-04-25T08:47:02.999Z</time></trkpt><trkpt lat="36.67010213036462" lon="-5.125244103772491"><ele>982.6000000000001</ele><time>2026-04-25T08:47:03.999Z</time></trkpt><trkpt lat="36.67019998993577" lon="-5.125287027339265"><ele>980.8000000000001</ele><time>2026-04-25T08:47:04.999Z</time></trkpt><trkpt lat="36.670290525370774" lon="-5.1253233592120795"><ele>979.0</ele><time>2026-04-25T08:47:05.999Z</time></trkpt><trkpt lat="36.67035744848463" lon="-5.125400842870057"><ele>982.75</ele><time>2026-04-25T08:47:06.999Z</time></trkpt><trkpt lat="36.670406962965465" lon="-5.125520595688377"><ele>986.5</ele><time>2026-04-25T08:47:07.999Z</time></trkpt><trkpt lat="36.670414326060445" lon="-5.125677809935381"><ele>990.25</ele><time>2026-04-25T08:47:08.999Z</time></trkpt><trkpt lat="36.67042802544846" lon="-5.125848145485893"><ele>994.0</ele><time>2026-04-25T08:47:09.999Z</time></trkpt><trkpt lat="36.67045081079791" lon="-5.126034519445883"><ele>994.0</ele><time>2026-04-25T08:47:10.999Z</time></trkpt><trkpt lat="36.67044873877446" lon="-5.1262236286485905"><ele>994.0</ele><time>2026-04-25T08:47:11.999Z</time></trkpt><trkpt lat="36.67044477748711" lon="-5.126416235705555"><ele>994.0</ele><time>2026-04-25T08:47:12.999Z</time></trkpt><trkpt lat="36.67043898360093" lon="-5.126597883005213"><ele>992.3333333333333</ele><time>2026-04-25T08:47:13.999Z</time></trkpt><trkpt lat="36.67044387451106" lon="-5.126782164003265"><ele>990.6666666666667</ele><time>2026-04-25T08:47:14.999Z</time></trkpt><trkpt lat="36.67046769525854" lon="-5.126973895081286"><ele>989.0</ele><time>2026-04-25T08:47:15.999Z</time></trkpt><trkpt lat="36.670494192162295" lon="-5.127171392867805"><ele>989.0</ele><time>2026-04-25T08:47:16.999Z</time></trkpt><trkpt lat="36.67051335877442" lon="-5.1273589938258946"><ele>989.0</ele><time>2026-04-25T08:47:17.999Z</time></trkpt><trkpt lat="36.67051276848528" lon="-5.1275487131824775"><ele>989.0</ele><time>2026-04-25T08:47:18.999Z</time></trkpt><trkpt lat="36.67048065384824" lon="-5.1277443986802576"><ele>988.3333333333334</ele><time>2026-04-25T08:47:19.999Z</time></trkpt><trkpt lat="36.67042273341071" lon="-5.127940165075613"><ele>987.6666666666667</ele><time>2026-04-25T08:47:20.999Z</time></trkpt><trkpt lat="36.67035279771737" lon="-5.128140909643977"><ele>987.0</ele><time>2026-04-25T08:47:21.999Z</time></trkpt><trkpt lat="36.67027966785883" lon="-5.128346866404493"><ele>975.3333333333333</ele><time>2026-04-25T08:47:22.999Z</time></trkpt><trkpt lat="36.67021273206156" lon="-5.128552211638029"><ele>963.6666666666666</ele><time>2026-04-25T08:47:23.999Z</time></trkpt><trkpt lat="36.67014372919426" lon="-5.128757375903968"><ele>952.0</ele><time>2026-04-25T08:47:24.999Z</time></trkpt><trkpt lat="36.67007882347374" lon="-5.128959356214217"><ele>957.3333333333333</ele><time>2026-04-25T08:47:26.001Z</time></trkpt><trkpt lat="36.67001471728286" lon="-5.1291453753509275"><ele>962.6666666666667</ele><time>2026-04-25T08:47:27.001Z</time></trkpt><trkpt lat="36.669950355608734" lon="-5.1293260639724005"><ele>968.0</ele><time>2026-04-25T08:47:28.001Z</time></trkpt><trkpt lat="36.66986545525664" lon="-5.129493012177809"><ele>968.0</ele><time>2026-04-25T08:47:29.001Z</time></trkpt><trkpt lat="36.66975002719202" lon="-5.1296483273700115"><ele>968.0</ele><time>2026-04-25T08:47:30.001Z</time></trkpt><trkpt lat="36.66961996953847" lon="-5.12977786659974"><ele>968.0</ele><time>2026-04-25T08:47:31.001Z</time></trkpt><trkpt lat="36.66949340921487" lon="-5.129885887205885"><ele>964.75</ele><time>2026-04-25T08:47:32.001Z</time></trkpt><trkpt lat="36.66938134469812" lon="-5.12999041162214"><ele>961.5</ele><time>2026-04-25T08:47:33.001Z</time></trkpt><trkpt lat="36.66927514325183" lon="-5.130089281400296"><ele>958.25</ele><time>2026-04-25T08:47:34.001Z</time></trkpt><trkpt lat="36.66917573014492" lon="-5.130191771055173"><ele>955.0</ele><time>2026-04-25T08:47:35.001Z</time></trkpt><trkpt lat="36.66909106630024" lon="-5.1303068394590605"><ele>955.0</ele><time>2026-04-25T08:47:36.001Z</time></trkpt><trkpt lat="36.669024684239005" lon="-5.130471570469677"><ele>955.0</ele><time>2026-04-25T08:47:37.001Z</time></trkpt><trkpt lat="36.668931658507255" lon="-5.130628114431937"><ele>955.0</ele><time>2026-04-25T08:47:38.001Z</time></trkpt><trkpt lat="36.66885733919758" lon="-5.130797118319198"><ele>963.6666666666666</ele><time>2026-04-25T08:47:39.001Z</time></trkpt><trkpt lat="36.6687797625015" lon="-5.1309679094737"><ele>972.3333333333333</ele><time>2026-04-25T08:47:40Z</time></trkpt><trkpt lat="36.668695080946634" lon="-5.131139028733997"><ele>981.0</ele><time>2026-04-25T08:47:41Z</time></trkpt><trkpt lat="36.66861116859773" lon="-5.131293838266932"><ele>971.3333333333333</ele><time>2026-04-25T08:47:42Z</time></trkpt><trkpt lat="36.668543597065714" lon="-5.13145320285779"><ele>961.6666666666666</ele><time>2026-04-25T08:47:43Z</time></trkpt><trkpt lat="36.6684883507542" lon="-5.131626659534831"><ele>952.0</ele><time>2026-04-25T08:47:44Z</time></trkpt><trkpt lat="36.6684356000301" lon="-5.131814068482622"><ele>952.0</ele><time>2026-04-25T08:47:45Z</time></trkpt><trkpt lat="36.6683970015147" lon="-5.131991796557815"><ele>952.0</ele><time>2026-04-25T08:47:46Z</time></trkpt><trkpt lat="36.668371817288595" lon="-5.132151734211728"><ele>952.0</ele><time>2026-04-25T08:47:47Z</time></trkpt><trkpt lat="36.66833039144905" lon="-5.132283038955051"><ele>952.0</ele><time>2026-04-25T08:47:48Z</time></trkpt><trkpt lat="36.66825059953958" lon="-5.1323813647775065"><ele>951.0</ele><time>2026-04-25T08:47:49Z</time></trkpt><trkpt lat="36.66812676160022" lon="-5.132444615187219"><ele>950.0</ele><time>2026-04-25T08:47:50Z</time></trkpt><trkpt lat="36.66798613588023" lon="-5.13248975569888"><ele>949.0</ele><time>2026-04-25T08:47:51Z</time></trkpt><trkpt lat="36.66784360956193" lon="-5.132548773783298"><ele>948.0</ele><time>2026-04-25T08:47:52Z</time></trkpt><trkpt lat="36.667701046977925" lon="-5.132645279999895"><ele>948.0</ele><time>2026-04-25T08:47:53Z</time></trkpt><trkpt lat="36.6675591232355" lon="-5.132759275125009"><ele>948.0</ele><time>2026-04-25T08:47:54Z</time></trkpt><trkpt lat="36.6674207694332" lon="-5.132879284699937"><ele>948.0</ele><time>2026-04-25T08:47:55Z</time></trkpt><trkpt lat="36.66727700214191" lon="-5.133009902730076"><ele>948.0</ele><time>2026-04-25T08:47:56Z</time></trkpt><trkpt lat="36.66714675025113" lon="-5.13315395242504"><ele>948.0</ele><time>2026-04-25T08:47:57Z</time></trkpt><trkpt lat="36.666988726940446" lon="-5.133264780596043"><ele>948.0</ele><time>2026-04-25T08:47:58Z</time></trkpt><trkpt lat="36.66685261161984" lon="-5.133389027871507"><ele>948.5</ele><time>2026-04-25T08:47:59Z</time></trkpt><trkpt lat="36.666726001365674" lon="-5.133514359001013"><ele>949.0</ele><time>2026-04-25T08:48:00Z</time></trkpt><trkpt lat="36.66661414767659" lon="-5.133632791970777"><ele>949.5</ele><time>2026-04-25T08:48:01Z</time></trkpt><trkpt lat="36.6665112616837" lon="-5.133751485457187"><ele>950.0</ele><time>2026-04-25T08:48:02Z</time></trkpt><trkpt lat="36.66641367960666" lon="-5.133876191401889"><ele>950.0</ele><time>2026-04-25T08:48:03Z</time></trkpt><trkpt lat="36.666318792665145" lon="-5.1340036388945345"><ele>950.0</ele><time>2026-04-25T08:48:04Z</time></trkpt><trkpt lat="36.66623020653804" lon="-5.134119384114083"><ele>950.0</ele><time>2026-04-25T08:48:05Z</time></trkpt><trkpt lat="36.66614179968948" lon="-5.134236376109211"><ele>950.0</ele><time>2026-04-25T08:48:06Z</time></trkpt><trkpt lat="36.66604950626937" lon="-5.13436303888985"><ele>948.25</ele><time>2026-04-25T08:48:07Z</time></trkpt><trkpt lat="36.665954709358815" lon="-5.134497786454491"><ele>946.5</ele><time>2026-04-25T08:48:08Z</time></trkpt><trkpt lat="36.66585903838112" lon="-5.134637475327222"><ele>944.75</ele><time>2026-04-25T08:48:09Z</time></trkpt><trkpt lat="36.665765756733826" lon="-5.134773065114288"><ele>943.0</ele><time>2026-04-25T08:48:10Z</time></trkpt><trkpt lat="36.66567738032335" lon="-5.134903182026236"><ele>950.0</ele><time>2026-04-25T08:48:11Z</time></trkpt><trkpt lat="36.6655929539616" lon="-5.135025212397429"><ele>957.0</ele><time>2026-04-25T08:48:12Z</time></trkpt><trkpt lat="36.665508397177945" lon="-5.135144755379551"><ele>964.0</ele><time>2026-04-25T08:48:13Z</time></trkpt><trkpt lat="36.66542425130252" lon="-5.1352660317814784"><ele>971.0</ele><time>2026-04-25T08:48:14Z</time></trkpt><trkpt lat="36.66534137150739" lon="-5.135384051703333"><ele>968.75</ele><time>2026-04-25T08:48:15Z</time></trkpt><trkpt lat="36.66525935038365" lon="-5.13549190309584"><ele>966.5</ele><time>2026-04-25T08:48:16Z</time></trkpt><trkpt lat="36.665171467753886" lon="-5.135589566816483"><ele>964.25</ele><time>2026-04-25T08:48:17Z</time></trkpt><trkpt lat="36.665085277011904" lon="-5.135678972261773"><ele>962.0</ele><time>2026-04-25T08:48:18Z</time></trkpt><trkpt lat="36.66500107506905" lon="-5.1357602567530725"><ele>962.0</ele><time>2026-04-25T08:48:19Z</time></trkpt><trkpt lat="36.66491279334906" lon="-5.135821875031595"><ele>962.0</ele><time>2026-04-25T08:48:20Z</time></trkpt><trkpt lat="36.66480613072254" lon="-5.135851948564379"><ele>962.0</ele><time>2026-04-25T08:48:21Z</time></trkpt><trkpt lat="36.66469116193404" lon="-5.135846633993049"><ele>962.0</ele><time>2026-04-25T08:48:22Z</time></trkpt><trkpt lat="36.66457878882181" lon="-5.135806996218218"><ele>962.0</ele><time>2026-04-25T08:48:23Z</time></trkpt><trkpt lat="36.66446089652281" lon="-5.135781426123496"><ele>959.6</ele><time>2026-04-25T08:48:24Z</time></trkpt><trkpt lat="36.66437162391315" lon="-5.135733956862019"><ele>957.2</ele><time>2026-04-25T08:48:25Z</time></trkpt><trkpt lat="36.6642711810891" lon="-5.1357121296636725"><ele>954.8</ele><time>2026-04-25T08:48:26Z</time></trkpt><trkpt lat="36.66417759274368" lon="-5.13573781988715"><ele>952.4</ele><time>2026-04-25T08:48:27Z</time></trkpt><trkpt lat="36.66410202733504" lon="-5.135835761851186"><ele>950.0</ele><time>2026-04-25T08:48:28Z</time></trkpt><trkpt lat="36.66401574271208" lon="-5.135942710699443"><ele>950.0</ele><time>2026-04-25T08:48:29Z</time></trkpt><trkpt lat="36.66395738144195" lon="-5.1360883015722205"><ele>950.0</ele><time>2026-04-25T08:48:30Z</time></trkpt><trkpt lat="36.66391039084478" lon="-5.136240138605073"><ele>950.0</ele><time>2026-04-25T08:48:30.999Z</time></trkpt><trkpt lat="36.66387669465553" lon="-5.136385589010117"><ele>950.0</ele><time>2026-04-25T08:48:31.999Z</time></trkpt><trkpt lat="36.66385360984712" lon="-5.13653479642671"><ele>952.5</ele><time>2026-04-25T08:48:32.999Z</time></trkpt><trkpt lat="36.66384230293781" lon="-5.136683504583831"><ele>955.0</ele><time>2026-04-25T08:48:33.999Z</time></trkpt><trkpt lat="36.663847611799454" lon="-5.13683200938559"><ele>957.5</ele><time>2026-04-25T08:48:34.999Z</time></trkpt><trkpt lat="36.66386996437442" lon="-5.136976703096378"><ele>960.0</ele><time>2026-04-25T08:48:35.999Z</time></trkpt><trkpt lat="36.66390061320458" lon="-5.137115110378194"><ele>960.0</ele><time>2026-04-25T08:48:36.999Z</time></trkpt><trkpt lat="36.66393099030563" lon="-5.137240441712721"><ele>960.0</ele><time>2026-04-25T08:48:37.999Z</time></trkpt><trkpt lat="36.66396562100951" lon="-5.137349873087192"><ele>960.0</ele><time>2026-04-25T08:48:38.999Z</time></trkpt><trkpt lat="36.66401208381633" lon="-5.13744825639776"><ele>960.0</ele><time>2026-04-25T08:48:39.999Z</time></trkpt><trkpt lat="36.66406269296994" lon="-5.137530026106305"><ele>960.0</ele><time>2026-04-25T08:48:40.999Z</time></trkpt><trkpt lat="36.66411527103577" lon="-5.137604505045648"><ele>959.2</ele><time>2026-04-25T08:48:41.999Z</time></trkpt><trkpt lat="36.66415851890084" lon="-5.137703559986574"><ele>958.4</ele><time>2026-04-25T08:48:42.999Z</time></trkpt><trkpt lat="36.66417718548807" lon="-5.13783011962133"><ele>957.5999999999999</ele><time>2026-04-25T08:48:43.999Z</time></trkpt><trkpt lat="36.66417055704226" lon="-5.137959349595338"><ele>956.8</ele><time>2026-04-25T08:48:44.999Z</time></trkpt><trkpt lat="36.66414341792132" lon="-5.1380701226120244"><ele>956.0</ele><time>2026-04-25T08:48:45.999Z</time></trkpt><trkpt lat="36.664122466439416" lon="-5.1381863622544"><ele>955.25</ele><time>2026-04-25T08:48:46.999Z</time></trkpt><trkpt lat="36.6641018538777" lon="-5.138321527193757"><ele>954.5</ele><time>2026-04-25T08:48:47.999Z</time></trkpt><trkpt lat="36.66408769347805" lon="-5.1384778018280715"><ele>953.75</ele><time>2026-04-25T08:48:48.999Z</time></trkpt><trkpt lat="36.66407988791691" lon="-5.138628014522505"><ele>953.0</ele><time>2026-04-25T08:48:49.999Z</time></trkpt><trkpt lat="36.6640621688353" lon="-5.138764497750943"><ele>953.0</ele><time>2026-04-25T08:48:50.999Z</time></trkpt><trkpt lat="36.66403859503379" lon="-5.138901911740828"><ele>953.0</ele><time>2026-04-25T08:48:51.999Z</time></trkpt><trkpt lat="36.66401259155378" lon="-5.139043605171385"><ele>953.0</ele><time>2026-04-25T08:48:52.999Z</time></trkpt><trkpt lat="36.66397922227874" lon="-5.139189931187998"><ele>953.0</ele><time>2026-04-25T08:48:53.999Z</time></trkpt><trkpt lat="36.66392943998384" lon="-5.139333209202516"><ele>955.5</ele><time>2026-04-25T08:48:54.999Z</time></trkpt><trkpt lat="36.66386313738738" lon="-5.139462756165547"><ele>958.0</ele><time>2026-04-25T08:48:55.999Z</time></trkpt><trkpt lat="36.66378260832084" lon="-5.139578222210727"><ele>960.5</ele><time>2026-04-25T08:48:56.999Z</time></trkpt><trkpt lat="36.66369791569409" lon="-5.139675218002412"><ele>963.0</ele><time>2026-04-25T08:48:57.999Z</time></trkpt><trkpt lat="36.66362272168293" lon="-5.139761743636903"><ele>959.5</ele><time>2026-04-25T08:48:58.999Z</time></trkpt><trkpt lat="36.663553084724" lon="-5.139851823773055"><ele>956.0</ele><time>2026-04-25T08:48:59.999Z</time></trkpt><trkpt lat="36.66348059689508" lon="-5.139954017795575"><ele>952.5</ele><time>2026-04-25T08:49:00.999Z</time></trkpt><trkpt lat="36.66340209001062" lon="-5.140067035991166"><ele>949.0</ele><time>2026-04-25T08:49:01.999Z</time></trkpt><trkpt lat="36.663325120030855" lon="-5.140181827063789"><ele>949.0</ele><time>2026-04-25T08:49:02.999Z</time></trkpt><trkpt lat="36.66325883172813" lon="-5.140295339568701"><ele>949.0</ele><time>2026-04-25T08:49:03.999Z</time></trkpt><trkpt lat="36.66322191361283" lon="-5.140415146378774"><ele>949.0</ele><time>2026-04-25T08:49:04.999Z</time></trkpt><trkpt lat="36.66320765149912" lon="-5.140553936835724"><ele>949.0</ele><time>2026-04-25T08:49:05.999Z</time></trkpt><trkpt lat="36.66322136931277" lon="-5.140710222901187"><ele>950.0</ele><time>2026-04-25T08:49:06.999Z</time></trkpt><trkpt lat="36.66325287809713" lon="-5.140879741758936"><ele>951.0</ele><time>2026-04-25T08:49:07.999Z</time></trkpt><trkpt lat="36.66328830665778" lon="-5.141064460197123"><ele>952.0</ele><time>2026-04-25T08:49:08.999Z</time></trkpt><trkpt lat="36.663322722364924" lon="-5.141260204258098"><ele>952.0</ele><time>2026-04-25T08:49:09.999Z</time></trkpt><trkpt lat="36.66335880198823" lon="-5.141463347421442"><ele>952.0</ele><time>2026-04-25T08:49:10.999Z</time></trkpt><trkpt lat="36.663391476221854" lon="-5.141647930212674"><ele>952.0</ele><time>2026-04-25T08:49:11.999Z</time></trkpt><trkpt lat="36.66344317981607" lon="-5.141808403814217"><ele>948.3333333333333</ele><time>2026-04-25T08:49:12.999Z</time></trkpt><trkpt lat="36.66352635258422" lon="-5.141957770881178"><ele>944.6666666666667</ele><time>2026-04-25T08:49:13.999Z</time></trkpt><trkpt lat="36.66362955411983" lon="-5.142099770445074"><ele>941.0</ele><time>2026-04-25T08:49:14.999Z</time></trkpt><trkpt lat="36.66373433042344" lon="-5.142243472997625"><ele>946.5</ele><time>2026-04-25T08:49:15.999Z</time></trkpt><trkpt lat="36.663823206117776" lon="-5.14238665851487"><ele>952.0</ele><time>2026-04-25T08:49:16.999Z</time></trkpt><trkpt lat="36.66389907263095" lon="-5.142528413909709"><ele>957.5</ele><time>2026-04-25T08:49:17.999Z</time></trkpt><trkpt lat="36.66396074530343" lon="-5.14267219785042"><ele>963.0</ele><time>2026-04-25T08:49:18.999Z</time></trkpt><trkpt lat="36.66401626353037" lon="-5.142824983831368"><ele>963.0</ele><time>2026-04-25T08:49:19.999Z</time></trkpt><trkpt lat="36.664058579833565" lon="-5.14299166770923"><ele>963.0</ele><time>2026-04-25T08:49:20.999Z</time></trkpt><trkpt lat="36.66408692145681" lon="-5.1431697641306435"><ele>963.0</ele><time>2026-04-25T08:49:21.999Z</time></trkpt><trkpt lat="36.66411214349695" lon="-5.143346605640746"><ele>963.0</ele><time>2026-04-25T08:49:22.999Z</time></trkpt><trkpt lat="36.66414268736114" lon="-5.143515815453463"><ele>961.75</ele><time>2026-04-25T08:49:23.999Z</time></trkpt><trkpt lat="36.664171334487165" lon="-5.143673481293931"><ele>960.5</ele><time>2026-04-25T08:49:24.999Z</time></trkpt><trkpt lat="36.664183107845695" lon="-5.143827270371661"><ele>959.25</ele><time>2026-04-25T08:49:25.999Z</time></trkpt><trkpt lat="36.66416548741167" lon="-5.1439797385287225"><ele>958.0</ele><time>2026-04-25T08:49:26.999Z</time></trkpt><trkpt lat="36.66409908751807" lon="-5.144131769617789"><ele>958.0</ele><time>2026-04-25T08:49:27.999Z</time></trkpt><trkpt lat="36.664005678102896" lon="-5.144270267973462"><ele>958.0</ele><time>2026-04-25T08:49:28.999Z</time></trkpt><trkpt lat="36.663906927679726" lon="-5.144392585714813"><ele>958.0</ele><time>2026-04-25T08:49:29.999Z</time></trkpt><trkpt lat="36.66382118123294" lon="-5.144515931482429"><ele>958.0</ele><time>2026-04-25T08:49:30.999Z</time></trkpt><trkpt lat="36.6637476542377" lon="-5.144642338919994"><ele>958.0</ele><time>2026-04-25T08:49:32Z</time></trkpt><trkpt lat="36.66368432167057" lon="-5.144772614934736"><ele>958.0</ele><time>2026-04-25T08:49:33Z</time></trkpt><trkpt lat="36.66362875928942" lon="-5.144906930437979"><ele>958.0</ele><time>2026-04-25T08:49:34Z</time></trkpt><trkpt lat="36.6635829039499" lon="-5.145048305261016"><ele>958.0</ele><time>2026-04-25T08:49:35Z</time></trkpt><trkpt lat="36.663557353238424" lon="-5.145202785512196"><ele>961.75</ele><time>2026-04-25T08:49:36Z</time></trkpt><trkpt lat="36.66355648853398" lon="-5.145363991690216"><ele>965.5</ele><time>2026-04-25T08:49:37Z</time></trkpt><trkpt lat="36.66359073723648" lon="-5.145532761945392"><ele>969.25</ele><time>2026-04-25T08:49:38Z</time></trkpt><trkpt lat="36.66364951440414" lon="-5.145697822961476"><ele>973.0</ele><time>2026-04-25T08:49:39Z</time></trkpt><trkpt lat="36.663728105605436" lon="-5.14584226769598"><ele>973.0</ele><time>2026-04-25T08:49:40Z</time></trkpt><trkpt lat="36.66379752674232" lon="-5.1459524058242545"><ele>973.0</ele><time>2026-04-25T08:49:41Z</time></trkpt><trkpt lat="36.663829918518694" lon="-5.146060561291301"><ele>973.0</ele><time>2026-04-25T08:49:42Z</time></trkpt><trkpt lat="36.663822264959165" lon="-5.146175987681962"><ele>973.0</ele><time>2026-04-25T08:49:43Z</time></trkpt><trkpt lat="36.66376747310128" lon="-5.1462882758943085"><ele>973.0</ele><time>2026-04-25T08:49:44Z</time></trkpt><trkpt lat="36.66368442341902" lon="-5.146377670672092"><ele>966.2</ele><time>2026-04-25T08:49:45Z</time></trkpt><trkpt lat="36.66360591331151" lon="-5.146460105232977"><ele>959.4</ele><time>2026-04-25T08:49:46Z</time></trkpt><trkpt lat="36.663551339927665" lon="-5.14655359126687"><ele>952.6000000000001</ele><time>2026-04-25T08:49:47Z</time></trkpt><trkpt lat="36.66351913883381" lon="-5.146659416091205"><ele>945.8000000000001</ele><time>2026-04-25T08:49:48Z</time></trkpt><trkpt lat="36.663500889209544" lon="-5.146781270344045"><ele>939.0</ele><time>2026-04-25T08:49:49Z</time></trkpt><trkpt lat="36.66348601718518" lon="-5.1469092187675916"><ele>939.0</ele><time>2026-04-25T08:49:50Z</time></trkpt><trkpt lat="36.663486925225456" lon="-5.14703119111565"><ele>939.0000000000001</ele><time>2026-04-25T08:49:51Z</time></trkpt><trkpt lat="36.66352220675333" lon="-5.1471356564441795"><ele>939.0000000000001</ele><time>2026-04-25T08:49:52Z</time></trkpt><trkpt lat="36.663599898262724" lon="-5.147219865337566"><ele>939.0</ele><time>2026-04-25T08:49:53Z</time></trkpt><trkpt lat="36.663699862865315" lon="-5.147300901292435"><ele>939.0</ele><time>2026-04-25T08:49:54Z</time></trkpt><trkpt lat="36.66378999215781" lon="-5.147403595869731"><ele>943.2</ele><time>2026-04-25T08:49:55Z</time></trkpt><trkpt lat="36.66386768136023" lon="-5.147508065349793"><ele>947.4000000000001</ele><time>2026-04-25T08:49:56Z</time></trkpt><trkpt lat="36.6639392526046" lon="-5.1475970686552905"><ele>951.6</ele><time>2026-04-25T08:49:57Z</time></trkpt><trkpt lat="36.66401529032947" lon="-5.147667744846348"><ele>955.8</ele><time>2026-04-25T08:49:58Z</time></trkpt><trkpt lat="36.66409291764391" lon="-5.147734892578959"><ele>960.0</ele><time>2026-04-25T08:49:59Z</time></trkpt><trkpt lat="36.66415882733072" lon="-5.147812212815816"><ele>960.0</ele><time>2026-04-25T08:50:00Z</time></trkpt><trkpt lat="36.6642050919899" lon="-5.147910337568032"><ele>960.0</ele><time>2026-04-25T08:50:01Z</time></trkpt><trkpt lat="36.664227435273034" lon="-5.1480276699671705"><ele>960.0</ele><time>2026-04-25T08:50:02Z</time></trkpt><trkpt lat="36.664226416486834" lon="-5.148154314529396"><ele>960.0</ele><time>2026-04-25T08:50:03Z</time></trkpt><trkpt lat="36.66418898904198" lon="-5.148270004139138"><ele>960.0</ele><time>2026-04-25T08:50:04Z</time></trkpt><trkpt lat="36.66411838347492" lon="-5.148372233882731"><ele>958.75</ele><time>2026-04-25T08:50:05Z</time></trkpt><trkpt lat="36.66402989672213" lon="-5.148469165665531"><ele>957.5</ele><time>2026-04-25T08:50:06Z</time></trkpt><trkpt lat="36.663948385481554" lon="-5.148586149367029"><ele>956.25</ele><time>2026-04-25T08:50:07Z</time></trkpt><trkpt lat="36.66386226963796" lon="-5.14871969917239"><ele>955.0</ele><time>2026-04-25T08:50:08Z</time></trkpt><trkpt lat="36.66377256404361" lon="-5.1488529658995255"><ele>955.0</ele><time>2026-04-25T08:50:09Z</time></trkpt><trkpt lat="36.663664461956664" lon="-5.148981455202793"><ele>955.0</ele><time>2026-04-25T08:50:10Z</time></trkpt><trkpt lat="36.6635407545385" lon="-5.14908040546764"><ele>955.0</ele><time>2026-04-25T08:50:11Z</time></trkpt><trkpt lat="36.66342629267582" lon="-5.149190360612869"><ele>955.0</ele><time>2026-04-25T08:50:12Z</time></trkpt><trkpt lat="36.66328833351804" lon="-5.149245076779862"><ele>951.0</ele><time>2026-04-25T08:50:13Z</time></trkpt><trkpt lat="36.663164119343655" lon="-5.149306192385682"><ele>947.0</ele><time>2026-04-25T08:50:14Z</time></trkpt><trkpt lat="36.6630588306021" lon="-5.149357581676887"><ele>943.0</ele><time>2026-04-25T08:50:15Z</time></trkpt><trkpt lat="36.66295671615506" lon="-5.149415316090597"><ele>939.0</ele><time>2026-04-25T08:50:16Z</time></trkpt><trkpt lat="36.662850579241635" lon="-5.149472722537414"><ele>935.8000000000001</ele><time>2026-04-25T08:50:17Z</time></trkpt><trkpt lat="36.66274958088345" lon="-5.1495232831982145"><ele>932.6000000000001</ele><time>2026-04-25T08:50:18Z</time></trkpt><trkpt lat="36.66265360212392" lon="-5.149563216702391"><ele>929.4</ele><time>2026-04-25T08:50:19Z</time></trkpt><trkpt lat="36.662565281564966" lon="-5.149620117769694"><ele>926.2</ele><time>2026-04-25T08:50:20Z</time></trkpt><trkpt lat="36.66248583270051" lon="-5.149687164789939"><ele>923.0</ele><time>2026-04-25T08:50:21Z</time></trkpt><trkpt lat="36.66241122214049" lon="-5.149765504282399"><ele>923.0</ele><time>2026-04-25T08:50:22Z</time></trkpt><trkpt lat="36.662334026870504" lon="-5.149858525845015"><ele>923.0</ele><time>2026-04-25T08:50:23Z</time></trkpt><trkpt lat="36.66224803660305" lon="-5.149949079433104"><ele>923.0</ele><time>2026-04-25T08:50:24Z</time></trkpt><trkpt lat="36.66216209401517" lon="-5.150050936100512"><ele>923.0</ele><time>2026-04-25T08:50:25Z</time></trkpt><trkpt lat="36.6620625655297" lon="-5.150149867664478"><ele>927.25</ele><time>2026-04-25T08:50:25.999Z</time></trkpt><trkpt lat="36.66195902816791" lon="-5.150246686759506"><ele>931.5</ele><time>2026-04-25T08:50:26.999Z</time></trkpt><trkpt lat="36.66185470111143" lon="-5.150352162911938"><ele>935.75</ele><time>2026-04-25T08:50:27.999Z</time></trkpt><trkpt lat="36.6617465639426" lon="-5.150463326413697"><ele>940.0</ele><time>2026-04-25T08:50:28.999Z</time></trkpt><trkpt lat="36.661637116501254" lon="-5.1505757405537285"><ele>940.0</ele><time>2026-04-25T08:50:29.999Z</time></trkpt><trkpt lat="36.66152957146993" lon="-5.150686201344164"><ele>940.0</ele><time>2026-04-25T08:50:30.999Z</time></trkpt><trkpt lat="36.66142506491262" lon="-5.150793540708831"><ele>940.0</ele><time>2026-04-25T08:50:31.999Z</time></trkpt><trkpt lat="36.66132736952289" lon="-5.1508938843281555"><ele>940.0</ele><time>2026-04-25T08:50:32.999Z</time></trkpt><trkpt lat="36.66123053003017" lon="-5.150985427630038"><ele>941.0</ele><time>2026-04-25T08:50:33.999Z</time></trkpt><trkpt lat="36.66113886978583" lon="-5.151067815464193"><ele>942.0</ele><time>2026-04-25T08:50:34.999Z</time></trkpt><trkpt lat="36.66103819790836" lon="-5.151124246041272"><ele>943.0</ele><time>2026-04-25T08:50:35.999Z</time></trkpt><trkpt lat="36.660940813291845" lon="-5.151162497783871"><ele>944.0</ele><time>2026-04-25T08:50:36.999Z</time></trkpt><trkpt lat="36.66085311082748" lon="-5.151188216225863"><ele>945.0</ele><time>2026-04-25T08:50:37.999Z</time></trkpt><trkpt lat="36.66076625230683" lon="-5.151226170842893"><ele>945.0</ele><time>2026-04-25T08:50:38.999Z</time></trkpt><trkpt lat="36.66068516076972" lon="-5.151281057231749"><ele>945.0</ele><time>2026-04-25T08:50:39.999Z</time></trkpt><trkpt lat="36.660598520818766" lon="-5.151359061186774"><ele>945.0</ele><time>2026-04-25T08:50:40.999Z</time></trkpt><trkpt lat="36.66051596118407" lon="-5.1514462075877665"><ele>945.0</ele><time>2026-04-25T08:50:41.999Z</time></trkpt><trkpt lat="36.6604385862092" lon="-5.151537436587688"><ele>945.0</ele><time>2026-04-25T08:50:42.999Z</time></trkpt><trkpt lat="36.66036799433822" lon="-5.151632663213226"><ele>946.0</ele><time>2026-04-25T08:50:43.999Z</time></trkpt><trkpt lat="36.660308117790024" lon="-5.151733467050248"><ele>947.0</ele><time>2026-04-25T08:50:44.999Z</time></trkpt><trkpt lat="36.66029247307707" lon="-5.1518610319319125"><ele>948.0</ele><time>2026-04-25T08:50:45.999Z</time></trkpt><trkpt lat="36.660279890976966" lon="-5.15199041855479"><ele>949.0</ele><time>2026-04-25T08:50:46.999Z</time></trkpt><trkpt lat="36.660255703023175" lon="-5.15211764587363"><ele>950.0</ele><time>2026-04-25T08:50:47.999Z</time></trkpt><trkpt lat="36.66023598031502" lon="-5.152238138082465"><ele>947.2</ele><time>2026-04-25T08:50:48.999Z</time></trkpt><trkpt lat="36.66019958900344" lon="-5.152357962415114"><ele>944.4</ele><time>2026-04-25T08:50:49.999Z</time></trkpt><trkpt lat="36.66016529781684" lon="-5.152486888776538"><ele>941.5999999999999</ele><time>2026-04-25T08:50:50.999Z</time></trkpt><trkpt lat="36.6601372484184" lon="-5.152613342553342"><ele>938.8</ele><time>2026-04-25T08:50:51.999Z</time></trkpt><trkpt lat="36.660108694657964" lon="-5.152733907980929"><ele>936.0</ele><time>2026-04-25T08:50:52.999Z</time></trkpt><trkpt lat="36.660067174133076" lon="-5.152839547028813"><ele>934.8333333333334</ele><time>2026-04-25T08:50:53.999Z</time></trkpt><trkpt lat="36.660017429035655" lon="-5.152938763211046"><ele>933.6666666666667</ele><time>2026-04-25T08:50:54.999Z</time></trkpt><trkpt lat="36.659970053808166" lon="-5.153027155329578"><ele>932.5</ele><time>2026-04-25T08:50:55.999Z</time></trkpt><trkpt lat="36.65993512760591" lon="-5.1531091009400765"><ele>931.3333333333334</ele><time>2026-04-25T08:50:56.999Z</time></trkpt><trkpt lat="36.65991552304552" lon="-5.1531969180643244"><ele>930.1666666666667</ele><time>2026-04-25T08:50:57.999Z</time></trkpt><trkpt lat="36.65991144667367" lon="-5.153288449651312"><ele>929.0</ele><time>2026-04-25T08:50:58.999Z</time></trkpt><trkpt lat="36.65993913235232" lon="-5.153375072660784"><ele>928.5000000000001</ele><time>2026-04-25T08:50:59.999Z</time></trkpt><trkpt lat="36.65999508958951" lon="-5.1534464997614275"><ele>928.0</ele><time>2026-04-25T08:51:00.999Z</time></trkpt><trkpt lat="36.660046636993506" lon="-5.153507980764018"><ele>927.5</ele><time>2026-04-25T08:51:01.999Z</time></trkpt><trkpt lat="36.66008984596552" lon="-5.153567747035522"><ele>927.0</ele><time>2026-04-25T08:51:02.999Z</time></trkpt><trkpt lat="36.66012250299664" lon="-5.153643396051143"><ele>926.5000000000001</ele><time>2026-04-25T08:51:03.999Z</time></trkpt><trkpt lat="36.660137633917756" lon="-5.1537387641036165"><ele>926.0</ele><time>2026-04-25T08:51:04.999Z</time></trkpt><trkpt lat="36.66012924040536" lon="-5.153851078719602"><ele>926.0000000000001</ele><time>2026-04-25T08:51:05.999Z</time></trkpt><trkpt lat="36.66010062744283" lon="-5.153963525632233"><ele>926.0</ele><time>2026-04-25T08:51:06.999Z</time></trkpt><trkpt lat="36.66005957980287" lon="-5.154077542646938"><ele>926.0</ele><time>2026-04-25T08:51:07.999Z</time></trkpt><trkpt lat="36.66001996080137" lon="-5.1541790114332775"><ele>926.0</ele><time>2026-04-25T08:51:08.999Z</time></trkpt><trkpt lat="36.6599844256751" lon="-5.154269855485998"><ele>926.0000000000001</ele><time>2026-04-25T08:51:09.999Z</time></trkpt><trkpt lat="36.659940846283185" lon="-5.154347867431856"><ele>926.0</ele><time>2026-04-25T08:51:10.999Z</time></trkpt><trkpt lat="36.65988894986741" lon="-5.1544106594885415"><ele>925.1999999999999</ele><time>2026-04-25T08:51:11.999Z</time></trkpt><trkpt lat="36.65982038361542" lon="-5.154475672419682"><ele>924.3999999999999</ele><time>2026-04-25T08:51:12.999Z</time></trkpt><trkpt lat="36.65974130635778" lon="-5.154543334026005"><ele>923.6</ele><time>2026-04-25T08:51:13.999Z</time></trkpt><trkpt lat="36.65966210643023" lon="-5.15463476845557"><ele>922.8</ele><time>2026-04-25T08:51:14.999Z</time></trkpt><trkpt lat="36.6595870261784" lon="-5.154743202520608"><ele>922.0</ele><time>2026-04-25T08:51:15.999Z</time></trkpt><trkpt lat="36.65951974206069" lon="-5.154853424691388"><ele>922.4000000000001</ele><time>2026-04-25T08:51:16.999Z</time></trkpt><trkpt lat="36.65946611878806" lon="-5.154971762404626"><ele>922.8000000000001</ele><time>2026-04-25T08:51:17.999Z</time></trkpt><trkpt lat="36.65942792256752" lon="-5.1550958256575505"><ele>923.2</ele><time>2026-04-25T08:51:18.999Z</time></trkpt><trkpt lat="36.65941180089273" lon="-5.155226019421509"><ele>923.6</ele><time>2026-04-25T08:51:19.999Z</time></trkpt><trkpt lat="36.65942245089648" lon="-5.15535632667501"><ele>924.0</ele><time>2026-04-25T08:51:20.999Z</time></trkpt><trkpt lat="36.65944229950974" lon="-5.155498150025218"><ele>924.0</ele><time>2026-04-25T08:51:21.999Z</time></trkpt><trkpt lat="36.65945790741359" lon="-5.155634584387108"><ele>924.0000000000001</ele><time>2026-04-25T08:51:22.999Z</time></trkpt><trkpt lat="36.65944112108733" lon="-5.155769273185063"><ele>924.0000000000001</ele><time>2026-04-25T08:51:23.999Z</time></trkpt><trkpt lat="36.65940907259166" lon="-5.155895217796618"><ele>924.0</ele><time>2026-04-25T08:51:24.999Z</time></trkpt><trkpt lat="36.65935962455553" lon="-5.156006030306979"><ele>924.0</ele><time>2026-04-25T08:51:25.999Z</time></trkpt><trkpt lat="36.65924609627227" lon="-5.156054979765771"><ele>919.75</ele><time>2026-04-25T08:51:26.999Z</time></trkpt><trkpt lat="36.65912537526346" lon="-5.156086102402702"><ele>915.5</ele><time>2026-04-25T08:51:27.999Z</time></trkpt><trkpt lat="36.65898521030451" lon="-5.156030331931651"><ele>911.25</ele><time>2026-04-25T08:51:28.999Z</time></trkpt><trkpt lat="36.658840848605706" lon="-5.155973031774375"><ele>907.0</ele><time>2026-04-25T08:51:29.999Z</time></trkpt><trkpt lat="36.65868874767984" lon="-5.155925429594831"><ele>908.0</ele><time>2026-04-25T08:51:30.998Z</time></trkpt><trkpt lat="36.65851244937912" lon="-5.155894795181471"><ele>909.0</ele><time>2026-04-25T08:51:31.998Z</time></trkpt><trkpt lat="36.658322703525656" lon="-5.155849945477079"><ele>910.0</ele><time>2026-04-25T08:51:32.998Z</time></trkpt><trkpt lat="36.65814775866551" lon="-5.155746955960193"><ele>904.3333333333333</ele><time>2026-04-25T08:51:33.998Z</time></trkpt><trkpt lat="36.657958535122425" lon="-5.15566133939618"><ele>898.6666666666667</ele><time>2026-04-25T08:51:34.998Z</time></trkpt><trkpt lat="36.657782982884065" lon="-5.155571663441036"><ele>893.0</ele><time>2026-04-25T08:51:35.998Z</time></trkpt><trkpt lat="36.6576216168742" lon="-5.155502976707028"><ele>892.3333333333334</ele><time>2026-04-25T08:51:36.998Z</time></trkpt><trkpt lat="36.65746077675736" lon="-5.155438486384499"><ele>891.6666666666667</ele><time>2026-04-25T08:51:38Z</time></trkpt><trkpt lat="36.65729612474208" lon="-5.155374997214509"><ele>891.0</ele><time>2026-04-25T08:51:39Z</time></trkpt><trkpt lat="36.65713293473146" lon="-5.155311876482282"><ele>891.0</ele><time>2026-04-25T08:51:40Z</time></trkpt><trkpt lat="36.65697980045217" lon="-5.155241485988431"><ele>891.0</ele><time>2026-04-25T08:51:41Z</time></trkpt><trkpt lat="36.656824027299244" lon="-5.1552508890742255"><ele>891.0</ele><time>2026-04-25T08:51:42Z</time></trkpt><trkpt lat="36.65666812880773" lon="-5.1552754748288026"><ele>892.0</ele><time>2026-04-25T08:51:43Z</time></trkpt><trkpt lat="36.65649542644252" lon="-5.155320255749223"><ele>893.0</ele><time>2026-04-25T08:51:44Z</time></trkpt><trkpt lat="36.65632051817127" lon="-5.15535861408688"><ele>894.0</ele><time>2026-04-25T08:51:45Z</time></trkpt><trkpt lat="36.656139625722425" lon="-5.155404513589951"><ele>894.6666666666667</ele><time>2026-04-25T08:51:46Z</time></trkpt><trkpt lat="36.65596556641783" lon="-5.1554041206973675"><ele>895.3333333333334</ele><time>2026-04-25T08:51:47Z</time></trkpt><trkpt lat="36.65580592828539" lon="-5.155404772232815"><ele>896.0</ele><time>2026-04-25T08:51:48Z</time></trkpt><trkpt lat="36.65567534928763" lon="-5.155394727026857"><ele>896.0</ele><time>2026-04-25T08:51:49Z</time></trkpt><trkpt lat="36.65555665340977" lon="-5.15537279011611"><ele>896.0</ele><time>2026-04-25T08:51:50Z</time></trkpt><trkpt lat="36.65545381658057" lon="-5.155419619970113"><ele>896.0</ele><time>2026-04-25T08:51:51Z</time></trkpt><trkpt lat="36.65539395386076" lon="-5.155533665370287"><ele>896.0</ele><time>2026-04-25T08:51:52Z</time></trkpt><trkpt lat="36.65534178292659" lon="-5.155668007130266"><ele>898.5</ele><time>2026-04-25T08:51:53Z</time></trkpt><trkpt lat="36.65533424701206" lon="-5.155844021184748"><ele>901.0</ele><time>2026-04-25T08:51:54Z</time></trkpt><trkpt lat="36.655350898777996" lon="-5.156034928657176"><ele>903.5</ele><time>2026-04-25T08:51:55Z</time></trkpt><trkpt lat="36.65538894184672" lon="-5.156211089965388"><ele>906.0</ele><time>2026-04-25T08:51:56Z</time></trkpt><trkpt lat="36.65543593558346" lon="-5.156352498807378"><ele>906.0</ele><time>2026-04-25T08:51:57Z</time></trkpt><trkpt lat="36.655462124305046" lon="-5.1564582985775695"><ele>905.9999999999999</ele><time>2026-04-25T08:51:58Z</time></trkpt><trkpt lat="36.65543383365171" lon="-5.15654409724606"><ele>905.9999999999999</ele><time>2026-04-25T08:51:59Z</time></trkpt><trkpt lat="36.65535628388604" lon="-5.15661335007692"><ele>906.0</ele><time>2026-04-25T08:52:00Z</time></trkpt><trkpt lat="36.655245539556" lon="-5.15665808752704"><ele>906.0</ele><time>2026-04-25T08:52:01Z</time></trkpt><trkpt lat="36.655103132654496" lon="-5.156691565031746"><ele>901.3333333333333</ele><time>2026-04-25T08:52:02Z</time></trkpt><trkpt lat="36.65495336243192" lon="-5.1567495911450125"><ele>896.6666666666666</ele><time>2026-04-25T08:52:03Z</time></trkpt><trkpt lat="36.65480829261095" lon="-5.156830199153155"><ele>892.0</ele><time>2026-04-25T08:52:04Z</time></trkpt><trkpt lat="36.6546401352081" lon="-5.156809366656659"><ele>892.0</ele><time>2026-04-25T08:52:05Z</time></trkpt><trkpt lat="36.65449005045373" lon="-5.156778697390035"><ele>892.0</ele><time>2026-04-25T08:52:06Z</time></trkpt><trkpt lat="36.65434661219931" lon="-5.156791056734734"><ele>892.0</ele><time>2026-04-25T08:52:07Z</time></trkpt><trkpt lat="36.654221817881144" lon="-5.156870721577206"><ele>892.0</ele><time>2026-04-25T08:52:08Z</time></trkpt><trkpt lat="36.65409007330877" lon="-5.156996090084138"><ele>887.6666666666666</ele><time>2026-04-25T08:52:09Z</time></trkpt><trkpt lat="36.65393876463064" lon="-5.157109162990394"><ele>883.3333333333333</ele><time>2026-04-25T08:52:10Z</time></trkpt><trkpt lat="36.65377524923735" lon="-5.157210181317369"><ele>879.0</ele><time>2026-04-25T08:52:11Z</time></trkpt><trkpt lat="36.65358858641989" lon="-5.157250295732688"><ele>874.6666666666667</ele><time>2026-04-25T08:52:12Z</time></trkpt><trkpt lat="36.653411832827544" lon="-5.157248253556109"><ele>870.3333333333334</ele><time>2026-04-25T08:52:13Z</time></trkpt><trkpt lat="36.65324530408494" lon="-5.157240629238279"><ele>866.0</ele><time>2026-04-25T08:52:14Z</time></trkpt><trkpt lat="36.653081631370526" lon="-5.157232619685648"><ele>866.0</ele><time>2026-04-25T08:52:15Z</time></trkpt><trkpt lat="36.652923084954445" lon="-5.1572334701192055"><ele>866.0</ele><time>2026-04-25T08:52:16Z</time></trkpt><trkpt lat="36.65278037279072" lon="-5.157251566723965"><ele>866.0</ele><time>2026-04-25T08:52:17Z</time></trkpt><trkpt lat="36.65264568214414" lon="-5.157259216952155"><ele>866.0</ele><time>2026-04-25T08:52:18Z</time></trkpt><trkpt lat="36.65251309716076" lon="-5.157067727837601"><ele>865.3333333333334</ele><time>2026-04-25T08:52:19Z</time></trkpt><trkpt lat="36.65239249131005" lon="-5.156917860745555"><ele>864.6666666666667</ele><time>2026-04-25T08:52:20Z</time></trkpt><trkpt lat="36.652299067471816" lon="-5.156755606287168"><ele>864.0</ele><time>2026-04-25T08:52:21Z</time></trkpt><trkpt lat="36.65223512941934" lon="-5.156579227845885"><ele>860.75</ele><time>2026-04-25T08:52:22Z</time></trkpt><trkpt lat="36.65218114271907" lon="-5.156405511614563"><ele>857.5</ele><time>2026-04-25T08:52:22.999Z</time></trkpt><trkpt lat="36.65213951465486" lon="-5.156237193718925"><ele>854.25</ele><time>2026-04-25T08:52:23.999Z</time></trkpt><trkpt lat="36.652100815350245" lon="-5.156082440519566"><ele>851.0</ele><time>2026-04-25T08:52:24.999Z</time></trkpt><trkpt lat="36.652045952233955" lon="-5.15595506451264"><ele>851.0</ele><time>2026-04-25T08:52:25.999Z</time></trkpt><trkpt lat="36.651970487162224" lon="-5.155866935630263"><ele>851.0</ele><time>2026-04-25T08:52:26.999Z</time></trkpt><trkpt lat="36.651860130343145" lon="-5.1558480652364675"><ele>851.0</ele><time>2026-04-25T08:52:27.999Z</time></trkpt><trkpt lat="36.65172965069244" lon="-5.155842890865037"><ele>851.0</ele><time>2026-04-25T08:52:28.999Z</time></trkpt><trkpt lat="36.6515814829661" lon="-5.155867337489536"><ele>851.6666666666667</ele><time>2026-04-25T08:52:29.999Z</time></trkpt><trkpt lat="36.651428452109315" lon="-5.155915743065097"><ele>852.3333333333333</ele><time>2026-04-25T08:52:30.999Z</time></trkpt><trkpt lat="36.651271748983916" lon="-5.1559778521314445"><ele>853.0</ele><time>2026-04-25T08:52:31.999Z</time></trkpt><trkpt lat="36.651125441691114" lon="-5.156054972454345"><ele>848.5</ele><time>2026-04-25T08:52:32.999Z</time></trkpt><trkpt lat="36.650985946340604" lon="-5.156135983093775"><ele>844.0</ele><time>2026-04-25T08:52:33.999Z</time></trkpt><trkpt lat="36.65086383779664" lon="-5.156238818723353"><ele>839.5</ele><time>2026-04-25T08:52:34.999Z</time></trkpt><trkpt lat="36.65073719900696" lon="-5.156324807421604"><ele>835.0</ele><time>2026-04-25T08:52:35.999Z</time></trkpt><trkpt lat="36.65060291796443" lon="-5.156380755853501"><ele>835.0</ele><time>2026-04-25T08:52:36.999Z</time></trkpt><trkpt lat="36.650459345489594" lon="-5.156410584197332"><ele>835.0</ele><time>2026-04-25T08:52:37.999Z</time></trkpt><trkpt lat="36.650321717652986" lon="-5.156430930429111"><ele>835.0</ele><time>2026-04-25T08:52:38.999Z</time></trkpt><trkpt lat="36.650188313902134" lon="-5.156483434019653"><ele>835.0</ele><time>2026-04-25T08:52:39.999Z</time></trkpt><trkpt lat="36.65008365589288" lon="-5.156618975227404"><ele>835.5</ele><time>2026-04-25T08:52:40.999Z</time></trkpt><trkpt lat="36.64995169251551" lon="-5.156695932797008"><ele>836.0</ele><time>2026-04-25T08:52:41.999Z</time></trkpt><trkpt lat="36.649847662502474" lon="-5.156772552692813"><ele>836.5</ele><time>2026-04-25T08:52:42.999Z</time></trkpt><trkpt lat="36.64974128135621" lon="-5.1568374977687474"><ele>837.0</ele><time>2026-04-25T08:52:43.999Z</time></trkpt><trkpt lat="36.64964253060022" lon="-5.156905461674777"><ele>837.0</ele><time>2026-04-25T08:52:44.999Z</time></trkpt><trkpt lat="36.64955612779256" lon="-5.1569681478189215"><ele>837.0</ele><time>2026-04-25T08:52:45.999Z</time></trkpt><trkpt lat="36.649481891166694" lon="-5.1570169442592615"><ele>837.0</ele><time>2026-04-25T08:52:46.999Z</time></trkpt><trkpt lat="36.64942912801287" lon="-5.157080801783764"><ele>837.0</ele><time>2026-04-25T08:52:47.999Z</time></trkpt><trkpt lat="36.64935189391955" lon="-5.1571708770487"><ele>837.0</ele><time>2026-04-25T08:52:49.999Z</time></trkpt><trkpt lat="36.649229729463045" lon="-5.157064219809077"><ele>836.0</ele><time>2026-04-25T08:52:50.999Z</time></trkpt><trkpt lat="36.64916199909178" lon="-5.157019682671472"><ele>835.0</ele><time>2026-04-25T08:52:51.999Z</time></trkpt><trkpt lat="36.64908560352366" lon="-5.156966672010937"><ele>834.0</ele><time>2026-04-25T08:52:52.999Z</time></trkpt><trkpt lat="36.64899296023586" lon="-5.156922940966837"><ele>833.0</ele><time>2026-04-25T08:52:53.999Z</time></trkpt><trkpt lat="36.64891725328344" lon="-5.1568692602595"><ele>832.0</ele><time>2026-04-25T08:52:54.999Z</time></trkpt><trkpt lat="36.64884427040608" lon="-5.15681751137158"><ele>831.0</ele><time>2026-04-25T08:52:55.999Z</time></trkpt><trkpt lat="36.64877053016505" lon="-5.156753375393958"><ele>831.0</ele><time>2026-04-25T08:52:56.999Z</time></trkpt><trkpt lat="36.648700586147626" lon="-5.156680836455618"><ele>831.0</ele><time>2026-04-25T08:52:57.999Z</time></trkpt><trkpt lat="36.64863048427334" lon="-5.156595196938695"><ele>831.0</ele><time>2026-04-25T08:52:58.999Z</time></trkpt><trkpt lat="36.648560725808785" lon="-5.1565045444980555"><ele>831.0</ele><time>2026-04-25T08:52:59.999Z</time></trkpt><trkpt lat="36.648519907151936" lon="-5.156393654813669"><ele>831.0</ele><time>2026-04-25T08:53:00.999Z</time></trkpt><trkpt lat="36.648465206712295" lon="-5.156302383866338"><ele>831.1666666666666</ele><time>2026-04-25T08:53:01.999Z</time></trkpt><trkpt lat="36.648398648831105" lon="-5.15621419033736"><ele>831.3333333333333</ele><time>2026-04-25T08:53:02.999Z</time></trkpt><trkpt lat="36.6483391988036" lon="-5.1561388545950475"><ele>831.5</ele><time>2026-04-25T08:53:03.999Z</time></trkpt><trkpt lat="36.64826343371264" lon="-5.156102622474928"><ele>831.6666666666666</ele><time>2026-04-25T08:53:04.999Z</time></trkpt><trkpt lat="36.64821060647722" lon="-5.156034326228512"><ele>831.8333333333333</ele><time>2026-04-25T08:53:05.999Z</time></trkpt><trkpt lat="36.64815045631817" lon="-5.155955328998906"><ele>832.0</ele><time>2026-04-25T08:53:06.999Z</time></trkpt><trkpt lat="36.64806697472359" lon="-5.155890619729438"><ele>832.0</ele><time>2026-04-25T08:53:07.999Z</time></trkpt><trkpt lat="36.64797678428939" lon="-5.155832980587499"><ele>832.0</ele><time>2026-04-25T08:53:08.999Z</time></trkpt><trkpt lat="36.6478915892009" lon="-5.155778724129182"><ele>832.0</ele><time>2026-04-25T08:53:09.999Z</time></trkpt><trkpt lat="36.64781145520781" lon="-5.155725612439697"><ele>832.0</ele><time>2026-04-25T08:53:10.999Z</time></trkpt><trkpt lat="36.64773132782317" lon="-5.155671168729251"><ele>832.0</ele><time>2026-04-25T08:53:11.999Z</time></trkpt><trkpt lat="36.64764862788948" lon="-5.1556170814804805"><ele>831.9999999999999</ele><time>2026-04-25T08:53:12.999Z</time></trkpt><trkpt lat="36.647558705735726" lon="-5.1555753720308415"><ele>832.0</ele><time>2026-04-25T08:53:13.999Z</time></trkpt><trkpt lat="36.64747957144565" lon="-5.155512088123221"><ele>832.0</ele><time>2026-04-25T08:53:14.999Z</time></trkpt><trkpt lat="36.647405985315515" lon="-5.155433614716814"><ele>832.0</ele><time>2026-04-25T08:53:15.999Z</time></trkpt><trkpt lat="36.64735331291094" lon="-5.155370312274454"><ele>831.9999999999999</ele><time>2026-04-25T08:53:16.999Z</time></trkpt><trkpt lat="36.64730353280924" lon="-5.1553055472204115"><ele>832.0</ele><time>2026-04-25T08:53:17.999Z</time></trkpt><trkpt lat="36.647240088488644" lon="-5.155221447277129"><ele>831.9999999999999</ele><time>2026-04-25T08:53:18.999Z</time></trkpt><trkpt lat="36.64717161274817" lon="-5.15513711585708"><ele>832.0</ele><time>2026-04-25T08:53:19.999Z</time></trkpt><trkpt lat="36.647114303561814" lon="-5.1550678485951344"><ele>832.0</ele><time>2026-04-25T08:53:20.999Z</time></trkpt><trkpt lat="36.647065155787296" lon="-5.155007699750246"><ele>832.0</ele><time>2026-04-25T08:53:21.999Z</time></trkpt><trkpt lat="36.64699279404578" lon="-5.154953904486485"><ele>831.9999999999999</ele><time>2026-04-25T08:53:23.999Z</time></trkpt><trkpt lat="36.64693393054639" lon="-5.155065429386998"><ele>832.0</ele><time>2026-04-25T08:53:24.999Z</time></trkpt><trkpt lat="36.64687740597691" lon="-5.155103653038861"><ele>833.8333333333333</ele><time>2026-04-25T08:53:25.999Z</time></trkpt><trkpt lat="36.64681129267159" lon="-5.155127802752981"><ele>835.6666666666666</ele><time>2026-04-25T08:53:26.999Z</time></trkpt><trkpt lat="36.64673799731671" lon="-5.155171627050738"><ele>837.5</ele><time>2026-04-25T08:53:27.999Z</time></trkpt><trkpt lat="36.64665336540336" lon="-5.1552176534943595"><ele>839.3333333333333</ele><time>2026-04-25T08:53:28.999Z</time></trkpt><trkpt lat="36.64657354737143" lon="-5.155266615957288"><ele>841.1666666666666</ele><time>2026-04-25T08:53:29.998Z</time></trkpt><trkpt lat="36.64651095823147" lon="-5.155305231373687"><ele>843.0</ele><time>2026-04-25T08:53:30.998Z</time></trkpt><trkpt lat="36.646447813312555" lon="-5.155321924509306"><ele>843.0</ele><time>2026-04-25T08:53:31.998Z</time></trkpt><trkpt lat="36.64635290812788" lon="-5.155310782087292"><ele>843.0</ele><time>2026-04-25T08:53:33.998Z</time></trkpt><trkpt lat="36.64626729993119" lon="-5.155303890288801"><ele>843.0</ele><time>2026-04-25T08:53:36.998Z</time></trkpt><trkpt lat="36.646201181751586" lon="-5.155310808343921"><ele>843.0</ele><time>2026-04-25T08:53:40.998Z</time></trkpt><trkpt lat="36.646277704203946" lon="-5.155315495377572"><ele>843.0</ele><time>2026-04-25T08:54:29.999Z</time></trkpt><trkpt lat="36.646317808048394" lon="-5.155226076414349"><ele>843.0</ele><time>2026-04-25T08:54:30.999Z</time></trkpt><trkpt lat="36.646430215814846" lon="-5.155284718047617"><ele>843.0</ele><time>2026-04-25T08:54:31.999Z</time></trkpt><trkpt lat="36.64651815279919" lon="-5.155261660473619"><ele>843.0</ele><time>2026-04-25T08:54:32.999Z</time></trkpt><trkpt lat="36.64660059654998" lon="-5.155223426330259"><ele>843.0</ele><time>2026-04-25T08:54:33.999Z</time></trkpt><trkpt lat="36.646660735237944" lon="-5.155189052075134"><ele>843.0</ele><time>2026-04-25T08:54:34.999Z</time></trkpt><trkpt lat="36.64677380482689" lon="-5.1551400078689325"><ele>843.0</ele><time>2026-04-25T08:54:36.999Z</time></trkpt><trkpt lat="36.64686815656698" lon="-5.155065456419488"><ele>843.0</ele><time>2026-04-25T08:54:38.999Z</time></trkpt><trkpt lat="36.64693345098976" lon="-5.154983353506837"><ele>843.0</ele><time>2026-04-25T08:54:40.999Z</time></trkpt><trkpt lat="36.64700891466656" lon="-5.154935572954538"><ele>843.0</ele><time>2026-04-25T08:54:42.999Z</time></trkpt><trkpt lat="36.64708698117422" lon="-5.154972413783001"><ele>843.0</ele><time>2026-04-25T08:54:44.999Z</time></trkpt><trkpt lat="36.64713426027211" lon="-5.155028235616418"><ele>843.0</ele><time>2026-04-25T08:54:45.999Z</time></trkpt><trkpt lat="36.64721600629075" lon="-5.155136750078012"><ele>843.0</ele><time>2026-04-25T08:54:47.999Z</time></trkpt><trkpt lat="36.64729785133255" lon="-5.1552342935349005"><ele>840.8</ele><time>2026-04-25T08:54:49.999Z</time></trkpt><trkpt lat="36.64737158899964" lon="-5.155321342710256"><ele>838.5999999999999</ele><time>2026-04-25T08:54:51.999Z</time></trkpt><trkpt lat="36.64744311667553" lon="-5.155416434350926"><ele>836.4000000000001</ele><time>2026-04-25T08:54:53.999Z</time></trkpt><trkpt lat="36.64753052207354" lon="-5.155502274555668"><ele>834.2</ele><time>2026-04-25T08:54:55.999Z</time></trkpt><trkpt lat="36.6475843555643" lon="-5.15554879033357"><ele>832.0</ele><time>2026-04-25T08:54:56.999Z</time></trkpt><trkpt lat="36.64765389562753" lon="-5.155595250532905"><ele>832.0</ele><time>2026-04-25T08:54:57.999Z</time></trkpt><trkpt lat="36.647734214240394" lon="-5.155644449202186"><ele>832.0</ele><time>2026-04-25T08:54:58.999Z</time></trkpt><trkpt lat="36.64781577618414" lon="-5.1556940179095285"><ele>832.0</ele><time>2026-04-25T08:54:59.999Z</time></trkpt><trkpt lat="36.647908838188904" lon="-5.155754764661186"><ele>832.0</ele><time>2026-04-25T08:55:00.999Z</time></trkpt><trkpt lat="36.648013220455965" lon="-5.155827005747704"><ele>832.0</ele><time>2026-04-25T08:55:01.999Z</time></trkpt><trkpt lat="36.64812578363233" lon="-5.155899219097743"><ele>832.0</ele><time>2026-04-25T08:55:02.999Z</time></trkpt><trkpt lat="36.64823312262347" lon="-5.156002553441265"><ele>832.0</ele><time>2026-04-25T08:55:03.999Z</time></trkpt><trkpt lat="36.648330479719256" lon="-5.156117447831225"><ele>832.0</ele><time>2026-04-25T08:55:04.999Z</time></trkpt><trkpt lat="36.648415147955376" lon="-5.156236810547195"><ele>832.0</ele><time>2026-04-25T08:55:05.999Z</time></trkpt><trkpt lat="36.64849691911664" lon="-5.156347141988147"><ele>832.0</ele><time>2026-04-25T08:55:06.999Z</time></trkpt><trkpt lat="36.64857173196108" lon="-5.156452448727174"><ele>832.0</ele><time>2026-04-25T08:55:07.999Z</time></trkpt><trkpt lat="36.648652514443505" lon="-5.156565305288863"><ele>832.0</ele><time>2026-04-25T08:55:08.999Z</time></trkpt><trkpt lat="36.648731894656905" lon="-5.156662197929841"><ele>832.0</ele><time>2026-04-25T08:55:09.999Z</time></trkpt><trkpt lat="36.64880970310139" lon="-5.156742059514875"><ele>832.0</ele><time>2026-04-25T08:55:10.999Z</time></trkpt><trkpt lat="36.64889451280901" lon="-5.156802679273446"><ele>831.8333333333333</ele><time>2026-04-25T08:55:11.999Z</time></trkpt><trkpt lat="36.648973047951806" lon="-5.156848472323626"><ele>831.6666666666666</ele><time>2026-04-25T08:55:12.999Z</time></trkpt><trkpt lat="36.64905366078909" lon="-5.156895664421644"><ele>831.5</ele><time>2026-04-25T08:55:13.999Z</time></trkpt><trkpt lat="36.649139378654056" lon="-5.156950584318318"><ele>831.3333333333333</ele><time>2026-04-25T08:55:14.999Z</time></trkpt><trkpt lat="36.64921650724773" lon="-5.1570051223538105"><ele>831.1666666666666</ele><time>2026-04-25T08:55:15.999Z</time></trkpt><trkpt lat="36.64928230089774" lon="-5.157048415775407"><ele>831.0</ele><time>2026-04-25T08:55:16.999Z</time></trkpt><trkpt lat="36.64936091360855" lon="-5.157107829999059"><ele>831.0</ele><time>2026-04-25T08:55:18.999Z</time></trkpt><trkpt lat="36.64935155438048" lon="-5.157326224463782"><ele>831.0</ele><time>2026-04-25T08:55:21.999Z</time></trkpt><trkpt lat="36.6493129593054" lon="-5.157441898722315"><ele>831.0</ele><time>2026-04-25T08:55:22.999Z</time></trkpt><trkpt lat="36.649271581341154" lon="-5.157581966936911"><ele>831.0</ele><time>2026-04-25T08:55:23.999Z</time></trkpt><trkpt lat="36.649219388543514" lon="-5.15774215645271"><ele>831.3333333333333</ele><time>2026-04-25T08:55:24.999Z</time></trkpt><trkpt lat="36.64914216576816" lon="-5.157895158590301"><ele>831.6666666666666</ele><time>2026-04-25T08:55:25.999Z</time></trkpt><trkpt lat="36.64902249798267" lon="-5.158017900177825"><ele>832.0</ele><time>2026-04-25T08:55:26.999Z</time></trkpt><trkpt lat="36.648879148593764" lon="-5.158109845888974"><ele>830.0</ele><time>2026-04-25T08:55:27.999Z</time></trkpt><trkpt lat="36.648715281535765" lon="-5.158201571443908"><ele>828.0</ele><time>2026-04-25T08:55:28.999Z</time></trkpt><trkpt lat="36.64855362239717" lon="-5.15833140610277"><ele>826.0</ele><time>2026-04-25T08:55:29.999Z</time></trkpt><trkpt lat="36.6483935284997" lon="-5.158466072524762"><ele>826.0</ele><time>2026-04-25T08:55:30.998Z</time></trkpt><trkpt lat="36.648229431258656" lon="-5.158603147272435"><ele>826.0</ele><time>2026-04-25T08:55:31.998Z</time></trkpt><trkpt lat="36.64807740359403" lon="-5.158727358469971"><ele>826.0</ele><time>2026-04-25T08:55:32.998Z</time></trkpt><trkpt lat="36.64791665756575" lon="-5.158811727101551"><ele>820.0</ele><time>2026-04-25T08:55:33.998Z</time></trkpt><trkpt lat="36.64774981582977" lon="-5.158881891994446"><ele>814.0</ele><time>2026-04-25T08:55:34.998Z</time></trkpt><trkpt lat="36.647583609593845" lon="-5.158938322207772"><ele>808.0</ele><time>2026-04-25T08:55:35.998Z</time></trkpt><trkpt lat="36.64743324739289" lon="-5.159008637970445"><ele>810.75</ele><time>2026-04-25T08:55:36.998Z</time></trkpt><trkpt lat="36.647289644066404" lon="-5.159048494503366"><ele>813.5</ele><time>2026-04-25T08:55:37.998Z</time></trkpt><trkpt lat="36.647159915377806" lon="-5.15907894966432"><ele>816.25</ele><time>2026-04-25T08:55:38.998Z</time></trkpt><trkpt lat="36.64703688281649" lon="-5.159108475333221"><ele>819.0</ele><time>2026-04-25T08:55:39.998Z</time></trkpt><trkpt lat="36.64691958955792" lon="-5.159137509556126"><ele>819.0</ele><time>2026-04-25T08:55:40.998Z</time></trkpt><trkpt lat="36.646799830260946" lon="-5.1591554100795465"><ele>819.0</ele><time>2026-04-25T08:55:41.998Z</time></trkpt><trkpt lat="36.646688490531844" lon="-5.159225217068651"><ele>819.0</ele><time>2026-04-25T08:55:42.998Z</time></trkpt><trkpt lat="36.64657073528428" lon="-5.159298502894353"><ele>819.0</ele><time>2026-04-25T08:55:43.998Z</time></trkpt><trkpt lat="36.6464457769371" lon="-5.159384373040588"><ele>819.0</ele><time>2026-04-25T08:55:44.998Z</time></trkpt><trkpt lat="36.64630829773381" lon="-5.159454119291838"><ele>819.0</ele><time>2026-04-25T08:55:45.998Z</time></trkpt><trkpt lat="36.6461871013425" lon="-5.159546425401386"><ele>819.0</ele><time>2026-04-25T08:55:46.998Z</time></trkpt><trkpt lat="36.64605021357021" lon="-5.15962293209714"><ele>819.0</ele><time>2026-04-25T08:55:47.998Z</time></trkpt><trkpt lat="36.64591290285053" lon="-5.1597166620450166"><ele>822.3333333333333</ele><time>2026-04-25T08:55:48.998Z</time></trkpt><trkpt lat="36.64577970626022" lon="-5.15982797473208"><ele>825.6666666666666</ele><time>2026-04-25T08:55:49.999Z</time></trkpt><trkpt lat="36.64566107894113" lon="-5.159968455329864"><ele>829.0</ele><time>2026-04-25T08:55:50.999Z</time></trkpt><trkpt lat="36.64552482212722" lon="-5.160091630942965"><ele>829.0</ele><time>2026-04-25T08:55:51.999Z</time></trkpt><trkpt lat="36.64539625887939" lon="-5.160213887519414"><ele>829.0</ele><time>2026-04-25T08:55:52.999Z</time></trkpt><trkpt lat="36.64527165990084" lon="-5.160311638377538"><ele>829.0</ele><time>2026-04-25T08:55:53.999Z</time></trkpt><trkpt lat="36.645146683313186" lon="-5.160379725531967"><ele>829.0</ele><time>2026-04-25T08:55:54.999Z</time></trkpt><trkpt lat="36.64503654430009" lon="-5.160430432792751"><ele>827.2</ele><time>2026-04-25T08:55:55.999Z</time></trkpt><trkpt lat="36.64495279066272" lon="-5.160493233370744"><ele>825.4000000000001</ele><time>2026-04-25T08:55:56.999Z</time></trkpt><trkpt lat="36.64490767062705" lon="-5.160584413066248"><ele>823.6</ele><time>2026-04-25T08:55:57.999Z</time></trkpt><trkpt lat="36.644919012481466" lon="-5.160713715861756"><ele>821.8</ele><time>2026-04-25T08:55:58.999Z</time></trkpt><trkpt lat="36.644945887284145" lon="-5.160846973931325"><ele>820.0</ele><time>2026-04-25T08:55:59.999Z</time></trkpt><trkpt lat="36.644911554257355" lon="-5.1609728698882185"><ele>820.0</ele><time>2026-04-25T08:56:00.999Z</time></trkpt><trkpt lat="36.64481833995286" lon="-5.161079103707877"><ele>820.0</ele><time>2026-04-25T08:56:01.999Z</time></trkpt><trkpt lat="36.6446934068691" lon="-5.1611692331313295"><ele>820.0</ele><time>2026-04-25T08:56:02.999Z</time></trkpt><trkpt lat="36.64456288285931" lon="-5.161268487057204"><ele>820.0</ele><time>2026-04-25T08:56:03.999Z</time></trkpt><trkpt lat="36.64445439555276" lon="-5.161411099582128"><ele>816.0</ele><time>2026-04-25T08:56:04.999Z</time></trkpt><trkpt lat="36.64433400877228" lon="-5.161522330099366"><ele>812.0</ele><time>2026-04-25T08:56:05.999Z</time></trkpt><trkpt lat="36.644224833502676" lon="-5.161636261937032"><ele>808.0</ele><time>2026-04-25T08:56:06.999Z</time></trkpt><trkpt lat="36.64411344010626" lon="-5.1617401249548704"><ele>804.0</ele><time>2026-04-25T08:56:07.999Z</time></trkpt><trkpt lat="36.64403863141593" lon="-5.161876351415196"><ele>804.0</ele><time>2026-04-25T08:56:08.999Z</time></trkpt><trkpt lat="36.64400828563215" lon="-5.162036959349702"><ele>804.0</ele><time>2026-04-25T08:56:09.999Z</time></trkpt><trkpt lat="36.643991881481064" lon="-5.162199458661507"><ele>804.0</ele><time>2026-04-25T08:56:10.999Z</time></trkpt><trkpt lat="36.64394742324528" lon="-5.162324489340523"><ele>804.0</ele><time>2026-04-25T08:56:11.999Z</time></trkpt><trkpt lat="36.643861706287595" lon="-5.162422117710696"><ele>801.25</ele><time>2026-04-25T08:56:12.999Z</time></trkpt><trkpt lat="36.6437423078984" lon="-5.162486266839372"><ele>798.5</ele><time>2026-04-25T08:56:13.999Z</time></trkpt><trkpt lat="36.643602752759435" lon="-5.162529913620589"><ele>795.75</ele><time>2026-04-25T08:56:14.999Z</time></trkpt><trkpt lat="36.64346614949113" lon="-5.162615097692138"><ele>793.0</ele><time>2026-04-25T08:56:15.999Z</time></trkpt><trkpt lat="36.64333574799995" lon="-5.162741494918869"><ele>793.0</ele><time>2026-04-25T08:56:16.999Z</time></trkpt><trkpt lat="36.643201801650264" lon="-5.162882441369774"><ele>793.0</ele><time>2026-04-25T08:56:17.999Z</time></trkpt><trkpt lat="36.64305347084031" lon="-5.163012832094458"><ele>793.0</ele><time>2026-04-25T08:56:18.999Z</time></trkpt><trkpt lat="36.64290705584791" lon="-5.163126776224999"><ele>798.3333333333333</ele><time>2026-04-25T08:56:19.999Z</time></trkpt><trkpt lat="36.642764250856196" lon="-5.163232557759713"><ele>803.6666666666667</ele><time>2026-04-25T08:56:20.999Z</time></trkpt><trkpt lat="36.64259192924684" lon="-5.163286585962097"><ele>809.0</ele><time>2026-04-25T08:56:21.999Z</time></trkpt><trkpt lat="36.64239914373913" lon="-5.163277813213125"><ele>809.0</ele><time>2026-04-25T08:56:22.999Z</time></trkpt><trkpt lat="36.64222673766834" lon="-5.163313708674507"><ele>809.0</ele><time>2026-04-25T08:56:23.999Z</time></trkpt><trkpt lat="36.64207344607282" lon="-5.163411256813259"><ele>809.0</ele><time>2026-04-25T08:56:24.999Z</time></trkpt><trkpt lat="36.64190499108635" lon="-5.163480020564654"><ele>797.3333333333334</ele><time>2026-04-25T08:56:25.999Z</time></trkpt><trkpt lat="36.641749391773004" lon="-5.16355850977407"><ele>785.6666666666667</ele><time>2026-04-25T08:56:26.999Z</time></trkpt><trkpt lat="36.641596408108185" lon="-5.1636291664753236"><ele>774.0</ele><time>2026-04-25T08:56:27.999Z</time></trkpt><trkpt lat="36.641448470167525" lon="-5.163697886659799"><ele>774.0</ele><time>2026-04-25T08:56:28.999Z</time></trkpt><trkpt lat="36.64131326108121" lon="-5.1637854109866455"><ele>774.0</ele><time>2026-04-25T08:56:29.999Z</time></trkpt><trkpt lat="36.64119047840155" lon="-5.163895604574188"><ele>774.0</ele><time>2026-04-25T08:56:30.999Z</time></trkpt><trkpt lat="36.64108038061057" lon="-5.164003845770944"><ele>774.0</ele><time>2026-04-25T08:56:31.999Z</time></trkpt><trkpt lat="36.64097259640829" lon="-5.164116023459988"><ele>775.5</ele><time>2026-04-25T08:56:32.999Z</time></trkpt><trkpt lat="36.64088388915357" lon="-5.164236081305493"><ele>777.0</ele><time>2026-04-25T08:56:33.999Z</time></trkpt><trkpt lat="36.64081991592706" lon="-5.164384432145018"><ele>778.5</ele><time>2026-04-25T08:56:34.999Z</time></trkpt><trkpt lat="36.64077431170184" lon="-5.164545851032609"><ele>780.0</ele><time>2026-04-25T08:56:35.999Z</time></trkpt><trkpt lat="36.64072925175379" lon="-5.164693993254242"><ele>780.0</ele><time>2026-04-25T08:56:36.999Z</time></trkpt><trkpt lat="36.64065818241531" lon="-5.164808169074437"><ele>780.0</ele><time>2026-04-25T08:56:37.999Z</time></trkpt><trkpt lat="36.640573092647394" lon="-5.164891478134941"><ele>780.0</ele><time>2026-04-25T08:56:38.999Z</time></trkpt><trkpt lat="36.64047406061433" lon="-5.1649627966988785"><ele>780.0</ele><time>2026-04-25T08:56:39.999Z</time></trkpt><trkpt lat="36.64034682496852" lon="-5.164938221298"><ele>783.25</ele><time>2026-04-25T08:56:40.999Z</time></trkpt><trkpt lat="36.64022228971086" lon="-5.1648879402390495"><ele>786.5</ele><time>2026-04-25T08:56:41.999Z</time></trkpt><trkpt lat="36.640091492088494" lon="-5.164825382441647"><ele>789.75</ele><time>2026-04-25T08:56:42.999Z</time></trkpt><trkpt lat="36.63994643911531" lon="-5.164775746669625"><ele>793.0</ele><time>2026-04-25T08:56:43.999Z</time></trkpt><trkpt lat="36.639797232466755" lon="-5.164748030572522"><ele>781.6666666666666</ele><time>2026-04-25T08:56:44.999Z</time></trkpt><trkpt lat="36.639636212800774" lon="-5.164763952018537"><ele>770.3333333333333</ele><time>2026-04-25T08:56:45.999Z</time></trkpt><trkpt lat="36.63946679806135" lon="-5.164811336821602"><ele>759.0</ele><time>2026-04-25T08:56:46.999Z</time></trkpt><trkpt lat="36.63930134522105" lon="-5.164831472953231"><ele>756.3333333333334</ele><time>2026-04-25T08:56:47.999Z</time></trkpt><trkpt lat="36.63912057701277" lon="-5.16485112076562"><ele>753.6666666666667</ele><time>2026-04-25T08:56:48.999Z</time></trkpt><trkpt lat="36.63893962824578" lon="-5.164824593523979"><ele>751.0</ele><time>2026-04-25T08:56:49.999Z</time></trkpt><trkpt lat="36.638767380284854" lon="-5.164812917682604"><ele>745.6666666666667</ele><time>2026-04-25T08:56:50.999Z</time></trkpt><trkpt lat="36.638604202920966" lon="-5.16480830849032"><ele>740.3333333333334</ele><time>2026-04-25T08:56:51.999Z</time></trkpt><trkpt lat="36.63843545007369" lon="-5.164845458544252"><ele>735.0</ele><time>2026-04-25T08:56:52.999Z</time></trkpt><trkpt lat="36.6382867170046" lon="-5.164913717339481"><ele>746.25</ele><time>2026-04-25T08:56:53.999Z</time></trkpt><trkpt lat="36.63816611503568" lon="-5.164970555557647"><ele>757.5</ele><time>2026-04-25T08:56:54.999Z</time></trkpt><trkpt lat="36.63805501954415" lon="-5.165030970411994"><ele>768.75</ele><time>2026-04-25T08:56:55.999Z</time></trkpt><trkpt lat="36.63794839509508" lon="-5.165101199409233"><ele>780.0</ele><time>2026-04-25T08:56:56.999Z</time></trkpt><trkpt lat="36.63784131711327" lon="-5.165203833221084"><ele>772.0</ele><time>2026-04-25T08:56:57.999Z</time></trkpt><trkpt lat="36.637713798584805" lon="-5.1653040673571855"><ele>764.0</ele><time>2026-04-25T08:56:58.999Z</time></trkpt><trkpt lat="36.63757450652499" lon="-5.165414606214006"><ele>756.0</ele><time>2026-04-25T08:56:59.999Z</time></trkpt><trkpt lat="36.637460756384684" lon="-5.1655264267007155"><ele>756.0</ele><time>2026-04-25T08:57:00.999Z</time></trkpt><trkpt lat="36.63735454729893" lon="-5.165630033485343"><ele>756.0</ele><time>2026-04-25T08:57:01.999Z</time></trkpt><trkpt lat="36.6372533870694" lon="-5.165744404936931"><ele>756.0</ele><time>2026-04-25T08:57:02.999Z</time></trkpt><trkpt lat="36.63715271833509" lon="-5.165875717517666"><ele>756.0</ele><time>2026-04-25T08:57:03.999Z</time></trkpt><trkpt lat="36.637058283336245" lon="-5.166023448110779"><ele>756.6666666666666</ele><time>2026-04-25T08:57:04.999Z</time></trkpt><trkpt lat="36.63696450927648" lon="-5.166175341131354"><ele>757.3333333333333</ele><time>2026-04-25T08:57:05.999Z</time></trkpt><trkpt lat="36.63686226621352" lon="-5.166320644025331"><ele>758.0</ele><time>2026-04-25T08:57:06.999Z</time></trkpt><trkpt lat="36.63675239683878" lon="-5.166454904045403"><ele>767.0</ele><time>2026-04-25T08:57:07.999Z</time></trkpt><trkpt lat="36.636638390821254" lon="-5.166599133318768"><ele>776.0</ele><time>2026-04-25T08:57:08.999Z</time></trkpt><trkpt lat="36.63650687157363" lon="-5.166730124123426"><ele>785.0</ele><time>2026-04-25T08:57:09.999Z</time></trkpt><trkpt lat="36.63636182710042" lon="-5.166842081335833"><ele>785.0</ele><time>2026-04-25T08:57:10.999Z</time></trkpt><trkpt lat="36.636228678114975" lon="-5.166930059498788"><ele>785.0</ele><time>2026-04-25T08:57:11.999Z</time></trkpt><trkpt lat="36.636100664927284" lon="-5.166995800606706"><ele>785.0</ele><time>2026-04-25T08:57:12.999Z</time></trkpt><trkpt lat="36.635965732463205" lon="-5.16701977444325"><ele>785.0</ele><time>2026-04-25T08:57:13.999Z</time></trkpt><trkpt lat="36.635827416635436" lon="-5.167002484078474"><ele>781.6</ele><time>2026-04-25T08:57:14.999Z</time></trkpt><trkpt lat="36.63570912995942" lon="-5.166993776207297"><ele>778.2</ele><time>2026-04-25T08:57:15.999Z</time></trkpt><trkpt lat="36.635609270259906" lon="-5.167025644815064"><ele>774.8</ele><time>2026-04-25T08:57:16.999Z</time></trkpt><trkpt lat="36.63553622942835" lon="-5.1670979911030175"><ele>771.4</ele><time>2026-04-25T08:57:17.999Z</time></trkpt><trkpt lat="36.63552272335972" lon="-5.167220143011301"><ele>768.0</ele><time>2026-04-25T08:57:18.999Z</time></trkpt><trkpt lat="36.635497921813396" lon="-5.167360220104897"><ele>776.6666666666667</ele><time>2026-04-25T08:57:19.999Z</time></trkpt><trkpt lat="36.63546117739492" lon="-5.167536803083452"><ele>785.3333333333334</ele><time>2026-04-25T08:57:20.999Z</time></trkpt><trkpt lat="36.63539178029299" lon="-5.1677403348761"><ele>794.0</ele><time>2026-04-25T08:57:21.999Z</time></trkpt><trkpt lat="36.63531129452525" lon="-5.167954866987811"><ele>784.0</ele><time>2026-04-25T08:57:22.999Z</time></trkpt><trkpt lat="36.63523849003172" lon="-5.168194907200135"><ele>774.0</ele><time>2026-04-25T08:57:23.999Z</time></trkpt><trkpt lat="36.63518362356948" lon="-5.168438664599076"><ele>764.0</ele><time>2026-04-25T08:57:24.999Z</time></trkpt><trkpt lat="36.63510591240681" lon="-5.168675930239065"><ele>764.0</ele><time>2026-04-25T08:57:25.999Z</time></trkpt><trkpt lat="36.63503738274993" lon="-5.168890791106367"><ele>764.0</ele><time>2026-04-25T08:57:26.999Z</time></trkpt><trkpt lat="36.63496127904904" lon="-5.1690864821320766"><ele>764.0</ele><time>2026-04-25T08:57:27.999Z</time></trkpt><trkpt lat="36.63489516065446" lon="-5.169266912691796"><ele>766.75</ele><time>2026-04-25T08:57:28.999Z</time></trkpt><trkpt lat="36.63487979842331" lon="-5.169451588190509"><ele>769.5</ele><time>2026-04-25T08:57:29.999Z</time></trkpt><trkpt lat="36.63483886510609" lon="-5.1696060254898635"><ele>772.25</ele><time>2026-04-25T08:57:30.999Z</time></trkpt><trkpt lat="36.63481254456372" lon="-5.16973312632589"><ele>775.0</ele><time>2026-04-25T08:57:31.999Z</time></trkpt><trkpt lat="36.63472956337503" lon="-5.169824245099654"><ele>772.75</ele><time>2026-04-25T08:57:32.999Z</time></trkpt><trkpt lat="36.63464348177238" lon="-5.169915032416074"><ele>770.5</ele><time>2026-04-25T08:57:33.999Z</time></trkpt><trkpt lat="36.63451089598718" lon="-5.1699296496032545"><ele>768.25</ele><time>2026-04-25T08:57:34.999Z</time></trkpt><trkpt lat="36.63436445907104" lon="-5.169922980305345"><ele>766.0</ele><time>2026-04-25T08:57:35.999Z</time></trkpt><trkpt lat="36.634203318557454" lon="-5.169956219713258"><ele>766.0</ele><time>2026-04-25T08:57:36.999Z</time></trkpt><trkpt lat="36.63404796515275" lon="-5.170008903344496"><ele>766.0</ele><time>2026-04-25T08:57:37.998Z</time></trkpt><trkpt lat="36.633908876726586" lon="-5.170066385444275"><ele>766.0</ele><time>2026-04-25T08:57:38.998Z</time></trkpt><trkpt lat="36.633776896718246" lon="-5.170107419573742"><ele>766.0</ele><time>2026-04-25T08:57:39.998Z</time></trkpt><trkpt lat="36.63366145428799" lon="-5.170146110068139"><ele>766.0</ele><time>2026-04-25T08:57:40.998Z</time></trkpt><trkpt lat="36.633553798887476" lon="-5.170161673802252"><ele>766.0</ele><time>2026-04-25T08:57:41.998Z</time></trkpt><trkpt lat="36.63345854923947" lon="-5.170129270510968"><ele>766.0</ele><time>2026-04-25T08:57:42.998Z</time></trkpt><trkpt lat="36.63336934360091" lon="-5.170015818873469"><ele>766.0</ele><time>2026-04-25T08:57:43.998Z</time></trkpt><trkpt lat="36.63328898146164" lon="-5.169859891946937"><ele>760.25</ele><time>2026-04-25T08:57:44.998Z</time></trkpt><trkpt lat="36.63319264782669" lon="-5.169706023331666"><ele>754.5</ele><time>2026-04-25T08:57:45.998Z</time></trkpt><trkpt lat="36.633084029992474" lon="-5.169578576097164"><ele>748.75</ele><time>2026-04-25T08:57:46.998Z</time></trkpt><trkpt lat="36.632976651373625" lon="-5.169466064516333"><ele>743.0</ele><time>2026-04-25T08:57:47.998Z</time></trkpt><trkpt lat="36.63288095112644" lon="-5.169336543490671"><ele>743.6666666666666</ele><time>2026-04-25T08:57:48.998Z</time></trkpt><trkpt lat="36.632799217024306" lon="-5.169181826254481"><ele>744.3333333333334</ele><time>2026-04-25T08:57:49.998Z</time></trkpt><trkpt lat="36.63272495967057" lon="-5.169014099479197"><ele>745.0</ele><time>2026-04-25T08:57:50.998Z</time></trkpt><trkpt lat="36.6326411483133" lon="-5.168853840660834"><ele>745.0</ele><time>2026-04-25T08:57:51.998Z</time></trkpt><trkpt lat="36.63253930085049" lon="-5.168729224817191"><ele>745.0</ele><time>2026-04-25T08:57:52.998Z</time></trkpt><trkpt lat="36.63243810044673" lon="-5.168610164707467"><ele>745.0</ele><time>2026-04-25T08:57:53.998Z</time></trkpt><trkpt lat="36.632334710796165" lon="-5.168499218849262"><ele>745.0</ele><time>2026-04-25T08:57:54.998Z</time></trkpt><trkpt lat="36.63225211616934" lon="-5.16837337527541"><ele>745.0</ele><time>2026-04-25T08:57:55.999Z</time></trkpt><trkpt lat="36.632170655614345" lon="-5.168241437786997"><ele>745.0</ele><time>2026-04-25T08:57:56.999Z</time></trkpt><trkpt lat="36.632113330335855" lon="-5.168085900880013"><ele>745.0</ele><time>2026-04-25T08:57:57.999Z</time></trkpt><trkpt lat="36.63204776717758" lon="-5.167965712093214"><ele>745.0</ele><time>2026-04-25T08:57:58.999Z</time></trkpt><trkpt lat="36.63199042581692" lon="-5.167862946503498"><ele>742.5</ele><time>2026-04-25T08:57:59.999Z</time></trkpt><trkpt lat="36.6318902119955" lon="-5.167877209166839"><ele>740.0</ele><time>2026-04-25T08:58:00.999Z</time></trkpt><trkpt lat="36.63177644449291" lon="-5.167904753729654"><ele>737.5</ele><time>2026-04-25T08:58:01.999Z</time></trkpt><trkpt lat="36.63164947945067" lon="-5.1679520576670495"><ele>735.0</ele><time>2026-04-25T08:58:02.999Z</time></trkpt><trkpt lat="36.631520580092534" lon="-5.167991503846266"><ele>735.0</ele><time>2026-04-25T08:58:03.999Z</time></trkpt><trkpt lat="36.63139979652423" lon="-5.1680216902443314"><ele>735.0</ele><time>2026-04-25T08:58:04.999Z</time></trkpt><trkpt lat="36.631259214395385" lon="-5.168006602426123"><ele>735.0</ele><time>2026-04-25T08:58:05.999Z</time></trkpt><trkpt lat="36.631114605071595" lon="-5.1679658846216325"><ele>735.0</ele><time>2026-04-25T08:58:06.999Z</time></trkpt><trkpt lat="36.63094762805325" lon="-5.167932489371517"><ele>733.3333333333334</ele><time>2026-04-25T08:58:07.999Z</time></trkpt><trkpt lat="36.63077767768922" lon="-5.167903380524126"><ele>731.6666666666667</ele><time>2026-04-25T08:58:08.999Z</time></trkpt><trkpt lat="36.630603712045534" lon="-5.167876966419996"><ele>730.0</ele><time>2026-04-25T08:58:09.999Z</time></trkpt><trkpt lat="36.63044001073998" lon="-5.167858079683832"><ele>728.6666666666667</ele><time>2026-04-25T08:58:10.999Z</time></trkpt><trkpt lat="36.63028809521495" lon="-5.167847320061666"><ele>727.3333333333334</ele><time>2026-04-25T08:58:11.999Z</time></trkpt><trkpt lat="36.63013815517494" lon="-5.167833181138759"><ele>726.0</ele><time>2026-04-25T08:58:12.999Z</time></trkpt><trkpt lat="36.62999003452097" lon="-5.167812568595688"><ele>726.0</ele><time>2026-04-25T08:58:13.999Z</time></trkpt><trkpt lat="36.62983826356737" lon="-5.16779011742687"><ele>726.0</ele><time>2026-04-25T08:58:14.999Z</time></trkpt><trkpt lat="36.6296882484775" lon="-5.16775777340734"><ele>726.0</ele><time>2026-04-25T08:58:15.999Z</time></trkpt><trkpt lat="36.62954642969025" lon="-5.167705070465679"><ele>725.75</ele><time>2026-04-25T08:58:16.999Z</time></trkpt><trkpt lat="36.629419581169294" lon="-5.167637026413409"><ele>725.5</ele><time>2026-04-25T08:58:17.999Z</time></trkpt><trkpt lat="36.62929505383847" lon="-5.167571917088148"><ele>725.25</ele><time>2026-04-25T08:58:18.999Z</time></trkpt><trkpt lat="36.62917354545289" lon="-5.167525257475253"><ele>725.0</ele><time>2026-04-25T08:58:19.999Z</time></trkpt><trkpt lat="36.62903871769303" lon="-5.167521873485128"><ele>725.0</ele><time>2026-04-25T08:58:20.999Z</time></trkpt><trkpt lat="36.628893391845224" lon="-5.167484877280254"><ele>725.0</ele><time>2026-04-25T08:58:21.999Z</time></trkpt><trkpt lat="36.62873496944906" lon="-5.167459594041392"><ele>725.0</ele><time>2026-04-25T08:58:22.999Z</time></trkpt><trkpt lat="36.62856974642046" lon="-5.167428359437665"><ele>724.0</ele><time>2026-04-25T08:58:23.999Z</time></trkpt><trkpt lat="36.628397351439745" lon="-5.167391305758238"><ele>723.0</ele><time>2026-04-25T08:58:24.999Z</time></trkpt><trkpt lat="36.62825097825163" lon="-5.167358459749609"><ele>722.0</ele><time>2026-04-25T08:58:25.999Z</time></trkpt><trkpt lat="36.628117952006725" lon="-5.167325281747601"><ele>718.25</ele><time>2026-04-25T08:58:26.999Z</time></trkpt><trkpt lat="36.627985805893346" lon="-5.1672859346718045"><ele>714.5</ele><time>2026-04-25T08:58:27.999Z</time></trkpt><trkpt lat="36.627850882699825" lon="-5.1672538451382835"><ele>710.75</ele><time>2026-04-25T08:58:28.999Z</time></trkpt><trkpt lat="36.62770290957466" lon="-5.16722817264517"><ele>707.0</ele><time>2026-04-25T08:58:29.999Z</time></trkpt><trkpt lat="36.6275547241997" lon="-5.167196806674936"><ele>707.0</ele><time>2026-04-25T08:58:30.999Z</time></trkpt><trkpt lat="36.6274029380737" lon="-5.167157298585805"><ele>707.0</ele><time>2026-04-25T08:58:31.999Z</time></trkpt><trkpt lat="36.627251081374794" lon="-5.167124830161056"><ele>707.0</ele><time>2026-04-25T08:58:32.999Z</time></trkpt><trkpt lat="36.62709757634085" lon="-5.167087651653622"><ele>707.5</ele><time>2026-04-25T08:58:33.999Z</time></trkpt><trkpt lat="36.62695108171502" lon="-5.1670476319844"><ele>708.0</ele><time>2026-04-25T08:58:34.999Z</time></trkpt><trkpt lat="36.62681127830335" lon="-5.1670067235484165"><ele>708.5</ele><time>2026-04-25T08:58:35.999Z</time></trkpt><trkpt lat="36.62666486500104" lon="-5.166956516894371"><ele>709.0</ele><time>2026-04-25T08:58:36.999Z</time></trkpt><trkpt lat="36.626508218474335" lon="-5.16691246783479"><ele>709.0</ele><time>2026-04-25T08:58:37.999Z</time></trkpt><trkpt lat="36.62634561240073" lon="-5.166864800276942"><ele>709.0</ele><time>2026-04-25T08:58:38.999Z</time></trkpt><trkpt lat="36.626183884274255" lon="-5.166819162250938"><ele>709.0</ele><time>2026-04-25T08:58:39.999Z</time></trkpt><trkpt lat="36.626013996089085" lon="-5.166763439695766"><ele>709.6666666666667</ele><time>2026-04-25T08:58:40.999Z</time></trkpt><trkpt lat="36.62584670751661" lon="-5.166711740023925"><ele>710.3333333333334</ele><time>2026-04-25T08:58:41.999Z</time></trkpt><trkpt lat="36.62567646979509" lon="-5.166663919229798"><ele>711.0</ele><time>2026-04-25T08:58:42.999Z</time></trkpt><trkpt lat="36.62551690680189" lon="-5.166622778675476"><ele>711.0</ele><time>2026-04-25T08:58:43.999Z</time></trkpt><trkpt lat="36.62536778273076" lon="-5.16657999452221"><ele>711.0</ele><time>2026-04-25T08:58:44.999Z</time></trkpt><trkpt lat="36.62520793262072" lon="-5.166534127005505"><ele>711.0</ele><time>2026-04-25T08:58:45.999Z</time></trkpt><trkpt lat="36.625041084592176" lon="-5.166488567838046"><ele>707.3333333333334</ele><time>2026-04-25T08:58:46.999Z</time></trkpt><trkpt lat="36.62487660816867" lon="-5.166437674744271"><ele>703.6666666666667</ele><time>2026-04-25T08:58:47.999Z</time></trkpt><trkpt lat="36.62471120728073" lon="-5.166382354619869"><ele>700.0</ele><time>2026-04-25T08:58:48.999Z</time></trkpt><trkpt lat="36.62454858856587" lon="-5.166312784751123"><ele>705.3333333333334</ele><time>2026-04-25T08:58:49.999Z</time></trkpt><trkpt lat="36.62440139044143" lon="-5.166201306851374"><ele>710.6666666666666</ele><time>2026-04-25T08:58:50.999Z</time></trkpt><trkpt lat="36.6242628674286" lon="-5.166072114486012"><ele>716.0</ele><time>2026-04-25T08:58:51.999Z</time></trkpt><trkpt lat="36.6241258684282" lon="-5.16595456860423"><ele>716.0</ele><time>2026-04-25T08:58:52.999Z</time></trkpt><trkpt lat="36.62399485209532" lon="-5.165852805979958"><ele>716.0</ele><time>2026-04-25T08:58:53.999Z</time></trkpt><trkpt lat="36.623887443368325" lon="-5.165758183984517"><ele>716.0</ele><time>2026-04-25T08:58:54.999Z</time></trkpt><trkpt lat="36.623796478381756" lon="-5.165671328062151"><ele>716.0</ele><time>2026-04-25T08:58:55.999Z</time></trkpt><trkpt lat="36.62370746362025" lon="-5.165599555427963"><ele>715.75</ele><time>2026-04-25T08:58:56.999Z</time></trkpt><trkpt lat="36.62362568989063" lon="-5.165523624595175"><ele>715.5</ele><time>2026-04-25T08:58:57.999Z</time></trkpt><trkpt lat="36.623550251403756" lon="-5.165421626276096"><ele>715.25</ele><time>2026-04-25T08:58:58.999Z</time></trkpt><trkpt lat="36.62345724793113" lon="-5.165301177842096"><ele>715.0</ele><time>2026-04-25T08:58:59.999Z</time></trkpt><trkpt lat="36.62335890987194" lon="-5.165177807190837"><ele>715.0</ele><time>2026-04-25T08:59:00.999Z</time></trkpt><trkpt lat="36.62325017051683" lon="-5.165064980747221"><ele>715.0</ele><time>2026-04-25T08:59:01.999Z</time></trkpt><trkpt lat="36.62314285261897" lon="-5.164967336252495"><ele>715.0</ele><time>2026-04-25T08:59:02.999Z</time></trkpt><trkpt lat="36.62303188390901" lon="-5.164876205656685"><ele>715.0</ele><time>2026-04-25T08:59:03.999Z</time></trkpt><trkpt lat="36.62291133068851" lon="-5.164779716295728"><ele>713.5</ele><time>2026-04-25T08:59:04.999Z</time></trkpt><trkpt lat="36.62280376535862" lon="-5.164675967722559"><ele>712.0</ele><time>2026-04-25T08:59:05.999Z</time></trkpt><trkpt lat="36.62270077818568" lon="-5.164582480846229"><ele>710.5</ele><time>2026-04-25T08:59:06.999Z</time></trkpt><trkpt lat="36.62259175387611" lon="-5.164498317527124"><ele>709.0</ele><time>2026-04-25T08:59:07.999Z</time></trkpt><trkpt lat="36.62247078787655" lon="-5.164422211248126"><ele>709.0</ele><time>2026-04-25T08:59:08.999Z</time></trkpt><trkpt lat="36.622341034114086" lon="-5.164331717258761"><ele>709.0</ele><time>2026-04-25T08:59:09.999Z</time></trkpt><trkpt lat="36.62221593145546" lon="-5.1642226530501105"><ele>709.0</ele><time>2026-04-25T08:59:10.999Z</time></trkpt><trkpt lat="36.62210908639446" lon="-5.164107126210137"><ele>709.0</ele><time>2026-04-25T08:59:11.999Z</time></trkpt><trkpt lat="36.62201318514985" lon="-5.164004072000742"><ele>706.25</ele><time>2026-04-25T08:59:12.999Z</time></trkpt><trkpt lat="36.62191621310193" lon="-5.163917920821256"><ele>703.5</ele><time>2026-04-25T08:59:13.999Z</time></trkpt><trkpt lat="36.62181170949126" lon="-5.163850736661402"><ele>700.75</ele><time>2026-04-25T08:59:14.999Z</time></trkpt><trkpt lat="36.62169760397012" lon="-5.163818039506936"><ele>698.0</ele><time>2026-04-25T08:59:15.999Z</time></trkpt><trkpt lat="36.62159033256532" lon="-5.16384947461944"><ele>698.0</ele><time>2026-04-25T08:59:16.999Z</time></trkpt><trkpt lat="36.62150281143961" lon="-5.1639278107378175"><ele>698.0</ele><time>2026-04-25T08:59:17.999Z</time></trkpt><trkpt lat="36.62140909897547" lon="-5.16404304269926"><ele>698.0</ele><time>2026-04-25T08:59:18.999Z</time></trkpt><trkpt lat="36.62129210755813" lon="-5.1641590569259135"><ele>698.0</ele><time>2026-04-25T08:59:19.999Z</time></trkpt><trkpt lat="36.621203008073934" lon="-5.164285172885967"><ele>698.75</ele><time>2026-04-25T08:59:20.999Z</time></trkpt><trkpt lat="36.62114287794269" lon="-5.1644255800695085"><ele>699.5</ele><time>2026-04-25T08:59:21.999Z</time></trkpt><trkpt lat="36.621094560683744" lon="-5.164573832565539"><ele>700.25</ele><time>2026-04-25T08:59:22.999Z</time></trkpt><trkpt lat="36.62103877570806" lon="-5.164732507659075"><ele>701.0</ele><time>2026-04-25T08:59:23.999Z</time></trkpt><trkpt lat="36.621008432009354" lon="-5.164887570512519"><ele>701.0</ele><time>2026-04-25T08:59:24.999Z</time></trkpt><trkpt lat="36.62097859058465" lon="-5.1650129119096295"><ele>701.0</ele><time>2026-04-25T08:59:25.999Z</time></trkpt><trkpt lat="36.62095742411634" lon="-5.165103790294619"><ele>701.0</ele><time>2026-04-25T08:59:26.999Z</time></trkpt><trkpt lat="36.62096890436669" lon="-5.165181377121816"><ele>701.0</ele><time>2026-04-25T08:59:27.999Z</time></trkpt><trkpt lat="36.62102861412337" lon="-5.1652418992714555"><ele>701.0</ele><time>2026-04-25T08:59:28.999Z</time></trkpt><trkpt lat="36.62112204190051" lon="-5.165230244046462"><ele>701.0</ele><time>2026-04-25T08:59:29.999Z</time></trkpt><trkpt lat="36.62119726830335" lon="-5.165161095249063"><ele>700.0</ele><time>2026-04-25T08:59:30.999Z</time></trkpt><trkpt lat="36.62121574532443" lon="-5.165004015983099"><ele>699.0</ele><time>2026-04-25T08:59:31.999Z</time></trkpt><trkpt lat="36.62125285132829" lon="-5.1648517799925715"><ele>698.0</ele><time>2026-04-25T08:59:32.999Z</time></trkpt><trkpt lat="36.6212725395865" lon="-5.1647411604855336"><ele>697.0</ele><time>2026-04-25T08:59:33.999Z</time></trkpt><trkpt lat="36.62133297925995" lon="-5.164666768407385"><ele>696.0</ele><time>2026-04-25T08:59:34.999Z</time></trkpt><trkpt lat="36.62143545731287" lon="-5.164642452046427"><ele>696.0</ele><time>2026-04-25T08:59:35.999Z</time></trkpt><trkpt lat="36.621540245365836" lon="-5.164656232696317"><ele>696.0</ele><time>2026-04-25T08:59:36.999Z</time></trkpt><trkpt lat="36.62162590301964" lon="-5.164721508439904"><ele>696.0</ele><time>2026-04-25T08:59:37.999Z</time></trkpt><trkpt lat="36.621681135069736" lon="-5.1648267750748005"><ele>696.0</ele><time>2026-04-25T08:59:38.999Z</time></trkpt><trkpt lat="36.62171827614857" lon="-5.164966007249108"><ele>696.0</ele><time>2026-04-25T08:59:39.999Z</time></trkpt><trkpt lat="36.62178501020703" lon="-5.165103164608533"><ele>696.0</ele><time>2026-04-25T08:59:40.999Z</time></trkpt><trkpt lat="36.621867553962275" lon="-5.165210483091987"><ele>696.0</ele><time>2026-04-25T08:59:41.999Z</time></trkpt><trkpt lat="36.62195543760138" lon="-5.1652966542622645"><ele>696.0</ele><time>2026-04-25T08:59:42.999Z</time></trkpt><trkpt lat="36.62201823500266" lon="-5.1653775236949"><ele>696.0</ele><time>2026-04-25T08:59:43.999Z</time></trkpt><trkpt lat="36.62201362170806" lon="-5.165523193246481"><ele>696.0</ele><time>2026-04-25T08:59:44.999Z</time></trkpt><trkpt lat="36.62199511555646" lon="-5.165691318817578"><ele>698.5</ele><time>2026-04-25T08:59:45.999Z</time></trkpt><trkpt lat="36.62198088029609" lon="-5.165860076874698"><ele>701.0</ele><time>2026-04-25T08:59:46.999Z</time></trkpt><trkpt lat="36.622007634527975" lon="-5.166007311286847"><ele>703.5</ele><time>2026-04-25T08:59:47.999Z</time></trkpt><trkpt lat="36.62200835732048" lon="-5.166148281515814"><ele>706.0</ele><time>2026-04-25T08:59:48.999Z</time></trkpt><trkpt lat="36.62200138349293" lon="-5.166297858969459"><ele>700.0</ele><time>2026-04-25T08:59:49.999Z</time></trkpt><trkpt lat="36.621957809286016" lon="-5.16644056491103"><ele>694.0</ele><time>2026-04-25T08:59:50.999Z</time></trkpt><trkpt lat="36.62190028604898" lon="-5.166574249597"><ele>688.0</ele><time>2026-04-25T08:59:51.999Z</time></trkpt><trkpt lat="36.621827910092904" lon="-5.166692651402821"><ele>682.0</ele><time>2026-04-25T08:59:52.999Z</time></trkpt><trkpt lat="36.62178937689473" lon="-5.166820492229098"><ele>680.6</ele><time>2026-04-25T08:59:53.999Z</time></trkpt><trkpt lat="36.62176167625502" lon="-5.166951394323533"><ele>679.2</ele><time>2026-04-25T08:59:54.999Z</time></trkpt><trkpt lat="36.62174731406138" lon="-5.167085725397113"><ele>677.8</ele><time>2026-04-25T08:59:55.999Z</time></trkpt><trkpt lat="36.62174238941656" lon="-5.167209562392664"><ele>676.4</ele><time>2026-04-25T08:59:56.999Z</time></trkpt><trkpt lat="36.62179622083853" lon="-5.167307851136433"><ele>675.0</ele><time>2026-04-25T08:59:57.999Z</time></trkpt><trkpt lat="36.621896903807325" lon="-5.167346493284665"><ele>676.4</ele><time>2026-04-25T08:59:58.999Z</time></trkpt><trkpt lat="36.622017784963745" lon="-5.16736332498137"><ele>677.8</ele><time>2026-04-25T08:59:59.999Z</time></trkpt><trkpt lat="36.62212346308314" lon="-5.167415046551945"><ele>679.2</ele><time>2026-04-25T09:00:01Z</time></trkpt><trkpt lat="36.62219774078369" lon="-5.167454344634873"><ele>680.6</ele><time>2026-04-25T09:00:02Z</time></trkpt><trkpt lat="36.62225774707987" lon="-5.167559357674228"><ele>682.0</ele><time>2026-04-25T09:00:03Z</time></trkpt><trkpt lat="36.62229446080348" lon="-5.167689052799894"><ele>682.0</ele><time>2026-04-25T09:00:04Z</time></trkpt><trkpt lat="36.62231797505559" lon="-5.167827613285988"><ele>682.0</ele><time>2026-04-25T09:00:05Z</time></trkpt><trkpt lat="36.622368691030765" lon="-5.167964453157197"><ele>682.0</ele><time>2026-04-25T09:00:06Z</time></trkpt><trkpt lat="36.62245588676724" lon="-5.168063262540052"><ele>682.0</ele><time>2026-04-25T09:00:07Z</time></trkpt><trkpt lat="36.62254922431508" lon="-5.168148470525782"><ele>680.25</ele><time>2026-04-25T09:00:08Z</time></trkpt><trkpt lat="36.62264046765569" lon="-5.1682305708832486"><ele>678.5</ele><time>2026-04-25T09:00:09Z</time></trkpt><trkpt lat="36.622730377963656" lon="-5.1683078870038"><ele>676.75</ele><time>2026-04-25T09:00:10Z</time></trkpt><trkpt lat="36.6228142662561" lon="-5.168405281266498"><ele>675.0</ele><time>2026-04-25T09:00:11Z</time></trkpt><trkpt lat="36.6228871440042" lon="-5.168531200491658"><ele>675.0</ele><time>2026-04-25T09:00:12Z</time></trkpt><trkpt lat="36.622964297709906" lon="-5.16864658670262"><ele>675.0</ele><time>2026-04-25T09:00:13Z</time></trkpt><trkpt lat="36.62304319110382" lon="-5.168757574327312"><ele>675.0</ele><time>2026-04-25T09:00:14Z</time></trkpt><trkpt lat="36.62312277864652" lon="-5.168860531924099"><ele>675.0</ele><time>2026-04-25T09:00:15Z</time></trkpt><trkpt lat="36.623191423032594" lon="-5.168963587993178"><ele>670.6</ele><time>2026-04-25T09:00:16Z</time></trkpt><trkpt lat="36.623257243235656" lon="-5.169052593535427"><ele>666.2</ele><time>2026-04-25T09:00:17Z</time></trkpt><trkpt lat="36.623307476930314" lon="-5.169121242948497"><ele>661.8</ele><time>2026-04-25T09:00:18Z</time></trkpt><trkpt lat="36.62338284350398" lon="-5.169210775441121"><ele>657.4</ele><time>2026-04-25T09:00:20Z</time></trkpt><trkpt lat="36.62326176275428" lon="-5.169314093497555"><ele>653.0</ele><time>2026-04-25T09:00:25Z</time></trkpt><trkpt lat="36.62319740946915" lon="-5.169273761656289"><ele>653.0</ele><time>2026-04-25T09:00:26Z</time></trkpt><trkpt lat="36.62311321376371" lon="-5.169255920854893"><ele>653.0</ele><time>2026-04-25T09:00:27Z</time></trkpt><trkpt lat="36.62302476361313" lon="-5.1692128810371605"><ele>653.0</ele><time>2026-04-25T09:00:28Z</time></trkpt><trkpt lat="36.62293398984606" lon="-5.169165144443267"><ele>653.0</ele><time>2026-04-25T09:00:29Z</time></trkpt><trkpt lat="36.622842058586926" lon="-5.169109427029918"><ele>653.0</ele><time>2026-04-25T09:00:30Z</time></trkpt><trkpt lat="36.622759157759006" lon="-5.169043265815141"><ele>653.4</ele><time>2026-04-25T09:00:31Z</time></trkpt><trkpt lat="36.62267848054053" lon="-5.168943743314414"><ele>653.8</ele><time>2026-04-25T09:00:32Z</time></trkpt><trkpt lat="36.62259626020799" lon="-5.16883343532096"><ele>654.2</ele><time>2026-04-25T09:00:33Z</time></trkpt><trkpt lat="36.622533005407604" lon="-5.16873211405565"><ele>654.6</ele><time>2026-04-25T09:00:34Z</time></trkpt><trkpt lat="36.62246824561435" lon="-5.168640958588971"><ele>655.0</ele><time>2026-04-25T09:00:35Z</time></trkpt><trkpt lat="36.6223988131114" lon="-5.168542520323683"><ele>655.0</ele><time>2026-04-25T09:00:36Z</time></trkpt><trkpt lat="36.62231704133585" lon="-5.168445758008878"><ele>655.0</ele><time>2026-04-25T09:00:37Z</time></trkpt><trkpt lat="36.62224327628429" lon="-5.168343406219324"><ele>655.0</ele><time>2026-04-25T09:00:38Z</time></trkpt><trkpt lat="36.62217480175648" lon="-5.168248499456229"><ele>655.0</ele><time>2026-04-25T09:00:39Z</time></trkpt><trkpt lat="36.622102609662086" lon="-5.168150393061242"><ele>655.0</ele><time>2026-04-25T09:00:40Z</time></trkpt><trkpt lat="36.622037183325034" lon="-5.168060828663812"><ele>656.2</ele><time>2026-04-25T09:00:41Z</time></trkpt><trkpt lat="36.62196979707695" lon="-5.167976140638607"><ele>657.4</ele><time>2026-04-25T09:00:42Z</time></trkpt><trkpt lat="36.62188060608157" lon="-5.167910486002345"><ele>658.5999999999999</ele><time>2026-04-25T09:00:43Z</time></trkpt><trkpt lat="36.62178355906113" lon="-5.167864095122744"><ele>659.8</ele><time>2026-04-25T09:00:44Z</time></trkpt><trkpt lat="36.621684702557445" lon="-5.167888171302745"><ele>661.0</ele><time>2026-04-25T09:00:45Z</time></trkpt><trkpt lat="36.62158095235871" lon="-5.167910945785721"><ele>661.0</ele><time>2026-04-25T09:00:46Z</time></trkpt><trkpt lat="36.62149721042708" lon="-5.167911625991187"><ele>661.0</ele><time>2026-04-25T09:00:47Z</time></trkpt><trkpt lat="36.62142270160711" lon="-5.167903042674287"><ele>661.0</ele><time>2026-04-25T09:00:48Z</time></trkpt><trkpt lat="36.62135053803381" lon="-5.16785552042887"><ele>661.0</ele><time>2026-04-25T09:00:49Z</time></trkpt><trkpt lat="36.62131178425342" lon="-5.167732518148307"><ele>661.0</ele><time>2026-04-25T09:00:49.999Z</time></trkpt><trkpt lat="36.62129339254642" lon="-5.16760031443204"><ele>661.0</ele><time>2026-04-25T09:00:50.999Z</time></trkpt><trkpt lat="36.62127127159574" lon="-5.167453038251123"><ele>661.0</ele><time>2026-04-25T09:00:51.999Z</time></trkpt><trkpt lat="36.6211759758067" lon="-5.167351662951946"><ele>661.0</ele><time>2026-04-25T09:00:52.999Z</time></trkpt><trkpt lat="36.6210700282489" lon="-5.167286185525785"><ele>661.0</ele><time>2026-04-25T09:00:53.999Z</time></trkpt><trkpt lat="36.62096323396816" lon="-5.16720921896432"><ele>660.25</ele><time>2026-04-25T09:00:54.999Z</time></trkpt><trkpt lat="36.62087427932795" lon="-5.167122187954397"><ele>659.5</ele><time>2026-04-25T09:00:55.999Z</time></trkpt><trkpt lat="36.6208316841622" lon="-5.16697844589185"><ele>658.75</ele><time>2026-04-25T09:00:56.999Z</time></trkpt><trkpt lat="36.62079895111759" lon="-5.16682348684209"><ele>658.0</ele><time>2026-04-25T09:00:57.999Z</time></trkpt><trkpt lat="36.62074146470629" lon="-5.166691548248752"><ele>658.0</ele><time>2026-04-25T09:00:58.999Z</time></trkpt><trkpt lat="36.620686406436555" lon="-5.166591595234758"><ele>658.0</ele><time>2026-04-25T09:00:59.999Z</time></trkpt><trkpt lat="36.620610599080386" lon="-5.1665425535545735"><ele>658.0</ele><time>2026-04-25T09:01:00.999Z</time></trkpt><trkpt lat="36.620543207757734" lon="-5.166557737284427"><ele>658.0</ele><time>2026-04-25T09:01:01.999Z</time></trkpt><trkpt lat="36.62048654822061" lon="-5.166638340303729"><ele>658.0</ele><time>2026-04-25T09:01:02.999Z</time></trkpt><trkpt lat="36.62042228047162" lon="-5.166725482770569"><ele>658.0</ele><time>2026-04-25T09:01:03.999Z</time></trkpt><trkpt lat="36.62033047587235" lon="-5.166816993855782"><ele>660.0</ele><time>2026-04-25T09:01:04.999Z</time></trkpt><trkpt lat="36.6202234915671" lon="-5.166899852004662"><ele>662.0</ele><time>2026-04-25T09:01:05.999Z</time></trkpt><trkpt lat="36.620101452384816" lon="-5.166946018731175"><ele>664.0</ele><time>2026-04-25T09:01:06.999Z</time></trkpt><trkpt lat="36.619981062215125" lon="-5.166966295913172"><ele>666.0</ele><time>2026-04-25T09:01:07.999Z</time></trkpt><trkpt lat="36.61986063759945" lon="-5.166944945969612"><ele>666.0</ele><time>2026-04-25T09:01:08.999Z</time></trkpt><trkpt lat="36.61972763314347" lon="-5.166903701396722"><ele>666.0</ele><time>2026-04-25T09:01:09.999Z</time></trkpt><trkpt lat="36.619589458372126" lon="-5.166860042489598"><ele>666.0</ele><time>2026-04-25T09:01:10.999Z</time></trkpt><trkpt lat="36.61945752261476" lon="-5.166806384270035"><ele>666.0</ele><time>2026-04-25T09:01:11.999Z</time></trkpt><trkpt lat="36.61933327515459" lon="-5.166712438906367"><ele>663.75</ele><time>2026-04-25T09:01:12.999Z</time></trkpt><trkpt lat="36.619247025448836" lon="-5.16660912522926"><ele>661.5</ele><time>2026-04-25T09:01:13.999Z</time></trkpt><trkpt lat="36.61917057985977" lon="-5.166496209351252"><ele>659.25</ele><time>2026-04-25T09:01:14.999Z</time></trkpt><trkpt lat="36.619145931119476" lon="-5.166336479603106"><ele>657.0</ele><time>2026-04-25T09:01:15.999Z</time></trkpt><trkpt lat="36.61909787635698" lon="-5.166207757488236"><ele>663.0</ele><time>2026-04-25T09:01:16.999Z</time></trkpt><trkpt lat="36.61902414638788" lon="-5.16611039198878"><ele>669.0</ele><time>2026-04-25T09:01:17.999Z</time></trkpt><trkpt lat="36.618916166534696" lon="-5.16606759506157"><ele>675.0</ele><time>2026-04-25T09:01:18.999Z</time></trkpt><trkpt lat="36.618801902110924" lon="-5.166078863457363"><ele>681.0</ele><time>2026-04-25T09:01:19.999Z</time></trkpt><trkpt lat="36.61866975141812" lon="-5.16607131802736"><ele>676.75</ele><time>2026-04-25T09:01:20.999Z</time></trkpt><trkpt lat="36.618526253618725" lon="-5.166101150523516"><ele>672.5</ele><time>2026-04-25T09:01:21.999Z</time></trkpt><trkpt lat="36.61839520485492" lon="-5.166122735680472"><ele>668.25</ele><time>2026-04-25T09:01:22.999Z</time></trkpt><trkpt lat="36.61827816304403" lon="-5.166128597665959"><ele>664.0</ele><time>2026-04-25T09:01:23.999Z</time></trkpt><trkpt lat="36.6181740359845" lon="-5.166114161059347"><ele>664.0</ele><time>2026-04-25T09:01:24.999Z</time></trkpt><trkpt lat="36.61807746495291" lon="-5.166069933273925"><ele>664.0</ele><time>2026-04-25T09:01:25.999Z</time></trkpt><trkpt lat="36.61799081972166" lon="-5.165988632475242"><ele>664.0</ele><time>2026-04-25T09:01:26.999Z</time></trkpt><trkpt lat="36.61790851988102" lon="-5.165874244529613"><ele>664.0</ele><time>2026-04-25T09:01:27.999Z</time></trkpt><trkpt lat="36.617824375608215" lon="-5.165757641523095"><ele>662.25</ele><time>2026-04-25T09:01:28.999Z</time></trkpt><trkpt lat="36.61772621767175" lon="-5.165649006499879"><ele>660.5</ele><time>2026-04-25T09:01:29.999Z</time></trkpt><trkpt lat="36.6176089819457" lon="-5.165560723129296"><ele>658.75</ele><time>2026-04-25T09:01:30.999Z</time></trkpt><trkpt lat="36.617472937637835" lon="-5.165516447803192"><ele>657.0</ele><time>2026-04-25T09:01:31.999Z</time></trkpt><trkpt lat="36.61733765164647" lon="-5.165459751977281"><ele>657.0</ele><time>2026-04-25T09:01:32.999Z</time></trkpt><trkpt lat="36.61720832904436" lon="-5.165385477402386"><ele>657.0</ele><time>2026-04-25T09:01:33.999Z</time></trkpt><trkpt lat="36.61707658748246" lon="-5.165338494720181"><ele>657.0</ele><time>2026-04-25T09:01:34.999Z</time></trkpt><trkpt lat="36.61695659731279" lon="-5.1652851868853835"><ele>657.0</ele><time>2026-04-25T09:01:35.999Z</time></trkpt><trkpt lat="36.616847659551546" lon="-5.165222517367371"><ele>651.8000000000001</ele><time>2026-04-25T09:01:36.999Z</time></trkpt><trkpt lat="36.6167563693979" lon="-5.165132986854174"><ele>646.6</ele><time>2026-04-25T09:01:37.999Z</time></trkpt><trkpt lat="36.616682999540636" lon="-5.165024059419084"><ele>641.4000000000001</ele><time>2026-04-25T09:01:38.999Z</time></trkpt><trkpt lat="36.61663170294028" lon="-5.164909706236196"><ele>636.2</ele><time>2026-04-25T09:01:39.999Z</time></trkpt><trkpt lat="36.61658983158974" lon="-5.164801249414169"><ele>631.0</ele><time>2026-04-25T09:01:40.999Z</time></trkpt><trkpt lat="36.61662666388659" lon="-5.164665208048377"><ele>629.0</ele><time>2026-04-25T09:01:41.999Z</time></trkpt><trkpt lat="36.61667123668453" lon="-5.164535558543762"><ele>627.0</ele><time>2026-04-25T09:01:42.999Z</time></trkpt><trkpt lat="36.61672010351138" lon="-5.164382684900496"><ele>625.0</ele><time>2026-04-25T09:01:43.999Z</time></trkpt><trkpt lat="36.616751136166236" lon="-5.164236613714415"><ele>623.0</ele><time>2026-04-25T09:01:44.999Z</time></trkpt><trkpt lat="36.61678023423932" lon="-5.164112072924671"><ele>622.1999999999999</ele><time>2026-04-25T09:01:45.999Z</time></trkpt><trkpt lat="36.6167748305387" lon="-5.164000501676952"><ele>621.4</ele><time>2026-04-25T09:01:46.999Z</time></trkpt><trkpt lat="36.61672287732664" lon="-5.163913933249085"><ele>620.5999999999999</ele><time>2026-04-25T09:01:47.999Z</time></trkpt><trkpt lat="36.616650766025245" lon="-5.163855361637316"><ele>619.8</ele><time>2026-04-25T09:01:48.999Z</time></trkpt><trkpt lat="36.61655751170743" lon="-5.163809484102433"><ele>619.0</ele><time>2026-04-25T09:01:49.999Z</time></trkpt><trkpt lat="36.61648044196336" lon="-5.163731924898032"><ele>619.0</ele><time>2026-04-25T09:01:50.999Z</time></trkpt><trkpt lat="36.61641180310665" lon="-5.163648348602036"><ele>619.0</ele><time>2026-04-25T09:01:51.999Z</time></trkpt><trkpt lat="36.61637412148834" lon="-5.1635257084567785"><ele>619.0</ele><time>2026-04-25T09:01:52.999Z</time></trkpt><trkpt lat="36.61636011012268" lon="-5.163381884551745"><ele>619.0</ele><time>2026-04-25T09:01:53.999Z</time></trkpt><trkpt lat="36.61637013127019" lon="-5.163237792881285"><ele>619.0</ele><time>2026-04-25T09:01:54.999Z</time></trkpt><trkpt lat="36.61641378102529" lon="-5.163104009268678"><ele>616.75</ele><time>2026-04-25T09:01:55.999Z</time></trkpt><trkpt lat="36.61645260748561" lon="-5.162957705270139"><ele>614.5</ele><time>2026-04-25T09:01:56.999Z</time></trkpt><trkpt lat="36.616506800073694" lon="-5.162820448589501"><ele>612.25</ele><time>2026-04-25T09:01:57.999Z</time></trkpt><trkpt lat="36.61655713758759" lon="-5.162676895220057"><ele>610.0</ele><time>2026-04-25T09:01:58.999Z</time></trkpt><trkpt lat="36.61659175395511" lon="-5.162523191194484"><ele>610.0</ele><time>2026-04-25T09:01:59.999Z</time></trkpt><trkpt lat="36.61658855972566" lon="-5.162385731081244"><ele>610.0</ele><time>2026-04-25T09:02:00.999Z</time></trkpt><trkpt lat="36.6165490913928" lon="-5.162264327792367"><ele>610.0</ele><time>2026-04-25T09:02:01.999Z</time></trkpt><trkpt lat="36.61648509878559" lon="-5.162159731075167"><ele>610.0</ele><time>2026-04-25T09:02:02.999Z</time></trkpt><trkpt lat="36.61645684912813" lon="-5.162037659201184"><ele>610.0</ele><time>2026-04-25T09:02:03.999Z</time></trkpt><trkpt lat="36.616453119722735" lon="-5.1619206157448785"><ele>607.4</ele><time>2026-04-25T09:02:04.999Z</time></trkpt><trkpt lat="36.616498244101074" lon="-5.161818394259706"><ele>604.8</ele><time>2026-04-25T09:02:05.999Z</time></trkpt><trkpt lat="36.61657708391139" lon="-5.161761257297838"><ele>602.2</ele><time>2026-04-25T09:02:07Z</time></trkpt><trkpt lat="36.61667825767527" lon="-5.161768103407649"><ele>599.6</ele><time>2026-04-25T09:02:08Z</time></trkpt><trkpt lat="36.6167871326261" lon="-5.16182760781377"><ele>597.0</ele><time>2026-04-25T09:02:09Z</time></trkpt><trkpt lat="36.61689104549074" lon="-5.161878917106503"><ele>597.0</ele><time>2026-04-25T09:02:10Z</time></trkpt><trkpt lat="36.616976572059954" lon="-5.161872474574783"><ele>597.0</ele><time>2026-04-25T09:02:11Z</time></trkpt><trkpt lat="36.61703735181542" lon="-5.161786558377653"><ele>597.0</ele><time>2026-04-25T09:02:12Z</time></trkpt><trkpt lat="36.61703486039338" lon="-5.161629314612891"><ele>597.0</ele><time>2026-04-25T09:02:13Z</time></trkpt><trkpt lat="36.61706367498748" lon="-5.161462888017659"><ele>597.0</ele><time>2026-04-25T09:02:14Z</time></trkpt><trkpt lat="36.61709681331956" lon="-5.161294163709373"><ele>597.6</ele><time>2026-04-25T09:02:15Z</time></trkpt><trkpt lat="36.61710077806371" lon="-5.161141322051562"><ele>598.2</ele><time>2026-04-25T09:02:16Z</time></trkpt><trkpt lat="36.6171101550174" lon="-5.161011772398043"><ele>598.8</ele><time>2026-04-25T09:02:17Z</time></trkpt><trkpt lat="36.61713259224468" lon="-5.160893842458429"><ele>599.4</ele><time>2026-04-25T09:02:18Z</time></trkpt><trkpt lat="36.617167608670925" lon="-5.160775082529861"><ele>600.0</ele><time>2026-04-25T09:02:19Z</time></trkpt><trkpt lat="36.61720450229928" lon="-5.160647275981495"><ele>600.0</ele><time>2026-04-25T09:02:20Z</time></trkpt><trkpt lat="36.617261062823665" lon="-5.160512850086616"><ele>600.0</ele><time>2026-04-25T09:02:21Z</time></trkpt><trkpt lat="36.61731768842661" lon="-5.160367426750138"><ele>600.0</ele><time>2026-04-25T09:02:22Z</time></trkpt><trkpt lat="36.61736722669484" lon="-5.160222707362769"><ele>600.0</ele><time>2026-04-25T09:02:23Z</time></trkpt><trkpt lat="36.61740532453698" lon="-5.160077077426647"><ele>600.0</ele><time>2026-04-25T09:02:24Z</time></trkpt><trkpt lat="36.61743655221875" lon="-5.159938787732345"><ele>600.0</ele><time>2026-04-25T09:02:25Z</time></trkpt><trkpt lat="36.617465863277125" lon="-5.159816559893611"><ele>600.0</ele><time>2026-04-25T09:02:26Z</time></trkpt><trkpt lat="36.617515341898915" lon="-5.159716860895413"><ele>600.0</ele><time>2026-04-25T09:02:27Z</time></trkpt><trkpt lat="36.61757429580994" lon="-5.159644965407921"><ele>600.0</ele><time>2026-04-25T09:02:28Z</time></trkpt><trkpt lat="36.61767186607949" lon="-5.15961609358345"><ele>596.75</ele><time>2026-04-25T09:02:29Z</time></trkpt><trkpt lat="36.61779521056266" lon="-5.159624251295718"><ele>593.5</ele><time>2026-04-25T09:02:30Z</time></trkpt><trkpt lat="36.61793811955531" lon="-5.15964433513916"><ele>590.25</ele><time>2026-04-25T09:02:31Z</time></trkpt><trkpt lat="36.61808215924888" lon="-5.159646274469366"><ele>587.0</ele><time>2026-04-25T09:02:32Z</time></trkpt><trkpt lat="36.618219353434334" lon="-5.159625040944659"><ele>587.0</ele><time>2026-04-25T09:02:33Z</time></trkpt><trkpt lat="36.61834229677431" lon="-5.159582334317494"><ele>587.0</ele><time>2026-04-25T09:02:34Z</time></trkpt><trkpt lat="36.61844984048188" lon="-5.1595237607998525"><ele>587.0</ele><time>2026-04-25T09:02:35Z</time></trkpt><trkpt lat="36.61851156119211" lon="-5.159389234864591"><ele>587.0</ele><time>2026-04-25T09:02:36Z</time></trkpt><trkpt lat="36.618586821269155" lon="-5.159253985777032"><ele>587.25</ele><time>2026-04-25T09:02:37Z</time></trkpt><trkpt lat="36.61865490134612" lon="-5.159090062213089"><ele>587.5</ele><time>2026-04-25T09:02:38Z</time></trkpt><trkpt lat="36.61871096620903" lon="-5.15892055498913"><ele>587.75</ele><time>2026-04-25T09:02:39Z</time></trkpt><trkpt lat="36.618772939432546" lon="-5.158775122577051"><ele>588.0</ele><time>2026-04-25T09:02:40Z</time></trkpt><trkpt lat="36.618821806943764" lon="-5.158633987458715"><ele>588.0</ele><time>2026-04-25T09:02:41Z</time></trkpt><trkpt lat="36.618861306104" lon="-5.158494351924993"><ele>588.0</ele><time>2026-04-25T09:02:42Z</time></trkpt><trkpt lat="36.61891696617818" lon="-5.158370121211175"><ele>588.0</ele><time>2026-04-25T09:02:43Z</time></trkpt><trkpt lat="36.618957499621935" lon="-5.158233145424793"><ele>588.0</ele><time>2026-04-25T09:02:44Z</time></trkpt><trkpt lat="36.619020351679836" lon="-5.1581061482718225"><ele>579.0</ele><time>2026-04-25T09:02:45Z</time></trkpt><trkpt lat="36.61907447640824" lon="-5.157968270895369"><ele>570.0</ele><time>2026-04-25T09:02:46Z</time></trkpt><trkpt lat="36.61913804043791" lon="-5.1578339768948895"><ele>561.0</ele><time>2026-04-25T09:02:47Z</time></trkpt><trkpt lat="36.61921470260746" lon="-5.157712280204547"><ele>552.0</ele><time>2026-04-25T09:02:48Z</time></trkpt><trkpt lat="36.61931233263239" lon="-5.157609226824498"><ele>552.0</ele><time>2026-04-25T09:02:49Z</time></trkpt><trkpt lat="36.61942356139113" lon="-5.157533205513293"><ele>552.0</ele><time>2026-04-25T09:02:50Z</time></trkpt><trkpt lat="36.61953973558455" lon="-5.157470878483368"><ele>552.0</ele><time>2026-04-25T09:02:51Z</time></trkpt><trkpt lat="36.61964164146762" lon="-5.1574002545672295"><ele>552.0</ele><time>2026-04-25T09:02:52Z</time></trkpt><trkpt lat="36.61972992145646" lon="-5.157312525406305"><ele>554.75</ele><time>2026-04-25T09:02:53Z</time></trkpt><trkpt lat="36.619796166453916" lon="-5.157205988141016"><ele>557.5</ele><time>2026-04-25T09:02:54Z</time></trkpt><trkpt lat="36.61980277820973" lon="-5.157062511484064"><ele>560.25</ele><time>2026-04-25T09:02:55Z</time></trkpt><trkpt lat="36.619802030377706" lon="-5.156893448989315"><ele>563.0</ele><time>2026-04-25T09:02:56Z</time></trkpt><trkpt lat="36.61978324056338" lon="-5.156704203819538"><ele>556.5</ele><time>2026-04-25T09:02:57Z</time></trkpt><trkpt lat="36.61977387713728" lon="-5.156521835180272"><ele>550.0</ele><time>2026-04-25T09:02:58Z</time></trkpt><trkpt lat="36.61974462415939" lon="-5.156368985003369"><ele>543.5</ele><time>2026-04-25T09:02:59Z</time></trkpt><trkpt lat="36.619733624255524" lon="-5.156233423855559"><ele>537.0</ele><time>2026-04-25T09:03:00Z</time></trkpt><trkpt lat="36.61974418377068" lon="-5.156097467257061"><ele>537.0</ele><time>2026-04-25T09:03:01Z</time></trkpt><trkpt lat="36.61978790708174" lon="-5.155962359183306"><ele>537.0</ele><time>2026-04-25T09:03:02Z</time></trkpt><trkpt lat="36.619871229113265" lon="-5.1558494108310935"><ele>537.0</ele><time>2026-04-25T09:03:03Z</time></trkpt><trkpt lat="36.61996916533667" lon="-5.155767778044113"><ele>537.0</ele><time>2026-04-25T09:03:04Z</time></trkpt><trkpt lat="36.62007868631593" lon="-5.155725129603355"><ele>537.0</ele><time>2026-04-25T09:03:05Z</time></trkpt><trkpt lat="36.62019582806543" lon="-5.155715307055547"><ele>537.0</ele><time>2026-04-25T09:03:06Z</time></trkpt><trkpt lat="36.62032411949705" lon="-5.155736028041219"><ele>537.0</ele><time>2026-04-25T09:03:07Z</time></trkpt><trkpt lat="36.62045915525779" lon="-5.155773201906411"><ele>537.0</ele><time>2026-04-25T09:03:08Z</time></trkpt><trkpt lat="36.62058666852115" lon="-5.155814593573582"><ele>538.0</ele><time>2026-04-25T09:03:09Z</time></trkpt><trkpt lat="36.620705938680715" lon="-5.15584377102755"><ele>539.0</ele><time>2026-04-25T09:03:10Z</time></trkpt><trkpt lat="36.62082227477108" lon="-5.155856768789966"><ele>540.0</ele><time>2026-04-25T09:03:11Z</time></trkpt><trkpt lat="36.62092872926771" lon="-5.155853287568103"><ele>541.0</ele><time>2026-04-25T09:03:12Z</time></trkpt><trkpt lat="36.62101510512129" lon="-5.155833469949472"><ele>542.0</ele><time>2026-04-25T09:03:13Z</time></trkpt><trkpt lat="36.62108743926801" lon="-5.155783378023191"><ele>542.0</ele><time>2026-04-25T09:03:14Z</time></trkpt><trkpt lat="36.62113688081049" lon="-5.155694551910289"><ele>542.0</ele><time>2026-04-25T09:03:15Z</time></trkpt><trkpt lat="36.62115712007825" lon="-5.1555881213540395"><ele>542.0</ele><time>2026-04-25T09:03:16Z</time></trkpt><trkpt lat="36.62110304621024" lon="-5.155487088094485"><ele>542.0</ele><time>2026-04-25T09:03:17Z</time></trkpt><trkpt lat="36.62102692075965" lon="-5.155421492038639"><ele>542.0</ele><time>2026-04-25T09:03:17.999Z</time></trkpt><trkpt lat="36.620928063951" lon="-5.155384227309973"><ele>542.0</ele><time>2026-04-25T09:03:18.999Z</time></trkpt><trkpt lat="36.62081544438791" lon="-5.155338053716038"><ele>542.0</ele><time>2026-04-25T09:03:19.999Z</time></trkpt><trkpt lat="36.62068671996102" lon="-5.155291937381611"><ele>542.0</ele><time>2026-04-25T09:03:20.999Z</time></trkpt><trkpt lat="36.6205679697363" lon="-5.155220090961817"><ele>542.0</ele><time>2026-04-25T09:03:21.999Z</time></trkpt><trkpt lat="36.62045840363888" lon="-5.155165440895446"><ele>542.0</ele><time>2026-04-25T09:03:22.999Z</time></trkpt><trkpt lat="36.62035326328118" lon="-5.15511311989756"><ele>542.0</ele><time>2026-04-25T09:03:23.999Z</time></trkpt><trkpt lat="36.620245734658226" lon="-5.155059957536448"><ele>542.0</ele><time>2026-04-25T09:03:24.999Z</time></trkpt><trkpt lat="36.6201492794578" lon="-5.155000755115958"><ele>542.0</ele><time>2026-04-25T09:03:25.999Z</time></trkpt><trkpt lat="36.62004649927225" lon="-5.154943410830733"><ele>542.0</ele><time>2026-04-25T09:03:26.999Z</time></trkpt><trkpt lat="36.619953561870176" lon="-5.15486421314081"><ele>538.2</ele><time>2026-04-25T09:03:27.999Z</time></trkpt><trkpt lat="36.619872362454714" lon="-5.154760359462406"><ele>534.4000000000001</ele><time>2026-04-25T09:03:28.999Z</time></trkpt><trkpt lat="36.61979260507788" lon="-5.154679686381275"><ele>530.5999999999999</ele><time>2026-04-25T09:03:29.999Z</time></trkpt><trkpt lat="36.61972015404876" lon="-5.154613860054068"><ele>526.8</ele><time>2026-04-25T09:03:30.999Z</time></trkpt><trkpt lat="36.619653574984916" lon="-5.15454967234057"><ele>523.0</ele><time>2026-04-25T09:03:31.999Z</time></trkpt><trkpt lat="36.61959500100205" lon="-5.154488659677649"><ele>523.0</ele><time>2026-04-25T09:03:32.999Z</time></trkpt><trkpt lat="36.61954151679673" lon="-5.154435895152753"><ele>523.0</ele><time>2026-04-25T09:03:33.999Z</time></trkpt><trkpt lat="36.619499753495276" lon="-5.154374062059156"><ele>523.0</ele><time>2026-04-25T09:03:34.999Z</time></trkpt><trkpt lat="36.61944477141716" lon="-5.154308514128316"><ele>523.0</ele><time>2026-04-25T09:03:35.999Z</time></trkpt><trkpt lat="36.61940959055657" lon="-5.154222125755045"><ele>523.0</ele><time>2026-04-25T09:03:36.999Z</time></trkpt><trkpt lat="36.61941468141564" lon="-5.154112372922455"><ele>523.0</ele><time>2026-04-25T09:03:37.999Z</time></trkpt><trkpt lat="36.61943091248262" lon="-5.1540011870396745"><ele>522.6666666666667</ele><time>2026-04-25T09:03:38.999Z</time></trkpt><trkpt lat="36.619452293644116" lon="-5.1538891560863735"><ele>522.3333333333334</ele><time>2026-04-25T09:03:39.999Z</time></trkpt><trkpt lat="36.61947291738995" lon="-5.153806159645412"><ele>522.0</ele><time>2026-04-25T09:03:40.999Z</time></trkpt><trkpt lat="36.61950251742891" lon="-5.15366316494184"><ele>521.6666666666666</ele><time>2026-04-25T09:03:42.999Z</time></trkpt><trkpt lat="36.61950178232353" lon="-5.153573777314232"><ele>521.3333333333333</ele><time>2026-04-25T09:03:43.999Z</time></trkpt><trkpt lat="36.619514165675135" lon="-5.153486032715247"><ele>521.0</ele><time>2026-04-25T09:03:44.999Z</time></trkpt><trkpt lat="36.61948889084773" lon="-5.15337870819864"><ele>523.25</ele><time>2026-04-25T09:03:46.999Z</time></trkpt><trkpt lat="36.61939263460722" lon="-5.153289802283668"><ele>525.5</ele><time>2026-04-25T09:03:48.999Z</time></trkpt><trkpt lat="36.61930129009194" lon="-5.153300403602451"><ele>527.75</ele><time>2026-04-25T09:03:49.999Z</time></trkpt><trkpt lat="36.61919149311147" lon="-5.153314860288045"><ele>530.0</ele><time>2026-04-25T09:03:50.999Z</time></trkpt><trkpt lat="36.61906077397455" lon="-5.153314413827951"><ele>530.0</ele><time>2026-04-25T09:03:51.999Z</time></trkpt><trkpt lat="36.61891815499798" lon="-5.1533678730450845"><ele>530.0</ele><time>2026-04-25T09:03:52.999Z</time></trkpt><trkpt lat="36.618756166293046" lon="-5.153377579586727"><ele>530.0</ele><time>2026-04-25T09:03:53.999Z</time></trkpt><trkpt lat="36.618611000963064" lon="-5.153408386715081"><ele>533.25</ele><time>2026-04-25T09:03:54.999Z</time></trkpt><trkpt lat="36.6184861061283" lon="-5.153429519477032"><ele>536.5</ele><time>2026-04-25T09:03:55.999Z</time></trkpt><trkpt lat="36.61838237697512" lon="-5.15348048421003"><ele>539.75</ele><time>2026-04-25T09:03:56.999Z</time></trkpt><trkpt lat="36.61829599599858" lon="-5.153566867131367"><ele>543.0</ele><time>2026-04-25T09:03:57.999Z</time></trkpt><trkpt lat="36.61822329570555" lon="-5.153685740923124"><ele>543.0</ele><time>2026-04-25T09:03:58.999Z</time></trkpt><trkpt lat="36.618164833847224" lon="-5.15383034389202"><ele>543.0</ele><time>2026-04-25T09:03:59.999Z</time></trkpt><trkpt lat="36.61811071886023" lon="-5.153990361017944"><ele>543.0</ele><time>2026-04-25T09:04:00.999Z</time></trkpt><trkpt lat="36.61805099191539" lon="-5.154160833631777"><ele>543.0</ele><time>2026-04-25T09:04:01.999Z</time></trkpt><trkpt lat="36.617983039986456" lon="-5.154337943906309"><ele>537.0</ele><time>2026-04-25T09:04:02.999Z</time></trkpt><trkpt lat="36.617917678313546" lon="-5.154493270574654"><ele>531.0</ele><time>2026-04-25T09:04:03.999Z</time></trkpt><trkpt lat="36.61786260394736" lon="-5.154635641961153"><ele>525.0</ele><time>2026-04-25T09:04:04.999Z</time></trkpt><trkpt lat="36.617834259802464" lon="-5.154780704667305"><ele>519.0</ele><time>2026-04-25T09:04:05.999Z</time></trkpt><trkpt lat="36.61783990971506" lon="-5.1549202863385455"><ele>518.5</ele><time>2026-04-25T09:04:06.999Z</time></trkpt><trkpt lat="36.617875455206885" lon="-5.155064851806445"><ele>518.0</ele><time>2026-04-25T09:04:07.999Z</time></trkpt><trkpt lat="36.61791069649456" lon="-5.15520579046149"><ele>517.5</ele><time>2026-04-25T09:04:08.999Z</time></trkpt><trkpt lat="36.61791489075166" lon="-5.155352649245548"><ele>517.0</ele><time>2026-04-25T09:04:09.999Z</time></trkpt><trkpt lat="36.617881876932" lon="-5.155507045384545"><ele>517.0</ele><time>2026-04-25T09:04:10.999Z</time></trkpt><trkpt lat="36.6178314717081" lon="-5.155653391802882"><ele>517.0</ele><time>2026-04-25T09:04:11.999Z</time></trkpt><trkpt lat="36.61776034455826" lon="-5.1557900039811155"><ele>517.0</ele><time>2026-04-25T09:04:13Z</time></trkpt><trkpt lat="36.617673360071976" lon="-5.155919167232603"><ele>517.0</ele><time>2026-04-25T09:04:14Z</time></trkpt><trkpt lat="36.61756962683785" lon="-5.156050294918639"><ele>523.0</ele><time>2026-04-25T09:04:15Z</time></trkpt><trkpt lat="36.61746694507083" lon="-5.156172811217508"><ele>529.0</ele><time>2026-04-25T09:04:16Z</time></trkpt><trkpt lat="36.617388551754026" lon="-5.156252713712039"><ele>535.0</ele><time>2026-04-25T09:04:17Z</time></trkpt><trkpt lat="36.61732517914753" lon="-5.156286478378627"><ele>541.0</ele><time>2026-04-25T09:04:18Z</time></trkpt><trkpt lat="36.61720263563709" lon="-5.15625641360501"><ele>547.0</ele><time>2026-04-25T09:04:20Z</time></trkpt><trkpt lat="36.61716586436803" lon="-5.15615819294756"><ele>547.0</ele><time>2026-04-25T09:04:21Z</time></trkpt><trkpt lat="36.61722259061518" lon="-5.156006982096836"><ele>547.0</ele><time>2026-04-25T09:04:22Z</time></trkpt><trkpt lat="36.61731919411145" lon="-5.155911268292928"><ele>547.0</ele><time>2026-04-25T09:04:23Z</time></trkpt><trkpt lat="36.61738973859612" lon="-5.155785904515193"><ele>547.0</ele><time>2026-04-25T09:04:24Z</time></trkpt><trkpt lat="36.617431300067565" lon="-5.1556651812663095"><ele>547.25</ele><time>2026-04-25T09:04:25Z</time></trkpt><trkpt lat="36.617427626544725" lon="-5.155534824930341"><ele>547.5</ele><time>2026-04-25T09:04:26Z</time></trkpt><trkpt lat="36.617382946668556" lon="-5.155407966218257"><ele>547.75</ele><time>2026-04-25T09:04:27Z</time></trkpt><trkpt lat="36.61731216405981" lon="-5.155261229151505"><ele>548.0</ele><time>2026-04-25T09:04:28Z</time></trkpt><trkpt lat="36.61721014217082" lon="-5.155118667298927"><ele>548.0</ele><time>2026-04-25T09:04:29Z</time></trkpt><trkpt lat="36.61707301357957" lon="-5.155029745188537"><ele>548.0</ele><time>2026-04-25T09:04:30Z</time></trkpt><trkpt lat="36.61691972488525" lon="-5.154945884247285"><ele>548.0</ele><time>2026-04-25T09:04:31Z</time></trkpt><trkpt lat="36.61679155703985" lon="-5.154822551298978"><ele>557.0</ele><time>2026-04-25T09:04:32Z</time></trkpt><trkpt lat="36.61671469034701" lon="-5.154642632716855"><ele>566.0</ele><time>2026-04-25T09:04:33Z</time></trkpt><trkpt lat="36.616645637697445" lon="-5.154459261775894"><ele>575.0</ele><time>2026-04-25T09:04:34Z</time></trkpt><trkpt lat="36.61656909512166" lon="-5.15427982089392"><ele>575.0</ele><time>2026-04-25T09:04:35Z</time></trkpt><trkpt lat="36.6165049870121" lon="-5.1540817384515645"><ele>575.0</ele><time>2026-04-25T09:04:36Z</time></trkpt><trkpt lat="36.61645436727557" lon="-5.153893787137898"><ele>575.0</ele><time>2026-04-25T09:04:37Z</time></trkpt><trkpt lat="36.616423654465834" lon="-5.153768891988485"><ele>575.0</ele><time>2026-04-25T09:04:38Z</time></trkpt><trkpt lat="36.616400716953" lon="-5.15365340653438"><ele>578.6</ele><time>2026-04-25T09:04:39Z</time></trkpt><trkpt lat="36.61640255430493" lon="-5.1535502876057455"><ele>582.2</ele><time>2026-04-25T09:04:40Z</time></trkpt><trkpt lat="36.61648577464737" lon="-5.153411038507264"><ele>585.8</ele><time>2026-04-25T09:04:42Z</time></trkpt><trkpt lat="36.61657976000144" lon="-5.153404140687003"><ele>589.4</ele><time>2026-04-25T09:04:43Z</time></trkpt><trkpt lat="36.61667424084023" lon="-5.153468931031531"><ele>593.0</ele><time>2026-04-25T09:04:44Z</time></trkpt><trkpt lat="36.61678111378884" lon="-5.153536522119618"><ele>593.0</ele><time>2026-04-25T09:04:45Z</time></trkpt><trkpt lat="36.61688661799338" lon="-5.1536005986886835"><ele>593.0</ele><time>2026-04-25T09:04:46Z</time></trkpt><trkpt lat="36.616975869944206" lon="-5.153640062937211"><ele>593.0</ele><time>2026-04-25T09:04:47Z</time></trkpt><trkpt lat="36.617064941968515" lon="-5.1536190695102695"><ele>593.0</ele><time>2026-04-25T09:04:48Z</time></trkpt><trkpt lat="36.617151976793366" lon="-5.153582458848136"><ele>593.0</ele><time>2026-04-25T09:04:49Z</time></trkpt><trkpt lat="36.61721741063107" lon="-5.153494024622186"><ele>594.0</ele><time>2026-04-25T09:04:50Z</time></trkpt><trkpt lat="36.617266554465466" lon="-5.153405468337721"><ele>595.0</ele><time>2026-04-25T09:04:51Z</time></trkpt><trkpt lat="36.617305011211016" lon="-5.153270139480797"><ele>596.0</ele><time>2026-04-25T09:04:52Z</time></trkpt><trkpt lat="36.61733988544721" lon="-5.153126176632852"><ele>597.0</ele><time>2026-04-25T09:04:53Z</time></trkpt><trkpt lat="36.6173588344489" lon="-5.152978511384758"><ele>598.0</ele><time>2026-04-25T09:04:54Z</time></trkpt><trkpt lat="36.617368637496554" lon="-5.15281743578562"><ele>598.0</ele><time>2026-04-25T09:04:55Z</time></trkpt><trkpt lat="36.617384667894065" lon="-5.152661818813283"><ele>598.0</ele><time>2026-04-25T09:04:56Z</time></trkpt><trkpt lat="36.617429489468236" lon="-5.1525318110855185"><ele>598.0</ele><time>2026-04-25T09:04:57Z</time></trkpt><trkpt lat="36.617526818814476" lon="-5.1524344819367"><ele>598.0</ele><time>2026-04-25T09:04:58Z</time></trkpt><trkpt lat="36.617622666599445" lon="-5.152336189910426"><ele>597.0</ele><time>2026-04-25T09:04:59Z</time></trkpt><trkpt lat="36.61774111915887" lon="-5.152261478421725"><ele>596.0</ele><time>2026-04-25T09:05:00Z</time></trkpt><trkpt lat="36.61787304508824" lon="-5.152196054262793"><ele>595.0</ele><time>2026-04-25T09:05:01Z</time></trkpt><trkpt lat="36.61800903154263" lon="-5.152121486698342"><ele>594.0</ele><time>2026-04-25T09:05:02Z</time></trkpt><trkpt lat="36.61812269928617" lon="-5.152010358445163"><ele>594.0</ele><time>2026-04-25T09:05:03Z</time></trkpt><trkpt lat="36.61821352276708" lon="-5.151909098055318"><ele>594.0</ele><time>2026-04-25T09:05:04Z</time></trkpt><trkpt lat="36.618280073057136" lon="-5.151819701760887"><ele>594.0</ele><time>2026-04-25T09:05:05Z</time></trkpt><trkpt lat="36.61832394144981" lon="-5.151740125778801"><ele>594.0</ele><time>2026-04-25T09:05:06Z</time></trkpt><trkpt lat="36.61834103185613" lon="-5.151657445548389"><ele>594.0</ele><time>2026-04-25T09:05:07Z</time></trkpt><trkpt lat="36.618355852604964" lon="-5.15155091750188"><ele>593.0</ele><time>2026-04-25T09:05:08Z</time></trkpt><trkpt lat="36.61833877726551" lon="-5.151449832768028"><ele>592.0</ele><time>2026-04-25T09:05:09Z</time></trkpt><trkpt lat="36.618284428703866" lon="-5.151359333101642"><ele>591.0</ele><time>2026-04-25T09:05:10Z</time></trkpt><trkpt lat="36.618221593195344" lon="-5.151225542607466"><ele>590.0</ele><time>2026-04-25T09:05:11Z</time></trkpt><trkpt lat="36.61814020773185" lon="-5.151095134315784"><ele>589.0</ele><time>2026-04-25T09:05:12Z</time></trkpt><trkpt lat="36.61804032833807" lon="-5.150958062954508"><ele>589.0</ele><time>2026-04-25T09:05:13Z</time></trkpt><trkpt lat="36.61792198699589" lon="-5.15077349882835"><ele>589.0</ele><time>2026-04-25T09:05:14Z</time></trkpt><trkpt lat="36.61782895286487" lon="-5.150653756378966"><ele>589.0</ele><time>2026-04-25T09:05:15Z</time></trkpt><trkpt lat="36.61772242054348" lon="-5.150510247494747"><ele>595.3333333333334</ele><time>2026-04-25T09:05:16Z</time></trkpt><trkpt lat="36.617571903063535" lon="-5.150405464513388"><ele>601.6666666666666</ele><time>2026-04-25T09:05:17Z</time></trkpt><trkpt lat="36.617445839766795" lon="-5.150255205881619"><ele>608.0</ele><time>2026-04-25T09:05:18Z</time></trkpt><trkpt lat="36.61732015391915" lon="-5.15009999580657"><ele>608.0</ele><time>2026-04-25T09:05:19Z</time></trkpt><trkpt lat="36.617268934267514" lon="-5.14994982769389"><ele>608.0</ele><time>2026-04-25T09:05:20Z</time></trkpt><trkpt lat="36.617199508083345" lon="-5.149798114917632"><ele>608.0</ele><time>2026-04-25T09:05:21Z</time></trkpt><trkpt lat="36.61709946046534" lon="-5.149675810364974"><ele>608.0</ele><time>2026-04-25T09:05:22Z</time></trkpt><trkpt lat="36.61699823931291" lon="-5.149554693007544"><ele>610.6</ele><time>2026-04-25T09:05:23Z</time></trkpt><trkpt lat="36.616908890665485" lon="-5.149441254869029"><ele>613.1999999999999</ele><time>2026-04-25T09:05:24Z</time></trkpt><trkpt lat="36.61682273203303" lon="-5.149336313946811"><ele>615.8</ele><time>2026-04-25T09:05:24.999Z</time></trkpt><trkpt lat="36.61674796229621" lon="-5.149257397955226"><ele>618.4</ele><time>2026-04-25T09:05:25.999Z</time></trkpt><trkpt lat="36.616658521368095" lon="-5.149209443981709"><ele>621.0</ele><time>2026-04-25T09:05:26.999Z</time></trkpt><trkpt lat="36.61656235229055" lon="-5.149206077530212"><ele>621.0</ele><time>2026-04-25T09:05:27.999Z</time></trkpt><trkpt lat="36.61646539280772" lon="-5.149212727183148"><ele>621.0</ele><time>2026-04-25T09:05:28.999Z</time></trkpt><trkpt lat="36.61636619979278" lon="-5.149218237901613"><ele>621.0</ele><time>2026-04-25T09:05:29.999Z</time></trkpt><trkpt lat="36.61627292896342" lon="-5.149223419615408"><ele>621.0</ele><time>2026-04-25T09:05:30.999Z</time></trkpt><trkpt lat="36.6161880241506" lon="-5.149215004073062"><ele>621.0</ele><time>2026-04-25T09:05:31.999Z</time></trkpt><trkpt lat="36.61610609159409" lon="-5.149163283904384"><ele>627.25</ele><time>2026-04-25T09:05:32.999Z</time></trkpt><trkpt lat="36.616068701939824" lon="-5.149029234779837"><ele>633.5</ele><time>2026-04-25T09:05:33.999Z</time></trkpt><trkpt lat="36.6160439542969" lon="-5.148899099584267"><ele>639.75</ele><time>2026-04-25T09:05:34.999Z</time></trkpt><trkpt lat="36.61597756403639" lon="-5.1487868051632795"><ele>646.0</ele><time>2026-04-25T09:05:35.999Z</time></trkpt><trkpt lat="36.61588911845185" lon="-5.148672086918627"><ele>646.0</ele><time>2026-04-25T09:05:36.999Z</time></trkpt><trkpt lat="36.61582324760374" lon="-5.148532210328961"><ele>646.0</ele><time>2026-04-25T09:05:37.999Z</time></trkpt><trkpt lat="36.61581747248352" lon="-5.14836007467086"><ele>646.0</ele><time>2026-04-25T09:05:38.999Z</time></trkpt><trkpt lat="36.615810018474576" lon="-5.14818705710012"><ele>646.0</ele><time>2026-04-25T09:05:39.999Z</time></trkpt><trkpt lat="36.61578016951096" lon="-5.147998144509599"><ele>647.0</ele><time>2026-04-25T09:05:40.999Z</time></trkpt><trkpt lat="36.615765701806104" lon="-5.147792593387172"><ele>648.0</ele><time>2026-04-25T09:05:41.999Z</time></trkpt><trkpt lat="36.61577885852477" lon="-5.14758117759479"><ele>649.0</ele><time>2026-04-25T09:05:42.999Z</time></trkpt><trkpt lat="36.61577741254399" lon="-5.147403205081213"><ele>647.2</ele><time>2026-04-25T09:05:43.999Z</time></trkpt><trkpt lat="36.615769870283984" lon="-5.147255535786124"><ele>645.4000000000001</ele><time>2026-04-25T09:05:44.999Z</time></trkpt><trkpt lat="36.6157405233088" lon="-5.147136682313571"><ele>643.6</ele><time>2026-04-25T09:05:45.999Z</time></trkpt><trkpt lat="36.61569917870895" lon="-5.147023527152013"><ele>641.8</ele><time>2026-04-25T09:05:46.999Z</time></trkpt><trkpt lat="36.61563897686108" lon="-5.146899139742326"><ele>640.0</ele><time>2026-04-25T09:05:47.999Z</time></trkpt><trkpt lat="36.615560719486254" lon="-5.146756130749803"><ele>640.0</ele><time>2026-04-25T09:05:48.999Z</time></trkpt><trkpt lat="36.61548885805125" lon="-5.146600828826465"><ele>640.0</ele><time>2026-04-25T09:05:49.999Z</time></trkpt><trkpt lat="36.61542410327902" lon="-5.146453020973164"><ele>640.0</ele><time>2026-04-25T09:05:50.999Z</time></trkpt><trkpt lat="36.615360399356284" lon="-5.146332112264029"><ele>640.0</ele><time>2026-04-25T09:05:51.999Z</time></trkpt><trkpt lat="36.61527534096554" lon="-5.146243859146914"><ele>643.25</ele><time>2026-04-25T09:05:52.999Z</time></trkpt><trkpt lat="36.615172848416535" lon="-5.1461700989193675"><ele>646.5</ele><time>2026-04-25T09:05:53.999Z</time></trkpt><trkpt lat="36.61505090132393" lon="-5.146112497311214"><ele>649.75</ele><time>2026-04-25T09:05:54.999Z</time></trkpt><trkpt lat="36.61494605283486" lon="-5.146013870321973"><ele>653.0</ele><time>2026-04-25T09:05:55.999Z</time></trkpt><trkpt lat="36.614866639185266" lon="-5.145879271092649"><ele>653.0</ele><time>2026-04-25T09:05:56.999Z</time></trkpt><trkpt lat="36.61478346037559" lon="-5.1457525559233295"><ele>653.0</ele><time>2026-04-25T09:05:57.999Z</time></trkpt><trkpt lat="36.61467675335585" lon="-5.145642675741654"><ele>653.0</ele><time>2026-04-25T09:05:58.999Z</time></trkpt><trkpt lat="36.61458227575639" lon="-5.145508587177158"><ele>653.0</ele><time>2026-04-25T09:05:59.999Z</time></trkpt><trkpt lat="36.61449339593408" lon="-5.14538872861823"><ele>659.25</ele><time>2026-04-25T09:06:00.999Z</time></trkpt><trkpt lat="36.614410572656226" lon="-5.145276841082795"><ele>665.5</ele><time>2026-04-25T09:06:01.999Z</time></trkpt><trkpt lat="36.61433932885862" lon="-5.145161595723491"><ele>671.75</ele><time>2026-04-25T09:06:02.999Z</time></trkpt><trkpt lat="36.614275410868636" lon="-5.145049684635521"><ele>678.0</ele><time>2026-04-25T09:06:03.999Z</time></trkpt><trkpt lat="36.6142140379761" lon="-5.144942261230204"><ele>674.2</ele><time>2026-04-25T09:06:04.999Z</time></trkpt><trkpt lat="36.61415153580153" lon="-5.144819874149513"><ele>670.4</ele><time>2026-04-25T09:06:05.999Z</time></trkpt><trkpt lat="36.61406862863767" lon="-5.144727594448371"><ele>666.6</ele><time>2026-04-25T09:06:06.999Z</time></trkpt><trkpt lat="36.61399504983633" lon="-5.144645699058134"><ele>662.8000000000001</ele><time>2026-04-25T09:06:07.999Z</time></trkpt><trkpt lat="36.61394107202189" lon="-5.14454605358852"><ele>659.0</ele><time>2026-04-25T09:06:08.999Z</time></trkpt><trkpt lat="36.613886122639414" lon="-5.144446658028114"><ele>659.0</ele><time>2026-04-25T09:06:09.999Z</time></trkpt><trkpt lat="36.61383011064778" lon="-5.144334567520226"><ele>659.0</ele><time>2026-04-25T09:06:10.999Z</time></trkpt><trkpt lat="36.613776985712846" lon="-5.144228060844634"><ele>659.0</ele><time>2026-04-25T09:06:11.999Z</time></trkpt><trkpt lat="36.61373194448468" lon="-5.144145437058338"><ele>659.0</ele><time>2026-04-25T09:06:12.999Z</time></trkpt><trkpt lat="36.61370486250406" lon="-5.144068294213027"><ele>659.0</ele><time>2026-04-25T09:06:13.999Z</time></trkpt><trkpt lat="36.61370135091809" lon="-5.143979241341843"><ele>659.0</ele><time>2026-04-25T09:06:14.999Z</time></trkpt><trkpt lat="36.613735105199765" lon="-5.14388593110913"><ele>661.6</ele><time>2026-04-25T09:06:15.999Z</time></trkpt><trkpt lat="36.61378747317733" lon="-5.143800044574183"><ele>664.2</ele><time>2026-04-25T09:06:16.999Z</time></trkpt><trkpt lat="36.613855182322666" lon="-5.143706585663599"><ele>666.8000000000001</ele><time>2026-04-25T09:06:17.999Z</time></trkpt><trkpt lat="36.613883844832266" lon="-5.143580442484658"><ele>669.4000000000001</ele><time>2026-04-25T09:06:19Z</time></trkpt><trkpt lat="36.61394132006419" lon="-5.143447472678495"><ele>672.0</ele><time>2026-04-25T09:06:20Z</time></trkpt><trkpt lat="36.61397310905282" lon="-5.143305580594891"><ele>674.6666666666666</ele><time>2026-04-25T09:06:21Z</time></trkpt><trkpt lat="36.614002753490844" lon="-5.1431811734805875"><ele>677.3333333333334</ele><time>2026-04-25T09:06:22Z</time></trkpt><trkpt lat="36.61402415101754" lon="-5.143081336772088"><ele>680.0</ele><time>2026-04-25T09:06:23Z</time></trkpt><trkpt lat="36.61404079963151" lon="-5.142990819105826"><ele>682.6666666666667</ele><time>2026-04-25T09:06:24Z</time></trkpt><trkpt lat="36.614071781602185" lon="-5.142911277433145"><ele>685.3333333333334</ele><time>2026-04-25T09:06:25Z</time></trkpt><trkpt lat="36.61412086202758" lon="-5.142843291940955"><ele>688.0</ele><time>2026-04-25T09:06:26Z</time></trkpt><trkpt lat="36.61418467931074" lon="-5.142811675374907"><ele>688.0</ele><time>2026-04-25T09:06:27Z</time></trkpt><trkpt lat="36.614315916744104" lon="-5.142868260899499"><ele>688.0</ele><time>2026-04-25T09:06:29Z</time></trkpt><trkpt lat="36.61436369683722" lon="-5.14299286101938"><ele>688.0</ele><time>2026-04-25T09:06:30Z</time></trkpt><trkpt lat="36.614404690176734" lon="-5.143110247555276"><ele>688.0</ele><time>2026-04-25T09:06:31Z</time></trkpt><trkpt lat="36.61442931260941" lon="-5.14323062938591"><ele>690.4</ele><time>2026-04-25T09:06:32Z</time></trkpt><trkpt lat="36.6144426811895" lon="-5.143347196016735"><ele>692.8</ele><time>2026-04-25T09:06:33Z</time></trkpt><trkpt lat="36.61445369395445" lon="-5.143456352550761"><ele>695.2</ele><time>2026-04-25T09:06:34Z</time></trkpt><trkpt lat="36.6144680942531" lon="-5.143572244025988"><ele>697.6</ele><time>2026-04-25T09:06:35Z</time></trkpt><trkpt lat="36.61450425728975" lon="-5.143677106093018"><ele>700.0</ele><time>2026-04-25T09:06:36Z</time></trkpt><trkpt lat="36.61455812552197" lon="-5.143773420088031"><ele>700.0</ele><time>2026-04-25T09:06:37Z</time></trkpt><trkpt lat="36.61465092761872" lon="-5.143831832515737"><ele>700.0</ele><time>2026-04-25T09:06:38Z</time></trkpt><trkpt lat="36.614751863422576" lon="-5.143899499579056"><ele>700.0</ele><time>2026-04-25T09:06:39Z</time></trkpt><trkpt lat="36.614868557060426" lon="-5.143948201476658"><ele>700.0</ele><time>2026-04-25T09:06:40Z</time></trkpt><trkpt lat="36.61496930333178" lon="-5.144005225032835"><ele>695.1666666666667</ele><time>2026-04-25T09:06:41Z</time></trkpt><trkpt lat="36.61504578847645" lon="-5.1440712015866215"><ele>690.3333333333334</ele><time>2026-04-25T09:06:42Z</time></trkpt><trkpt lat="36.615106136873685" lon="-5.1441410939759615"><ele>685.5</ele><time>2026-04-25T09:06:43Z</time></trkpt><trkpt lat="36.61515637170972" lon="-5.144219634523766"><ele>680.6666666666666</ele><time>2026-04-25T09:06:44Z</time></trkpt><trkpt lat="36.61520983986389" lon="-5.1442997049785895"><ele>675.8333333333333</ele><time>2026-04-25T09:06:45Z</time></trkpt><trkpt lat="36.615262894293565" lon="-5.144397060403476"><ele>671.0</ele><time>2026-04-25T09:06:46Z</time></trkpt><trkpt lat="36.61532029896024" lon="-5.14450306386932"><ele>674.8</ele><time>2026-04-25T09:06:47Z</time></trkpt><trkpt lat="36.61538732707613" lon="-5.144589864882269"><ele>678.5999999999999</ele><time>2026-04-25T09:06:48Z</time></trkpt><trkpt lat="36.615459773483586" lon="-5.1446728732392435"><ele>682.4</ele><time>2026-04-25T09:06:49Z</time></trkpt><trkpt lat="36.61554337522266" lon="-5.144744064893517"><ele>686.2</ele><time>2026-04-25T09:06:50Z</time></trkpt><trkpt lat="36.61562965885978" lon="-5.144790269446507"><ele>690.0</ele><time>2026-04-25T09:06:51Z</time></trkpt><trkpt lat="36.61572096732675" lon="-5.144831194120947"><ele>690.0</ele><time>2026-04-25T09:06:52Z</time></trkpt><trkpt lat="36.615804195867405" lon="-5.1448238163811055"><ele>690.0</ele><time>2026-04-25T09:06:53Z</time></trkpt><trkpt lat="36.615890380456406" lon="-5.144760106098168"><ele>690.0</ele><time>2026-04-25T09:06:54Z</time></trkpt><trkpt lat="36.615972238830274" lon="-5.144689673881799"><ele>690.0</ele><time>2026-04-25T09:06:55Z</time></trkpt><trkpt lat="36.6160519692614" lon="-5.144611492305324"><ele>690.0</ele><time>2026-04-25T09:06:56Z</time></trkpt><trkpt lat="36.616135288189284" lon="-5.144556526073666"><ele>691.6</ele><time>2026-04-25T09:06:57Z</time></trkpt><trkpt lat="36.616197439184695" lon="-5.144491104657771"><ele>693.2</ele><time>2026-04-25T09:06:58Z</time></trkpt><trkpt lat="36.616282284189886" lon="-5.144467375505944"><ele>694.8</ele><time>2026-04-25T09:06:59Z</time></trkpt><trkpt lat="36.61636139080558" lon="-5.1444645287963535"><ele>696.4</ele><time>2026-04-25T09:07:00Z</time></trkpt><trkpt lat="36.61643945351214" lon="-5.144545684932232"><ele>698.0</ele><time>2026-04-25T09:07:01Z</time></trkpt><trkpt lat="36.61647434966144" lon="-5.144685895517268"><ele>698.0</ele><time>2026-04-25T09:07:02Z</time></trkpt><trkpt lat="36.6165181147956" lon="-5.144809927127662"><ele>698.0</ele><time>2026-04-25T09:07:03Z</time></trkpt><trkpt lat="36.616570514792805" lon="-5.144936165012069"><ele>698.0</ele><time>2026-04-25T09:07:04Z</time></trkpt><trkpt lat="36.61663040646016" lon="-5.145036933868031"><ele>698.0</ele><time>2026-04-25T09:07:05Z</time></trkpt><trkpt lat="36.616712477872795" lon="-5.145090781200575"><ele>698.0</ele><time>2026-04-25T09:07:06Z</time></trkpt><trkpt lat="36.61680349690871" lon="-5.1450940862889425"><ele>696.8</ele><time>2026-04-25T09:07:07Z</time></trkpt><trkpt lat="36.61689383477391" lon="-5.145023921846381"><ele>695.5999999999999</ele><time>2026-04-25T09:07:08Z</time></trkpt><trkpt lat="36.616965631400184" lon="-5.145040358379744"><ele>694.4000000000001</ele><time>2026-04-25T09:07:09Z</time></trkpt><trkpt lat="36.61703598983276" lon="-5.145039950007885"><ele>693.2</ele><time>2026-04-25T09:07:10Z</time></trkpt><trkpt lat="36.617105867644405" lon="-5.145141752150855"><ele>692.0</ele><time>2026-04-25T09:07:11Z</time></trkpt><trkpt lat="36.61714849077984" lon="-5.145246569208557"><ele>692.0</ele><time>2026-04-25T09:07:12Z</time></trkpt><trkpt lat="36.6171626727862" lon="-5.145379494744802"><ele>692.0</ele><time>2026-04-25T09:07:13Z</time></trkpt><trkpt lat="36.61718104267026" lon="-5.145518415199511"><ele>692.0</ele><time>2026-04-25T09:07:14Z</time></trkpt><trkpt lat="36.61723705279239" lon="-5.145648931964126"><ele>692.0</ele><time>2026-04-25T09:07:15Z</time></trkpt><trkpt lat="36.61732922047314" lon="-5.145758561658539"><ele>687.75</ele><time>2026-04-25T09:07:16Z</time></trkpt><trkpt lat="36.617430663476746" lon="-5.145862065157027"><ele>683.5</ele><time>2026-04-25T09:07:17Z</time></trkpt><trkpt lat="36.61754251211704" lon="-5.1459690030226275"><ele>679.25</ele><time>2026-04-25T09:07:18Z</time></trkpt><trkpt lat="36.61763966123741" lon="-5.146070931794559"><ele>675.0</ele><time>2026-04-25T09:07:19Z</time></trkpt><trkpt lat="36.61773854680851" lon="-5.1461487752381165"><ele>678.5</ele><time>2026-04-25T09:07:20Z</time></trkpt><trkpt lat="36.61785553691149" lon="-5.14617523503675"><ele>682.0</ele><time>2026-04-25T09:07:21Z</time></trkpt><trkpt lat="36.61797181954727" lon="-5.146192760877188"><ele>685.5</ele><time>2026-04-25T09:07:22Z</time></trkpt><trkpt lat="36.618099991596615" lon="-5.1462259782718185"><ele>689.0</ele><time>2026-04-25T09:07:23Z</time></trkpt><trkpt lat="36.61822524731185" lon="-5.146242403721176"><ele>689.0</ele><time>2026-04-25T09:07:24Z</time></trkpt><trkpt lat="36.61835433414721" lon="-5.146262443752521"><ele>689.0</ele><time>2026-04-25T09:07:25Z</time></trkpt><trkpt lat="36.61843066816455" lon="-5.146265016379314"><ele>689.0</ele><time>2026-04-25T09:07:26Z</time></trkpt><trkpt lat="36.61850050804578" lon="-5.146247105698979"><ele>689.0</ele><time>2026-04-25T09:07:27Z</time></trkpt><trkpt lat="36.61854811763896" lon="-5.146180412048521"><ele>689.0</ele><time>2026-04-25T09:07:28Z</time></trkpt><trkpt lat="36.61855626028344" lon="-5.146086944505369"><ele>689.0</ele><time>2026-04-25T09:07:29Z</time></trkpt><trkpt lat="36.61854090699161" lon="-5.14597788762918"><ele>689.0</ele><time>2026-04-25T09:07:30Z</time></trkpt><trkpt lat="36.61850093975064" lon="-5.145853031792066"><ele>689.0</ele><time>2026-04-25T09:07:31Z</time></trkpt><trkpt lat="36.61845152077222" lon="-5.14570307839915"><ele>689.0</ele><time>2026-04-25T09:07:32Z</time></trkpt><trkpt lat="36.61838571737306" lon="-5.145515483360166"><ele>689.0</ele><time>2026-04-25T09:07:32.999Z</time></trkpt><trkpt lat="36.61832723223142" lon="-5.1453060487853195"><ele>693.0</ele><time>2026-04-25T09:07:33.999Z</time></trkpt><trkpt lat="36.61828219839559" lon="-5.145109637768993"><ele>697.0</ele><time>2026-04-25T09:07:34.999Z</time></trkpt><trkpt lat="36.61824376392569" lon="-5.144930473557831"><ele>701.0</ele><time>2026-04-25T09:07:35.999Z</time></trkpt><trkpt lat="36.61820380015551" lon="-5.144745541702428"><ele>702.75</ele><time>2026-04-25T09:07:36.999Z</time></trkpt><trkpt lat="36.61816903627136" lon="-5.144567144931983"><ele>704.5</ele><time>2026-04-25T09:07:37.999Z</time></trkpt><trkpt lat="36.61813751772815" lon="-5.144387918616491"><ele>706.25</ele><time>2026-04-25T09:07:38.999Z</time></trkpt><trkpt lat="36.61810411133947" lon="-5.144199988844857"><ele>708.0</ele><time>2026-04-25T09:07:39.999Z</time></trkpt><trkpt lat="36.61807110613715" lon="-5.1440193632835305"><ele>708.0</ele><time>2026-04-25T09:07:40.999Z</time></trkpt><trkpt lat="36.61803739574044" lon="-5.143855960836766"><ele>708.0</ele><time>2026-04-25T09:07:41.999Z</time></trkpt><trkpt lat="36.61799770308916" lon="-5.143708744961291"><ele>708.0</ele><time>2026-04-25T09:07:42.999Z</time></trkpt><trkpt lat="36.61795412514306" lon="-5.143586171148187"><ele>708.0</ele><time>2026-04-25T09:07:43.999Z</time></trkpt><trkpt lat="36.617906134458735" lon="-5.143478203166853"><ele>708.0</ele><time>2026-04-25T09:07:44.999Z</time></trkpt><trkpt lat="36.61784769731553" lon="-5.143364143083391"><ele>708.0</ele><time>2026-04-25T09:07:45.999Z</time></trkpt><trkpt lat="36.61777812110976" lon="-5.143245079629401"><ele>708.0</ele><time>2026-04-25T09:07:46.999Z</time></trkpt><trkpt lat="36.61770360828776" lon="-5.143123223965457"><ele>708.0</ele><time>2026-04-25T09:07:47.999Z</time></trkpt><trkpt lat="36.61763334635326" lon="-5.143004495209063"><ele>714.75</ele><time>2026-04-25T09:07:48.999Z</time></trkpt><trkpt lat="36.61757625482664" lon="-5.142867890993181"><ele>721.5</ele><time>2026-04-25T09:07:49.999Z</time></trkpt><trkpt lat="36.61749506502038" lon="-5.142741068569606"><ele>728.25</ele><time>2026-04-25T09:07:50.999Z</time></trkpt><trkpt lat="36.617436986059396" lon="-5.142584169126279"><ele>735.0</ele><time>2026-04-25T09:07:51.999Z</time></trkpt><trkpt lat="36.61736545170104" lon="-5.142437241856531"><ele>734.5</ele><time>2026-04-25T09:07:52.999Z</time></trkpt><trkpt lat="36.61730580895102" lon="-5.14227850563846"><ele>734.0</ele><time>2026-04-25T09:07:53.999Z</time></trkpt><trkpt lat="36.61725448799949" lon="-5.142114664273292"><ele>733.5</ele><time>2026-04-25T09:07:54.999Z</time></trkpt><trkpt lat="36.617188602426324" lon="-5.14195399944753"><ele>733.0</ele><time>2026-04-25T09:07:55.999Z</time></trkpt><trkpt lat="36.617152953335605" lon="-5.141781779175419"><ele>733.0</ele><time>2026-04-25T09:07:56.999Z</time></trkpt><trkpt lat="36.617104573807346" lon="-5.141616992181582"><ele>733.0</ele><time>2026-04-25T09:07:57.999Z</time></trkpt><trkpt lat="36.6170442703445" lon="-5.141461902166575"><ele>733.0</ele><time>2026-04-25T09:07:58.999Z</time></trkpt><trkpt lat="36.617013483314054" lon="-5.141300677817557"><ele>733.0</ele><time>2026-04-25T09:07:59.999Z</time></trkpt><trkpt lat="36.61696317178048" lon="-5.141158088583626"><ele>738.4</ele><time>2026-04-25T09:08:00.999Z</time></trkpt><trkpt lat="36.61692092152477" lon="-5.141021879435481"><ele>743.8</ele><time>2026-04-25T09:08:01.999Z</time></trkpt><trkpt lat="36.61687454492138" lon="-5.140893897014387"><ele>749.2</ele><time>2026-04-25T09:08:02.999Z</time></trkpt><trkpt lat="36.61682713204461" lon="-5.140784499202662"><ele>754.6</ele><time>2026-04-25T09:08:03.999Z</time></trkpt><trkpt lat="36.61678239809719" lon="-5.140701890665875"><ele>760.0</ele><time>2026-04-25T09:08:04.999Z</time></trkpt><trkpt lat="36.61675581330057" lon="-5.140596128617266"><ele>763.1666666666667</ele><time>2026-04-25T09:08:06.999Z</time></trkpt><trkpt lat="36.61672475193529" lon="-5.140515999931863"><ele>766.3333333333334</ele><time>2026-04-25T09:08:07.999Z</time></trkpt><trkpt lat="36.61663362725888" lon="-5.140534477813867"><ele>769.5</ele><time>2026-04-25T09:08:09.999Z</time></trkpt><trkpt lat="36.61656156882463" lon="-5.140534477813799"><ele>772.6666666666667</ele><time>2026-04-25T09:08:10.999Z</time></trkpt><trkpt lat="36.616470819292935" lon="-5.140534477812007"><ele>775.8333333333334</ele><time>2026-04-25T09:08:11.999Z</time></trkpt><trkpt lat="36.61634809371201" lon="-5.140537247876649"><ele>779.0</ele><time>2026-04-25T09:08:12.999Z</time></trkpt><trkpt lat="36.616219962748204" lon="-5.140537426171627"><ele>778.5</ele><time>2026-04-25T09:08:13.999Z</time></trkpt><trkpt lat="36.61607773005697" lon="-5.140600179340292"><ele>778.0</ele><time>2026-04-25T09:08:14.999Z</time></trkpt><trkpt lat="36.61593277553826" lon="-5.140656457587514"><ele>777.5</ele><time>2026-04-25T09:08:15.999Z</time></trkpt><trkpt lat="36.615813656365894" lon="-5.140712070957565"><ele>777.0</ele><time>2026-04-25T09:08:16.999Z</time></trkpt><trkpt lat="36.61571271326147" lon="-5.140765076754075"><ele>777.0</ele><time>2026-04-25T09:08:17.999Z</time></trkpt><trkpt lat="36.615613327743105" lon="-5.1407905186574885"><ele>777.0</ele><time>2026-04-25T09:08:18.999Z</time></trkpt><trkpt lat="36.61552218884472" lon="-5.140765651840626"><ele>777.0</ele><time>2026-04-25T09:08:19.999Z</time></trkpt><trkpt lat="36.6154378735873" lon="-5.140690812467452"><ele>777.0</ele><time>2026-04-25T09:08:20.999Z</time></trkpt><trkpt lat="36.61538641523073" lon="-5.140568154918502"><ele>777.0</ele><time>2026-04-25T09:08:21.999Z</time></trkpt><trkpt lat="36.615393481178515" lon="-5.140424771449952"><ele>777.0</ele><time>2026-04-25T09:08:22.999Z</time></trkpt><trkpt lat="36.61544641863481" lon="-5.140268289556032"><ele>777.0</ele><time>2026-04-25T09:08:23.999Z</time></trkpt><trkpt lat="36.615520100824824" lon="-5.1401037578594355"><ele>777.0</ele><time>2026-04-25T09:08:25Z</time></trkpt><trkpt lat="36.615566236587775" lon="-5.139911746350875"><ele>777.0</ele><time>2026-04-25T09:08:26Z</time></trkpt><trkpt lat="36.61558643763217" lon="-5.139701895144063"><ele>779.0</ele><time>2026-04-25T09:08:27Z</time></trkpt><trkpt lat="36.61557009862214" lon="-5.139483482980296"><ele>781.0</ele><time>2026-04-25T09:08:28Z</time></trkpt><trkpt lat="36.61557821344205" lon="-5.139275731665395"><ele>783.0</ele><time>2026-04-25T09:08:29Z</time></trkpt><trkpt lat="36.61555889604503" lon="-5.139084174173275"><ele>783.6666666666667</ele><time>2026-04-25T09:08:30Z</time></trkpt><trkpt lat="36.61558383361213" lon="-5.138888294002891"><ele>784.3333333333334</ele><time>2026-04-25T09:08:31Z</time></trkpt><trkpt lat="36.615624083325535" lon="-5.138695399713425"><ele>785.0</ele><time>2026-04-25T09:08:32Z</time></trkpt><trkpt lat="36.615674892369434" lon="-5.138523489452423"><ele>785.0</ele><time>2026-04-25T09:08:33Z</time></trkpt><trkpt lat="36.615719800698606" lon="-5.138379860750676"><ele>785.0</ele><time>2026-04-25T09:08:34Z</time></trkpt><trkpt lat="36.615726408030646" lon="-5.1382279276547465"><ele>785.0</ele><time>2026-04-25T09:08:35Z</time></trkpt><trkpt lat="36.615651775636756" lon="-5.138088433355756"><ele>785.0</ele><time>2026-04-25T09:08:36Z</time></trkpt><trkpt lat="36.61562509238242" lon="-5.137933852776168"><ele>785.5</ele><time>2026-04-25T09:08:37Z</time></trkpt><trkpt lat="36.615610452629795" lon="-5.137787174662809"><ele>786.0</ele><time>2026-04-25T09:08:38Z</time></trkpt><trkpt lat="36.61563568964648" lon="-5.137634970147268"><ele>786.5</ele><time>2026-04-25T09:08:39Z</time></trkpt><trkpt lat="36.61562409463124" lon="-5.13749348085295"><ele>787.0</ele><time>2026-04-25T09:08:40Z</time></trkpt><trkpt lat="36.61557141592708" lon="-5.137361986201152"><ele>789.5</ele><time>2026-04-25T09:08:41Z</time></trkpt><trkpt lat="36.615478428553565" lon="-5.137255027500171"><ele>792.0</ele><time>2026-04-25T09:08:42Z</time></trkpt><trkpt lat="36.615398375885775" lon="-5.137131345822241"><ele>794.5</ele><time>2026-04-25T09:08:43Z</time></trkpt><trkpt lat="36.61532741880018" lon="-5.136996524209263"><ele>797.0</ele><time>2026-04-25T09:08:44Z</time></trkpt><trkpt lat="36.61528202724125" lon="-5.136833236713529"><ele>793.5</ele><time>2026-04-25T09:08:45Z</time></trkpt><trkpt lat="36.61522206273084" lon="-5.13667473844266"><ele>790.0</ele><time>2026-04-25T09:08:46Z</time></trkpt><trkpt lat="36.615122275957575" lon="-5.13655211464327"><ele>786.5</ele><time>2026-04-25T09:08:47Z</time></trkpt><trkpt lat="36.615029500182324" lon="-5.136444777905108"><ele>783.0</ele><time>2026-04-25T09:08:48Z</time></trkpt><trkpt lat="36.61493570796392" lon="-5.136329795033201"><ele>783.0</ele><time>2026-04-25T09:08:49Z</time></trkpt><trkpt lat="36.61486463694005" lon="-5.136207403036634"><ele>783.0</ele><time>2026-04-25T09:08:50Z</time></trkpt><trkpt lat="36.61479818668944" lon="-5.136088191171542"><ele>783.0</ele><time>2026-04-25T09:08:51Z</time></trkpt><trkpt lat="36.61473286368567" lon="-5.135980927368824"><ele>783.0</ele><time>2026-04-25T09:08:52Z</time></trkpt><trkpt lat="36.61464907169056" lon="-5.135894006413428"><ele>783.0</ele><time>2026-04-25T09:08:53Z</time></trkpt><trkpt lat="36.61454845116551" lon="-5.135822210127513"><ele>783.0</ele><time>2026-04-25T09:08:54Z</time></trkpt><trkpt lat="36.61446068517177" lon="-5.135722461448281"><ele>783.0</ele><time>2026-04-25T09:08:55Z</time></trkpt><trkpt lat="36.6143922590744" lon="-5.135594395707824"><ele>783.0</ele><time>2026-04-25T09:08:56Z</time></trkpt><trkpt lat="36.61433109294092" lon="-5.13547666383261"><ele>781.5999999999999</ele><time>2026-04-25T09:08:57Z</time></trkpt><trkpt lat="36.6142734554598" lon="-5.135370904014765"><ele>780.1999999999999</ele><time>2026-04-25T09:08:58Z</time></trkpt><trkpt lat="36.61420306401769" lon="-5.1352862185586705"><ele>778.8</ele><time>2026-04-25T09:08:59Z</time></trkpt><trkpt lat="36.614115139713896" lon="-5.135256951256571"><ele>777.4</ele><time>2026-04-25T09:09:00Z</time></trkpt><trkpt lat="36.614024410719146" lon="-5.135245836668641"><ele>776.0</ele><time>2026-04-25T09:09:01Z</time></trkpt><trkpt lat="36.61394667995604" lon="-5.1352834164821175"><ele>776.0</ele><time>2026-04-25T09:09:02Z</time></trkpt><trkpt lat="36.613879084463505" lon="-5.13534529211934"><ele>776.0</ele><time>2026-04-25T09:09:03Z</time></trkpt><trkpt lat="36.61385750081528" lon="-5.135469719390823"><ele>776.0</ele><time>2026-04-25T09:09:04Z</time></trkpt><trkpt lat="36.61387091461426" lon="-5.1356160104706445"><ele>776.0</ele><time>2026-04-25T09:09:05Z</time></trkpt><trkpt lat="36.613893181994186" lon="-5.135776565102284"><ele>776.0</ele><time>2026-04-25T09:09:06Z</time></trkpt><trkpt lat="36.61391573434646" lon="-5.135933667109098"><ele>774.5999999999999</ele><time>2026-04-25T09:09:07Z</time></trkpt><trkpt lat="36.613937944335234" lon="-5.136071097654491"><ele>773.2</ele><time>2026-04-25T09:09:08Z</time></trkpt><trkpt lat="36.61395517936713" lon="-5.13619914798677"><ele>771.8</ele><time>2026-04-25T09:09:09Z</time></trkpt><trkpt lat="36.61397362059228" lon="-5.136331243200277"><ele>770.4000000000001</ele><time>2026-04-25T09:09:10Z</time></trkpt><trkpt lat="36.613986796437096" lon="-5.136474941264496"><ele>769.0</ele><time>2026-04-25T09:09:11Z</time></trkpt><trkpt lat="36.61397660064663" lon="-5.1366271247426285"><ele>768.25</ele><time>2026-04-25T09:09:12Z</time></trkpt><trkpt lat="36.613949410058034" lon="-5.136790798093914"><ele>767.5</ele><time>2026-04-25T09:09:13Z</time></trkpt><trkpt lat="36.61390012660901" lon="-5.13695951488174"><ele>766.75</ele><time>2026-04-25T09:09:14Z</time></trkpt><trkpt lat="36.613846093558074" lon="-5.13712988016729"><ele>766.0</ele><time>2026-04-25T09:09:15Z</time></trkpt><trkpt lat="36.61378445456846" lon="-5.137298361336097"><ele>763.3333333333334</ele><time>2026-04-25T09:09:16Z</time></trkpt><trkpt lat="36.6137175137132" lon="-5.137477463082706"><ele>760.6666666666666</ele><time>2026-04-25T09:09:17Z</time></trkpt><trkpt lat="36.61365471715189" lon="-5.137661166931494"><ele>758.0</ele><time>2026-04-25T09:09:18Z</time></trkpt><trkpt lat="36.61358637777817" lon="-5.137852142433302"><ele>765.6666666666666</ele><time>2026-04-25T09:09:19Z</time></trkpt><trkpt lat="36.61351585862437" lon="-5.138039536986973"><ele>773.3333333333333</ele><time>2026-04-25T09:09:20Z</time></trkpt><trkpt lat="36.61344344510033" lon="-5.138215993244498"><ele>781.0</ele><time>2026-04-25T09:09:21Z</time></trkpt><trkpt lat="36.61336692048099" lon="-5.1383838386464245"><ele>781.0</ele><time>2026-04-25T09:09:22Z</time></trkpt><trkpt lat="36.613287722157196" lon="-5.138548750675865"><ele>781.0</ele><time>2026-04-25T09:09:23Z</time></trkpt><trkpt lat="36.61321497263642" lon="-5.1387110048482345"><ele>781.0</ele><time>2026-04-25T09:09:24Z</time></trkpt><trkpt lat="36.6131412110493" lon="-5.138869991697936"><ele>781.0</ele><time>2026-04-25T09:09:25Z</time></trkpt><trkpt lat="36.61306060153609" lon="-5.139027229616356"><ele>781.0</ele><time>2026-04-25T09:09:26Z</time></trkpt><trkpt lat="36.61297439777794" lon="-5.139183661260307"><ele>781.0</ele><time>2026-04-25T09:09:27Z</time></trkpt><trkpt lat="36.6128843939861" lon="-5.139318231978369"><ele>781.0</ele><time>2026-04-25T09:09:28Z</time></trkpt><trkpt lat="36.61279467355376" lon="-5.139421962236951"><ele>783.0</ele><time>2026-04-25T09:09:29Z</time></trkpt><trkpt lat="36.612690347816674" lon="-5.139504213393443"><ele>785.0</ele><time>2026-04-25T09:09:30Z</time></trkpt><trkpt lat="36.6125730048233" lon="-5.1395509032646185"><ele>787.0</ele><time>2026-04-25T09:09:31Z</time></trkpt><trkpt lat="36.612460461634235" lon="-5.139570020607022"><ele>789.0</ele><time>2026-04-25T09:09:32Z</time></trkpt><trkpt lat="36.6123708356132" lon="-5.1395874974490505"><ele>789.0</ele><time>2026-04-25T09:09:33Z</time></trkpt><trkpt lat="36.6123076533458" lon="-5.139649346473704"><ele>789.0</ele><time>2026-04-25T09:09:34Z</time></trkpt><trkpt lat="36.61227155707974" lon="-5.1397534799993565"><ele>789.0</ele><time>2026-04-25T09:09:34.999Z</time></trkpt><trkpt lat="36.61227318957436" lon="-5.139902578328022"><ele>789.0</ele><time>2026-04-25T09:09:35.999Z</time></trkpt><trkpt lat="36.612264047183935" lon="-5.1400471255472855"><ele>789.0</ele><time>2026-04-25T09:09:36.999Z</time></trkpt><trkpt lat="36.61222530014363" lon="-5.1402332441224345"><ele>786.0</ele><time>2026-04-25T09:09:37.999Z</time></trkpt><trkpt lat="36.61219475773867" lon="-5.140404052273799"><ele>783.0</ele><time>2026-04-25T09:09:38.999Z</time></trkpt><trkpt lat="36.61216627346588" lon="-5.140569302452109"><ele>780.0</ele><time>2026-04-25T09:09:39.999Z</time></trkpt><trkpt lat="36.61213894069565" lon="-5.140716110715318"><ele>777.0</ele><time>2026-04-25T09:09:40.999Z</time></trkpt><trkpt lat="36.61212062960089" lon="-5.140864330789095"><ele>775.0</ele><time>2026-04-25T09:09:41.999Z</time></trkpt><trkpt lat="36.61208037329524" lon="-5.14100822723635"><ele>773.0</ele><time>2026-04-25T09:09:42.999Z</time></trkpt><trkpt lat="36.61204561572017" lon="-5.141142354362099"><ele>771.0</ele><time>2026-04-25T09:09:43.999Z</time></trkpt><trkpt lat="36.611986128223286" lon="-5.141258925176"><ele>769.0</ele><time>2026-04-25T09:09:44.999Z</time></trkpt><trkpt lat="36.61190895119606" lon="-5.141346703388078"><ele>773.6</ele><time>2026-04-25T09:09:45.999Z</time></trkpt><trkpt lat="36.611803580165656" lon="-5.1413818389793375"><ele>778.2</ele><time>2026-04-25T09:09:46.999Z</time></trkpt><trkpt lat="36.611689385317334" lon="-5.1413708190959335"><ele>782.8000000000001</ele><time>2026-04-25T09:09:47.999Z</time></trkpt><trkpt lat="36.61158452057534" lon="-5.141343900375643"><ele>787.4000000000001</ele><time>2026-04-25T09:09:48.999Z</time></trkpt><trkpt lat="36.61148970202557" lon="-5.141371058207598"><ele>792.0</ele><time>2026-04-25T09:09:49.999Z</time></trkpt><trkpt lat="36.61140365222315" lon="-5.141445341211613"><ele>793.4000000000001</ele><time>2026-04-25T09:09:50.999Z</time></trkpt><trkpt lat="36.611373984231285" lon="-5.141578389124432"><ele>794.8000000000001</ele><time>2026-04-25T09:09:51.999Z</time></trkpt><trkpt lat="36.61130796215665" lon="-5.141688842475419"><ele>796.2</ele><time>2026-04-25T09:09:52.999Z</time></trkpt><trkpt lat="36.61125185647946" lon="-5.141794662160599"><ele>797.6</ele><time>2026-04-25T09:09:53.999Z</time></trkpt><trkpt lat="36.61119928251292" lon="-5.141912399507443"><ele>799.0</ele><time>2026-04-25T09:09:54.999Z</time></trkpt><trkpt lat="36.61113257127201" lon="-5.142024623267157"><ele>799.0</ele><time>2026-04-25T09:09:55.999Z</time></trkpt><trkpt lat="36.61107997947739" lon="-5.142151632593656"><ele>799.0</ele><time>2026-04-25T09:09:56.999Z</time></trkpt><trkpt lat="36.61102519552975" lon="-5.142265358140896"><ele>799.0</ele><time>2026-04-25T09:09:57.999Z</time></trkpt><trkpt lat="36.610961512553146" lon="-5.142361625995148"><ele>799.0</ele><time>2026-04-25T09:09:58.999Z</time></trkpt><trkpt lat="36.61087390419074" lon="-5.142456648055328"><ele>799.0</ele><time>2026-04-25T09:09:59.999Z</time></trkpt><trkpt lat="36.61078036196841" lon="-5.1425286317821906"><ele>794.0</ele><time>2026-04-25T09:10:00.999Z</time></trkpt><trkpt lat="36.61067032301476" lon="-5.142579599662282"><ele>789.0</ele><time>2026-04-25T09:10:01.999Z</time></trkpt><trkpt lat="36.61056604278971" lon="-5.142638097902851"><ele>784.0</ele><time>2026-04-25T09:10:02.999Z</time></trkpt><trkpt lat="36.61046394059716" lon="-5.142690039886178"><ele>779.0</ele><time>2026-04-25T09:10:03.999Z</time></trkpt><trkpt lat="36.61036221611937" lon="-5.142738025575996"><ele>780.6</ele><time>2026-04-25T09:10:04.999Z</time></trkpt><trkpt lat="36.610273767022925" lon="-5.142779938270147"><ele>782.2</ele><time>2026-04-25T09:10:05.999Z</time></trkpt><trkpt lat="36.61018461698353" lon="-5.142787941066953"><ele>783.8000000000001</ele><time>2026-04-25T09:10:06.999Z</time></trkpt><trkpt lat="36.6100842680428" lon="-5.142789997067164"><ele>785.4000000000001</ele><time>2026-04-25T09:10:07.999Z</time></trkpt><trkpt lat="36.609999124876566" lon="-5.142674366890932"><ele>787.0</ele><time>2026-04-25T09:10:08.999Z</time></trkpt><trkpt lat="36.609921288115636" lon="-5.1425776584164336"><ele>787.0</ele><time>2026-04-25T09:10:09.999Z</time></trkpt><trkpt lat="36.60983789202534" lon="-5.14250741113087"><ele>787.0</ele><time>2026-04-25T09:10:10.999Z</time></trkpt><trkpt lat="36.60973787143679" lon="-5.142512611979173"><ele>787.0</ele><time>2026-04-25T09:10:11.999Z</time></trkpt><trkpt lat="36.60962634258172" lon="-5.142564286073983"><ele>787.0</ele><time>2026-04-25T09:10:12.999Z</time></trkpt><trkpt lat="36.60951678891013" lon="-5.142614377492268"><ele>787.0</ele><time>2026-04-25T09:10:13.999Z</time></trkpt><trkpt lat="36.609427204641584" lon="-5.142652640998968"><ele>788.3333333333333</ele><time>2026-04-25T09:10:14.999Z</time></trkpt><trkpt lat="36.60934783365342" lon="-5.142703492911941"><ele>789.6666666666666</ele><time>2026-04-25T09:10:15.999Z</time></trkpt><trkpt lat="36.60930001648176" lon="-5.1427804530219845"><ele>791.0</ele><time>2026-04-25T09:10:16.999Z</time></trkpt><trkpt lat="36.60930792878004" lon="-5.142885846408797"><ele>792.3333333333333</ele><time>2026-04-25T09:10:17.999Z</time></trkpt><trkpt lat="36.60931780516721" lon="-5.1429898566374375"><ele>793.6666666666666</ele><time>2026-04-25T09:10:18.999Z</time></trkpt><trkpt lat="36.60937391353699" lon="-5.143105033856436"><ele>795.0</ele><time>2026-04-25T09:10:19.999Z</time></trkpt><trkpt lat="36.60942774015458" lon="-5.143222733499784"><ele>788.5</ele><time>2026-04-25T09:10:20.999Z</time></trkpt><trkpt lat="36.60953422497453" lon="-5.143337430224757"><ele>782.0</ele><time>2026-04-25T09:10:21.999Z</time></trkpt><trkpt lat="36.60962041505564" lon="-5.143462353634727"><ele>775.5</ele><time>2026-04-25T09:10:22.999Z</time></trkpt><trkpt lat="36.60968273032684" lon="-5.143604689543206"><ele>769.0</ele><time>2026-04-25T09:10:23.999Z</time></trkpt><trkpt lat="36.60972402392825" lon="-5.143755730974112"><ele>769.0</ele><time>2026-04-25T09:10:24.999Z</time></trkpt><trkpt lat="36.609765565311925" lon="-5.143923434015274"><ele>769.0</ele><time>2026-04-25T09:10:25.999Z</time></trkpt><trkpt lat="36.609827602190904" lon="-5.144088258506976"><ele>769.0</ele><time>2026-04-25T09:10:26.999Z</time></trkpt><trkpt lat="36.609898873499645" lon="-5.144237243826977"><ele>769.0</ele><time>2026-04-25T09:10:27.999Z</time></trkpt><trkpt lat="36.60997777446858" lon="-5.144382122834372"><ele>770.25</ele><time>2026-04-25T09:10:28.999Z</time></trkpt><trkpt lat="36.61008106939022" lon="-5.144500496695011"><ele>771.5</ele><time>2026-04-25T09:10:29.999Z</time></trkpt><trkpt lat="36.61018533096355" lon="-5.144611733536091"><ele>772.75</ele><time>2026-04-25T09:10:31Z</time></trkpt><trkpt lat="36.61026541442077" lon="-5.144725231474"><ele>774.0</ele><time>2026-04-25T09:10:32Z</time></trkpt><trkpt lat="36.61032729404508" lon="-5.144859877475596"><ele>771.75</ele><time>2026-04-25T09:10:33Z</time></trkpt><trkpt lat="36.610395560605944" lon="-5.144988404980407"><ele>769.5</ele><time>2026-04-25T09:10:34Z</time></trkpt><trkpt lat="36.61049077315726" lon="-5.14509797004867"><ele>767.25</ele><time>2026-04-25T09:10:35Z</time></trkpt><trkpt lat="36.610608560406085" lon="-5.14516971686189"><ele>765.0</ele><time>2026-04-25T09:10:36Z</time></trkpt><trkpt lat="36.610748452570185" lon="-5.145204557096774"><ele>765.0</ele><time>2026-04-25T09:10:37Z</time></trkpt><trkpt lat="36.61089877714422" lon="-5.14521440737187"><ele>765.0</ele><time>2026-04-25T09:10:38Z</time></trkpt><trkpt lat="36.611040632170145" lon="-5.145231973209442"><ele>765.0</ele><time>2026-04-25T09:10:39Z</time></trkpt><trkpt lat="36.61119710376137" lon="-5.145284528096493"><ele>759.3333333333334</ele><time>2026-04-25T09:10:40Z</time></trkpt><trkpt lat="36.61135038490997" lon="-5.145342002443932"><ele>753.6666666666667</ele><time>2026-04-25T09:10:41Z</time></trkpt><trkpt lat="36.61149323369722" lon="-5.145414439625603"><ele>748.0</ele><time>2026-04-25T09:10:42Z</time></trkpt><trkpt lat="36.611641830072344" lon="-5.145516515842453"><ele>748.0</ele><time>2026-04-25T09:10:43Z</time></trkpt><trkpt lat="36.61179225621473" lon="-5.145612242925052"><ele>748.0</ele><time>2026-04-25T09:10:44Z</time></trkpt><trkpt lat="36.61191078589561" lon="-5.145729473849615"><ele>748.0</ele><time>2026-04-25T09:10:45Z</time></trkpt><trkpt lat="36.61203795859641" lon="-5.145817591297285"><ele>750.4</ele><time>2026-04-25T09:10:46Z</time></trkpt><trkpt lat="36.61214163116317" lon="-5.145900321067755"><ele>752.8</ele><time>2026-04-25T09:10:47Z</time></trkpt><trkpt lat="36.61223309831861" lon="-5.145981559855587"><ele>755.2</ele><time>2026-04-25T09:10:48Z</time></trkpt><trkpt lat="36.612300445729396" lon="-5.146075222970962"><ele>757.6</ele><time>2026-04-25T09:10:49Z</time></trkpt><trkpt lat="36.61233310618223" lon="-5.146193751801414"><ele>760.0</ele><time>2026-04-25T09:10:50Z</time></trkpt><trkpt lat="36.612347581883135" lon="-5.146330558861883"><ele>760.0</ele><time>2026-04-25T09:10:51Z</time></trkpt><trkpt lat="36.612377000403264" lon="-5.146457386657466"><ele>760.0</ele><time>2026-04-25T09:10:52Z</time></trkpt><trkpt lat="36.61242898320862" lon="-5.146555601194851"><ele>760.0</ele><time>2026-04-25T09:10:53Z</time></trkpt><trkpt lat="36.61249013637548" lon="-5.14661722196223"><ele>760.0</ele><time>2026-04-25T09:10:54Z</time></trkpt><trkpt lat="36.612557730577855" lon="-5.146656527090872"><ele>760.0</ele><time>2026-04-25T09:10:55Z</time></trkpt><trkpt lat="36.61262345596554" lon="-5.146707079813951"><ele>760.0</ele><time>2026-04-25T09:10:56Z</time></trkpt><trkpt lat="36.61268042911559" lon="-5.146783906610046"><ele>763.8</ele><time>2026-04-25T09:10:57Z</time></trkpt><trkpt lat="36.61271954983968" lon="-5.1468833213396135"><ele>767.6</ele><time>2026-04-25T09:10:58Z</time></trkpt><trkpt lat="36.61274319938294" lon="-5.147002152536074"><ele>771.4000000000001</ele><time>2026-04-25T09:10:59Z</time></trkpt><trkpt lat="36.61274966081956" lon="-5.147111460324264"><ele>775.2</ele><time>2026-04-25T09:11:00Z</time></trkpt><trkpt lat="36.612744339953665" lon="-5.147198897130996"><ele>779.0</ele><time>2026-04-25T09:11:01Z</time></trkpt><trkpt lat="36.61273838161374" lon="-5.147352272980765"><ele>780.5000000000001</ele><time>2026-04-25T09:11:03Z</time></trkpt><trkpt lat="36.612726959324064" lon="-5.1475020485500815"><ele>782.0</ele><time>2026-04-25T09:11:05Z</time></trkpt><trkpt lat="36.612707201973194" lon="-5.147587774745098"><ele>783.5</ele><time>2026-04-25T09:11:06Z</time></trkpt><trkpt lat="36.61268885188427" lon="-5.147682911637785"><ele>785.0</ele><time>2026-04-25T09:11:07Z</time></trkpt><trkpt lat="36.61266776093988" lon="-5.147770712994884"><ele>786.5000000000001</ele><time>2026-04-25T09:11:08Z</time></trkpt><trkpt lat="36.61265076206898" lon="-5.147862399157104"><ele>788.0</ele><time>2026-04-25T09:11:09Z</time></trkpt><trkpt lat="36.612638341121226" lon="-5.147953577580433"><ele>788.0000000000001</ele><time>2026-04-25T09:11:10Z</time></trkpt><trkpt lat="36.612630906551445" lon="-5.148035432102066"><ele>788.0</ele><time>2026-04-25T09:11:11Z</time></trkpt><trkpt lat="36.61262033980515" lon="-5.148113329843197"><ele>788.0</ele><time>2026-04-25T09:11:12Z</time></trkpt><trkpt lat="36.612597996139314" lon="-5.148265760246289"><ele>788.0</ele><time>2026-04-25T09:11:14Z</time></trkpt><trkpt lat="36.6125950676944" lon="-5.148344671767312"><ele>788.0000000000001</ele><time>2026-04-25T09:11:15Z</time></trkpt><trkpt lat="36.612596698088886" lon="-5.148428071102966"><ele>788.0</ele><time>2026-04-25T09:11:16Z</time></trkpt><trkpt lat="36.612596159294654" lon="-5.148511371629556"><ele>788.0000000000001</ele><time>2026-04-25T09:11:17Z</time></trkpt><trkpt lat="36.61258694367835" lon="-5.148609417541448"><ele>788.0</ele><time>2026-04-25T09:11:18Z</time></trkpt><trkpt lat="36.61257041093672" lon="-5.148716332498372"><ele>788.0</ele><time>2026-04-25T09:11:19Z</time></trkpt><trkpt lat="36.612556818075205" lon="-5.148816263036242"><ele>788.0</ele><time>2026-04-25T09:11:20Z</time></trkpt><trkpt lat="36.612542778835646" lon="-5.148903639850488"><ele>788.0000000000001</ele><time>2026-04-25T09:11:21Z</time></trkpt><trkpt lat="36.612524247685265" lon="-5.1490639413872925"><ele>788.0</ele><time>2026-04-25T09:11:23Z</time></trkpt><trkpt lat="36.612522963730065" lon="-5.149148226152077"><ele>788.0</ele><time>2026-04-25T09:11:24Z</time></trkpt><trkpt lat="36.6125125010288" lon="-5.149286026905462"><ele>788.0</ele><time>2026-04-25T09:11:26Z</time></trkpt><trkpt lat="36.61252242592979" lon="-5.149429201708678"><ele>788.0</ele><time>2026-04-25T09:11:28Z</time></trkpt><trkpt lat="36.61254312208751" lon="-5.149574528801341"><ele>788.0</ele><time>2026-04-25T09:11:30Z</time></trkpt><trkpt lat="36.6125680645084" lon="-5.149703060375172"><ele>788.0000000000001</ele><time>2026-04-25T09:11:31.999Z</time></trkpt><trkpt lat="36.61258312603177" lon="-5.149806145384345"><ele>788.0</ele><time>2026-04-25T09:11:33.999Z</time></trkpt><trkpt lat="36.612605752499505" lon="-5.149922472185124"><ele>788.0</ele><time>2026-04-25T09:11:36.999Z</time></trkpt><trkpt lat="36.61262374112632" lon="-5.150032751512777"><ele>788.0</ele><time>2026-04-25T09:11:38.999Z</time></trkpt><trkpt lat="36.612634270885465" lon="-5.150115270965156"><ele>788.0000000000001</ele><time>2026-04-25T09:11:40.999Z</time></trkpt><trkpt lat="36.61264487726486" lon="-5.150209984176508"><ele>788.0</ele><time>2026-04-25T09:11:44.999Z</time></trkpt><trkpt lat="36.61261228481198" lon="-5.1502986894867595"><ele>788.0</ele><time>2026-04-25T09:11:48.999Z</time></trkpt><trkpt lat="36.61255899314426" lon="-5.1503673646435395"><ele>788.0</ele><time>2026-04-25T09:11:50.999Z</time></trkpt><trkpt lat="36.61255848551644" lon="-5.150451555612559"><ele>788.0</ele><time>2026-04-25T09:11:52.999Z</time></trkpt><trkpt lat="36.61255457237184" lon="-5.150545238257087"><ele>788.0</ele><time>2026-04-25T09:11:55.999Z</time></trkpt><trkpt lat="36.612559341837425" lon="-5.150644218319797"><ele>788.0</ele><time>2026-04-25T09:11:58.999Z</time></trkpt><trkpt lat="36.61254097823652" lon="-5.150720438837664"><ele>788.0</ele><time>2026-04-25T09:12:01.999Z</time></trkpt><trkpt lat="36.61250772545496" lon="-5.1507999074369515"><ele>788.0</ele><time>2026-04-25T09:12:03.999Z</time></trkpt><trkpt lat="36.61246324373383" lon="-5.150855973224969"><ele>787.5000000000001</ele><time>2026-04-25T09:12:05.999Z</time></trkpt><trkpt lat="36.61239789975903" lon="-5.150933867977854"><ele>787.0</ele><time>2026-04-25T09:12:09.999Z</time></trkpt><trkpt lat="36.61236010103277" lon="-5.151008906864737"><ele>786.5</ele><time>2026-04-25T09:12:11.999Z</time></trkpt><trkpt lat="36.61233495860785" lon="-5.15111711533239"><ele>786.0</ele><time>2026-04-25T09:12:14.999Z</time></trkpt><trkpt lat="36.61231707824139" lon="-5.151216127938111"><ele>785.5000000000001</ele><time>2026-04-25T09:12:16.999Z</time></trkpt><trkpt lat="36.61230486778154" lon="-5.15129406004999"><ele>785.0</ele><time>2026-04-25T09:12:18.999Z</time></trkpt><trkpt lat="36.612284283671414" lon="-5.151378096990858"><ele>785.0</ele><time>2026-04-25T09:12:20.999Z</time></trkpt><trkpt lat="36.61227666086351" lon="-5.1514601882216455"><ele>785.0</ele><time>2026-04-25T09:12:22.999Z</time></trkpt><trkpt lat="36.612247222173764" lon="-5.151564856707603"><ele>785.0</ele><time>2026-04-25T09:12:25.999Z</time></trkpt><trkpt lat="36.6120849286663" lon="-5.151616592545472"><ele>785.0</ele><time>2026-04-25T09:12:28.999Z</time></trkpt><trkpt lat="36.61202163015096" lon="-5.151514154084152"><ele>785.0</ele><time>2026-04-25T09:12:29.999Z</time></trkpt><trkpt lat="36.61196235534328" lon="-5.151406990754792"><ele>789.6</ele><time>2026-04-25T09:12:30.999Z</time></trkpt><trkpt lat="36.611920924564636" lon="-5.151315821425524"><ele>794.2</ele><time>2026-04-25T09:12:31.999Z</time></trkpt><trkpt lat="36.61187878519467" lon="-5.151223092886767"><ele>798.8</ele><time>2026-04-25T09:12:32.999Z</time></trkpt><trkpt lat="36.611826841421724" lon="-5.151146240004187"><ele>803.4</ele><time>2026-04-25T09:12:33.999Z</time></trkpt><trkpt lat="36.61177901523515" lon="-5.151020363523573"><ele>808.0</ele><time>2026-04-25T09:12:35.999Z</time></trkpt><trkpt lat="36.61176718867657" lon="-5.150887553165025"><ele>808.0</ele><time>2026-04-25T09:12:37Z</time></trkpt><trkpt lat="36.611731666218944" lon="-5.150807211559418"><ele>808.0</ele><time>2026-04-25T09:12:38Z</time></trkpt><trkpt lat="36.61170550206132" lon="-5.150685879932979"><ele>808.0</ele><time>2026-04-25T09:12:40Z</time></trkpt><trkpt lat="36.61162076498006" lon="-5.150649253699224"><ele>808.0</ele><time>2026-04-25T09:12:41Z</time></trkpt><trkpt lat="36.611538526110365" lon="-5.15056042588963"><ele>808.0</ele><time>2026-04-25T09:12:43Z</time></trkpt><trkpt lat="36.61146719122466" lon="-5.150443883558894"><ele>808.8333333333333</ele><time>2026-04-25T09:12:45Z</time></trkpt><trkpt lat="36.61143235759929" lon="-5.150376682284437"><ele>809.6666666666666</ele><time>2026-04-25T09:12:46Z</time></trkpt><trkpt lat="36.611413314586635" lon="-5.150286077269861"><ele>810.5</ele><time>2026-04-25T09:12:47Z</time></trkpt><trkpt lat="36.611386909607305" lon="-5.150209644452312"><ele>811.3333333333333</ele><time>2026-04-25T09:12:48Z</time></trkpt><trkpt lat="36.61138485857254" lon="-5.150048484118158"><ele>812.1666666666666</ele><time>2026-04-25T09:12:50Z</time></trkpt><trkpt lat="36.61140715896936" lon="-5.149950171323204"><ele>813.0</ele><time>2026-04-25T09:12:51Z</time></trkpt><trkpt lat="36.611444390175066" lon="-5.149843403884563"><ele>814.0</ele><time>2026-04-25T09:12:52Z</time></trkpt><trkpt lat="36.61149509247172" lon="-5.149747131096962"><ele>815.0</ele><time>2026-04-25T09:12:53Z</time></trkpt><trkpt lat="36.611538818674134" lon="-5.149644225834894"><ele>816.0</ele><time>2026-04-25T09:12:54Z</time></trkpt><trkpt lat="36.61157327306049" lon="-5.149564662656759"><ele>817.0</ele><time>2026-04-25T09:12:55Z</time></trkpt><trkpt lat="36.61157657630348" lon="-5.14944315206906"><ele>818.0</ele><time>2026-04-25T09:12:57Z</time></trkpt><trkpt lat="36.61152763538973" lon="-5.14932684857771"><ele>818.0</ele><time>2026-04-25T09:12:59Z</time></trkpt><trkpt lat="36.61149964233135" lon="-5.149178694342936"><ele>818.0</ele><time>2026-04-25T09:13:01Z</time></trkpt><trkpt lat="36.61145971831396" lon="-5.149110569430702"><ele>818.0</ele><time>2026-04-25T09:13:02Z</time></trkpt><trkpt lat="36.61134416016951" lon="-5.1490631335401655"><ele>818.0</ele><time>2026-04-25T09:13:04Z</time></trkpt><trkpt lat="36.61127386569369" lon="-5.148993447230731"><ele>818.0</ele><time>2026-04-25T09:13:05Z</time></trkpt><trkpt lat="36.611227548392336" lon="-5.148891540309026"><ele>818.4</ele><time>2026-04-25T09:13:06Z</time></trkpt><trkpt lat="36.61116301231046" lon="-5.148811012777415"><ele>818.8</ele><time>2026-04-25T09:13:07Z</time></trkpt><trkpt lat="36.611129137751384" lon="-5.148681274985036"><ele>819.2</ele><time>2026-04-25T09:13:08Z</time></trkpt><trkpt lat="36.61110201901872" lon="-5.148574051888353"><ele>819.6</ele><time>2026-04-25T09:13:09Z</time></trkpt><trkpt lat="36.611086202177006" lon="-5.148447906225656"><ele>820.0</ele><time>2026-04-25T09:13:10Z</time></trkpt><trkpt lat="36.611049109261636" lon="-5.1483566436620665"><ele>822.6666666666666</ele><time>2026-04-25T09:13:11Z</time></trkpt><trkpt lat="36.6110230375352" lon="-5.1482627846446505"><ele>825.3333333333333</ele><time>2026-04-25T09:13:12Z</time></trkpt><trkpt lat="36.610990538859525" lon="-5.148181527520786"><ele>828.0</ele><time>2026-04-25T09:13:13Z</time></trkpt><trkpt lat="36.610963243329" lon="-5.148108349506388"><ele>830.6666666666667</ele><time>2026-04-25T09:13:14Z</time></trkpt><trkpt lat="36.610907973316046" lon="-5.14798781323315"><ele>833.3333333333334</ele><time>2026-04-25T09:13:16Z</time></trkpt><trkpt lat="36.61081124850429" lon="-5.147907281288761"><ele>836.0</ele><time>2026-04-25T09:13:18Z</time></trkpt><trkpt lat="36.61074740533108" lon="-5.147852495212307"><ele>836.0000000000001</ele><time>2026-04-25T09:13:19Z</time></trkpt><trkpt lat="36.610651477228096" lon="-5.147844195854803"><ele>836.0</ele><time>2026-04-25T09:13:20Z</time></trkpt><trkpt lat="36.6105864609148" lon="-5.1478132485994985"><ele>836.0</ele><time>2026-04-25T09:13:21Z</time></trkpt><trkpt lat="36.61052725226259" lon="-5.1477799064632075"><ele>836.0</ele><time>2026-04-25T09:13:23Z</time></trkpt><trkpt lat="36.61044945477825" lon="-5.147730846701992"><ele>836.0000000000001</ele><time>2026-04-25T09:13:25Z</time></trkpt><trkpt lat="36.61036736589857" lon="-5.147647926965011"><ele>836.0</ele><time>2026-04-25T09:21:19Z</time></trkpt><trkpt lat="36.61030184575084" lon="-5.147588022175609"><ele>836.8333333333334</ele><time>2026-04-25T09:21:21Z</time></trkpt><trkpt lat="36.61023163457354" lon="-5.147515031377618"><ele>837.6666666666667</ele><time>2026-04-25T09:21:23Z</time></trkpt><trkpt lat="36.610164883180886" lon="-5.147450646283862"><ele>838.5</ele><time>2026-04-25T09:21:25Z</time></trkpt><trkpt lat="36.61009457173577" lon="-5.147416098595292"><ele>839.3333333333333</ele><time>2026-04-25T09:21:27Z</time></trkpt><trkpt lat="36.610034317474145" lon="-5.147373413683901"><ele>840.1666666666666</ele><time>2026-04-25T09:21:29Z</time></trkpt><trkpt lat="36.60996741459617" lon="-5.147346259450799"><ele>841.0</ele><time>2026-04-25T09:21:30Z</time></trkpt><trkpt lat="36.609870110372505" lon="-5.14725833671946"><ele>841.0</ele><time>2026-04-25T09:21:32Z</time></trkpt><trkpt lat="36.60980988416444" lon="-5.147204062219053"><ele>841.0</ele><time>2026-04-25T09:21:33Z</time></trkpt><trkpt lat="36.6097192561141" lon="-5.147116372230412"><ele>841.0</ele><time>2026-04-25T09:21:35Z</time></trkpt><trkpt lat="36.60963875172598" lon="-5.147031349203954"><ele>841.0</ele><time>2026-04-25T09:21:37Z</time></trkpt><trkpt lat="36.60957858536075" lon="-5.146946437657358"><ele>841.0</ele><time>2026-04-25T09:21:38Z</time></trkpt><trkpt lat="36.60951466594974" lon="-5.146918297183461"><ele>844.0</ele><time>2026-04-25T09:21:39Z</time></trkpt><trkpt lat="36.60945008722203" lon="-5.146874514366054"><ele>847.0</ele><time>2026-04-25T09:21:40Z</time></trkpt><trkpt lat="36.60934933016879" lon="-5.146803408909139"><ele>849.9999999999999</ele><time>2026-04-25T09:21:42Z</time></trkpt><trkpt lat="36.609285697894705" lon="-5.1467569177189585"><ele>853.0</ele><time>2026-04-25T09:21:43Z</time></trkpt><trkpt lat="36.609175852705405" lon="-5.146706836095988"><ele>856.0</ele><time>2026-04-25T09:21:45Z</time></trkpt><trkpt lat="36.6090554619498" lon="-5.146730781575047"><ele>856.0000000000001</ele><time>2026-04-25T09:21:47Z</time></trkpt><trkpt lat="36.60898630334744" lon="-5.146751245765237"><ele>856.0</ele><time>2026-04-25T09:21:48Z</time></trkpt><trkpt lat="36.608914985240126" lon="-5.146733300344702"><ele>856.0</ele><time>2026-04-25T09:21:49Z</time></trkpt><trkpt lat="36.60884689509687" lon="-5.146701081645509"><ele>856.0</ele><time>2026-04-25T09:21:50Z</time></trkpt><trkpt lat="36.60877840296308" lon="-5.146643070120103"><ele>856.0</ele><time>2026-04-25T09:21:50.999Z</time></trkpt><trkpt lat="36.60872002503581" lon="-5.146594949551609"><ele>856.0000000000001</ele><time>2026-04-25T09:21:51.999Z</time></trkpt><trkpt lat="36.608656798995334" lon="-5.146542575513747"><ele>856.0</ele><time>2026-04-25T09:21:52.999Z</time></trkpt><trkpt lat="36.608583140702024" lon="-5.146484996268766"><ele>858.4999999999999</ele><time>2026-04-25T09:21:53.999Z</time></trkpt><trkpt lat="36.60850486338275" lon="-5.146425013085354"><ele>861.0</ele><time>2026-04-25T09:21:54.999Z</time></trkpt><trkpt lat="36.60844554503249" lon="-5.1463666647290545"><ele>863.5</ele><time>2026-04-25T09:21:55.999Z</time></trkpt><trkpt lat="36.608382722256856" lon="-5.146311416851873"><ele>866.0</ele><time>2026-04-25T09:21:56.999Z</time></trkpt><trkpt lat="36.60833557786725" lon="-5.1462441629400955"><ele>868.4999999999999</ele><time>2026-04-25T09:21:57.999Z</time></trkpt><trkpt lat="36.60828996360839" lon="-5.146159532197113"><ele>871.0</ele><time>2026-04-25T09:21:58.999Z</time></trkpt><trkpt lat="36.608255846245235" lon="-5.146083382053745"><ele>870.9999999999999</ele><time>2026-04-25T09:21:59.999Z</time></trkpt><trkpt lat="36.60822738390321" lon="-5.1459910918714575"><ele>871.0</ele><time>2026-04-25T09:22:00.999Z</time></trkpt><trkpt lat="36.60821292465441" lon="-5.145907794789244"><ele>871.0</ele><time>2026-04-25T09:22:01.999Z</time></trkpt><trkpt lat="36.60826459642443" lon="-5.145798136576634"><ele>871.0</ele><time>2026-04-25T09:22:02.999Z</time></trkpt><trkpt lat="36.60824834910885" lon="-5.145716652750162"><ele>870.9999999999999</ele><time>2026-04-25T09:22:03.999Z</time></trkpt><trkpt lat="36.608232200539696" lon="-5.145625267290224"><ele>871.0</ele><time>2026-04-25T09:22:04.999Z</time></trkpt><trkpt lat="36.60816195261608" lon="-5.145474879125936"><ele>870.1666666666666</ele><time>2026-04-25T09:22:06.999Z</time></trkpt><trkpt lat="36.608126065973124" lon="-5.145369590905263"><ele>869.3333333333333</ele><time>2026-04-25T09:22:07.999Z</time></trkpt><trkpt lat="36.60809230698012" lon="-5.145299730963133"><ele>868.5</ele><time>2026-04-25T09:22:08.999Z</time></trkpt><trkpt lat="36.60804693537649" lon="-5.145218773711615"><ele>867.6666666666667</ele><time>2026-04-25T09:22:09.999Z</time></trkpt><trkpt lat="36.608011335847124" lon="-5.145143375586713"><ele>866.8333333333334</ele><time>2026-04-25T09:22:10.999Z</time></trkpt><trkpt lat="36.607969032066165" lon="-5.145058609733968"><ele>866.0</ele><time>2026-04-25T09:22:11.999Z</time></trkpt><trkpt lat="36.607942361817706" lon="-5.144979782387585"><ele>866.0000000000001</ele><time>2026-04-25T09:22:12.999Z</time></trkpt><trkpt lat="36.60790022765169" lon="-5.1449126024580405"><ele>866.0</ele><time>2026-04-25T09:22:13.999Z</time></trkpt><trkpt lat="36.607850227984876" lon="-5.144813679283226"><ele>866.0</ele><time>2026-04-25T09:22:14.999Z</time></trkpt><trkpt lat="36.607798289587954" lon="-5.1447324210115175"><ele>866.0</ele><time>2026-04-25T09:22:15.999Z</time></trkpt><trkpt lat="36.607730968762006" lon="-5.144651513543728"><ele>866.0000000000001</ele><time>2026-04-25T09:22:16.999Z</time></trkpt><trkpt lat="36.60766840678814" lon="-5.144564772815028"><ele>866.0</ele><time>2026-04-25T09:22:17.999Z</time></trkpt><trkpt lat="36.60762090460223" lon="-5.144477416937245"><ele>867.8333333333334</ele><time>2026-04-25T09:22:18.999Z</time></trkpt><trkpt lat="36.607571732236885" lon="-5.144392334111218"><ele>869.6666666666667</ele><time>2026-04-25T09:22:19.999Z</time></trkpt><trkpt lat="36.60751282471058" lon="-5.144323181844136"><ele>871.5</ele><time>2026-04-25T09:22:20.999Z</time></trkpt><trkpt lat="36.60748174777678" lon="-5.1442479106779"><ele>873.3333333333333</ele><time>2026-04-25T09:22:21.999Z</time></trkpt><trkpt lat="36.607417233848075" lon="-5.144179795481991"><ele>875.1666666666666</ele><time>2026-04-25T09:22:22.999Z</time></trkpt><trkpt lat="36.607337366702616" lon="-5.144064774707384"><ele>877.0</ele><time>2026-04-25T09:22:24.999Z</time></trkpt><trkpt lat="36.60729257265544" lon="-5.144000367991846"><ele>876.9999999999999</ele><time>2026-04-25T09:22:25.999Z</time></trkpt><trkpt lat="36.60725869644449" lon="-5.143929562941057"><ele>877.0</ele><time>2026-04-25T09:22:26.999Z</time></trkpt><trkpt lat="36.60719448968112" lon="-5.1438861917180505"><ele>877.0</ele><time>2026-04-25T09:22:27.999Z</time></trkpt><trkpt lat="36.6071511908184" lon="-5.143824944846748"><ele>877.0</ele><time>2026-04-25T09:22:28.999Z</time></trkpt><trkpt lat="36.60708211140204" lon="-5.143742352026443"><ele>876.9999999999999</ele><time>2026-04-25T09:22:30.999Z</time></trkpt><trkpt lat="36.60698900139065" lon="-5.143799425848168"><ele>877.0</ele><time>2026-04-25T09:22:32.999Z</time></trkpt><trkpt lat="36.60697502117264" lon="-5.143914403273091"><ele>887.25</ele><time>2026-04-25T09:22:34.999Z</time></trkpt><trkpt lat="36.60696127101197" lon="-5.144069516485334"><ele>897.5</ele><time>2026-04-25T09:22:36.999Z</time></trkpt><trkpt lat="36.60695071871976" lon="-5.144208234164187"><ele>907.75</ele><time>2026-04-25T09:22:38.999Z</time></trkpt><trkpt lat="36.60695166873814" lon="-5.14438729815591"><ele>918.0</ele><time>2026-04-25T09:22:40.999Z</time></trkpt><trkpt lat="36.60695442316241" lon="-5.1444915533138085"><ele>918.0</ele><time>2026-04-25T09:22:41.999Z</time></trkpt><trkpt lat="36.60695765119992" lon="-5.144577068804697"><ele>918.0</ele><time>2026-04-25T09:22:42.999Z</time></trkpt><trkpt lat="36.60696027916304" lon="-5.144667161401093"><ele>918.0</ele><time>2026-04-25T09:22:43.999Z</time></trkpt><trkpt lat="36.606972009162654" lon="-5.144780500295709"><ele>918.0</ele><time>2026-04-25T09:22:44.999Z</time></trkpt><trkpt lat="36.60697019670031" lon="-5.1448968651470235"><ele>918.0</ele><time>2026-04-25T09:22:45.998Z</time></trkpt><trkpt lat="36.60699711417177" lon="-5.144995903056933"><ele>918.0</ele><time>2026-04-25T09:22:46.998Z</time></trkpt><trkpt lat="36.60704759289741" lon="-5.145085498632398"><ele>914.6666666666666</ele><time>2026-04-25T09:22:47.998Z</time></trkpt><trkpt lat="36.60704936257223" lon="-5.145176205918851"><ele>911.3333333333333</ele><time>2026-04-25T09:22:48.998Z</time></trkpt><trkpt lat="36.60706983682137" lon="-5.145263081889653"><ele>908.0</ele><time>2026-04-25T09:22:49.998Z</time></trkpt><trkpt lat="36.60708586111813" lon="-5.145377858206438"><ele>904.6666666666666</ele><time>2026-04-25T09:22:50.998Z</time></trkpt><trkpt lat="36.60710825895377" lon="-5.145457031842765"><ele>901.3333333333333</ele><time>2026-04-25T09:22:51.998Z</time></trkpt><trkpt lat="36.607125054931124" lon="-5.145555856103033"><ele>898.0</ele><time>2026-04-25T09:22:52.998Z</time></trkpt><trkpt lat="36.60713787185225" lon="-5.145655307176372"><ele>900.0</ele><time>2026-04-25T09:22:53.998Z</time></trkpt><trkpt lat="36.607144345242" lon="-5.145742171691775"><ele>902.0</ele><time>2026-04-25T09:22:54.998Z</time></trkpt><trkpt lat="36.607100758493566" lon="-5.1458865664006135"><ele>904.0</ele><time>2026-04-25T09:22:56.998Z</time></trkpt><trkpt lat="36.607014910596625" lon="-5.145884369980178"><ele>906.0</ele><time>2026-04-25T09:22:57.998Z</time></trkpt><trkpt lat="36.60693489736197" lon="-5.145863997392159"><ele>908.0</ele><time>2026-04-25T09:22:58.998Z</time></trkpt><trkpt lat="36.60684531984826" lon="-5.145839030517904"><ele>911.4</ele><time>2026-04-25T09:22:59.998Z</time></trkpt><trkpt lat="36.606767459850026" lon="-5.145856666136155"><ele>914.8</ele><time>2026-04-25T09:23:00.998Z</time></trkpt><trkpt lat="36.60663277402522" lon="-5.1458592747389025"><ele>918.2</ele><time>2026-04-25T09:23:02.998Z</time></trkpt><trkpt lat="36.606563837999886" lon="-5.145826727571169"><ele>921.6</ele><time>2026-04-25T09:23:03.998Z</time></trkpt><trkpt lat="36.606501166247284" lon="-5.145805805378946"><ele>925.0</ele><time>2026-04-25T09:23:04.998Z</time></trkpt><trkpt lat="36.606393899574165" lon="-5.145764452409292"><ele>924.9999999999999</ele><time>2026-04-25T09:23:07Z</time></trkpt><trkpt lat="36.60631024395359" lon="-5.145670569887528"><ele>925.0</ele><time>2026-04-25T09:23:09Z</time></trkpt><trkpt lat="36.606275115668005" lon="-5.14559458648156"><ele>925.0</ele><time>2026-04-25T09:23:10Z</time></trkpt><trkpt lat="36.60625511240879" lon="-5.1455136830709325"><ele>925.0</ele><time>2026-04-25T09:23:11Z</time></trkpt><trkpt lat="36.60624035789105" lon="-5.145427744418971"><ele>924.9999999999999</ele><time>2026-04-25T09:23:12Z</time></trkpt><trkpt lat="36.606233267621676" lon="-5.145338713067962"><ele>925.0</ele><time>2026-04-25T09:23:13Z</time></trkpt><trkpt lat="36.60623009512788" lon="-5.145239179744908"><ele>924.9999999999999</ele><time>2026-04-25T09:23:14Z</time></trkpt><trkpt lat="36.606236511609545" lon="-5.145154146833544"><ele>925.0</ele><time>2026-04-25T09:23:15Z</time></trkpt><trkpt lat="36.60624153167212" lon="-5.145071140782746"><ele>925.0</ele><time>2026-04-25T09:23:16Z</time></trkpt><trkpt lat="36.606249742610444" lon="-5.14498866736094"><ele>925.0</ele><time>2026-04-25T09:23:17Z</time></trkpt><trkpt lat="36.606272690349755" lon="-5.144840433374679"><ele>924.9999999999999</ele><time>2026-04-25T09:23:19Z</time></trkpt><trkpt lat="36.606242043454436" lon="-5.144768556073575"><ele>925.0</ele><time>2026-04-25T09:23:20Z</time></trkpt><trkpt lat="36.60622122460272" lon="-5.144693551149605"><ele>925.8571428571429</ele><time>2026-04-25T09:23:21Z</time></trkpt><trkpt lat="36.606198306720174" lon="-5.144618676309212"><ele>926.7142857142857</ele><time>2026-04-25T09:23:22Z</time></trkpt><trkpt lat="36.60617225718085" lon="-5.144544769326254"><ele>927.5714285714286</ele><time>2026-04-25T09:23:23Z</time></trkpt><trkpt lat="36.606159252557504" lon="-5.144465541425878"><ele>928.4285714285714</ele><time>2026-04-25T09:23:24Z</time></trkpt><trkpt lat="36.60611712781316" lon="-5.144394920332034"><ele>929.2857142857142</ele><time>2026-04-25T09:23:25Z</time></trkpt><trkpt lat="36.606098940500125" lon="-5.144297846168657"><ele>930.1428571428571</ele><time>2026-04-25T09:23:26Z</time></trkpt><trkpt lat="36.60606523794418" lon="-5.144179886130358"><ele>931.0</ele><time>2026-04-25T09:23:28Z</time></trkpt><trkpt lat="36.606035895842645" lon="-5.144090254293904"><ele>932.4</ele><time>2026-04-25T09:23:31Z</time></trkpt><trkpt lat="36.60597752094619" lon="-5.1439648139170755"><ele>933.8</ele><time>2026-04-25T09:23:47.999Z</time></trkpt><trkpt lat="36.60592283298968" lon="-5.143828530068532"><ele>935.1999999999999</ele><time>2026-04-25T09:23:49.999Z</time></trkpt><trkpt lat="36.605887540773104" lon="-5.143744082417979"><ele>936.5999999999999</ele><time>2026-04-25T09:23:50.999Z</time></trkpt><trkpt lat="36.605854367014274" lon="-5.14366470379483"><ele>938.0</ele><time>2026-04-25T09:23:51.999Z</time></trkpt><trkpt lat="36.60584071474885" lon="-5.143587044120871"><ele>938.0000000000001</ele><time>2026-04-25T09:23:52.999Z</time></trkpt><trkpt lat="36.60581288585004" lon="-5.14350993435405"><ele>938.0</ele><time>2026-04-25T09:23:53.999Z</time></trkpt><trkpt lat="36.605771271771765" lon="-5.143442958534403"><ele>938.0</ele><time>2026-04-25T09:23:54.999Z</time></trkpt><trkpt lat="36.60574555094709" lon="-5.143357653216834"><ele>938.0</ele><time>2026-04-25T09:23:55.999Z</time></trkpt><trkpt lat="36.60572865646525" lon="-5.143272581802941"><ele>938.0000000000001</ele><time>2026-04-25T09:23:56.999Z</time></trkpt><trkpt lat="36.605719110699496" lon="-5.143193802579771"><ele>938.0</ele><time>2026-04-25T09:23:57.999Z</time></trkpt><trkpt lat="36.60568868320134" lon="-5.143038211068367"><ele>937.8333333333334</ele><time>2026-04-25T09:23:59.999Z</time></trkpt><trkpt lat="36.60564811091259" lon="-5.142895033594769"><ele>937.6666666666667</ele><time>2026-04-25T09:24:01.999Z</time></trkpt><trkpt lat="36.60561967236074" lon="-5.1428250430755575"><ele>937.5</ele><time>2026-04-25T09:24:02.999Z</time></trkpt><trkpt lat="36.60558189925105" lon="-5.142756410477768"><ele>937.3333333333333</ele><time>2026-04-25T09:24:03.999Z</time></trkpt><trkpt lat="36.60554311145569" lon="-5.142687378181648"><ele>937.1666666666666</ele><time>2026-04-25T09:24:04.999Z</time></trkpt><trkpt lat="36.60550272120853" lon="-5.142619724666115"><ele>937.0</ele><time>2026-04-25T09:24:05.999Z</time></trkpt><trkpt lat="36.60546590481236" lon="-5.14255094772285"><ele>936.9999999999999</ele><time>2026-04-25T09:24:06.999Z</time></trkpt><trkpt lat="36.6054385241376" lon="-5.142471795118226"><ele>937.0</ele><time>2026-04-25T09:24:07.999Z</time></trkpt><trkpt lat="36.605430742345746" lon="-5.14239056080921"><ele>937.0</ele><time>2026-04-25T09:24:08.999Z</time></trkpt><trkpt lat="36.605381900692905" lon="-5.142331821725054"><ele>937.0</ele><time>2026-04-25T09:24:09.999Z</time></trkpt><trkpt lat="36.60534696627632" lon="-5.142263337829116"><ele>936.9999999999999</ele><time>2026-04-25T09:24:10.999Z</time></trkpt><trkpt lat="36.605277780007505" lon="-5.142127708301309"><ele>937.0</ele><time>2026-04-25T09:24:12.999Z</time></trkpt><trkpt lat="36.6052504729972" lon="-5.142048983649748"><ele>940.2857142857142</ele><time>2026-04-25T09:24:13.999Z</time></trkpt><trkpt lat="36.605202347911" lon="-5.141982859690239"><ele>943.5714285714287</ele><time>2026-04-25T09:24:14.999Z</time></trkpt><trkpt lat="36.605157721054255" lon="-5.141918178617459"><ele>946.8571428571429</ele><time>2026-04-25T09:24:15.999Z</time></trkpt><trkpt lat="36.60512053630542" lon="-5.141841247491178"><ele>950.1428571428571</ele><time>2026-04-25T09:24:16.999Z</time></trkpt><trkpt lat="36.605091206496006" lon="-5.141761101026646"><ele>953.4285714285713</ele><time>2026-04-25T09:24:17.999Z</time></trkpt><trkpt lat="36.60505069837315" lon="-5.141685761208177"><ele>956.7142857142858</ele><time>2026-04-25T09:24:18.999Z</time></trkpt><trkpt lat="36.60500143281611" lon="-5.141601554303899"><ele>960.0</ele><time>2026-04-25T09:24:19.999Z</time></trkpt><trkpt lat="36.604971677866864" lon="-5.141518054965204"><ele>960.1666666666666</ele><time>2026-04-25T09:24:20.999Z</time></trkpt><trkpt lat="36.60495770300475" lon="-5.141406204614617"><ele>960.3333333333333</ele><time>2026-04-25T09:24:21.999Z</time></trkpt><trkpt lat="36.60492124296654" lon="-5.1413192468232785"><ele>960.5</ele><time>2026-04-25T09:24:22.999Z</time></trkpt><trkpt lat="36.60488582159174" lon="-5.141230368708224"><ele>960.6666666666666</ele><time>2026-04-25T09:24:23.999Z</time></trkpt><trkpt lat="36.60483490584439" lon="-5.141150046098485"><ele>960.8333333333333</ele><time>2026-04-25T09:24:24.999Z</time></trkpt><trkpt lat="36.60478079124455" lon="-5.14106818579093"><ele>961.0</ele><time>2026-04-25T09:24:25.999Z</time></trkpt><trkpt lat="36.604725221424744" lon="-5.140973947732434"><ele>960.9999999999999</ele><time>2026-04-25T09:24:26.999Z</time></trkpt><trkpt lat="36.60467853765029" lon="-5.140880240059758"><ele>961.0</ele><time>2026-04-25T09:24:27.999Z</time></trkpt><trkpt lat="36.604640755420434" lon="-5.140782393793827"><ele>961.0</ele><time>2026-04-25T09:24:28.999Z</time></trkpt><trkpt lat="36.604602594030396" lon="-5.140688651978055"><ele>961.0</ele><time>2026-04-25T09:24:29.999Z</time></trkpt><trkpt lat="36.60456898686321" lon="-5.140600002824839"><ele>960.9999999999999</ele><time>2026-04-25T09:24:30.999Z</time></trkpt><trkpt lat="36.604518084976505" lon="-5.140522357691754"><ele>961.0</ele><time>2026-04-25T09:24:31.999Z</time></trkpt><trkpt lat="36.604475667048234" lon="-5.140430921299459"><ele>961.6666666666666</ele><time>2026-04-25T09:24:32.999Z</time></trkpt><trkpt lat="36.604416775303804" lon="-5.1403462928442405"><ele>962.3333333333333</ele><time>2026-04-25T09:24:33.999Z</time></trkpt><trkpt lat="36.604347201569986" lon="-5.140278632790008"><ele>963.0</ele><time>2026-04-25T09:24:34.999Z</time></trkpt><trkpt lat="36.60429217339108" lon="-5.140206013035586"><ele>963.6666666666667</ele><time>2026-04-25T09:24:35.999Z</time></trkpt><trkpt lat="36.604254201328835" lon="-5.1401162441192145"><ele>964.3333333333334</ele><time>2026-04-25T09:24:36.999Z</time></trkpt><trkpt lat="36.60421962586152" lon="-5.140023999554819"><ele>965.0</ele><time>2026-04-25T09:24:37.999Z</time></trkpt><trkpt lat="36.60419407766558" lon="-5.1399268886440606"><ele>965.6666666666667</ele><time>2026-04-25T09:24:38.999Z</time></trkpt><trkpt lat="36.604157003778916" lon="-5.1398250382749335"><ele>966.3333333333334</ele><time>2026-04-25T09:24:39.999Z</time></trkpt><trkpt lat="36.60413578706176" lon="-5.13971772612243"><ele>967.0</ele><time>2026-04-25T09:24:40.999Z</time></trkpt><trkpt lat="36.60410172499937" lon="-5.139623267643027"><ele>967.6666666666667</ele><time>2026-04-25T09:24:41.998Z</time></trkpt><trkpt lat="36.60409118022727" lon="-5.139507598430464"><ele>968.3333333333334</ele><time>2026-04-25T09:24:42.998Z</time></trkpt><trkpt lat="36.60406355473897" lon="-5.139402150668198"><ele>969.0</ele><time>2026-04-25T09:24:43.998Z</time></trkpt><trkpt lat="36.6040396302136" lon="-5.139303899178446"><ele>969.0</ele><time>2026-04-25T09:24:44.998Z</time></trkpt><trkpt lat="36.60403197071213" lon="-5.139211364052416"><ele>969.0</ele><time>2026-04-25T09:24:45.998Z</time></trkpt><trkpt lat="36.604018756648166" lon="-5.139115344451436"><ele>969.0</ele><time>2026-04-25T09:24:46.998Z</time></trkpt><trkpt lat="36.604007127395484" lon="-5.139023722178281"><ele>969.0</ele><time>2026-04-25T09:24:47.998Z</time></trkpt><trkpt lat="36.60398403326824" lon="-5.1389244081456535"><ele>969.0</ele><time>2026-04-25T09:24:48.998Z</time></trkpt><trkpt lat="36.60394718538437" lon="-5.138836365768565"><ele>969.0</ele><time>2026-04-25T09:24:49.998Z</time></trkpt><trkpt lat="36.60390777563799" lon="-5.138752283106449"><ele>968.4000000000001</ele><time>2026-04-25T09:24:50.998Z</time></trkpt><trkpt lat="36.60387484662479" lon="-5.138662278403696"><ele>967.8000000000001</ele><time>2026-04-25T09:24:51.998Z</time></trkpt><trkpt lat="36.60384033998438" lon="-5.138561717750947"><ele>967.1999999999999</ele><time>2026-04-25T09:24:52.998Z</time></trkpt><trkpt lat="36.603795412582535" lon="-5.13844575836781"><ele>966.5999999999999</ele><time>2026-04-25T09:24:53.998Z</time></trkpt><trkpt lat="36.60374171017743" lon="-5.138347941579587"><ele>966.0</ele><time>2026-04-25T09:24:54.998Z</time></trkpt><trkpt lat="36.6037101853351" lon="-5.13824682671314"><ele>967.0</ele><time>2026-04-25T09:24:55.998Z</time></trkpt><trkpt lat="36.60368649069931" lon="-5.138142508950867"><ele>968.0</ele><time>2026-04-25T09:24:56.998Z</time></trkpt><trkpt lat="36.6036655742073" lon="-5.13804218242074"><ele>969.0</ele><time>2026-04-25T09:24:57.998Z</time></trkpt><trkpt lat="36.60364640080012" lon="-5.137935724334526"><ele>970.0</ele><time>2026-04-25T09:24:58.998Z</time></trkpt><trkpt lat="36.60362634723074" lon="-5.1378272417413"><ele>971.0</ele><time>2026-04-25T09:24:59.998Z</time></trkpt><trkpt lat="36.603619913129215" lon="-5.137716856636342"><ele>972.0</ele><time>2026-04-25T09:25:00.998Z</time></trkpt><trkpt lat="36.60358809600364" lon="-5.137605301528329"><ele>972.0</ele><time>2026-04-25T09:25:01.998Z</time></trkpt><trkpt lat="36.60355371820311" lon="-5.13749565374062"><ele>972.0</ele><time>2026-04-25T09:25:02.998Z</time></trkpt><trkpt lat="36.60353519004341" lon="-5.137384656315925"><ele>972.0</ele><time>2026-04-25T09:25:03.998Z</time></trkpt><trkpt lat="36.60351779993399" lon="-5.137280036113744"><ele>972.0</ele><time>2026-04-25T09:25:04.998Z</time></trkpt><trkpt lat="36.60350563008312" lon="-5.1371702137777"><ele>972.0</ele><time>2026-04-25T09:25:05.998Z</time></trkpt><trkpt lat="36.603485641628325" lon="-5.137063014925252"><ele>972.0</ele><time>2026-04-25T09:25:06.998Z</time></trkpt><trkpt lat="36.60345219123949" lon="-5.136953987151964"><ele>972.1666666666666</ele><time>2026-04-25T09:25:07.998Z</time></trkpt><trkpt lat="36.603417468976595" lon="-5.13685160293313"><ele>972.3333333333333</ele><time>2026-04-25T09:25:08.998Z</time></trkpt><trkpt lat="36.60337613253087" lon="-5.136758649646118"><ele>972.5</ele><time>2026-04-25T09:25:09.998Z</time></trkpt><trkpt lat="36.603343382881675" lon="-5.136658237111975"><ele>972.6666666666666</ele><time>2026-04-25T09:25:10.998Z</time></trkpt><trkpt lat="36.60331863759707" lon="-5.136573191074446"><ele>972.8333333333333</ele><time>2026-04-25T09:25:11.998Z</time></trkpt><trkpt lat="36.60329469077055" lon="-5.1364760664020785"><ele>973.0</ele><time>2026-04-25T09:25:13Z</time></trkpt><trkpt lat="36.60326007873168" lon="-5.136378581867891"><ele>973.1666666666666</ele><time>2026-04-25T09:25:14Z</time></trkpt><trkpt lat="36.603245458952486" lon="-5.136278851187754"><ele>973.3333333333333</ele><time>2026-04-25T09:25:15Z</time></trkpt><trkpt lat="36.60326932431491" lon="-5.136168717014806"><ele>973.5</ele><time>2026-04-25T09:25:16Z</time></trkpt><trkpt lat="36.603282425275665" lon="-5.136062059790959"><ele>973.6666666666667</ele><time>2026-04-25T09:25:17Z</time></trkpt><trkpt lat="36.60329504423924" lon="-5.135946147855574"><ele>973.8333333333334</ele><time>2026-04-25T09:25:18Z</time></trkpt><trkpt lat="36.6033179425371" lon="-5.135840505833506"><ele>974.0</ele><time>2026-04-25T09:25:19Z</time></trkpt><trkpt lat="36.60332666179408" lon="-5.13572756997124"><ele>974.1666666666667</ele><time>2026-04-25T09:25:20Z</time></trkpt><trkpt lat="36.60333797622893" lon="-5.1356292652487125"><ele>974.3333333333334</ele><time>2026-04-25T09:25:21Z</time></trkpt><trkpt lat="36.60334815954951" lon="-5.135524854183781"><ele>974.5</ele><time>2026-04-25T09:25:22Z</time></trkpt><trkpt lat="36.60335219489655" lon="-5.13541253422704"><ele>974.6666666666667</ele><time>2026-04-25T09:25:23Z</time></trkpt><trkpt lat="36.6033554306732" lon="-5.135294545929302"><ele>974.8333333333334</ele><time>2026-04-25T09:25:24Z</time></trkpt><trkpt lat="36.60335786264185" lon="-5.135184456560561"><ele>975.0</ele><time>2026-04-25T09:25:25Z</time></trkpt><trkpt lat="36.60334436566141" lon="-5.135083392546691"><ele>975.0</ele><time>2026-04-25T09:25:26Z</time></trkpt><trkpt lat="36.60334513533692" lon="-5.134972779280808"><ele>975.0</ele><time>2026-04-25T09:25:27Z</time></trkpt><trkpt lat="36.60334694616579" lon="-5.134862362582421"><ele>975.0</ele><time>2026-04-25T09:25:28Z</time></trkpt><trkpt lat="36.603352411565254" lon="-5.13475350534587"><ele>975.0</ele><time>2026-04-25T09:25:29Z</time></trkpt><trkpt lat="36.603355827654106" lon="-5.134660529650637"><ele>975.0</ele><time>2026-04-25T09:25:30Z</time></trkpt><trkpt lat="36.60335689889795" lon="-5.134570447263744"><ele>975.0</ele><time>2026-04-25T09:25:31Z</time></trkpt><trkpt lat="36.60334165340822" lon="-5.134470282067258"><ele>975.3333333333334</ele><time>2026-04-25T09:25:32Z</time></trkpt><trkpt lat="36.60331332675923" lon="-5.134371228729656"><ele>975.6666666666667</ele><time>2026-04-25T09:25:33Z</time></trkpt><trkpt lat="36.60328605955749" lon="-5.134260582411243"><ele>976.0</ele><time>2026-04-25T09:25:34Z</time></trkpt><trkpt lat="36.603281853793625" lon="-5.134166891455466"><ele>976.3333333333334</ele><time>2026-04-25T09:25:35Z</time></trkpt><trkpt lat="36.60328078818862" lon="-5.134059406184092"><ele>976.6666666666667</ele><time>2026-04-25T09:25:36Z</time></trkpt><trkpt lat="36.60328443861939" lon="-5.133949173318746"><ele>977.0</ele><time>2026-04-25T09:25:37Z</time></trkpt><trkpt lat="36.60328766000491" lon="-5.1338274951369645"><ele>977.5000000000001</ele><time>2026-04-25T09:25:38Z</time></trkpt><trkpt lat="36.6032843925112" lon="-5.1337205948248865"><ele>978.0</ele><time>2026-04-25T09:25:39Z</time></trkpt><trkpt lat="36.603279202108546" lon="-5.1336074409666805"><ele>978.5</ele><time>2026-04-25T09:25:40Z</time></trkpt><trkpt lat="36.60326294054493" lon="-5.133507363012117"><ele>979.0</ele><time>2026-04-25T09:25:41Z</time></trkpt><trkpt lat="36.603207182030275" lon="-5.133428760898308"><ele>979.5000000000001</ele><time>2026-04-25T09:25:42Z</time></trkpt><trkpt lat="36.60316895537346" lon="-5.133328257916344"><ele>980.0</ele><time>2026-04-25T09:25:43Z</time></trkpt><trkpt lat="36.603140452539016" lon="-5.133228621649009"><ele>980.0000000000001</ele><time>2026-04-25T09:25:44Z</time></trkpt><trkpt lat="36.60311598736224" lon="-5.13311883566374"><ele>980.0</ele><time>2026-04-25T09:25:45Z</time></trkpt><trkpt lat="36.6030979358515" lon="-5.133024980150843"><ele>980.0</ele><time>2026-04-25T09:25:46Z</time></trkpt><trkpt lat="36.60309393195239" lon="-5.132923963899411"><ele>980.0</ele><time>2026-04-25T09:25:47Z</time></trkpt><trkpt lat="36.60310680727163" lon="-5.132822951116501"><ele>980.0000000000001</ele><time>2026-04-25T09:25:48Z</time></trkpt><trkpt lat="36.60313578192125" lon="-5.132719965138469"><ele>980.0</ele><time>2026-04-25T09:25:49Z</time></trkpt><trkpt lat="36.603177572523784" lon="-5.132623978953729"><ele>980.0</ele><time>2026-04-25T09:25:50Z</time></trkpt><trkpt lat="36.603207732132" lon="-5.132515332047611"><ele>980.0</ele><time>2026-04-25T09:25:51Z</time></trkpt><trkpt lat="36.6032247078659" lon="-5.132409364463836"><ele>980.0</ele><time>2026-04-25T09:25:51.999Z</time></trkpt><trkpt lat="36.6032194711625" lon="-5.132300483064204"><ele>980.0</ele><time>2026-04-25T09:25:52.999Z</time></trkpt><trkpt lat="36.60321187794474" lon="-5.132179411168838"><ele>980.0</ele><time>2026-04-25T09:25:53.999Z</time></trkpt><trkpt lat="36.60319590569767" lon="-5.1320665940459085"><ele>981.1666666666667</ele><time>2026-04-25T09:25:54.999Z</time></trkpt><trkpt lat="36.603182318920524" lon="-5.131949013311214"><ele>982.3333333333334</ele><time>2026-04-25T09:25:55.999Z</time></trkpt><trkpt lat="36.60319338086703" lon="-5.131835480892826"><ele>983.5</ele><time>2026-04-25T09:25:56.999Z</time></trkpt><trkpt lat="36.603179108054015" lon="-5.131736309462132"><ele>984.6666666666667</ele><time>2026-04-25T09:25:57.999Z</time></trkpt><trkpt lat="36.60317403511238" lon="-5.131639804939005"><ele>985.8333333333334</ele><time>2026-04-25T09:25:58.999Z</time></trkpt><trkpt lat="36.60314423281741" lon="-5.1315467095704665"><ele>987.0</ele><time>2026-04-25T09:25:59.999Z</time></trkpt><trkpt lat="36.603130158402685" lon="-5.131436014272819"><ele>988.3333333333334</ele><time>2026-04-25T09:26:00.999Z</time></trkpt><trkpt lat="36.603116743452176" lon="-5.131337141592484"><ele>989.6666666666667</ele><time>2026-04-25T09:26:01.999Z</time></trkpt><trkpt lat="36.60309752926321" lon="-5.131244831318404"><ele>991.0</ele><time>2026-04-25T09:26:02.999Z</time></trkpt><trkpt lat="36.60307422780036" lon="-5.1311428535442944"><ele>992.3333333333334</ele><time>2026-04-25T09:26:03.999Z</time></trkpt><trkpt lat="36.603051313879654" lon="-5.131042639116095"><ele>993.6666666666667</ele><time>2026-04-25T09:26:04.999Z</time></trkpt><trkpt lat="36.60303297613356" lon="-5.130949320332584"><ele>995.0</ele><time>2026-04-25T09:26:05.999Z</time></trkpt><trkpt lat="36.60303891893939" lon="-5.130851293081174"><ele>995.0</ele><time>2026-04-25T09:26:06.999Z</time></trkpt><trkpt lat="36.60303155542727" lon="-5.130766955720366"><ele>995.0</ele><time>2026-04-25T09:26:07.999Z</time></trkpt><trkpt lat="36.60300405636332" lon="-5.130683923899756"><ele>995.0</ele><time>2026-04-25T09:26:08.999Z</time></trkpt><trkpt lat="36.60298655379402" lon="-5.130595708619263"><ele>995.0</ele><time>2026-04-25T09:26:09.999Z</time></trkpt><trkpt lat="36.60296222736066" lon="-5.130516047891481"><ele>995.0</ele><time>2026-04-25T09:26:10.999Z</time></trkpt><trkpt lat="36.60293599158577" lon="-5.1304301879313154"><ele>995.0</ele><time>2026-04-25T09:26:11.999Z</time></trkpt><trkpt lat="36.60288588858548" lon="-5.130359585199258"><ele>995.0</ele><time>2026-04-25T09:26:12.999Z</time></trkpt><trkpt lat="36.60285366026154" lon="-5.130274374963323"><ele>994.6666666666667</ele><time>2026-04-25T09:26:13.999Z</time></trkpt><trkpt lat="36.60283569626632" lon="-5.13017435189177"><ele>994.3333333333334</ele><time>2026-04-25T09:26:14.999Z</time></trkpt><trkpt lat="36.60279877698295" lon="-5.130086810221089"><ele>994.0</ele><time>2026-04-25T09:26:15.999Z</time></trkpt><trkpt lat="36.602804765249125" lon="-5.130000669762597"><ele>993.6666666666667</ele><time>2026-04-25T09:26:16.999Z</time></trkpt><trkpt lat="36.602818946327695" lon="-5.129850956706577"><ele>993.3333333333334</ele><time>2026-04-25T09:26:18.999Z</time></trkpt><trkpt lat="36.602851871833316" lon="-5.129777148224044"><ele>993.0</ele><time>2026-04-25T09:26:19.999Z</time></trkpt><trkpt lat="36.60287465198729" lon="-5.129703260199148"><ele>994.5714285714286</ele><time>2026-04-25T09:26:20.999Z</time></trkpt><trkpt lat="36.60289610892622" lon="-5.1296232926207415"><ele>996.1428571428571</ele><time>2026-04-25T09:26:21.999Z</time></trkpt><trkpt lat="36.60291102819591" lon="-5.129539575883529"><ele>997.7142857142857</ele><time>2026-04-25T09:26:22.999Z</time></trkpt><trkpt lat="36.60292618336058" lon="-5.1294480758340235"><ele>999.2857142857142</ele><time>2026-04-25T09:26:23.999Z</time></trkpt><trkpt lat="36.60293795395308" lon="-5.129358430368022"><ele>1000.8571428571429</ele><time>2026-04-25T09:26:24.999Z</time></trkpt><trkpt lat="36.602945777692135" lon="-5.129246433961585"><ele>1002.4285714285713</ele><time>2026-04-25T09:26:26.999Z</time></trkpt><trkpt lat="36.60294411344125" lon="-5.129165384002665"><ele>1003.9999999999999</ele><time>2026-04-25T09:26:28.999Z</time></trkpt><trkpt lat="36.60292386021687" lon="-5.129036041613738"><ele>1004.0</ele><time>2026-04-25T09:26:56.998Z</time></trkpt><trkpt lat="36.602897115233816" lon="-5.128930762427797"><ele>1004.0000000000001</ele><time>2026-04-25T09:26:58.998Z</time></trkpt><trkpt lat="36.60285693913477" lon="-5.1288206969686785"><ele>1004.0000000000001</ele><time>2026-04-25T09:27:00.998Z</time></trkpt><trkpt lat="36.602808356552565" lon="-5.128717001416059"><ele>1004.0</ele><time>2026-04-25T09:27:02.998Z</time></trkpt><trkpt lat="36.60272919065257" lon="-5.128622541366428"><ele>1004.0</ele><time>2026-04-25T09:27:04.998Z</time></trkpt><trkpt lat="36.60262339623448" lon="-5.128542896259534"><ele>1005.4000000000001</ele><time>2026-04-25T09:27:06.998Z</time></trkpt><trkpt lat="36.60256780784304" lon="-5.128503401420504"><ele>1006.8000000000001</ele><time>2026-04-25T09:27:07.998Z</time></trkpt><trkpt lat="36.60246497686333" lon="-5.12843351134314"><ele>1008.1999999999999</ele><time>2026-04-25T09:27:09.998Z</time></trkpt><trkpt lat="36.60240563457859" lon="-5.128395217864668"><ele>1009.5999999999999</ele><time>2026-04-25T09:27:10.998Z</time></trkpt><trkpt lat="36.60229279757182" lon="-5.1283358405073365"><ele>1011.0</ele><time>2026-04-25T09:27:12.998Z</time></trkpt><trkpt lat="36.602188934184085" lon="-5.1282589750860925"><ele>1012.0</ele><time>2026-04-25T09:27:14.998Z</time></trkpt><trkpt lat="36.60208298154038" lon="-5.128201289115835"><ele>1012.9999999999999</ele><time>2026-04-25T09:27:16.998Z</time></trkpt><trkpt lat="36.602007190895215" lon="-5.128092373285971"><ele>1013.9999999999999</ele><time>2026-04-25T09:27:19Z</time></trkpt><trkpt lat="36.60195836384554" lon="-5.12803909484928"><ele>1015.0</ele><time>2026-04-25T09:27:20Z</time></trkpt><trkpt lat="36.60193938138085" lon="-5.1279555930226834"><ele>1016.0</ele><time>2026-04-25T09:27:21Z</time></trkpt><trkpt lat="36.60194748909549" lon="-5.127811132534002"><ele>1016.0000000000001</ele><time>2026-04-25T09:27:23Z</time></trkpt><trkpt lat="36.60194007027782" lon="-5.127715123916096"><ele>1016.0</ele><time>2026-04-25T09:27:24Z</time></trkpt><trkpt lat="36.601916761950235" lon="-5.127624880033662"><ele>1016.0</ele><time>2026-04-25T09:27:25Z</time></trkpt><trkpt lat="36.601871069699364" lon="-5.127564641860923"><ele>1016.0</ele><time>2026-04-25T09:27:26Z</time></trkpt><trkpt lat="36.60183093032673" lon="-5.127502041255987"><ele>1016.0000000000001</ele><time>2026-04-25T09:27:27Z</time></trkpt><trkpt lat="36.601776281226414" lon="-5.127362440584673"><ele>1016.0</ele><time>2026-04-25T09:27:29Z</time></trkpt><trkpt lat="36.60176896980741" lon="-5.127279606035822"><ele>1017.4</ele><time>2026-04-25T09:27:30Z</time></trkpt><trkpt lat="36.60176211320266" lon="-5.127191511842166"><ele>1018.8</ele><time>2026-04-25T09:27:31Z</time></trkpt><trkpt lat="36.60174417259651" lon="-5.127039278127103"><ele>1020.1999999999999</ele><time>2026-04-25T09:27:33Z</time></trkpt><trkpt lat="36.601737730470035" lon="-5.126889042037816"><ele>1021.5999999999999</ele><time>2026-04-25T09:27:35Z</time></trkpt><trkpt lat="36.60166714194261" lon="-5.126806367056159"><ele>1023.0</ele><time>2026-04-25T09:27:37Z</time></trkpt><trkpt lat="36.60160312890629" lon="-5.126706978578617"><ele>1023.0</ele><time>2026-04-25T09:27:39Z</time></trkpt><trkpt lat="36.601524538976165" lon="-5.126655508999688"><ele>1023.0</ele><time>2026-04-25T09:27:41Z</time></trkpt><trkpt lat="36.601442422353365" lon="-5.126556488870649"><ele>1023.0</ele><time>2026-04-25T09:27:43Z</time></trkpt><trkpt lat="36.601401815552904" lon="-5.126495822264851"><ele>1023.0</ele><time>2026-04-25T09:27:44Z</time></trkpt><trkpt lat="36.60132883483291" lon="-5.126363008567402"><ele>1023.0</ele><time>2026-04-25T09:27:46Z</time></trkpt><trkpt lat="36.601306159632884" lon="-5.126262841593996"><ele>1021.3333333333334</ele><time>2026-04-25T09:27:47Z</time></trkpt><trkpt lat="36.60126627780374" lon="-5.126183775821323"><ele>1019.6666666666667</ele><time>2026-04-25T09:27:48Z</time></trkpt><trkpt lat="36.60122842838322" lon="-5.126112217366772"><ele>1018.0</ele><time>2026-04-25T09:27:49Z</time></trkpt><trkpt lat="36.60116674667776" lon="-5.126044198042703"><ele>1016.3333333333334</ele><time>2026-04-25T09:27:50Z</time></trkpt><trkpt lat="36.60112554066134" lon="-5.125963012658429"><ele>1014.6666666666667</ele><time>2026-04-25T09:27:51Z</time></trkpt><trkpt lat="36.60109866670907" lon="-5.125878481862094"><ele>1013.0</ele><time>2026-04-25T09:27:52Z</time></trkpt><trkpt lat="36.601028363377374" lon="-5.125837844588423"><ele>1016.5000000000001</ele><time>2026-04-25T09:27:53Z</time></trkpt><trkpt lat="36.60097228396772" lon="-5.12576804309045"><ele>1020.0</ele><time>2026-04-25T09:27:54Z</time></trkpt><trkpt lat="36.6009404917765" lon="-5.125679247033992"><ele>1023.5</ele><time>2026-04-25T09:27:55Z</time></trkpt><trkpt lat="36.60088012287954" lon="-5.1256123790141075"><ele>1027.0</ele><time>2026-04-25T09:27:56Z</time></trkpt><trkpt lat="36.60083746566606" lon="-5.125549346152799"><ele>1030.5</ele><time>2026-04-25T09:27:57Z</time></trkpt><trkpt lat="36.60077830417531" lon="-5.125514503573301"><ele>1034.0</ele><time>2026-04-25T09:27:58Z</time></trkpt><trkpt lat="36.600704125703395" lon="-5.125476590724417"><ele>1034.0</ele><time>2026-04-25T09:27:59Z</time></trkpt><trkpt lat="36.60063211006716" lon="-5.12543100383505"><ele>1034.0</ele><time>2026-04-25T09:27:59.999Z</time></trkpt><trkpt lat="36.600562506415415" lon="-5.125386332710301"><ele>1034.0</ele><time>2026-04-25T09:28:00.999Z</time></trkpt><trkpt lat="36.60050376833881" lon="-5.125343398700078"><ele>1034.0</ele><time>2026-04-25T09:28:01.999Z</time></trkpt><trkpt lat="36.60042232008132" lon="-5.125246405974961"><ele>1034.0</ele><time>2026-04-25T09:28:03.999Z</time></trkpt><trkpt lat="36.60039171230383" lon="-5.125158804158177"><ele>1034.0</ele><time>2026-04-25T09:28:04.999Z</time></trkpt><trkpt lat="36.60038615740037" lon="-5.125063380443332"><ele>1034.0</ele><time>2026-04-25T09:28:05.999Z</time></trkpt><trkpt lat="36.60038864021138" lon="-5.124957063177967"><ele>1034.0</ele><time>2026-04-25T09:28:06.999Z</time></trkpt><trkpt lat="36.600396302482295" lon="-5.124856323852391"><ele>1034.0</ele><time>2026-04-25T09:28:07.999Z</time></trkpt><trkpt lat="36.60041804432322" lon="-5.124756762998082"><ele>1034.0</ele><time>2026-04-25T09:28:08.999Z</time></trkpt><trkpt lat="36.60043876304634" lon="-5.124671170082931"><ele>1034.0</ele><time>2026-04-25T09:28:09.999Z</time></trkpt><trkpt lat="36.60047952598636" lon="-5.124595773660398"><ele>1034.0</ele><time>2026-04-25T09:28:10.999Z</time></trkpt><trkpt lat="36.60049645106668" lon="-5.124499826041075"><ele>1033.7142857142858</ele><time>2026-04-25T09:28:11.999Z</time></trkpt><trkpt lat="36.60053122227817" lon="-5.12441680889733"><ele>1033.4285714285716</ele><time>2026-04-25T09:28:12.999Z</time></trkpt><trkpt lat="36.600566762632006" lon="-5.124334308029335"><ele>1033.142857142857</ele><time>2026-04-25T09:28:13.999Z</time></trkpt><trkpt lat="36.60059819329201" lon="-5.124260816855636"><ele>1032.857142857143</ele><time>2026-04-25T09:28:14.999Z</time></trkpt><trkpt lat="36.60062214772774" lon="-5.124178319418438"><ele>1032.5714285714284</ele><time>2026-04-25T09:28:15.999Z</time></trkpt><trkpt lat="36.600651328674694" lon="-5.124097053550353"><ele>1032.2857142857142</ele><time>2026-04-25T09:28:16.999Z</time></trkpt><trkpt lat="36.6006463858257" lon="-5.123998405932696"><ele>1032.0</ele><time>2026-04-25T09:28:17.999Z</time></trkpt><trkpt lat="36.60065686434899" lon="-5.1239049274058"><ele>1032.0</ele><time>2026-04-25T09:28:18.999Z</time></trkpt><trkpt lat="36.60066388330196" lon="-5.123808204436799"><ele>1032.0</ele><time>2026-04-25T09:28:19.999Z</time></trkpt><trkpt lat="36.60066816108155" lon="-5.123717688989329"><ele>1032.0</ele><time>2026-04-25T09:28:20.999Z</time></trkpt><trkpt lat="36.60066388288018" lon="-5.123622637661028"><ele>1032.0</ele><time>2026-04-25T09:28:21.999Z</time></trkpt><trkpt lat="36.60065208374436" lon="-5.123534502167939"><ele>1032.0</ele><time>2026-04-25T09:28:22.999Z</time></trkpt><trkpt lat="36.60063678102165" lon="-5.1234375849219695"><ele>1032.0</ele><time>2026-04-25T09:28:23.999Z</time></trkpt><trkpt lat="36.60062588528968" lon="-5.123337704854064"><ele>1032.0</ele><time>2026-04-25T09:28:24.999Z</time></trkpt><trkpt lat="36.600617411890845" lon="-5.123254133897685"><ele>1032.0</ele><time>2026-04-25T09:28:25.999Z</time></trkpt><trkpt lat="36.60060814399015" lon="-5.123176478333276"><ele>1032.0</ele><time>2026-04-25T09:28:26.999Z</time></trkpt><trkpt lat="36.60058929923137" lon="-5.123084648593062"><ele>1032.0</ele><time>2026-04-25T09:28:28.999Z</time></trkpt><trkpt lat="36.60055284267295" lon="-5.1229698994620945"><ele>1032.0</ele><time>2026-04-25T09:28:31.999Z</time></trkpt><trkpt lat="36.60053469760985" lon="-5.122839891071012"><ele>1032.0</ele><time>2026-04-25T09:28:33.999Z</time></trkpt><trkpt lat="36.60052081733441" lon="-5.122695872483334"><ele>1032.3333333333333</ele><time>2026-04-25T09:28:35.999Z</time></trkpt><trkpt lat="36.60050500931934" lon="-5.122572529908324"><ele>1032.6666666666667</ele><time>2026-04-25T09:28:37.999Z</time></trkpt><trkpt lat="36.600502631073496" lon="-5.122444048065503"><ele>1033.0</ele><time>2026-04-25T09:28:39.999Z</time></trkpt><trkpt lat="36.60049147218155" lon="-5.122335147946473"><ele>1033.3333333333335</ele><time>2026-04-25T09:28:41.999Z</time></trkpt><trkpt lat="36.60048360040588" lon="-5.122248501480851"><ele>1033.6666666666667</ele><time>2026-04-25T09:28:44.999Z</time></trkpt><trkpt lat="36.600473704046294" lon="-5.1223281370583855"><ele>1034.0</ele><time>2026-04-25T09:29:18.998Z</time></trkpt><trkpt lat="36.60042306208834" lon="-5.122444686119221"><ele>1034.0</ele><time>2026-04-25T09:29:20.998Z</time></trkpt><trkpt lat="36.60041453013802" lon="-5.1226002646927"><ele>1034.0</ele><time>2026-04-25T09:29:22.998Z</time></trkpt><trkpt lat="36.60042149129127" lon="-5.122680819468829"><ele>1034.0</ele><time>2026-04-25T09:29:23.998Z</time></trkpt><trkpt lat="36.60042343837926" lon="-5.122769116042658"><ele>1034.0</ele><time>2026-04-25T09:29:25Z</time></trkpt><trkpt lat="36.60041889782407" lon="-5.122852408738298"><ele>1034.0</ele><time>2026-04-25T09:29:26Z</time></trkpt><trkpt lat="36.600389743911826" lon="-5.122946974597307"><ele>1034.0</ele><time>2026-04-25T09:29:27Z</time></trkpt><trkpt lat="36.60034555563896" lon="-5.123033883337036"><ele>1029.6000000000001</ele><time>2026-04-25T09:29:28Z</time></trkpt><trkpt lat="36.60028185317178" lon="-5.123115137130535"><ele>1025.2</ele><time>2026-04-25T09:29:29Z</time></trkpt><trkpt lat="36.60022443485285" lon="-5.123212921181658"><ele>1020.8000000000001</ele><time>2026-04-25T09:29:30Z</time></trkpt><trkpt lat="36.60015987259054" lon="-5.12329339792164"><ele>1016.4000000000001</ele><time>2026-04-25T09:29:31Z</time></trkpt><trkpt lat="36.6001029980934" lon="-5.123364292317099"><ele>1012.0</ele><time>2026-04-25T09:29:32Z</time></trkpt><trkpt lat="36.600116039815966" lon="-5.123521569577431"><ele>1012.0</ele><time>2026-04-25T09:29:34Z</time></trkpt><trkpt lat="36.600099165204576" lon="-5.123641469070348"><ele>1012.0</ele><time>2026-04-25T09:29:35Z</time></trkpt><trkpt lat="36.60008372054757" lon="-5.123775182387322"><ele>1012.0</ele><time>2026-04-25T09:29:36Z</time></trkpt><trkpt lat="36.600067234058436" lon="-5.123897951241773"><ele>1012.0</ele><time>2026-04-25T09:29:37Z</time></trkpt><trkpt lat="36.60004391131288" lon="-5.124007819505769"><ele>1012.0</ele><time>2026-04-25T09:29:38Z</time></trkpt><trkpt lat="36.600024733948345" lon="-5.124117786533507"><ele>1013.3333333333333</ele><time>2026-04-25T09:29:39Z</time></trkpt><trkpt lat="36.60002331073099" lon="-5.124224376328848"><ele>1014.6666666666666</ele><time>2026-04-25T09:29:40Z</time></trkpt><trkpt lat="36.60002867035147" lon="-5.124324672579603"><ele>1016.0</ele><time>2026-04-25T09:29:41Z</time></trkpt><trkpt lat="36.600020966550694" lon="-5.124412043318118"><ele>1017.3333333333333</ele><time>2026-04-25T09:29:42Z</time></trkpt><trkpt lat="36.5999882457897" lon="-5.124488982235052"><ele>1018.6666666666666</ele><time>2026-04-25T09:29:43Z</time></trkpt><trkpt lat="36.599926448554854" lon="-5.124546239291654"><ele>1020.0</ele><time>2026-04-25T09:29:44Z</time></trkpt><trkpt lat="36.59984576072691" lon="-5.124603459350308"><ele>1020.0</ele><time>2026-04-25T09:29:45Z</time></trkpt><trkpt lat="36.599767492158115" lon="-5.124654982852297"><ele>1020.0</ele><time>2026-04-25T09:29:46Z</time></trkpt><trkpt lat="36.59970569796662" lon="-5.124714723518459"><ele>1020.0</ele><time>2026-04-25T09:29:47Z</time></trkpt><trkpt lat="36.59966384828748" lon="-5.124797478373483"><ele>1020.0</ele><time>2026-04-25T09:29:48Z</time></trkpt><trkpt lat="36.59964547957498" lon="-5.1249007553762045"><ele>1020.0</ele><time>2026-04-25T09:29:49Z</time></trkpt><trkpt lat="36.59967033553352" lon="-5.1250094237619335"><ele>1020.0</ele><time>2026-04-25T09:29:50Z</time></trkpt><trkpt lat="36.59967550890428" lon="-5.125117036047797"><ele>1021.5</ele><time>2026-04-25T09:29:51Z</time></trkpt><trkpt lat="36.599664542558365" lon="-5.125218980645457"><ele>1023.0</ele><time>2026-04-25T09:29:52Z</time></trkpt><trkpt lat="36.59966530461565" lon="-5.1253127761628665"><ele>1024.5</ele><time>2026-04-25T09:29:53Z</time></trkpt><trkpt lat="36.599599256306064" lon="-5.125410771665342"><ele>1026.0</ele><time>2026-04-25T09:29:54Z</time></trkpt><trkpt lat="36.59951734697568" lon="-5.1254617369064155"><ele>1027.5</ele><time>2026-04-25T09:29:55Z</time></trkpt><trkpt lat="36.59945397142431" lon="-5.125498643019254"><ele>1029.0</ele><time>2026-04-25T09:29:56Z</time></trkpt><trkpt lat="36.599349916272054" lon="-5.12557011522517"><ele>1026.2</ele><time>2026-04-25T09:29:57Z</time></trkpt><trkpt lat="36.5992521396935" lon="-5.125606690387725"><ele>1023.4000000000001</ele><time>2026-04-25T09:29:58Z</time></trkpt><trkpt lat="36.59916206503675" lon="-5.125661278828455"><ele>1020.6</ele><time>2026-04-25T09:29:59Z</time></trkpt><trkpt lat="36.59909148915742" lon="-5.125759084928867"><ele>1017.8</ele><time>2026-04-25T09:30:00Z</time></trkpt><trkpt lat="36.599001663637374" lon="-5.125820306523917"><ele>1015.0</ele><time>2026-04-25T09:30:01Z</time></trkpt><trkpt lat="36.59889761183176" lon="-5.125857385243002"><ele>1015.0</ele><time>2026-04-25T09:30:02Z</time></trkpt><trkpt lat="36.59878998639552" lon="-5.125882872422191"><ele>1015.0</ele><time>2026-04-25T09:30:03Z</time></trkpt><trkpt lat="36.59868458215332" lon="-5.1258969881841345"><ele>1015.0</ele><time>2026-04-25T09:30:04Z</time></trkpt><trkpt lat="36.59857554877597" lon="-5.125913762557636"><ele>1015.0</ele><time>2026-04-25T09:30:05Z</time></trkpt><trkpt lat="36.5984839626736" lon="-5.125931720572279"><ele>1015.0</ele><time>2026-04-25T09:30:06Z</time></trkpt><trkpt lat="36.59837924727923" lon="-5.125976137935925"><ele>1008.75</ele><time>2026-04-25T09:30:07Z</time></trkpt><trkpt lat="36.598262964754" lon="-5.126025293611545"><ele>1002.5</ele><time>2026-04-25T09:30:08Z</time></trkpt><trkpt lat="36.598168010636925" lon="-5.126067007001467"><ele>996.25</ele><time>2026-04-25T09:30:09Z</time></trkpt><trkpt lat="36.59801053331929" lon="-5.126163819242622"><ele>990.0</ele><time>2026-04-25T09:30:10Z</time></trkpt><trkpt lat="36.59789512048791" lon="-5.126179304286294"><ele>987.1666666666666</ele><time>2026-04-25T09:30:11Z</time></trkpt><trkpt lat="36.59779110600317" lon="-5.126202238553388"><ele>984.3333333333333</ele><time>2026-04-25T09:30:11.999Z</time></trkpt><trkpt lat="36.59770028132485" lon="-5.126264105000478"><ele>981.5</ele><time>2026-04-25T09:30:12.999Z</time></trkpt><trkpt lat="36.597641249251396" lon="-5.126297880782687"><ele>978.6666666666666</ele><time>2026-04-25T09:30:13.999Z</time></trkpt><trkpt lat="36.59756065300401" lon="-5.126352864971402"><ele>975.8333333333333</ele><time>2026-04-25T09:30:14.999Z</time></trkpt><trkpt lat="36.597491535042785" lon="-5.126406168789397"><ele>973.0</ele><time>2026-04-25T09:30:15.999Z</time></trkpt><trkpt lat="36.597489582059126" lon="-5.126574807864584"><ele>972.9999999999999</ele><time>2026-04-25T09:30:17.999Z</time></trkpt><trkpt lat="36.59754066275976" lon="-5.126661176121154"><ele>973.0</ele><time>2026-04-25T09:30:18.999Z</time></trkpt><trkpt lat="36.597611849814534" lon="-5.126724437116186"><ele>973.0</ele><time>2026-04-25T09:30:19.999Z</time></trkpt><trkpt lat="36.597688437396705" lon="-5.126780964887437"><ele>973.0</ele><time>2026-04-25T09:30:20.999Z</time></trkpt><trkpt lat="36.59774443250733" lon="-5.126875780462252"><ele>972.9999999999999</ele><time>2026-04-25T09:30:21.999Z</time></trkpt><trkpt lat="36.59776752663339" lon="-5.1269521237067535"><ele>973.0</ele><time>2026-04-25T09:30:22.999Z</time></trkpt><trkpt lat="36.597766335540534" lon="-5.127043486854577"><ele>973.0</ele><time>2026-04-25T09:30:23.999Z</time></trkpt><trkpt lat="36.59777875424492" lon="-5.127127202891137"><ele>973.0</ele><time>2026-04-25T09:30:24.999Z</time></trkpt><trkpt lat="36.59779167717563" lon="-5.127207182346493"><ele>973.0</ele><time>2026-04-25T09:30:25.999Z</time></trkpt><trkpt lat="36.597640785181355" lon="-5.127325957113509"><ele>973.0</ele><time>2026-04-25T09:30:26.999Z</time></trkpt><trkpt lat="36.59777126498962" lon="-5.127386879188158"><ele>975.6666666666666</ele><time>2026-04-25T09:30:27.999Z</time></trkpt><trkpt lat="36.5980607536149" lon="-5.12741526020272"><ele>978.3333333333333</ele><time>2026-04-25T09:30:28.999Z</time></trkpt><trkpt lat="36.59821182822293" lon="-5.127428838045586"><ele>981.0</ele><time>2026-04-25T09:30:29.999Z</time></trkpt><trkpt lat="36.598356917922416" lon="-5.127438812514261"><ele>981.0</ele><time>2026-04-25T09:30:30.999Z</time></trkpt><trkpt lat="36.598464167287716" lon="-5.12747518895223"><ele>980.9999999999999</ele><time>2026-04-25T09:30:32.999Z</time></trkpt><trkpt lat="36.598542294387094" lon="-5.127486365012673"><ele>980.9999999999999</ele><time>2026-04-25T09:30:33.999Z</time></trkpt><trkpt lat="36.59860952851735" lon="-5.127508558387491"><ele>981.0</ele><time>2026-04-25T09:30:34.999Z</time></trkpt><trkpt lat="36.59865561424899" lon="-5.127634450557531"><ele>981.0</ele><time>2026-04-25T09:30:35.999Z</time></trkpt><trkpt lat="36.598688524854005" lon="-5.127750576769732"><ele>981.5</ele><time>2026-04-25T09:30:36.999Z</time></trkpt><trkpt lat="36.598715613845755" lon="-5.127882500166739"><ele>982.0</ele><time>2026-04-25T09:30:37.999Z</time></trkpt><trkpt lat="36.59874429686142" lon="-5.128020545535554"><ele>982.5</ele><time>2026-04-25T09:30:38.999Z</time></trkpt><trkpt lat="36.59877668417307" lon="-5.128168747389734"><ele>983.0</ele><time>2026-04-25T09:30:39.999Z</time></trkpt><trkpt lat="36.598818968953985" lon="-5.128290697515977"><ele>983.0</ele><time>2026-04-25T09:30:40.999Z</time></trkpt><trkpt lat="36.598883681722455" lon="-5.128387015069363"><ele>983.0</ele><time>2026-04-25T09:30:41.999Z</time></trkpt><trkpt lat="36.59898261213072" lon="-5.1284541064650435"><ele>983.0</ele><time>2026-04-25T09:30:42.999Z</time></trkpt><trkpt lat="36.59908214144388" lon="-5.128534259741323"><ele>983.0</ele><time>2026-04-25T09:30:43.999Z</time></trkpt><trkpt lat="36.599158543690955" lon="-5.128641423283388"><ele>983.0</ele><time>2026-04-25T09:30:44.999Z</time></trkpt><trkpt lat="36.59921738357634" lon="-5.128775878113819"><ele>983.0</ele><time>2026-04-25T09:30:45.999Z</time></trkpt><trkpt lat="36.599259783316555" lon="-5.128928551216635"><ele>983.0</ele><time>2026-04-25T09:30:46.999Z</time></trkpt><trkpt lat="36.59929183610914" lon="-5.129075482873282"><ele>983.0</ele><time>2026-04-25T09:30:47.999Z</time></trkpt><trkpt lat="36.59933251914349" lon="-5.129208306295071"><ele>983.0</ele><time>2026-04-25T09:30:48.999Z</time></trkpt><trkpt lat="36.59936043201243" lon="-5.1293291240583185"><ele>979.0</ele><time>2026-04-25T09:30:49.999Z</time></trkpt><trkpt lat="36.599380539421006" lon="-5.129439013468807"><ele>975.0</ele><time>2026-04-25T09:30:50.999Z</time></trkpt><trkpt lat="36.599390619499786" lon="-5.1295674309369055"><ele>971.0</ele><time>2026-04-25T09:30:51.999Z</time></trkpt><trkpt lat="36.59939513406011" lon="-5.129718071812586"><ele>967.0</ele><time>2026-04-25T09:30:52.999Z</time></trkpt><trkpt lat="36.59939184297936" lon="-5.1298802251152535"><ele>963.0</ele><time>2026-04-25T09:30:53.999Z</time></trkpt><trkpt lat="36.599366735984404" lon="-5.13005258882626"><ele>962.75</ele><time>2026-04-25T09:30:54.999Z</time></trkpt><trkpt lat="36.59934811502361" lon="-5.130185923254663"><ele>962.5</ele><time>2026-04-25T09:30:55.999Z</time></trkpt><trkpt lat="36.599314199724795" lon="-5.130332618630392"><ele>962.25</ele><time>2026-04-25T09:30:56.999Z</time></trkpt><trkpt lat="36.59927322104146" lon="-5.13048440503497"><ele>962.0</ele><time>2026-04-25T09:30:57.999Z</time></trkpt><trkpt lat="36.59923069944483" lon="-5.130634595440982"><ele>961.25</ele><time>2026-04-25T09:30:58.999Z</time></trkpt><trkpt lat="36.599186833328126" lon="-5.130786696131941"><ele>960.5</ele><time>2026-04-25T09:30:59.999Z</time></trkpt><trkpt lat="36.59915579553145" lon="-5.130884836168358"><ele>959.75</ele><time>2026-04-25T09:31:00.999Z</time></trkpt><trkpt lat="36.59914683983104" lon="-5.1310565794327445"><ele>959.0</ele><time>2026-04-25T09:31:01.999Z</time></trkpt><trkpt lat="36.599155185043315" lon="-5.1311920267277085"><ele>959.0</ele><time>2026-04-25T09:31:02.999Z</time></trkpt><trkpt lat="36.599153783390825" lon="-5.131338653238844"><ele>959.0</ele><time>2026-04-25T09:31:03.999Z</time></trkpt><trkpt lat="36.59916586889686" lon="-5.131480214515747"><ele>959.0</ele><time>2026-04-25T09:31:04.999Z</time></trkpt><trkpt lat="36.599136231105625" lon="-5.131625252134691"><ele>959.0</ele><time>2026-04-25T09:31:05.999Z</time></trkpt><trkpt lat="36.599083069524816" lon="-5.131766684097936"><ele>957.75</ele><time>2026-04-25T09:31:06.999Z</time></trkpt><trkpt lat="36.599017847623394" lon="-5.131900202090983"><ele>956.5</ele><time>2026-04-25T09:31:07.999Z</time></trkpt><trkpt lat="36.5989356788153" lon="-5.132018082209733"><ele>955.25</ele><time>2026-04-25T09:31:08.999Z</time></trkpt><trkpt lat="36.598822980643384" lon="-5.132110692738887"><ele>954.0</ele><time>2026-04-25T09:31:09.999Z</time></trkpt><trkpt lat="36.59868830557221" lon="-5.1321825346239365"><ele>950.75</ele><time>2026-04-25T09:31:10.999Z</time></trkpt><trkpt lat="36.59855191098197" lon="-5.132247658839256"><ele>947.5</ele><time>2026-04-25T09:31:11.999Z</time></trkpt><trkpt lat="36.598425984428" lon="-5.132298017993764"><ele>944.25</ele><time>2026-04-25T09:31:12.999Z</time></trkpt><trkpt lat="36.59829607843011" lon="-5.132311822807538"><ele>941.0</ele><time>2026-04-25T09:31:13.999Z</time></trkpt><trkpt lat="36.59816039064024" lon="-5.132296514222319"><ele>941.0</ele><time>2026-04-25T09:31:14.999Z</time></trkpt><trkpt lat="36.59802685614544" lon="-5.132253755567225"><ele>941.0</ele><time>2026-04-25T09:31:15.999Z</time></trkpt><trkpt lat="36.59790760136841" lon="-5.132217113011077"><ele>941.0</ele><time>2026-04-25T09:31:16.999Z</time></trkpt><trkpt lat="36.59780789033182" lon="-5.132212750395675"><ele>941.0</ele><time>2026-04-25T09:31:17.999Z</time></trkpt><trkpt lat="36.59771045248035" lon="-5.132304408857577"><ele>940.0</ele><time>2026-04-25T09:31:18.998Z</time></trkpt><trkpt lat="36.59760051443436" lon="-5.132388248280091"><ele>939.0</ele><time>2026-04-25T09:31:19.998Z</time></trkpt><trkpt lat="36.597499847861926" lon="-5.132466171866064"><ele>938.0</ele><time>2026-04-25T09:31:20.998Z</time></trkpt><trkpt lat="36.59741307745506" lon="-5.132557341673541"><ele>937.0</ele><time>2026-04-25T09:31:21.998Z</time></trkpt><trkpt lat="36.59736064801625" lon="-5.132660477352754"><ele>937.0</ele><time>2026-04-25T09:31:22.998Z</time></trkpt><trkpt lat="36.59732053957382" lon="-5.132797289254569"><ele>937.0</ele><time>2026-04-25T09:31:23.998Z</time></trkpt><trkpt lat="36.59729260435625" lon="-5.132942522871061"><ele>937.0</ele><time>2026-04-25T09:31:24.998Z</time></trkpt><trkpt lat="36.59726876853912" lon="-5.133111805236587"><ele>937.0</ele><time>2026-04-25T09:31:25.998Z</time></trkpt><trkpt lat="36.59724475161093" lon="-5.133290136604775"><ele>936.3333333333333</ele><time>2026-04-25T09:31:26.998Z</time></trkpt><trkpt lat="36.59723344886847" lon="-5.133484141744181"><ele>935.6666666666667</ele><time>2026-04-25T09:31:27.998Z</time></trkpt><trkpt lat="36.59721907742515" lon="-5.13369588551172"><ele>935.0</ele><time>2026-04-25T09:31:28.998Z</time></trkpt><trkpt lat="36.59717404089149" lon="-5.133883612355983"><ele>932.5</ele><time>2026-04-25T09:31:29.998Z</time></trkpt><trkpt lat="36.5971241334485" lon="-5.13406141447232"><ele>930.0</ele><time>2026-04-25T09:31:30.999Z</time></trkpt><trkpt lat="36.59708454899791" lon="-5.134224874769501"><ele>927.5</ele><time>2026-04-25T09:31:31.999Z</time></trkpt><trkpt lat="36.5970401334666" lon="-5.134376381034186"><ele>925.0</ele><time>2026-04-25T09:31:32.999Z</time></trkpt><trkpt lat="36.59696718034187" lon="-5.134516277839962"><ele>923.0</ele><time>2026-04-25T09:31:33.999Z</time></trkpt><trkpt lat="36.596867995255124" lon="-5.1346447999070755"><ele>921.0</ele><time>2026-04-25T09:31:34.999Z</time></trkpt><trkpt lat="36.59678769438147" lon="-5.1347751151558905"><ele>919.0</ele><time>2026-04-25T09:31:35.999Z</time></trkpt><trkpt lat="36.59674756344489" lon="-5.134916665306137"><ele>917.0</ele><time>2026-04-25T09:31:36.999Z</time></trkpt><trkpt lat="36.59672017072692" lon="-5.135056754991021"><ele>917.0</ele><time>2026-04-25T09:31:37.999Z</time></trkpt><trkpt lat="36.59668051044535" lon="-5.135200781339727"><ele>917.0</ele><time>2026-04-25T09:31:38.999Z</time></trkpt><trkpt lat="36.59663986774713" lon="-5.135344975122727"><ele>917.0</ele><time>2026-04-25T09:31:39.999Z</time></trkpt><trkpt lat="36.59657924715217" lon="-5.135467744913505"><ele>917.0</ele><time>2026-04-25T09:31:40.999Z</time></trkpt><trkpt lat="36.5964987819078" lon="-5.135581357397028"><ele>917.0</ele><time>2026-04-25T09:31:41.999Z</time></trkpt><trkpt lat="36.59641831605379" lon="-5.135678242162097"><ele>917.0</ele><time>2026-04-25T09:31:42.999Z</time></trkpt><trkpt lat="36.59637778222508" lon="-5.135770498896223"><ele>917.0</ele><time>2026-04-25T09:31:43.999Z</time></trkpt><trkpt lat="36.596405768754494" lon="-5.135882754736739"><ele>917.0</ele><time>2026-04-25T09:31:44.999Z</time></trkpt><trkpt lat="36.596438642196546" lon="-5.136007491133297"><ele>917.0</ele><time>2026-04-25T09:31:45.999Z</time></trkpt><trkpt lat="36.5964899832553" lon="-5.136146215835135"><ele>916.25</ele><time>2026-04-25T09:31:46.999Z</time></trkpt><trkpt lat="36.59653352578145" lon="-5.136299290366745"><ele>915.5</ele><time>2026-04-25T09:31:47.999Z</time></trkpt><trkpt lat="36.596558737208426" lon="-5.1364536535384"><ele>914.75</ele><time>2026-04-25T09:31:48.999Z</time></trkpt><trkpt lat="36.59659118613421" lon="-5.136584962749178"><ele>914.0</ele><time>2026-04-25T09:31:49.999Z</time></trkpt><trkpt lat="36.59665136629516" lon="-5.136680849812839"><ele>914.0</ele><time>2026-04-25T09:31:50.999Z</time></trkpt><trkpt lat="36.59674137109739" lon="-5.13672034165214"><ele>914.0000000000001</ele><time>2026-04-25T09:31:51.999Z</time></trkpt><trkpt lat="36.59681592125197" lon="-5.13678467696518"><ele>914.0000000000001</ele><time>2026-04-25T09:31:52.999Z</time></trkpt><trkpt lat="36.596882817652144" lon="-5.136877784849593"><ele>914.0</ele><time>2026-04-25T09:31:53.999Z</time></trkpt><trkpt lat="36.59692522439315" lon="-5.137006241109461"><ele>914.0</ele><time>2026-04-25T09:31:54.999Z</time></trkpt><trkpt lat="36.59694209155251" lon="-5.137156094210112"><ele>914.0</ele><time>2026-04-25T09:31:55.999Z</time></trkpt><trkpt lat="36.59693945620389" lon="-5.137307583935001"><ele>914.0000000000001</ele><time>2026-04-25T09:31:56.999Z</time></trkpt><trkpt lat="36.59692763735017" lon="-5.137443109066801"><ele>914.0000000000001</ele><time>2026-04-25T09:31:57.999Z</time></trkpt><trkpt lat="36.596954162429746" lon="-5.137543369991961"><ele>914.0</ele><time>2026-04-25T09:31:58.999Z</time></trkpt><trkpt lat="36.597007499754454" lon="-5.137617187842996"><ele>914.0</ele><time>2026-04-25T09:31:59.999Z</time></trkpt><trkpt lat="36.597070462751866" lon="-5.137691713970426"><ele>911.1666666666667</ele><time>2026-04-25T09:32:00.999Z</time></trkpt><trkpt lat="36.597123846503834" lon="-5.137786088876872"><ele>908.3333333333334</ele><time>2026-04-25T09:32:01.999Z</time></trkpt><trkpt lat="36.59716016391916" lon="-5.1378948589232"><ele>905.5</ele><time>2026-04-25T09:32:02.999Z</time></trkpt><trkpt lat="36.597191416259996" lon="-5.138004632130587"><ele>902.6666666666667</ele><time>2026-04-25T09:32:03.999Z</time></trkpt><trkpt lat="36.59720669004549" lon="-5.13810956732809"><ele>899.8333333333334</ele><time>2026-04-25T09:32:04.999Z</time></trkpt><trkpt lat="36.59722271229145" lon="-5.138209111388793"><ele>897.0</ele><time>2026-04-25T09:32:05.999Z</time></trkpt><trkpt lat="36.59724970346606" lon="-5.138305459288301"><ele>897.0</ele><time>2026-04-25T09:32:06.999Z</time></trkpt><trkpt lat="36.59730092838584" lon="-5.138371420380876"><ele>897.0</ele><time>2026-04-25T09:32:07.999Z</time></trkpt><trkpt lat="36.59737596369058" lon="-5.138416225461169"><ele>897.0</ele><time>2026-04-25T09:32:08.999Z</time></trkpt><trkpt lat="36.59746274832532" lon="-5.138442358911271"><ele>897.0</ele><time>2026-04-25T09:32:09.999Z</time></trkpt><trkpt lat="36.59755436829689" lon="-5.138458786450046"><ele>897.0</ele><time>2026-04-25T09:32:10.999Z</time></trkpt><trkpt lat="36.59763581195039" lon="-5.13850477240082"><ele>897.0</ele><time>2026-04-25T09:32:11.999Z</time></trkpt><trkpt lat="36.59769785784111" lon="-5.1385755952488195"><ele>897.0</ele><time>2026-04-25T09:32:12.999Z</time></trkpt><trkpt lat="36.597752525212165" lon="-5.138658168362023"><ele>897.0</ele><time>2026-04-25T09:32:13.999Z</time></trkpt><trkpt lat="36.59778921031106" lon="-5.138748425893037"><ele>897.0</ele><time>2026-04-25T09:32:14.999Z</time></trkpt><trkpt lat="36.597824210538285" lon="-5.1388436032664035"><ele>897.0</ele><time>2026-04-25T09:32:15.999Z</time></trkpt><trkpt lat="36.5978535706507" lon="-5.138922862073093"><ele>897.0</ele><time>2026-04-25T09:32:16.999Z</time></trkpt><trkpt lat="36.59787507554135" lon="-5.1390389282062445"><ele>897.0</ele><time>2026-04-25T09:32:18.999Z</time></trkpt><trkpt lat="36.59786406631845" lon="-5.139120222786226"><ele>897.0</ele><time>2026-04-25T09:32:21.999Z</time></trkpt><trkpt lat="36.597835338707874" lon="-5.139004580806519"><ele>897.0</ele><time>2026-04-25T09:32:58.999Z</time></trkpt><trkpt lat="36.59782397664775" lon="-5.138907903749763"><ele>897.0</ele><time>2026-04-25T09:32:59.999Z</time></trkpt><trkpt lat="36.59780270427333" lon="-5.138801822543195"><ele>897.0</ele><time>2026-04-25T09:33:00.998Z</time></trkpt><trkpt lat="36.597760274059496" lon="-5.138712733280621"><ele>897.0</ele><time>2026-04-25T09:33:01.998Z</time></trkpt><trkpt lat="36.597713085379844" lon="-5.138633467149891"><ele>897.0</ele><time>2026-04-25T09:33:02.998Z</time></trkpt><trkpt lat="36.5976624212843" lon="-5.138550661936041"><ele>897.0</ele><time>2026-04-25T09:33:03.998Z</time></trkpt><trkpt lat="36.59756868276586" lon="-5.138521850967823"><ele>897.0</ele><time>2026-04-25T09:33:04.998Z</time></trkpt><trkpt lat="36.59748980355176" lon="-5.138478406690707"><ele>897.0</ele><time>2026-04-25T09:33:05.998Z</time></trkpt><trkpt lat="36.59740702372868" lon="-5.138455481840331"><ele>897.0</ele><time>2026-04-25T09:33:06.998Z</time></trkpt><trkpt lat="36.59733901607528" lon="-5.138404013237409"><ele>897.0</ele><time>2026-04-25T09:33:07.998Z</time></trkpt><trkpt lat="36.59726497151728" lon="-5.138376984381016"><ele>897.0</ele><time>2026-04-25T09:33:08.998Z</time></trkpt><trkpt lat="36.597201883052456" lon="-5.138300327049797"><ele>894.6</ele><time>2026-04-25T09:33:09.998Z</time></trkpt><trkpt lat="36.59716264678727" lon="-5.138192615758073"><ele>892.2</ele><time>2026-04-25T09:33:10.998Z</time></trkpt><trkpt lat="36.597146467815556" lon="-5.138076228770507"><ele>889.8</ele><time>2026-04-25T09:33:11.998Z</time></trkpt><trkpt lat="36.59712821739372" lon="-5.137960731128129"><ele>887.4</ele><time>2026-04-25T09:33:12.998Z</time></trkpt><trkpt lat="36.59709656327009" lon="-5.137854179491819"><ele>885.0</ele><time>2026-04-25T09:33:13.998Z</time></trkpt><trkpt lat="36.597049144832155" lon="-5.137748083586993"><ele>890.8</ele><time>2026-04-25T09:33:14.998Z</time></trkpt><trkpt lat="36.59699268380391" lon="-5.137637164929128"><ele>896.6</ele><time>2026-04-25T09:33:15.998Z</time></trkpt><trkpt lat="36.59692682616528" lon="-5.1375312791732"><ele>902.4000000000001</ele><time>2026-04-25T09:33:16.998Z</time></trkpt><trkpt lat="36.596878975337916" lon="-5.137414103136806"><ele>908.2</ele><time>2026-04-25T09:33:17.998Z</time></trkpt><trkpt lat="36.59690086166694" lon="-5.1372611942372695"><ele>914.0</ele><time>2026-04-25T09:33:18.998Z</time></trkpt><trkpt lat="36.596883849142245" lon="-5.137127498048288"><ele>914.0</ele><time>2026-04-25T09:33:19.998Z</time></trkpt><trkpt lat="36.59686929015369" lon="-5.137000798352173"><ele>914.0000000000001</ele><time>2026-04-25T09:33:20.998Z</time></trkpt><trkpt lat="36.59682766835433" lon="-5.136892382737008"><ele>914.0000000000001</ele><time>2026-04-25T09:33:21.998Z</time></trkpt><trkpt lat="36.596768912587706" lon="-5.1367941827191945"><ele>914.0</ele><time>2026-04-25T09:33:22.998Z</time></trkpt><trkpt lat="36.5967006018005" lon="-5.136732063594292"><ele>914.0</ele><time>2026-04-25T09:33:23.998Z</time></trkpt><trkpt lat="36.59662508351361" lon="-5.136670357290311"><ele>914.0</ele><time>2026-04-25T09:33:24.998Z</time></trkpt><trkpt lat="36.596557113398866" lon="-5.13658907038177"><ele>914.0000000000001</ele><time>2026-04-25T09:33:25.998Z</time></trkpt><trkpt lat="36.59653001427032" lon="-5.136464687336804"><ele>914.0000000000001</ele><time>2026-04-25T09:33:26.998Z</time></trkpt><trkpt lat="36.596512183633266" lon="-5.136339583321952"><ele>914.0</ele><time>2026-04-25T09:33:27.998Z</time></trkpt><trkpt lat="36.596482408946066" lon="-5.136217579641029"><ele>914.0</ele><time>2026-04-25T09:33:28.998Z</time></trkpt><trkpt lat="36.59643725407811" lon="-5.136101505400213"><ele>914.6</ele><time>2026-04-25T09:33:29.998Z</time></trkpt><trkpt lat="36.59639540131126" lon="-5.135979352856973"><ele>915.2</ele><time>2026-04-25T09:33:30.998Z</time></trkpt><trkpt lat="36.59638654067188" lon="-5.135863878403395"><ele>915.8000000000001</ele><time>2026-04-25T09:33:31.998Z</time></trkpt><trkpt lat="36.59637933850105" lon="-5.135766365638511"><ele>916.4000000000001</ele><time>2026-04-25T09:33:32.998Z</time></trkpt><trkpt lat="36.59638469037853" lon="-5.135660540237731"><ele>917.0</ele><time>2026-04-25T09:33:33.998Z</time></trkpt><trkpt lat="36.596464290073605" lon="-5.135564935799501"><ele>917.0</ele><time>2026-04-25T09:33:34.998Z</time></trkpt><trkpt lat="36.59654136833482" lon="-5.135474372757842"><ele>917.0</ele><time>2026-04-25T09:33:35.998Z</time></trkpt><trkpt lat="36.59659152319069" lon="-5.135362897191927"><ele>917.0</ele><time>2026-04-25T09:33:37Z</time></trkpt><trkpt lat="36.59663356034145" lon="-5.135236366150948"><ele>917.0</ele><time>2026-04-25T09:33:38Z</time></trkpt><trkpt lat="36.59667448353874" lon="-5.135098917997761"><ele>917.0</ele><time>2026-04-25T09:33:39Z</time></trkpt><trkpt lat="36.59671536149408" lon="-5.134988306334524"><ele>916.2</ele><time>2026-04-25T09:33:40Z</time></trkpt><trkpt lat="36.596742537952004" lon="-5.134863699850672"><ele>915.4000000000001</ele><time>2026-04-25T09:33:41Z</time></trkpt><trkpt lat="36.59677362134448" lon="-5.134744473650197"><ele>914.5999999999999</ele><time>2026-04-25T09:33:42Z</time></trkpt><trkpt lat="36.59683528956806" lon="-5.134641654520954"><ele>913.8</ele><time>2026-04-25T09:33:43Z</time></trkpt><trkpt lat="36.59690151686541" lon="-5.134556458011603"><ele>913.0</ele><time>2026-04-25T09:33:44Z</time></trkpt><trkpt lat="36.59696577210165" lon="-5.134470165524919"><ele>912.9999999999999</ele><time>2026-04-25T09:33:45Z</time></trkpt><trkpt lat="36.59701972953614" lon="-5.134375221847719"><ele>913.0</ele><time>2026-04-25T09:33:46Z</time></trkpt><trkpt lat="36.59704360005069" lon="-5.1342714204577184"><ele>913.0</ele><time>2026-04-25T09:33:47Z</time></trkpt><trkpt lat="36.59706405528015" lon="-5.134190290278961"><ele>913.0</ele><time>2026-04-25T09:33:48Z</time></trkpt><trkpt lat="36.597088759899506" lon="-5.134117673773337"><ele>912.9999999999999</ele><time>2026-04-25T09:33:50Z</time></trkpt><trkpt lat="36.59698828383184" lon="-5.1341744586469975"><ele>913.0</ele><time>2026-04-25T09:33:54Z</time></trkpt><trkpt lat="36.59690137525281" lon="-5.134221496168294"><ele>912.9999999999999</ele><time>2026-04-25T09:33:56Z</time></trkpt><trkpt lat="36.59683421192107" lon="-5.134272309006533"><ele>913.0</ele><time>2026-04-25T09:33:58Z</time></trkpt><trkpt lat="36.59677125504471" lon="-5.134340312468545"><ele>913.0</ele><time>2026-04-25T09:34:27.999Z</time></trkpt><trkpt lat="36.59672407008607" lon="-5.134412203372305"><ele>913.0</ele><time>2026-04-25T09:34:28.999Z</time></trkpt><trkpt lat="36.5966673851984" lon="-5.134487995663593"><ele>912.9999999999999</ele><time>2026-04-25T09:34:29.999Z</time></trkpt><trkpt lat="36.59661026629101" lon="-5.134540730321623"><ele>913.0</ele><time>2026-04-25T09:34:30.999Z</time></trkpt><trkpt lat="36.59656110918298" lon="-5.13461425303174"><ele>912.9999999999999</ele><time>2026-04-25T09:34:31.999Z</time></trkpt><trkpt lat="36.596498614780245" lon="-5.134662672413331"><ele>913.0</ele><time>2026-04-25T09:34:32.999Z</time></trkpt><trkpt lat="36.596452118222395" lon="-5.134725308109554"><ele>912.9999999999999</ele><time>2026-04-25T09:34:33.999Z</time></trkpt><trkpt lat="36.59642377215367" lon="-5.134801166407909"><ele>912.9999999999999</ele><time>2026-04-25T09:34:34.999Z</time></trkpt><trkpt lat="36.59638809005341" lon="-5.134879681807701"><ele>913.0</ele><time>2026-04-25T09:34:35.999Z</time></trkpt><trkpt lat="36.596340649454746" lon="-5.134955285800135"><ele>912.9999999999999</ele><time>2026-04-25T09:34:36.999Z</time></trkpt><trkpt lat="36.596299174078304" lon="-5.135040540423062"><ele>912.9999999999999</ele><time>2026-04-25T09:34:37.999Z</time></trkpt><trkpt lat="36.5962566516042" lon="-5.135130463646935"><ele>913.6666666666666</ele><time>2026-04-25T09:34:38.999Z</time></trkpt><trkpt lat="36.596202554049725" lon="-5.135208519151788"><ele>914.3333333333333</ele><time>2026-04-25T09:34:39.999Z</time></trkpt><trkpt lat="36.596154582790504" lon="-5.1352849986928835"><ele>915.0</ele><time>2026-04-25T09:34:40.999Z</time></trkpt><trkpt lat="36.596096722536856" lon="-5.13534943440333"><ele>915.6666666666667</ele><time>2026-04-25T09:34:41.999Z</time></trkpt><trkpt lat="36.59606170244445" lon="-5.135431767028519"><ele>916.3333333333334</ele><time>2026-04-25T09:34:42.999Z</time></trkpt><trkpt lat="36.59601376071273" lon="-5.135512909672718"><ele>917.0</ele><time>2026-04-25T09:34:43.999Z</time></trkpt><trkpt lat="36.595991922048405" lon="-5.135589670658689"><ele>916.0000000000001</ele><time>2026-04-25T09:34:44.999Z</time></trkpt><trkpt lat="36.59599421905336" lon="-5.135683412250306"><ele>915.0</ele><time>2026-04-25T09:34:45.999Z</time></trkpt><trkpt lat="36.59601079696638" lon="-5.135782066666939"><ele>914.0</ele><time>2026-04-25T09:34:46.999Z</time></trkpt><trkpt lat="36.596036720300525" lon="-5.1358760582575185"><ele>913.0</ele><time>2026-04-25T09:34:47.999Z</time></trkpt><trkpt lat="36.596061426509664" lon="-5.13597571451857"><ele>912.0000000000001</ele><time>2026-04-25T09:34:48.999Z</time></trkpt><trkpt lat="36.59607272493709" lon="-5.136072839824974"><ele>911.0</ele><time>2026-04-25T09:34:49.999Z</time></trkpt><trkpt lat="36.59609442109686" lon="-5.136168864607338"><ele>911.0000000000001</ele><time>2026-04-25T09:34:50.999Z</time></trkpt><trkpt lat="36.5961107808557" lon="-5.136259060408774"><ele>911.0</ele><time>2026-04-25T09:34:51.999Z</time></trkpt><trkpt lat="36.59613068037074" lon="-5.136352401889272"><ele>911.0</ele><time>2026-04-25T09:34:52.999Z</time></trkpt><trkpt lat="36.596156984357854" lon="-5.1364458886017275"><ele>911.0</ele><time>2026-04-25T09:34:53.999Z</time></trkpt><trkpt lat="36.59616810624876" lon="-5.1365289465706265"><ele>911.0000000000001</ele><time>2026-04-25T09:34:54.999Z</time></trkpt><trkpt lat="36.596183461218104" lon="-5.136624539472779"><ele>911.0</ele><time>2026-04-25T09:34:55.999Z</time></trkpt><trkpt lat="36.59619860697433" lon="-5.136736668386164"><ele>911.5000000000001</ele><time>2026-04-25T09:34:56.999Z</time></trkpt><trkpt lat="36.5962206362494" lon="-5.136837063620545"><ele>912.0</ele><time>2026-04-25T09:34:57.999Z</time></trkpt><trkpt lat="36.59622939354397" lon="-5.136939620844844"><ele>912.5</ele><time>2026-04-25T09:34:58.999Z</time></trkpt><trkpt lat="36.59623780212668" lon="-5.137042870511917"><ele>913.0</ele><time>2026-04-25T09:34:59.999Z</time></trkpt><trkpt lat="36.59624813085014" lon="-5.137154236658223"><ele>913.5000000000001</ele><time>2026-04-25T09:35:00.999Z</time></trkpt><trkpt lat="36.59627455356473" lon="-5.1372597823963355"><ele>914.0</ele><time>2026-04-25T09:35:01.999Z</time></trkpt><trkpt lat="36.59628753320767" lon="-5.137369051005322"><ele>914.0</ele><time>2026-04-25T09:35:02.999Z</time></trkpt><trkpt lat="36.59630120313221" lon="-5.137483796761176"><ele>914.0000000000001</ele><time>2026-04-25T09:35:03.999Z</time></trkpt><trkpt lat="36.596315635042075" lon="-5.1375946837836945"><ele>914.0000000000001</ele><time>2026-04-25T09:35:04.999Z</time></trkpt><trkpt lat="36.59633113166288" lon="-5.137707410266044"><ele>914.0</ele><time>2026-04-25T09:35:05.999Z</time></trkpt><trkpt lat="36.59634696224953" lon="-5.13781145139416"><ele>914.0</ele><time>2026-04-25T09:35:06.999Z</time></trkpt><trkpt lat="36.59636883929894" lon="-5.137920601692037"><ele>914.0000000000001</ele><time>2026-04-25T09:35:07.999Z</time></trkpt><trkpt lat="36.5963957326162" lon="-5.138033033547999"><ele>914.0</ele><time>2026-04-25T09:35:08.999Z</time></trkpt><trkpt lat="36.59640642941706" lon="-5.138140030339612"><ele>914.0</ele><time>2026-04-25T09:35:09.999Z</time></trkpt><trkpt lat="36.59644004243407" lon="-5.138230108475272"><ele>914.0</ele><time>2026-04-25T09:35:10.999Z</time></trkpt><trkpt lat="36.596451054611144" lon="-5.138329897680681"><ele>914.0000000000001</ele><time>2026-04-25T09:35:11.999Z</time></trkpt><trkpt lat="36.596471240231686" lon="-5.138412585563832"><ele>914.0</ele><time>2026-04-25T09:35:12.999Z</time></trkpt><trkpt lat="36.5965153471334" lon="-5.138559146301889"><ele>915.0000000000001</ele><time>2026-04-25T09:35:14.999Z</time></trkpt><trkpt lat="36.59654353528599" lon="-5.138630412972718"><ele>916.0</ele><time>2026-04-25T09:35:15.999Z</time></trkpt><trkpt lat="36.5965687793444" lon="-5.138708819836539"><ele>917.0000000000001</ele><time>2026-04-25T09:35:16.999Z</time></trkpt><trkpt lat="36.59656980116573" lon="-5.138794779097885"><ele>918.0000000000001</ele><time>2026-04-25T09:35:17.999Z</time></trkpt><trkpt lat="36.596570468207624" lon="-5.138877236423223"><ele>919.0</ele><time>2026-04-25T09:35:18.999Z</time></trkpt><trkpt lat="36.59655418240288" lon="-5.138958752244282"><ele>920.0000000000001</ele><time>2026-04-25T09:35:19.999Z</time></trkpt><trkpt lat="36.59648563311323" lon="-5.139061538738095"><ele>921.0000000000001</ele><time>2026-04-25T09:35:21.999Z</time></trkpt><trkpt lat="36.59645672121057" lon="-5.139139054162728"><ele>921.8</ele><time>2026-04-25T09:35:22.999Z</time></trkpt><trkpt lat="36.596390561951836" lon="-5.139269563799683"><ele>922.5999999999999</ele><time>2026-04-25T09:35:24.999Z</time></trkpt><trkpt lat="36.59636063951757" lon="-5.139348536050556"><ele>923.4</ele><time>2026-04-25T09:35:25.999Z</time></trkpt><trkpt lat="36.59633237238183" lon="-5.139429363582164"><ele>924.2</ele><time>2026-04-25T09:35:26.999Z</time></trkpt><trkpt lat="36.59628730073753" lon="-5.139577139038213"><ele>925.0</ele><time>2026-04-25T09:35:28.999Z</time></trkpt><trkpt lat="36.596266202608355" lon="-5.139651328358444"><ele>924.9999999999999</ele><time>2026-04-25T09:35:29.999Z</time></trkpt><trkpt lat="36.59624470790188" lon="-5.139731552427461"><ele>925.0</ele><time>2026-04-25T09:35:30.999Z</time></trkpt><trkpt lat="36.596224802570624" lon="-5.139809984531372"><ele>925.0</ele><time>2026-04-25T09:35:31.999Z</time></trkpt><trkpt lat="36.59620576927465" lon="-5.139891079906579"><ele>925.0</ele><time>2026-04-25T09:35:32.999Z</time></trkpt><trkpt lat="36.59617928345846" lon="-5.140032192887015"><ele>924.9999999999999</ele><time>2026-04-25T09:35:33.999Z</time></trkpt><trkpt lat="36.59616334481923" lon="-5.140140025651474"><ele>925.0</ele><time>2026-04-25T09:35:34.999Z</time></trkpt><trkpt lat="36.59614776317872" lon="-5.140245443235697"><ele>924.8333333333333</ele><time>2026-04-25T09:35:35.999Z</time></trkpt><trkpt lat="36.59613156519785" lon="-5.14035502933079"><ele>924.6666666666666</ele><time>2026-04-25T09:35:36.999Z</time></trkpt><trkpt lat="36.59611562812201" lon="-5.1404419652258495"><ele>924.5</ele><time>2026-04-25T09:35:37.999Z</time></trkpt><trkpt lat="36.59610040426311" lon="-5.140529541766732"><ele>924.3333333333333</ele><time>2026-04-25T09:35:38.999Z</time></trkpt><trkpt lat="36.5960854983402" lon="-5.140619529868063"><ele>924.1666666666666</ele><time>2026-04-25T09:35:39.999Z</time></trkpt><trkpt lat="36.59607280181616" lon="-5.140723983019943"><ele>924.0</ele><time>2026-04-25T09:35:41.999Z</time></trkpt><trkpt lat="36.596457435309425" lon="-5.140759010442546"><ele>924.0</ele><time>2026-04-25T09:35:50Z</time></trkpt><trkpt lat="36.596522115033785" lon="-5.140806443350171"><ele>924.0</ele><time>2026-04-25T09:36:01Z</time></trkpt><trkpt lat="36.59651495497751" lon="-5.140957338257857"><ele>924.0</ele><time>2026-04-25T09:36:18Z</time></trkpt><trkpt lat="36.596534248073056" lon="-5.141055668484155"><ele>924.0</ele><time>2026-04-25T09:36:19Z</time></trkpt><trkpt lat="36.596548711126665" lon="-5.141145875940532"><ele>924.0</ele><time>2026-04-25T09:36:20Z</time></trkpt><trkpt lat="36.596556377299095" lon="-5.141225879818174"><ele>924.0</ele><time>2026-04-25T09:36:21Z</time></trkpt><trkpt lat="36.59657358321498" lon="-5.141302846140734"><ele>924.0</ele><time>2026-04-25T09:36:22Z</time></trkpt><trkpt lat="36.596582143219734" lon="-5.141405504779636"><ele>924.0</ele><time>2026-04-25T09:36:23Z</time></trkpt><trkpt lat="36.5965809713947" lon="-5.141533636412465"><ele>924.0</ele><time>2026-04-25T09:36:24Z</time></trkpt><trkpt lat="36.59658247575124" lon="-5.141641871252636"><ele>924.0</ele><time>2026-04-25T09:36:25Z</time></trkpt><trkpt lat="36.59657724930175" lon="-5.141726270305097"><ele>924.0</ele><time>2026-04-25T09:36:26Z</time></trkpt><trkpt lat="36.59656765773942" lon="-5.141846473788528"><ele>924.0</ele><time>2026-04-25T09:36:27Z</time></trkpt><trkpt lat="36.596555633783275" lon="-5.141954573957593"><ele>924.5</ele><time>2026-04-25T09:36:28Z</time></trkpt><trkpt lat="36.59652766917647" lon="-5.14203469288283"><ele>925.0</ele><time>2026-04-25T09:36:29Z</time></trkpt><trkpt lat="36.59647751276014" lon="-5.142164655815025"><ele>925.5</ele><time>2026-04-25T09:36:31Z</time></trkpt><trkpt lat="36.59642502903939" lon="-5.142238667121604"><ele>926.0</ele><time>2026-04-25T09:36:34Z</time></trkpt><trkpt lat="36.596385158280114" lon="-5.142302871192224"><ele>926.5</ele><time>2026-04-25T09:36:36Z</time></trkpt><trkpt lat="36.59635092727091" lon="-5.142414900672997"><ele>927.0</ele><time>2026-04-25T09:39:35.999Z</time></trkpt><trkpt lat="36.59631722201463" lon="-5.142561691692072"><ele>927.5</ele><time>2026-04-25T09:39:37.999Z</time></trkpt><trkpt lat="36.59629206338269" lon="-5.142641857839905"><ele>928.0</ele><time>2026-04-25T09:39:38.999Z</time></trkpt><trkpt lat="36.59625950145149" lon="-5.142723588074804"><ele>928.5</ele><time>2026-04-25T09:39:39.999Z</time></trkpt><trkpt lat="36.59622366099984" lon="-5.142805931127107"><ele>929.0</ele><time>2026-04-25T09:39:40.999Z</time></trkpt><trkpt lat="36.596183346451326" lon="-5.142896782724906"><ele>929.5</ele><time>2026-04-25T09:39:41.999Z</time></trkpt><trkpt lat="36.59614497926681" lon="-5.1429906068389055"><ele>930.0</ele><time>2026-04-25T09:39:42.999Z</time></trkpt><trkpt lat="36.59611472789582" lon="-5.143070493159267"><ele>930.0</ele><time>2026-04-25T09:39:43.999Z</time></trkpt><trkpt lat="36.59607775102257" lon="-5.1431506332177355"><ele>930.0</ele><time>2026-04-25T09:39:44.999Z</time></trkpt><trkpt lat="36.59604209639423" lon="-5.143216359198726"><ele>930.0</ele><time>2026-04-25T09:39:45.999Z</time></trkpt><trkpt lat="36.59599648540955" lon="-5.143287518815687"><ele>930.0</ele><time>2026-04-25T09:39:46.999Z</time></trkpt><trkpt lat="36.59594652449774" lon="-5.143353880085528"><ele>930.0</ele><time>2026-04-25T09:39:47.999Z</time></trkpt><trkpt lat="36.59589349200493" lon="-5.14340712857666"><ele>930.0</ele><time>2026-04-25T09:39:48.999Z</time></trkpt><trkpt lat="36.5957949154586" lon="-5.143493375251696"><ele>932.8333333333334</ele><time>2026-04-25T09:39:50.999Z</time></trkpt><trkpt lat="36.59574600181169" lon="-5.14355136896645"><ele>935.6666666666667</ele><time>2026-04-25T09:39:51.999Z</time></trkpt><trkpt lat="36.59569179197754" lon="-5.143690415971395"><ele>938.5</ele><time>2026-04-25T09:39:53.999Z</time></trkpt><trkpt lat="36.595686815023456" lon="-5.143769323469115"><ele>941.3333333333334</ele><time>2026-04-25T09:39:55.001Z</time></trkpt><trkpt lat="36.595690922851794" lon="-5.143858383398804"><ele>944.1666666666667</ele><time>2026-04-25T09:39:56.001Z</time></trkpt><trkpt lat="36.59569430657505" lon="-5.143948256305066"><ele>947.0</ele><time>2026-04-25T09:39:57.001Z</time></trkpt><trkpt lat="36.59569641272765" lon="-5.144038029262659"><ele>948.5000000000001</ele><time>2026-04-25T09:39:58.001Z</time></trkpt><trkpt lat="36.59570386819196" lon="-5.144185605661996"><ele>950.0</ele><time>2026-04-25T09:40:00.001Z</time></trkpt><trkpt lat="36.59571051092685" lon="-5.144277330756614"><ele>951.5</ele><time>2026-04-25T09:40:01.001Z</time></trkpt><trkpt lat="36.59571675116398" lon="-5.144379108257891"><ele>953.0</ele><time>2026-04-25T09:40:02.001Z</time></trkpt><trkpt lat="36.59572254300369" lon="-5.144481778597219"><ele>954.5000000000001</ele><time>2026-04-25T09:40:03.001Z</time></trkpt><trkpt lat="36.5957293422945" lon="-5.144578622591377"><ele>956.0</ele><time>2026-04-25T09:40:04.001Z</time></trkpt><trkpt lat="36.59573797682467" lon="-5.144664270082119"><ele>956.0000000000001</ele><time>2026-04-25T09:40:05.001Z</time></trkpt><trkpt lat="36.595749714122775" lon="-5.144753648896119"><ele>956.0</ele><time>2026-04-25T09:40:06.001Z</time></trkpt><trkpt lat="36.59576919263189" lon="-5.144854334369997"><ele>956.0</ele><time>2026-04-25T09:40:07.001Z</time></trkpt><trkpt lat="36.59578469006101" lon="-5.1449533538132926"><ele>956.0</ele><time>2026-04-25T09:40:08.001Z</time></trkpt><trkpt lat="36.595790397937584" lon="-5.145054248263713"><ele>956.0000000000001</ele><time>2026-04-25T09:40:09Z</time></trkpt><trkpt lat="36.595780337327376" lon="-5.1451537253988455"><ele>956.0</ele><time>2026-04-25T09:40:10Z</time></trkpt><trkpt lat="36.59577240664733" lon="-5.145248169399962"><ele>956.8333333333334</ele><time>2026-04-25T09:40:11Z</time></trkpt><trkpt lat="36.59575936182235" lon="-5.145349022986912"><ele>957.6666666666667</ele><time>2026-04-25T09:40:12Z</time></trkpt><trkpt lat="36.59574837680658" lon="-5.1454475021914305"><ele>958.5</ele><time>2026-04-25T09:40:13Z</time></trkpt><trkpt lat="36.595737702314274" lon="-5.145539847486294"><ele>959.3333333333333</ele><time>2026-04-25T09:40:14Z</time></trkpt><trkpt lat="36.595720894108965" lon="-5.145630519831682"><ele>960.1666666666666</ele><time>2026-04-25T09:40:15Z</time></trkpt><trkpt lat="36.59569273834513" lon="-5.145710137111533"><ele>961.0</ele><time>2026-04-25T09:40:16Z</time></trkpt><trkpt lat="36.59561712450466" lon="-5.145833325309741"><ele>961.1666666666666</ele><time>2026-04-25T09:40:18Z</time></trkpt><trkpt lat="36.59552852907053" lon="-5.1459617144144865"><ele>961.3333333333333</ele><time>2026-04-25T09:40:20Z</time></trkpt><trkpt lat="36.595474438400394" lon="-5.1460246193365835"><ele>961.5</ele><time>2026-04-25T09:40:21Z</time></trkpt><trkpt lat="36.595425412462745" lon="-5.146085501226987"><ele>961.6666666666667</ele><time>2026-04-25T09:40:22Z</time></trkpt><trkpt lat="36.59537262630245" lon="-5.146147559969719"><ele>961.8333333333334</ele><time>2026-04-25T09:40:23Z</time></trkpt><trkpt lat="36.595326914888034" lon="-5.146209420548715"><ele>962.0</ele><time>2026-04-25T09:40:24Z</time></trkpt><trkpt lat="36.59524991907866" lon="-5.146320547536868"><ele>962.0000000000001</ele><time>2026-04-25T09:40:26Z</time></trkpt><trkpt lat="36.59520893386914" lon="-5.146474707559391"><ele>962.0</ele><time>2026-04-25T09:40:28Z</time></trkpt><trkpt lat="36.595187190383136" lon="-5.146566008746783"><ele>962.0</ele><time>2026-04-25T09:40:29Z</time></trkpt><trkpt lat="36.59516221920514" lon="-5.146655404210277"><ele>962.0</ele><time>2026-04-25T09:40:30Z</time></trkpt><trkpt lat="36.59513144557158" lon="-5.146736603991963"><ele>962.0000000000001</ele><time>2026-04-25T09:40:31Z</time></trkpt><trkpt lat="36.595099101367786" lon="-5.146816463396197"><ele>962.0</ele><time>2026-04-25T09:40:32Z</time></trkpt><trkpt lat="36.595065933119656" lon="-5.146908712120836"><ele>964.4285714285713</ele><time>2026-04-25T09:40:33Z</time></trkpt><trkpt lat="36.595039930634904" lon="-5.147003238024344"><ele>966.8571428571429</ele><time>2026-04-25T09:40:34Z</time></trkpt><trkpt lat="36.595015693779935" lon="-5.147093876285212"><ele>969.2857142857142</ele><time>2026-04-25T09:40:35Z</time></trkpt><trkpt lat="36.594991190751415" lon="-5.147181526742376"><ele>971.7142857142857</ele><time>2026-04-25T09:40:36Z</time></trkpt><trkpt lat="36.59498150217339" lon="-5.147261112700274"><ele>974.1428571428571</ele><time>2026-04-25T09:40:37Z</time></trkpt><trkpt lat="36.59497637686698" lon="-5.1473451160189745"><ele>976.5714285714286</ele><time>2026-04-25T09:40:38Z</time></trkpt><trkpt lat="36.594989437465195" lon="-5.14743094739416"><ele>979.0</ele><time>2026-04-25T09:40:39Z</time></trkpt><trkpt lat="36.59501297508231" lon="-5.147507167117055"><ele>981.8333333333333</ele><time>2026-04-25T09:40:40Z</time></trkpt><trkpt lat="36.595030223115124" lon="-5.147583577714077"><ele>984.6666666666666</ele><time>2026-04-25T09:40:41Z</time></trkpt><trkpt lat="36.5950905559793" lon="-5.147730400003474"><ele>987.5</ele><time>2026-04-25T09:40:43Z</time></trkpt><trkpt lat="36.595128696251685" lon="-5.147793979256694"><ele>990.3333333333333</ele><time>2026-04-25T09:40:44Z</time></trkpt><trkpt lat="36.59520406905277" lon="-5.1479004900232574"><ele>993.1666666666666</ele><time>2026-04-25T09:40:46Z</time></trkpt><trkpt lat="36.59524861638835" lon="-5.147970105700906"><ele>996.0</ele><time>2026-04-25T09:40:47Z</time></trkpt><trkpt lat="36.59528925956724" lon="-5.148033488837541"><ele>996.0</ele><time>2026-04-25T09:40:48Z</time></trkpt><trkpt lat="36.59532803737597" lon="-5.148102148348114"><ele>996.0</ele><time>2026-04-25T09:40:49Z</time></trkpt><trkpt lat="36.595362798478874" lon="-5.148178484645846"><ele>996.0</ele><time>2026-04-25T09:40:50Z</time></trkpt><trkpt lat="36.59540623600659" lon="-5.148259324338461"><ele>996.0</ele><time>2026-04-25T09:40:51Z</time></trkpt><trkpt lat="36.59544223627229" lon="-5.148337626852543"><ele>996.0</ele><time>2026-04-25T09:40:51.999Z</time></trkpt><trkpt lat="36.59544533454724" lon="-5.148479668325188"><ele>996.0</ele><time>2026-04-25T09:40:53.999Z</time></trkpt><trkpt lat="36.59537157283454" lon="-5.148574338099994"><ele>998.8333333333334</ele><time>2026-04-25T09:40:55.999Z</time></trkpt><trkpt lat="36.595304933882616" lon="-5.148623493913266"><ele>1001.6666666666667</ele><time>2026-04-25T09:41:25.999Z</time></trkpt><trkpt lat="36.595220662744964" lon="-5.1487125261443145"><ele>1004.5</ele><time>2026-04-25T09:41:27.999Z</time></trkpt><trkpt lat="36.595168343356214" lon="-5.1487827806986415"><ele>1007.3333333333334</ele><time>2026-04-25T09:41:28.999Z</time></trkpt><trkpt lat="36.59511754236646" lon="-5.148851025893627"><ele>1010.1666666666667</ele><time>2026-04-25T09:41:29.999Z</time></trkpt><trkpt lat="36.59507250256828" lon="-5.148918848595446"><ele>1013.0</ele><time>2026-04-25T09:41:30.999Z</time></trkpt><trkpt lat="36.59501952712006" lon="-5.14899062966372"><ele>1011.5714285714287</ele><time>2026-04-25T09:41:31.999Z</time></trkpt><trkpt lat="36.59497493906349" lon="-5.149049042562956"><ele>1010.1428571428572</ele><time>2026-04-25T09:41:32.999Z</time></trkpt><trkpt lat="36.59493090802944" lon="-5.149118189493677"><ele>1008.7142857142858</ele><time>2026-04-25T09:41:33.999Z</time></trkpt><trkpt lat="36.59488114816978" lon="-5.149178443090041"><ele>1007.2857142857142</ele><time>2026-04-25T09:41:34.999Z</time></trkpt><trkpt lat="36.59483070622309" lon="-5.149238644468822"><ele>1005.8571428571428</ele><time>2026-04-25T09:41:35.999Z</time></trkpt><trkpt lat="36.594774419283425" lon="-5.149293495009547"><ele>1004.4285714285713</ele><time>2026-04-25T09:41:36.999Z</time></trkpt><trkpt lat="36.594719816861264" lon="-5.149360994162992"><ele>1003.0</ele><time>2026-04-25T09:41:37.999Z</time></trkpt><trkpt lat="36.59466808488559" lon="-5.149412353828762"><ele>1003.0</ele><time>2026-04-25T09:41:38.999Z</time></trkpt><trkpt lat="36.5946135583384" lon="-5.149466319500321"><ele>1002.9999999999999</ele><time>2026-04-25T09:41:39.999Z</time></trkpt><trkpt lat="36.59456306988997" lon="-5.149523209485534"><ele>1003.0</ele><time>2026-04-25T09:41:40.999Z</time></trkpt><trkpt lat="36.59451015086618" lon="-5.149586255475639"><ele>1003.0</ele><time>2026-04-25T09:41:41.999Z</time></trkpt><trkpt lat="36.59445784783568" lon="-5.149651381438426"><ele>1002.9999999999999</ele><time>2026-04-25T09:41:42.999Z</time></trkpt><trkpt lat="36.59441122078765" lon="-5.149716813924311"><ele>1003.0</ele><time>2026-04-25T09:41:43.999Z</time></trkpt><trkpt lat="36.594367959729965" lon="-5.149788441614974"><ele>1003.0</ele><time>2026-04-25T09:41:44.999Z</time></trkpt><trkpt lat="36.594326245128705" lon="-5.149847527943132"><ele>1004.5</ele><time>2026-04-25T09:41:45.999Z</time></trkpt><trkpt lat="36.594270449735426" lon="-5.149969675220973"><ele>1006.0</ele><time>2026-04-25T09:41:47.999Z</time></trkpt><trkpt lat="36.5942670124132" lon="-5.150104685457975"><ele>1007.5</ele><time>2026-04-25T09:41:49.999Z</time></trkpt><trkpt lat="36.594262417299575" lon="-5.150244815644911"><ele>1009.0</ele><time>2026-04-25T09:41:51.998Z</time></trkpt><trkpt lat="36.594234583339045" lon="-5.150407325918361"><ele>1009.0</ele><time>2026-04-25T09:41:53.998Z</time></trkpt><trkpt lat="36.594223002088235" lon="-5.1505013827134425"><ele>1009.0</ele><time>2026-04-25T09:41:54.998Z</time></trkpt><trkpt lat="36.59421557067431" lon="-5.150579711367229"><ele>1009.0</ele><time>2026-04-25T09:41:55.998Z</time></trkpt><trkpt lat="36.59420209431322" lon="-5.150668017184676"><ele>1009.0</ele><time>2026-04-25T09:41:56.998Z</time></trkpt><trkpt lat="36.5941768316574" lon="-5.15076554334506"><ele>1009.0</ele><time>2026-04-25T09:41:57.998Z</time></trkpt><trkpt lat="36.59414952674541" lon="-5.15084392610698"><ele>1009.0</ele><time>2026-04-25T09:41:58.998Z</time></trkpt><trkpt lat="36.59413147455144" lon="-5.150932363683001"><ele>1009.0</ele><time>2026-04-25T09:41:59.998Z</time></trkpt><trkpt lat="36.594104948125576" lon="-5.151023581004088"><ele>1007.3333333333333</ele><time>2026-04-25T09:42:01Z</time></trkpt><trkpt lat="36.59407663523496" lon="-5.151114932260036"><ele>1005.6666666666666</ele><time>2026-04-25T09:42:02Z</time></trkpt><trkpt lat="36.594055482939744" lon="-5.151190397102819"><ele>1004.0</ele><time>2026-04-25T09:42:03Z</time></trkpt><trkpt lat="36.5939968777372" lon="-5.151316459096994"><ele>1002.3333333333333</ele><time>2026-04-25T09:42:05Z</time></trkpt><trkpt lat="36.59395567523576" lon="-5.151379229246446"><ele>1000.6666666666666</ele><time>2026-04-25T09:42:06Z</time></trkpt><trkpt lat="36.593907140666595" lon="-5.151443084533579"><ele>999.0</ele><time>2026-04-25T09:42:07Z</time></trkpt><trkpt lat="36.593856305537415" lon="-5.151493180534116"><ele>998.8571428571429</ele><time>2026-04-25T09:42:08Z</time></trkpt><trkpt lat="36.59379517710322" lon="-5.1515475165270965"><ele>998.7142857142858</ele><time>2026-04-25T09:42:09Z</time></trkpt><trkpt lat="36.593734995017705" lon="-5.1515953749153125"><ele>998.5714285714287</ele><time>2026-04-25T09:42:10Z</time></trkpt><trkpt lat="36.593669485308624" lon="-5.151651095668837"><ele>998.4285714285716</ele><time>2026-04-25T09:42:11Z</time></trkpt><trkpt lat="36.59361751763826" lon="-5.151698446311066"><ele>998.2857142857143</ele><time>2026-04-25T09:42:12Z</time></trkpt><trkpt lat="36.59357465530174" lon="-5.151765616885942"><ele>998.1428571428573</ele><time>2026-04-25T09:42:13Z</time></trkpt><trkpt lat="36.59354226556664" lon="-5.151845196994249"><ele>998.0000000000001</ele><time>2026-04-25T09:42:14Z</time></trkpt><trkpt lat="36.59351227400757" lon="-5.151935493854249"><ele>998.0000000000001</ele><time>2026-04-25T09:42:15Z</time></trkpt><trkpt lat="36.59348059121679" lon="-5.152017114843224"><ele>998.0</ele><time>2026-04-25T09:42:16Z</time></trkpt><trkpt lat="36.593446230984654" lon="-5.1521053417141855"><ele>998.0000000000001</ele><time>2026-04-25T09:42:17Z</time></trkpt><trkpt lat="36.59340910974335" lon="-5.152193869400633"><ele>998.0000000000001</ele><time>2026-04-25T09:42:18Z</time></trkpt><trkpt lat="36.59337293190226" lon="-5.15227678411247"><ele>998.0</ele><time>2026-04-25T09:42:19Z</time></trkpt><trkpt lat="36.593334959624684" lon="-5.152343794965085"><ele>998.0000000000001</ele><time>2026-04-25T09:42:20Z</time></trkpt><trkpt lat="36.593292945916026" lon="-5.152403723895687"><ele>998.0000000000001</ele><time>2026-04-25T09:42:21Z</time></trkpt><trkpt lat="36.59324469474423" lon="-5.1524590191906015"><ele>998.5999999999999</ele><time>2026-04-25T09:42:22Z</time></trkpt><trkpt lat="36.59314295641181" lon="-5.152549921204619"><ele>999.1999999999999</ele><time>2026-04-25T09:42:24Z</time></trkpt><trkpt lat="36.59309352349461" lon="-5.152599944899942"><ele>999.8</ele><time>2026-04-25T09:42:25Z</time></trkpt><trkpt lat="36.59299655838913" lon="-5.152695824034791"><ele>1000.4</ele><time>2026-04-25T09:42:27Z</time></trkpt><trkpt lat="36.59291255713786" lon="-5.1527621482510915"><ele>1001.0</ele><time>2026-04-25T09:42:29Z</time></trkpt><trkpt lat="36.59286408937834" lon="-5.152830767683155"><ele>998.1999999999999</ele><time>2026-04-25T09:43:06.999Z</time></trkpt><trkpt lat="36.592789111423166" lon="-5.152929456212095"><ele>995.3999999999999</ele><time>2026-04-25T09:43:08.999Z</time></trkpt><trkpt lat="36.59274947940817" lon="-5.1529914229601905"><ele>992.6</ele><time>2026-04-25T09:43:09.999Z</time></trkpt><trkpt lat="36.59267591807619" lon="-5.153087012395317"><ele>989.8</ele><time>2026-04-25T09:43:11.999Z</time></trkpt><trkpt lat="36.59258445819864" lon="-5.153153195818834"><ele>987.0</ele><time>2026-04-25T09:43:13.999Z</time></trkpt><trkpt lat="36.592472628728444" lon="-5.153184313892306"><ele>987.0</ele><time>2026-04-25T09:43:15.999Z</time></trkpt><trkpt lat="36.59235668973135" lon="-5.153183639077734"><ele>987.0</ele><time>2026-04-25T09:43:17.999Z</time></trkpt><trkpt lat="36.59229339231934" lon="-5.153168221784631"><ele>987.0</ele><time>2026-04-25T09:43:18.999Z</time></trkpt><trkpt lat="36.592166619629495" lon="-5.153131335128774"><ele>987.0</ele><time>2026-04-25T09:43:20.999Z</time></trkpt><trkpt lat="36.59210092178397" lon="-5.153124677099045"><ele>987.0</ele><time>2026-04-25T09:43:21.999Z</time></trkpt><trkpt lat="36.59199055952277" lon="-5.153151413634246"><ele>984.3333333333334</ele><time>2026-04-25T09:43:23.999Z</time></trkpt><trkpt lat="36.59191713237425" lon="-5.153164255657925"><ele>981.6666666666667</ele><time>2026-04-25T09:43:25.999Z</time></trkpt><trkpt lat="36.591838465940455" lon="-5.153188793697869"><ele>979.0</ele><time>2026-04-25T09:43:28.999Z</time></trkpt><trkpt lat="36.59176535861841" lon="-5.153248497794668"><ele>976.3333333333334</ele><time>2026-04-25T09:43:30.999Z</time></trkpt><trkpt lat="36.59166368625006" lon="-5.153282423698616"><ele>973.6666666666667</ele><time>2026-04-25T09:43:32.999Z</time></trkpt><trkpt lat="36.591594226180646" lon="-5.153283905495928"><ele>971.0</ele><time>2026-04-25T09:43:35.999Z</time></trkpt><trkpt lat="36.59148916951449" lon="-5.153230743519884"><ele>971.0</ele><time>2026-04-25T09:43:45.998Z</time></trkpt><trkpt lat="36.59142549305236" lon="-5.153197763460706"><ele>970.9999999999999</ele><time>2026-04-25T09:43:46.998Z</time></trkpt><trkpt lat="36.59131390192757" lon="-5.153143271523629"><ele>970.9999999999999</ele><time>2026-04-25T09:43:48.998Z</time></trkpt><trkpt lat="36.59120142384368" lon="-5.153088215265435"><ele>971.0</ele><time>2026-04-25T09:43:50.998Z</time></trkpt><trkpt lat="36.59109067738679" lon="-5.15306714478866"><ele>971.0</ele><time>2026-04-25T09:43:52.998Z</time></trkpt><trkpt lat="36.59100126025919" lon="-5.153109451509564"><ele>972.2857142857143</ele><time>2026-04-25T09:43:54.998Z</time></trkpt><trkpt lat="36.59094976560288" lon="-5.1531603815845495"><ele>973.5714285714287</ele><time>2026-04-25T09:43:55.998Z</time></trkpt><trkpt lat="36.59090260784813" lon="-5.1532186257413075"><ele>974.8571428571429</ele><time>2026-04-25T09:43:56.998Z</time></trkpt><trkpt lat="36.590796269825006" lon="-5.153287978986679"><ele>976.1428571428571</ele><time>2026-04-25T09:43:58.998Z</time></trkpt><trkpt lat="36.59073258069503" lon="-5.153291939333297"><ele>977.4285714285714</ele><time>2026-04-25T09:43:59.998Z</time></trkpt><trkpt lat="36.590667621933186" lon="-5.153288212435401"><ele>978.7142857142858</ele><time>2026-04-25T09:44:00.998Z</time></trkpt><trkpt lat="36.590600875646466" lon="-5.153278684544182"><ele>980.0</ele><time>2026-04-25T09:44:01.998Z</time></trkpt><trkpt lat="36.59053357584649" lon="-5.153269944390277"><ele>980.7142857142858</ele><time>2026-04-25T09:44:02.998Z</time></trkpt><trkpt lat="36.59046458063027" lon="-5.153264717960528"><ele>981.4285714285714</ele><time>2026-04-25T09:44:03.998Z</time></trkpt><trkpt lat="36.59039572042502" lon="-5.153255819479771"><ele>982.1428571428571</ele><time>2026-04-25T09:44:04.998Z</time></trkpt><trkpt lat="36.59032605992065" lon="-5.153241727099703"><ele>982.8571428571429</ele><time>2026-04-25T09:44:05.998Z</time></trkpt><trkpt lat="36.59025769695434" lon="-5.153229025242045"><ele>983.5714285714287</ele><time>2026-04-25T09:44:07Z</time></trkpt><trkpt lat="36.590190991016016" lon="-5.153214851381662"><ele>984.2857142857143</ele><time>2026-04-25T09:44:08Z</time></trkpt><trkpt lat="36.59012084923629" lon="-5.153203039427559"><ele>985.0</ele><time>2026-04-25T09:44:09Z</time></trkpt><trkpt lat="36.59005430720202" lon="-5.153210743794607"><ele>990.4999999999999</ele><time>2026-04-25T09:44:10Z</time></trkpt><trkpt lat="36.589962890195565" lon="-5.153268525972354"><ele>996.0</ele><time>2026-04-25T09:44:12Z</time></trkpt><trkpt lat="36.589897342219054" lon="-5.15335329203923"><ele>1001.5</ele><time>2026-04-25T09:44:14Z</time></trkpt><trkpt lat="36.589851895532725" lon="-5.153409219153353"><ele>1007.0</ele><time>2026-04-25T09:44:16Z</time></trkpt><trkpt lat="36.5897895956223" lon="-5.15347332507222"><ele>1012.4999999999999</ele><time>2026-04-25T09:44:19Z</time></trkpt><trkpt lat="36.58973738343821" lon="-5.153557508929532"><ele>1018.0</ele><time>2026-04-25T09:44:21Z</time></trkpt><trkpt lat="36.58969548852785" lon="-5.1537030194365485"><ele>1017.9999999999999</ele><time>2026-04-25T09:44:23Z</time></trkpt><trkpt lat="36.58968835062341" lon="-5.153786541826835"><ele>1018.0</ele><time>2026-04-25T09:44:24Z</time></trkpt><trkpt lat="36.589675330634186" lon="-5.153871687646838"><ele>1017.9999999999999</ele><time>2026-04-25T09:44:25Z</time></trkpt><trkpt lat="36.589663482995164" lon="-5.153960077724674"><ele>1017.9999999999999</ele><time>2026-04-25T09:44:26Z</time></trkpt><trkpt lat="36.58963570990143" lon="-5.154057651213825"><ele>1018.0</ele><time>2026-04-25T09:44:27Z</time></trkpt><trkpt lat="36.58960354382225" lon="-5.15414454530615"><ele>1017.9999999999999</ele><time>2026-04-25T09:44:28Z</time></trkpt><trkpt lat="36.58957528342024" lon="-5.154231948623132"><ele>1017.9999999999999</ele><time>2026-04-25T09:44:29Z</time></trkpt><trkpt lat="36.58955235453556" lon="-5.154321877547537"><ele>1016.5714285714284</ele><time>2026-04-25T09:44:30Z</time></trkpt><trkpt lat="36.58952684802194" lon="-5.154407498549258"><ele>1015.1428571428571</ele><time>2026-04-25T09:44:31Z</time></trkpt><trkpt lat="36.58949335197568" lon="-5.154490400326139"><ele>1013.7142857142857</ele><time>2026-04-25T09:44:32Z</time></trkpt><trkpt lat="36.58945062850484" lon="-5.154563394418393"><ele>1012.2857142857142</ele><time>2026-04-25T09:44:33Z</time></trkpt><trkpt lat="36.589412758516744" lon="-5.154646353866184"><ele>1010.8571428571429</ele><time>2026-04-25T09:44:34Z</time></trkpt><trkpt lat="36.589361214581736" lon="-5.154726419134642"><ele>1009.4285714285714</ele><time>2026-04-25T09:44:35Z</time></trkpt><trkpt lat="36.58930716256089" lon="-5.1547806019748705"><ele>1008.0</ele><time>2026-04-25T09:44:36Z</time></trkpt><trkpt lat="36.589249429695364" lon="-5.154836860871409"><ele>1011.8571428571429</ele><time>2026-04-25T09:44:37Z</time></trkpt><trkpt lat="36.58920635111562" lon="-5.154917710759796"><ele>1015.7142857142858</ele><time>2026-04-25T09:44:38Z</time></trkpt><trkpt lat="36.58916653690712" lon="-5.155003993439839"><ele>1019.5714285714286</ele><time>2026-04-25T09:44:39Z</time></trkpt><trkpt lat="36.58912812343868" lon="-5.155081127191921"><ele>1023.4285714285714</ele><time>2026-04-25T09:44:40Z</time></trkpt><trkpt lat="36.589080023936326" lon="-5.155147492875968"><ele>1027.2857142857142</ele><time>2026-04-25T09:44:41Z</time></trkpt><trkpt lat="36.589029040869065" lon="-5.155204779950747"><ele>1031.142857142857</ele><time>2026-04-25T09:44:42Z</time></trkpt><trkpt lat="36.58897101596684" lon="-5.155260019899881"><ele>1035.0</ele><time>2026-04-25T09:44:43Z</time></trkpt><trkpt lat="36.58891206039105" lon="-5.155313709224142"><ele>1035.0</ele><time>2026-04-25T09:44:44Z</time></trkpt><trkpt lat="36.588853851104716" lon="-5.155358280812554"><ele>1035.0</ele><time>2026-04-25T09:44:45Z</time></trkpt><trkpt lat="36.58879209661615" lon="-5.155393322504351"><ele>1035.0</ele><time>2026-04-25T09:44:46Z</time></trkpt><trkpt lat="36.5887285640007" lon="-5.155431471444284"><ele>1035.0</ele><time>2026-04-25T09:44:47Z</time></trkpt><trkpt lat="36.58866657214378" lon="-5.155477411669615"><ele>1035.0</ele><time>2026-04-25T09:44:47.999Z</time></trkpt><trkpt lat="36.588609641652646" lon="-5.155521782270701"><ele>1035.0</ele><time>2026-04-25T09:44:48.999Z</time></trkpt><trkpt lat="36.588536795271715" lon="-5.155616341521039"><ele>1033.2</ele><time>2026-04-25T09:44:50.999Z</time></trkpt><trkpt lat="36.58855114763937" lon="-5.155772682644363"><ele>1031.4</ele><time>2026-04-25T09:44:52.999Z</time></trkpt><trkpt lat="36.58857819717749" lon="-5.155924806790394"><ele>1029.6</ele><time>2026-04-25T09:44:54.999Z</time></trkpt><trkpt lat="36.58861963290244" lon="-5.156054025057584"><ele>1027.8</ele><time>2026-04-25T09:44:56.999Z</time></trkpt><trkpt lat="36.58864214241028" lon="-5.156127350089721"><ele>1026.0</ele><time>2026-04-25T09:44:57.999Z</time></trkpt><trkpt lat="36.58869427215737" lon="-5.156261739501116"><ele>1027.6</ele><time>2026-04-25T09:44:59.999Z</time></trkpt><trkpt lat="36.588732627420015" lon="-5.156376265281081"><ele>1029.1999999999998</ele><time>2026-04-25T09:45:01.999Z</time></trkpt><trkpt lat="36.58872700060446" lon="-5.156505204645617"><ele>1030.8000000000002</ele><time>2026-04-25T09:45:03.999Z</time></trkpt><trkpt lat="36.58865554519156" lon="-5.156610779609394"><ele>1032.4</ele><time>2026-04-25T09:45:05.999Z</time></trkpt><trkpt lat="36.58855549980449" lon="-5.1567140994212295"><ele>1034.0</ele><time>2026-04-25T09:45:07.999Z</time></trkpt><trkpt lat="36.58851056302461" lon="-5.156778078385636"><ele>1034.0</ele><time>2026-04-25T09:45:08.999Z</time></trkpt><trkpt lat="36.58845414231192" lon="-5.1569074028129265"><ele>1034.0</ele><time>2026-04-25T09:45:10.999Z</time></trkpt><trkpt lat="36.588429079492904" lon="-5.157063630294148"><ele>1034.0</ele><time>2026-04-25T09:45:12.999Z</time></trkpt><trkpt lat="36.588426535514245" lon="-5.157149223068355"><ele>1034.0</ele><time>2026-04-25T09:45:13.999Z</time></trkpt><trkpt lat="36.58842151224193" lon="-5.157237697203948"><ele>1034.0</ele><time>2026-04-25T09:45:14.999Z</time></trkpt><trkpt lat="36.58840911299552" lon="-5.1574038663431265"><ele>1036.0</ele><time>2026-04-25T09:45:16.999Z</time></trkpt><trkpt lat="36.58840147205785" lon="-5.157485176996234"><ele>1038.0</ele><time>2026-04-25T09:45:17.999Z</time></trkpt><trkpt lat="36.58838147284495" lon="-5.157567172032287"><ele>1040.0</ele><time>2026-04-25T09:45:18.999Z</time></trkpt><trkpt lat="36.58835001852293" lon="-5.157640629806451"><ele>1042.0</ele><time>2026-04-25T09:45:19.999Z</time></trkpt><trkpt lat="36.58831886476934" lon="-5.157710183909052"><ele>1044.0</ele><time>2026-04-25T09:45:20.999Z</time></trkpt><trkpt lat="36.5882834451202" lon="-5.157865756978594"><ele>1046.0</ele><time>2026-04-25T09:45:22.999Z</time></trkpt><trkpt lat="36.588274220203814" lon="-5.157946349803184"><ele>1046.0</ele><time>2026-04-25T09:45:23.999Z</time></trkpt><trkpt lat="36.58825232072781" lon="-5.158027776278705"><ele>1046.0</ele><time>2026-04-25T09:45:24.999Z</time></trkpt><trkpt lat="36.58822241936452" lon="-5.158106651581433"><ele>1046.0</ele><time>2026-04-25T09:45:25.999Z</time></trkpt><trkpt lat="36.58814429333469" lon="-5.158216591470164"><ele>1046.0</ele><time>2026-04-25T09:45:27.999Z</time></trkpt><trkpt lat="36.58803279858387" lon="-5.158292354560689"><ele>1046.0</ele><time>2026-04-25T09:45:29.999Z</time></trkpt><trkpt lat="36.58797149507896" lon="-5.158323079524867"><ele>1043.5</ele><time>2026-04-25T09:45:30.999Z</time></trkpt><trkpt lat="36.587903346023296" lon="-5.158354363345688"><ele>1041.0</ele><time>2026-04-25T09:45:31.999Z</time></trkpt><trkpt lat="36.58783527746709" lon="-5.158386186736741"><ele>1038.5</ele><time>2026-04-25T09:45:32.999Z</time></trkpt><trkpt lat="36.58777312004622" lon="-5.158422776060957"><ele>1036.0</ele><time>2026-04-25T09:45:33.999Z</time></trkpt><trkpt lat="36.58771289437779" lon="-5.158456558958371"><ele>1033.5</ele><time>2026-04-25T09:45:34.999Z</time></trkpt><trkpt lat="36.587624430037174" lon="-5.158534719920112"><ele>1031.0</ele><time>2026-04-25T09:45:36.999Z</time></trkpt><trkpt lat="36.58757527317119" lon="-5.1586494637237035"><ele>1031.0</ele><time>2026-04-25T09:45:38.999Z</time></trkpt><trkpt lat="36.58754447681334" lon="-5.158731848571885"><ele>1031.0</ele><time>2026-04-25T09:45:39.999Z</time></trkpt><trkpt lat="36.587513196004295" lon="-5.158804999317193"><ele>1031.0</ele><time>2026-04-25T09:45:40.999Z</time></trkpt><trkpt lat="36.587463140121365" lon="-5.158866317628236"><ele>1031.0</ele><time>2026-04-25T09:45:41.999Z</time></trkpt><trkpt lat="36.58736103019113" lon="-5.158942850380443"><ele>1031.0</ele><time>2026-04-25T09:45:43.999Z</time></trkpt><trkpt lat="36.58730792408912" lon="-5.158986410369983"><ele>1031.0</ele><time>2026-04-25T09:45:44.998Z</time></trkpt><trkpt lat="36.587208095828345" lon="-5.159045584049204"><ele>1034.0</ele><time>2026-04-25T09:45:46.998Z</time></trkpt><trkpt lat="36.58710265900093" lon="-5.159094618471021"><ele>1037.0</ele><time>2026-04-25T09:45:48.998Z</time></trkpt><trkpt lat="36.58698978557002" lon="-5.159135025786456"><ele>1040.0</ele><time>2026-04-25T09:45:50.998Z</time></trkpt><trkpt lat="36.586867297086066" lon="-5.159119207725705"><ele>1043.0</ele><time>2026-04-25T09:45:52.998Z</time></trkpt><trkpt lat="36.58674974185905" lon="-5.159112460230261"><ele>1043.0</ele><time>2026-04-25T09:45:54.998Z</time></trkpt><trkpt lat="36.58665722238017" lon="-5.159126249403531"><ele>1043.0</ele><time>2026-04-25T09:45:56.998Z</time></trkpt><trkpt lat="36.58659406506495" lon="-5.159215024697624"><ele>1043.0</ele><time>2026-04-25T09:46:11.998Z</time></trkpt><trkpt lat="36.5865205007594" lon="-5.159318215677052"><ele>1043.0</ele><time>2026-04-25T09:46:14Z</time></trkpt><trkpt lat="36.58643821209389" lon="-5.15940566229122"><ele>1043.0</ele><time>2026-04-25T09:46:16Z</time></trkpt><trkpt lat="36.58633842726216" lon="-5.159463297092649"><ele>1043.0</ele><time>2026-04-25T09:46:18Z</time></trkpt><trkpt lat="36.58627933917202" lon="-5.159491043844757"><ele>1043.0</ele><time>2026-04-25T09:46:19Z</time></trkpt><trkpt lat="36.586199427259345" lon="-5.159560614015104"><ele>1043.0</ele><time>2026-04-25T09:46:21Z</time></trkpt><trkpt lat="36.58614788902674" lon="-5.159661678450522"><ele>1043.0</ele><time>2026-04-25T09:46:24Z</time></trkpt><trkpt lat="36.58619920480504" lon="-5.159750510223135"><ele>1043.0</ele><time>2026-04-25T09:46:27Z</time></trkpt><trkpt lat="36.58621634576055" lon="-5.159672865023651"><ele>1043.0</ele><time>2026-04-25T09:46:55.999Z</time></trkpt><trkpt lat="36.586222101167316" lon="-5.159567261978001"><ele>1043.0</ele><time>2026-04-25T09:47:23.999Z</time></trkpt><trkpt lat="36.58625861771014" lon="-5.159499507482343"><ele>1043.0</ele><time>2026-04-25T09:47:25.999Z</time></trkpt><trkpt lat="36.586321478528006" lon="-5.159460132594355"><ele>1043.0</ele><time>2026-04-25T09:47:27.999Z</time></trkpt><trkpt lat="36.58639068430826" lon="-5.159429203399278"><ele>1043.0</ele><time>2026-04-25T09:47:29.999Z</time></trkpt><trkpt lat="36.58645295770734" lon="-5.159387284001973"><ele>1043.0</ele><time>2026-04-25T09:47:31.999Z</time></trkpt><trkpt lat="36.58650985004982" lon="-5.159322336644725"><ele>1043.0</ele><time>2026-04-25T09:47:33.999Z</time></trkpt><trkpt lat="36.586562162835556" lon="-5.159257370187231"><ele>1043.0</ele><time>2026-04-25T09:47:35.999Z</time></trkpt><trkpt lat="36.586620180547065" lon="-5.159192211572698"><ele>1043.0</ele><time>2026-04-25T09:47:38.999Z</time></trkpt><trkpt lat="36.58648130573024" lon="-5.159194393879404"><ele>1043.0</ele><time>2026-04-25T10:00:35.998Z</time></trkpt><trkpt lat="36.5864015283904" lon="-5.159227327616413"><ele>1043.0</ele><time>2026-04-25T10:00:37.998Z</time></trkpt><trkpt lat="36.586328400015056" lon="-5.159229043155747"><ele>1043.0</ele><time>2026-04-25T10:00:39.998Z</time></trkpt><trkpt lat="36.586263327100134" lon="-5.15921844655378"><ele>1043.0</ele><time>2026-04-25T10:00:41.998Z</time></trkpt><trkpt lat="36.58620187895523" lon="-5.159185615300892"><ele>1043.0</ele><time>2026-04-25T10:00:43.998Z</time></trkpt><trkpt lat="36.5861318764762" lon="-5.15914922545612"><ele>1041.0</ele><time>2026-04-25T10:00:45.998Z</time></trkpt><trkpt lat="36.58606969475102" lon="-5.159117962791398"><ele>1039.0</ele><time>2026-04-25T10:00:47.998Z</time></trkpt><trkpt lat="36.58600178793497" lon="-5.159075517230349"><ele>1037.0</ele><time>2026-04-25T10:00:49.998Z</time></trkpt><trkpt lat="36.58593690336351" lon="-5.1590384117714585"><ele>1035.0</ele><time>2026-04-25T10:00:51.998Z</time></trkpt><trkpt lat="36.58587057192168" lon="-5.159045568343879"><ele>1033.0</ele><time>2026-04-25T10:00:53.998Z</time></trkpt><trkpt lat="36.585807402763095" lon="-5.159084140873795"><ele>1031.0</ele><time>2026-04-25T10:00:56Z</time></trkpt><trkpt lat="36.58575764260038" lon="-5.15914271126876"><ele>1029.0</ele><time>2026-04-25T10:00:58Z</time></trkpt><trkpt lat="36.58573629996776" lon="-5.159224720517934"><ele>1029.0</ele><time>2026-04-25T10:01:02Z</time></trkpt><trkpt lat="36.58573800565732" lon="-5.159344336548323"><ele>1029.0</ele><time>2026-04-25T10:01:05Z</time></trkpt><trkpt lat="36.585720169448514" lon="-5.159432030236337"><ele>1029.0</ele><time>2026-04-25T10:01:07Z</time></trkpt><trkpt lat="36.58570270568779" lon="-5.159524262956128"><ele>1029.0</ele><time>2026-04-25T10:01:10Z</time></trkpt><trkpt lat="36.58567447320593" lon="-5.159606226154586"><ele>1029.0</ele><time>2026-04-25T10:02:36.999Z</time></trkpt><trkpt lat="36.585655458916094" lon="-5.1596810133935795"><ele>1029.0</ele><time>2026-04-25T10:02:43.999Z</time></trkpt><trkpt lat="36.58567719813147" lon="-5.159596557321718"><ele>1029.0</ele><time>2026-04-25T10:04:59.998Z</time></trkpt><trkpt lat="36.5857056898193" lon="-5.159486403268743"><ele>1029.0</ele><time>2026-04-25T10:05:18Z</time></trkpt><trkpt lat="36.58572107630706" lon="-5.1594075671202235"><ele>1029.0</ele><time>2026-04-25T10:05:21Z</time></trkpt><trkpt lat="36.58573463329367" lon="-5.15932734612258"><ele>1029.0</ele><time>2026-04-25T10:05:39Z</time></trkpt><trkpt lat="36.585760508036095" lon="-5.159187289277293"><ele>1029.0</ele><time>2026-04-25T10:05:56.999Z</time></trkpt><trkpt lat="36.58580735567185" lon="-5.159106337202106"><ele>1029.0</ele><time>2026-04-25T10:05:59.999Z</time></trkpt><trkpt lat="36.58587238012812" lon="-5.15906224043224"><ele>1029.0</ele><time>2026-04-25T10:06:04.999Z</time></trkpt><trkpt lat="36.58597139110855" lon="-5.15906073480495"><ele>1029.0</ele><time>2026-04-25T10:06:06.999Z</time></trkpt><trkpt lat="36.58605459036535" lon="-5.1591023717568465"><ele>1029.0</ele><time>2026-04-25T10:06:08.999Z</time></trkpt><trkpt lat="36.58611907896596" lon="-5.159148733862547"><ele>1029.0</ele><time>2026-04-25T10:06:10.999Z</time></trkpt><trkpt lat="36.58618036339233" lon="-5.1591731638103955"><ele>1029.0</ele><time>2026-04-25T10:06:12.999Z</time></trkpt><trkpt lat="36.58623973117269" lon="-5.159201711810912"><ele>1029.0</ele><time>2026-04-25T10:06:14.999Z</time></trkpt><trkpt lat="36.586305671578636" lon="-5.159229224418281"><ele>1031.0</ele><time>2026-04-25T10:06:16.999Z</time></trkpt><trkpt lat="36.58637304129937" lon="-5.159233597341599"><ele>1033.0</ele><time>2026-04-25T10:06:18.999Z</time></trkpt><trkpt lat="36.5864439765362" lon="-5.1592149526286235"><ele>1035.0</ele><time>2026-04-25T10:06:20.999Z</time></trkpt><trkpt lat="36.58651410371336" lon="-5.159170192731201"><ele>1037.0</ele><time>2026-04-25T10:06:22.999Z</time></trkpt><trkpt lat="36.586585124590925" lon="-5.159133000124321"><ele>1039.0</ele><time>2026-04-25T10:06:24.999Z</time></trkpt><trkpt lat="36.58665451222412" lon="-5.159112432481181"><ele>1041.0</ele><time>2026-04-25T10:06:27.999Z</time></trkpt><trkpt lat="36.58662212592391" lon="-5.159204231046127"><ele>1043.0</ele><time>2026-04-25T10:06:36.999Z</time></trkpt><trkpt lat="36.58654200033225" lon="-5.159276938754377"><ele>1043.0</ele><time>2026-04-25T10:06:38.999Z</time></trkpt><trkpt lat="36.58645821267928" lon="-5.15938210296813"><ele>1043.0</ele><time>2026-04-25T10:06:40.999Z</time></trkpt><trkpt lat="36.58634706070741" lon="-5.159448596391047"><ele>1043.0</ele><time>2026-04-25T10:06:42.999Z</time></trkpt><trkpt lat="36.586244732259125" lon="-5.15951144989479"><ele>1043.0</ele><time>2026-04-25T10:06:44.999Z</time></trkpt><trkpt lat="36.58619449591283" lon="-5.1595770454600025"><ele>1043.0</ele><time>2026-04-25T10:06:46.999Z</time></trkpt><trkpt lat="36.58618973685857" lon="-5.159667004074976"><ele>1043.0</ele><time>2026-04-25T10:06:48.999Z</time></trkpt><trkpt lat="36.58624322886777" lon="-5.159739278415778"><ele>1043.0</ele><time>2026-04-25T10:06:50.999Z</time></trkpt><trkpt lat="36.58633948700987" lon="-5.159743979908108"><ele>1043.0</ele><time>2026-04-25T10:06:52.999Z</time></trkpt><trkpt lat="36.58640425088241" lon="-5.159795276016696"><ele>1043.0</ele><time>2026-04-25T10:06:54.999Z</time></trkpt><trkpt lat="36.5864299111724" lon="-5.159878726696877"><ele>1043.0</ele><time>2026-04-25T10:06:56.999Z</time></trkpt><trkpt lat="36.586453318053344" lon="-5.159977217326294"><ele>1043.0</ele><time>2026-04-25T10:06:58.999Z</time></trkpt><trkpt lat="36.586419240070626" lon="-5.160136053403093"><ele>1047.3333333333335</ele><time>2026-04-25T10:07:00.999Z</time></trkpt><trkpt lat="36.58642053458271" lon="-5.160228584826662"><ele>1051.6666666666667</ele><time>2026-04-25T10:07:02.999Z</time></trkpt><trkpt lat="36.58642603261012" lon="-5.1603476906722054"><ele>1056.0</ele><time>2026-04-25T10:07:04.999Z</time></trkpt><trkpt lat="36.58641822671829" lon="-5.160438560695212"><ele>1060.3333333333333</ele><time>2026-04-25T10:07:06.999Z</time></trkpt><trkpt lat="36.58636922261335" lon="-5.160540482673733"><ele>1064.6666666666665</ele><time>2026-04-25T10:07:08.999Z</time></trkpt><trkpt lat="36.586315435119715" lon="-5.160654196136384"><ele>1069.0</ele><time>2026-04-25T10:07:10.999Z</time></trkpt><trkpt lat="36.586275624863255" lon="-5.16076319786449"><ele>1068.0</ele><time>2026-04-25T10:07:13Z</time></trkpt><trkpt lat="36.5862375426677" lon="-5.160904663657228"><ele>1067.0</ele><time>2026-04-25T10:07:15Z</time></trkpt><trkpt lat="36.58617522400661" lon="-5.161027252466889"><ele>1066.0</ele><time>2026-04-25T10:07:17Z</time></trkpt><trkpt lat="36.5861345378835" lon="-5.161153402219322"><ele>1065.0</ele><time>2026-04-25T10:07:19Z</time></trkpt><trkpt lat="36.58611145754407" lon="-5.1612637788388085"><ele>1064.0</ele><time>2026-04-25T10:07:21Z</time></trkpt><trkpt lat="36.586083980165746" lon="-5.161387547689468"><ele>1064.0</ele><time>2026-04-25T10:07:23Z</time></trkpt><trkpt lat="36.58607206603453" lon="-5.161524789493231"><ele>1064.0</ele><time>2026-04-25T10:07:25Z</time></trkpt><trkpt lat="36.58608035497473" lon="-5.161644014964263"><ele>1064.0</ele><time>2026-04-25T10:07:27Z</time></trkpt><trkpt lat="36.58607617296279" lon="-5.161742288150032"><ele>1064.0</ele><time>2026-04-25T10:07:29Z</time></trkpt><trkpt lat="36.58605641640743" lon="-5.161860834565283"><ele>1064.0</ele><time>2026-04-25T10:07:31Z</time></trkpt><trkpt lat="36.586060303471385" lon="-5.162010408002744"><ele>1067.6000000000001</ele><time>2026-04-25T10:07:33Z</time></trkpt><trkpt lat="36.586065568847644" lon="-5.162089664556532"><ele>1071.2</ele><time>2026-04-25T10:07:34Z</time></trkpt><trkpt lat="36.58607660086993" lon="-5.162216607782752"><ele>1074.8000000000002</ele><time>2026-04-25T10:07:36Z</time></trkpt><trkpt lat="36.58601538542065" lon="-5.162323221120355"><ele>1078.4</ele><time>2026-04-25T10:07:38Z</time></trkpt><trkpt lat="36.58591900263085" lon="-5.16241359479245"><ele>1082.0</ele><time>2026-04-25T10:07:40Z</time></trkpt><trkpt lat="36.58581171891544" lon="-5.162484482419527"><ele>1084.6666666666667</ele><time>2026-04-25T10:07:42Z</time></trkpt><trkpt lat="36.58574670237477" lon="-5.162517135878821"><ele>1087.3333333333335</ele><time>2026-04-25T10:07:43Z</time></trkpt><trkpt lat="36.58568133216812" lon="-5.162541052800779"><ele>1090.0</ele><time>2026-04-25T10:07:44Z</time></trkpt><trkpt lat="36.58560552662169" lon="-5.162563700528898"><ele>1092.6666666666667</ele><time>2026-04-25T10:07:45Z</time></trkpt><trkpt lat="36.585532189648" lon="-5.1625838916807245"><ele>1095.3333333333333</ele><time>2026-04-25T10:07:46Z</time></trkpt><trkpt lat="36.58542119731308" lon="-5.162607068213787"><ele>1098.0</ele><time>2026-04-25T10:07:48Z</time></trkpt><trkpt lat="36.58535496505989" lon="-5.162613121436396"><ele>1096.5</ele><time>2026-04-25T10:07:50Z</time></trkpt><trkpt lat="36.58525832606395" lon="-5.162616306721021"><ele>1095.0</ele><time>2026-04-25T10:08:02.999Z</time></trkpt><trkpt lat="36.58518456179718" lon="-5.162639203127337"><ele>1093.5</ele><time>2026-04-25T10:08:03.999Z</time></trkpt><trkpt lat="36.58510766247211" lon="-5.162670196523288"><ele>1092.0</ele><time>2026-04-25T10:08:04.999Z</time></trkpt><trkpt lat="36.58503293365098" lon="-5.162706033136065"><ele>1090.5</ele><time>2026-04-25T10:08:05.999Z</time></trkpt><trkpt lat="36.58494574341666" lon="-5.162748985393194"><ele>1089.0</ele><time>2026-04-25T10:08:06.999Z</time></trkpt><trkpt lat="36.58486217425794" lon="-5.162776169905377"><ele>1089.0</ele><time>2026-04-25T10:08:07.999Z</time></trkpt><trkpt lat="36.58479475172182" lon="-5.162798339851601"><ele>1089.0</ele><time>2026-04-25T10:08:08.999Z</time></trkpt><trkpt lat="36.58467737009853" lon="-5.162834684119621"><ele>1089.0</ele><time>2026-04-25T10:08:10.999Z</time></trkpt><trkpt lat="36.58459296232932" lon="-5.1628538978620995"><ele>1089.0</ele><time>2026-04-25T10:08:12.999Z</time></trkpt><trkpt lat="36.58448974651242" lon="-5.16290092286627"><ele>1089.0</ele><time>2026-04-25T10:08:14.999Z</time></trkpt><trkpt lat="36.58442083760395" lon="-5.162916877271787"><ele>1085.8</ele><time>2026-04-25T10:08:15.999Z</time></trkpt><trkpt lat="36.58431073558314" lon="-5.16296109116895"><ele>1082.6000000000001</ele><time>2026-04-25T10:08:17.999Z</time></trkpt><trkpt lat="36.584250630110105" lon="-5.16298599743487"><ele>1079.4</ele><time>2026-04-25T10:08:18.999Z</time></trkpt><trkpt lat="36.58417970349274" lon="-5.1630031832578664"><ele>1076.2</ele><time>2026-04-25T10:08:19.999Z</time></trkpt><trkpt lat="36.58406438169921" lon="-5.163014791495545"><ele>1073.0</ele><time>2026-04-25T10:08:21.999Z</time></trkpt><trkpt lat="36.58394588146384" lon="-5.163064956596354"><ele>1073.0</ele><time>2026-04-25T10:08:23.999Z</time></trkpt><trkpt lat="36.58388502184494" lon="-5.163096892130478"><ele>1073.0</ele><time>2026-04-25T10:08:24.999Z</time></trkpt><trkpt lat="36.583793699266266" lon="-5.163182330027283"><ele>1073.0</ele><time>2026-04-25T10:08:26.999Z</time></trkpt><trkpt lat="36.58373398949319" lon="-5.163249771626863"><ele>1073.0</ele><time>2026-04-25T10:08:28.999Z</time></trkpt><trkpt lat="36.583656629442814" lon="-5.163236720376482"><ele>1073.0</ele><time>2026-04-25T10:17:13Z</time></trkpt><trkpt lat="36.583588738037434" lon="-5.163238034220761"><ele>1073.0</ele><time>2026-04-25T10:17:15Z</time></trkpt><trkpt lat="36.58356260673173" lon="-5.163320330340088"><ele>1075.4</ele><time>2026-04-25T10:17:16.999Z</time></trkpt><trkpt lat="36.583607852088996" lon="-5.163415815959665"><ele>1077.8</ele><time>2026-04-25T10:17:18.999Z</time></trkpt><trkpt lat="36.583639931485244" lon="-5.163508928932344"><ele>1080.2</ele><time>2026-04-25T10:17:20.999Z</time></trkpt><trkpt lat="36.58357969096125" lon="-5.163578739862644"><ele>1082.6</ele><time>2026-04-25T10:17:22.999Z</time></trkpt><trkpt lat="36.58347229252366" lon="-5.163536916864565"><ele>1085.0</ele><time>2026-04-25T10:17:24.999Z</time></trkpt><trkpt lat="36.58336437963898" lon="-5.163477472436617"><ele>1085.0</ele><time>2026-04-25T10:17:26.999Z</time></trkpt><trkpt lat="36.58325958578775" lon="-5.163450583817828"><ele>1085.0</ele><time>2026-04-25T10:17:28.999Z</time></trkpt><trkpt lat="36.583162255969604" lon="-5.1634341931821925"><ele>1085.0</ele><time>2026-04-25T10:17:30.999Z</time></trkpt><trkpt lat="36.58305787083436" lon="-5.163441024556857"><ele>1085.0</ele><time>2026-04-25T10:17:32.999Z</time></trkpt><trkpt lat="36.58297212168206" lon="-5.163486328049725"><ele>1085.0</ele><time>2026-04-25T10:17:34.999Z</time></trkpt><trkpt lat="36.58286965021824" lon="-5.163546218212928"><ele>1083.2</ele><time>2026-04-25T10:17:36.999Z</time></trkpt><trkpt lat="36.5827723084739" lon="-5.16361552451245"><ele>1081.4</ele><time>2026-04-25T10:17:38.999Z</time></trkpt><trkpt lat="36.58267127387218" lon="-5.163665674628454"><ele>1079.6</ele><time>2026-04-25T10:17:40.999Z</time></trkpt><trkpt lat="36.58257280033184" lon="-5.163714496976157"><ele>1077.8</ele><time>2026-04-25T10:17:43.001Z</time></trkpt><trkpt lat="36.58246575178644" lon="-5.16376899179797"><ele>1076.0</ele><time>2026-04-25T10:17:45.001Z</time></trkpt><trkpt lat="36.58240473876808" lon="-5.163797369421772"><ele>1076.0</ele><time>2026-04-25T10:17:46.001Z</time></trkpt><trkpt lat="36.582296761377734" lon="-5.1638535633991065"><ele>1076.0</ele><time>2026-04-25T10:17:48.001Z</time></trkpt><trkpt lat="36.58219456871572" lon="-5.163902675322034"><ele>1076.0</ele><time>2026-04-25T10:17:50.001Z</time></trkpt><trkpt lat="36.5821029637767" lon="-5.1639296890335356"><ele>1076.0</ele><time>2026-04-25T10:17:52.001Z</time></trkpt><trkpt lat="36.582003189015126" lon="-5.163944532754912"><ele>1076.0</ele><time>2026-04-25T10:17:54.001Z</time></trkpt><trkpt lat="36.58190720920361" lon="-5.1639753949613905"><ele>1074.3999999999999</ele><time>2026-04-25T10:17:56.001Z</time></trkpt><trkpt lat="36.58186695099919" lon="-5.1640851041800415"><ele>1072.8</ele><time>2026-04-25T10:17:58.001Z</time></trkpt><trkpt lat="36.58190129839761" lon="-5.164194745750859"><ele>1071.1999999999998</ele><time>2026-04-25T10:18:00Z</time></trkpt><trkpt lat="36.581995801039206" lon="-5.164246292805159"><ele>1069.6</ele><time>2026-04-25T10:18:02Z</time></trkpt><trkpt lat="36.58202097752672" lon="-5.164340916856186"><ele>1068.0</ele><time>2026-04-25T10:18:04Z</time></trkpt><trkpt lat="36.58194363867509" lon="-5.1644206230260945"><ele>1066.6666666666667</ele><time>2026-04-25T10:18:06Z</time></trkpt><trkpt lat="36.58183648234836" lon="-5.16441234159183"><ele>1065.3333333333333</ele><time>2026-04-25T10:18:08Z</time></trkpt><trkpt lat="36.581731546420045" lon="-5.164386359103299"><ele>1064.0</ele><time>2026-04-25T10:18:10Z</time></trkpt><trkpt lat="36.581658471517535" lon="-5.164352482131887"><ele>1062.6666666666665</ele><time>2026-04-25T10:18:12Z</time></trkpt><trkpt lat="36.58159822241196" lon="-5.1643239736935245"><ele>1061.3333333333333</ele><time>2026-04-25T10:18:14Z</time></trkpt><trkpt lat="36.581537813630206" lon="-5.164353275924992"><ele>1060.0</ele><time>2026-04-25T10:18:16Z</time></trkpt><trkpt lat="36.581492760754664" lon="-5.164410737537925"><ele>1060.0</ele><time>2026-04-25T10:18:18Z</time></trkpt><trkpt lat="36.58145622924637" lon="-5.1645126065434095"><ele>1060.0</ele><time>2026-04-25T10:18:20Z</time></trkpt><trkpt lat="36.581409858238516" lon="-5.164611940703018"><ele>1060.0</ele><time>2026-04-25T10:18:22Z</time></trkpt><trkpt lat="36.581364430046534" lon="-5.164717267072868"><ele>1060.0</ele><time>2026-04-25T10:18:24Z</time></trkpt><trkpt lat="36.581323851387175" lon="-5.1648278712782165"><ele>1060.0</ele><time>2026-04-25T10:18:26Z</time></trkpt><trkpt lat="36.58127152036029" lon="-5.16495024991823"><ele>1057.5</ele><time>2026-04-25T10:18:28Z</time></trkpt><trkpt lat="36.58123196305547" lon="-5.165013008325545"><ele>1055.0</ele><time>2026-04-25T10:18:29Z</time></trkpt><trkpt lat="36.58115852259716" lon="-5.165140006614328"><ele>1052.5</ele><time>2026-04-25T10:18:31Z</time></trkpt><trkpt lat="36.58112159026276" lon="-5.165208361394511"><ele>1050.0</ele><time>2026-04-25T10:18:32Z</time></trkpt><trkpt lat="36.58108988300292" lon="-5.165285398333359"><ele>1047.5</ele><time>2026-04-25T10:18:33Z</time></trkpt><trkpt lat="36.58105769301173" lon="-5.165375017716012"><ele>1045.0</ele><time>2026-04-25T10:18:34Z</time></trkpt><trkpt lat="36.5810256012765" lon="-5.165462270189183"><ele>1044.0</ele><time>2026-04-25T10:18:35Z</time></trkpt><trkpt lat="36.58099623048437" lon="-5.165550115324517"><ele>1043.0</ele><time>2026-04-25T10:18:36Z</time></trkpt><trkpt lat="36.58096595741689" lon="-5.165627546554211"><ele>1042.0</ele><time>2026-04-25T10:18:37Z</time></trkpt><trkpt lat="36.58091081751181" lon="-5.165755159105034"><ele>1041.0</ele><time>2026-04-25T10:18:39Z</time></trkpt><trkpt lat="36.58085151373137" lon="-5.165881618757948"><ele>1040.0</ele><time>2026-04-25T10:18:41Z</time></trkpt><trkpt lat="36.58077244920794" lon="-5.165999510565017"><ele>1040.0</ele><time>2026-04-25T10:18:43Z</time></trkpt><trkpt lat="36.58072862623266" lon="-5.166058660731371"><ele>1040.0</ele><time>2026-04-25T10:18:44Z</time></trkpt><trkpt lat="36.58068337351384" lon="-5.166117654735797"><ele>1040.0</ele><time>2026-04-25T10:18:45Z</time></trkpt><trkpt lat="36.5805788275689" lon="-5.166240395190338"><ele>1040.0</ele><time>2026-04-25T10:18:47Z</time></trkpt><trkpt lat="36.58052448667978" lon="-5.166306627043255"><ele>1040.0</ele><time>2026-04-25T10:18:48Z</time></trkpt><trkpt lat="36.58046991087096" lon="-5.166368400522756"><ele>1040.0</ele><time>2026-04-25T10:18:49Z</time></trkpt><trkpt lat="36.58041159451765" lon="-5.1664361110392685"><ele>1040.8333333333335</ele><time>2026-04-25T10:18:50Z</time></trkpt><trkpt lat="36.580343683310886" lon="-5.1665074027622975"><ele>1041.6666666666667</ele><time>2026-04-25T10:18:51Z</time></trkpt><trkpt lat="36.58027958256044" lon="-5.166582325392299"><ele>1042.5</ele><time>2026-04-25T10:18:52Z</time></trkpt><trkpt lat="36.580218620772754" lon="-5.166667495052509"><ele>1043.3333333333333</ele><time>2026-04-25T10:18:53Z</time></trkpt><trkpt lat="36.580159626450005" lon="-5.166731940875792"><ele>1044.1666666666665</ele><time>2026-04-25T10:18:54Z</time></trkpt><trkpt lat="36.580092010985986" lon="-5.166803080454073"><ele>1045.0</ele><time>2026-04-25T10:18:55Z</time></trkpt><trkpt lat="36.58001395221704" lon="-5.166866363097121"><ele>1045.0</ele><time>2026-04-25T10:18:56Z</time></trkpt><trkpt lat="36.57993102380108" lon="-5.166920331961625"><ele>1045.0</ele><time>2026-04-25T10:18:57Z</time></trkpt><trkpt lat="36.57985288714235" lon="-5.166954633257264"><ele>1045.0</ele><time>2026-04-25T10:18:57.999Z</time></trkpt><trkpt lat="36.57977740600948" lon="-5.1669828091703085"><ele>1045.0</ele><time>2026-04-25T10:18:58.999Z</time></trkpt><trkpt lat="36.579706594412414" lon="-5.167000142899415"><ele>1045.0</ele><time>2026-04-25T10:18:59.999Z</time></trkpt><trkpt lat="36.57961673290573" lon="-5.1670063190641775"><ele>1045.0</ele><time>2026-04-25T10:19:00.999Z</time></trkpt><trkpt lat="36.57952639289091" lon="-5.167034600423593"><ele>1044.0</ele><time>2026-04-25T10:19:01.999Z</time></trkpt><trkpt lat="36.579450280523545" lon="-5.167040750036751"><ele>1043.0</ele><time>2026-04-25T10:19:02.999Z</time></trkpt><trkpt lat="36.57938325573146" lon="-5.167061325331689"><ele>1042.0</ele><time>2026-04-25T10:19:03.999Z</time></trkpt><trkpt lat="36.57928795058498" lon="-5.167134460484479"><ele>1041.0</ele><time>2026-04-25T10:19:05.999Z</time></trkpt><trkpt lat="36.579236258728706" lon="-5.167180909737897"><ele>1040.0</ele><time>2026-04-25T10:19:06.999Z</time></trkpt><trkpt lat="36.57918363934607" lon="-5.16722646108117"><ele>1039.0</ele><time>2026-04-25T10:19:07.999Z</time></trkpt><trkpt lat="36.57913471706108" lon="-5.167282703662607"><ele>1038.9999999999998</ele><time>2026-04-25T10:19:08.999Z</time></trkpt><trkpt lat="36.579087205873016" lon="-5.167335714023055"><ele>1039.0</ele><time>2026-04-25T10:19:09.999Z</time></trkpt><trkpt lat="36.579043401564" lon="-5.167401808230372"><ele>1039.0</ele><time>2026-04-25T10:19:10.999Z</time></trkpt><trkpt lat="36.57900267442077" lon="-5.167466675502089"><ele>1039.0</ele><time>2026-04-25T10:19:11.999Z</time></trkpt><trkpt lat="36.57896063344994" lon="-5.167544543029198"><ele>1039.0</ele><time>2026-04-25T10:19:12.999Z</time></trkpt><trkpt lat="36.57891315471284" lon="-5.167629688123075"><ele>1038.9999999999998</ele><time>2026-04-25T10:19:13.999Z</time></trkpt><trkpt lat="36.57887617278026" lon="-5.167714484932334"><ele>1039.0</ele><time>2026-04-25T10:19:14.999Z</time></trkpt><trkpt lat="36.57883558271676" lon="-5.167799075310603"><ele>1038.5</ele><time>2026-04-25T10:19:15.999Z</time></trkpt><trkpt lat="36.57879534502619" lon="-5.167892109098902"><ele>1038.0</ele><time>2026-04-25T10:19:16.999Z</time></trkpt><trkpt lat="36.57876155475758" lon="-5.167989624833708"><ele>1037.5</ele><time>2026-04-25T10:19:17.999Z</time></trkpt><trkpt lat="36.57874782781034" lon="-5.168079423333715"><ele>1037.0</ele><time>2026-04-25T10:19:18.999Z</time></trkpt><trkpt lat="36.57873265424638" lon="-5.168169941901294"><ele>1036.5</ele><time>2026-04-25T10:19:19.999Z</time></trkpt><trkpt lat="36.57871452002748" lon="-5.168252908096588"><ele>1036.0</ele><time>2026-04-25T10:19:20.999Z</time></trkpt><trkpt lat="36.57870371539147" lon="-5.168346911618069"><ele>1036.0</ele><time>2026-04-25T10:19:21.999Z</time></trkpt><trkpt lat="36.578699392544536" lon="-5.168441552817173"><ele>1036.0</ele><time>2026-04-25T10:19:22.999Z</time></trkpt><trkpt lat="36.5787004590223" lon="-5.1685462448081285"><ele>1036.0</ele><time>2026-04-25T10:19:23.999Z</time></trkpt><trkpt lat="36.57870059298466" lon="-5.1686415186592924"><ele>1036.0</ele><time>2026-04-25T10:19:24.999Z</time></trkpt><trkpt lat="36.578699457199626" lon="-5.168728228644978"><ele>1036.0</ele><time>2026-04-25T10:19:25.999Z</time></trkpt><trkpt lat="36.57869903661224" lon="-5.168809187382093"><ele>1036.0</ele><time>2026-04-25T10:19:26.999Z</time></trkpt><trkpt lat="36.578700992982895" lon="-5.168948073767658"><ele>1039.6666666666665</ele><time>2026-04-25T10:19:28.999Z</time></trkpt><trkpt lat="36.578663209025166" lon="-5.169066410926655"><ele>1043.3333333333333</ele><time>2026-04-25T10:19:30.999Z</time></trkpt><trkpt lat="36.5785931493916" lon="-5.169171268073368"><ele>1047.0</ele><time>2026-04-25T10:19:32.999Z</time></trkpt><trkpt lat="36.578548564955334" lon="-5.169234125212391"><ele>1050.6666666666667</ele><time>2026-04-25T10:19:33.999Z</time></trkpt><trkpt lat="36.57848966685375" lon="-5.169293357093739"><ele>1054.3333333333335</ele><time>2026-04-25T10:19:34.999Z</time></trkpt><trkpt lat="36.578434851565994" lon="-5.169353450058676"><ele>1058.0</ele><time>2026-04-25T10:19:35.999Z</time></trkpt><trkpt lat="36.57837387088628" lon="-5.169404605883633"><ele>1058.0</ele><time>2026-04-25T10:19:36.999Z</time></trkpt><trkpt lat="36.578313290357606" lon="-5.169459044153663"><ele>1058.0</ele><time>2026-04-25T10:19:37.999Z</time></trkpt><trkpt lat="36.57826896625478" lon="-5.169516070775025"><ele>1058.0</ele><time>2026-04-25T10:19:38.999Z</time></trkpt><trkpt lat="36.57823077516089" lon="-5.169580997359779"><ele>1058.0</ele><time>2026-04-25T10:19:39.999Z</time></trkpt><trkpt lat="36.578205711645545" lon="-5.169721275229973"><ele>1058.0</ele><time>2026-04-25T10:19:41.999Z</time></trkpt><trkpt lat="36.57820668054311" lon="-5.169807184238168"><ele>1058.0</ele><time>2026-04-25T10:19:42.999Z</time></trkpt><trkpt lat="36.5782136166298" lon="-5.169896761219685"><ele>1054.8333333333335</ele><time>2026-04-25T10:19:43.999Z</time></trkpt><trkpt lat="36.57822127332155" lon="-5.1699938316436205"><ele>1051.6666666666667</ele><time>2026-04-25T10:19:44.999Z</time></trkpt><trkpt lat="36.57823252940479" lon="-5.170090863738194"><ele>1048.5</ele><time>2026-04-25T10:19:45.999Z</time></trkpt><trkpt lat="36.57824099087215" lon="-5.170185586942075"><ele>1045.3333333333333</ele><time>2026-04-25T10:19:46.999Z</time></trkpt><trkpt lat="36.57824772097377" lon="-5.170283891966932"><ele>1042.1666666666665</ele><time>2026-04-25T10:19:47.999Z</time></trkpt><trkpt lat="36.57825521102561" lon="-5.1703718001299475"><ele>1039.0</ele><time>2026-04-25T10:19:49Z</time></trkpt><trkpt lat="36.578261437460746" lon="-5.170465940049404"><ele>1039.0</ele><time>2026-04-25T10:19:50Z</time></trkpt><trkpt lat="36.578272358122945" lon="-5.17056413114601"><ele>1039.0</ele><time>2026-04-25T10:19:51Z</time></trkpt><trkpt lat="36.5782756982892" lon="-5.170666501659636"><ele>1039.0</ele><time>2026-04-25T10:19:52Z</time></trkpt><trkpt lat="36.578267832794765" lon="-5.170762874487779"><ele>1039.0</ele><time>2026-04-25T10:19:53Z</time></trkpt><trkpt lat="36.57825612709359" lon="-5.170856085416352"><ele>1039.0</ele><time>2026-04-25T10:19:54Z</time></trkpt><trkpt lat="36.578239924667855" lon="-5.170957736072721"><ele>1039.0</ele><time>2026-04-25T10:19:55Z</time></trkpt><trkpt lat="36.57822479387329" lon="-5.171059005691159"><ele>1039.1666666666665</ele><time>2026-04-25T10:19:56Z</time></trkpt><trkpt lat="36.57820733393623" lon="-5.171156596761112"><ele>1039.3333333333333</ele><time>2026-04-25T10:19:57Z</time></trkpt><trkpt lat="36.57818381847737" lon="-5.1712560642235195"><ele>1039.5</ele><time>2026-04-25T10:19:58Z</time></trkpt><trkpt lat="36.57815465782424" lon="-5.171351819603561"><ele>1039.6666666666667</ele><time>2026-04-25T10:19:59Z</time></trkpt><trkpt lat="36.5781300784406" lon="-5.171449449189305"><ele>1039.8333333333335</ele><time>2026-04-25T10:20:00Z</time></trkpt><trkpt lat="36.57811278259342" lon="-5.171549029908073"><ele>1040.0</ele><time>2026-04-25T10:20:01Z</time></trkpt><trkpt lat="36.57808868983699" lon="-5.17164126589003"><ele>1040.8333333333335</ele><time>2026-04-25T10:20:02Z</time></trkpt><trkpt lat="36.57806627722885" lon="-5.1717438222967225"><ele>1041.6666666666667</ele><time>2026-04-25T10:20:03Z</time></trkpt><trkpt lat="36.5780569025394" lon="-5.171827922096554"><ele>1042.5</ele><time>2026-04-25T10:20:04Z</time></trkpt><trkpt lat="36.57804256936966" lon="-5.171914478590445"><ele>1043.3333333333333</ele><time>2026-04-25T10:20:05Z</time></trkpt><trkpt lat="36.57803018756711" lon="-5.172003487133195"><ele>1044.1666666666665</ele><time>2026-04-25T10:20:06Z</time></trkpt><trkpt lat="36.57802498641349" lon="-5.172099485079424"><ele>1045.0</ele><time>2026-04-25T10:20:07Z</time></trkpt><trkpt lat="36.578031779187825" lon="-5.17219507135971"><ele>1045.0</ele><time>2026-04-25T10:20:08Z</time></trkpt><trkpt lat="36.57804070029677" lon="-5.172290064534177"><ele>1045.0</ele><time>2026-04-25T10:20:09Z</time></trkpt><trkpt lat="36.57804290133444" lon="-5.172382006163413"><ele>1045.0</ele><time>2026-04-25T10:20:10Z</time></trkpt><trkpt lat="36.578045151680705" lon="-5.17248076717172"><ele>1045.0</ele><time>2026-04-25T10:20:11Z</time></trkpt><trkpt lat="36.578049574223115" lon="-5.172563634284895"><ele>1045.0</ele><time>2026-04-25T10:20:12Z</time></trkpt><trkpt lat="36.5780707551723" lon="-5.172660968932062"><ele>1045.0</ele><time>2026-04-25T10:20:13Z</time></trkpt><trkpt lat="36.57807484813154" lon="-5.172752004879663"><ele>1047.0</ele><time>2026-04-25T10:20:14Z</time></trkpt><trkpt lat="36.57807370069373" lon="-5.172849431571988"><ele>1049.0</ele><time>2026-04-25T10:20:15Z</time></trkpt><trkpt lat="36.578063906348646" lon="-5.172945724799918"><ele>1051.0</ele><time>2026-04-25T10:20:16Z</time></trkpt><trkpt lat="36.57804450617213" lon="-5.173044303398079"><ele>1053.0</ele><time>2026-04-25T10:20:17Z</time></trkpt><trkpt lat="36.578029315245516" lon="-5.173124576044613"><ele>1055.0</ele><time>2026-04-25T10:20:18Z</time></trkpt><trkpt lat="36.57800386107746" lon="-5.173218371449307"><ele>1057.0</ele><time>2026-04-25T10:20:19Z</time></trkpt><trkpt lat="36.577985462423335" lon="-5.17331125200745"><ele>1058.3333333333333</ele><time>2026-04-25T10:20:20Z</time></trkpt><trkpt lat="36.577967063025625" lon="-5.173413787260812"><ele>1059.6666666666665</ele><time>2026-04-25T10:20:21Z</time></trkpt><trkpt lat="36.57795263634906" lon="-5.173495630161467"><ele>1061.0</ele><time>2026-04-25T10:20:22Z</time></trkpt><trkpt lat="36.57793875813687" lon="-5.173580115420324"><ele>1062.3333333333333</ele><time>2026-04-25T10:20:22.999Z</time></trkpt><trkpt lat="36.57791854700235" lon="-5.173668297831477"><ele>1063.6666666666667</ele><time>2026-04-25T10:20:23.999Z</time></trkpt><trkpt lat="36.5778675196856" lon="-5.17380529359819"><ele>1065.0</ele><time>2026-04-25T10:20:25.999Z</time></trkpt><trkpt lat="36.57785216688897" lon="-5.173888992711692"><ele>1061.4285714285716</ele><time>2026-04-25T10:20:26.999Z</time></trkpt><trkpt lat="36.577837637108345" lon="-5.173968277599222"><ele>1057.857142857143</ele><time>2026-04-25T10:20:27.999Z</time></trkpt><trkpt lat="36.57782706843006" lon="-5.17405810250809"><ele>1054.2857142857142</ele><time>2026-04-25T10:20:28.999Z</time></trkpt><trkpt lat="36.577810864883546" lon="-5.174151227914164"><ele>1050.7142857142858</ele><time>2026-04-25T10:20:29.999Z</time></trkpt><trkpt lat="36.57777899192681" lon="-5.174243318892074"><ele>1047.142857142857</ele><time>2026-04-25T10:20:30.999Z</time></trkpt><trkpt lat="36.57774655216025" lon="-5.1743278701258895"><ele>1043.5714285714287</ele><time>2026-04-25T10:20:31.999Z</time></trkpt><trkpt lat="36.577707587652334" lon="-5.174409172701254"><ele>1040.0</ele><time>2026-04-25T10:20:32.999Z</time></trkpt><trkpt lat="36.57767481225458" lon="-5.174491957027869"><ele>1040.0</ele><time>2026-04-25T10:20:33.999Z</time></trkpt><trkpt lat="36.57764599927012" lon="-5.174573835348764"><ele>1040.0</ele><time>2026-04-25T10:20:34.999Z</time></trkpt><trkpt lat="36.577628722950216" lon="-5.174655189889034"><ele>1040.0</ele><time>2026-04-25T10:20:35.999Z</time></trkpt><trkpt lat="36.57761286981216" lon="-5.174747646898716"><ele>1040.0</ele><time>2026-04-25T10:20:36.999Z</time></trkpt><trkpt lat="36.57760453147642" lon="-5.174850826019243"><ele>1040.0</ele><time>2026-04-25T10:20:37.999Z</time></trkpt><trkpt lat="36.57760399210095" lon="-5.1749471408532"><ele>1040.0</ele><time>2026-04-25T10:20:38.999Z</time></trkpt><trkpt lat="36.57759662194531" lon="-5.175041268639384"><ele>1040.5</ele><time>2026-04-25T10:20:39.999Z</time></trkpt><trkpt lat="36.577567686515174" lon="-5.1751782447156005"><ele>1041.0</ele><time>2026-04-25T10:20:41.999Z</time></trkpt><trkpt lat="36.5774670323171" lon="-5.1753308835663905"><ele>1041.5</ele><time>2026-04-25T10:20:43.999Z</time></trkpt><trkpt lat="36.57746457641691" lon="-5.175470519559756"><ele>1042.0</ele><time>2026-04-25T10:20:45.999Z</time></trkpt><trkpt lat="36.57744934951947" lon="-5.175388331189789"><ele>1042.0</ele><time>2026-04-25T10:20:51.999Z</time></trkpt><trkpt lat="36.57744703557017" lon="-5.17530950717857"><ele>1042.0</ele><time>2026-04-25T10:21:03.999Z</time></trkpt><trkpt lat="36.57743501831955" lon="-5.175163582573616"><ele>1042.0</ele><time>2026-04-25T10:21:05.999Z</time></trkpt><trkpt lat="36.57741287307733" lon="-5.175066935405286"><ele>1042.0</ele><time>2026-04-25T10:21:07.999Z</time></trkpt><trkpt lat="36.57740142763406" lon="-5.174953858961471"><ele>1042.0</ele><time>2026-04-25T10:21:09.999Z</time></trkpt><trkpt lat="36.577398494347065" lon="-5.174818719647097"><ele>1041.6</ele><time>2026-04-25T10:21:11.999Z</time></trkpt><trkpt lat="36.57739235179392" lon="-5.174689203104829"><ele>1041.2</ele><time>2026-04-25T10:21:13.999Z</time></trkpt><trkpt lat="36.577381890010805" lon="-5.174559616023773"><ele>1040.8</ele><time>2026-04-25T10:21:15.999Z</time></trkpt><trkpt lat="36.577384012154766" lon="-5.174480855419665"><ele>1040.4</ele><time>2026-04-25T10:21:16.999Z</time></trkpt><trkpt lat="36.57738514041417" lon="-5.174329650617764"><ele>1040.0</ele><time>2026-04-25T10:21:18.999Z</time></trkpt><trkpt lat="36.577384553914314" lon="-5.174249846214591"><ele>1040.0</ele><time>2026-04-25T10:21:19.999Z</time></trkpt><trkpt lat="36.57737259950295" lon="-5.174167723900182"><ele>1040.0</ele><time>2026-04-25T10:21:20.999Z</time></trkpt><trkpt lat="36.577366524316744" lon="-5.174020921617178"><ele>1040.0</ele><time>2026-04-25T10:21:22.999Z</time></trkpt><trkpt lat="36.57739044140446" lon="-5.173887429196879"><ele>1040.0</ele><time>2026-04-25T10:21:24.999Z</time></trkpt><trkpt lat="36.577439209399955" lon="-5.173748484141803"><ele>1040.0</ele><time>2026-04-25T10:21:26.999Z</time></trkpt><trkpt lat="36.57748967037704" lon="-5.1737013074906475"><ele>1039.2</ele><time>2026-04-25T10:21:27.999Z</time></trkpt><trkpt lat="36.577498428045025" lon="-5.173620075353392"><ele>1038.4</ele><time>2026-04-25T10:21:28.999Z</time></trkpt><trkpt lat="36.577541741405845" lon="-5.173497306391505"><ele>1037.6</ele><time>2026-04-25T10:21:30.999Z</time></trkpt><trkpt lat="36.5774993122251" lon="-5.173401410527715"><ele>1036.8</ele><time>2026-04-25T10:21:31.999Z</time></trkpt><trkpt lat="36.577454082815024" lon="-5.173329042379635"><ele>1036.0</ele><time>2026-04-25T10:21:32.999Z</time></trkpt><trkpt lat="36.57741616411273" lon="-5.173193014565192"><ele>1037.3999999999999</ele><time>2026-04-25T10:21:34.999Z</time></trkpt><trkpt lat="36.57738883545345" lon="-5.1730763354419205"><ele>1038.8</ele><time>2026-04-25T10:21:36.999Z</time></trkpt><trkpt lat="36.57733039722349" lon="-5.172986671059496"><ele>1040.1999999999998</ele><time>2026-04-25T10:21:38.999Z</time></trkpt><trkpt lat="36.5772078529128" lon="-5.1729406120030275"><ele>1041.6</ele><time>2026-04-25T10:21:40.999Z</time></trkpt><trkpt lat="36.577139548159124" lon="-5.17291259850487"><ele>1043.0</ele><time>2026-04-25T10:21:41.999Z</time></trkpt><trkpt lat="36.57708035093936" lon="-5.172877017356019"><ele>1043.0</ele><time>2026-04-25T10:21:42.999Z</time></trkpt><trkpt lat="36.57702540846022" lon="-5.172831018027635"><ele>1043.0</ele><time>2026-04-25T10:21:43.999Z</time></trkpt><trkpt lat="36.576915263224" lon="-5.17274171640244"><ele>1043.0</ele><time>2026-04-25T10:21:45.998Z</time></trkpt><trkpt lat="36.576854837049375" lon="-5.172690876439344"><ele>1043.0</ele><time>2026-04-25T10:21:46.998Z</time></trkpt><trkpt lat="36.57679952405843" lon="-5.172635439271948"><ele>1043.0</ele><time>2026-04-25T10:21:47.998Z</time></trkpt><trkpt lat="36.57672514267456" lon="-5.172499829990349"><ele>1039.8333333333335</ele><time>2026-04-25T10:21:49.998Z</time></trkpt><trkpt lat="36.576675646733904" lon="-5.172449916120858"><ele>1036.6666666666667</ele><time>2026-04-25T10:21:50.998Z</time></trkpt><trkpt lat="36.576609842264766" lon="-5.172414081687428"><ele>1033.5</ele><time>2026-04-25T10:21:51.998Z</time></trkpt><trkpt lat="36.57654536557463" lon="-5.17238667140429"><ele>1030.3333333333333</ele><time>2026-04-25T10:21:52.998Z</time></trkpt><trkpt lat="36.57648094620059" lon="-5.172353927110434"><ele>1027.1666666666665</ele><time>2026-04-25T10:21:53.998Z</time></trkpt><trkpt lat="36.576382438991885" lon="-5.172268322923598"><ele>1024.0</ele><time>2026-04-25T10:21:56Z</time></trkpt><trkpt lat="36.576332957658856" lon="-5.172191049261852"><ele>1024.0</ele><time>2026-04-25T10:21:57Z</time></trkpt><trkpt lat="36.57629503701597" lon="-5.172105320251937"><ele>1023.9999999999999</ele><time>2026-04-25T10:21:58Z</time></trkpt><trkpt lat="36.57627487400914" lon="-5.172016854063942"><ele>1024.0</ele><time>2026-04-25T10:21:59Z</time></trkpt><trkpt lat="36.57628169199382" lon="-5.171921185585737"><ele>1024.0</ele><time>2026-04-25T10:22:00Z</time></trkpt><trkpt lat="36.576298887283144" lon="-5.171830678782793"><ele>1023.9999999999999</ele><time>2026-04-25T10:22:01Z</time></trkpt><trkpt lat="36.576314261503924" lon="-5.171740748236903"><ele>1024.0</ele><time>2026-04-25T10:22:02Z</time></trkpt><trkpt lat="36.57632169186634" lon="-5.171657518248904"><ele>1024.0</ele><time>2026-04-25T10:22:03Z</time></trkpt><trkpt lat="36.57631599389177" lon="-5.171578473969887"><ele>1023.4285714285713</ele><time>2026-04-25T10:22:04Z</time></trkpt><trkpt lat="36.57630268742225" lon="-5.171501217501525"><ele>1022.8571428571428</ele><time>2026-04-25T10:22:05Z</time></trkpt><trkpt lat="36.57628992412428" lon="-5.171412179730014"><ele>1022.2857142857142</ele><time>2026-04-25T10:22:06Z</time></trkpt><trkpt lat="36.57628184201997" lon="-5.171319623864384"><ele>1021.7142857142858</ele><time>2026-04-25T10:22:07Z</time></trkpt><trkpt lat="36.57627877207695" lon="-5.171225814990662"><ele>1021.1428571428572</ele><time>2026-04-25T10:22:08Z</time></trkpt><trkpt lat="36.576285668082946" lon="-5.171133492978736"><ele>1020.5714285714287</ele><time>2026-04-25T10:22:09Z</time></trkpt><trkpt lat="36.576300068547866" lon="-5.171042339734591"><ele>1020.0</ele><time>2026-04-25T10:22:10Z</time></trkpt><trkpt lat="36.57630880716237" lon="-5.170960366501288"><ele>1020.0</ele><time>2026-04-25T10:22:11Z</time></trkpt><trkpt lat="36.576317801654426" lon="-5.170875993658738"><ele>1020.0</ele><time>2026-04-25T10:22:12Z</time></trkpt><trkpt lat="36.5763555818816" lon="-5.170730611143442"><ele>1020.0</ele><time>2026-04-25T10:22:14Z</time></trkpt><trkpt lat="36.57636661985945" lon="-5.170613662065921"><ele>1020.0</ele><time>2026-04-25T10:22:16Z</time></trkpt><trkpt lat="36.5763291677865" lon="-5.170523724811113"><ele>1020.0</ele><time>2026-04-25T10:22:18Z</time></trkpt><trkpt lat="36.57625626618145" lon="-5.170537317637488"><ele>1020.0</ele><time>2026-04-25T10:22:19Z</time></trkpt><trkpt lat="36.57614783344456" lon="-5.1704724547053775"><ele>1015.3333333333334</ele><time>2026-04-25T10:22:21Z</time></trkpt><trkpt lat="36.57604576580516" lon="-5.170393042672567"><ele>1010.6666666666667</ele><time>2026-04-25T10:22:23Z</time></trkpt><trkpt lat="36.57600345498146" lon="-5.1703304872545655"><ele>1006.0</ele><time>2026-04-25T10:22:24Z</time></trkpt><trkpt lat="36.57599443552543" lon="-5.170247855293887"><ele>1001.3333333333334</ele><time>2026-04-25T10:22:25Z</time></trkpt><trkpt lat="36.575953564421425" lon="-5.170174919837248"><ele>996.6666666666667</ele><time>2026-04-25T10:22:26Z</time></trkpt><trkpt lat="36.57593008223219" lon="-5.170091492671222"><ele>992.0</ele><time>2026-04-25T10:22:27Z</time></trkpt><trkpt lat="36.57590613208397" lon="-5.170004166869055"><ele>992.0000000000001</ele><time>2026-04-25T10:22:28Z</time></trkpt><trkpt lat="36.5758831955463" lon="-5.169914280438991"><ele>992.0</ele><time>2026-04-25T10:22:29Z</time></trkpt><trkpt lat="36.5758590484383" lon="-5.169819650003456"><ele>992.0</ele><time>2026-04-25T10:22:30Z</time></trkpt><trkpt lat="36.57583517510563" lon="-5.169734077216557"><ele>992.0</ele><time>2026-04-25T10:22:31Z</time></trkpt><trkpt lat="36.575819859979816" lon="-5.169647153604152"><ele>992.0000000000001</ele><time>2026-04-25T10:22:32Z</time></trkpt><trkpt lat="36.57576917226811" lon="-5.169506008621655"><ele>992.0</ele><time>2026-04-25T10:22:34Z</time></trkpt><trkpt lat="36.575706613272324" lon="-5.169373866070429"><ele>994.3333333333334</ele><time>2026-04-25T10:22:36Z</time></trkpt><trkpt lat="36.575667714766816" lon="-5.1693077086220605"><ele>996.6666666666667</ele><time>2026-04-25T10:22:37Z</time></trkpt><trkpt lat="36.57558600394576" lon="-5.169320394005251"><ele>999.0</ele><time>2026-04-25T10:22:38Z</time></trkpt><trkpt lat="36.57545434325916" lon="-5.1693130056072985"><ele>1001.3333333333333</ele><time>2026-04-25T10:22:40Z</time></trkpt><trkpt lat="36.57538880237558" lon="-5.1692859196868595"><ele>1003.6666666666666</ele><time>2026-04-25T10:22:41Z</time></trkpt><trkpt lat="36.5753397363232" lon="-5.169220641205161"><ele>1006.0</ele><time>2026-04-25T10:22:41.999Z</time></trkpt><trkpt lat="36.57532332127446" lon="-5.169121922691928"><ele>1001.9999999999999</ele><time>2026-04-25T10:22:42.999Z</time></trkpt><trkpt lat="36.57529230227214" lon="-5.169048065822777"><ele>998.0</ele><time>2026-04-25T10:22:43.999Z</time></trkpt><trkpt lat="36.57526383019433" lon="-5.1689736322561615"><ele>994.0</ele><time>2026-04-25T10:22:44.999Z</time></trkpt><trkpt lat="36.57515550266997" lon="-5.168906908618859"><ele>990.0</ele><time>2026-04-25T10:22:46.999Z</time></trkpt><trkpt lat="36.57508732941338" lon="-5.168898211154154"><ele>985.9999999999999</ele><time>2026-04-25T10:22:47.999Z</time></trkpt><trkpt lat="36.57503037259126" lon="-5.168856537032736"><ele>982.0</ele><time>2026-04-25T10:22:48.999Z</time></trkpt><trkpt lat="36.5749808237369" lon="-5.168782568812539"><ele>981.9999999999999</ele><time>2026-04-25T10:22:49.999Z</time></trkpt><trkpt lat="36.57494869204109" lon="-5.168711712254411"><ele>982.0</ele><time>2026-04-25T10:22:50.999Z</time></trkpt><trkpt lat="36.57492899869365" lon="-5.1685503883931965"><ele>982.0</ele><time>2026-04-25T10:22:52.999Z</time></trkpt><trkpt lat="36.57491923427528" lon="-5.1684661488025805"><ele>982.0</ele><time>2026-04-25T10:22:53.999Z</time></trkpt><trkpt lat="36.57491888791754" lon="-5.1683755450200835"><ele>981.9999999999999</ele><time>2026-04-25T10:22:54.999Z</time></trkpt><trkpt lat="36.574913889041824" lon="-5.168292927394368"><ele>982.0</ele><time>2026-04-25T10:22:55.999Z</time></trkpt><trkpt lat="36.5749007942044" lon="-5.168212045325667"><ele>983.8333333333333</ele><time>2026-04-25T10:22:56.999Z</time></trkpt><trkpt lat="36.574881969339366" lon="-5.168131222857965"><ele>985.6666666666666</ele><time>2026-04-25T10:22:57.999Z</time></trkpt><trkpt lat="36.57485905321262" lon="-5.168045061396478"><ele>987.5</ele><time>2026-04-25T10:22:58.999Z</time></trkpt><trkpt lat="36.57482854442069" lon="-5.167960460731226"><ele>989.3333333333333</ele><time>2026-04-25T10:22:59.999Z</time></trkpt><trkpt lat="36.57479144025301" lon="-5.16789177875337"><ele>991.1666666666666</ele><time>2026-04-25T10:23:00.999Z</time></trkpt><trkpt lat="36.57469686757792" lon="-5.167806759132093"><ele>993.0</ele><time>2026-04-25T10:23:02.999Z</time></trkpt><trkpt lat="36.574585698658645" lon="-5.167814495909952"><ele>990.8</ele><time>2026-04-25T10:23:04.999Z</time></trkpt><trkpt lat="36.574518046561096" lon="-5.167831555716805"><ele>988.5999999999999</ele><time>2026-04-25T10:23:05.999Z</time></trkpt><trkpt lat="36.574450756984255" lon="-5.167854354056964"><ele>986.4000000000001</ele><time>2026-04-25T10:23:06.999Z</time></trkpt><trkpt lat="36.57438954130922" lon="-5.167879862280295"><ele>984.2</ele><time>2026-04-25T10:23:07.999Z</time></trkpt><trkpt lat="36.57427931525357" lon="-5.167913311822917"><ele>982.0</ele><time>2026-04-25T10:23:09.999Z</time></trkpt><trkpt lat="36.574135444807446" lon="-5.167908740440375"><ele>981.9999999999999</ele><time>2026-04-25T10:23:11.999Z</time></trkpt><trkpt lat="36.57405882593094" lon="-5.167890304174807"><ele>982.0</ele><time>2026-04-25T10:23:12.999Z</time></trkpt><trkpt lat="36.57398824791408" lon="-5.16787080057335"><ele>982.0</ele><time>2026-04-25T10:23:13.999Z</time></trkpt><trkpt lat="36.573921723442474" lon="-5.167850415546424"><ele>982.0</ele><time>2026-04-25T10:23:14.999Z</time></trkpt><trkpt lat="36.5738564560407" lon="-5.1678295324346415"><ele>981.9999999999999</ele><time>2026-04-25T10:23:15.999Z</time></trkpt><trkpt lat="36.573728797924126" lon="-5.1677855253774725"><ele>982.0</ele><time>2026-04-25T10:23:17.999Z</time></trkpt><trkpt lat="36.57365452408121" lon="-5.167770954266134"><ele>979.8333333333333</ele><time>2026-04-25T10:23:18.999Z</time></trkpt><trkpt lat="36.57358616363059" lon="-5.167757867763458"><ele>977.6666666666666</ele><time>2026-04-25T10:23:19.999Z</time></trkpt><trkpt lat="36.57352366325809" lon="-5.167747791193947"><ele>975.5</ele><time>2026-04-25T10:23:20.999Z</time></trkpt><trkpt lat="36.5734073016387" lon="-5.167713579739807"><ele>973.3333333333333</ele><time>2026-04-25T10:23:22.999Z</time></trkpt><trkpt lat="36.57335246791199" lon="-5.16766086194058"><ele>971.1666666666666</ele><time>2026-04-25T10:23:23.999Z</time></trkpt><trkpt lat="36.57329280560735" lon="-5.167596587954048"><ele>969.0</ele><time>2026-04-25T10:23:24.999Z</time></trkpt><trkpt lat="36.57323856818721" lon="-5.167544256721994"><ele>968.9999999999999</ele><time>2026-04-25T10:23:25.999Z</time></trkpt><trkpt lat="36.573186938218505" lon="-5.167496183832888"><ele>969.0</ele><time>2026-04-25T10:23:26.999Z</time></trkpt><trkpt lat="36.57313326635394" lon="-5.1674501725649575"><ele>968.9999999999999</ele><time>2026-04-25T10:23:27.999Z</time></trkpt><trkpt lat="36.57308065900901" lon="-5.167405073666194"><ele>968.9999999999999</ele><time>2026-04-25T10:23:28.999Z</time></trkpt><trkpt lat="36.5730316093282" lon="-5.16734865428338"><ele>969.0</ele><time>2026-04-25T10:23:29.999Z</time></trkpt><trkpt lat="36.572981762488325" lon="-5.167298121536876"><ele>968.9999999999999</ele><time>2026-04-25T10:23:30.999Z</time></trkpt><trkpt lat="36.57288268541583" lon="-5.167216502014116"><ele>968.9999999999999</ele><time>2026-04-25T10:23:32.999Z</time></trkpt><trkpt lat="36.57277336099933" lon="-5.167133865398755"><ele>965.3333333333334</ele><time>2026-04-25T10:23:34.999Z</time></trkpt><trkpt lat="36.57270441193277" lon="-5.16711659846538"><ele>961.6666666666667</ele><time>2026-04-25T10:23:35.999Z</time></trkpt><trkpt lat="36.57263894296687" lon="-5.167111427536577"><ele>958.0</ele><time>2026-04-25T10:23:36.999Z</time></trkpt><trkpt lat="36.572571701173935" lon="-5.16711872741312"><ele>954.3333333333334</ele><time>2026-04-25T10:23:37.999Z</time></trkpt><trkpt lat="36.572508191870234" lon="-5.167124794348839"><ele>950.6666666666667</ele><time>2026-04-25T10:23:38.999Z</time></trkpt><trkpt lat="36.57240564692337" lon="-5.167095163167346"><ele>947.0</ele><time>2026-04-25T10:23:40.999Z</time></trkpt><trkpt lat="36.572301177583086" lon="-5.1670305763616815"><ele>947.0000000000001</ele><time>2026-04-25T10:23:42.999Z</time></trkpt><trkpt lat="36.57226856316063" lon="-5.166960625568844"><ele>947.0</ele><time>2026-04-25T10:23:43.999Z</time></trkpt><trkpt lat="36.57225460002417" lon="-5.166868876132351"><ele>947.0</ele><time>2026-04-25T10:23:44.999Z</time></trkpt><trkpt lat="36.57222752080526" lon="-5.166713476785361"><ele>947.0</ele><time>2026-04-25T10:23:46.999Z</time></trkpt><trkpt lat="36.572205197770174" lon="-5.16663448352782"><ele>947.0000000000001</ele><time>2026-04-25T10:23:47.999Z</time></trkpt><trkpt lat="36.57217305806777" lon="-5.166549799956698"><ele>947.0</ele><time>2026-04-25T10:23:48.999Z</time></trkpt><trkpt lat="36.572129473190714" lon="-5.1664801702695335"><ele>945.0000000000001</ele><time>2026-04-25T10:23:49.999Z</time></trkpt><trkpt lat="36.57207832463445" lon="-5.166407216362657"><ele>943.0</ele><time>2026-04-25T10:23:50.999Z</time></trkpt><trkpt lat="36.57202811995614" lon="-5.166337915298261"><ele>941.0</ele><time>2026-04-25T10:23:51.999Z</time></trkpt><trkpt lat="36.57198212217406" lon="-5.166271158326867"><ele>939.0</ele><time>2026-04-25T10:23:52.999Z</time></trkpt><trkpt lat="36.571940719622795" lon="-5.1662110709908795"><ele>937.0000000000001</ele><time>2026-04-25T10:23:53.999Z</time></trkpt><trkpt lat="36.57187557431304" lon="-5.166075083546262"><ele>935.0</ele><time>2026-04-25T10:23:55.999Z</time></trkpt><trkpt lat="36.5718361999455" lon="-5.166009372142868"><ele>935.0000000000001</ele><time>2026-04-25T10:23:56.999Z</time></trkpt><trkpt lat="36.57178137025161" lon="-5.165904219072107"><ele>935.0</ele><time>2026-04-25T10:23:58.999Z</time></trkpt><trkpt lat="36.571714408095396" lon="-5.165839897060405"><ele>935.0</ele><time>2026-04-25T10:24:01Z</time></trkpt><trkpt lat="36.57164346309441" lon="-5.165865610302118"><ele>935.0</ele><time>2026-04-25T10:24:08Z</time></trkpt><trkpt lat="36.571592027841376" lon="-5.165910949445083"><ele>935.0000000000001</ele><time>2026-04-25T10:24:09Z</time></trkpt><trkpt lat="36.571526802554345" lon="-5.165951695270361"><ele>935.0</ele><time>2026-04-25T10:24:10Z</time></trkpt><trkpt lat="36.571433452956775" lon="-5.166027477107739"><ele>935.0</ele><time>2026-04-25T10:24:12Z</time></trkpt><trkpt lat="36.571327372556375" lon="-5.166107466180999"><ele>935.0</ele><time>2026-04-25T10:24:14Z</time></trkpt><trkpt lat="36.5712675504301" lon="-5.166153894170415"><ele>935.0</ele><time>2026-04-25T10:24:15Z</time></trkpt><trkpt lat="36.571209350883144" lon="-5.16618383652982"><ele>935.0</ele><time>2026-04-25T10:24:16Z</time></trkpt><trkpt lat="36.57108084640529" lon="-5.166220202143556"><ele>935.0</ele><time>2026-04-25T10:24:18Z</time></trkpt><trkpt lat="36.5709498927436" lon="-5.166248577956306"><ele>935.2857142857144</ele><time>2026-04-25T10:24:20Z</time></trkpt><trkpt lat="36.570879812852056" lon="-5.166251147045308"><ele>935.5714285714287</ele><time>2026-04-25T10:24:21Z</time></trkpt><trkpt lat="36.57081711068297" lon="-5.166278730639827"><ele>935.8571428571429</ele><time>2026-04-25T10:24:22Z</time></trkpt><trkpt lat="36.570747588470276" lon="-5.166291921228444"><ele>936.1428571428572</ele><time>2026-04-25T10:24:23Z</time></trkpt><trkpt lat="36.57067995420341" lon="-5.166305383873639"><ele>936.4285714285716</ele><time>2026-04-25T10:24:24Z</time></trkpt><trkpt lat="36.57061635319406" lon="-5.166314377708009"><ele>936.7142857142857</ele><time>2026-04-25T10:24:25Z</time></trkpt><trkpt lat="36.57050716039778" lon="-5.166309257322359"><ele>937.0</ele><time>2026-04-25T10:24:27Z</time></trkpt><trkpt lat="36.570401083161" lon="-5.166273110517052"><ele>937.8333333333333</ele><time>2026-04-25T10:24:29Z</time></trkpt><trkpt lat="36.570337520970284" lon="-5.166283269191619"><ele>938.6666666666666</ele><time>2026-04-25T10:24:30Z</time></trkpt><trkpt lat="36.570214254213965" lon="-5.166354291610381"><ele>939.5</ele><time>2026-04-25T10:24:32Z</time></trkpt><trkpt lat="36.57013816703514" lon="-5.166381265880954"><ele>940.3333333333333</ele><time>2026-04-25T10:24:33Z</time></trkpt><trkpt lat="36.57007481027328" lon="-5.166423864430095"><ele>941.1666666666666</ele><time>2026-04-25T10:24:34Z</time></trkpt><trkpt lat="36.57002029062998" lon="-5.166486746665177"><ele>942.0</ele><time>2026-04-25T10:24:35Z</time></trkpt><trkpt lat="36.56995196142725" lon="-5.166540887142207"><ele>937.3333333333334</ele><time>2026-04-25T10:24:36Z</time></trkpt><trkpt lat="36.569890256879134" lon="-5.166597641541238"><ele>932.6666666666667</ele><time>2026-04-25T10:24:37Z</time></trkpt><trkpt lat="36.56983582124897" lon="-5.166651976724477"><ele>928.0</ele><time>2026-04-25T10:24:38Z</time></trkpt><trkpt lat="36.56978580987204" lon="-5.166710720878952"><ele>923.3333333333334</ele><time>2026-04-25T10:24:39Z</time></trkpt><trkpt lat="36.569709914061825" lon="-5.166816878202136"><ele>918.6666666666667</ele><time>2026-04-25T10:24:41Z</time></trkpt><trkpt lat="36.56964886947314" lon="-5.166935906641507"><ele>914.0</ele><time>2026-04-25T10:24:43Z</time></trkpt><trkpt lat="36.56961229787446" lon="-5.167010756573039"><ele>914.0</ele><time>2026-04-25T10:24:44Z</time></trkpt><trkpt lat="36.56953368798356" lon="-5.167132152157597"><ele>914.0000000000001</ele><time>2026-04-25T10:24:46Z</time></trkpt><trkpt lat="36.56948537286287" lon="-5.1671856909997"><ele>914.0000000000001</ele><time>2026-04-25T10:24:47Z</time></trkpt><trkpt lat="36.569393564935936" lon="-5.167276028084798"><ele>914.0</ele><time>2026-04-25T10:24:49Z</time></trkpt><trkpt lat="36.569303951647825" lon="-5.167371066419676"><ele>914.0</ele><time>2026-04-25T10:24:51Z</time></trkpt><trkpt lat="36.56923580819332" lon="-5.167422099133006"><ele>913.5714285714287</ele><time>2026-04-25T10:24:52Z</time></trkpt><trkpt lat="36.56918934881456" lon="-5.16749993338218"><ele>913.1428571428571</ele><time>2026-04-25T10:24:52.999Z</time></trkpt><trkpt lat="36.569140476762826" lon="-5.167562062284639"><ele>912.7142857142858</ele><time>2026-04-25T10:24:53.999Z</time></trkpt><trkpt lat="36.56908425056745" lon="-5.167619435687137"><ele>912.2857142857143</ele><time>2026-04-25T10:24:54.999Z</time></trkpt><trkpt lat="36.5690275973133" lon="-5.167662548625017"><ele>911.8571428571429</ele><time>2026-04-25T10:24:55.999Z</time></trkpt><trkpt lat="36.56896694701137" lon="-5.167696362659021"><ele>911.4285714285714</ele><time>2026-04-25T10:24:56.999Z</time></trkpt><trkpt lat="36.5689044181599" lon="-5.167725442163994"><ele>911.0</ele><time>2026-04-25T10:24:57.999Z</time></trkpt><trkpt lat="36.56880620961682" lon="-5.167761092027438"><ele>911.0</ele><time>2026-04-25T10:24:59.999Z</time></trkpt><trkpt lat="36.56873062851732" lon="-5.1677996442311285"><ele>910.9999999999999</ele><time>2026-04-25T10:25:01.999Z</time></trkpt><trkpt lat="36.568723283902" lon="-5.167896315722829"><ele>910.9999999999999</ele><time>2026-04-25T10:25:03.999Z</time></trkpt><trkpt lat="36.56876732760237" lon="-5.167994304781446"><ele>911.0</ele><time>2026-04-25T10:25:05.999Z</time></trkpt><trkpt lat="36.56884847753008" lon="-5.168046937500686"><ele>911.0</ele><time>2026-04-25T10:25:07.999Z</time></trkpt><trkpt lat="36.568940668900915" lon="-5.1681228985591305"><ele>911.0</ele><time>2026-04-25T10:25:09.999Z</time></trkpt><trkpt lat="36.568989570031036" lon="-5.168180624284961"><ele>911.0</ele><time>2026-04-25T10:25:10.999Z</time></trkpt><trkpt lat="36.56903377036879" lon="-5.168239955439988"><ele>911.0</ele><time>2026-04-25T10:25:11.999Z</time></trkpt><trkpt lat="36.56907140490644" lon="-5.168318063023375"><ele>911.0</ele><time>2026-04-25T10:25:12.999Z</time></trkpt><trkpt lat="36.569100950237804" lon="-5.168388061142251"><ele>911.0</ele><time>2026-04-25T10:25:13.999Z</time></trkpt><trkpt lat="36.56912913076613" lon="-5.168477915926656"><ele>911.0</ele><time>2026-04-25T10:25:14.999Z</time></trkpt><trkpt lat="36.569164686103925" lon="-5.168568380290347"><ele>911.0</ele><time>2026-04-25T10:25:15.999Z</time></trkpt><trkpt lat="36.56919632077744" lon="-5.168643144867534"><ele>908.6666666666667</ele><time>2026-04-25T10:25:16.999Z</time></trkpt><trkpt lat="36.56922677211162" lon="-5.168715617040012"><ele>906.3333333333334</ele><time>2026-04-25T10:25:17.999Z</time></trkpt><trkpt lat="36.569254647221435" lon="-5.168790167211547"><ele>904.0</ele><time>2026-04-25T10:25:18.999Z</time></trkpt><trkpt lat="36.56929355437314" lon="-5.168918706545251"><ele>901.6666666666667</ele><time>2026-04-25T10:25:20.999Z</time></trkpt><trkpt lat="36.56928422527793" lon="-5.169052974905199"><ele>899.3333333333334</ele><time>2026-04-25T10:25:22.999Z</time></trkpt><trkpt lat="36.569261960017236" lon="-5.169127048293141"><ele>897.0</ele><time>2026-04-25T10:25:23.999Z</time></trkpt><trkpt lat="36.569228366779676" lon="-5.169206043789918"><ele>895.8571428571429</ele><time>2026-04-25T10:25:24.999Z</time></trkpt><trkpt lat="36.56919196303268" lon="-5.169275393517158"><ele>894.7142857142857</ele><time>2026-04-25T10:25:25.999Z</time></trkpt><trkpt lat="36.56914767065401" lon="-5.169332377838795"><ele>893.5714285714286</ele><time>2026-04-25T10:25:26.999Z</time></trkpt><trkpt lat="36.56909645452491" lon="-5.16938287136023"><ele>892.4285714285714</ele><time>2026-04-25T10:25:27.999Z</time></trkpt><trkpt lat="36.569037418361354" lon="-5.169415478396723"><ele>891.2857142857142</ele><time>2026-04-25T10:25:28.999Z</time></trkpt><trkpt lat="36.568968892668366" lon="-5.169433926059742"><ele>890.1428571428571</ele><time>2026-04-25T10:25:29.999Z</time></trkpt><trkpt lat="36.56889943977757" lon="-5.169468286660376"><ele>889.0</ele><time>2026-04-25T10:25:30.999Z</time></trkpt><trkpt lat="36.568823137825134" lon="-5.169469139357273"><ele>889.0</ele><time>2026-04-25T10:25:31.999Z</time></trkpt><trkpt lat="36.568741598942985" lon="-5.169452874168262"><ele>889.0</ele><time>2026-04-25T10:25:32.999Z</time></trkpt><trkpt lat="36.5686714555467" lon="-5.169445398653585"><ele>889.0</ele><time>2026-04-25T10:25:33.999Z</time></trkpt><trkpt lat="36.56859931203193" lon="-5.169437709977832"><ele>889.0</ele><time>2026-04-25T10:25:34.999Z</time></trkpt><trkpt lat="36.56852343339322" lon="-5.169432355033512"><ele>889.0</ele><time>2026-04-25T10:25:35.999Z</time></trkpt><trkpt lat="36.56845004270428" lon="-5.169430765617467"><ele>889.0</ele><time>2026-04-25T10:25:36.999Z</time></trkpt><trkpt lat="36.56838661259193" lon="-5.169432106410498"><ele>889.0</ele><time>2026-04-25T10:25:37.999Z</time></trkpt><trkpt lat="36.56826331781567" lon="-5.169436289921068"><ele>891.1666666666666</ele><time>2026-04-25T10:25:39.999Z</time></trkpt><trkpt lat="36.568199352963" lon="-5.169418192333373"><ele>893.3333333333333</ele><time>2026-04-25T10:25:40.999Z</time></trkpt><trkpt lat="36.568107938519425" lon="-5.169451408462671"><ele>895.5</ele><time>2026-04-25T10:25:42.999Z</time></trkpt><trkpt lat="36.56806286004297" lon="-5.16955256697259"><ele>897.6666666666667</ele><time>2026-04-25T10:25:44.999Z</time></trkpt><trkpt lat="36.56810919760927" lon="-5.169665146203623"><ele>899.8333333333334</ele><time>2026-04-25T10:25:46.999Z</time></trkpt><trkpt lat="36.56814712985983" lon="-5.169771578778988"><ele>902.0</ele><time>2026-04-25T10:25:48.999Z</time></trkpt><trkpt lat="36.568164053534296" lon="-5.16987776830982"><ele>901.8333333333334</ele><time>2026-04-25T10:25:50.999Z</time></trkpt><trkpt lat="36.56812505514922" lon="-5.1699940002310125"><ele>901.6666666666667</ele><time>2026-04-25T10:25:52.999Z</time></trkpt><trkpt lat="36.56803200940407" lon="-5.170090113143244"><ele>901.5</ele><time>2026-04-25T10:25:54.999Z</time></trkpt><trkpt lat="36.56796923850413" lon="-5.170133422607642"><ele>901.3333333333333</ele><time>2026-04-25T10:25:55.999Z</time></trkpt><trkpt lat="36.56791041236703" lon="-5.1701718068938645"><ele>901.1666666666666</ele><time>2026-04-25T10:25:56.999Z</time></trkpt><trkpt lat="36.56785340709561" lon="-5.170219452264659"><ele>901.0</ele><time>2026-04-25T10:25:57.999Z</time></trkpt><trkpt lat="36.567805718976985" lon="-5.170273886090947"><ele>900.9999999999999</ele><time>2026-04-25T10:25:58.999Z</time></trkpt><trkpt lat="36.56776395598056" lon="-5.170397407892545"><ele>901.0</ele><time>2026-04-25T10:26:00.999Z</time></trkpt><trkpt lat="36.567770250335116" lon="-5.170479856198845"><ele>901.0</ele><time>2026-04-25T10:26:01.999Z</time></trkpt><trkpt lat="36.56778201914999" lon="-5.170571352439406"><ele>901.0</ele><time>2026-04-25T10:26:02.999Z</time></trkpt><trkpt lat="36.567783039994" lon="-5.17065992175961"><ele>900.9999999999999</ele><time>2026-04-25T10:26:03.999Z</time></trkpt><trkpt lat="36.56777012046275" lon="-5.170742776877448"><ele>901.0</ele><time>2026-04-25T10:26:04.999Z</time></trkpt><trkpt lat="36.56775427773583" lon="-5.170822730980644"><ele>898.0</ele><time>2026-04-25T10:26:05.999Z</time></trkpt><trkpt lat="36.56773598639965" lon="-5.170902859668063"><ele>895.0000000000001</ele><time>2026-04-25T10:26:07Z</time></trkpt><trkpt lat="36.56770340085435" lon="-5.170978245842773"><ele>892.0</ele><time>2026-04-25T10:26:08Z</time></trkpt><trkpt lat="36.56766044767085" lon="-5.171053229448361"><ele>889.0</ele><time>2026-04-25T10:26:09Z</time></trkpt><trkpt lat="36.56761742137202" lon="-5.171132478232961"><ele>886.0</ele><time>2026-04-25T10:26:10Z</time></trkpt><trkpt lat="36.56754978946093" lon="-5.171176984124974"><ele>883.0</ele><time>2026-04-25T10:26:11Z</time></trkpt><trkpt lat="36.56747564019797" lon="-5.1712031823085045"><ele>880.0</ele><time>2026-04-25T10:26:12Z</time></trkpt><trkpt lat="36.56741416941974" lon="-5.171242112964234"><ele>879.9999999999999</ele><time>2026-04-25T10:26:13Z</time></trkpt><trkpt lat="36.56733851399966" lon="-5.171271757448522"><ele>880.0</ele><time>2026-04-25T10:26:14Z</time></trkpt><trkpt lat="36.56726437992908" lon="-5.171279046247817"><ele>880.0</ele><time>2026-04-25T10:26:15Z</time></trkpt><trkpt lat="36.567186889558585" lon="-5.171280332230636"><ele>880.0</ele><time>2026-04-25T10:26:16Z</time></trkpt><trkpt lat="36.56710782261255" lon="-5.171291079107103"><ele>879.9999999999999</ele><time>2026-04-25T10:26:17Z</time></trkpt><trkpt lat="36.567027486188344" lon="-5.171260906297108"><ele>880.0</ele><time>2026-04-25T10:26:18Z</time></trkpt><trkpt lat="36.56691353799443" lon="-5.1712057782341665"><ele>882.6666666666666</ele><time>2026-04-25T10:26:20Z</time></trkpt><trkpt lat="36.56685278191429" lon="-5.1711683650043"><ele>885.3333333333333</ele><time>2026-04-25T10:26:21Z</time></trkpt><trkpt lat="36.56675957687516" lon="-5.171124757566498"><ele>888.0</ele><time>2026-04-25T10:26:23Z</time></trkpt><trkpt lat="36.56667934910775" lon="-5.171201470114467"><ele>890.6666666666667</ele><time>2026-04-25T10:26:25Z</time></trkpt><trkpt lat="36.5666591900952" lon="-5.171287906953853"><ele>893.3333333333334</ele><time>2026-04-25T10:26:26Z</time></trkpt><trkpt lat="36.56664317790323" lon="-5.171384859527159"><ele>896.0</ele><time>2026-04-25T10:26:27Z</time></trkpt><trkpt lat="36.56664611056333" lon="-5.171491166984901"><ele>891.1666666666667</ele><time>2026-04-25T10:26:28Z</time></trkpt><trkpt lat="36.56663331543866" lon="-5.171589695087369"><ele>886.3333333333334</ele><time>2026-04-25T10:26:29Z</time></trkpt><trkpt lat="36.56659894972231" lon="-5.171696140448382"><ele>881.5</ele><time>2026-04-25T10:26:30Z</time></trkpt><trkpt lat="36.56658251799545" lon="-5.1717928985682375"><ele>876.6666666666667</ele><time>2026-04-25T10:26:31Z</time></trkpt><trkpt lat="36.566566216632005" lon="-5.171891584903024"><ele>871.8333333333334</ele><time>2026-04-25T10:26:32Z</time></trkpt><trkpt lat="36.566526751461396" lon="-5.171988147124406"><ele>867.0</ele><time>2026-04-25T10:26:33Z</time></trkpt><trkpt lat="36.56648871244515" lon="-5.1720809035563295"><ele>867.0</ele><time>2026-04-25T10:26:34Z</time></trkpt><trkpt lat="36.56645073836626" lon="-5.1721766262552"><ele>867.0</ele><time>2026-04-25T10:26:35Z</time></trkpt><trkpt lat="36.56643957477568" lon="-5.172284511560401"><ele>867.0</ele><time>2026-04-25T10:26:36Z</time></trkpt><trkpt lat="36.56643788134576" lon="-5.1723777121777585"><ele>867.0</ele><time>2026-04-25T10:26:37Z</time></trkpt><trkpt lat="36.56642398963394" lon="-5.172466098532026"><ele>867.0</ele><time>2026-04-25T10:26:38Z</time></trkpt><trkpt lat="36.56640975694984" lon="-5.1725577187513645"><ele>867.0</ele><time>2026-04-25T10:26:39Z</time></trkpt><trkpt lat="36.56637536231287" lon="-5.172637720413735"><ele>864.6666666666666</ele><time>2026-04-25T10:26:40Z</time></trkpt><trkpt lat="36.56628161957677" lon="-5.172728478181007"><ele>862.3333333333333</ele><time>2026-04-25T10:26:42Z</time></trkpt><trkpt lat="36.56621085166102" lon="-5.172726099819981"><ele>860.0</ele><time>2026-04-25T10:26:43Z</time></trkpt><trkpt lat="36.56613261825442" lon="-5.172704712676272"><ele>857.6666666666666</ele><time>2026-04-25T10:26:44Z</time></trkpt><trkpt lat="36.56605760128959" lon="-5.172669691437768"><ele>855.3333333333333</ele><time>2026-04-25T10:26:45Z</time></trkpt><trkpt lat="36.56597478921126" lon="-5.172630563662801"><ele>853.0</ele><time>2026-04-25T10:26:46Z</time></trkpt><trkpt lat="36.56590609443333" lon="-5.1725757365756975"><ele>852.9999999999999</ele><time>2026-04-25T10:26:47Z</time></trkpt><trkpt lat="36.56584423599625" lon="-5.172479580291494"><ele>853.0</ele><time>2026-04-25T10:26:48Z</time></trkpt><trkpt lat="36.56577969772813" lon="-5.172381884301857"><ele>853.0</ele><time>2026-04-25T10:26:49Z</time></trkpt><trkpt lat="36.565734551121324" lon="-5.172291376593529"><ele>853.0</ele><time>2026-04-25T10:26:50Z</time></trkpt><trkpt lat="36.56568744729528" lon="-5.172214665255636"><ele>852.9999999999999</ele><time>2026-04-25T10:26:51Z</time></trkpt><trkpt lat="36.565640886439986" lon="-5.172144012983848"><ele>853.0</ele><time>2026-04-25T10:26:52Z</time></trkpt><trkpt lat="36.56558532743439" lon="-5.172102595292462"><ele>856.8333333333333</ele><time>2026-04-25T10:26:53Z</time></trkpt><trkpt lat="36.5655084354048" lon="-5.172091470684975"><ele>860.6666666666666</ele><time>2026-04-25T10:26:54Z</time></trkpt><trkpt lat="36.565424823841255" lon="-5.172082998778065"><ele>864.5</ele><time>2026-04-25T10:26:55Z</time></trkpt><trkpt lat="36.565346403467856" lon="-5.172058172170411"><ele>868.3333333333333</ele><time>2026-04-25T10:26:56Z</time></trkpt><trkpt lat="36.56528080896049" lon="-5.172032848528714"><ele>872.1666666666666</ele><time>2026-04-25T10:26:57Z</time></trkpt><trkpt lat="36.56520985953732" lon="-5.1720044142476596"><ele>876.0</ele><time>2026-04-25T10:26:58Z</time></trkpt><trkpt lat="36.56514730965162" lon="-5.171965788753808"><ele>876.0</ele><time>2026-04-25T10:26:59Z</time></trkpt><trkpt lat="36.56509862473228" lon="-5.1719144820017275"><ele>876.0</ele><time>2026-04-25T10:27:00Z</time></trkpt><trkpt lat="36.564994532163524" lon="-5.171833528865451"><ele>876.0</ele><time>2026-04-25T10:27:02Z</time></trkpt><trkpt lat="36.564931001076275" lon="-5.171842671728178"><ele>876.0</ele><time>2026-04-25T10:27:02.999Z</time></trkpt><trkpt lat="36.564869737032524" lon="-5.171941068297837"><ele>876.0</ele><time>2026-04-25T10:27:03.999Z</time></trkpt><trkpt lat="36.56486603167326" lon="-5.1720618114000425"><ele>876.0</ele><time>2026-04-25T10:27:04.999Z</time></trkpt><trkpt lat="36.5648950879204" lon="-5.172147032530355"><ele>876.0</ele><time>2026-04-25T10:27:05.999Z</time></trkpt><trkpt lat="36.56489020418597" lon="-5.172229988883488"><ele>876.0</ele><time>2026-04-25T10:27:06.999Z</time></trkpt><trkpt lat="36.56488112285243" lon="-5.172329196101766"><ele>876.0</ele><time>2026-04-25T10:27:07.999Z</time></trkpt><trkpt lat="36.56484298341702" lon="-5.172420669213383"><ele>876.0</ele><time>2026-04-25T10:27:08.999Z</time></trkpt><trkpt lat="36.56481342441528" lon="-5.172520250602994"><ele>876.0</ele><time>2026-04-25T10:27:09.999Z</time></trkpt><trkpt lat="36.56475481074209" lon="-5.17259702147485"><ele>876.0</ele><time>2026-04-25T10:27:10.999Z</time></trkpt><trkpt lat="36.56468855638918" lon="-5.172654306269764"><ele>874.5714285714286</ele><time>2026-04-25T10:27:11.999Z</time></trkpt><trkpt lat="36.56464764999853" lon="-5.172731015253753"><ele>873.1428571428571</ele><time>2026-04-25T10:27:12.999Z</time></trkpt><trkpt lat="36.56458632745697" lon="-5.172766729792292"><ele>871.7142857142857</ele><time>2026-04-25T10:27:13.999Z</time></trkpt><trkpt lat="36.56451929859367" lon="-5.172791972471848"><ele>870.2857142857142</ele><time>2026-04-25T10:27:14.999Z</time></trkpt><trkpt lat="36.56443652512474" lon="-5.172805411069736"><ele>868.8571428571429</ele><time>2026-04-25T10:27:15.999Z</time></trkpt><trkpt lat="36.564354845523475" lon="-5.17280835303861"><ele>867.4285714285713</ele><time>2026-04-25T10:27:16.999Z</time></trkpt><trkpt lat="36.56428811507724" lon="-5.172806376101905"><ele>866.0</ele><time>2026-04-25T10:27:17.999Z</time></trkpt><trkpt lat="36.56420220217361" lon="-5.172840060297011"><ele>866.0000000000001</ele><time>2026-04-25T10:27:19.999Z</time></trkpt><trkpt lat="36.56418548931249" lon="-5.172966031643571"><ele>866.0</ele><time>2026-04-25T10:27:21.999Z</time></trkpt><trkpt lat="36.56419977005272" lon="-5.173055205960812"><ele>866.0</ele><time>2026-04-25T10:27:22.999Z</time></trkpt><trkpt lat="36.56421270727709" lon="-5.173134403169442"><ele>866.0</ele><time>2026-04-25T10:27:23.999Z</time></trkpt><trkpt lat="36.564225049065065" lon="-5.173226366219756"><ele>866.0000000000001</ele><time>2026-04-25T10:27:24.999Z</time></trkpt><trkpt lat="36.564253991520985" lon="-5.173317117028327"><ele>866.0</ele><time>2026-04-25T10:27:25.999Z</time></trkpt><trkpt lat="36.56430802805593" lon="-5.173407855190598"><ele>863.7142857142857</ele><time>2026-04-25T10:27:26.999Z</time></trkpt><trkpt lat="36.56436314802275" lon="-5.17347766937731"><ele>861.4285714285714</ele><time>2026-04-25T10:27:27.999Z</time></trkpt><trkpt lat="36.5643971321117" lon="-5.173546825943644"><ele>859.1428571428571</ele><time>2026-04-25T10:27:28.999Z</time></trkpt><trkpt lat="36.56441029401978" lon="-5.173625985871368"><ele>856.8571428571429</ele><time>2026-04-25T10:27:29.999Z</time></trkpt><trkpt lat="36.564415011654795" lon="-5.1737173600979425"><ele>854.5714285714286</ele><time>2026-04-25T10:27:30.999Z</time></trkpt><trkpt lat="36.56441694452879" lon="-5.17379906534367"><ele>852.2857142857142</ele><time>2026-04-25T10:27:31.999Z</time></trkpt><trkpt lat="36.564410876043496" lon="-5.173883175408253"><ele>850.0</ele><time>2026-04-25T10:27:32.999Z</time></trkpt><trkpt lat="36.5643807016315" lon="-5.173958421280359"><ele>847.8</ele><time>2026-04-25T10:27:33.999Z</time></trkpt><trkpt lat="36.56435620475504" lon="-5.17405130315354"><ele>845.6</ele><time>2026-04-25T10:27:34.999Z</time></trkpt><trkpt lat="36.56430620781617" lon="-5.174153484806085"><ele>843.4000000000001</ele><time>2026-04-25T10:27:35.999Z</time></trkpt><trkpt lat="36.56422519298432" lon="-5.174249634472713"><ele>841.2</ele><time>2026-04-25T10:27:36.999Z</time></trkpt><trkpt lat="36.56413879674518" lon="-5.174389184179109"><ele>839.0</ele><time>2026-04-25T10:27:37.999Z</time></trkpt><trkpt lat="36.5640255933072" lon="-5.174532454568602"><ele>839.0</ele><time>2026-04-25T10:27:38.999Z</time></trkpt><trkpt lat="36.56392890711155" lon="-5.174652673981643"><ele>839.0</ele><time>2026-04-25T10:27:39.999Z</time></trkpt><trkpt lat="36.563852621806355" lon="-5.174722062041054"><ele>839.0</ele><time>2026-04-25T10:27:40.999Z</time></trkpt><trkpt lat="36.56380498909376" lon="-5.174820591483202"><ele>839.0</ele><time>2026-04-25T10:27:41.999Z</time></trkpt><trkpt lat="36.56377082171616" lon="-5.174933883550316"><ele>839.0</ele><time>2026-04-25T10:27:42.999Z</time></trkpt><trkpt lat="36.563771811062374" lon="-5.175060952613155"><ele>835.6</ele><time>2026-04-25T10:27:43.999Z</time></trkpt><trkpt lat="36.563791032153894" lon="-5.175213936134494"><ele>832.2</ele><time>2026-04-25T10:27:44.999Z</time></trkpt><trkpt lat="36.56380122908245" lon="-5.175318607062368"><ele>828.8000000000001</ele><time>2026-04-25T10:27:45.999Z</time></trkpt><trkpt lat="36.563802258634716" lon="-5.1754055910668635"><ele>825.4000000000001</ele><time>2026-04-25T10:27:46.999Z</time></trkpt><trkpt lat="36.56386558838367" lon="-5.175542263992531"><ele>822.0</ele><time>2026-04-25T10:27:48.999Z</time></trkpt><trkpt lat="36.56395362020974" lon="-5.175598382874151"><ele>822.0</ele><time>2026-04-25T10:27:49.999Z</time></trkpt><trkpt lat="36.56402830059437" lon="-5.175667883706974"><ele>822.0</ele><time>2026-04-25T10:27:50.999Z</time></trkpt><trkpt lat="36.564071633731395" lon="-5.175754201380116"><ele>822.0</ele><time>2026-04-25T10:27:51.999Z</time></trkpt><trkpt lat="36.56410136407408" lon="-5.175854823199945"><ele>822.0</ele><time>2026-04-25T10:27:52.999Z</time></trkpt><trkpt lat="36.56410813370591" lon="-5.175966991203932"><ele>822.0</ele><time>2026-04-25T10:27:53.999Z</time></trkpt><trkpt lat="36.56409386706632" lon="-5.176108539739644"><ele>822.25</ele><time>2026-04-25T10:27:54.999Z</time></trkpt><trkpt lat="36.564069443474146" lon="-5.176264622131697"><ele>822.5</ele><time>2026-04-25T10:27:55.999Z</time></trkpt><trkpt lat="36.56408474713889" lon="-5.176418860849053"><ele>822.75</ele><time>2026-04-25T10:27:56.999Z</time></trkpt><trkpt lat="36.564085799355084" lon="-5.176584124254318"><ele>823.0</ele><time>2026-04-25T10:27:57.999Z</time></trkpt><trkpt lat="36.56411054424232" lon="-5.176738690825809"><ele>821.8</ele><time>2026-04-25T10:27:58.999Z</time></trkpt><trkpt lat="36.56412814497574" lon="-5.176867975717555"><ele>820.5999999999999</ele><time>2026-04-25T10:27:59.999Z</time></trkpt><trkpt lat="36.5641513298523" lon="-5.176996202971123"><ele>819.4000000000001</ele><time>2026-04-25T10:28:00.999Z</time></trkpt><trkpt lat="36.56417867136573" lon="-5.177125786669143"><ele>818.2</ele><time>2026-04-25T10:28:01.999Z</time></trkpt><trkpt lat="36.5642060239737" lon="-5.177244862327738"><ele>817.0</ele><time>2026-04-25T10:28:02.999Z</time></trkpt><trkpt lat="36.56423632565531" lon="-5.177353201143522"><ele>816.4999999999999</ele><time>2026-04-25T10:28:03.999Z</time></trkpt><trkpt lat="36.56425054825851" lon="-5.177453538671307"><ele>816.0</ele><time>2026-04-25T10:28:04.999Z</time></trkpt><trkpt lat="36.564259569107385" lon="-5.177541939731135"><ele>815.5</ele><time>2026-04-25T10:28:05.999Z</time></trkpt><trkpt lat="36.564237666485745" lon="-5.177635254814454"><ele>815.0</ele><time>2026-04-25T10:28:06.999Z</time></trkpt><trkpt lat="36.56417392513722" lon="-5.1777110866630505"><ele>814.4999999999999</ele><time>2026-04-25T10:28:07.999Z</time></trkpt><trkpt lat="36.56404789696113" lon="-5.177732298143957"><ele>814.0</ele><time>2026-04-25T10:28:08.999Z</time></trkpt><trkpt lat="36.56392937985434" lon="-5.177743345941559"><ele>814.0</ele><time>2026-04-25T10:28:09.999Z</time></trkpt><trkpt lat="36.56384475583132" lon="-5.1777595098395395"><ele>814.0</ele><time>2026-04-25T10:28:10.999Z</time></trkpt><trkpt lat="36.56377619942223" lon="-5.177859151803873"><ele>814.0</ele><time>2026-04-25T10:28:13Z</time></trkpt><trkpt lat="36.56376615065713" lon="-5.177964814123086"><ele>814.0</ele><time>2026-04-25T10:28:14Z</time></trkpt><trkpt lat="36.563737167270894" lon="-5.178084411934615"><ele>814.0</ele><time>2026-04-25T10:28:15Z</time></trkpt><trkpt lat="36.56373508109465" lon="-5.178193761517208"><ele>811.0</ele><time>2026-04-25T10:28:16Z</time></trkpt><trkpt lat="36.56372133314906" lon="-5.178282893984301"><ele>808.0</ele><time>2026-04-25T10:28:17Z</time></trkpt><trkpt lat="36.56376189586819" lon="-5.178388257752069"><ele>805.0</ele><time>2026-04-25T10:28:18Z</time></trkpt><trkpt lat="36.56381891671313" lon="-5.17847417908887"><ele>802.0</ele><time>2026-04-25T10:28:19Z</time></trkpt><trkpt lat="36.563860009842934" lon="-5.178586808757868"><ele>799.0</ele><time>2026-04-25T10:28:20Z</time></trkpt><trkpt lat="36.56387303547828" lon="-5.178717042601098"><ele>798.9999999999999</ele><time>2026-04-25T10:28:21Z</time></trkpt><trkpt lat="36.56386049265349" lon="-5.178832319357598"><ele>799.0</ele><time>2026-04-25T10:28:22Z</time></trkpt><trkpt lat="36.56383475275993" lon="-5.178935983320777"><ele>799.0</ele><time>2026-04-25T10:28:23Z</time></trkpt><trkpt lat="36.56380869363751" lon="-5.179036623643826"><ele>799.0</ele><time>2026-04-25T10:28:24Z</time></trkpt><trkpt lat="36.56376553716206" lon="-5.179142206884804"><ele>798.9999999999999</ele><time>2026-04-25T10:28:25Z</time></trkpt><trkpt lat="36.563728860023296" lon="-5.179229069781415"><ele>799.0</ele><time>2026-04-25T10:28:26Z</time></trkpt><trkpt lat="36.56367270809074" lon="-5.179307279569344"><ele>800.6666666666666</ele><time>2026-04-25T10:28:27Z</time></trkpt><trkpt lat="36.56359928350942" lon="-5.179368719134818"><ele>802.3333333333333</ele><time>2026-04-25T10:28:28Z</time></trkpt><trkpt lat="36.563534282816576" lon="-5.179415491104912"><ele>804.0</ele><time>2026-04-25T10:28:29Z</time></trkpt><trkpt lat="36.563449609101525" lon="-5.1794320475099"><ele>805.6666666666667</ele><time>2026-04-25T10:28:30Z</time></trkpt><trkpt lat="36.563359950774185" lon="-5.179407570810562"><ele>807.3333333333334</ele><time>2026-04-25T10:28:31Z</time></trkpt><trkpt lat="36.56325651753755" lon="-5.179368866412958"><ele>809.0</ele><time>2026-04-25T10:28:32Z</time></trkpt><trkpt lat="36.56314695543179" lon="-5.179325946559341"><ele>809.0</ele><time>2026-04-25T10:28:33Z</time></trkpt><trkpt lat="36.56303494991688" lon="-5.179306390171101"><ele>809.0</ele><time>2026-04-25T10:28:34Z</time></trkpt><trkpt lat="36.562928336521324" lon="-5.179382830356903"><ele>809.0</ele><time>2026-04-25T10:28:35Z</time></trkpt><trkpt lat="36.56280307589108" lon="-5.179418848161381"><ele>809.0</ele><time>2026-04-25T10:28:36Z</time></trkpt><trkpt lat="36.562671613494494" lon="-5.179460478698144"><ele>811.2</ele><time>2026-04-25T10:28:37Z</time></trkpt><trkpt lat="36.56256363257954" lon="-5.179537935320952"><ele>813.4000000000001</ele><time>2026-04-25T10:28:38Z</time></trkpt><trkpt lat="36.56247986427577" lon="-5.179595438299461"><ele>815.6</ele><time>2026-04-25T10:28:39Z</time></trkpt><trkpt lat="36.56239500586163" lon="-5.179651622571913"><ele>817.8</ele><time>2026-04-25T10:28:40Z</time></trkpt><trkpt lat="36.56234817208632" lon="-5.179743524086878"><ele>820.0</ele><time>2026-04-25T10:28:41Z</time></trkpt><trkpt lat="36.562319826410295" lon="-5.179874891748194"><ele>813.0</ele><time>2026-04-25T10:28:42Z</time></trkpt><trkpt lat="36.562313753591255" lon="-5.180032149804157"><ele>806.0</ele><time>2026-04-25T10:28:43Z</time></trkpt><trkpt lat="36.56228248660925" lon="-5.180151203611825"><ele>799.0</ele><time>2026-04-25T10:28:44Z</time></trkpt><trkpt lat="36.56222011985626" lon="-5.180279129868484"><ele>792.0</ele><time>2026-04-25T10:28:45Z</time></trkpt><trkpt lat="36.56213515481183" lon="-5.180421592476759"><ele>792.0</ele><time>2026-04-25T10:28:46Z</time></trkpt><trkpt lat="36.56205473336818" lon="-5.180577277408285"><ele>792.0</ele><time>2026-04-25T10:28:47Z</time></trkpt><trkpt lat="36.561977254233454" lon="-5.180714343958963"><ele>792.0</ele><time>2026-04-25T10:28:48Z</time></trkpt><trkpt lat="36.561908523712106" lon="-5.180840287492933"><ele>792.0</ele><time>2026-04-25T10:28:49Z</time></trkpt><trkpt lat="36.56186359150271" lon="-5.1809639811725585"><ele>793.0</ele><time>2026-04-25T10:28:50Z</time></trkpt><trkpt lat="36.561804218415666" lon="-5.18107470233255"><ele>794.0</ele><time>2026-04-25T10:28:51Z</time></trkpt><trkpt lat="36.56175831158714" lon="-5.1811914161703"><ele>795.0</ele><time>2026-04-25T10:28:52Z</time></trkpt><trkpt lat="36.56171925343215" lon="-5.181321879471777"><ele>796.0</ele><time>2026-04-25T10:28:53Z</time></trkpt><trkpt lat="36.56168503954141" lon="-5.181455367155869"><ele>797.0</ele><time>2026-04-25T10:28:54Z</time></trkpt><trkpt lat="36.561670542396385" lon="-5.181586085934162"><ele>794.8</ele><time>2026-04-25T10:28:55Z</time></trkpt><trkpt lat="36.561658910567104" lon="-5.1817128366270335"><ele>792.6</ele><time>2026-04-25T10:28:56Z</time></trkpt><trkpt lat="36.56164768729003" lon="-5.181825385431945"><ele>790.4</ele><time>2026-04-25T10:28:57Z</time></trkpt><trkpt lat="36.56163054572352" lon="-5.181933171182059"><ele>788.1999999999999</ele><time>2026-04-25T10:28:58Z</time></trkpt><trkpt lat="36.561599547676096" lon="-5.182085024477643"><ele>786.0</ele><time>2026-04-25T10:29:00Z</time></trkpt><trkpt lat="36.561535948008164" lon="-5.1822181383464185"><ele>786.0</ele><time>2026-04-25T10:29:02Z</time></trkpt><trkpt lat="36.561453601972566" lon="-5.18229491177385"><ele>786.0</ele><time>2026-04-25T10:29:04Z</time></trkpt><trkpt lat="36.56137106752199" lon="-5.182293211374073"><ele>786.0</ele><time>2026-04-25T10:29:07Z</time></trkpt><trkpt lat="36.56128650577692" lon="-5.182266896124991"><ele>786.0</ele><time>2026-04-25T10:29:09.999Z</time></trkpt><trkpt lat="36.56123404348129" lon="-5.1822110535087775"><ele>786.0</ele><time>2026-04-25T10:29:11.999Z</time></trkpt><trkpt lat="36.56117818476866" lon="-5.182126237983393"><ele>786.0</ele><time>2026-04-25T10:29:13.999Z</time></trkpt><trkpt lat="36.56112268351856" lon="-5.182022249179158"><ele>785.1999999999999</ele><time>2026-04-25T10:29:15.999Z</time></trkpt><trkpt lat="36.56107694282985" lon="-5.181913393652335"><ele>784.4</ele><time>2026-04-25T10:29:17.999Z</time></trkpt><trkpt lat="36.56103200473291" lon="-5.181798629657431"><ele>783.6</ele><time>2026-04-25T10:29:19.999Z</time></trkpt><trkpt lat="36.56098268286502" lon="-5.181664006347654"><ele>782.8</ele><time>2026-04-25T10:29:21.999Z</time></trkpt><trkpt lat="36.56093525230148" lon="-5.1815272185560675"><ele>782.0</ele><time>2026-04-25T10:29:23.999Z</time></trkpt><trkpt lat="36.56088647369636" lon="-5.181386542985627"><ele>781.9999999999999</ele><time>2026-04-25T10:29:25.999Z</time></trkpt><trkpt lat="36.56086116512042" lon="-5.181313554213313"><ele>782.0</ele><time>2026-04-25T10:29:26.999Z</time></trkpt><trkpt lat="36.560835738782075" lon="-5.18124093122437"><ele>782.0</ele><time>2026-04-25T10:29:27.999Z</time></trkpt><trkpt lat="36.56082476442588" lon="-5.181161255943624"><ele>782.0</ele><time>2026-04-25T10:29:28.999Z</time></trkpt><trkpt lat="36.56078364154001" lon="-5.1810959435938715"><ele>782.0</ele><time>2026-04-25T10:29:29.999Z</time></trkpt><trkpt lat="36.560758360463446" lon="-5.181020250809491"><ele>781.9999999999999</ele><time>2026-04-25T10:29:30.999Z</time></trkpt><trkpt lat="36.56073462377938" lon="-5.180939950583089"><ele>782.0</ele><time>2026-04-25T10:29:31.999Z</time></trkpt><trkpt lat="36.56071801415744" lon="-5.180853553075369"><ele>781.9999999999999</ele><time>2026-04-25T10:29:32.999Z</time></trkpt><trkpt lat="36.56071284429593" lon="-5.180770805022778"><ele>782.0</ele><time>2026-04-25T10:29:33.999Z</time></trkpt><trkpt lat="36.560716824722086" lon="-5.180683591621946"><ele>782.0</ele><time>2026-04-25T10:29:34.999Z</time></trkpt><trkpt lat="36.56072479706935" lon="-5.180599155196578"><ele>782.0</ele><time>2026-04-25T10:29:35.999Z</time></trkpt><trkpt lat="36.56074769543547" lon="-5.180518716850122"><ele>782.0</ele><time>2026-04-25T10:29:36.999Z</time></trkpt><trkpt lat="36.560746192643315" lon="-5.180437885192557"><ele>781.9999999999999</ele><time>2026-04-25T10:29:37.999Z</time></trkpt><trkpt lat="36.56071609912403" lon="-5.180337087542144"><ele>782.0</ele><time>2026-04-25T10:29:38.999Z</time></trkpt><trkpt lat="36.56070758033799" lon="-5.180247023127985"><ele>781.9999999999999</ele><time>2026-04-25T10:29:39.999Z</time></trkpt><trkpt lat="36.560699766713704" lon="-5.1801644137101714"><ele>782.0</ele><time>2026-04-25T10:29:40.999Z</time></trkpt><trkpt lat="36.56069201636485" lon="-5.180082473116535"><ele>782.0</ele><time>2026-04-25T10:29:41.999Z</time></trkpt><trkpt lat="36.5606806653349" lon="-5.179996687980921"><ele>782.0</ele><time>2026-04-25T10:29:42.999Z</time></trkpt><trkpt lat="36.56067685012222" lon="-5.1799101157930645"><ele>782.0</ele><time>2026-04-25T10:29:43.999Z</time></trkpt><trkpt lat="36.56065992936699" lon="-5.179832430255379"><ele>781.9999999999999</ele><time>2026-04-25T10:29:44.999Z</time></trkpt><trkpt lat="36.56063835341131" lon="-5.179749519851185"><ele>782.0</ele><time>2026-04-25T10:29:45.999Z</time></trkpt><trkpt lat="36.56061714722498" lon="-5.179670690923819"><ele>782.8</ele><time>2026-04-25T10:29:46.999Z</time></trkpt><trkpt lat="36.560577343119554" lon="-5.179525535211364"><ele>783.6</ele><time>2026-04-25T10:29:48.999Z</time></trkpt><trkpt lat="36.56055883670536" lon="-5.179446690043629"><ele>784.4</ele><time>2026-04-25T10:29:49.999Z</time></trkpt><trkpt lat="36.56052609834394" lon="-5.179369074760758"><ele>785.1999999999999</ele><time>2026-04-25T10:29:50.999Z</time></trkpt><trkpt lat="36.56050511962147" lon="-5.179225997591675"><ele>786.0</ele><time>2026-04-25T10:29:52.999Z</time></trkpt><trkpt lat="36.56047325183103" lon="-5.179102743958493"><ele>786.0</ele><time>2026-04-25T10:29:54.999Z</time></trkpt><trkpt lat="36.56039851382302" lon="-5.179057090018432"><ele>786.0</ele><time>2026-04-25T10:29:56.999Z</time></trkpt><trkpt lat="36.56031246815577" lon="-5.178859987340138"><ele>786.0</ele><time>2026-04-25T10:31:01Z</time></trkpt><trkpt lat="36.56029437254074" lon="-5.178757943514258"><ele>786.0</ele><time>2026-04-25T10:31:02Z</time></trkpt><trkpt lat="36.56027300301353" lon="-5.1786330844573865"><ele>786.1999999999999</ele><time>2026-04-25T10:31:03Z</time></trkpt><trkpt lat="36.560245419123824" lon="-5.178487601384817"><ele>786.4</ele><time>2026-04-25T10:31:04Z</time></trkpt><trkpt lat="36.56021517132625" lon="-5.178361760783029"><ele>786.6</ele><time>2026-04-25T10:31:05Z</time></trkpt><trkpt lat="36.56018176014858" lon="-5.178255885383744"><ele>786.8</ele><time>2026-04-25T10:31:06Z</time></trkpt><trkpt lat="36.56014037119693" lon="-5.178180269916149"><ele>787.0</ele><time>2026-04-25T10:31:07Z</time></trkpt><trkpt lat="36.56005102263126" lon="-5.178130015076512"><ele>784.4000000000001</ele><time>2026-04-25T10:31:09Z</time></trkpt><trkpt lat="36.559954815388295" lon="-5.178219695788051"><ele>781.8000000000001</ele><time>2026-04-25T10:31:10.999Z</time></trkpt><trkpt lat="36.55993181569662" lon="-5.178335006760927"><ele>779.2</ele><time>2026-04-25T10:31:11.999Z</time></trkpt><trkpt lat="36.559913097757686" lon="-5.1784703503871805"><ele>776.6</ele><time>2026-04-25T10:31:12.999Z</time></trkpt><trkpt lat="36.559895648882105" lon="-5.178620402726658"><ele>774.0</ele><time>2026-04-25T10:31:13.999Z</time></trkpt><trkpt lat="36.5598931962212" lon="-5.178764804181813"><ele>774.0</ele><time>2026-04-25T10:31:14.999Z</time></trkpt><trkpt lat="36.55993164759763" lon="-5.1789091705597174"><ele>774.0</ele><time>2026-04-25T10:31:15.999Z</time></trkpt><trkpt lat="36.55996127524969" lon="-5.179047764875765"><ele>774.0</ele><time>2026-04-25T10:31:16.999Z</time></trkpt><trkpt lat="36.559966026084666" lon="-5.179183802201337"><ele>774.0</ele><time>2026-04-25T10:31:17.999Z</time></trkpt><trkpt lat="36.559945036561004" lon="-5.179326129558619"><ele>772.0</ele><time>2026-04-25T10:31:18.999Z</time></trkpt><trkpt lat="36.55990228218643" lon="-5.179492549524758"><ele>770.0</ele><time>2026-04-25T10:31:19.999Z</time></trkpt><trkpt lat="36.55980441725033" lon="-5.179661961977803"><ele>768.0</ele><time>2026-04-25T10:31:20.999Z</time></trkpt><trkpt lat="36.55971168666591" lon="-5.179805972439174"><ele>765.25</ele><time>2026-04-25T10:31:21.999Z</time></trkpt><trkpt lat="36.55965879178319" lon="-5.179928290568069"><ele>762.5</ele><time>2026-04-25T10:31:22.999Z</time></trkpt><trkpt lat="36.55961984195684" lon="-5.1801341349656616"><ele>759.75</ele><time>2026-04-25T10:31:23.999Z</time></trkpt><trkpt lat="36.55956201761947" lon="-5.1802806212331"><ele>757.0</ele><time>2026-04-25T10:31:25.999Z</time></trkpt><trkpt lat="36.55949962094507" lon="-5.180372487358681"><ele>760.6</ele><time>2026-04-25T10:31:26.999Z</time></trkpt><trkpt lat="36.55945951136831" lon="-5.180470345457332"><ele>764.2</ele><time>2026-04-25T10:31:27.999Z</time></trkpt><trkpt lat="36.559401411605876" lon="-5.180567834755784"><ele>767.8</ele><time>2026-04-25T10:31:28.999Z</time></trkpt><trkpt lat="36.559320384159854" lon="-5.180685345452048"><ele>771.4</ele><time>2026-04-25T10:31:29.999Z</time></trkpt><trkpt lat="36.55925484204823" lon="-5.180777509603699"><ele>775.0</ele><time>2026-04-25T10:31:30.999Z</time></trkpt><trkpt lat="36.55921676992923" lon="-5.18091411113543"><ele>775.0</ele><time>2026-04-25T10:31:31.999Z</time></trkpt><trkpt lat="36.55926128812588" lon="-5.181073488300649"><ele>775.0</ele><time>2026-04-25T10:31:32.999Z</time></trkpt><trkpt lat="36.55928828948918" lon="-5.181215019303174"><ele>775.0</ele><time>2026-04-25T10:31:33.999Z</time></trkpt><trkpt lat="36.559288976177704" lon="-5.181370741861748"><ele>775.0</ele><time>2026-04-25T10:31:34.999Z</time></trkpt><trkpt lat="36.55927920929724" lon="-5.181533308258082"><ele>773.0</ele><time>2026-04-25T10:31:35.999Z</time></trkpt><trkpt lat="36.55926435252048" lon="-5.181701606892254"><ele>771.0</ele><time>2026-04-25T10:31:36.999Z</time></trkpt><trkpt lat="36.55928793285714" lon="-5.181872758643209"><ele>769.0</ele><time>2026-04-25T10:31:37.999Z</time></trkpt><trkpt lat="36.55930542497876" lon="-5.1820429504824"><ele>767.0</ele><time>2026-04-25T10:31:38.999Z</time></trkpt><trkpt lat="36.559317564313886" lon="-5.182206675101574"><ele>765.4000000000001</ele><time>2026-04-25T10:31:39.999Z</time></trkpt><trkpt lat="36.55933282416049" lon="-5.182358373889059"><ele>763.8000000000001</ele><time>2026-04-25T10:31:40.999Z</time></trkpt><trkpt lat="36.55935524240276" lon="-5.182482620028828"><ele>762.2</ele><time>2026-04-25T10:31:41.999Z</time></trkpt><trkpt lat="36.55936183191425" lon="-5.182586944484049"><ele>760.6</ele><time>2026-04-25T10:31:42.999Z</time></trkpt><trkpt lat="36.55935395266703" lon="-5.182674716494202"><ele>759.0</ele><time>2026-04-25T10:31:43.999Z</time></trkpt><trkpt lat="36.55927677645767" lon="-5.1827415023121945"><ele>759.0</ele><time>2026-04-25T10:31:44.999Z</time></trkpt><trkpt lat="36.559177701925776" lon="-5.182768798841744"><ele>759.0</ele><time>2026-04-25T10:31:45.999Z</time></trkpt><trkpt lat="36.55904469312138" lon="-5.18275069214259"><ele>759.0</ele><time>2026-04-25T10:31:46.999Z</time></trkpt><trkpt lat="36.55890844086107" lon="-5.182725061311416"><ele>759.0</ele><time>2026-04-25T10:31:47.999Z</time></trkpt><trkpt lat="36.558780553468" lon="-5.182729696067949"><ele>763.0</ele><time>2026-04-25T10:31:48.999Z</time></trkpt><trkpt lat="36.558671903443496" lon="-5.182749661198152"><ele>767.0</ele><time>2026-04-25T10:31:49.999Z</time></trkpt><trkpt lat="36.55857062756937" lon="-5.18278309884785"><ele>771.0</ele><time>2026-04-25T10:31:50.999Z</time></trkpt><trkpt lat="36.55850256541209" lon="-5.182854774101104"><ele>775.0</ele><time>2026-04-25T10:31:51.999Z</time></trkpt><trkpt lat="36.558441378675646" lon="-5.1829105284723065"><ele>779.0</ele><time>2026-04-25T10:31:52.999Z</time></trkpt><trkpt lat="36.55840469804268" lon="-5.182985274505831"><ele>779.0</ele><time>2026-04-25T10:31:53.999Z</time></trkpt><trkpt lat="36.5584085033046" lon="-5.1830748878784085"><ele>779.0</ele><time>2026-04-25T10:31:54.999Z</time></trkpt><trkpt lat="36.55849058074901" lon="-5.183195853678702"><ele>779.0</ele><time>2026-04-25T10:31:55.999Z</time></trkpt><trkpt lat="36.55853276521514" lon="-5.183323653938415"><ele>779.0</ele><time>2026-04-25T10:31:56.999Z</time></trkpt><trkpt lat="36.55854318249975" lon="-5.183447802321693"><ele>779.0</ele><time>2026-04-25T10:31:57.999Z</time></trkpt><trkpt lat="36.55849214226721" lon="-5.183570949803299"><ele>774.25</ele><time>2026-04-25T10:31:58.999Z</time></trkpt><trkpt lat="36.55841860249988" lon="-5.183693532049397"><ele>769.5</ele><time>2026-04-25T10:31:59.999Z</time></trkpt><trkpt lat="36.55833058228184" lon="-5.183808069335276"><ele>764.75</ele><time>2026-04-25T10:32:00.999Z</time></trkpt><trkpt lat="36.55825048872946" lon="-5.183943073837307"><ele>760.0</ele><time>2026-04-25T10:32:01.999Z</time></trkpt><trkpt lat="36.5582009077097" lon="-5.184105450817016"><ele>754.0</ele><time>2026-04-25T10:32:02.999Z</time></trkpt><trkpt lat="36.558130827257926" lon="-5.184261614011432"><ele>748.0</ele><time>2026-04-25T10:32:03.999Z</time></trkpt><trkpt lat="36.55808212116766" lon="-5.184411700419588"><ele>742.0</ele><time>2026-04-25T10:32:04.999Z</time></trkpt><trkpt lat="36.55803857923656" lon="-5.184560619665106"><ele>736.0</ele><time>2026-04-25T10:32:05.999Z</time></trkpt><trkpt lat="36.558049729683276" lon="-5.184702003468317"><ele>736.0</ele><time>2026-04-25T10:32:06.999Z</time></trkpt><trkpt lat="36.55801642092697" lon="-5.184820503070023"><ele>736.0</ele><time>2026-04-25T10:32:07.999Z</time></trkpt><trkpt lat="36.557957874056896" lon="-5.18490871794553"><ele>736.0</ele><time>2026-04-25T10:32:08.999Z</time></trkpt><trkpt lat="36.55786895498029" lon="-5.18499195672548"><ele>736.0</ele><time>2026-04-25T10:32:09.999Z</time></trkpt><trkpt lat="36.55776877249227" lon="-5.185082845950627"><ele>736.0</ele><time>2026-04-25T10:32:10.999Z</time></trkpt><trkpt lat="36.557681342044255" lon="-5.185193842627436"><ele>739.5</ele><time>2026-04-25T10:32:11.999Z</time></trkpt><trkpt lat="36.55761154314202" lon="-5.1853125169473975"><ele>743.0</ele><time>2026-04-25T10:32:12.999Z</time></trkpt><trkpt lat="36.557493507873474" lon="-5.1853732202075875"><ele>746.5</ele><time>2026-04-25T10:32:13.999Z</time></trkpt><trkpt lat="36.5573713601444" lon="-5.185387128447041"><ele>750.0</ele><time>2026-04-25T10:32:14.999Z</time></trkpt><trkpt lat="36.557262643343805" lon="-5.1854434783727035"><ele>750.0</ele><time>2026-04-25T10:32:15.999Z</time></trkpt><trkpt lat="36.557171818916764" lon="-5.185552320479399"><ele>750.0</ele><time>2026-04-25T10:32:16.999Z</time></trkpt><trkpt lat="36.55709744391733" lon="-5.185701395397421"><ele>750.0</ele><time>2026-04-25T10:32:17.998Z</time></trkpt><trkpt lat="36.557061346511766" lon="-5.1858766942919265"><ele>750.0</ele><time>2026-04-25T10:32:18.998Z</time></trkpt><trkpt lat="36.55700273944838" lon="-5.186053114609497"><ele>752.3333333333334</ele><time>2026-04-25T10:32:19.998Z</time></trkpt><trkpt lat="36.55695468959716" lon="-5.1862281000423005"><ele>754.6666666666667</ele><time>2026-04-25T10:32:20.998Z</time></trkpt><trkpt lat="36.556885277285595" lon="-5.186395182253629"><ele>757.0</ele><time>2026-04-25T10:32:21.998Z</time></trkpt><trkpt lat="36.556804064715315" lon="-5.186555457585225"><ele>746.0</ele><time>2026-04-25T10:32:22.998Z</time></trkpt><trkpt lat="36.55672978237264" lon="-5.1867238101471695"><ele>735.0</ele><time>2026-04-25T10:32:23.998Z</time></trkpt><trkpt lat="36.5566478164512" lon="-5.18688075784991"><ele>724.0</ele><time>2026-04-25T10:32:25Z</time></trkpt><trkpt lat="36.55654420905399" lon="-5.187023772947943"><ele>724.0</ele><time>2026-04-25T10:32:26Z</time></trkpt><trkpt lat="36.556425360780175" lon="-5.187150633534558"><ele>724.0</ele><time>2026-04-25T10:32:27Z</time></trkpt><trkpt lat="36.5562991257753" lon="-5.187264755545477"><ele>724.0</ele><time>2026-04-25T10:32:28Z</time></trkpt><trkpt lat="36.55616796864649" lon="-5.187351236625644"><ele>719.6666666666667</ele><time>2026-04-25T10:32:29Z</time></trkpt><trkpt lat="36.55602668991952" lon="-5.187399628172774"><ele>715.3333333333334</ele><time>2026-04-25T10:32:30Z</time></trkpt><trkpt lat="36.55586800482091" lon="-5.1874252006989385"><ele>711.0</ele><time>2026-04-25T10:32:31Z</time></trkpt><trkpt lat="36.55571106703434" lon="-5.187449665905645"><ele>711.0</ele><time>2026-04-25T10:32:32Z</time></trkpt><trkpt lat="36.55556840582548" lon="-5.187498666464116"><ele>711.0</ele><time>2026-04-25T10:32:33Z</time></trkpt><trkpt lat="36.55543281358829" lon="-5.187523943871677"><ele>711.0</ele><time>2026-04-25T10:32:34Z</time></trkpt><trkpt lat="36.55530012073284" lon="-5.187516508534922"><ele>711.0</ele><time>2026-04-25T10:32:35Z</time></trkpt><trkpt lat="36.555172973248425" lon="-5.187526911620767"><ele>711.0</ele><time>2026-04-25T10:32:36Z</time></trkpt><trkpt lat="36.55504915195779" lon="-5.1875128163390904"><ele>711.0</ele><time>2026-04-25T10:32:37Z</time></trkpt><trkpt lat="36.5549349059663" lon="-5.187484882448604"><ele>711.0</ele><time>2026-04-25T10:32:38Z</time></trkpt><trkpt lat="36.55482351820819" lon="-5.1874341452519594"><ele>711.0</ele><time>2026-04-25T10:32:39Z</time></trkpt><trkpt lat="36.554720849409414" lon="-5.187332072670305"><ele>713.8</ele><time>2026-04-25T10:32:40Z</time></trkpt><trkpt lat="36.554609829426234" lon="-5.187256999957631"><ele>716.5999999999999</ele><time>2026-04-25T10:32:41Z</time></trkpt><trkpt lat="36.554523598697855" lon="-5.187163504504887"><ele>719.4</ele><time>2026-04-25T10:32:42Z</time></trkpt><trkpt lat="36.55445540957822" lon="-5.187089722253135"><ele>722.2</ele><time>2026-04-25T10:32:43Z</time></trkpt><trkpt lat="36.55440438069106" lon="-5.187039175204323"><ele>725.0</ele><time>2026-04-25T10:32:44Z</time></trkpt><trkpt lat="36.5543484745459" lon="-5.186980598035845"><ele>725.0</ele><time>2026-04-25T10:32:46Z</time></trkpt><trkpt lat="36.554366150120856" lon="-5.187078297017232"><ele>725.0</ele><time>2026-04-25T10:32:49Z</time></trkpt><trkpt lat="36.554436868962746" lon="-5.187183552633407"><ele>725.0</ele><time>2026-04-25T10:32:51Z</time></trkpt><trkpt lat="36.55447614949082" lon="-5.187255570559757"><ele>725.0</ele><time>2026-04-25T10:32:52Z</time></trkpt><trkpt lat="36.554502064053786" lon="-5.187332419382023"><ele>725.0</ele><time>2026-04-25T10:32:53Z</time></trkpt><trkpt lat="36.55456750476607" lon="-5.1874206308416015"><ele>725.0</ele><time>2026-04-25T10:32:54Z</time></trkpt><trkpt lat="36.55461865271901" lon="-5.187501377069524"><ele>722.6666666666666</ele><time>2026-04-25T10:32:55Z</time></trkpt><trkpt lat="36.554665280977176" lon="-5.187582425675752"><ele>720.3333333333333</ele><time>2026-04-25T10:32:56Z</time></trkpt><trkpt lat="36.55472215920483" lon="-5.1876511131185525"><ele>718.0</ele><time>2026-04-25T10:32:57Z</time></trkpt><trkpt lat="36.55478855240813" lon="-5.1877199485358885"><ele>715.6666666666666</ele><time>2026-04-25T10:32:58Z</time></trkpt><trkpt lat="36.554862230936166" lon="-5.18778584755484"><ele>713.3333333333334</ele><time>2026-04-25T10:32:59Z</time></trkpt><trkpt lat="36.55493691715124" lon="-5.187847453050657"><ele>711.0</ele><time>2026-04-25T10:33:00Z</time></trkpt><trkpt lat="36.55503216948335" lon="-5.187900857411461"><ele>711.0</ele><time>2026-04-25T10:33:01Z</time></trkpt><trkpt lat="36.55513610692428" lon="-5.187946072676405"><ele>711.0</ele><time>2026-04-25T10:33:02Z</time></trkpt><trkpt lat="36.55524776036704" lon="-5.187970408054973"><ele>711.0</ele><time>2026-04-25T10:33:03Z</time></trkpt><trkpt lat="36.55535733043432" lon="-5.188026000082448"><ele>711.0</ele><time>2026-04-25T10:33:04Z</time></trkpt><trkpt lat="36.55546406985889" lon="-5.188073254591622"><ele>711.0</ele><time>2026-04-25T10:33:05Z</time></trkpt><trkpt lat="36.5555558692184" lon="-5.18812726185739"><ele>711.0</ele><time>2026-04-25T10:33:06Z</time></trkpt><trkpt lat="36.55565352582741" lon="-5.188169983149729"><ele>711.0</ele><time>2026-04-25T10:33:07Z</time></trkpt><trkpt lat="36.555748855361216" lon="-5.188201547176393"><ele>711.0</ele><time>2026-04-25T10:33:08Z</time></trkpt><trkpt lat="36.555850522064596" lon="-5.188193588659163"><ele>711.0</ele><time>2026-04-25T10:33:09Z</time></trkpt><trkpt lat="36.555963174703614" lon="-5.188199394601065"><ele>706.8</ele><time>2026-04-25T10:33:10Z</time></trkpt><trkpt lat="36.55606738861182" lon="-5.188215322728912"><ele>702.5999999999999</ele><time>2026-04-25T10:33:11Z</time></trkpt><trkpt lat="36.55612772409926" lon="-5.188241879638443"><ele>698.4</ele><time>2026-04-25T10:33:12Z</time></trkpt><trkpt lat="36.556210772532964" lon="-5.188345133596445"><ele>694.2</ele><time>2026-04-25T10:33:14Z</time></trkpt><trkpt lat="36.55623543383094" lon="-5.188445602504597"><ele>690.0</ele><time>2026-04-25T10:33:14.999Z</time></trkpt><trkpt lat="36.5562371812553" lon="-5.1885476523009695"><ele>690.0</ele><time>2026-04-25T10:33:15.999Z</time></trkpt><trkpt lat="36.5562146864406" lon="-5.188660104538168"><ele>690.0</ele><time>2026-04-25T10:33:16.999Z</time></trkpt><trkpt lat="36.556185100196885" lon="-5.188767496655189"><ele>690.0</ele><time>2026-04-25T10:33:17.999Z</time></trkpt><trkpt lat="36.55615835413919" lon="-5.188879896695598"><ele>690.0</ele><time>2026-04-25T10:33:18.999Z</time></trkpt><trkpt lat="36.55615674904493" lon="-5.18898434992374"><ele>690.0</ele><time>2026-04-25T10:33:19.999Z</time></trkpt><trkpt lat="36.5561280002134" lon="-5.1890961952178385"><ele>690.0</ele><time>2026-04-25T10:33:21.999Z</time></trkpt><trkpt lat="36.55595169839883" lon="-5.189030519012812"><ele>690.0</ele><time>2026-04-25T10:33:59.999Z</time></trkpt><trkpt lat="36.55589491026974" lon="-5.188978427348832"><ele>690.0</ele><time>2026-04-25T10:34:01.999Z</time></trkpt><trkpt lat="36.55583741494383" lon="-5.188941362308689"><ele>690.0</ele><time>2026-04-25T10:34:02.999Z</time></trkpt><trkpt lat="36.555716607534144" lon="-5.188887824554161"><ele>690.0</ele><time>2026-04-25T10:34:04.999Z</time></trkpt><trkpt lat="36.555645626717705" lon="-5.188863964014489"><ele>690.0</ele><time>2026-04-25T10:34:05.999Z</time></trkpt><trkpt lat="36.555580382653915" lon="-5.188845909420672"><ele>690.0</ele><time>2026-04-25T10:34:06.999Z</time></trkpt><trkpt lat="36.55550389205903" lon="-5.188829236553399"><ele>690.0</ele><time>2026-04-25T10:34:07.999Z</time></trkpt><trkpt lat="36.55541330892865" lon="-5.188813773072412"><ele>690.0</ele><time>2026-04-25T10:34:08.999Z</time></trkpt><trkpt lat="36.55531357550936" lon="-5.18880156534407"><ele>690.0</ele><time>2026-04-25T10:34:09.999Z</time></trkpt><trkpt lat="36.555229747563864" lon="-5.188782654292621"><ele>690.0</ele><time>2026-04-25T10:34:10.999Z</time></trkpt><trkpt lat="36.55512551243409" lon="-5.188766498926162"><ele>689.0</ele><time>2026-04-25T10:34:11.999Z</time></trkpt><trkpt lat="36.555039384310405" lon="-5.188760426008306"><ele>688.0</ele><time>2026-04-25T10:34:12.999Z</time></trkpt><trkpt lat="36.554936436620174" lon="-5.18874956231989"><ele>687.0</ele><time>2026-04-25T10:34:13.999Z</time></trkpt><trkpt lat="36.554839210854794" lon="-5.188755994181338"><ele>686.0</ele><time>2026-04-25T10:34:14.999Z</time></trkpt><trkpt lat="36.554749468676775" lon="-5.188736656575922"><ele>685.0</ele><time>2026-04-25T10:34:15.999Z</time></trkpt><trkpt lat="36.5546704594233" lon="-5.188714888381481"><ele>685.0</ele><time>2026-04-25T10:34:16.999Z</time></trkpt><trkpt lat="36.55458861989566" lon="-5.188680995911573"><ele>685.0</ele><time>2026-04-25T10:34:17.999Z</time></trkpt><trkpt lat="36.55450734570819" lon="-5.188631558462161"><ele>685.0</ele><time>2026-04-25T10:34:18.999Z</time></trkpt><trkpt lat="36.55444217437005" lon="-5.1885838260582435"><ele>685.0</ele><time>2026-04-25T10:34:19.999Z</time></trkpt><trkpt lat="36.55437381194975" lon="-5.1885167326002195"><ele>685.0</ele><time>2026-04-25T10:34:20.999Z</time></trkpt><trkpt lat="36.55430217457859" lon="-5.18844471032548"><ele>685.0</ele><time>2026-04-25T10:34:21.998Z</time></trkpt><trkpt lat="36.55423260001088" lon="-5.188373544009201"><ele>686.4</ele><time>2026-04-25T10:34:22.998Z</time></trkpt><trkpt lat="36.55416126812873" lon="-5.18830057967387"><ele>687.8</ele><time>2026-04-25T10:34:23.998Z</time></trkpt><trkpt lat="36.55409333991496" lon="-5.1882270412144695"><ele>689.2</ele><time>2026-04-25T10:34:24.998Z</time></trkpt><trkpt lat="36.554034246631495" lon="-5.188153403704387"><ele>690.6</ele><time>2026-04-25T10:34:25.998Z</time></trkpt><trkpt lat="36.55393826098691" lon="-5.1880310503333265"><ele>692.0</ele><time>2026-04-25T10:34:27.998Z</time></trkpt><trkpt lat="36.55385495449154" lon="-5.187976277121213"><ele>692.0</ele><time>2026-04-25T10:34:29.998Z</time></trkpt><trkpt lat="36.55378850506651" lon="-5.188022609548293"><ele>692.0</ele><time>2026-04-25T10:34:31Z</time></trkpt><trkpt lat="36.553731958662745" lon="-5.188080784882658"><ele>692.0</ele><time>2026-04-25T10:34:32Z</time></trkpt><trkpt lat="36.553682796809525" lon="-5.188178874173464"><ele>692.0</ele><time>2026-04-25T10:34:33Z</time></trkpt><trkpt lat="36.553627355407045" lon="-5.188270340336662"><ele>692.0</ele><time>2026-04-25T10:34:34Z</time></trkpt><trkpt lat="36.55357142801463" lon="-5.188342522817495"><ele>692.0</ele><time>2026-04-25T10:34:35Z</time></trkpt><trkpt lat="36.55351180340629" lon="-5.188403054439989"><ele>685.6</ele><time>2026-04-25T10:34:36Z</time></trkpt><trkpt lat="36.55343833785566" lon="-5.18845740704449"><ele>679.2</ele><time>2026-04-25T10:34:37Z</time></trkpt><trkpt lat="36.553355127886135" lon="-5.1885038931667715"><ele>672.8</ele><time>2026-04-25T10:34:38Z</time></trkpt><trkpt lat="36.553275901932324" lon="-5.188569457695363"><ele>666.4</ele><time>2026-04-25T10:34:39Z</time></trkpt><trkpt lat="36.553141467372704" lon="-5.188671528957411"><ele>660.0</ele><time>2026-04-25T10:34:41Z</time></trkpt><trkpt lat="36.553077500109055" lon="-5.188718149784409"><ele>660.0</ele><time>2026-04-25T10:34:42Z</time></trkpt><trkpt lat="36.55300643897282" lon="-5.188748989220117"><ele>660.0</ele><time>2026-04-25T10:34:43Z</time></trkpt><trkpt lat="36.55292393228722" lon="-5.1887826011914076"><ele>660.0</ele><time>2026-04-25T10:34:44Z</time></trkpt><trkpt lat="36.552836094536254" lon="-5.1888064947114625"><ele>660.0</ele><time>2026-04-25T10:34:45Z</time></trkpt><trkpt lat="36.552742247513365" lon="-5.188821844279133"><ele>660.0</ele><time>2026-04-25T10:34:46Z</time></trkpt><trkpt lat="36.552661109560134" lon="-5.188833278171292"><ele>660.0</ele><time>2026-04-25T10:34:47Z</time></trkpt><trkpt lat="36.55258084519744" lon="-5.188839575329428"><ele>661.5</ele><time>2026-04-25T10:34:48Z</time></trkpt><trkpt lat="36.55249991511365" lon="-5.1888423355168785"><ele>663.0</ele><time>2026-04-25T10:34:49Z</time></trkpt><trkpt lat="36.552413649517696" lon="-5.18885114078345"><ele>664.5</ele><time>2026-04-25T10:34:50Z</time></trkpt><trkpt lat="36.55231403163412" lon="-5.188871434526091"><ele>666.0</ele><time>2026-04-25T10:34:51Z</time></trkpt><trkpt lat="36.55222717889137" lon="-5.188865642663426"><ele>667.5</ele><time>2026-04-25T10:34:52Z</time></trkpt><trkpt lat="36.55214031142273" lon="-5.188854321751707"><ele>669.0</ele><time>2026-04-25T10:34:53Z</time></trkpt><trkpt lat="36.55205413610371" lon="-5.18883961601746"><ele>666.1666666666666</ele><time>2026-04-25T10:34:54Z</time></trkpt><trkpt lat="36.55197000375621" lon="-5.18882194337287"><ele>663.3333333333334</ele><time>2026-04-25T10:34:55Z</time></trkpt><trkpt lat="36.55188385642453" lon="-5.188805346947125"><ele>660.5</ele><time>2026-04-25T10:34:56Z</time></trkpt><trkpt lat="36.551792616994206" lon="-5.188782562783745"><ele>657.6666666666667</ele><time>2026-04-25T10:34:57Z</time></trkpt><trkpt lat="36.5517129941633" lon="-5.18874967275004"><ele>654.8333333333334</ele><time>2026-04-25T10:34:58Z</time></trkpt><trkpt lat="36.551630018521884" lon="-5.188710564400109"><ele>652.0</ele><time>2026-04-25T10:34:59Z</time></trkpt><trkpt lat="36.55154918291198" lon="-5.188663907110539"><ele>652.0</ele><time>2026-04-25T10:35:00Z</time></trkpt><trkpt lat="36.551479225438605" lon="-5.188613452364885"><ele>652.0</ele><time>2026-04-25T10:35:01Z</time></trkpt><trkpt lat="36.551408621948106" lon="-5.188553078465762"><ele>652.0</ele><time>2026-04-25T10:35:02Z</time></trkpt><trkpt lat="36.5513353441237" lon="-5.188490721613646"><ele>652.0</ele><time>2026-04-25T10:35:03Z</time></trkpt><trkpt lat="36.55125975080277" lon="-5.188432970273903"><ele>652.0</ele><time>2026-04-25T10:35:04Z</time></trkpt><trkpt lat="36.55117829522667" lon="-5.188390082447235"><ele>652.0</ele><time>2026-04-25T10:35:05Z</time></trkpt><trkpt lat="36.551092180043945" lon="-5.188358124294766"><ele>649.4</ele><time>2026-04-25T10:35:06Z</time></trkpt><trkpt lat="36.55099718847577" lon="-5.188338462563759"><ele>646.8000000000001</ele><time>2026-04-25T10:35:07Z</time></trkpt><trkpt lat="36.55089717734356" lon="-5.188328003367004"><ele>644.2</ele><time>2026-04-25T10:35:08Z</time></trkpt><trkpt lat="36.55079143902819" lon="-5.188318483513971"><ele>641.6</ele><time>2026-04-25T10:35:09Z</time></trkpt><trkpt lat="36.55068157106363" lon="-5.188313813881577"><ele>639.0</ele><time>2026-04-25T10:35:10Z</time></trkpt><trkpt lat="36.55057709888192" lon="-5.188307753515548"><ele>639.0</ele><time>2026-04-25T10:35:11Z</time></trkpt><trkpt lat="36.550479144092726" lon="-5.188313394866032"><ele>639.0</ele><time>2026-04-25T10:35:11.999Z</time></trkpt><trkpt lat="36.550390019980995" lon="-5.188330591232782"><ele>639.0</ele><time>2026-04-25T10:35:12.999Z</time></trkpt><trkpt lat="36.550299215632265" lon="-5.188343586016666"><ele>639.0</ele><time>2026-04-25T10:35:13.999Z</time></trkpt><trkpt lat="36.55021173656026" lon="-5.1883813941343355"><ele>639.0</ele><time>2026-04-25T10:35:14.999Z</time></trkpt><trkpt lat="36.550126484411756" lon="-5.188401623044618"><ele>638.0</ele><time>2026-04-25T10:35:15.999Z</time></trkpt><trkpt lat="36.550043795674355" lon="-5.188424738661972"><ele>637.0</ele><time>2026-04-25T10:35:16.999Z</time></trkpt><trkpt lat="36.54996482679451" lon="-5.18842592985745"><ele>636.0</ele><time>2026-04-25T10:35:17.999Z</time></trkpt><trkpt lat="36.549898764304935" lon="-5.188441969229683"><ele>635.0</ele><time>2026-04-25T10:35:18.999Z</time></trkpt><trkpt lat="36.54982648420781" lon="-5.188468142563723"><ele>634.0</ele><time>2026-04-25T10:35:19.999Z</time></trkpt><trkpt lat="36.54971666280722" lon="-5.188455116446257"><ele>633.0</ele><time>2026-04-25T10:35:21.999Z</time></trkpt><trkpt lat="36.54962885020799" lon="-5.188391842492581"><ele>633.0</ele><time>2026-04-25T10:35:23.999Z</time></trkpt><trkpt lat="36.54958525024614" lon="-5.188463406888839"><ele>633.0</ele><time>2026-04-25T10:35:26.999Z</time></trkpt><trkpt lat="36.549650949494364" lon="-5.188555617651699"><ele>633.0</ele><time>2026-04-25T10:35:28.999Z</time></trkpt><trkpt lat="36.549775789041036" lon="-5.188568152540811"><ele>633.0</ele><time>2026-04-25T10:35:30.999Z</time></trkpt><trkpt lat="36.54985184520723" lon="-5.188573541901945"><ele>633.0</ele><time>2026-04-25T10:35:31.999Z</time></trkpt><trkpt lat="36.54992320282183" lon="-5.188583698344677"><ele>633.0</ele><time>2026-04-25T10:35:32.999Z</time></trkpt><trkpt lat="36.550001262810746" lon="-5.1885972757881165"><ele>633.0</ele><time>2026-04-25T10:35:33.999Z</time></trkpt><trkpt lat="36.55007812914758" lon="-5.188608250405084"><ele>633.0</ele><time>2026-04-25T10:35:34.999Z</time></trkpt><trkpt lat="36.55015779404815" lon="-5.188618604312944"><ele>633.0</ele><time>2026-04-25T10:35:35.999Z</time></trkpt><trkpt lat="36.550240608317665" lon="-5.188631482943252"><ele>633.0</ele><time>2026-04-25T10:35:36.999Z</time></trkpt><trkpt lat="36.550318498673946" lon="-5.1886518684864456"><ele>633.0</ele><time>2026-04-25T10:35:37.999Z</time></trkpt><trkpt lat="36.55039282700689" lon="-5.188693265845671"><ele>633.0</ele><time>2026-04-25T10:35:38.999Z</time></trkpt><trkpt lat="36.550460300030316" lon="-5.18874179472278"><ele>634.0</ele><time>2026-04-25T10:35:39.999Z</time></trkpt><trkpt lat="36.55054544060156" lon="-5.1888052624426315"><ele>635.0</ele><time>2026-04-25T10:35:40.999Z</time></trkpt><trkpt lat="36.55061318668428" lon="-5.188866150537582"><ele>636.0</ele><time>2026-04-25T10:35:41.999Z</time></trkpt><trkpt lat="36.550687034716326" lon="-5.18895391166379"><ele>637.0</ele><time>2026-04-25T10:35:42.999Z</time></trkpt><trkpt lat="36.5507329170466" lon="-5.189011767009863"><ele>638.0</ele><time>2026-04-25T10:35:43.999Z</time></trkpt><trkpt lat="36.55077959270692" lon="-5.18907688584561"><ele>639.0</ele><time>2026-04-25T10:35:44.999Z</time></trkpt><trkpt lat="36.55083034900817" lon="-5.189132276570404"><ele>636.5</ele><time>2026-04-25T10:35:45.999Z</time></trkpt><trkpt lat="36.55089163247238" lon="-5.189175463354901"><ele>634.0</ele><time>2026-04-25T10:35:46.999Z</time></trkpt><trkpt lat="36.550962547853636" lon="-5.189236573005424"><ele>631.5</ele><time>2026-04-25T10:35:47.999Z</time></trkpt><trkpt lat="36.55104833559862" lon="-5.189286712470069"><ele>629.0</ele><time>2026-04-25T10:35:48.999Z</time></trkpt><trkpt lat="36.55113405900006" lon="-5.189350859195804"><ele>626.5</ele><time>2026-04-25T10:35:49.999Z</time></trkpt><trkpt lat="36.55121260313943" lon="-5.189423361126243"><ele>624.0</ele><time>2026-04-25T10:35:50.999Z</time></trkpt><trkpt lat="36.551287031638296" lon="-5.189484607716172"><ele>624.0</ele><time>2026-04-25T10:35:51.999Z</time></trkpt><trkpt lat="36.551379461980964" lon="-5.189541965224147"><ele>624.0</ele><time>2026-04-25T10:35:52.999Z</time></trkpt><trkpt lat="36.551470798078405" lon="-5.1896009362385"><ele>624.0</ele><time>2026-04-25T10:35:53.999Z</time></trkpt><trkpt lat="36.551558022652856" lon="-5.189674028197898"><ele>624.0</ele><time>2026-04-25T10:35:54.999Z</time></trkpt><trkpt lat="36.55163352908363" lon="-5.189754900605116"><ele>624.0</ele><time>2026-04-25T10:35:55.999Z</time></trkpt><trkpt lat="36.551715819353795" lon="-5.18982586775904"><ele>621.0</ele><time>2026-04-25T10:35:56.999Z</time></trkpt><trkpt lat="36.551804332826386" lon="-5.189887470980168"><ele>618.0</ele><time>2026-04-25T10:35:57.999Z</time></trkpt><trkpt lat="36.55189353395712" lon="-5.189952686990742"><ele>615.0</ele><time>2026-04-25T10:35:58.999Z</time></trkpt><trkpt lat="36.55198366943845" lon="-5.190004615760007"><ele>612.0</ele><time>2026-04-25T10:35:59.999Z</time></trkpt><trkpt lat="36.55207815097358" lon="-5.190044729819752"><ele>609.0</ele><time>2026-04-25T10:36:00.999Z</time></trkpt><trkpt lat="36.5521737961342" lon="-5.190084615270734"><ele>609.0</ele><time>2026-04-25T10:36:01.999Z</time></trkpt><trkpt lat="36.552260630440266" lon="-5.190128195132372"><ele>609.0</ele><time>2026-04-25T10:36:02.999Z</time></trkpt><trkpt lat="36.552346287394755" lon="-5.190164386341762"><ele>609.0</ele><time>2026-04-25T10:36:03.999Z</time></trkpt><trkpt lat="36.55242670289901" lon="-5.190169611327433"><ele>609.0</ele><time>2026-04-25T10:36:04.999Z</time></trkpt><trkpt lat="36.552495327914265" lon="-5.190154137351316"><ele>609.0</ele><time>2026-04-25T10:36:05.999Z</time></trkpt><trkpt lat="36.55255581291189" lon="-5.190114567642572"><ele>609.0</ele><time>2026-04-25T10:36:06.999Z</time></trkpt><trkpt lat="36.55264634803938" lon="-5.190100150475794"><ele>609.0</ele><time>2026-04-25T10:36:08.999Z</time></trkpt><trkpt lat="36.55269581318963" lon="-5.190179697685262"><ele>609.0</ele><time>2026-04-25T10:36:10.999Z</time></trkpt><trkpt lat="36.552673758680044" lon="-5.190318129257172"><ele>609.0</ele><time>2026-04-25T10:36:12.999Z</time></trkpt><trkpt lat="36.5526285985207" lon="-5.1903937965190865"><ele>609.0</ele><time>2026-04-25T10:36:13.999Z</time></trkpt><trkpt lat="36.55258216103607" lon="-5.190480993323648"><ele>609.0</ele><time>2026-04-25T10:36:14.999Z</time></trkpt><trkpt lat="36.552531603850404" lon="-5.190548914993732"><ele>609.0</ele><time>2026-04-25T10:36:15.999Z</time></trkpt><trkpt lat="36.55247256670181" lon="-5.190605363941299"><ele>609.0</ele><time>2026-04-25T10:36:16.999Z</time></trkpt><trkpt lat="36.55240024665002" lon="-5.190674214004382"><ele>609.0</ele><time>2026-04-25T10:36:17.999Z</time></trkpt><trkpt lat="36.552297591025415" lon="-5.190688046058059"><ele>609.0</ele><time>2026-04-25T10:36:18.999Z</time></trkpt><trkpt lat="36.552210813939276" lon="-5.190688836652361"><ele>609.0</ele><time>2026-04-25T10:36:19.999Z</time></trkpt><trkpt lat="36.5521341331348" lon="-5.190694387698047"><ele>609.0</ele><time>2026-04-25T10:36:20.999Z</time></trkpt><trkpt lat="36.552064790152095" lon="-5.19073402189269"><ele>609.0</ele><time>2026-04-25T10:36:21.999Z</time></trkpt><trkpt lat="36.55199491159071" lon="-5.190792670732333"><ele>607.8</ele><time>2026-04-25T10:36:22.998Z</time></trkpt><trkpt lat="36.55190278540647" lon="-5.190823872766586"><ele>606.5999999999999</ele><time>2026-04-25T10:36:23.998Z</time></trkpt><trkpt lat="36.551820373469674" lon="-5.190831658891655"><ele>605.4</ele><time>2026-04-25T10:36:24.998Z</time></trkpt><trkpt lat="36.55173160913229" lon="-5.190835309878018"><ele>604.1999999999999</ele><time>2026-04-25T10:36:25.998Z</time></trkpt><trkpt lat="36.55164080034455" lon="-5.190827365016414"><ele>603.0</ele><time>2026-04-25T10:36:26.998Z</time></trkpt><trkpt lat="36.55155017502008" lon="-5.190804436360193"><ele>603.0</ele><time>2026-04-25T10:36:27.998Z</time></trkpt><trkpt lat="36.55144884793787" lon="-5.190807285173863"><ele>603.0</ele><time>2026-04-25T10:36:28.998Z</time></trkpt><trkpt lat="36.55133332635554" lon="-5.1907890094323985"><ele>603.0</ele><time>2026-04-25T10:36:29.998Z</time></trkpt><trkpt lat="36.55124692367602" lon="-5.190771589289186"><ele>603.0</ele><time>2026-04-25T10:36:30.998Z</time></trkpt><trkpt lat="36.55114770443452" lon="-5.190770308061854"><ele>603.0</ele><time>2026-04-25T10:36:31.998Z</time></trkpt><trkpt lat="36.55105549303347" lon="-5.190767210656768"><ele>600.8333333333334</ele><time>2026-04-25T10:36:32.998Z</time></trkpt><trkpt lat="36.550954058252955" lon="-5.190764856456063"><ele>598.6666666666666</ele><time>2026-04-25T10:36:33.998Z</time></trkpt><trkpt lat="36.55087162226903" lon="-5.190793218053751"><ele>596.5</ele><time>2026-04-25T10:36:34.998Z</time></trkpt><trkpt lat="36.550790014144724" lon="-5.190808319137524"><ele>594.3333333333333</ele><time>2026-04-25T10:36:35.998Z</time></trkpt><trkpt lat="36.55072583583667" lon="-5.190832301033493"><ele>592.1666666666666</ele><time>2026-04-25T10:36:37Z</time></trkpt><trkpt lat="36.5506617749001" lon="-5.190861075186886"><ele>590.0</ele><time>2026-04-25T10:36:38Z</time></trkpt><trkpt lat="36.550572676470466" lon="-5.1909922503130765"><ele>590.0</ele><time>2026-04-25T10:36:40Z</time></trkpt><trkpt lat="36.55056573661824" lon="-5.191106036217935"><ele>590.0</ele><time>2026-04-25T10:36:41Z</time></trkpt><trkpt lat="36.550567193031526" lon="-5.191222825724815"><ele>590.0</ele><time>2026-04-25T10:36:42Z</time></trkpt><trkpt lat="36.55058226978036" lon="-5.191354776173335"><ele>590.0</ele><time>2026-04-25T10:36:43Z</time></trkpt><trkpt lat="36.550592533292345" lon="-5.191485893175439"><ele>590.0</ele><time>2026-04-25T10:36:44Z</time></trkpt><trkpt lat="36.550612431859356" lon="-5.191594297015609"><ele>592.0</ele><time>2026-04-25T10:36:45Z</time></trkpt><trkpt lat="36.550614461037625" lon="-5.191706130912407"><ele>594.0</ele><time>2026-04-25T10:36:46Z</time></trkpt><trkpt lat="36.5506334333842" lon="-5.191788478744273"><ele>596.0</ele><time>2026-04-25T10:36:47Z</time></trkpt><trkpt lat="36.55064549294848" lon="-5.191924451640563"><ele>598.0</ele><time>2026-04-25T10:36:49Z</time></trkpt><trkpt lat="36.55057703321404" lon="-5.192031077390953"><ele>600.0</ele><time>2026-04-25T10:36:51Z</time></trkpt><trkpt lat="36.55051055973132" lon="-5.192067726521041"><ele>600.0</ele><time>2026-04-25T10:36:52Z</time></trkpt><trkpt lat="36.55041109808326" lon="-5.192011932873922"><ele>600.0</ele><time>2026-04-25T10:36:54Z</time></trkpt><trkpt lat="36.550326723898486" lon="-5.1919704557291935"><ele>600.0</ele><time>2026-04-25T10:36:55Z</time></trkpt><trkpt lat="36.5502525939483" lon="-5.191904643254778"><ele>600.0</ele><time>2026-04-25T10:36:56Z</time></trkpt><trkpt lat="36.55018134185121" lon="-5.19181972318161"><ele>600.0</ele><time>2026-04-25T10:36:57Z</time></trkpt><trkpt lat="36.5501195361182" lon="-5.191727330737116"><ele>596.0</ele><time>2026-04-25T10:36:58Z</time></trkpt><trkpt lat="36.55006870858259" lon="-5.191640823081488"><ele>592.0</ele><time>2026-04-25T10:36:59Z</time></trkpt><trkpt lat="36.5500207842626" lon="-5.191556235492255"><ele>588.0</ele><time>2026-04-25T10:37:00Z</time></trkpt><trkpt lat="36.54995654543288" lon="-5.1914593932423685"><ele>584.0</ele><time>2026-04-25T10:37:02Z</time></trkpt><trkpt lat="36.54989662799103" lon="-5.191387149933635"><ele>580.0</ele><time>2026-04-25T10:37:04Z</time></trkpt><trkpt lat="36.549816675527" lon="-5.191304297523141"><ele>576.8</ele><time>2026-04-25T10:37:06Z</time></trkpt><trkpt lat="36.549728086334675" lon="-5.191237911005737"><ele>573.6</ele><time>2026-04-25T10:37:08Z</time></trkpt><trkpt lat="36.54963549022135" lon="-5.191232844596944"><ele>570.4</ele><time>2026-04-25T10:37:10Z</time></trkpt><trkpt lat="36.54958086173137" lon="-5.191309883361947"><ele>567.2</ele><time>2026-04-25T10:37:11Z</time></trkpt><trkpt lat="36.54952906242515" lon="-5.191392234268265"><ele>564.0</ele><time>2026-04-25T10:37:12Z</time></trkpt><trkpt lat="36.54947484189683" lon="-5.191477049704003"><ele>564.1666666666666</ele><time>2026-04-25T10:37:13Z</time></trkpt><trkpt lat="36.54940084111626" lon="-5.191535571578758"><ele>564.3333333333334</ele><time>2026-04-25T10:37:14Z</time></trkpt><trkpt lat="36.54932237500288" lon="-5.19158126996385"><ele>564.5</ele><time>2026-04-25T10:37:15Z</time></trkpt><trkpt lat="36.54925092319686" lon="-5.191633212181934"><ele>564.6666666666667</ele><time>2026-04-25T10:37:16Z</time></trkpt><trkpt lat="36.549184110780615" lon="-5.19170022933105"><ele>564.8333333333334</ele><time>2026-04-25T10:37:17Z</time></trkpt><trkpt lat="36.54912968568859" lon="-5.191768374200495"><ele>565.0</ele><time>2026-04-25T10:37:18Z</time></trkpt><trkpt lat="36.549066503938924" lon="-5.19183364978819"><ele>565.0</ele><time>2026-04-25T10:37:18.999Z</time></trkpt><trkpt lat="36.54898925995662" lon="-5.191889069926948"><ele>565.0</ele><time>2026-04-25T10:37:19.999Z</time></trkpt><trkpt lat="36.54891217658181" lon="-5.191935631523821"><ele>565.0</ele><time>2026-04-25T10:37:20.999Z</time></trkpt><trkpt lat="36.54883433909137" lon="-5.191965146225557"><ele>565.0</ele><time>2026-04-25T10:37:21.999Z</time></trkpt><trkpt lat="36.548766590974196" lon="-5.191966303852572"><ele>565.0</ele><time>2026-04-25T10:37:22.999Z</time></trkpt><trkpt lat="36.548706838568904" lon="-5.192004548771757"><ele>565.0</ele><time>2026-04-25T10:37:23.999Z</time></trkpt><trkpt lat="36.54859926521642" lon="-5.19206169019528"><ele>561.0</ele><time>2026-04-25T10:37:25.999Z</time></trkpt><trkpt lat="36.548524315475404" lon="-5.192141932320092"><ele>557.0</ele><time>2026-04-25T10:37:27.999Z</time></trkpt><trkpt lat="36.548417958441476" lon="-5.19216489401656"><ele>553.0</ele><time>2026-04-25T10:37:29.999Z</time></trkpt><trkpt lat="36.54829275885035" lon="-5.192201032174366"><ele>549.0</ele><time>2026-04-25T10:37:31.999Z</time></trkpt><trkpt lat="36.54821560349411" lon="-5.192207447214896"><ele>545.0</ele><time>2026-04-25T10:37:32.999Z</time></trkpt><trkpt lat="36.54815058535714" lon="-5.192205464990245"><ele>545.0</ele><time>2026-04-25T10:37:33.999Z</time></trkpt><trkpt lat="36.54808137144402" lon="-5.19219819495604"><ele>545.0</ele><time>2026-04-25T10:37:34.999Z</time></trkpt><trkpt lat="36.547989783236254" lon="-5.192164938149978"><ele>545.0</ele><time>2026-04-25T10:37:35.999Z</time></trkpt><trkpt lat="36.5479209784234" lon="-5.192128540688808"><ele>545.0</ele><time>2026-04-25T10:37:36.999Z</time></trkpt><trkpt lat="36.54785939786817" lon="-5.1920967734901184"><ele>545.0</ele><time>2026-04-25T10:37:37.999Z</time></trkpt><trkpt lat="36.5478035120406" lon="-5.19204978643433"><ele>545.0</ele><time>2026-04-25T10:37:38.999Z</time></trkpt><trkpt lat="36.54777201160853" lon="-5.19198173975784"><ele>545.0</ele><time>2026-04-25T10:37:39.999Z</time></trkpt><trkpt lat="36.54770492968974" lon="-5.191915276128318"><ele>545.0</ele><time>2026-04-25T10:37:41.999Z</time></trkpt><trkpt lat="36.547647519637394" lon="-5.191989868457121"><ele>545.0</ele><time>2026-04-25T10:37:44.999Z</time></trkpt><trkpt lat="36.54771063232389" lon="-5.192097354261772"><ele>545.0</ele><time>2026-04-25T10:37:46.999Z</time></trkpt><trkpt lat="36.547767960917426" lon="-5.192135195027832"><ele>545.0</ele><time>2026-04-25T10:37:47.999Z</time></trkpt><trkpt lat="36.547843360284986" lon="-5.192177268987558"><ele>545.0</ele><time>2026-04-25T10:37:48.999Z</time></trkpt><trkpt lat="36.54791544514506" lon="-5.192239443141427"><ele>545.0</ele><time>2026-04-25T10:37:49.999Z</time></trkpt><trkpt lat="36.54797971542485" lon="-5.192307747418859"><ele>545.7142857142858</ele><time>2026-04-25T10:37:50.999Z</time></trkpt><trkpt lat="36.548037363352705" lon="-5.192357004184673"><ele>546.4285714285714</ele><time>2026-04-25T10:37:51.999Z</time></trkpt><trkpt lat="36.54810761588817" lon="-5.19239964881965"><ele>547.1428571428571</ele><time>2026-04-25T10:37:52.999Z</time></trkpt><trkpt lat="36.54817444847479" lon="-5.192419682799228"><ele>547.8571428571429</ele><time>2026-04-25T10:37:53.999Z</time></trkpt><trkpt lat="36.54824241908608" lon="-5.192450948747021"><ele>548.5714285714286</ele><time>2026-04-25T10:37:54.999Z</time></trkpt><trkpt lat="36.54830611083452" lon="-5.192484627510675"><ele>549.2857142857143</ele><time>2026-04-25T10:37:55.999Z</time></trkpt><trkpt lat="36.54837037120674" lon="-5.192505972014425"><ele>550.0</ele><time>2026-04-25T10:37:56.999Z</time></trkpt><trkpt lat="36.5484143166325" lon="-5.192592952610226"><ele>550.0</ele><time>2026-04-25T10:37:58.999Z</time></trkpt><trkpt lat="36.54839365961225" lon="-5.192689628501777"><ele>550.0</ele><time>2026-04-25T10:38:00.999Z</time></trkpt><trkpt lat="36.5483186627574" lon="-5.192740984737894"><ele>550.0</ele><time>2026-04-25T10:38:02.999Z</time></trkpt><trkpt lat="36.54824335627806" lon="-5.192734275462278"><ele>550.0</ele><time>2026-04-25T10:38:03.999Z</time></trkpt><trkpt lat="36.54816190951814" lon="-5.192729282310729"><ele>550.0</ele><time>2026-04-25T10:38:04.999Z</time></trkpt><trkpt lat="36.54808193526484" lon="-5.192728662089931"><ele>550.0</ele><time>2026-04-25T10:38:05.999Z</time></trkpt><trkpt lat="36.5480096378143" lon="-5.19273416463284"><ele>550.0</ele><time>2026-04-25T10:38:06.999Z</time></trkpt><trkpt lat="36.54794169625689" lon="-5.192739995579662"><ele>550.0</ele><time>2026-04-25T10:38:07.999Z</time></trkpt><trkpt lat="36.54787567850019" lon="-5.192743361578329"><ele>550.0</ele><time>2026-04-25T10:38:08.999Z</time></trkpt><trkpt lat="36.54780250294753" lon="-5.192721176530708"><ele>550.0</ele><time>2026-04-25T10:38:09.999Z</time></trkpt><trkpt lat="36.54774009673196" lon="-5.192710592524787"><ele>550.0</ele><time>2026-04-25T10:38:10.999Z</time></trkpt><trkpt lat="36.54761845206651" lon="-5.1927453828149375"><ele>550.0</ele><time>2026-04-25T10:38:12.999Z</time></trkpt><trkpt lat="36.5475493702359" lon="-5.192785372321052"><ele>547.3333333333334</ele><time>2026-04-25T10:38:13.999Z</time></trkpt><trkpt lat="36.547486941258796" lon="-5.192819857662976"><ele>544.6666666666667</ele><time>2026-04-25T10:38:14.999Z</time></trkpt><trkpt lat="36.547409589435425" lon="-5.192881287326257"><ele>542.0</ele><time>2026-04-25T10:38:16.999Z</time></trkpt><trkpt lat="36.54740190748288" lon="-5.192979001646819"><ele>539.3333333333334</ele><time>2026-04-25T10:38:17.999Z</time></trkpt><trkpt lat="36.54739964564489" lon="-5.193076563567064"><ele>536.6666666666666</ele><time>2026-04-25T10:38:18.999Z</time></trkpt><trkpt lat="36.54741201459613" lon="-5.19315913409705"><ele>534.0</ele><time>2026-04-25T10:38:19.999Z</time></trkpt><trkpt lat="36.547424452303886" lon="-5.193241026779711"><ele>534.0</ele><time>2026-04-25T10:38:20.999Z</time></trkpt><trkpt lat="36.54741632220818" lon="-5.193330961432959"><ele>534.0</ele><time>2026-04-25T10:38:21.999Z</time></trkpt><trkpt lat="36.547390228552736" lon="-5.193438223399449"><ele>534.0</ele><time>2026-04-25T10:38:22.999Z</time></trkpt><trkpt lat="36.547364140029295" lon="-5.193518830834793"><ele>534.0</ele><time>2026-04-25T10:38:23.999Z</time></trkpt><trkpt lat="36.54734434530893" lon="-5.193600654266594"><ele>534.0</ele><time>2026-04-25T10:38:24.999Z</time></trkpt><trkpt lat="36.54733037987476" lon="-5.193683162387074"><ele>534.0</ele><time>2026-04-25T10:38:25.999Z</time></trkpt><trkpt lat="36.54728886330316" lon="-5.193821406414698"><ele>534.0</ele><time>2026-04-25T10:38:27.999Z</time></trkpt><trkpt lat="36.54722978046104" lon="-5.193868809881787"><ele>534.0</ele><time>2026-04-25T10:38:29.999Z</time></trkpt><trkpt lat="36.547296502752026" lon="-5.1938041460655455"><ele>534.0</ele><time>2026-04-25T10:38:51Z</time></trkpt><trkpt lat="36.54724901823318" lon="-5.1935748362311935"><ele>534.0</ele><time>2026-04-25T10:38:52Z</time></trkpt><trkpt lat="36.54727163926568" lon="-5.193501178418567"><ele>534.0</ele><time>2026-04-25T10:38:53Z</time></trkpt><trkpt lat="36.54729612499384" lon="-5.193351262776738"><ele>534.0</ele><time>2026-04-25T10:38:55Z</time></trkpt><trkpt lat="36.54726945997115" lon="-5.193201219770953"><ele>534.0</ele><time>2026-04-25T10:38:57Z</time></trkpt><trkpt lat="36.54722920990626" lon="-5.193127411096886"><ele>534.0</ele><time>2026-04-25T10:38:58Z</time></trkpt><trkpt lat="36.54718621868186" lon="-5.193061167203865"><ele>534.0</ele><time>2026-04-25T10:38:59Z</time></trkpt><trkpt lat="36.54709329603065" lon="-5.192987913383941"><ele>534.0</ele><time>2026-04-25T10:39:01Z</time></trkpt><trkpt lat="36.54702672065029" lon="-5.192983706655817"><ele>534.0</ele><time>2026-04-25T10:39:02Z</time></trkpt><trkpt lat="36.546962588787515" lon="-5.192988154251614"><ele>534.1666666666666</ele><time>2026-04-25T10:39:03Z</time></trkpt><trkpt lat="36.54690249018616" lon="-5.193028986926956"><ele>534.3333333333334</ele><time>2026-04-25T10:39:04Z</time></trkpt><trkpt lat="36.54684624539729" lon="-5.1930868734289115"><ele>534.5</ele><time>2026-04-25T10:39:05Z</time></trkpt><trkpt lat="36.546782925405964" lon="-5.193161085280842"><ele>534.6666666666667</ele><time>2026-04-25T10:39:06Z</time></trkpt><trkpt lat="36.54670782027896" lon="-5.193225759227841"><ele>534.8333333333334</ele><time>2026-04-25T10:39:07Z</time></trkpt><trkpt lat="36.54662227637882" lon="-5.19327765517145"><ele>535.0</ele><time>2026-04-25T10:39:08Z</time></trkpt><trkpt lat="36.5465269156398" lon="-5.193317284888518"><ele>533.0</ele><time>2026-04-25T10:39:09Z</time></trkpt><trkpt lat="36.54643428535895" lon="-5.193342224095585"><ele>531.0</ele><time>2026-04-25T10:39:10Z</time></trkpt><trkpt lat="36.54633712529391" lon="-5.19337500985014"><ele>529.0</ele><time>2026-04-25T10:39:11Z</time></trkpt><trkpt lat="36.54621757544189" lon="-5.193385345599503"><ele>527.0</ele><time>2026-04-25T10:39:12Z</time></trkpt><trkpt lat="36.546093523193704" lon="-5.19338721922565"><ele>525.0</ele><time>2026-04-25T10:39:13Z</time></trkpt><trkpt lat="36.54597152097209" lon="-5.193398910111202"><ele>525.0</ele><time>2026-04-25T10:39:14Z</time></trkpt><trkpt lat="36.54586539770266" lon="-5.193429843777983"><ele>525.0</ele><time>2026-04-25T10:39:15Z</time></trkpt><trkpt lat="36.54576102261439" lon="-5.193458923608962"><ele>525.0</ele><time>2026-04-25T10:39:16Z</time></trkpt><trkpt lat="36.54565066909293" lon="-5.193483351611627"><ele>525.0</ele><time>2026-04-25T10:39:17Z</time></trkpt><trkpt lat="36.545540341505124" lon="-5.19352413468512"><ele>525.0</ele><time>2026-04-25T10:39:18Z</time></trkpt><trkpt lat="36.545423701812496" lon="-5.193580018277631"><ele>529.5</ele><time>2026-04-25T10:39:19Z</time></trkpt><trkpt lat="36.54530031643383" lon="-5.193640663117847"><ele>534.0</ele><time>2026-04-25T10:39:20Z</time></trkpt><trkpt lat="36.54518848965596" lon="-5.193714259163048"><ele>538.5</ele><time>2026-04-25T10:39:21Z</time></trkpt><trkpt lat="36.54507491554525" lon="-5.193778340163276"><ele>543.0</ele><time>2026-04-25T10:39:22Z</time></trkpt><trkpt lat="36.544967237852376" lon="-5.1938504020523055"><ele>543.0</ele><time>2026-04-25T10:39:23Z</time></trkpt><trkpt lat="36.544880391650985" lon="-5.193929643484687"><ele>543.0</ele><time>2026-04-25T10:39:24Z</time></trkpt><trkpt lat="36.54481092609665" lon="-5.194009631114998"><ele>543.0</ele><time>2026-04-25T10:39:25Z</time></trkpt><trkpt lat="36.54474668872394" lon="-5.194090748761892"><ele>543.0</ele><time>2026-04-25T10:39:26Z</time></trkpt><trkpt lat="36.54469534756854" lon="-5.1942024309766754"><ele>543.0</ele><time>2026-04-25T10:39:27Z</time></trkpt><trkpt lat="36.54466173402177" lon="-5.194348447721342"><ele>535.0</ele><time>2026-04-25T10:39:28Z</time></trkpt><trkpt lat="36.544636045219306" lon="-5.1944935392022105"><ele>527.0</ele><time>2026-04-25T10:39:29Z</time></trkpt><trkpt lat="36.54459863555485" lon="-5.194647249555617"><ele>519.0</ele><time>2026-04-25T10:39:30Z</time></trkpt><trkpt lat="36.544569018718796" lon="-5.1947734784585125"><ele>511.0</ele><time>2026-04-25T10:39:31Z</time></trkpt><trkpt lat="36.54451193454167" lon="-5.194888389443278"><ele>511.0</ele><time>2026-04-25T10:39:31.999Z</time></trkpt><trkpt lat="36.54446350137942" lon="-5.1950015802408265"><ele>511.0</ele><time>2026-04-25T10:39:32.999Z</time></trkpt><trkpt lat="36.544416431510435" lon="-5.195102391582861"><ele>511.0</ele><time>2026-04-25T10:39:33.999Z</time></trkpt><trkpt lat="36.544373502925176" lon="-5.195194698993592"><ele>511.0</ele><time>2026-04-25T10:39:34.999Z</time></trkpt><trkpt lat="36.54431929837635" lon="-5.19527930036706"><ele>511.0</ele><time>2026-04-25T10:39:35.999Z</time></trkpt><trkpt lat="36.544250432405406" lon="-5.195351056596899"><ele>511.0</ele><time>2026-04-25T10:39:36.999Z</time></trkpt><trkpt lat="36.54417045397262" lon="-5.195407527418665"><ele>511.0</ele><time>2026-04-25T10:39:37.999Z</time></trkpt><trkpt lat="36.54410049808401" lon="-5.195467496142865"><ele>511.0</ele><time>2026-04-25T10:39:38.999Z</time></trkpt><trkpt lat="36.54395163394922" lon="-5.195574280405542"><ele>511.0</ele><time>2026-04-25T10:39:40.999Z</time></trkpt><trkpt lat="36.54386964689223" lon="-5.19558892541516"><ele>511.0</ele><time>2026-04-25T10:39:41.999Z</time></trkpt><trkpt lat="36.54377842350826" lon="-5.195597721814402"><ele>509.2857142857143</ele><time>2026-04-25T10:39:42.999Z</time></trkpt><trkpt lat="36.54369755940071" lon="-5.195586105034414"><ele>507.57142857142856</ele><time>2026-04-25T10:39:43.999Z</time></trkpt><trkpt lat="36.54363574503944" lon="-5.19555960896624"><ele>505.8571428571429</ele><time>2026-04-25T10:39:44.999Z</time></trkpt><trkpt lat="36.54359019860779" lon="-5.195501782914412"><ele>504.14285714285717</ele><time>2026-04-25T10:39:45.999Z</time></trkpt><trkpt lat="36.54356280344073" lon="-5.195419874146207"><ele>502.42857142857144</ele><time>2026-04-25T10:39:46.999Z</time></trkpt><trkpt lat="36.54353942869277" lon="-5.195336958420143"><ele>500.7142857142858</ele><time>2026-04-25T10:39:47.999Z</time></trkpt><trkpt lat="36.543545833234475" lon="-5.19524145219995"><ele>499.00000000000006</ele><time>2026-04-25T10:39:48.999Z</time></trkpt><trkpt lat="36.543500807917226" lon="-5.195126206810839"><ele>499.0</ele><time>2026-04-25T10:39:50.999Z</time></trkpt><trkpt lat="36.54338593566541" lon="-5.195112004472878"><ele>499.0</ele><time>2026-04-25T10:39:52.999Z</time></trkpt><trkpt lat="36.54331256499378" lon="-5.1951499591058266"><ele>499.0</ele><time>2026-04-25T10:39:53.999Z</time></trkpt><trkpt lat="36.54322664769289" lon="-5.195206537186373"><ele>499.0</ele><time>2026-04-25T10:39:54.999Z</time></trkpt><trkpt lat="36.543154293059885" lon="-5.195264691435207"><ele>499.0</ele><time>2026-04-25T10:39:55.999Z</time></trkpt><trkpt lat="36.54307401407945" lon="-5.195330168686192"><ele>499.0</ele><time>2026-04-25T10:39:56.999Z</time></trkpt><trkpt lat="36.54299660681914" lon="-5.195403037421603"><ele>499.0</ele><time>2026-04-25T10:39:57.999Z</time></trkpt><trkpt lat="36.54290163051566" lon="-5.195464662545678"><ele>499.0</ele><time>2026-04-25T10:39:58.999Z</time></trkpt><trkpt lat="36.5428025939413" lon="-5.195521744871263"><ele>499.0</ele><time>2026-04-25T10:39:59.999Z</time></trkpt><trkpt lat="36.54271639683001" lon="-5.1955979164777855"><ele>499.0</ele><time>2026-04-25T10:40:00.999Z</time></trkpt><trkpt lat="36.542635532415574" lon="-5.195678528611715"><ele>497.4</ele><time>2026-04-25T10:40:01.999Z</time></trkpt><trkpt lat="36.54256134908757" lon="-5.195756325481661"><ele>495.79999999999995</ele><time>2026-04-25T10:40:02.999Z</time></trkpt><trkpt lat="36.54248707273803" lon="-5.195818183535643"><ele>494.20000000000005</ele><time>2026-04-25T10:40:03.999Z</time></trkpt><trkpt lat="36.542408909688476" lon="-5.195870116051297"><ele>492.6</ele><time>2026-04-25T10:40:04.999Z</time></trkpt><trkpt lat="36.542326919532506" lon="-5.195914810774574"><ele>491.0</ele><time>2026-04-25T10:40:05.999Z</time></trkpt><trkpt lat="36.54224226099576" lon="-5.195951437856662"><ele>491.0</ele><time>2026-04-25T10:40:06.999Z</time></trkpt><trkpt lat="36.54215769558852" lon="-5.195982063099025"><ele>491.0</ele><time>2026-04-25T10:40:07.999Z</time></trkpt><trkpt lat="36.54207307726921" lon="-5.196002277292386"><ele>491.0</ele><time>2026-04-25T10:40:08.999Z</time></trkpt><trkpt lat="36.54198204438534" lon="-5.196015095951157"><ele>491.0</ele><time>2026-04-25T10:40:09.999Z</time></trkpt><trkpt lat="36.54188762683104" lon="-5.19604305118943"><ele>491.0</ele><time>2026-04-25T10:40:10.999Z</time></trkpt><trkpt lat="36.541792270932554" lon="-5.19605553762818"><ele>493.8</ele><time>2026-04-25T10:40:11.999Z</time></trkpt><trkpt lat="36.54169612656036" lon="-5.196058694160115"><ele>496.6</ele><time>2026-04-25T10:40:12.999Z</time></trkpt><trkpt lat="36.541602816785236" lon="-5.196103280692093"><ele>499.4</ele><time>2026-04-25T10:40:13.999Z</time></trkpt><trkpt lat="36.541509998125036" lon="-5.196151874257789"><ele>502.2</ele><time>2026-04-25T10:40:14.999Z</time></trkpt><trkpt lat="36.54143983765183" lon="-5.19624091309447"><ele>505.0</ele><time>2026-04-25T10:40:15.999Z</time></trkpt><trkpt lat="36.541351705431104" lon="-5.196336738960614"><ele>505.0</ele><time>2026-04-25T10:40:16.999Z</time></trkpt><trkpt lat="36.54126248354694" lon="-5.196426760809266"><ele>505.0</ele><time>2026-04-25T10:40:17.999Z</time></trkpt><trkpt lat="36.54119527238132" lon="-5.196516515098482"><ele>505.0</ele><time>2026-04-25T10:40:18.999Z</time></trkpt><trkpt lat="36.541121715172224" lon="-5.19658536288166"><ele>505.0</ele><time>2026-04-25T10:40:19.999Z</time></trkpt><trkpt lat="36.541046040388274" lon="-5.196638946808807"><ele>505.0</ele><time>2026-04-25T10:40:20.999Z</time></trkpt><trkpt lat="36.54095873048323" lon="-5.196673071232497"><ele>500.6</ele><time>2026-04-25T10:40:21.999Z</time></trkpt><trkpt lat="36.540867862302456" lon="-5.196732303362548"><ele>496.2</ele><time>2026-04-25T10:40:22.999Z</time></trkpt><trkpt lat="36.54076254853669" lon="-5.196774915490782"><ele>491.79999999999995</ele><time>2026-04-25T10:40:23.999Z</time></trkpt><trkpt lat="36.540663558878315" lon="-5.196813491396198"><ele>487.4</ele><time>2026-04-25T10:40:24.999Z</time></trkpt><trkpt lat="36.54056879363748" lon="-5.196850421053673"><ele>483.0</ele><time>2026-04-25T10:40:25.999Z</time></trkpt><trkpt lat="36.54048157607453" lon="-5.196891813380255"><ele>489.0</ele><time>2026-04-25T10:40:26.999Z</time></trkpt><trkpt lat="36.54038296069144" lon="-5.19694703616063"><ele>495.0</ele><time>2026-04-25T10:40:27.999Z</time></trkpt><trkpt lat="36.54029001152361" lon="-5.1970485321835005"><ele>501.0</ele><time>2026-04-25T10:40:28.999Z</time></trkpt><trkpt lat="36.5402104571425" lon="-5.197172643733802"><ele>507.0</ele><time>2026-04-25T10:40:29.999Z</time></trkpt><trkpt lat="36.54011948603597" lon="-5.197287091725241"><ele>498.25</ele><time>2026-04-25T10:40:30.999Z</time></trkpt><trkpt lat="36.540010768316414" lon="-5.197391343234416"><ele>489.5</ele><time>2026-04-25T10:40:31.999Z</time></trkpt><trkpt lat="36.539908460368466" lon="-5.197494776040177"><ele>480.75</ele><time>2026-04-25T10:40:32.999Z</time></trkpt><trkpt lat="36.539807246406376" lon="-5.197591474990228"><ele>472.0</ele><time>2026-04-25T10:40:33.999Z</time></trkpt><trkpt lat="36.53970891681386" lon="-5.197688181019623"><ele>472.0</ele><time>2026-04-25T10:40:34.999Z</time></trkpt><trkpt lat="36.539603299502566" lon="-5.197779628395341"><ele>472.0</ele><time>2026-04-25T10:40:35.999Z</time></trkpt><trkpt lat="36.539500311117685" lon="-5.197861923271838"><ele>472.0</ele><time>2026-04-25T10:40:36.999Z</time></trkpt><trkpt lat="36.539402086850735" lon="-5.197957085555607"><ele>472.0</ele><time>2026-04-25T10:40:37.999Z</time></trkpt><trkpt lat="36.53929925447311" lon="-5.198046358231471"><ele>472.0</ele><time>2026-04-25T10:40:38.999Z</time></trkpt><trkpt lat="36.53918988948134" lon="-5.198121443851005"><ele>472.0</ele><time>2026-04-25T10:40:39.999Z</time></trkpt><trkpt lat="36.5390711986722" lon="-5.1981919679119"><ele>472.0</ele><time>2026-04-25T10:40:40.999Z</time></trkpt><trkpt lat="36.538957636285694" lon="-5.198254208846935"><ele>472.0</ele><time>2026-04-25T10:40:41.999Z</time></trkpt><trkpt lat="36.5388444234842" lon="-5.198300974707836"><ele>472.0</ele><time>2026-04-25T10:40:42.999Z</time></trkpt><trkpt lat="36.53875693674005" lon="-5.19839538096192"><ele>472.00000000000006</ele><time>2026-04-25T10:40:43.999Z</time></trkpt><trkpt lat="36.53868025943466" lon="-5.198475237663926"><ele>472.00000000000006</ele><time>2026-04-25T10:40:44.999Z</time></trkpt><trkpt lat="36.53860752346135" lon="-5.198527002985757"><ele>472.0</ele><time>2026-04-25T10:40:45.998Z</time></trkpt><trkpt lat="36.53852810214966" lon="-5.198569013766828"><ele>472.0</ele><time>2026-04-25T10:40:46.998Z</time></trkpt><trkpt lat="36.538436888062776" lon="-5.198609087700591"><ele>476.40000000000003</ele><time>2026-04-25T10:40:47.998Z</time></trkpt><trkpt lat="36.53833940248054" lon="-5.198650759935958"><ele>480.80000000000007</ele><time>2026-04-25T10:40:49Z</time></trkpt><trkpt lat="36.53824643937162" lon="-5.198696650161629"><ele>485.2</ele><time>2026-04-25T10:40:50Z</time></trkpt><trkpt lat="36.53814902389188" lon="-5.198740614978937"><ele>489.6</ele><time>2026-04-25T10:40:51Z</time></trkpt><trkpt lat="36.53805560209758" lon="-5.1987880512582985"><ele>494.0</ele><time>2026-04-25T10:40:52Z</time></trkpt><trkpt lat="36.53798065865841" lon="-5.198873611781863"><ele>494.0</ele><time>2026-04-25T10:40:53Z</time></trkpt><trkpt lat="36.53789795779747" lon="-5.198941831527441"><ele>494.0</ele><time>2026-04-25T10:40:54Z</time></trkpt><trkpt lat="36.53782592826608" lon="-5.199028173714487"><ele>494.0</ele><time>2026-04-25T10:40:55Z</time></trkpt><trkpt lat="36.53777364215389" lon="-5.1991172483870525"><ele>494.0</ele><time>2026-04-25T10:40:56Z</time></trkpt><trkpt lat="36.53773522601844" lon="-5.199183746107224"><ele>494.0</ele><time>2026-04-25T10:40:57Z</time></trkpt><trkpt lat="36.53767265418281" lon="-5.199318144871811"><ele>494.3333333333333</ele><time>2026-04-25T10:40:59Z</time></trkpt><trkpt lat="36.53764510097206" lon="-5.199429635415568"><ele>494.66666666666663</ele><time>2026-04-25T10:41:00Z</time></trkpt><trkpt lat="36.537617956641675" lon="-5.199527526181685"><ele>495.0</ele><time>2026-04-25T10:41:01Z</time></trkpt><trkpt lat="36.53758081152232" lon="-5.1996074528618275"><ele>495.33333333333337</ele><time>2026-04-25T10:41:02Z</time></trkpt><trkpt lat="36.5375200972769" lon="-5.199672015502265"><ele>495.6666666666667</ele><time>2026-04-25T10:41:03Z</time></trkpt><trkpt lat="36.537436082226236" lon="-5.199738277730242"><ele>496.0</ele><time>2026-04-25T10:41:04Z</time></trkpt><trkpt lat="36.53734422728298" lon="-5.1997934779208705"><ele>493.0</ele><time>2026-04-25T10:41:05Z</time></trkpt><trkpt lat="36.53724778903761" lon="-5.1998472837694365"><ele>490.0</ele><time>2026-04-25T10:41:06Z</time></trkpt><trkpt lat="36.53715975496559" lon="-5.199905318832578"><ele>487.0</ele><time>2026-04-25T10:41:07Z</time></trkpt><trkpt lat="36.53708627079235" lon="-5.2000010740318166"><ele>484.0</ele><time>2026-04-25T10:41:08Z</time></trkpt><trkpt lat="36.5370539734002" lon="-5.200108541311021"><ele>481.0</ele><time>2026-04-25T10:41:09Z</time></trkpt><trkpt lat="36.53701788580029" lon="-5.200191980088314"><ele>481.0</ele><time>2026-04-25T10:41:10Z</time></trkpt><trkpt lat="36.536957010942444" lon="-5.200228570485055"><ele>481.0</ele><time>2026-04-25T10:41:11Z</time></trkpt><trkpt lat="36.53687823947679" lon="-5.200234104083004"><ele>481.0</ele><time>2026-04-25T10:41:12Z</time></trkpt><trkpt lat="36.53678473167802" lon="-5.200193162573868"><ele>481.0</ele><time>2026-04-25T10:41:13Z</time></trkpt><trkpt lat="36.53667994343002" lon="-5.200142479978421"><ele>481.0</ele><time>2026-04-25T10:41:14Z</time></trkpt><trkpt lat="36.53656959585924" lon="-5.200075036177827"><ele>481.0</ele><time>2026-04-25T10:41:15Z</time></trkpt><trkpt lat="36.53644634228589" lon="-5.200013063933186"><ele>481.0</ele><time>2026-04-25T10:41:16Z</time></trkpt><trkpt lat="36.53633583686527" lon="-5.199966926154451"><ele>481.0</ele><time>2026-04-25T10:41:17Z</time></trkpt><trkpt lat="36.53623369304393" lon="-5.1999268176440046"><ele>481.0</ele><time>2026-04-25T10:41:18Z</time></trkpt><trkpt lat="36.536141421105725" lon="-5.199887171019571"><ele>481.0</ele><time>2026-04-25T10:41:19Z</time></trkpt><trkpt lat="36.53607330326289" lon="-5.199858920411861"><ele>481.0</ele><time>2026-04-25T10:41:20Z</time></trkpt><trkpt lat="36.53598113638788" lon="-5.199773237122228"><ele>481.0</ele><time>2026-04-25T10:41:21Z</time></trkpt><trkpt lat="36.535931341443224" lon="-5.199632575314974"><ele>481.0</ele><time>2026-04-25T10:41:22Z</time></trkpt><trkpt lat="36.53585755546146" lon="-5.199517705660964"><ele>481.0</ele><time>2026-04-25T10:41:23Z</time></trkpt><trkpt lat="36.53577152878379" lon="-5.199404977592032"><ele>481.0</ele><time>2026-04-25T10:41:24Z</time></trkpt><trkpt lat="36.53569034673354" lon="-5.199301615157016"><ele>481.0</ele><time>2026-04-25T10:41:25Z</time></trkpt><trkpt lat="36.53559028916881" lon="-5.199216414115225"><ele>481.0</ele><time>2026-04-25T10:41:26Z</time></trkpt><trkpt lat="36.53548702327977" lon="-5.199131980176526"><ele>481.0</ele><time>2026-04-25T10:41:27Z</time></trkpt><trkpt lat="36.53538028323342" lon="-5.199052635208166"><ele>485.0</ele><time>2026-04-25T10:41:28Z</time></trkpt><trkpt lat="36.53527008619153" lon="-5.198982044950785"><ele>489.0</ele><time>2026-04-25T10:41:29Z</time></trkpt><trkpt lat="36.53515544939524" lon="-5.198916261846768"><ele>493.0</ele><time>2026-04-25T10:41:30Z</time></trkpt><trkpt lat="36.53503185118123" lon="-5.198858179672049"><ele>497.0</ele><time>2026-04-25T10:41:31Z</time></trkpt><trkpt lat="36.53489677897522" lon="-5.198831079351493"><ele>497.0</ele><time>2026-04-25T10:41:32Z</time></trkpt><trkpt lat="36.53477673454866" lon="-5.198782160081286"><ele>497.00000000000006</ele><time>2026-04-25T10:41:33Z</time></trkpt><trkpt lat="36.534671273683976" lon="-5.19872040964071"><ele>497.00000000000006</ele><time>2026-04-25T10:41:33.999Z</time></trkpt><trkpt lat="36.534573225438784" lon="-5.198705595300688"><ele>497.0</ele><time>2026-04-25T10:41:34.999Z</time></trkpt><trkpt lat="36.534486829623276" lon="-5.198686188504942"><ele>497.0</ele><time>2026-04-25T10:41:35.999Z</time></trkpt><trkpt lat="36.5344177536881" lon="-5.198660757386308"><ele>490.6</ele><time>2026-04-25T10:41:36.999Z</time></trkpt><trkpt lat="36.5343567519993" lon="-5.198619908915738"><ele>484.20000000000005</ele><time>2026-04-25T10:41:37.999Z</time></trkpt><trkpt lat="36.53431310342936" lon="-5.198547062280671"><ele>477.8</ele><time>2026-04-25T10:41:38.999Z</time></trkpt><trkpt lat="36.534293587491156" lon="-5.198446908854465"><ele>471.4</ele><time>2026-04-25T10:41:39.999Z</time></trkpt><trkpt lat="36.53431731997391" lon="-5.198310539508593"><ele>465.0</ele><time>2026-04-25T10:41:40.999Z</time></trkpt><trkpt lat="36.53432410242608" lon="-5.1981704753991975"><ele>467.75</ele><time>2026-04-25T10:41:41.999Z</time></trkpt><trkpt lat="36.53432409726425" lon="-5.198016255293048"><ele>470.5</ele><time>2026-04-25T10:41:42.999Z</time></trkpt><trkpt lat="36.534320519496845" lon="-5.197870123249429"><ele>473.25</ele><time>2026-04-25T10:41:43.999Z</time></trkpt><trkpt lat="36.53429850064758" lon="-5.197725586660743"><ele>476.0</ele><time>2026-04-25T10:41:44.999Z</time></trkpt><trkpt lat="36.53426989451531" lon="-5.197581265290491"><ele>476.0</ele><time>2026-04-25T10:41:45.999Z</time></trkpt><trkpt lat="36.534210962043076" lon="-5.197459168916021"><ele>476.0</ele><time>2026-04-25T10:41:46.999Z</time></trkpt><trkpt lat="36.534133921806244" lon="-5.197358525337867"><ele>476.0</ele><time>2026-04-25T10:41:47.999Z</time></trkpt><trkpt lat="36.53410104590202" lon="-5.197248688984038"><ele>476.0</ele><time>2026-04-25T10:41:48.999Z</time></trkpt><trkpt lat="36.53406294136115" lon="-5.197150228456919"><ele>476.0</ele><time>2026-04-25T10:41:49.999Z</time></trkpt><trkpt lat="36.534024533576705" lon="-5.197066427281456"><ele>476.49999999999994</ele><time>2026-04-25T10:41:50.999Z</time></trkpt><trkpt lat="36.533996500930655" lon="-5.196982058286408"><ele>477.0</ele><time>2026-04-25T10:41:51.999Z</time></trkpt><trkpt lat="36.533966928724375" lon="-5.196898898857792"><ele>477.5</ele><time>2026-04-25T10:41:52.999Z</time></trkpt><trkpt lat="36.53393991172151" lon="-5.196813351073313"><ele>478.0</ele><time>2026-04-25T10:41:53.999Z</time></trkpt><trkpt lat="36.533927259355565" lon="-5.196714372916486"><ele>478.49999999999994</ele><time>2026-04-25T10:41:54.999Z</time></trkpt><trkpt lat="36.53394410671359" lon="-5.196605127883399"><ele>479.0</ele><time>2026-04-25T10:41:55.999Z</time></trkpt><trkpt lat="36.53397882875831" lon="-5.196496908858076"><ele>480.0</ele><time>2026-04-25T10:41:56.999Z</time></trkpt><trkpt lat="36.53400195298479" lon="-5.1963776376049005"><ele>481.0</ele><time>2026-04-25T10:41:57.999Z</time></trkpt><trkpt lat="36.5340201628317" lon="-5.196246209995656"><ele>482.0</ele><time>2026-04-25T10:41:58.999Z</time></trkpt><trkpt lat="36.534022729880625" lon="-5.196121178535617"><ele>483.0</ele><time>2026-04-25T10:41:59.999Z</time></trkpt><trkpt lat="36.53400923655151" lon="-5.196010041833052"><ele>484.0</ele><time>2026-04-25T10:42:00.999Z</time></trkpt><trkpt lat="36.533976894893414" lon="-5.195917056464936"><ele>484.0</ele><time>2026-04-25T10:42:01.999Z</time></trkpt><trkpt lat="36.53391852172289" lon="-5.195827797173306"><ele>484.0</ele><time>2026-04-25T10:42:03.999Z</time></trkpt><trkpt lat="36.53386519839859" lon="-5.1958854876569465"><ele>484.0</ele><time>2026-04-25T10:42:05.999Z</time></trkpt><trkpt lat="36.533810750653956" lon="-5.196038313887771"><ele>484.0</ele><time>2026-04-25T10:42:07.999Z</time></trkpt><trkpt lat="36.53379241005225" lon="-5.19613279962924"><ele>484.0</ele><time>2026-04-25T10:42:08.999Z</time></trkpt><trkpt lat="36.53375809659616" lon="-5.196223609571982"><ele>484.00000000000006</ele><time>2026-04-25T10:42:09.999Z</time></trkpt><trkpt lat="36.533724654884445" lon="-5.196305326535005"><ele>484.0</ele><time>2026-04-25T10:42:10.999Z</time></trkpt><trkpt lat="36.533680081450555" lon="-5.196378244138984"><ele>484.0</ele><time>2026-04-25T10:42:11.999Z</time></trkpt><trkpt lat="36.5336226664838" lon="-5.196449250401556"><ele>484.0</ele><time>2026-04-25T10:42:12.999Z</time></trkpt><trkpt lat="36.533566654774305" lon="-5.196525107791899"><ele>484.00000000000006</ele><time>2026-04-25T10:42:13.999Z</time></trkpt><trkpt lat="36.533507475480874" lon="-5.196594386736328"><ele>484.0</ele><time>2026-04-25T10:42:14.999Z</time></trkpt><trkpt lat="36.533447802812326" lon="-5.19667168458956"><ele>484.6</ele><time>2026-04-25T10:42:15.999Z</time></trkpt><trkpt lat="36.533394578584804" lon="-5.1967614849526855"><ele>485.2</ele><time>2026-04-25T10:42:16.999Z</time></trkpt><trkpt lat="36.53333858898924" lon="-5.196856919562105"><ele>485.80000000000007</ele><time>2026-04-25T10:42:17.999Z</time></trkpt><trkpt lat="36.533280478741716" lon="-5.196961336540669"><ele>486.40000000000003</ele><time>2026-04-25T10:42:18.999Z</time></trkpt><trkpt lat="36.53322742354656" lon="-5.197055966724454"><ele>487.0</ele><time>2026-04-25T10:42:19.999Z</time></trkpt><trkpt lat="36.53318236597087" lon="-5.197168084596092"><ele>487.0</ele><time>2026-04-25T10:42:20.999Z</time></trkpt><trkpt lat="36.533131827630726" lon="-5.19727948949434"><ele>487.0</ele><time>2026-04-25T10:42:21.999Z</time></trkpt><trkpt lat="36.53306152063377" lon="-5.197405055192588"><ele>487.0</ele><time>2026-04-25T10:42:22.999Z</time></trkpt><trkpt lat="36.532984367155585" lon="-5.1975686556164264"><ele>487.0</ele><time>2026-04-25T10:42:23.999Z</time></trkpt><trkpt lat="36.532922238284705" lon="-5.197679215280449"><ele>490.20000000000005</ele><time>2026-04-25T10:42:24.999Z</time></trkpt><trkpt lat="36.532870372164766" lon="-5.197830275421869"><ele>493.40000000000003</ele><time>2026-04-25T10:42:25.999Z</time></trkpt><trkpt lat="36.532778617471" lon="-5.197928040275685"><ele>496.59999999999997</ele><time>2026-04-25T10:42:26.999Z</time></trkpt><trkpt lat="36.5327153147477" lon="-5.198024423927407"><ele>499.79999999999995</ele><time>2026-04-25T10:42:27.999Z</time></trkpt><trkpt lat="36.53267098073352" lon="-5.198114766400671"><ele>503.0</ele><time>2026-04-25T10:42:28.999Z</time></trkpt><trkpt lat="36.532652264058896" lon="-5.198216193937813"><ele>503.0</ele><time>2026-04-25T10:42:29.999Z</time></trkpt><trkpt lat="36.532647901910074" lon="-5.198354719046695"><ele>503.0</ele><time>2026-04-25T10:42:30.999Z</time></trkpt><trkpt lat="36.53262626858013" lon="-5.1985225882625326"><ele>503.0</ele><time>2026-04-25T10:42:31.999Z</time></trkpt><trkpt lat="36.53259507441143" lon="-5.19870871218957"><ele>503.0</ele><time>2026-04-25T10:42:32.999Z</time></trkpt><trkpt lat="36.53253426954771" lon="-5.198889968252459"><ele>501.75</ele><time>2026-04-25T10:42:33.999Z</time></trkpt><trkpt lat="36.532478712525744" lon="-5.1990795193832815"><ele>500.5</ele><time>2026-04-25T10:42:34.999Z</time></trkpt><trkpt lat="36.53241391950983" lon="-5.19923417706047"><ele>499.25</ele><time>2026-04-25T10:42:35.999Z</time></trkpt><trkpt lat="36.53236366220573" lon="-5.199367127031952"><ele>498.0</ele><time>2026-04-25T10:42:36.999Z</time></trkpt><trkpt lat="36.53231245564664" lon="-5.19947421890653"><ele>498.0</ele><time>2026-04-25T10:42:37.999Z</time></trkpt><trkpt lat="36.53227826269534" lon="-5.199577183077414"><ele>497.99999999999994</ele><time>2026-04-25T10:42:38.999Z</time></trkpt><trkpt lat="36.53225415765806" lon="-5.199664196535127"><ele>497.99999999999994</ele><time>2026-04-25T10:42:39.999Z</time></trkpt><trkpt lat="36.532274263948175" lon="-5.199817523723762"><ele>498.0</ele><time>2026-04-25T10:42:41.999Z</time></trkpt><trkpt lat="36.532323442022424" lon="-5.1998848027036475"><ele>498.0</ele><time>2026-04-25T10:42:42.999Z</time></trkpt><trkpt lat="36.5324113494803" lon="-5.199943812765857"><ele>501.25</ele><time>2026-04-25T10:42:43.999Z</time></trkpt><trkpt lat="36.532518335854476" lon="-5.200005952327362"><ele>504.5</ele><time>2026-04-25T10:42:44.999Z</time></trkpt><trkpt lat="36.53265774657729" lon="-5.200102505205001"><ele>507.75</ele><time>2026-04-25T10:42:45.999Z</time></trkpt><trkpt lat="36.53278628422277" lon="-5.200179172435609"><ele>511.0</ele><time>2026-04-25T10:42:46.999Z</time></trkpt><trkpt lat="36.53291939894237" lon="-5.200250214904639"><ele>508.8</ele><time>2026-04-25T10:42:47.999Z</time></trkpt><trkpt lat="36.53303005684389" lon="-5.200313590721164"><ele>506.6</ele><time>2026-04-25T10:42:48.998Z</time></trkpt><trkpt lat="36.533117445041036" lon="-5.200377323518129"><ele>504.4</ele><time>2026-04-25T10:42:49.998Z</time></trkpt><trkpt lat="36.53320435777894" lon="-5.200445248595063"><ele>502.2</ele><time>2026-04-25T10:42:50.998Z</time></trkpt><trkpt lat="36.53327921358371" lon="-5.200519071582833"><ele>500.0</ele><time>2026-04-25T10:42:51.998Z</time></trkpt><trkpt lat="36.53333167090751" lon="-5.200685719936886"><ele>500.0</ele><time>2026-04-25T10:42:54Z</time></trkpt><trkpt lat="36.53331439315271" lon="-5.200802206976566"><ele>500.0</ele><time>2026-04-25T10:42:55Z</time></trkpt><trkpt lat="36.533261107573196" lon="-5.200913195470649"><ele>500.0</ele><time>2026-04-25T10:42:56Z</time></trkpt><trkpt lat="36.533198174361154" lon="-5.201032524821777"><ele>500.0</ele><time>2026-04-25T10:42:57Z</time></trkpt><trkpt lat="36.53314158723766" lon="-5.201160782454199"><ele>500.0</ele><time>2026-04-25T10:42:58Z</time></trkpt><trkpt lat="36.53307149036379" lon="-5.201285808832477"><ele>500.0</ele><time>2026-04-25T10:42:59Z</time></trkpt><trkpt lat="36.53300100267438" lon="-5.201411532285998"><ele>500.0</ele><time>2026-04-25T10:43:00Z</time></trkpt><trkpt lat="36.5329205087912" lon="-5.201538074291265"><ele>500.0</ele><time>2026-04-25T10:43:01Z</time></trkpt><trkpt lat="36.532836411310875" lon="-5.2016807431296215"><ele>500.0</ele><time>2026-04-25T10:43:02Z</time></trkpt><trkpt lat="36.53276819343203" lon="-5.201842485580747"><ele>507.5</ele><time>2026-04-25T10:43:03Z</time></trkpt><trkpt lat="36.53270647467084" lon="-5.201987703482213"><ele>515.0</ele><time>2026-04-25T10:43:04Z</time></trkpt><trkpt lat="36.532655909937475" lon="-5.202124132478753"><ele>522.5</ele><time>2026-04-25T10:43:05Z</time></trkpt><trkpt lat="36.53260112891021" lon="-5.2021826543870695"><ele>530.0</ele><time>2026-04-25T10:43:06Z</time></trkpt><trkpt lat="36.5324761405363" lon="-5.202243014068165"><ele>530.0</ele><time>2026-04-25T10:43:08Z</time></trkpt><trkpt lat="36.53238561365342" lon="-5.202291726111447"><ele>530.0</ele><time>2026-04-25T10:43:09Z</time></trkpt><trkpt lat="36.53226139120773" lon="-5.202368121525044"><ele>530.0</ele><time>2026-04-25T10:43:10Z</time></trkpt><trkpt lat="36.53213692528743" lon="-5.202471640617844"><ele>530.0</ele><time>2026-04-25T10:43:11Z</time></trkpt><trkpt lat="36.53202233457404" lon="-5.20252347422154"><ele>532.2</ele><time>2026-04-25T10:43:12Z</time></trkpt><trkpt lat="36.53196088206854" lon="-5.202578340343326"><ele>534.4</ele><time>2026-04-25T10:43:13Z</time></trkpt><trkpt lat="36.53190927829254" lon="-5.202663487838327"><ele>536.6</ele><time>2026-04-25T10:43:14Z</time></trkpt><trkpt lat="36.53187293374961" lon="-5.202768065838858"><ele>538.8</ele><time>2026-04-25T10:43:15Z</time></trkpt><trkpt lat="36.53186385846365" lon="-5.202880790000715"><ele>541.0</ele><time>2026-04-25T10:43:16Z</time></trkpt><trkpt lat="36.531876885135915" lon="-5.203012722547161"><ele>541.0</ele><time>2026-04-25T10:43:17Z</time></trkpt><trkpt lat="36.5318729943603" lon="-5.203111713207707"><ele>541.0</ele><time>2026-04-25T10:43:18Z</time></trkpt><trkpt lat="36.53183346183103" lon="-5.203211617484204"><ele>541.0</ele><time>2026-04-25T10:43:19Z</time></trkpt><trkpt lat="36.531766500525826" lon="-5.203312537964887"><ele>541.0</ele><time>2026-04-25T10:43:20Z</time></trkpt><trkpt lat="36.53169525873905" lon="-5.203408915865306"><ele>541.0</ele><time>2026-04-25T10:43:21Z</time></trkpt><trkpt lat="36.53162980923914" lon="-5.203464678664832"><ele>536.8</ele><time>2026-04-25T10:43:22Z</time></trkpt><trkpt lat="36.531557045535294" lon="-5.203472578560713"><ele>532.6</ele><time>2026-04-25T10:43:23Z</time></trkpt><trkpt lat="36.5314669524204" lon="-5.203466346050706"><ele>528.4</ele><time>2026-04-25T10:43:24Z</time></trkpt><trkpt lat="36.531393466142006" lon="-5.20338351499019"><ele>524.2</ele><time>2026-04-25T10:43:25Z</time></trkpt><trkpt lat="36.5313295416873" lon="-5.203256059160604"><ele>520.0</ele><time>2026-04-25T10:43:26Z</time></trkpt><trkpt lat="36.53127321840434" lon="-5.203164448151728"><ele>526.0</ele><time>2026-04-25T10:43:27Z</time></trkpt><trkpt lat="36.53121523220107" lon="-5.203112611675217"><ele>532.0</ele><time>2026-04-25T10:43:28Z</time></trkpt><trkpt lat="36.53113294007977" lon="-5.203069910746716"><ele>538.0</ele><time>2026-04-25T10:43:29Z</time></trkpt><trkpt lat="36.5310150946585" lon="-5.203013555675608"><ele>544.0</ele><time>2026-04-25T10:43:30Z</time></trkpt><trkpt lat="36.53090948994375" lon="-5.202950666159634"><ele>550.0</ele><time>2026-04-25T10:43:31Z</time></trkpt><trkpt lat="36.53082307797706" lon="-5.202875062224358"><ele>550.0</ele><time>2026-04-25T10:43:32Z</time></trkpt><trkpt lat="36.53076055721408" lon="-5.202804745785887"><ele>550.0</ele><time>2026-04-25T10:43:33Z</time></trkpt><trkpt lat="36.53069914883043" lon="-5.202759054976449"><ele>550.0</ele><time>2026-04-25T10:43:34Z</time></trkpt><trkpt lat="36.530634056308465" lon="-5.202758260923286"><ele>550.0</ele><time>2026-04-25T10:43:35Z</time></trkpt><trkpt lat="36.530568241449245" lon="-5.2027874747145555"><ele>550.0</ele><time>2026-04-25T10:43:36Z</time></trkpt><trkpt lat="36.530462212744006" lon="-5.20285578692065"><ele>550.0</ele><time>2026-04-25T10:43:37Z</time></trkpt><trkpt lat="36.53035836673126" lon="-5.202817547791434"><ele>546.5</ele><time>2026-04-25T10:43:38Z</time></trkpt><trkpt lat="36.53027673806943" lon="-5.202710236683381"><ele>543.0</ele><time>2026-04-25T10:43:39Z</time></trkpt><trkpt lat="36.53020022203994" lon="-5.202601415626363"><ele>539.5</ele><time>2026-04-25T10:43:40Z</time></trkpt><trkpt lat="36.53010861393612" lon="-5.202481870616765"><ele>536.0</ele><time>2026-04-25T10:43:41Z</time></trkpt><trkpt lat="36.53000268630149" lon="-5.202393037400529"><ele>541.75</ele><time>2026-04-25T10:43:42Z</time></trkpt><trkpt lat="36.52993506064871" lon="-5.202322186017329"><ele>547.5</ele><time>2026-04-25T10:43:42.999Z</time></trkpt><trkpt lat="36.529888197508825" lon="-5.202137122703743"><ele>553.25</ele><time>2026-04-25T10:43:44.999Z</time></trkpt><trkpt lat="36.52989713009243" lon="-5.201988645204433"><ele>559.0</ele><time>2026-04-25T10:43:45.999Z</time></trkpt><trkpt lat="36.52989326786625" lon="-5.201829127146199"><ele>559.0</ele><time>2026-04-25T10:43:46.999Z</time></trkpt><trkpt lat="36.52987146988471" lon="-5.201656163256317"><ele>559.0</ele><time>2026-04-25T10:43:47.999Z</time></trkpt><trkpt lat="36.52983830277972" lon="-5.201520744195829"><ele>559.0</ele><time>2026-04-25T10:43:48.999Z</time></trkpt><trkpt lat="36.52983474109611" lon="-5.201382931323273"><ele>559.0</ele><time>2026-04-25T10:43:49.999Z</time></trkpt><trkpt lat="36.529816195506584" lon="-5.201240140359161"><ele>561.4</ele><time>2026-04-25T10:43:50.999Z</time></trkpt><trkpt lat="36.52978197020394" lon="-5.201097438376092"><ele>563.8</ele><time>2026-04-25T10:43:51.999Z</time></trkpt><trkpt lat="36.52979586923258" lon="-5.2009772416006035"><ele>566.2</ele><time>2026-04-25T10:43:52.999Z</time></trkpt><trkpt lat="36.52984213462854" lon="-5.2008801800116355"><ele>568.6</ele><time>2026-04-25T10:43:53.999Z</time></trkpt><trkpt lat="36.52983143010893" lon="-5.200791230053921"><ele>571.0</ele><time>2026-04-25T10:43:54.999Z</time></trkpt><trkpt lat="36.52979047389057" lon="-5.200700502600817"><ele>571.0</ele><time>2026-04-25T10:43:56.999Z</time></trkpt><trkpt lat="36.529711543376415" lon="-5.200729506489893"><ele>571.0</ele><time>2026-04-25T10:43:57.999Z</time></trkpt><trkpt lat="36.52963621283955" lon="-5.20073559993593"><ele>571.0</ele><time>2026-04-25T10:43:58.999Z</time></trkpt><trkpt lat="36.52953828727472" lon="-5.200736269227245"><ele>571.0</ele><time>2026-04-25T10:43:59.999Z</time></trkpt><trkpt lat="36.52941684772047" lon="-5.200754525792519"><ele>571.0</ele><time>2026-04-25T10:44:00.999Z</time></trkpt><trkpt lat="36.529274346595166" lon="-5.200764584480684"><ele>568.8</ele><time>2026-04-25T10:44:01.999Z</time></trkpt><trkpt lat="36.529133964587366" lon="-5.200757764017367"><ele>566.6</ele><time>2026-04-25T10:44:02.999Z</time></trkpt><trkpt lat="36.52903895238108" lon="-5.2007436299952285"><ele>564.4</ele><time>2026-04-25T10:44:03.999Z</time></trkpt><trkpt lat="36.528968564835886" lon="-5.200731821807491"><ele>562.2</ele><time>2026-04-25T10:44:04.999Z</time></trkpt><trkpt lat="36.52889185077583" lon="-5.200710269379214"><ele>560.0</ele><time>2026-04-25T10:44:05.999Z</time></trkpt><trkpt lat="36.5288291032155" lon="-5.200612551072336"><ele>565.0</ele><time>2026-04-25T10:44:07.999Z</time></trkpt><trkpt lat="36.528782251440326" lon="-5.2005234757490975"><ele>570.0</ele><time>2026-04-25T10:45:14Z</time></trkpt><trkpt lat="36.52871479112244" lon="-5.20050302762741"><ele>575.0</ele><time>2026-04-25T10:45:15Z</time></trkpt><trkpt lat="36.52864756298603" lon="-5.200463133464085"><ele>580.0</ele><time>2026-04-25T10:45:16Z</time></trkpt><trkpt lat="36.52857212861209" lon="-5.200483980822685"><ele>585.0</ele><time>2026-04-25T10:45:17Z</time></trkpt><trkpt lat="36.5285021514899" lon="-5.200542610587856"><ele>590.0</ele><time>2026-04-25T10:45:18Z</time></trkpt><trkpt lat="36.528466753525635" lon="-5.2006275823301085"><ele>587.4</ele><time>2026-04-25T10:45:19Z</time></trkpt><trkpt lat="36.528475989967035" lon="-5.200724252855072"><ele>584.8</ele><time>2026-04-25T10:45:20Z</time></trkpt><trkpt lat="36.52850477054735" lon="-5.200887772126454"><ele>582.2</ele><time>2026-04-25T10:45:22Z</time></trkpt><trkpt lat="36.52852779012991" lon="-5.2010148132527805"><ele>579.6</ele><time>2026-04-25T10:45:23Z</time></trkpt><trkpt lat="36.52855294923629" lon="-5.201114674782061"><ele>577.0</ele><time>2026-04-25T10:45:24Z</time></trkpt><trkpt lat="36.52865446465307" lon="-5.201300113122454"><ele>577.0</ele><time>2026-04-25T10:45:26Z</time></trkpt><trkpt lat="36.528710292501" lon="-5.201375016629887"><ele>577.0</ele><time>2026-04-25T10:45:27Z</time></trkpt><trkpt lat="36.5287381787758" lon="-5.201451705552811"><ele>577.0</ele><time>2026-04-25T10:45:28Z</time></trkpt><trkpt lat="36.52871702839912" lon="-5.201595086573356"><ele>577.0</ele><time>2026-04-25T10:45:30Z</time></trkpt><trkpt lat="36.52868105692482" lon="-5.201675610347149"><ele>577.0</ele><time>2026-04-25T10:45:31Z</time></trkpt><trkpt lat="36.528625146505945" lon="-5.201760265038841"><ele>577.0</ele><time>2026-04-25T10:45:32Z</time></trkpt><trkpt lat="36.52853999405912" lon="-5.201789996385563"><ele>574.5</ele><time>2026-04-25T10:45:33Z</time></trkpt><trkpt lat="36.528433959573825" lon="-5.201777260898519"><ele>572.0</ele><time>2026-04-25T10:45:34Z</time></trkpt><trkpt lat="36.52831820661675" lon="-5.201755095996216"><ele>569.5</ele><time>2026-04-25T10:45:35Z</time></trkpt><trkpt lat="36.5282140715515" lon="-5.201808906529478"><ele>567.0</ele><time>2026-04-25T10:45:36Z</time></trkpt><trkpt lat="36.52810442670439" lon="-5.201872990670024"><ele>567.0</ele><time>2026-04-25T10:45:37Z</time></trkpt><trkpt lat="36.52800420782581" lon="-5.201949808076101"><ele>567.0</ele><time>2026-04-25T10:45:38Z</time></trkpt><trkpt lat="36.527918851616256" lon="-5.202013378759623"><ele>567.0</ele><time>2026-04-25T10:45:39Z</time></trkpt><trkpt lat="36.527851837179576" lon="-5.202087313845834"><ele>567.0</ele><time>2026-04-25T10:45:40Z</time></trkpt><trkpt lat="36.527782097311245" lon="-5.202132483752072"><ele>567.0</ele><time>2026-04-25T10:45:41Z</time></trkpt><trkpt lat="36.52777276948471" lon="-5.202230414542004"><ele>565.0</ele><time>2026-04-25T10:45:42Z</time></trkpt><trkpt lat="36.52780556371318" lon="-5.202312402435881"><ele>563.0</ele><time>2026-04-25T10:45:43Z</time></trkpt><trkpt lat="36.52786843281405" lon="-5.202395709708183"><ele>561.0</ele><time>2026-04-25T10:45:44Z</time></trkpt><trkpt lat="36.527934638440605" lon="-5.202532503634094"><ele>559.0</ele><time>2026-04-25T10:45:45Z</time></trkpt><trkpt lat="36.52800889528199" lon="-5.202674016190438"><ele>557.0</ele><time>2026-04-25T10:45:46Z</time></trkpt><trkpt lat="36.52809468928907" lon="-5.2027810788376465"><ele>557.0</ele><time>2026-04-25T10:45:47Z</time></trkpt><trkpt lat="36.528205050953915" lon="-5.202809421651605"><ele>557.0</ele><time>2026-04-25T10:45:48Z</time></trkpt><trkpt lat="36.52834748724388" lon="-5.202849138267742"><ele>557.0</ele><time>2026-04-25T10:45:49Z</time></trkpt><trkpt lat="36.52843826200109" lon="-5.202869063438786"><ele>557.0</ele><time>2026-04-25T10:45:50Z</time></trkpt><trkpt lat="36.5285079800208" lon="-5.202934304629237"><ele>557.0</ele><time>2026-04-25T10:45:51Z</time></trkpt><trkpt lat="36.52855974916714" lon="-5.203019963774057"><ele>554.0</ele><time>2026-04-25T10:45:52Z</time></trkpt><trkpt lat="36.528556117458756" lon="-5.203168578565727"><ele>551.0</ele><time>2026-04-25T10:45:53Z</time></trkpt><trkpt lat="36.52856405673188" lon="-5.20330589298811"><ele>548.0</ele><time>2026-04-25T10:45:54Z</time></trkpt><trkpt lat="36.52860310216792" lon="-5.203419739822021"><ele>545.0</ele><time>2026-04-25T10:45:55Z</time></trkpt><trkpt lat="36.528688190678544" lon="-5.203479208899823"><ele>542.0</ele><time>2026-04-25T10:45:56Z</time></trkpt><trkpt lat="36.52879128805666" lon="-5.203474268101241"><ele>542.0</ele><time>2026-04-25T10:45:56.999Z</time></trkpt><trkpt lat="36.52890708673639" lon="-5.203509077727126"><ele>542.0</ele><time>2026-04-25T10:45:57.999Z</time></trkpt><trkpt lat="36.529033217892085" lon="-5.203537360078678"><ele>542.0</ele><time>2026-04-25T10:45:58.999Z</time></trkpt><trkpt lat="36.52914674457044" lon="-5.203582171974551"><ele>542.0</ele><time>2026-04-25T10:45:59.999Z</time></trkpt><trkpt lat="36.5292233144119" lon="-5.203649749820967"><ele>542.0</ele><time>2026-04-25T10:46:00.999Z</time></trkpt><trkpt lat="36.52927562764352" lon="-5.20373186629007"><ele>542.0</ele><time>2026-04-25T10:46:01.999Z</time></trkpt><trkpt lat="36.52929847415039" lon="-5.203819976500494"><ele>542.0</ele><time>2026-04-25T10:46:02.999Z</time></trkpt><trkpt lat="36.52929246992625" lon="-5.203933413820243"><ele>542.0</ele><time>2026-04-25T10:46:03.999Z</time></trkpt><trkpt lat="36.52923851992547" lon="-5.204039463748977"><ele>542.0</ele><time>2026-04-25T10:46:04.999Z</time></trkpt><trkpt lat="36.52923402522537" lon="-5.204174763464413"><ele>546.5</ele><time>2026-04-25T10:46:05.999Z</time></trkpt><trkpt lat="36.52930832678596" lon="-5.20429512061653"><ele>551.0</ele><time>2026-04-25T10:46:06.999Z</time></trkpt><trkpt lat="36.52937505727873" lon="-5.2044311278930255"><ele>555.5</ele><time>2026-04-25T10:46:07.999Z</time></trkpt><trkpt lat="36.52947275264191" lon="-5.204508554683078"><ele>560.0</ele><time>2026-04-25T10:46:08.999Z</time></trkpt><trkpt lat="36.529588810298335" lon="-5.204549089487132"><ele>554.2</ele><time>2026-04-25T10:46:09.999Z</time></trkpt><trkpt lat="36.52969352137583" lon="-5.204590096011111"><ele>548.4</ele><time>2026-04-25T10:46:10.999Z</time></trkpt><trkpt lat="36.52974938880092" lon="-5.204674761254917"><ele>542.6</ele><time>2026-04-25T10:46:11.999Z</time></trkpt><trkpt lat="36.529777660568364" lon="-5.204790618210699"><ele>536.8</ele><time>2026-04-25T10:46:12.999Z</time></trkpt><trkpt lat="36.529784574895146" lon="-5.204961044143694"><ele>531.0</ele><time>2026-04-25T10:46:13.999Z</time></trkpt><trkpt lat="36.52980553294106" lon="-5.205147947461166"><ele>531.0</ele><time>2026-04-25T10:46:14.999Z</time></trkpt><trkpt lat="36.52988990840878" lon="-5.2052693370387"><ele>531.0</ele><time>2026-04-25T10:46:15.999Z</time></trkpt><trkpt lat="36.52994721103089" lon="-5.205410612233702"><ele>531.0</ele><time>2026-04-25T10:46:16.999Z</time></trkpt><trkpt lat="36.529990803652765" lon="-5.205532505445375"><ele>531.0</ele><time>2026-04-25T10:46:17.999Z</time></trkpt><trkpt lat="36.52998437085038" lon="-5.205678796399957"><ele>532.0</ele><time>2026-04-25T10:46:18.999Z</time></trkpt><trkpt lat="36.52997535810767" lon="-5.205849046516424"><ele>533.0</ele><time>2026-04-25T10:46:19.999Z</time></trkpt><trkpt lat="36.529980107892264" lon="-5.206023934202843"><ele>534.0</ele><time>2026-04-25T10:46:20.999Z</time></trkpt><trkpt lat="36.52998131706792" lon="-5.206196505632299"><ele>535.0</ele><time>2026-04-25T10:46:21.999Z</time></trkpt><trkpt lat="36.530005025270356" lon="-5.206354232418787"><ele>535.0</ele><time>2026-04-25T10:46:22.999Z</time></trkpt><trkpt lat="36.52999646030153" lon="-5.206484011647262"><ele>535.0</ele><time>2026-04-25T10:46:23.999Z</time></trkpt><trkpt lat="36.52995827125603" lon="-5.206614709518563"><ele>535.0</ele><time>2026-04-25T10:46:24.999Z</time></trkpt><trkpt lat="36.52990979348755" lon="-5.206728746423691"><ele>535.0</ele><time>2026-04-25T10:46:25.999Z</time></trkpt><trkpt lat="36.529861800434375" lon="-5.206820244208456"><ele>535.0</ele><time>2026-04-25T10:46:26.999Z</time></trkpt><trkpt lat="36.52989988018848" lon="-5.206953183990323"><ele>535.0</ele><time>2026-04-25T10:46:28.999Z</time></trkpt><trkpt lat="36.52998752576598" lon="-5.206997779683465"><ele>535.0</ele><time>2026-04-25T10:46:29.999Z</time></trkpt><trkpt lat="36.53010137909001" lon="-5.207002892052808"><ele>535.0</ele><time>2026-04-25T10:46:30.999Z</time></trkpt><trkpt lat="36.53022674761324" lon="-5.2070100030826305"><ele>535.0</ele><time>2026-04-25T10:46:31.999Z</time></trkpt><trkpt lat="36.530360793033104" lon="-5.207040112554144"><ele>525.75</ele><time>2026-04-25T10:46:32.999Z</time></trkpt><trkpt lat="36.530492135413624" lon="-5.2070840861128245"><ele>516.5</ele><time>2026-04-25T10:46:33.999Z</time></trkpt><trkpt lat="36.53061502226916" lon="-5.20713396508287"><ele>507.25</ele><time>2026-04-25T10:46:34.999Z</time></trkpt><trkpt lat="36.530720219135695" lon="-5.207206152337744"><ele>498.0</ele><time>2026-04-25T10:46:35.999Z</time></trkpt><trkpt lat="36.53079952728137" lon="-5.207295041123474"><ele>502.25</ele><time>2026-04-25T10:46:36.999Z</time></trkpt><trkpt lat="36.53085375791972" lon="-5.207410359519365"><ele>506.5</ele><time>2026-04-25T10:46:37.999Z</time></trkpt><trkpt lat="36.530881110155306" lon="-5.207552143157858"><ele>510.75</ele><time>2026-04-25T10:46:38.999Z</time></trkpt><trkpt lat="36.53086441724878" lon="-5.207691649186394"><ele>515.0</ele><time>2026-04-25T10:46:39.999Z</time></trkpt><trkpt lat="36.530828480266635" lon="-5.207858119660406"><ele>515.0</ele><time>2026-04-25T10:46:40.999Z</time></trkpt><trkpt lat="36.5307838485199" lon="-5.208024976409785"><ele>515.0</ele><time>2026-04-25T10:46:41.999Z</time></trkpt><trkpt lat="36.53073438631989" lon="-5.208206970908908"><ele>515.0</ele><time>2026-04-25T10:46:42.999Z</time></trkpt><trkpt lat="36.530717451219864" lon="-5.208343652225064"><ele>515.0</ele><time>2026-04-25T10:46:43.999Z</time></trkpt><trkpt lat="36.530728146207046" lon="-5.208463999194984"><ele>515.8</ele><time>2026-04-25T10:46:44.999Z</time></trkpt><trkpt lat="36.530795335206626" lon="-5.208571560352539"><ele>516.6</ele><time>2026-04-25T10:46:45.999Z</time></trkpt><trkpt lat="36.53084637924616" lon="-5.208702429889725"><ele>517.4</ele><time>2026-04-25T10:46:46.999Z</time></trkpt><trkpt lat="36.53088249348378" lon="-5.208815195051447"><ele>518.2</ele><time>2026-04-25T10:46:47.999Z</time></trkpt><trkpt lat="36.53087180579188" lon="-5.208931375295719"><ele>519.0</ele><time>2026-04-25T10:46:48.999Z</time></trkpt><trkpt lat="36.53081567168676" lon="-5.209039710864972"><ele>521.8</ele><time>2026-04-25T10:46:49.999Z</time></trkpt><trkpt lat="36.53072616862945" lon="-5.209124735139925"><ele>524.5999999999999</ele><time>2026-04-25T10:46:50.999Z</time></trkpt><trkpt lat="36.53061668731092" lon="-5.209168084373747"><ele>527.4</ele><time>2026-04-25T10:46:51.999Z</time></trkpt><trkpt lat="36.530518755731286" lon="-5.209214613625392"><ele>530.1999999999999</ele><time>2026-04-25T10:46:52.999Z</time></trkpt><trkpt lat="36.53041750102511" lon="-5.209243767553071"><ele>533.0</ele><time>2026-04-25T10:46:53.999Z</time></trkpt><trkpt lat="36.53029133704065" lon="-5.209265306252009"><ele>533.0</ele><time>2026-04-25T10:46:54.999Z</time></trkpt><trkpt lat="36.53019190632628" lon="-5.2093365102402105"><ele>533.0</ele><time>2026-04-25T10:46:55.999Z</time></trkpt><trkpt lat="36.53010814564354" lon="-5.209492777044011"><ele>533.0</ele><time>2026-04-25T10:46:56.999Z</time></trkpt><trkpt lat="36.5299995984757" lon="-5.209582894265602"><ele>533.0</ele><time>2026-04-25T10:46:57.999Z</time></trkpt><trkpt lat="36.52990955093296" lon="-5.209628619754106"><ele>533.0</ele><time>2026-04-25T10:46:58.999Z</time></trkpt><trkpt lat="36.52985453076536" lon="-5.209686287122116"><ele>533.0</ele><time>2026-04-25T10:46:59.999Z</time></trkpt><trkpt lat="36.52983846259508" lon="-5.2097781505987495"><ele>533.0</ele><time>2026-04-25T10:47:00.999Z</time></trkpt><trkpt lat="36.52987441052739" lon="-5.20989905447618"><ele>533.0</ele><time>2026-04-25T10:47:01.999Z</time></trkpt><trkpt lat="36.52993212200117" lon="-5.21002409776595"><ele>533.0</ele><time>2026-04-25T10:47:02.999Z</time></trkpt><trkpt lat="36.52999889623617" lon="-5.210152861890448"><ele>528.4</ele><time>2026-04-25T10:47:03.999Z</time></trkpt><trkpt lat="36.53005301557575" lon="-5.210253958103545"><ele>523.8</ele><time>2026-04-25T10:47:04.999Z</time></trkpt><trkpt lat="36.5300790106719" lon="-5.210342673776791"><ele>519.2</ele><time>2026-04-25T10:47:06Z</time></trkpt><trkpt lat="36.53004059388778" lon="-5.21044932874045"><ele>514.6</ele><time>2026-04-25T10:47:07Z</time></trkpt><trkpt lat="36.52997834633201" lon="-5.210575401357142"><ele>510.0</ele><time>2026-04-25T10:47:08Z</time></trkpt><trkpt lat="36.52989675675187" lon="-5.21073103859371"><ele>503.33333333333337</ele><time>2026-04-25T10:47:09Z</time></trkpt><trkpt lat="36.52981997574658" lon="-5.210885943791817"><ele>496.6666666666667</ele><time>2026-04-25T10:47:10Z</time></trkpt><trkpt lat="36.529733495928646" lon="-5.211049786213684"><ele>490.0</ele><time>2026-04-25T10:47:11Z</time></trkpt><trkpt lat="36.52963954463749" lon="-5.211220692528216"><ele>490.0</ele><time>2026-04-25T10:47:12Z</time></trkpt><trkpt lat="36.52957074935161" lon="-5.2114042109364265"><ele>490.0</ele><time>2026-04-25T10:47:13Z</time></trkpt><trkpt lat="36.52949118144813" lon="-5.211581412180243"><ele>490.0</ele><time>2026-04-25T10:47:14Z</time></trkpt><trkpt lat="36.529412974204845" lon="-5.2117409825448116"><ele>491.2</ele><time>2026-04-25T10:47:15Z</time></trkpt><trkpt lat="36.529341116798854" lon="-5.211880616272882"><ele>492.4</ele><time>2026-04-25T10:47:16Z</time></trkpt><trkpt lat="36.52928740821176" lon="-5.21201742206132"><ele>493.6</ele><time>2026-04-25T10:47:17Z</time></trkpt><trkpt lat="36.529245665400474" lon="-5.212126071778895"><ele>494.8</ele><time>2026-04-25T10:47:18Z</time></trkpt><trkpt lat="36.529207981163474" lon="-5.212199760328906"><ele>496.0</ele><time>2026-04-25T10:47:19Z</time></trkpt><trkpt lat="36.52914985550963" lon="-5.212240192854976"><ele>496.0</ele><time>2026-04-25T10:47:20Z</time></trkpt><trkpt lat="36.52907323402486" lon="-5.212232348984706"><ele>496.0</ele><time>2026-04-25T10:47:21Z</time></trkpt><trkpt lat="36.52897239307536" lon="-5.2121938549496765"><ele>496.0</ele><time>2026-04-25T10:47:22Z</time></trkpt><trkpt lat="36.528879688435715" lon="-5.212092372363394"><ele>496.0</ele><time>2026-04-25T10:47:23Z</time></trkpt><trkpt lat="36.52880253908891" lon="-5.211973996589569"><ele>496.0</ele><time>2026-04-25T10:47:24Z</time></trkpt><trkpt lat="36.52877547591541" lon="-5.211816353531251"><ele>496.0</ele><time>2026-04-25T10:47:25Z</time></trkpt><trkpt lat="36.528754146111446" lon="-5.211690512260201"><ele>496.0</ele><time>2026-04-25T10:47:26Z</time></trkpt><trkpt lat="36.5287264130683" lon="-5.211560019462764"><ele>496.0</ele><time>2026-04-25T10:47:27Z</time></trkpt><trkpt lat="36.52871010882448" lon="-5.211446484617503"><ele>496.0</ele><time>2026-04-25T10:47:28Z</time></trkpt><trkpt lat="36.528683125918995" lon="-5.211349187954018"><ele>496.0</ele><time>2026-04-25T10:47:29Z</time></trkpt><trkpt lat="36.52863307121498" lon="-5.211276248952517"><ele>501.20000000000005</ele><time>2026-04-25T10:47:30Z</time></trkpt><trkpt lat="36.528562640876096" lon="-5.21124010863041"><ele>506.40000000000003</ele><time>2026-04-25T10:47:31Z</time></trkpt><trkpt lat="36.528471817007585" lon="-5.2112531555312644"><ele>511.6</ele><time>2026-04-25T10:47:32Z</time></trkpt><trkpt lat="36.52835498788461" lon="-5.211292424960874"><ele>516.8000000000001</ele><time>2026-04-25T10:47:33Z</time></trkpt><trkpt lat="36.52822595540451" lon="-5.211343486321331"><ele>522.0</ele><time>2026-04-25T10:47:34Z</time></trkpt><trkpt lat="36.5281014457223" lon="-5.211436539061125"><ele>512.0</ele><time>2026-04-25T10:47:35Z</time></trkpt><trkpt lat="36.52798158818219" lon="-5.211533546189872"><ele>502.0</ele><time>2026-04-25T10:47:36Z</time></trkpt><trkpt lat="36.52788070317197" lon="-5.211632074075063"><ele>492.0</ele><time>2026-04-25T10:47:37Z</time></trkpt><trkpt lat="36.52778866952245" lon="-5.211724386935403"><ele>482.0</ele><time>2026-04-25T10:47:38Z</time></trkpt><trkpt lat="36.52772030911182" lon="-5.211803934622973"><ele>482.0</ele><time>2026-04-25T10:47:39Z</time></trkpt><trkpt lat="36.5276525178804" lon="-5.21185106490547"><ele>482.00000000000006</ele><time>2026-04-25T10:47:40Z</time></trkpt><trkpt lat="36.5275820028031" lon="-5.2118661562701964"><ele>482.00000000000006</ele><time>2026-04-25T10:47:41Z</time></trkpt><trkpt lat="36.5275091483046" lon="-5.211838294322286"><ele>482.0</ele><time>2026-04-25T10:47:42Z</time></trkpt><trkpt lat="36.52740364836219" lon="-5.211779572365662"><ele>482.0</ele><time>2026-04-25T10:47:43Z</time></trkpt><trkpt lat="36.527302143267065" lon="-5.2117109163615645"><ele>481.99999999999994</ele><time>2026-04-25T10:47:44Z</time></trkpt><trkpt lat="36.52721279138142" lon="-5.211654324808434"><ele>482.0</ele><time>2026-04-25T10:47:45Z</time></trkpt><trkpt lat="36.52713821839256" lon="-5.211608485584553"><ele>482.0</ele><time>2026-04-25T10:47:46Z</time></trkpt><trkpt lat="36.52707823014361" lon="-5.211576754269157"><ele>482.0</ele><time>2026-04-25T10:47:47Z</time></trkpt><trkpt lat="36.52700517848503" lon="-5.211623603113711"><ele>481.99999999999994</ele><time>2026-04-25T10:47:50Z</time></trkpt><trkpt lat="36.52704457088283" lon="-5.21169438714245"><ele>482.0</ele><time>2026-04-25T10:47:51Z</time></trkpt><trkpt lat="36.52714011253641" lon="-5.211727668662978"><ele>482.0</ele><time>2026-04-25T10:47:52Z</time></trkpt><trkpt lat="36.527222677313205" lon="-5.211780896719995"><ele>482.00000000000006</ele><time>2026-04-25T10:47:53Z</time></trkpt><trkpt lat="36.52731018903218" lon="-5.211841585789915"><ele>482.00000000000006</ele><time>2026-04-25T10:47:54Z</time></trkpt><trkpt lat="36.52740709724112" lon="-5.211919325343864"><ele>482.0</ele><time>2026-04-25T10:47:54.999Z</time></trkpt><trkpt lat="36.52749003471228" lon="-5.212002883468283"><ele>482.0</ele><time>2026-04-25T10:47:55.999Z</time></trkpt><trkpt lat="36.52757027772305" lon="-5.2120669899916185"><ele>482.0</ele><time>2026-04-25T10:47:56.999Z</time></trkpt><trkpt lat="36.52766389171348" lon="-5.212107665282275"><ele>482.00000000000006</ele><time>2026-04-25T10:47:57.999Z</time></trkpt><trkpt lat="36.52775757365955" lon="-5.212087146569193"><ele>482.00000000000006</ele><time>2026-04-25T10:47:58.999Z</time></trkpt><trkpt lat="36.52783846243411" lon="-5.212022709192643"><ele>482.0</ele><time>2026-04-25T10:47:59.999Z</time></trkpt><trkpt lat="36.52793556149296" lon="-5.211935165375444"><ele>482.0</ele><time>2026-04-25T10:48:00.999Z</time></trkpt><trkpt lat="36.52801807690738" lon="-5.211866048957388"><ele>481.20000000000005</ele><time>2026-04-25T10:48:01.999Z</time></trkpt><trkpt lat="36.528104335313586" lon="-5.211812825898945"><ele>480.40000000000003</ele><time>2026-04-25T10:48:02.999Z</time></trkpt><trkpt lat="36.52819807866854" lon="-5.211795181309531"><ele>479.59999999999997</ele><time>2026-04-25T10:48:03.999Z</time></trkpt><trkpt lat="36.52828882383611" lon="-5.21180339667972"><ele>478.79999999999995</ele><time>2026-04-25T10:48:04.999Z</time></trkpt><trkpt lat="36.5283633074972" lon="-5.211847590235463"><ele>478.0</ele><time>2026-04-25T10:48:05.999Z</time></trkpt><trkpt lat="36.52843101499888" lon="-5.211919366587057"><ele>478.0</ele><time>2026-04-25T10:48:06.999Z</time></trkpt><trkpt lat="36.528457861068894" lon="-5.212083408641065"><ele>477.99999999999994</ele><time>2026-04-25T10:48:07.999Z</time></trkpt><trkpt lat="36.52847544819154" lon="-5.212256458422601"><ele>477.99999999999994</ele><time>2026-04-25T10:48:08.999Z</time></trkpt><trkpt lat="36.52849535294452" lon="-5.212334663730276"><ele>478.0</ele><time>2026-04-25T10:48:09.999Z</time></trkpt><trkpt lat="36.52853252704628" lon="-5.212458205786035"><ele>478.0</ele><time>2026-04-25T10:48:10.999Z</time></trkpt><trkpt lat="36.52861234682773" lon="-5.2125185337627995"><ele>474.0</ele><time>2026-04-25T10:48:11.999Z</time></trkpt><trkpt lat="36.52878104557799" lon="-5.212631327137442"><ele>470.0</ele><time>2026-04-25T10:48:12.999Z</time></trkpt><trkpt lat="36.528773420951474" lon="-5.212545247033142"><ele>466.0</ele><time>2026-04-25T10:48:13.999Z</time></trkpt><trkpt lat="36.52880484259152" lon="-5.212675550238407"><ele>462.0</ele><time>2026-04-25T10:48:14.999Z</time></trkpt><trkpt lat="36.52882561948666" lon="-5.2128034516557555"><ele>462.0</ele><time>2026-04-25T10:48:15.999Z</time></trkpt><trkpt lat="36.52884534448806" lon="-5.212925295308533"><ele>462.00000000000006</ele><time>2026-04-25T10:48:16.999Z</time></trkpt><trkpt lat="36.52888919632585" lon="-5.213023270331072"><ele>462.00000000000006</ele><time>2026-04-25T10:48:17.999Z</time></trkpt><trkpt lat="36.5289540471811" lon="-5.2130736897423295"><ele>462.0</ele><time>2026-04-25T10:48:18.999Z</time></trkpt><trkpt lat="36.529039685943566" lon="-5.213020903293885"><ele>462.0</ele><time>2026-04-25T10:48:19.999Z</time></trkpt><trkpt lat="36.52914112367386" lon="-5.2129793219442995"><ele>462.0</ele><time>2026-04-25T10:48:20.999Z</time></trkpt><trkpt lat="36.52926870880851" lon="-5.2129372385793715"><ele>462.0</ele><time>2026-04-25T10:48:21.999Z</time></trkpt><trkpt lat="36.52939147154264" lon="-5.212887002976993"><ele>462.0</ele><time>2026-04-25T10:48:22.999Z</time></trkpt><trkpt lat="36.52951868596988" lon="-5.212857797774668"><ele>462.0</ele><time>2026-04-25T10:48:23.999Z</time></trkpt><trkpt lat="36.52964003761025" lon="-5.212822867911438"><ele>456.40000000000003</ele><time>2026-04-25T10:48:24.999Z</time></trkpt><trkpt lat="36.529742638976835" lon="-5.212803667777638"><ele>450.80000000000007</ele><time>2026-04-25T10:48:25.999Z</time></trkpt><trkpt lat="36.529828476103695" lon="-5.212777920501718"><ele>445.2</ele><time>2026-04-25T10:48:26.999Z</time></trkpt><trkpt lat="36.52990467285535" lon="-5.212719278057187"><ele>439.6</ele><time>2026-04-25T10:48:27.999Z</time></trkpt><trkpt lat="36.52990824352724" lon="-5.212589446711371"><ele>434.0</ele><time>2026-04-25T10:48:28.999Z</time></trkpt><trkpt lat="36.529886296358754" lon="-5.212467691721659"><ele>434.0</ele><time>2026-04-25T10:48:29.999Z</time></trkpt><trkpt lat="36.52990032181117" lon="-5.212351262183659"><ele>434.0</ele><time>2026-04-25T10:48:30.999Z</time></trkpt><trkpt lat="36.529923300529326" lon="-5.212240427333958"><ele>434.0</ele><time>2026-04-25T10:48:32.999Z</time></trkpt><trkpt lat="36.53001247309926" lon="-5.212261744550685"><ele>434.0</ele><time>2026-04-25T10:48:33.999Z</time></trkpt><trkpt lat="36.53003824367389" lon="-5.212396354767942"><ele>434.0</ele><time>2026-04-25T10:48:34.999Z</time></trkpt><trkpt lat="36.53005618748183" lon="-5.21252696933123"><ele>434.0</ele><time>2026-04-25T10:48:35.999Z</time></trkpt><trkpt lat="36.53007027731118" lon="-5.212683906441248"><ele>434.0</ele><time>2026-04-25T10:48:36.999Z</time></trkpt><trkpt lat="36.53008274170084" lon="-5.212814560875046"><ele>434.0</ele><time>2026-04-25T10:48:37.999Z</time></trkpt><trkpt lat="36.53006761382405" lon="-5.212920631555492"><ele>434.0</ele><time>2026-04-25T10:48:38.999Z</time></trkpt><trkpt lat="36.5300304760265" lon="-5.213018674289837"><ele>434.0</ele><time>2026-04-25T10:48:39.999Z</time></trkpt><trkpt lat="36.529924571325495" lon="-5.213072560285612"><ele>434.0</ele><time>2026-04-25T10:48:40.999Z</time></trkpt><trkpt lat="36.529797577463256" lon="-5.213112854400756"><ele>434.0</ele><time>2026-04-25T10:48:41.999Z</time></trkpt><trkpt lat="36.52967854969264" lon="-5.213177514854108"><ele>434.0</ele><time>2026-04-25T10:48:42.999Z</time></trkpt><trkpt lat="36.52956427910794" lon="-5.213231599488194"><ele>434.0</ele><time>2026-04-25T10:48:43.999Z</time></trkpt><trkpt lat="36.52946119844831" lon="-5.213263942783703"><ele>431.79999999999995</ele><time>2026-04-25T10:48:44.999Z</time></trkpt><trkpt lat="36.529376449680555" lon="-5.2133297894379345"><ele>429.59999999999997</ele><time>2026-04-25T10:48:45.999Z</time></trkpt><trkpt lat="36.52931756920006" lon="-5.213370764303673"><ele>427.4</ele><time>2026-04-25T10:48:46.999Z</time></trkpt><trkpt lat="36.52928130036683" lon="-5.213442421994596"><ele>425.2</ele><time>2026-04-25T10:48:48.999Z</time></trkpt><trkpt lat="36.529369867819" lon="-5.213445712779088"><ele>423.0</ele><time>2026-04-25T10:48:50.999Z</time></trkpt><trkpt lat="36.52948346749007" lon="-5.2133718908883155"><ele>423.0</ele><time>2026-04-25T10:48:51.999Z</time></trkpt><trkpt lat="36.5295343541132" lon="-5.213324931405646"><ele>423.0</ele><time>2026-04-25T10:48:52.999Z</time></trkpt><trkpt lat="36.52962868067575" lon="-5.213294380829283"><ele>423.0</ele><time>2026-04-25T10:48:53.999Z</time></trkpt><trkpt lat="36.52976374582597" lon="-5.213262134385411"><ele>423.0</ele><time>2026-04-25T10:48:54.999Z</time></trkpt><trkpt lat="36.52990432340429" lon="-5.2132216549911945"><ele>423.0</ele><time>2026-04-25T10:48:55.999Z</time></trkpt><trkpt lat="36.530035516772195" lon="-5.213204088364062"><ele>425.2</ele><time>2026-04-25T10:48:56.999Z</time></trkpt><trkpt lat="36.53011992828316" lon="-5.213166137460702"><ele>427.4</ele><time>2026-04-25T10:48:57.999Z</time></trkpt><trkpt lat="36.5302154653835" lon="-5.21310188527353"><ele>429.59999999999997</ele><time>2026-04-25T10:48:58.999Z</time></trkpt><trkpt lat="36.530298990947614" lon="-5.213004017943183"><ele>431.79999999999995</ele><time>2026-04-25T10:48:59.999Z</time></trkpt><trkpt lat="36.53035963754348" lon="-5.212877946928962"><ele>434.0</ele><time>2026-04-25T10:49:00.999Z</time></trkpt><trkpt lat="36.53036342279502" lon="-5.212727100941965"><ele>428.25</ele><time>2026-04-25T10:49:01.999Z</time></trkpt><trkpt lat="36.53040491307993" lon="-5.212583308345535"><ele>422.5</ele><time>2026-04-25T10:49:02.999Z</time></trkpt><trkpt lat="36.530434353305324" lon="-5.212442695433803"><ele>416.75</ele><time>2026-04-25T10:49:03.999Z</time></trkpt><trkpt lat="36.53047858548983" lon="-5.212312543168519"><ele>411.0</ele><time>2026-04-25T10:49:04.999Z</time></trkpt><trkpt lat="36.530540703843684" lon="-5.212199366432266"><ele>411.0</ele><time>2026-04-25T10:49:05.999Z</time></trkpt><trkpt lat="36.5306104546613" lon="-5.212094771705817"><ele>411.0</ele><time>2026-04-25T10:49:06.999Z</time></trkpt><trkpt lat="36.530684854933945" lon="-5.212027802448996"><ele>411.0</ele><time>2026-04-25T10:49:07.999Z</time></trkpt><trkpt lat="36.5307544840193" lon="-5.211980390491018"><ele>411.0</ele><time>2026-04-25T10:49:08.999Z</time></trkpt><trkpt lat="36.530869842125206" lon="-5.2119936283559625"><ele>411.0</ele><time>2026-04-25T10:49:10.998Z</time></trkpt><trkpt lat="36.530913386124666" lon="-5.21206350233362"><ele>411.0</ele><time>2026-04-25T10:49:12Z</time></trkpt><trkpt lat="36.53086366712091" lon="-5.212198711418503"><ele>411.0</ele><time>2026-04-25T10:49:13Z</time></trkpt><trkpt lat="36.53075671884025" lon="-5.212289645917185"><ele>411.0</ele><time>2026-04-25T10:49:14Z</time></trkpt><trkpt lat="36.53069158485915" lon="-5.212400849815084"><ele>411.0</ele><time>2026-04-25T10:49:15Z</time></trkpt><trkpt lat="36.530634427531986" lon="-5.212529456797675"><ele>406.25</ele><time>2026-04-25T10:49:16Z</time></trkpt><trkpt lat="36.530629938562896" lon="-5.212689376889843"><ele>401.5</ele><time>2026-04-25T10:49:17Z</time></trkpt><trkpt lat="36.530610669278545" lon="-5.2128433446402305"><ele>396.75</ele><time>2026-04-25T10:49:18Z</time></trkpt><trkpt lat="36.53063541980295" lon="-5.212993384895782"><ele>392.0</ele><time>2026-04-25T10:49:19Z</time></trkpt><trkpt lat="36.53066327390223" lon="-5.213119525846338"><ele>389.40000000000003</ele><time>2026-04-25T10:49:20Z</time></trkpt><trkpt lat="36.53069769305082" lon="-5.2132222010185245"><ele>386.8</ele><time>2026-04-25T10:49:21Z</time></trkpt><trkpt lat="36.53067151444763" lon="-5.213317277707831"><ele>384.2</ele><time>2026-04-25T10:49:22Z</time></trkpt><trkpt lat="36.53060256368957" lon="-5.213399728736387"><ele>381.6</ele><time>2026-04-25T10:49:23Z</time></trkpt><trkpt lat="36.53050255191548" lon="-5.213469597914929"><ele>379.0</ele><time>2026-04-25T10:49:24Z</time></trkpt><trkpt lat="36.53042129492414" lon="-5.213551339026898"><ele>379.0</ele><time>2026-04-25T10:49:25Z</time></trkpt><trkpt lat="36.530364371270416" lon="-5.213621756991332"><ele>379.0</ele><time>2026-04-25T10:49:26Z</time></trkpt><trkpt lat="36.53037866989365" lon="-5.213729789615016"><ele>379.0</ele><time>2026-04-25T10:49:28Z</time></trkpt><trkpt lat="36.53048466894267" lon="-5.213640992350774"><ele>379.0</ele><time>2026-04-25T10:49:30Z</time></trkpt><trkpt lat="36.53056094605356" lon="-5.213597498353947"><ele>379.0</ele><time>2026-04-25T10:49:31Z</time></trkpt><trkpt lat="36.53064664250582" lon="-5.213517535352893"><ele>379.0</ele><time>2026-04-25T10:49:32Z</time></trkpt><trkpt lat="36.530732302647294" lon="-5.2134283943208315"><ele>379.0</ele><time>2026-04-25T10:49:33Z</time></trkpt><trkpt lat="36.53081185714972" lon="-5.213346801455724"><ele>379.0</ele><time>2026-04-25T10:49:34Z</time></trkpt><trkpt lat="36.53089400934057" lon="-5.21330874544238"><ele>379.0</ele><time>2026-04-25T10:49:35Z</time></trkpt><trkpt lat="36.53096847666948" lon="-5.213272018018302"><ele>379.0</ele><time>2026-04-25T10:49:36Z</time></trkpt><trkpt lat="36.531044326506496" lon="-5.213264490517782"><ele>379.0</ele><time>2026-04-25T10:49:37Z</time></trkpt><trkpt lat="36.531123560110615" lon="-5.21326027284791"><ele>379.0</ele><time>2026-04-25T10:49:38Z</time></trkpt><trkpt lat="36.531185291870486" lon="-5.213343188638613"><ele>379.0</ele><time>2026-04-25T10:49:39Z</time></trkpt><trkpt lat="36.53123770320929" lon="-5.213442297045898"><ele>379.0</ele><time>2026-04-25T10:49:40Z</time></trkpt><trkpt lat="36.531293162754196" lon="-5.213578890815309"><ele>379.0</ele><time>2026-04-25T10:49:41Z</time></trkpt><trkpt lat="36.53136516254497" lon="-5.213738192033836"><ele>384.3333333333333</ele><time>2026-04-25T10:49:42Z</time></trkpt><trkpt lat="36.53143866013139" lon="-5.213920381120378"><ele>389.66666666666663</ele><time>2026-04-25T10:49:43Z</time></trkpt><trkpt lat="36.53149534557792" lon="-5.214117304834179"><ele>395.0</ele><time>2026-04-25T10:49:44Z</time></trkpt><trkpt lat="36.53154995597081" lon="-5.214301223653582"><ele>395.0</ele><time>2026-04-25T10:49:45Z</time></trkpt><trkpt lat="36.53161500387773" lon="-5.214449177921723"><ele>395.0</ele><time>2026-04-25T10:49:46Z</time></trkpt><trkpt lat="36.53168987251695" lon="-5.2145623698407775"><ele>395.0</ele><time>2026-04-25T10:49:47Z</time></trkpt><trkpt lat="36.531789861946464" lon="-5.214613306075476"><ele>395.0</ele><time>2026-04-25T10:49:48Z</time></trkpt><trkpt lat="36.5318418036852" lon="-5.214684357468454"><ele>395.0</ele><time>2026-04-25T10:49:49Z</time></trkpt><trkpt lat="36.53185465909098" lon="-5.214766690034109"><ele>392.8</ele><time>2026-04-25T10:49:50Z</time></trkpt><trkpt lat="36.5318363454277" lon="-5.214875535047163"><ele>390.6</ele><time>2026-04-25T10:49:51Z</time></trkpt><trkpt lat="36.53172871922468" lon="-5.214954200984924"><ele>388.4</ele><time>2026-04-25T10:49:52Z</time></trkpt><trkpt lat="36.53166961147638" lon="-5.21505183695274"><ele>386.2</ele><time>2026-04-25T10:49:53Z</time></trkpt><trkpt lat="36.531659679645834" lon="-5.21516054693032"><ele>384.0</ele><time>2026-04-25T10:49:54Z</time></trkpt><trkpt lat="36.5317168880615" lon="-5.215264281448427"><ele>384.0</ele><time>2026-04-25T10:49:55Z</time></trkpt><trkpt lat="36.53180563566421" lon="-5.215336100999955"><ele>384.0</ele><time>2026-04-25T10:49:56Z</time></trkpt><trkpt lat="36.531906011349704" lon="-5.215415209887549"><ele>384.0</ele><time>2026-04-25T10:49:57Z</time></trkpt><trkpt lat="36.53195001623663" lon="-5.215507242437361"><ele>384.0</ele><time>2026-04-25T10:49:57.999Z</time></trkpt><trkpt lat="36.531956797301284" lon="-5.215618707032585"><ele>384.0</ele><time>2026-04-25T10:49:58.999Z</time></trkpt><trkpt lat="36.53193460779808" lon="-5.2157516864346745"><ele>383.25</ele><time>2026-04-25T10:49:59.999Z</time></trkpt><trkpt lat="36.53184503420323" lon="-5.2158833581254145"><ele>382.5</ele><time>2026-04-25T10:50:00.999Z</time></trkpt><trkpt lat="36.531795001988456" lon="-5.216032948506787"><ele>381.75</ele><time>2026-04-25T10:50:01.999Z</time></trkpt><trkpt lat="36.53177553102856" lon="-5.21621928887968"><ele>381.0</ele><time>2026-04-25T10:50:02.999Z</time></trkpt><trkpt lat="36.53175871019184" lon="-5.216408833049724"><ele>383.33333333333337</ele><time>2026-04-25T10:50:03.999Z</time></trkpt><trkpt lat="36.53173161768407" lon="-5.216602214551778"><ele>385.6666666666667</ele><time>2026-04-25T10:50:04.999Z</time></trkpt><trkpt lat="36.53170152540261" lon="-5.21680049373848"><ele>388.0</ele><time>2026-04-25T10:50:05.999Z</time></trkpt><trkpt lat="36.5316712318575" lon="-5.216978508433382"><ele>388.0</ele><time>2026-04-25T10:50:06.999Z</time></trkpt><trkpt lat="36.53162693960621" lon="-5.217140960269567"><ele>388.0</ele><time>2026-04-25T10:50:07.999Z</time></trkpt><trkpt lat="36.53154746170938" lon="-5.217300493431805"><ele>388.0</ele><time>2026-04-25T10:50:08.999Z</time></trkpt><trkpt lat="36.53144563009644" lon="-5.217453393062301"><ele>388.0</ele><time>2026-04-25T10:50:09.999Z</time></trkpt><trkpt lat="36.531343486630384" lon="-5.2176128383033475"><ele>382.33333333333337</ele><time>2026-04-25T10:50:10.999Z</time></trkpt><trkpt lat="36.53124120512497" lon="-5.217776316622999"><ele>376.6666666666667</ele><time>2026-04-25T10:50:11.999Z</time></trkpt><trkpt lat="36.531141743569826" lon="-5.21792826849743"><ele>371.0</ele><time>2026-04-25T10:50:12.999Z</time></trkpt><trkpt lat="36.531032464955665" lon="-5.218055379215125"><ele>378.25</ele><time>2026-04-25T10:50:13.999Z</time></trkpt><trkpt lat="36.53090629322591" lon="-5.218167087426344"><ele>385.5</ele><time>2026-04-25T10:50:14.999Z</time></trkpt><trkpt lat="36.530788650795806" lon="-5.218273318466515"><ele>392.75</ele><time>2026-04-25T10:50:15.999Z</time></trkpt><trkpt lat="36.53068766150588" lon="-5.218387562299246"><ele>400.0</ele><time>2026-04-25T10:50:16.999Z</time></trkpt><trkpt lat="36.53059176630668" lon="-5.21852007191583"><ele>400.0</ele><time>2026-04-25T10:50:17.999Z</time></trkpt><trkpt lat="36.53050952214729" lon="-5.218679031050997"><ele>400.0</ele><time>2026-04-25T10:50:18.999Z</time></trkpt><trkpt lat="36.53043920952859" lon="-5.218823849499158"><ele>400.0</ele><time>2026-04-25T10:50:19.999Z</time></trkpt><trkpt lat="36.53039034414812" lon="-5.218939263643887"><ele>400.0</ele><time>2026-04-25T10:50:20.999Z</time></trkpt><trkpt lat="36.530387105659" lon="-5.2190302075335655"><ele>401.4</ele><time>2026-04-25T10:50:21.999Z</time></trkpt><trkpt lat="36.5304362152914" lon="-5.21909489073293"><ele>402.8</ele><time>2026-04-25T10:50:22.999Z</time></trkpt><trkpt lat="36.53051678517327" lon="-5.219138238961134"><ele>404.20000000000005</ele><time>2026-04-25T10:50:23.999Z</time></trkpt><trkpt lat="36.530626513125995" lon="-5.219176010713662"><ele>405.6</ele><time>2026-04-25T10:50:24.999Z</time></trkpt><trkpt lat="36.53075616208926" lon="-5.219207775141161"><ele>407.0</ele><time>2026-04-25T10:50:25.999Z</time></trkpt><trkpt lat="36.53089934826061" lon="-5.219207231492413"><ele>407.0</ele><time>2026-04-25T10:50:26.999Z</time></trkpt><trkpt lat="36.531023831051755" lon="-5.219171975809"><ele>407.0</ele><time>2026-04-25T10:50:27.999Z</time></trkpt><trkpt lat="36.53111995996758" lon="-5.219128021735516"><ele>407.0</ele><time>2026-04-25T10:50:28.999Z</time></trkpt><trkpt lat="36.53119011588305" lon="-5.219120685471162"><ele>407.0</ele><time>2026-04-25T10:50:29.999Z</time></trkpt><trkpt lat="36.531249418373875" lon="-5.219165247040644"><ele>407.0</ele><time>2026-04-25T10:50:30.999Z</time></trkpt><trkpt lat="36.531285969395185" lon="-5.219253572853162"><ele>407.0</ele><time>2026-04-25T10:50:31.999Z</time></trkpt><trkpt lat="36.531292917146" lon="-5.219368050665399"><ele>407.0</ele><time>2026-04-25T10:50:32.999Z</time></trkpt><trkpt lat="36.53128216077043" lon="-5.219505304138575"><ele>407.0</ele><time>2026-04-25T10:50:33.999Z</time></trkpt><trkpt lat="36.531255172443934" lon="-5.219611479839637"><ele>407.0</ele><time>2026-04-25T10:50:34.999Z</time></trkpt><trkpt lat="36.53119479912504" lon="-5.219689431040022"><ele>407.0</ele><time>2026-04-25T10:50:35.999Z</time></trkpt><trkpt lat="36.53110133944796" lon="-5.219741525040202"><ele>407.0</ele><time>2026-04-25T10:50:36.999Z</time></trkpt><trkpt lat="36.53100636766853" lon="-5.219784311281864"><ele>407.0</ele><time>2026-04-25T10:50:37.999Z</time></trkpt><trkpt lat="36.53092213425178" lon="-5.2198441812688765"><ele>407.0</ele><time>2026-04-25T10:50:38.999Z</time></trkpt><trkpt lat="36.53088011189883" lon="-5.219949271425973"><ele>407.0</ele><time>2026-04-25T10:50:39.999Z</time></trkpt><trkpt lat="36.530877266393944" lon="-5.2200746461589835"><ele>407.0</ele><time>2026-04-25T10:50:40.999Z</time></trkpt><trkpt lat="36.53090220217811" lon="-5.220221115427544"><ele>407.25</ele><time>2026-04-25T10:50:41.999Z</time></trkpt><trkpt lat="36.530931055274735" lon="-5.220386237206279"><ele>407.5</ele><time>2026-04-25T10:50:42.999Z</time></trkpt><trkpt lat="36.530952835256095" lon="-5.220552114387934"><ele>407.75</ele><time>2026-04-25T10:50:43.999Z</time></trkpt><trkpt lat="36.530973998754384" lon="-5.220697991390347"><ele>408.0</ele><time>2026-04-25T10:50:44.999Z</time></trkpt><trkpt lat="36.53099069789302" lon="-5.220822310499963"><ele>409.4</ele><time>2026-04-25T10:50:45.999Z</time></trkpt><trkpt lat="36.530973584605384" lon="-5.220915241982866"><ele>410.79999999999995</ele><time>2026-04-25T10:50:46.999Z</time></trkpt><trkpt lat="36.53092492714555" lon="-5.220989653500577"><ele>412.2</ele><time>2026-04-25T10:50:47.999Z</time></trkpt><trkpt lat="36.530834531582016" lon="-5.221038520518287"><ele>413.6</ele><time>2026-04-25T10:50:48.999Z</time></trkpt><trkpt lat="36.53071612819006" lon="-5.2210449700116035"><ele>415.0</ele><time>2026-04-25T10:50:49.999Z</time></trkpt><trkpt lat="36.530586955087486" lon="-5.221052109829146"><ele>415.0</ele><time>2026-04-25T10:50:50.999Z</time></trkpt><trkpt lat="36.53046492181428" lon="-5.221102479290225"><ele>415.0</ele><time>2026-04-25T10:50:51.999Z</time></trkpt><trkpt lat="36.53036122854627" lon="-5.221183311899639"><ele>415.0</ele><time>2026-04-25T10:50:52.999Z</time></trkpt><trkpt lat="36.53027893763457" lon="-5.221283084822134"><ele>415.0</ele><time>2026-04-25T10:50:53.999Z</time></trkpt><trkpt lat="36.53023086348286" lon="-5.221402917773839"><ele>417.2</ele><time>2026-04-25T10:50:54.999Z</time></trkpt><trkpt lat="36.530224650079894" lon="-5.22150241889201"><ele>419.4</ele><time>2026-04-25T10:50:55.999Z</time></trkpt><trkpt lat="36.53028326751439" lon="-5.221565099950371"><ele>421.6</ele><time>2026-04-25T10:50:56.999Z</time></trkpt><trkpt lat="36.530375513278535" lon="-5.221622879172839"><ele>423.8</ele><time>2026-04-25T10:50:57.999Z</time></trkpt><trkpt lat="36.53046996644984" lon="-5.2216855214897295"><ele>426.0</ele><time>2026-04-25T10:50:58.999Z</time></trkpt><trkpt lat="36.530567865484166" lon="-5.221742859190093"><ele>426.0</ele><time>2026-04-25T10:50:59.999Z</time></trkpt><trkpt lat="36.530686263496946" lon="-5.221772658869371"><ele>426.0</ele><time>2026-04-25T10:51:00.999Z</time></trkpt><trkpt lat="36.53082532586732" lon="-5.2217772930008355"><ele>426.0</ele><time>2026-04-25T10:51:01.999Z</time></trkpt><trkpt lat="36.530978816939445" lon="-5.2217942224364435"><ele>426.0</ele><time>2026-04-25T10:51:02.999Z</time></trkpt><trkpt lat="36.53114553706638" lon="-5.2218110929858605"><ele>431.5</ele><time>2026-04-25T10:51:03.999Z</time></trkpt><trkpt lat="36.531296222026114" lon="-5.221830828706196"><ele>437.0</ele><time>2026-04-25T10:51:04.999Z</time></trkpt><trkpt lat="36.531428101243634" lon="-5.22185891543771"><ele>442.5</ele><time>2026-04-25T10:51:05.999Z</time></trkpt><trkpt lat="36.531547411508924" lon="-5.221880870617239"><ele>448.0</ele><time>2026-04-25T10:51:06.999Z</time></trkpt><trkpt lat="36.531641495449875" lon="-5.221908604034471"><ele>448.0</ele><time>2026-04-25T10:51:07.999Z</time></trkpt><trkpt lat="36.53171210090256" lon="-5.221954922661776"><ele>447.99999999999994</ele><time>2026-04-25T10:51:08.999Z</time></trkpt><trkpt lat="36.53171828934531" lon="-5.222130623325947"><ele>447.99999999999994</ele><time>2026-04-25T10:51:10.999Z</time></trkpt><trkpt lat="36.53165374430008" lon="-5.222230344220998"><ele>448.0</ele><time>2026-04-25T10:51:11.999Z</time></trkpt><trkpt lat="36.53158329268637" lon="-5.222359405762094"><ele>448.0</ele><time>2026-04-25T10:51:12.998Z</time></trkpt><trkpt lat="36.531544178970314" lon="-5.222493658423762"><ele>447.0</ele><time>2026-04-25T10:51:13.998Z</time></trkpt><trkpt lat="36.53154175220595" lon="-5.222635980483436"><ele>446.0</ele><time>2026-04-25T10:51:14.998Z</time></trkpt><trkpt lat="36.531575589724234" lon="-5.222790282957002"><ele>445.0</ele><time>2026-04-25T10:51:15.998Z</time></trkpt><trkpt lat="36.53158293077501" lon="-5.222928089735261"><ele>444.0</ele><time>2026-04-25T10:51:16.998Z</time></trkpt><trkpt lat="36.531548409351835" lon="-5.223077481832205"><ele>445.0</ele><time>2026-04-25T10:51:18Z</time></trkpt><trkpt lat="36.531485660779026" lon="-5.22322659659912"><ele>446.0</ele><time>2026-04-25T10:51:19Z</time></trkpt><trkpt lat="36.53143336191136" lon="-5.223367601871532"><ele>447.0</ele><time>2026-04-25T10:51:20Z</time></trkpt><trkpt lat="36.53142303689606" lon="-5.2235000663688895"><ele>448.0</ele><time>2026-04-25T10:51:21Z</time></trkpt><trkpt lat="36.53145094130665" lon="-5.223617016404807"><ele>448.0</ele><time>2026-04-25T10:51:22Z</time></trkpt><trkpt lat="36.5315313612739" lon="-5.223682512755497"><ele>447.99999999999994</ele><time>2026-04-25T10:51:23Z</time></trkpt><trkpt lat="36.53162957064296" lon="-5.223712887906402"><ele>447.99999999999994</ele><time>2026-04-25T10:51:24Z</time></trkpt><trkpt lat="36.53173711329271" lon="-5.2237666882410645"><ele>448.0</ele><time>2026-04-25T10:51:25Z</time></trkpt><trkpt lat="36.53185781970173" lon="-5.223783390775213"><ele>448.0</ele><time>2026-04-25T10:51:26Z</time></trkpt><trkpt lat="36.53199460624602" lon="-5.22374955035633"><ele>458.33333333333337</ele><time>2026-04-25T10:51:27Z</time></trkpt><trkpt lat="36.532149166594635" lon="-5.223729074714445"><ele>468.66666666666663</ele><time>2026-04-25T10:51:28Z</time></trkpt><trkpt lat="36.53231983696858" lon="-5.223714969304174"><ele>479.0</ele><time>2026-04-25T10:51:29Z</time></trkpt><trkpt lat="36.532469530904564" lon="-5.223733000273611"><ele>479.0</ele><time>2026-04-25T10:51:30Z</time></trkpt><trkpt lat="36.53259809842529" lon="-5.223797144584777"><ele>479.0</ele><time>2026-04-25T10:51:31Z</time></trkpt><trkpt lat="36.53273600706921" lon="-5.2238942496349"><ele>479.0</ele><time>2026-04-25T10:51:32Z</time></trkpt><trkpt lat="36.53283716299539" lon="-5.224004355398778"><ele>479.0</ele><time>2026-04-25T10:51:33Z</time></trkpt><trkpt lat="36.53293775611774" lon="-5.224067168302256"><ele>483.5</ele><time>2026-04-25T10:51:34Z</time></trkpt><trkpt lat="36.53303026821152" lon="-5.223986758028399"><ele>488.0</ele><time>2026-04-25T10:51:35Z</time></trkpt><trkpt lat="36.53315850160609" lon="-5.223965001505775"><ele>492.5</ele><time>2026-04-25T10:51:36Z</time></trkpt><trkpt lat="36.53330232051207" lon="-5.22392404822028"><ele>497.0</ele><time>2026-04-25T10:51:37Z</time></trkpt><trkpt lat="36.533459580280486" lon="-5.2238928580072725"><ele>497.0</ele><time>2026-04-25T10:51:38Z</time></trkpt><trkpt lat="36.533623231481506" lon="-5.2238694481976"><ele>497.0</ele><time>2026-04-25T10:51:39Z</time></trkpt><trkpt lat="36.53378060600943" lon="-5.223862257999608"><ele>497.0</ele><time>2026-04-25T10:51:40Z</time></trkpt><trkpt lat="36.53394342855711" lon="-5.223864628898784"><ele>499.3333333333333</ele><time>2026-04-25T10:51:41Z</time></trkpt><trkpt lat="36.534111053136144" lon="-5.223872957666962"><ele>501.66666666666663</ele><time>2026-04-25T10:51:42Z</time></trkpt><trkpt lat="36.53427821915661" lon="-5.223888914608352"><ele>504.0</ele><time>2026-04-25T10:51:43Z</time></trkpt><trkpt lat="36.53444399110385" lon="-5.223911929765956"><ele>510.33333333333337</ele><time>2026-04-25T10:51:44Z</time></trkpt><trkpt lat="36.53460303782724" lon="-5.223943733840509"><ele>516.6666666666667</ele><time>2026-04-25T10:51:45Z</time></trkpt><trkpt lat="36.53476802809942" lon="-5.223978135622436"><ele>523.0</ele><time>2026-04-25T10:51:46Z</time></trkpt><trkpt lat="36.53493488467813" lon="-5.223995672882712"><ele>518.5</ele><time>2026-04-25T10:51:47Z</time></trkpt><trkpt lat="36.53508956343068" lon="-5.224012641843791"><ele>514.0</ele><time>2026-04-25T10:51:48Z</time></trkpt><trkpt lat="36.53521840318129" lon="-5.224017297821562"><ele>509.5</ele><time>2026-04-25T10:51:49Z</time></trkpt><trkpt lat="36.53532159867505" lon="-5.2240398417485245"><ele>505.0</ele><time>2026-04-25T10:51:50Z</time></trkpt><trkpt lat="36.535400586456866" lon="-5.224066402540788"><ele>505.0</ele><time>2026-04-25T10:51:51Z</time></trkpt><trkpt lat="36.53546694786673" lon="-5.224117214118859"><ele>505.0</ele><time>2026-04-25T10:51:52Z</time></trkpt><trkpt lat="36.53550455663403" lon="-5.224220069605872"><ele>505.0</ele><time>2026-04-25T10:51:53Z</time></trkpt><trkpt lat="36.5355135902809" lon="-5.2243291420545805"><ele>505.0</ele><time>2026-04-25T10:51:54Z</time></trkpt><trkpt lat="36.53545109733782" lon="-5.224475553216945"><ele>505.0</ele><time>2026-04-25T10:51:55Z</time></trkpt><trkpt lat="36.53538064221649" lon="-5.224614278228848"><ele>499.5</ele><time>2026-04-25T10:51:56Z</time></trkpt><trkpt lat="36.53537562693161" lon="-5.2247561898493515"><ele>494.0</ele><time>2026-04-25T10:51:57Z</time></trkpt><trkpt lat="36.53541679576971" lon="-5.224913534522676"><ele>488.5</ele><time>2026-04-25T10:51:58Z</time></trkpt><trkpt lat="36.535497624558914" lon="-5.225040000090877"><ele>483.0</ele><time>2026-04-25T10:51:59Z</time></trkpt><trkpt lat="36.53559659416052" lon="-5.225137900215791"><ele>483.0</ele><time>2026-04-25T10:52:00Z</time></trkpt><trkpt lat="36.53571676557664" lon="-5.22519516222548"><ele>483.0</ele><time>2026-04-25T10:52:01Z</time></trkpt><trkpt lat="36.53583587591203" lon="-5.2252135480629915"><ele>483.0</ele><time>2026-04-25T10:52:01.999Z</time></trkpt><trkpt lat="36.535955594833524" lon="-5.225149045290777"><ele>483.0</ele><time>2026-04-25T10:52:02.999Z</time></trkpt><trkpt lat="36.53607916020695" lon="-5.225122167476876"><ele>483.0</ele><time>2026-04-25T10:52:03.999Z</time></trkpt><trkpt lat="36.53619855213085" lon="-5.225127244653602"><ele>482.99999999999994</ele><time>2026-04-25T10:52:04.999Z</time></trkpt><trkpt lat="36.536306378221994" lon="-5.225179047123658"><ele>482.99999999999994</ele><time>2026-04-25T10:52:05.999Z</time></trkpt><trkpt lat="36.53638930316857" lon="-5.225245486372474"><ele>483.0</ele><time>2026-04-25T10:52:06.999Z</time></trkpt><trkpt lat="36.53644062838235" lon="-5.225335116087"><ele>483.0</ele><time>2026-04-25T10:52:07.999Z</time></trkpt><trkpt lat="36.53646300953309" lon="-5.225450680590045"><ele>489.0</ele><time>2026-04-25T10:52:08.999Z</time></trkpt><trkpt lat="36.53643602455148" lon="-5.225582775643037"><ele>495.0</ele><time>2026-04-25T10:52:09.999Z</time></trkpt><trkpt lat="36.53636129612445" lon="-5.2256982290700895"><ele>501.0</ele><time>2026-04-25T10:52:10.999Z</time></trkpt><trkpt lat="36.53627911736113" lon="-5.225812432731005"><ele>507.0</ele><time>2026-04-25T10:52:11.999Z</time></trkpt><trkpt lat="36.53623134159863" lon="-5.225959337884492"><ele>507.0</ele><time>2026-04-25T10:52:12.999Z</time></trkpt><trkpt lat="36.536212391162444" lon="-5.226112613262515"><ele>507.0</ele><time>2026-04-25T10:52:13.999Z</time></trkpt><trkpt lat="36.536222732822765" lon="-5.226260186396736"><ele>507.0</ele><time>2026-04-25T10:52:14.999Z</time></trkpt><trkpt lat="36.53625952060645" lon="-5.226408730200853"><ele>507.0</ele><time>2026-04-25T10:52:15.999Z</time></trkpt><trkpt lat="36.53629250263344" lon="-5.226564440858938"><ele>509.5</ele><time>2026-04-25T10:52:16.999Z</time></trkpt><trkpt lat="36.53630953076641" lon="-5.226724659448679"><ele>512.0</ele><time>2026-04-25T10:52:17.999Z</time></trkpt><trkpt lat="36.53629204547437" lon="-5.226887168494787"><ele>514.5</ele><time>2026-04-25T10:52:18.999Z</time></trkpt><trkpt lat="36.536240745880434" lon="-5.22705050682299"><ele>517.0</ele><time>2026-04-25T10:52:19.999Z</time></trkpt><trkpt lat="36.53619778357103" lon="-5.227220623789658"><ele>516.6666666666667</ele><time>2026-04-25T10:52:20.999Z</time></trkpt><trkpt lat="36.53619524783959" lon="-5.227402201471013"><ele>516.3333333333334</ele><time>2026-04-25T10:52:21.999Z</time></trkpt><trkpt lat="36.536225617456175" lon="-5.227599372066365"><ele>516.0</ele><time>2026-04-25T10:52:22.999Z</time></trkpt><trkpt lat="36.53627489424645" lon="-5.22780469301317"><ele>516.0</ele><time>2026-04-25T10:52:23.999Z</time></trkpt><trkpt lat="36.53631730526193" lon="-5.228005441743338"><ele>516.0</ele><time>2026-04-25T10:52:24.999Z</time></trkpt><trkpt lat="36.536344392548045" lon="-5.228197306605133"><ele>516.0</ele><time>2026-04-25T10:52:25.999Z</time></trkpt><trkpt lat="36.53634029358112" lon="-5.228382919339585"><ele>518.0</ele><time>2026-04-25T10:52:26.999Z</time></trkpt><trkpt lat="36.53631374401635" lon="-5.228556043799357"><ele>520.0</ele><time>2026-04-25T10:52:27.999Z</time></trkpt><trkpt lat="36.53630077306348" lon="-5.228738762419797"><ele>522.0</ele><time>2026-04-25T10:52:28.999Z</time></trkpt><trkpt lat="36.53632521837138" lon="-5.228919883917772"><ele>524.0</ele><time>2026-04-25T10:52:29.999Z</time></trkpt><trkpt lat="36.53637056238623" lon="-5.229099306808814"><ele>525.5</ele><time>2026-04-25T10:52:30.999Z</time></trkpt><trkpt lat="36.53637079328004" lon="-5.229276205211056"><ele>527.0</ele><time>2026-04-25T10:52:31.999Z</time></trkpt><trkpt lat="36.53636829741594" lon="-5.2294594521673465"><ele>528.5</ele><time>2026-04-25T10:52:32.999Z</time></trkpt><trkpt lat="36.53640734095416" lon="-5.229639552055016"><ele>530.0</ele><time>2026-04-25T10:52:33.999Z</time></trkpt><trkpt lat="36.536448307306394" lon="-5.229809847940854"><ele>530.0</ele><time>2026-04-25T10:52:34.999Z</time></trkpt><trkpt lat="36.53644033454579" lon="-5.229982867897914"><ele>530.0</ele><time>2026-04-25T10:52:35.999Z</time></trkpt><trkpt lat="36.536376422373124" lon="-5.230177617342797"><ele>530.0</ele><time>2026-04-25T10:52:36.999Z</time></trkpt><trkpt lat="36.53631084981166" lon="-5.230365834399439"><ele>530.0</ele><time>2026-04-25T10:52:37.999Z</time></trkpt><trkpt lat="36.53625211089395" lon="-5.230513250348171"><ele>530.0</ele><time>2026-04-25T10:52:38.999Z</time></trkpt><trkpt lat="36.5362316481839" lon="-5.230627055171034"><ele>530.0</ele><time>2026-04-25T10:52:39.999Z</time></trkpt><trkpt lat="36.53623033996936" lon="-5.230731481224837"><ele>530.0</ele><time>2026-04-25T10:52:40.999Z</time></trkpt><trkpt lat="36.536324876516034" lon="-5.230816541362537"><ele>530.0</ele><time>2026-04-25T10:52:41.999Z</time></trkpt><trkpt lat="36.536437008499206" lon="-5.230890295820131"><ele>529.6</ele><time>2026-04-25T10:52:42.999Z</time></trkpt><trkpt lat="36.53657149093602" lon="-5.230938051517669"><ele>529.2</ele><time>2026-04-25T10:52:43.999Z</time></trkpt><trkpt lat="36.536686617066074" lon="-5.2309578562109325"><ele>528.8</ele><time>2026-04-25T10:52:44.999Z</time></trkpt><trkpt lat="36.53678609703087" lon="-5.230957252173962"><ele>528.4</ele><time>2026-04-25T10:52:45.999Z</time></trkpt><trkpt lat="36.53684573371882" lon="-5.2310020085172315"><ele>528.0</ele><time>2026-04-25T10:52:46.999Z</time></trkpt><trkpt lat="36.53688574518237" lon="-5.231114464544031"><ele>528.0</ele><time>2026-04-25T10:52:47.999Z</time></trkpt><trkpt lat="36.53688628000512" lon="-5.23127557160838"><ele>528.0</ele><time>2026-04-25T10:52:48.999Z</time></trkpt><trkpt lat="36.53687602811047" lon="-5.231459153307946"><ele>528.0</ele><time>2026-04-25T10:52:49.999Z</time></trkpt><trkpt lat="36.536901044083365" lon="-5.231638698397051"><ele>528.0</ele><time>2026-04-25T10:52:50.999Z</time></trkpt><trkpt lat="36.53694196092601" lon="-5.231798205350199"><ele>526.75</ele><time>2026-04-25T10:52:51.999Z</time></trkpt><trkpt lat="36.53692047157783" lon="-5.231934938669579"><ele>525.5</ele><time>2026-04-25T10:52:52.999Z</time></trkpt><trkpt lat="36.53686556760848" lon="-5.232092619976463"><ele>524.25</ele><time>2026-04-25T10:52:53.999Z</time></trkpt><trkpt lat="36.53680299357161" lon="-5.232220736381797"><ele>523.0</ele><time>2026-04-25T10:52:54.999Z</time></trkpt><trkpt lat="36.536762384055926" lon="-5.232323542104123"><ele>523.0</ele><time>2026-04-25T10:52:55.999Z</time></trkpt><trkpt lat="36.53675769219113" lon="-5.23240822357973"><ele>523.0</ele><time>2026-04-25T10:52:56.999Z</time></trkpt><trkpt lat="36.53679785843865" lon="-5.232475157018271"><ele>523.0</ele><time>2026-04-25T10:52:57.999Z</time></trkpt><trkpt lat="36.536867155420786" lon="-5.23251105906034"><ele>523.0</ele><time>2026-04-25T10:52:58.999Z</time></trkpt><trkpt lat="36.53696241152168" lon="-5.232476513986612"><ele>523.0</ele><time>2026-04-25T10:52:59.999Z</time></trkpt><trkpt lat="36.53705896438871" lon="-5.232419443504181"><ele>523.0</ele><time>2026-04-25T10:53:00.999Z</time></trkpt><trkpt lat="36.53716807358619" lon="-5.232341199810433"><ele>528.5</ele><time>2026-04-25T10:53:01.999Z</time></trkpt><trkpt lat="36.53728748906515" lon="-5.232268844221296"><ele>534.0</ele><time>2026-04-25T10:53:02.999Z</time></trkpt><trkpt lat="36.5374162935195" lon="-5.232205185230625"><ele>539.5</ele><time>2026-04-25T10:53:03.999Z</time></trkpt><trkpt lat="36.53754697432648" lon="-5.2321584236357905"><ele>545.0</ele><time>2026-04-25T10:53:04.999Z</time></trkpt><trkpt lat="36.53768637337345" lon="-5.23216505624674"><ele>545.0</ele><time>2026-04-25T10:53:05.999Z</time></trkpt><trkpt lat="36.53782881974374" lon="-5.232158294453347"><ele>545.0</ele><time>2026-04-25T10:53:06.999Z</time></trkpt><trkpt lat="36.53796208146142" lon="-5.232118131263174"><ele>545.0</ele><time>2026-04-25T10:53:07.999Z</time></trkpt><trkpt lat="36.53810090946747" lon="-5.2320853087483465"><ele>545.0</ele><time>2026-04-25T10:53:08.999Z</time></trkpt><trkpt lat="36.538253186942" lon="-5.232069674591071"><ele>541.3333333333333</ele><time>2026-04-25T10:53:09.999Z</time></trkpt><trkpt lat="36.538413042123004" lon="-5.232044737968682"><ele>537.6666666666666</ele><time>2026-04-25T10:53:10.999Z</time></trkpt><trkpt lat="36.53856731840663" lon="-5.232024032310566"><ele>534.0</ele><time>2026-04-25T10:53:11.999Z</time></trkpt><trkpt lat="36.538715010620976" lon="-5.232000141637008"><ele>527.75</ele><time>2026-04-25T10:53:12.999Z</time></trkpt><trkpt lat="36.53885031506325" lon="-5.2319793081095005"><ele>521.5</ele><time>2026-04-25T10:53:13.999Z</time></trkpt><trkpt lat="36.53896794865231" lon="-5.231959160005594"><ele>515.25</ele><time>2026-04-25T10:53:14.999Z</time></trkpt><trkpt lat="36.53906926934934" lon="-5.231910215865442"><ele>509.0</ele><time>2026-04-25T10:53:15.999Z</time></trkpt><trkpt lat="36.53915275574291" lon="-5.231808581412323"><ele>509.0</ele><time>2026-04-25T10:53:16.999Z</time></trkpt><trkpt lat="36.539168171420535" lon="-5.231634498470031"><ele>509.0</ele><time>2026-04-25T10:53:17.999Z</time></trkpt><trkpt lat="36.53920306900699" lon="-5.231466217115748"><ele>509.0</ele><time>2026-04-25T10:53:18.999Z</time></trkpt><trkpt lat="36.539222168210934" lon="-5.231298858514998"><ele>509.0</ele><time>2026-04-25T10:53:19.999Z</time></trkpt><trkpt lat="36.539228344218635" lon="-5.231141791734086"><ele>507.25</ele><time>2026-04-25T10:53:20.999Z</time></trkpt><trkpt lat="36.53916012719204" lon="-5.231003057113935"><ele>505.5</ele><time>2026-04-25T10:53:21.999Z</time></trkpt><trkpt lat="36.539086113902435" lon="-5.230854681394449"><ele>503.75</ele><time>2026-04-25T10:53:22.999Z</time></trkpt><trkpt lat="36.53902210731202" lon="-5.230715788786768"><ele>502.0</ele><time>2026-04-25T10:53:24Z</time></trkpt><trkpt lat="36.538951272605914" lon="-5.230595841019233"><ele>497.0</ele><time>2026-04-25T10:53:25Z</time></trkpt><trkpt lat="36.538822596004415" lon="-5.230547195091989"><ele>492.0</ele><time>2026-04-25T10:53:26Z</time></trkpt><trkpt lat="36.53872937925549" lon="-5.230424044398857"><ele>487.0</ele><time>2026-04-25T10:53:27Z</time></trkpt><trkpt lat="36.53869100908935" lon="-5.230237900554409"><ele>482.0</ele><time>2026-04-25T10:53:28Z</time></trkpt><trkpt lat="36.53860476702742" lon="-5.230098429334653"><ele>492.20000000000005</ele><time>2026-04-25T10:53:29Z</time></trkpt><trkpt lat="36.53854482979173" lon="-5.229960849261178"><ele>502.40000000000003</ele><time>2026-04-25T10:53:30Z</time></trkpt><trkpt lat="36.53848316809411" lon="-5.229843395873306"><ele>512.5999999999999</ele><time>2026-04-25T10:53:31Z</time></trkpt><trkpt lat="36.538445616054034" lon="-5.229731652876185"><ele>522.8</ele><time>2026-04-25T10:53:32Z</time></trkpt><trkpt lat="36.538437937006556" lon="-5.22962022024193"><ele>533.0</ele><time>2026-04-25T10:53:33Z</time></trkpt><trkpt lat="36.53846645447523" lon="-5.229500485857511"><ele>533.25</ele><time>2026-04-25T10:53:34Z</time></trkpt><trkpt lat="36.53852558257638" lon="-5.229373121885618"><ele>533.5</ele><time>2026-04-25T10:53:35Z</time></trkpt><trkpt lat="36.538621828935064" lon="-5.229252370806345"><ele>533.75</ele><time>2026-04-25T10:53:36Z</time></trkpt><trkpt lat="36.53873281699915" lon="-5.2291304452345"><ele>534.0</ele><time>2026-04-25T10:53:37Z</time></trkpt><trkpt lat="36.5388472327698" lon="-5.22899401178307"><ele>524.3333333333334</ele><time>2026-04-25T10:53:38Z</time></trkpt><trkpt lat="36.53895375333627" lon="-5.228841226605421"><ele>514.6666666666667</ele><time>2026-04-25T10:53:39Z</time></trkpt><trkpt lat="36.53905798313614" lon="-5.2286996167739686"><ele>505.0</ele><time>2026-04-25T10:53:40Z</time></trkpt><trkpt lat="36.53912535315522" lon="-5.2285470778508785"><ele>505.0</ele><time>2026-04-25T10:53:41Z</time></trkpt><trkpt lat="36.539195033174494" lon="-5.228403982211198"><ele>505.0</ele><time>2026-04-25T10:53:42Z</time></trkpt><trkpt lat="36.53925466578221" lon="-5.2282697158686595"><ele>505.0</ele><time>2026-04-25T10:53:43Z</time></trkpt><trkpt lat="36.53929825982396" lon="-5.2281467846578975"><ele>505.0</ele><time>2026-04-25T10:53:44Z</time></trkpt><trkpt lat="36.5393142187608" lon="-5.228014768145838"><ele>510.25</ele><time>2026-04-25T10:53:45Z</time></trkpt><trkpt lat="36.539321369084114" lon="-5.227839177590501"><ele>515.5</ele><time>2026-04-25T10:53:46Z</time></trkpt><trkpt lat="36.539387580059596" lon="-5.227677903737874"><ele>520.75</ele><time>2026-04-25T10:53:47Z</time></trkpt><trkpt lat="36.539447236171576" lon="-5.227504235027482"><ele>526.0</ele><time>2026-04-25T10:53:48Z</time></trkpt><trkpt lat="36.53951546313347" lon="-5.227328700053849"><ele>516.3333333333334</ele><time>2026-04-25T10:53:49Z</time></trkpt><trkpt lat="36.539583406039256" lon="-5.227165835762705"><ele>506.66666666666663</ele><time>2026-04-25T10:53:50Z</time></trkpt><trkpt lat="36.53967699773318" lon="-5.227008836402753"><ele>497.0</ele><time>2026-04-25T10:53:51Z</time></trkpt><trkpt lat="36.53977695445933" lon="-5.226850190080704"><ele>497.0</ele><time>2026-04-25T10:53:52Z</time></trkpt><trkpt lat="36.53989981166601" lon="-5.226705810796612"><ele>497.0</ele><time>2026-04-25T10:53:53Z</time></trkpt><trkpt lat="36.539999806058226" lon="-5.2265495307671195"><ele>497.0</ele><time>2026-04-25T10:53:54Z</time></trkpt><trkpt lat="36.540086132889385" lon="-5.226400957968153"><ele>502.0</ele><time>2026-04-25T10:53:55Z</time></trkpt><trkpt lat="36.540137006960435" lon="-5.226249746762682"><ele>507.00000000000006</ele><time>2026-04-25T10:53:56Z</time></trkpt><trkpt lat="36.54018249227036" lon="-5.226122771214743"><ele>512.0</ele><time>2026-04-25T10:53:57Z</time></trkpt><trkpt lat="36.54018024923131" lon="-5.225993849365561"><ele>517.0</ele><time>2026-04-25T10:53:58Z</time></trkpt><trkpt lat="36.540148847989244" lon="-5.2258832731921965"><ele>522.0</ele><time>2026-04-25T10:53:59Z</time></trkpt><trkpt lat="36.54011312872195" lon="-5.2257529175389745"><ele>525.5</ele><time>2026-04-25T10:54:00Z</time></trkpt><trkpt lat="36.540107081170795" lon="-5.225596331126223"><ele>529.0</ele><time>2026-04-25T10:54:01Z</time></trkpt><trkpt lat="36.5401278611935" lon="-5.225432940073378"><ele>532.5</ele><time>2026-04-25T10:54:02Z</time></trkpt><trkpt lat="36.54017426702832" lon="-5.225269347316417"><ele>536.0</ele><time>2026-04-25T10:54:03Z</time></trkpt><trkpt lat="36.54025189804127" lon="-5.225123570501392"><ele>536.0</ele><time>2026-04-25T10:54:04Z</time></trkpt><trkpt lat="36.540356588260465" lon="-5.224998282512022"><ele>536.0</ele><time>2026-04-25T10:54:05Z</time></trkpt><trkpt lat="36.540471875592345" lon="-5.2249098228863735"><ele>536.0</ele><time>2026-04-25T10:54:06Z</time></trkpt><trkpt lat="36.540568917311575" lon="-5.224812772935339"><ele>536.0</ele><time>2026-04-25T10:54:07Z</time></trkpt><trkpt lat="36.54063932229044" lon="-5.224745454834596"><ele>531.5</ele><time>2026-04-25T10:54:08Z</time></trkpt><trkpt lat="36.540654918267826" lon="-5.224649929741565"><ele>527.0</ele><time>2026-04-25T10:54:09Z</time></trkpt><trkpt lat="36.540646659387505" lon="-5.224562988179715"><ele>522.5</ele><time>2026-04-25T10:54:10Z</time></trkpt><trkpt lat="36.54063021992297" lon="-5.2244583194896705"><ele>518.0</ele><time>2026-04-25T10:54:10.999Z</time></trkpt><trkpt lat="36.54056840607404" lon="-5.224358716660106"><ele>513.5</ele><time>2026-04-25T10:54:11.999Z</time></trkpt><trkpt lat="36.54058096993178" lon="-5.2242414943813715"><ele>509.0</ele><time>2026-04-25T10:54:12.999Z</time></trkpt><trkpt lat="36.54064412337245" lon="-5.224140929163527"><ele>509.0</ele><time>2026-04-25T10:54:13.999Z</time></trkpt><trkpt lat="36.54079037327274" lon="-5.224199970202011"><ele>509.0</ele><time>2026-04-25T10:54:14.999Z</time></trkpt><trkpt lat="36.54088398241161" lon="-5.224206876317043"><ele>509.0</ele><time>2026-04-25T10:54:15.999Z</time></trkpt><trkpt lat="36.54096296074369" lon="-5.224194754111608"><ele>509.0</ele><time>2026-04-25T10:54:16.999Z</time></trkpt><trkpt lat="36.541010344023185" lon="-5.224121910423154"><ele>509.0</ele><time>2026-04-25T10:54:17.999Z</time></trkpt><trkpt lat="36.541029394583454" lon="-5.2239968329684014"><ele>510.0</ele><time>2026-04-25T10:54:18.999Z</time></trkpt><trkpt lat="36.54106907389491" lon="-5.223847709973971"><ele>511.0</ele><time>2026-04-25T10:54:19.999Z</time></trkpt><trkpt lat="36.541102533183924" lon="-5.22369771160306"><ele>512.0</ele><time>2026-04-25T10:54:20.999Z</time></trkpt><trkpt lat="36.54113191516078" lon="-5.223577298174896"><ele>513.0</ele><time>2026-04-25T10:54:21.999Z</time></trkpt><trkpt lat="36.541079978618875" lon="-5.223454132914626"><ele>513.0</ele><time>2026-04-25T10:54:22.999Z</time></trkpt><trkpt lat="36.54100394817592" lon="-5.223331393808833"><ele>513.0</ele><time>2026-04-25T10:54:23.999Z</time></trkpt><trkpt lat="36.54092799582193" lon="-5.223187081403476"><ele>513.0</ele><time>2026-04-25T10:54:24.999Z</time></trkpt><trkpt lat="36.540840718930774" lon="-5.22306230756868"><ele>513.0</ele><time>2026-04-25T10:54:25.999Z</time></trkpt><trkpt lat="36.54073274867556" lon="-5.22299190064052"><ele>512.5</ele><time>2026-04-25T10:54:26.999Z</time></trkpt><trkpt lat="36.540670019340666" lon="-5.222883962617791"><ele>512.0</ele><time>2026-04-25T10:54:27.999Z</time></trkpt><trkpt lat="36.540715437929265" lon="-5.222705567986499"><ele>511.5</ele><time>2026-04-25T10:54:28.999Z</time></trkpt><trkpt lat="36.54068977422886" lon="-5.222571708299493"><ele>511.0</ele><time>2026-04-25T10:54:29.999Z</time></trkpt><trkpt lat="36.54062659344214" lon="-5.222433002546867"><ele>516.25</ele><time>2026-04-25T10:54:30.999Z</time></trkpt><trkpt lat="36.54053719469052" lon="-5.222304759275326"><ele>521.5</ele><time>2026-04-25T10:54:31.999Z</time></trkpt><trkpt lat="36.540439196073585" lon="-5.222182981473231"><ele>526.75</ele><time>2026-04-25T10:54:32.999Z</time></trkpt><trkpt lat="36.54032504625445" lon="-5.222067629863748"><ele>532.0</ele><time>2026-04-25T10:54:33.999Z</time></trkpt><trkpt lat="36.54024658813034" lon="-5.221935738806965"><ele>533.8000000000001</ele><time>2026-04-25T10:54:34.999Z</time></trkpt><trkpt lat="36.54020929158792" lon="-5.221804691583362"><ele>535.6</ele><time>2026-04-25T10:54:35.999Z</time></trkpt><trkpt lat="36.54015970243301" lon="-5.221681166770291"><ele>537.4000000000001</ele><time>2026-04-25T10:54:36.999Z</time></trkpt><trkpt lat="36.540134942539" lon="-5.221572364620039"><ele>539.2</ele><time>2026-04-25T10:54:37.999Z</time></trkpt><trkpt lat="36.54014335874773" lon="-5.22147999267711"><ele>541.0</ele><time>2026-04-25T10:54:38.999Z</time></trkpt><trkpt lat="36.5401844600206" lon="-5.221412574782193"><ele>539.2</ele><time>2026-04-25T10:54:39.999Z</time></trkpt><trkpt lat="36.5402679372647" lon="-5.221352486686501"><ele>537.4000000000001</ele><time>2026-04-25T10:54:40.999Z</time></trkpt><trkpt lat="36.54035389450863" lon="-5.221362947855357"><ele>535.6</ele><time>2026-04-25T10:54:41.999Z</time></trkpt><trkpt lat="36.54045135966393" lon="-5.2214082673643105"><ele>533.8000000000001</ele><time>2026-04-25T10:54:42.999Z</time></trkpt><trkpt lat="36.54057035903076" lon="-5.221503589022246"><ele>532.0</ele><time>2026-04-25T10:54:43.999Z</time></trkpt><trkpt lat="36.54070272707843" lon="-5.221470764865219"><ele>532.0</ele><time>2026-04-25T10:54:44.999Z</time></trkpt><trkpt lat="36.540815215165246" lon="-5.221430644397195"><ele>532.0</ele><time>2026-04-25T10:54:45.999Z</time></trkpt><trkpt lat="36.54091212277345" lon="-5.221428011096997"><ele>532.0</ele><time>2026-04-25T10:54:46.999Z</time></trkpt><trkpt lat="36.540991001178035" lon="-5.2214717577927745"><ele>532.0</ele><time>2026-04-25T10:54:47.999Z</time></trkpt><trkpt lat="36.54105267040179" lon="-5.221582512962153"><ele>532.0</ele><time>2026-04-25T10:54:48.999Z</time></trkpt><trkpt lat="36.54114996885753" lon="-5.221688580348376"><ele>537.25</ele><time>2026-04-25T10:54:49.999Z</time></trkpt><trkpt lat="36.541249384576496" lon="-5.221827271313442"><ele>542.5</ele><time>2026-04-25T10:54:50.999Z</time></trkpt><trkpt lat="36.541317740635634" lon="-5.2219837404348155"><ele>547.75</ele><time>2026-04-25T10:54:51.999Z</time></trkpt><trkpt lat="36.54137853118203" lon="-5.222127544775589"><ele>553.0</ele><time>2026-04-25T10:54:52.999Z</time></trkpt><trkpt lat="36.54142199166458" lon="-5.222228873043578"><ele>553.0</ele><time>2026-04-25T10:54:53.999Z</time></trkpt><trkpt lat="36.54151377856727" lon="-5.222257427061004"><ele>553.0</ele><time>2026-04-25T10:54:54.999Z</time></trkpt><trkpt lat="36.54160681506894" lon="-5.222185846915199"><ele>553.0</ele><time>2026-04-25T10:54:55.999Z</time></trkpt><trkpt lat="36.54167358796448" lon="-5.222045759972747"><ele>553.0</ele><time>2026-04-25T10:54:56.999Z</time></trkpt><trkpt lat="36.5417611928746" lon="-5.221932238850641"><ele>553.0</ele><time>2026-04-25T10:54:57.999Z</time></trkpt><trkpt lat="36.541869850794" lon="-5.221811322966612"><ele>553.0</ele><time>2026-04-25T10:54:58.999Z</time></trkpt><trkpt lat="36.5419560513147" lon="-5.2217265038059475"><ele>553.0</ele><time>2026-04-25T10:54:59.999Z</time></trkpt><trkpt lat="36.5420106211825" lon="-5.2216555399204205"><ele>553.0</ele><time>2026-04-25T10:55:00.999Z</time></trkpt><trkpt lat="36.54210460033828" lon="-5.221673441460267"><ele>553.0</ele><time>2026-04-25T10:55:01.999Z</time></trkpt><trkpt lat="36.542193721062304" lon="-5.221742650381901"><ele>553.75</ele><time>2026-04-25T10:55:02.999Z</time></trkpt><trkpt lat="36.542200574702676" lon="-5.221921362687228"><ele>554.5</ele><time>2026-04-25T10:55:03.999Z</time></trkpt><trkpt lat="36.54225842277179" lon="-5.222036060113297"><ele>555.25</ele><time>2026-04-25T10:55:04.999Z</time></trkpt><trkpt lat="36.54237425356028" lon="-5.222060306240275"><ele>556.0</ele><time>2026-04-25T10:55:05.999Z</time></trkpt><trkpt lat="36.54249445912575" lon="-5.221947318070873"><ele>556.0</ele><time>2026-04-25T10:55:06.999Z</time></trkpt><trkpt lat="36.54263357193669" lon="-5.22187150373176"><ele>556.0</ele><time>2026-04-25T10:55:07.999Z</time></trkpt><trkpt lat="36.54281129054913" lon="-5.221795595590098"><ele>556.0</ele><time>2026-04-25T10:55:08.999Z</time></trkpt><trkpt lat="36.543018987669655" lon="-5.221732845705337"><ele>554.6666666666667</ele><time>2026-04-25T10:55:09.999Z</time></trkpt><trkpt lat="36.543229162271984" lon="-5.221690086020057"><ele>553.3333333333334</ele><time>2026-04-25T10:55:10.999Z</time></trkpt><trkpt lat="36.5433838904489" lon="-5.221615377290341"><ele>552.0</ele><time>2026-04-25T10:55:11.999Z</time></trkpt><trkpt lat="36.543535848403884" lon="-5.221531603129834"><ele>562.0</ele><time>2026-04-25T10:55:12.999Z</time></trkpt><trkpt lat="36.54367963014656" lon="-5.221433624648338"><ele>572.0</ele><time>2026-04-25T10:55:13.999Z</time></trkpt><trkpt lat="36.543822493770975" lon="-5.221359570827325"><ele>582.0</ele><time>2026-04-25T10:55:14.999Z</time></trkpt><trkpt lat="36.54398398581405" lon="-5.221315093925686"><ele>582.0</ele><time>2026-04-25T10:55:15.999Z</time></trkpt><trkpt lat="36.54414038072103" lon="-5.221238548554986"><ele>582.0</ele><time>2026-04-25T10:55:16.999Z</time></trkpt><trkpt lat="36.54428116866362" lon="-5.221198823427599"><ele>582.0</ele><time>2026-04-25T10:55:17.999Z</time></trkpt><trkpt lat="36.54440793087305" lon="-5.221185110380193"><ele>582.0</ele><time>2026-04-25T10:55:18.999Z</time></trkpt><trkpt lat="36.54455588501861" lon="-5.221212293515753"><ele>581.4</ele><time>2026-04-25T10:55:19.999Z</time></trkpt><trkpt lat="36.54468762695041" lon="-5.221251637634436"><ele>580.8000000000001</ele><time>2026-04-25T10:55:20.999Z</time></trkpt><trkpt lat="36.54476622660187" lon="-5.221306045832449"><ele>580.2</ele><time>2026-04-25T10:55:21.999Z</time></trkpt><trkpt lat="36.54482125406721" lon="-5.2213524389808965"><ele>579.6</ele><time>2026-04-25T10:55:22.999Z</time></trkpt><trkpt lat="36.54483613663821" lon="-5.221437641356903"><ele>579.0</ele><time>2026-04-25T10:55:23.999Z</time></trkpt><trkpt lat="36.54481360568326" lon="-5.221562673017859"><ele>579.0</ele><time>2026-04-25T10:55:24.999Z</time></trkpt><trkpt lat="36.544765380728954" lon="-5.221671036092376"><ele>579.0</ele><time>2026-04-25T10:55:25.999Z</time></trkpt><trkpt lat="36.54459349464541" lon="-5.221674093891049"><ele>579.0</ele><time>2026-04-25T10:55:26.999Z</time></trkpt><trkpt lat="36.54443925812866" lon="-5.2216970205593745"><ele>579.0</ele><time>2026-04-25T10:55:27.999Z</time></trkpt><trkpt lat="36.544313555374" lon="-5.221736026561259"><ele>574.0</ele><time>2026-04-25T10:55:28.999Z</time></trkpt><trkpt lat="36.54421856578306" lon="-5.221810596632952"><ele>569.0</ele><time>2026-04-25T10:55:30Z</time></trkpt><trkpt lat="36.54416375798767" lon="-5.221966706878697"><ele>564.0</ele><time>2026-04-25T10:55:31Z</time></trkpt><trkpt lat="36.544057096368526" lon="-5.2220872048633336"><ele>559.0</ele><time>2026-04-25T10:55:32Z</time></trkpt><trkpt lat="36.543967677529494" lon="-5.222192775015964"><ele>559.0</ele><time>2026-04-25T10:55:33Z</time></trkpt><trkpt lat="36.54393169593677" lon="-5.2223115437035"><ele>559.0</ele><time>2026-04-25T10:55:34Z</time></trkpt><trkpt lat="36.543941672826804" lon="-5.222456020377578"><ele>559.0</ele><time>2026-04-25T10:55:35Z</time></trkpt><trkpt lat="36.54399471331501" lon="-5.222635493667873"><ele>559.0</ele><time>2026-04-25T10:55:36Z</time></trkpt><trkpt lat="36.54402864583731" lon="-5.222812457688849"><ele>558.2</ele><time>2026-04-25T10:55:37Z</time></trkpt><trkpt lat="36.54401688363359" lon="-5.222970710537006"><ele>557.4</ele><time>2026-04-25T10:55:38Z</time></trkpt><trkpt lat="36.54398223575855" lon="-5.223096423484274"><ele>556.6</ele><time>2026-04-25T10:55:39Z</time></trkpt><trkpt lat="36.543905341452145" lon="-5.223177764052728"><ele>555.8</ele><time>2026-04-25T10:55:40Z</time></trkpt><trkpt lat="36.54380787039286" lon="-5.223249014687197"><ele>555.0</ele><time>2026-04-25T10:55:41Z</time></trkpt><trkpt lat="36.54364679622012" lon="-5.223261359503804"><ele>555.0</ele><time>2026-04-25T10:55:42Z</time></trkpt><trkpt lat="36.543489914326564" lon="-5.2233117681327625"><ele>555.0</ele><time>2026-04-25T10:55:43Z</time></trkpt><trkpt lat="36.54338230845539" lon="-5.223407364269242"><ele>555.0</ele><time>2026-04-25T10:55:44Z</time></trkpt><trkpt lat="36.54328703003229" lon="-5.223467531105043"><ele>555.0</ele><time>2026-04-25T10:55:45Z</time></trkpt><trkpt lat="36.543245555461844" lon="-5.223557899359328"><ele>555.0</ele><time>2026-04-25T10:55:46Z</time></trkpt><trkpt lat="36.543258109071715" lon="-5.2236524185981255"><ele>555.0</ele><time>2026-04-25T10:55:47Z</time></trkpt><trkpt lat="36.5433218280148" lon="-5.223738798756626"><ele>555.0</ele><time>2026-04-25T10:55:48Z</time></trkpt><trkpt lat="36.54343240476318" lon="-5.22379590248864"><ele>555.0</ele><time>2026-04-25T10:55:49Z</time></trkpt><trkpt lat="36.54356343652139" lon="-5.22385125873584"><ele>555.0</ele><time>2026-04-25T10:55:50Z</time></trkpt><trkpt lat="36.54370701490681" lon="-5.223926348259239"><ele>561.6</ele><time>2026-04-25T10:55:51Z</time></trkpt><trkpt lat="36.54382602239459" lon="-5.224000481755578"><ele>568.2</ele><time>2026-04-25T10:55:52Z</time></trkpt><trkpt lat="36.54390610277615" lon="-5.224071749490396"><ele>574.8</ele><time>2026-04-25T10:55:53Z</time></trkpt><trkpt lat="36.543941383631626" lon="-5.224156150633891"><ele>581.4</ele><time>2026-04-25T10:55:54Z</time></trkpt><trkpt lat="36.54393420219712" lon="-5.224261267270473"><ele>588.0</ele><time>2026-04-25T10:55:55Z</time></trkpt><trkpt lat="36.54390230053945" lon="-5.224385446083762"><ele>588.0</ele><time>2026-04-25T10:55:56Z</time></trkpt><trkpt lat="36.543787848793876" lon="-5.2244758188801645"><ele>588.0</ele><time>2026-04-25T10:55:57Z</time></trkpt><trkpt lat="36.54367365376118" lon="-5.224562659409653"><ele>588.0</ele><time>2026-04-25T10:55:58Z</time></trkpt><trkpt lat="36.5435572998639" lon="-5.2246714261143845"><ele>588.0</ele><time>2026-04-25T10:55:59Z</time></trkpt><trkpt lat="36.5434502556509" lon="-5.224787742025841"><ele>583.6</ele><time>2026-04-25T10:56:00Z</time></trkpt><trkpt lat="36.543369200306266" lon="-5.224892647375102"><ele>579.1999999999999</ele><time>2026-04-25T10:56:01Z</time></trkpt><trkpt lat="36.5433027805748" lon="-5.224998436976056"><ele>574.8</ele><time>2026-04-25T10:56:02Z</time></trkpt><trkpt lat="36.543275473148206" lon="-5.225101733523642"><ele>570.4</ele><time>2026-04-25T10:56:03Z</time></trkpt><trkpt lat="36.54329233274037" lon="-5.225210428541447"><ele>566.0</ele><time>2026-04-25T10:56:04Z</time></trkpt><trkpt lat="36.543361102890046" lon="-5.225313981286572"><ele>566.0</ele><time>2026-04-25T10:56:05Z</time></trkpt><trkpt lat="36.54339567296559" lon="-5.225426984849243"><ele>566.0</ele><time>2026-04-25T10:56:06Z</time></trkpt><trkpt lat="36.54339705029785" lon="-5.225552041540577"><ele>566.0</ele><time>2026-04-25T10:56:07Z</time></trkpt><trkpt lat="36.543359265145504" lon="-5.225675903108703"><ele>566.0</ele><time>2026-04-25T10:56:08Z</time></trkpt><trkpt lat="36.54333088973665" lon="-5.225807398543161"><ele>566.0</ele><time>2026-04-25T10:56:09Z</time></trkpt><trkpt lat="36.54334598697684" lon="-5.225948576487311"><ele>566.2</ele><time>2026-04-25T10:56:10Z</time></trkpt><trkpt lat="36.543399513240864" lon="-5.22608613972252"><ele>566.4000000000001</ele><time>2026-04-25T10:56:11Z</time></trkpt><trkpt lat="36.54346651564339" lon="-5.226203152211046"><ele>566.6</ele><time>2026-04-25T10:56:12Z</time></trkpt><trkpt lat="36.54355227513053" lon="-5.226275831974106"><ele>566.8000000000001</ele><time>2026-04-25T10:56:13Z</time></trkpt><trkpt lat="36.54364050316153" lon="-5.2262852999358405"><ele>567.0</ele><time>2026-04-25T10:56:14Z</time></trkpt><trkpt lat="36.54374762413599" lon="-5.226259155696234"><ele>570.2</ele><time>2026-04-25T10:56:15Z</time></trkpt><trkpt lat="36.54384837923718" lon="-5.226254415466657"><ele>573.4000000000001</ele><time>2026-04-25T10:56:16Z</time></trkpt><trkpt lat="36.54393508410888" lon="-5.226243181195353"><ele>576.5999999999999</ele><time>2026-04-25T10:56:17Z</time></trkpt><trkpt lat="36.5440027905126" lon="-5.22630832283912"><ele>579.8</ele><time>2026-04-25T10:56:18Z</time></trkpt><trkpt lat="36.54405372959591" lon="-5.226400819633731"><ele>583.0</ele><time>2026-04-25T10:56:19Z</time></trkpt><trkpt lat="36.54404721527969" lon="-5.2265168752895805"><ele>583.1999999999999</ele><time>2026-04-25T10:56:20Z</time></trkpt><trkpt lat="36.54400677443403" lon="-5.226622399522692"><ele>583.4</ele><time>2026-04-25T10:56:21Z</time></trkpt><trkpt lat="36.5439218224835" lon="-5.226722586546894"><ele>583.5999999999999</ele><time>2026-04-25T10:56:22Z</time></trkpt><trkpt lat="36.54381719444149" lon="-5.226804861993517"><ele>583.8</ele><time>2026-04-25T10:56:23Z</time></trkpt><trkpt lat="36.543731951153525" lon="-5.226894864713117"><ele>584.0</ele><time>2026-04-25T10:56:24Z</time></trkpt><trkpt lat="36.54371100254453" lon="-5.227005494741644"><ele>584.0</ele><time>2026-04-25T10:56:25Z</time></trkpt><trkpt lat="36.54370471898482" lon="-5.227112335642698"><ele>584.0</ele><time>2026-04-25T10:56:26Z</time></trkpt><trkpt lat="36.5437432901532" lon="-5.2272422337934055"><ele>584.0</ele><time>2026-04-25T10:56:27Z</time></trkpt><trkpt lat="36.5437891471249" lon="-5.227424380030736"><ele>584.0</ele><time>2026-04-25T10:56:27.999Z</time></trkpt><trkpt lat="36.54378874752293" lon="-5.22756750087432"><ele>583.75</ele><time>2026-04-25T10:56:28.999Z</time></trkpt><trkpt lat="36.54378318278665" lon="-5.227717615544645"><ele>583.5</ele><time>2026-04-25T10:56:29.999Z</time></trkpt><trkpt lat="36.543728341222554" lon="-5.227846135496021"><ele>583.25</ele><time>2026-04-25T10:56:30.999Z</time></trkpt><trkpt lat="36.54364644666896" lon="-5.227974939538081"><ele>583.0</ele><time>2026-04-25T10:56:31.999Z</time></trkpt><trkpt lat="36.54355400913173" lon="-5.22810394221282"><ele>575.75</ele><time>2026-04-25T10:56:32.999Z</time></trkpt><trkpt lat="36.54347558778239" lon="-5.228233413495684"><ele>568.5</ele><time>2026-04-25T10:56:33.999Z</time></trkpt><trkpt lat="36.543412824593695" lon="-5.228366406391867"><ele>561.25</ele><time>2026-04-25T10:56:34.999Z</time></trkpt><trkpt lat="36.54336381019138" lon="-5.228488622485622"><ele>554.0</ele><time>2026-04-25T10:56:35.999Z</time></trkpt><trkpt lat="36.54333828517492" lon="-5.22861592103019"><ele>554.0</ele><time>2026-04-25T10:56:36.999Z</time></trkpt><trkpt lat="36.54335346566558" lon="-5.2287639978686595"><ele>554.0</ele><time>2026-04-25T10:56:37.999Z</time></trkpt><trkpt lat="36.54341385451072" lon="-5.228918111849743"><ele>554.0</ele><time>2026-04-25T10:56:38.999Z</time></trkpt><trkpt lat="36.54348891595163" lon="-5.2290858750953"><ele>554.0</ele><time>2026-04-25T10:56:39.999Z</time></trkpt><trkpt lat="36.5435732762717" lon="-5.229244795558995"><ele>553.0</ele><time>2026-04-25T10:56:40.999Z</time></trkpt><trkpt lat="36.543664349168296" lon="-5.229392735852537"><ele>552.0</ele><time>2026-04-25T10:56:41.999Z</time></trkpt><trkpt lat="36.54376616969373" lon="-5.229507951828224"><ele>551.0</ele><time>2026-04-25T10:56:42.999Z</time></trkpt><trkpt lat="36.54383166389799" lon="-5.229635566596439"><ele>550.0</ele><time>2026-04-25T10:56:43.999Z</time></trkpt><trkpt lat="36.54385863415619" lon="-5.229782865160353"><ele>554.75</ele><time>2026-04-25T10:56:44.999Z</time></trkpt><trkpt lat="36.543888427110836" lon="-5.229950554892636"><ele>559.5</ele><time>2026-04-25T10:56:45.999Z</time></trkpt><trkpt lat="36.54391105192863" lon="-5.230122842059432"><ele>564.25</ele><time>2026-04-25T10:56:46.999Z</time></trkpt><trkpt lat="36.54394311237586" lon="-5.2302950173860365"><ele>569.0</ele><time>2026-04-25T10:56:47.999Z</time></trkpt><trkpt lat="36.543981800402925" lon="-5.230431379577985"><ele>569.0</ele><time>2026-04-25T10:56:48.999Z</time></trkpt><trkpt lat="36.54403405858105" lon="-5.230519802477233"><ele>569.0</ele><time>2026-04-25T10:56:49.999Z</time></trkpt><trkpt lat="36.54410678892497" lon="-5.230570615373081"><ele>569.0</ele><time>2026-04-25T10:56:50.999Z</time></trkpt><trkpt lat="36.54418495511481" lon="-5.230615528389926"><ele>569.0</ele><time>2026-04-25T10:56:51.999Z</time></trkpt><trkpt lat="36.544276973235256" lon="-5.230647843989721"><ele>569.0</ele><time>2026-04-25T10:56:52.999Z</time></trkpt><trkpt lat="36.544375770753845" lon="-5.2306811083885805"><ele>570.8</ele><time>2026-04-25T10:56:53.999Z</time></trkpt><trkpt lat="36.54446436234045" lon="-5.230717478164321"><ele>572.5999999999999</ele><time>2026-04-25T10:56:54.999Z</time></trkpt><trkpt lat="36.54454599549019" lon="-5.2307767387948685"><ele>574.4</ele><time>2026-04-25T10:56:55.999Z</time></trkpt><trkpt lat="36.54461611080162" lon="-5.230861055823312"><ele>576.1999999999999</ele><time>2026-04-25T10:56:56.999Z</time></trkpt><trkpt lat="36.544672169973566" lon="-5.2309565407730965"><ele>578.0</ele><time>2026-04-25T10:56:57.999Z</time></trkpt><trkpt lat="36.54471385020535" lon="-5.231061834535573"><ele>578.0</ele><time>2026-04-25T10:56:58.999Z</time></trkpt><trkpt lat="36.544752895616604" lon="-5.231168882591853"><ele>578.0</ele><time>2026-04-25T10:56:59.999Z</time></trkpt><trkpt lat="36.544801917515215" lon="-5.231272534797291"><ele>578.0</ele><time>2026-04-25T10:57:00.999Z</time></trkpt><trkpt lat="36.54485913983586" lon="-5.231369956935559"><ele>578.0</ele><time>2026-04-25T10:57:01.999Z</time></trkpt><trkpt lat="36.54492038725095" lon="-5.23145567941465"><ele>578.0</ele><time>2026-04-25T10:57:02.999Z</time></trkpt><trkpt lat="36.54498656407346" lon="-5.2315167922654355"><ele>580.6666666666666</ele><time>2026-04-25T10:57:03.999Z</time></trkpt><trkpt lat="36.54505996112714" lon="-5.2315603649000915"><ele>583.3333333333333</ele><time>2026-04-25T10:57:04.999Z</time></trkpt><trkpt lat="36.545138674384624" lon="-5.231574879818626"><ele>586.0</ele><time>2026-04-25T10:57:05.999Z</time></trkpt><trkpt lat="36.545232831510276" lon="-5.231571481595888"><ele>588.6666666666666</ele><time>2026-04-25T10:57:06.999Z</time></trkpt><trkpt lat="36.545312575265804" lon="-5.231584713329037"><ele>591.3333333333334</ele><time>2026-04-25T10:57:07.999Z</time></trkpt><trkpt lat="36.5453821530444" lon="-5.231614746703369"><ele>594.0</ele><time>2026-04-25T10:57:08.999Z</time></trkpt><trkpt lat="36.54543474326926" lon="-5.231670825042305"><ele>594.0</ele><time>2026-04-25T10:57:09.999Z</time></trkpt><trkpt lat="36.54546794416539" lon="-5.2317440365154795"><ele>594.0</ele><time>2026-04-25T10:57:10.999Z</time></trkpt><trkpt lat="36.545489521409664" lon="-5.2318257592392685"><ele>594.0</ele><time>2026-04-25T10:57:11.999Z</time></trkpt><trkpt lat="36.545508796493806" lon="-5.231926770364248"><ele>594.0</ele><time>2026-04-25T10:57:13.999Z</time></trkpt><trkpt lat="36.54555251867649" lon="-5.232036377059086"><ele>594.0</ele><time>2026-04-25T10:57:26.999Z</time></trkpt><trkpt lat="36.54562132259046" lon="-5.232151822642381"><ele>594.0</ele><time>2026-04-25T10:57:28.999Z</time></trkpt><trkpt lat="36.545564474635334" lon="-5.232089362116614"><ele>594.0</ele><time>2026-04-25T10:57:44Z</time></trkpt><trkpt lat="36.545549354319505" lon="-5.232251895433388"><ele>594.0</ele><time>2026-04-25T10:57:48Z</time></trkpt><trkpt lat="36.54555674818327" lon="-5.2324047733045225"><ele>594.0</ele><time>2026-04-25T10:57:50Z</time></trkpt><trkpt lat="36.545540542915795" lon="-5.232553139897085"><ele>594.0</ele><time>2026-04-25T10:57:52Z</time></trkpt><trkpt lat="36.54551894144735" lon="-5.232693105299606"><ele>589.4</ele><time>2026-04-25T10:57:54Z</time></trkpt><trkpt lat="36.54550303679127" lon="-5.2328418309498845"><ele>584.8</ele><time>2026-04-25T10:57:56Z</time></trkpt><trkpt lat="36.545487483073856" lon="-5.232917961015591"><ele>580.2</ele><time>2026-04-25T10:57:57Z</time></trkpt><trkpt lat="36.54546258811166" lon="-5.233072634093496"><ele>575.6</ele><time>2026-04-25T10:57:59Z</time></trkpt><trkpt lat="36.545428124941" lon="-5.233225804825992"><ele>571.0</ele><time>2026-04-25T10:58:01Z</time></trkpt><trkpt lat="36.545404384702316" lon="-5.233305701629962"><ele>564.2857142857143</ele><time>2026-04-25T10:58:02Z</time></trkpt><trkpt lat="36.54537443884316" lon="-5.233379254972642"><ele>557.5714285714286</ele><time>2026-04-25T10:58:03Z</time></trkpt><trkpt lat="36.54534426137057" lon="-5.233452649776527"><ele>550.8571428571429</ele><time>2026-04-25T10:58:04Z</time></trkpt><trkpt lat="36.54531699110451" lon="-5.233528343780369"><ele>544.1428571428571</ele><time>2026-04-25T10:58:05Z</time></trkpt><trkpt lat="36.54529471472272" lon="-5.233605763477133"><ele>537.4285714285714</ele><time>2026-04-25T10:58:06Z</time></trkpt><trkpt lat="36.54528233294149" lon="-5.23369322162328"><ele>530.7142857142858</ele><time>2026-04-25T10:58:07Z</time></trkpt><trkpt lat="36.545295067307045" lon="-5.233781521457337"><ele>524.0</ele><time>2026-04-25T10:58:08Z</time></trkpt><trkpt lat="36.545322701242" lon="-5.233867598395568"><ele>524.0</ele><time>2026-04-25T10:58:09Z</time></trkpt><trkpt lat="36.54535098366848" lon="-5.2339482563018525"><ele>524.0</ele><time>2026-04-25T10:58:10Z</time></trkpt><trkpt lat="36.54536670938322" lon="-5.2340287469970255"><ele>524.0</ele><time>2026-04-25T10:58:11Z</time></trkpt><trkpt lat="36.545368294953825" lon="-5.234111639397071"><ele>524.0</ele><time>2026-04-25T10:58:12Z</time></trkpt><trkpt lat="36.54536563551054" lon="-5.234200751156038"><ele>524.0</ele><time>2026-04-25T10:58:13Z</time></trkpt><trkpt lat="36.54536143896284" lon="-5.234288790484876"><ele>524.0</ele><time>2026-04-25T10:58:14Z</time></trkpt><trkpt lat="36.5453593391223" lon="-5.234378247169537"><ele>524.0</ele><time>2026-04-25T10:58:15Z</time></trkpt><trkpt lat="36.54536822887795" lon="-5.234459931970959"><ele>524.0</ele><time>2026-04-25T10:58:16Z</time></trkpt><trkpt lat="36.54532855564965" lon="-5.23460081042754"><ele>524.0</ele><time>2026-04-25T10:58:18Z</time></trkpt><trkpt lat="36.545278521799325" lon="-5.234667923450322"><ele>524.0</ele><time>2026-04-25T10:58:19Z</time></trkpt><trkpt lat="36.545230140120594" lon="-5.234733380109206"><ele>524.0</ele><time>2026-04-25T10:58:20Z</time></trkpt><trkpt lat="36.545190352625056" lon="-5.234803070479653"><ele>524.0</ele><time>2026-04-25T10:58:21Z</time></trkpt><trkpt lat="36.545151729873126" lon="-5.234871076783453"><ele>524.0</ele><time>2026-04-25T10:58:22Z</time></trkpt><trkpt lat="36.54507439031273" lon="-5.234969470905834"><ele>525.1428571428571</ele><time>2026-04-25T10:58:24Z</time></trkpt><trkpt lat="36.54499927538581" lon="-5.235073207564212"><ele>526.2857142857143</ele><time>2026-04-25T10:58:26Z</time></trkpt><trkpt lat="36.54494813643646" lon="-5.235123137899932"><ele>527.4285714285714</ele><time>2026-04-25T10:58:27Z</time></trkpt><trkpt lat="36.54489126860265" lon="-5.235174994650616"><ele>528.5714285714286</ele><time>2026-04-25T10:58:28Z</time></trkpt><trkpt lat="36.54483731014083" lon="-5.235224270477856"><ele>529.7142857142858</ele><time>2026-04-25T10:58:29Z</time></trkpt><trkpt lat="36.54477915110784" lon="-5.235254988156559"><ele>530.8571428571429</ele><time>2026-04-25T10:58:30Z</time></trkpt><trkpt lat="36.54472941174287" lon="-5.235310044869537"><ele>532.0</ele><time>2026-04-25T10:58:31Z</time></trkpt><trkpt lat="36.5446289325877" lon="-5.235406034355675"><ele>528.5</ele><time>2026-04-25T10:58:33Z</time></trkpt><trkpt lat="36.54454047105994" lon="-5.2355098805118425"><ele>525.0</ele><time>2026-04-25T10:58:34.999Z</time></trkpt><trkpt lat="36.54447172610446" lon="-5.235599062874492"><ele>521.5</ele><time>2026-04-25T10:58:36.999Z</time></trkpt><trkpt lat="36.5444106461519" lon="-5.235672326758018"><ele>518.0</ele><time>2026-04-25T10:58:38.999Z</time></trkpt><trkpt lat="36.54436001660316" lon="-5.235728997521683"><ele>514.5</ele><time>2026-04-25T10:58:51.999Z</time></trkpt><trkpt lat="36.54435567550552" lon="-5.235821239464478"><ele>511.0</ele><time>2026-04-25T10:59:07.999Z</time></trkpt><trkpt lat="36.54435288736644" lon="-5.235739912120426"><ele>511.0</ele><time>2026-04-25T11:00:19Z</time></trkpt><trkpt lat="36.54439868997939" lon="-5.235681982181366"><ele>511.0</ele><time>2026-04-25T11:00:21Z</time></trkpt><trkpt lat="36.544467727740596" lon="-5.23559455498457"><ele>511.0</ele><time>2026-04-25T11:00:23Z</time></trkpt><trkpt lat="36.54455218086932" lon="-5.235496054481594"><ele>511.0</ele><time>2026-04-25T11:00:25Z</time></trkpt><trkpt lat="36.54464536882055" lon="-5.2354064736927475"><ele>511.0</ele><time>2026-04-25T11:00:27Z</time></trkpt><trkpt lat="36.544726664183216" lon="-5.235322240760711"><ele>514.5</ele><time>2026-04-25T11:00:29Z</time></trkpt><trkpt lat="36.5447927554898" lon="-5.235265277551721"><ele>518.0</ele><time>2026-04-25T11:00:31Z</time></trkpt><trkpt lat="36.544890104238206" lon="-5.235172623682913"><ele>521.5</ele><time>2026-04-25T11:00:33Z</time></trkpt><trkpt lat="36.54495547748703" lon="-5.23511040319469"><ele>525.0</ele><time>2026-04-25T11:00:35Z</time></trkpt><trkpt lat="36.544886611879754" lon="-5.23517924725963"><ele>528.5</ele><time>2026-04-25T11:01:08.999Z</time></trkpt><trkpt lat="36.54482760140084" lon="-5.235233136673295"><ele>532.0</ele><time>2026-04-25T11:01:10.999Z</time></trkpt><trkpt lat="36.54476060690123" lon="-5.235284211382296"><ele>532.0</ele><time>2026-04-25T11:01:12.999Z</time></trkpt><trkpt lat="36.5446926569379" lon="-5.235360548558667"><ele>532.0</ele><time>2026-04-25T11:01:14.999Z</time></trkpt><trkpt lat="36.544605655304515" lon="-5.235430848391212"><ele>532.0</ele><time>2026-04-25T11:01:16.999Z</time></trkpt><trkpt lat="36.54454100444448" lon="-5.235510789738316"><ele>532.0</ele><time>2026-04-25T11:01:18.999Z</time></trkpt><trkpt lat="36.544495550052254" lon="-5.235574745259833"><ele>532.0</ele><time>2026-04-25T11:01:21.999Z</time></trkpt><trkpt lat="36.54445669423291" lon="-5.235438274923113"><ele>529.0</ele><time>2026-04-25T11:01:24.999Z</time></trkpt><trkpt lat="36.54447858779307" lon="-5.235353351375776"><ele>526.0</ele><time>2026-04-25T11:01:29.999Z</time></trkpt><trkpt lat="36.544470507494566" lon="-5.235433326521057"><ele>523.0</ele><time>2026-04-25T11:04:30Z</time></trkpt><trkpt lat="36.544426231290714" lon="-5.235505022920636"><ele>520.0</ele><time>2026-04-25T11:04:36Z</time></trkpt><trkpt lat="36.54442892698724" lon="-5.235590967504714"><ele>517.0</ele><time>2026-04-25T11:04:42Z</time></trkpt><trkpt lat="36.544401592103746" lon="-5.235662870923779"><ele>514.0</ele><time>2026-04-25T11:04:47Z</time></trkpt><trkpt lat="36.54435369979138" lon="-5.235726831350234"><ele>511.0</ele><time>2026-04-25T11:04:52.999Z</time></trkpt><trkpt lat="36.54432396499135" lon="-5.235804780034203"><ele>511.0</ele><time>2026-04-25T11:04:57.999Z</time></trkpt><trkpt lat="36.544298341981275" lon="-5.235881489412222"><ele>511.0</ele><time>2026-04-25T11:05:03.999Z</time></trkpt><trkpt lat="36.54433733112755" lon="-5.235958438917761"><ele>511.0</ele><time>2026-04-25T11:05:08.999Z</time></trkpt><trkpt lat="36.544407532744664" lon="-5.23597598494334"><ele>511.0</ele><time>2026-04-25T11:05:14.999Z</time></trkpt><trkpt lat="36.54447246087593" lon="-5.235958433041864"><ele>511.0</ele><time>2026-04-25T11:05:23.999Z</time></trkpt><trkpt lat="36.54453109490003" lon="-5.235990223166685"><ele>511.0</ele><time>2026-04-25T11:05:29.999Z</time></trkpt><trkpt lat="36.544590321882545" lon="-5.236041188881132"><ele>511.0</ele><time>2026-04-25T11:05:34.999Z</time></trkpt><trkpt lat="36.54464309211467" lon="-5.236088845615964"><ele>513.1428571428571</ele><time>2026-04-25T11:05:52.999Z</time></trkpt><trkpt lat="36.54470085814632" lon="-5.236131282424724"><ele>515.2857142857142</ele><time>2026-04-25T11:05:57.998Z</time></trkpt><trkpt lat="36.54475873517299" lon="-5.236173761482194"><ele>517.4285714285714</ele><time>2026-04-25T11:06:05Z</time></trkpt><trkpt lat="36.54481800704331" lon="-5.23622314024121"><ele>519.5714285714286</ele><time>2026-04-25T11:06:13Z</time></trkpt><trkpt lat="36.54484921758189" lon="-5.236293777167953"><ele>521.7142857142857</ele><time>2026-04-25T11:06:25Z</time></trkpt><trkpt lat="36.544863802624604" lon="-5.236211604521652"><ele>523.8571428571429</ele><time>2026-04-25T11:06:47Z</time></trkpt><trkpt lat="36.54492689367154" lon="-5.236178863963331"><ele>526.0</ele><time>2026-04-25T11:06:56.999Z</time></trkpt><trkpt lat="36.545025103456645" lon="-5.2361907064589674"><ele>526.0</ele><time>2026-04-25T11:07:00.999Z</time></trkpt><trkpt lat="36.545089928288576" lon="-5.236213966182955"><ele>526.0</ele><time>2026-04-25T11:07:07.999Z</time></trkpt><trkpt lat="36.545173197075805" lon="-5.236233546632851"><ele>526.0</ele><time>2026-04-25T11:07:15.999Z</time></trkpt><trkpt lat="36.545113454638965" lon="-5.236272033770295"><ele>526.0</ele><time>2026-04-25T11:08:00.998Z</time></trkpt><trkpt lat="36.54505217213159" lon="-5.236247065381944"><ele>526.0</ele><time>2026-04-25T11:08:07Z</time></trkpt><trkpt lat="36.54499129658138" lon="-5.236207213507711"><ele>526.0</ele><time>2026-04-25T11:08:10Z</time></trkpt><trkpt lat="36.544929218768765" lon="-5.236185959407852"><ele>526.0</ele><time>2026-04-25T11:08:15Z</time></trkpt><trkpt lat="36.54486769798005" lon="-5.236221946473912"><ele>526.0</ele><time>2026-04-25T11:08:22Z</time></trkpt><trkpt lat="36.54480980187137" lon="-5.236184798901255"><ele>526.0</ele><time>2026-04-25T11:08:40Z</time></trkpt><trkpt lat="36.544748904719384" lon="-5.236211731813807"><ele>526.0</ele><time>2026-04-25T11:08:43Z</time></trkpt><trkpt lat="36.54467712128874" lon="-5.236228009872573"><ele>526.0</ele><time>2026-04-25T11:08:46Z</time></trkpt><trkpt lat="36.544615695699235" lon="-5.2362539487655475"><ele>526.0</ele><time>2026-04-25T11:08:52Z</time></trkpt><trkpt lat="36.544592076836636" lon="-5.236333029158663"><ele>526.0</ele><time>2026-04-25T11:08:57Z</time></trkpt><trkpt lat="36.5445262095622" lon="-5.2363592383306825"><ele>526.0</ele><time>2026-04-25T11:09:08.999Z</time></trkpt><trkpt lat="36.544437071174" lon="-5.236399797307226"><ele>523.8571428571429</ele><time>2026-04-25T11:10:42Z</time></trkpt><trkpt lat="36.54446491571826" lon="-5.236322431568622"><ele>521.7142857142857</ele><time>2026-04-25T11:51:40.999Z</time></trkpt><trkpt lat="36.54440725931223" lon="-5.236363712287705"><ele>519.5714285714286</ele><time>2026-04-25T11:52:00.999Z</time></trkpt><trkpt lat="36.54433196554665" lon="-5.236350002484394"><ele>517.4285714285714</ele><time>2026-04-25T11:52:07.999Z</time></trkpt><trkpt lat="36.54426663356056" lon="-5.236343500243866"><ele>515.2857142857142</ele><time>2026-04-25T11:52:14Z</time></trkpt><trkpt lat="36.5441919452329" lon="-5.236325083197435"><ele>513.1428571428571</ele><time>2026-04-25T11:52:20Z</time></trkpt><trkpt lat="36.544128145329154" lon="-5.236328753227837"><ele>511.0</ele><time>2026-04-25T11:52:25Z</time></trkpt><trkpt lat="36.54406002459629" lon="-5.236313207225154"><ele>511.0</ele><time>2026-04-25T11:52:31Z</time></trkpt><trkpt lat="36.54400579249039" lon="-5.2362562815228495"><ele>511.0</ele><time>2026-04-25T11:52:37Z</time></trkpt><trkpt lat="36.54395399306173" lon="-5.2361922632592774"><ele>511.0</ele><time>2026-04-25T11:52:44Z</time></trkpt><trkpt lat="36.543903491910804" lon="-5.236127595765305"><ele>511.0</ele><time>2026-04-25T11:52:50Z</time></trkpt><trkpt lat="36.54385296713883" lon="-5.23607264239636"><ele>511.0</ele><time>2026-04-25T11:52:55Z</time></trkpt><trkpt lat="36.54383410725136" lon="-5.235996217382052"><ele>511.0</ele><time>2026-04-25T11:53:01Z</time></trkpt><trkpt lat="36.54385359750175" lon="-5.235902751948494"><ele>511.0</ele><time>2026-04-25T11:53:07Z</time></trkpt><trkpt lat="36.54389845798983" lon="-5.235835838518194"><ele>511.0</ele><time>2026-04-25T11:53:13Z</time></trkpt><trkpt lat="36.54395093036897" lon="-5.235787871048988"><ele>511.0</ele><time>2026-04-25T11:53:17.999Z</time></trkpt><trkpt lat="36.54400946226633" lon="-5.2357581650421565"><ele>511.0</ele><time>2026-04-25T11:53:24.999Z</time></trkpt><trkpt lat="36.54407440035298" lon="-5.235720474892894"><ele>511.0</ele><time>2026-04-25T11:53:32.999Z</time></trkpt><trkpt lat="36.544135286296296" lon="-5.235686413441804"><ele>511.0</ele><time>2026-04-25T11:53:38.999Z</time></trkpt><trkpt lat="36.54420302215502" lon="-5.235659879828845"><ele>511.0</ele><time>2026-04-25T11:53:45.999Z</time></trkpt><trkpt lat="36.54426147210169" lon="-5.235625533166418"><ele>511.0</ele><time>2026-04-25T11:53:52.999Z</time></trkpt><trkpt lat="36.54431743670671" lon="-5.235579525552082"><ele>511.0</ele><time>2026-04-25T11:53:58.999Z</time></trkpt><trkpt lat="36.54435166138554" lon="-5.235649397624363"><ele>511.0</ele><time>2026-04-25T11:54:11.999Z</time></trkpt><trkpt lat="36.544409526240024" lon="-5.2355983086905225"><ele>511.0</ele><time>2026-04-25T11:54:29Z</time></trkpt><trkpt lat="36.544437093478535" lon="-5.235523582556871"><ele>511.0</ele><time>2026-04-25T11:54:35Z</time></trkpt><trkpt lat="36.54446933797107" lon="-5.235448980389958"><ele>511.0</ele><time>2026-04-25T11:54:41Z</time></trkpt><trkpt lat="36.54453039099708" lon="-5.235399640239741"><ele>511.0</ele><time>2026-04-25T11:54:47Z</time></trkpt><trkpt lat="36.5445683812686" lon="-5.235330815913899"><ele>511.0</ele><time>2026-04-25T11:55:04Z</time></trkpt><trkpt lat="36.54462885856954" lon="-5.235298583710054"><ele>508.83333333333337</ele><time>2026-04-25T11:55:33.999Z</time></trkpt><trkpt lat="36.544569045611595" lon="-5.235329522916102"><ele>506.6666666666667</ele><time>2026-04-25T11:55:39.999Z</time></trkpt><trkpt lat="36.54450417120112" lon="-5.235402256848142"><ele>504.5</ele><time>2026-04-25T11:58:25.999Z</time></trkpt><trkpt lat="36.54444425870624" lon="-5.2355003728627185"><ele>502.33333333333337</ele><time>2026-04-25T11:58:27.999Z</time></trkpt><trkpt lat="36.544499642170116" lon="-5.235563780262003"><ele>500.1666666666667</ele><time>2026-04-25T11:58:31Z</time></trkpt><trkpt lat="36.54455640508145" lon="-5.235492731135739"><ele>498.0</ele><time>2026-04-25T11:58:33Z</time></trkpt><trkpt lat="36.54464290638512" lon="-5.235409651219663"><ele>503.6666666666667</ele><time>2026-04-25T11:58:35Z</time></trkpt><trkpt lat="36.54469349000556" lon="-5.2353475530607225"><ele>509.33333333333337</ele><time>2026-04-25T11:58:36Z</time></trkpt><trkpt lat="36.54478795718994" lon="-5.235256012992591"><ele>515.0</ele><time>2026-04-25T11:58:38Z</time></trkpt><trkpt lat="36.54483438509311" lon="-5.235194265938619"><ele>520.6666666666667</ele><time>2026-04-25T11:58:39Z</time></trkpt><trkpt lat="36.54488970235515" lon="-5.235137441128196"><ele>526.3333333333334</ele><time>2026-04-25T11:58:40Z</time></trkpt><trkpt lat="36.544946081032705" lon="-5.235085380577795"><ele>532.0</ele><time>2026-04-25T11:58:41Z</time></trkpt><trkpt lat="36.545031402961556" lon="-5.234979199801224"><ele>532.0</ele><time>2026-04-25T11:58:43Z</time></trkpt><trkpt lat="36.545105922857324" lon="-5.234870761486399"><ele>532.0</ele><time>2026-04-25T11:58:45Z</time></trkpt><trkpt lat="36.54518914350077" lon="-5.234760586477642"><ele>532.0</ele><time>2026-04-25T11:58:47Z</time></trkpt><trkpt lat="36.545231511043575" lon="-5.234701057575774"><ele>532.0</ele><time>2026-04-25T11:58:48Z</time></trkpt><trkpt lat="36.545267271754135" lon="-5.234630380265873"><ele>532.0</ele><time>2026-04-25T11:58:49Z</time></trkpt><trkpt lat="36.54532877433899" lon="-5.234496064643472"><ele>530.6666666666667</ele><time>2026-04-25T11:58:51Z</time></trkpt><trkpt lat="36.54531054296424" lon="-5.2343640632049"><ele>529.3333333333334</ele><time>2026-04-25T11:58:53Z</time></trkpt><trkpt lat="36.5453149107741" lon="-5.234275655532129"><ele>528.0</ele><time>2026-04-25T11:58:54Z</time></trkpt><trkpt lat="36.54531957304701" lon="-5.234181287690267"><ele>526.6666666666666</ele><time>2026-04-25T11:58:55Z</time></trkpt><trkpt lat="36.54532203753906" lon="-5.23407931866823"><ele>525.3333333333333</ele><time>2026-04-25T11:58:56Z</time></trkpt><trkpt lat="36.545314912876364" lon="-5.233981981425977"><ele>524.0</ele><time>2026-04-25T11:58:57Z</time></trkpt><trkpt lat="36.545290908442766" lon="-5.233887483448301"><ele>524.0</ele><time>2026-04-25T11:58:58Z</time></trkpt><trkpt lat="36.54524272415199" lon="-5.233808480163722"><ele>524.0</ele><time>2026-04-25T11:58:59Z</time></trkpt><trkpt lat="36.54523024128183" lon="-5.233702743369042"><ele>524.0</ele><time>2026-04-25T11:59:00Z</time></trkpt><trkpt lat="36.5452640621402" lon="-5.2335964315473"><ele>524.0</ele><time>2026-04-25T11:59:01Z</time></trkpt><trkpt lat="36.545294934253135" lon="-5.233487281604854"><ele>524.0</ele><time>2026-04-25T11:59:02Z</time></trkpt><trkpt lat="36.5453449860952" lon="-5.233388338650739"><ele>524.0</ele><time>2026-04-25T11:59:03Z</time></trkpt><trkpt lat="36.54539827934236" lon="-5.233273836759519"><ele>535.25</ele><time>2026-04-25T11:59:04Z</time></trkpt><trkpt lat="36.54543251846413" lon="-5.233143476841934"><ele>546.5</ele><time>2026-04-25T11:59:05Z</time></trkpt><trkpt lat="36.5454297524001" lon="-5.232997261096931"><ele>557.75</ele><time>2026-04-25T11:59:06Z</time></trkpt><trkpt lat="36.54545263933527" lon="-5.232858121214382"><ele>569.0</ele><time>2026-04-25T11:59:07Z</time></trkpt><trkpt lat="36.545470100527936" lon="-5.2327141951680805"><ele>569.4</ele><time>2026-04-25T11:59:08Z</time></trkpt><trkpt lat="36.54548596821244" lon="-5.232583998210192"><ele>569.8</ele><time>2026-04-25T11:59:09Z</time></trkpt><trkpt lat="36.54551952046302" lon="-5.232473349582233"><ele>570.2</ele><time>2026-04-25T11:59:10Z</time></trkpt><trkpt lat="36.54552967992552" lon="-5.232362205508574"><ele>570.6</ele><time>2026-04-25T11:59:11Z</time></trkpt><trkpt lat="36.54553723190707" lon="-5.2322534239752"><ele>571.0</ele><time>2026-04-25T11:59:12Z</time></trkpt><trkpt lat="36.545477673115634" lon="-5.232174866483458"><ele>571.0</ele><time>2026-04-25T11:59:12.999Z</time></trkpt><trkpt lat="36.54546977604102" lon="-5.232061858919486"><ele>571.0</ele><time>2026-04-25T11:59:14.999Z</time></trkpt><trkpt lat="36.5455907578642" lon="-5.232099585982668"><ele>571.0</ele><time>2026-04-25T11:59:38.999Z</time></trkpt><trkpt lat="36.545652108828364" lon="-5.2322152241871915"><ele>571.0</ele><time>2026-04-25T11:59:40.999Z</time></trkpt><trkpt lat="36.54568207244774" lon="-5.232353803828713"><ele>571.0</ele><time>2026-04-25T11:59:42.999Z</time></trkpt><trkpt lat="36.545679106106384" lon="-5.232438277028014"><ele>571.0</ele><time>2026-04-25T11:59:43.999Z</time></trkpt><trkpt lat="36.54567476403362" lon="-5.232522917153454"><ele>571.0</ele><time>2026-04-25T11:59:44.999Z</time></trkpt><trkpt lat="36.545667768855004" lon="-5.2326141237555275"><ele>571.0</ele><time>2026-04-25T11:59:45.999Z</time></trkpt><trkpt lat="36.545663009398105" lon="-5.232714991910541"><ele>571.0</ele><time>2026-04-25T11:59:46.999Z</time></trkpt><trkpt lat="36.545670192776505" lon="-5.232807252105445"><ele>571.0</ele><time>2026-04-25T11:59:47.999Z</time></trkpt><trkpt lat="36.545674597962126" lon="-5.232899979786221"><ele>571.0</ele><time>2026-04-25T11:59:48.999Z</time></trkpt><trkpt lat="36.54568051020595" lon="-5.232995706066503"><ele>571.0</ele><time>2026-04-25T11:59:49.999Z</time></trkpt><trkpt lat="36.54569137995255" lon="-5.23309580326004"><ele>570.6666666666667</ele><time>2026-04-25T11:59:50.999Z</time></trkpt><trkpt lat="36.545700049111645" lon="-5.233199514701671"><ele>570.3333333333334</ele><time>2026-04-25T11:59:51.999Z</time></trkpt><trkpt lat="36.54570301612458" lon="-5.2333021186210615"><ele>570.0</ele><time>2026-04-25T11:59:52.999Z</time></trkpt><trkpt lat="36.54570406355259" lon="-5.233392634818687"><ele>569.6666666666666</ele><time>2026-04-25T11:59:53.999Z</time></trkpt><trkpt lat="36.54571810905784" lon="-5.2334821591819285"><ele>569.3333333333333</ele><time>2026-04-25T11:59:54.999Z</time></trkpt><trkpt lat="36.54570441433385" lon="-5.233590476406656"><ele>569.0</ele><time>2026-04-25T11:59:55.999Z</time></trkpt><trkpt lat="36.545722119244274" lon="-5.233696877778336"><ele>569.0</ele><time>2026-04-25T11:59:56.999Z</time></trkpt><trkpt lat="36.545746618494206" lon="-5.233800123491565"><ele>569.0</ele><time>2026-04-25T11:59:57.999Z</time></trkpt><trkpt lat="36.54578100139139" lon="-5.233867330307784"><ele>569.0</ele><time>2026-04-25T11:59:58.999Z</time></trkpt><trkpt lat="36.54579156016161" lon="-5.233962984748217"><ele>569.0</ele><time>2026-04-25T11:59:59.999Z</time></trkpt><trkpt lat="36.545793767842234" lon="-5.234058167917503"><ele>569.0</ele><time>2026-04-25T12:00:00.999Z</time></trkpt><trkpt lat="36.54578031240344" lon="-5.234148949641502"><ele>569.0</ele><time>2026-04-25T12:00:01.999Z</time></trkpt><trkpt lat="36.54575781281627" lon="-5.234246761336813"><ele>568.0</ele><time>2026-04-25T12:00:02.999Z</time></trkpt><trkpt lat="36.54573257897355" lon="-5.234347578954059"><ele>567.0</ele><time>2026-04-25T12:00:03.999Z</time></trkpt><trkpt lat="36.54570780989517" lon="-5.23444103459858"><ele>566.0</ele><time>2026-04-25T12:00:04.999Z</time></trkpt><trkpt lat="36.54568125740189" lon="-5.2345262508381385"><ele>565.0</ele><time>2026-04-25T12:00:05.999Z</time></trkpt><trkpt lat="36.545661160963924" lon="-5.234603938370462"><ele>564.0</ele><time>2026-04-25T12:00:06.999Z</time></trkpt><trkpt lat="36.54566827414143" lon="-5.2347485473044575"><ele>563.0</ele><time>2026-04-25T12:00:08.999Z</time></trkpt><trkpt lat="36.54570320591439" lon="-5.234819301840111"><ele>562.1666666666666</ele><time>2026-04-25T12:00:09.999Z</time></trkpt><trkpt lat="36.54573405084663" lon="-5.234897406948279"><ele>561.3333333333333</ele><time>2026-04-25T12:00:10.999Z</time></trkpt><trkpt lat="36.54575370458655" lon="-5.234989448035943"><ele>560.5</ele><time>2026-04-25T12:00:11.999Z</time></trkpt><trkpt lat="36.5457590081293" lon="-5.235087207964989"><ele>559.6666666666666</ele><time>2026-04-25T12:00:12.999Z</time></trkpt><trkpt lat="36.545770917482464" lon="-5.235188172897672"><ele>558.8333333333334</ele><time>2026-04-25T12:00:13.999Z</time></trkpt><trkpt lat="36.54578491921653" lon="-5.2352906586259795"><ele>558.0</ele><time>2026-04-25T12:00:14.999Z</time></trkpt><trkpt lat="36.54581467704271" lon="-5.235394432236462"><ele>558.0</ele><time>2026-04-25T12:00:15.999Z</time></trkpt><trkpt lat="36.545849366981706" lon="-5.235499003690228"><ele>558.0</ele><time>2026-04-25T12:00:16.999Z</time></trkpt><trkpt lat="36.54587125572149" lon="-5.2355981282380455"><ele>558.0</ele><time>2026-04-25T12:00:17.999Z</time></trkpt><trkpt lat="36.545894915897435" lon="-5.2356836474311965"><ele>558.0</ele><time>2026-04-25T12:00:18.999Z</time></trkpt><trkpt lat="36.54592469733589" lon="-5.2357553679387046"><ele>558.0</ele><time>2026-04-25T12:00:19.999Z</time></trkpt><trkpt lat="36.5459590798861" lon="-5.235823892450161"><ele>558.0</ele><time>2026-04-25T12:00:20.999Z</time></trkpt><trkpt lat="36.54605547836094" lon="-5.235920027089964"><ele>556.8571428571428</ele><time>2026-04-25T12:00:22.999Z</time></trkpt><trkpt lat="36.54611837011039" lon="-5.2359441594186436"><ele>555.7142857142857</ele><time>2026-04-25T12:00:23.999Z</time></trkpt><trkpt lat="36.54618849547338" lon="-5.235954253141573"><ele>554.5714285714286</ele><time>2026-04-25T12:00:24.998Z</time></trkpt><trkpt lat="36.54626521568321" lon="-5.235960538109924"><ele>553.4285714285713</ele><time>2026-04-25T12:00:25.998Z</time></trkpt><trkpt lat="36.546347099991145" lon="-5.2359680766506935"><ele>552.2857142857142</ele><time>2026-04-25T12:00:26.998Z</time></trkpt><trkpt lat="36.54642050016668" lon="-5.235976405161454"><ele>551.1428571428571</ele><time>2026-04-25T12:00:27.998Z</time></trkpt><trkpt lat="36.546488136464546" lon="-5.235987892194461"><ele>550.0</ele><time>2026-04-25T12:00:28.998Z</time></trkpt><trkpt lat="36.54655514299527" lon="-5.235992319197013"><ele>550.0</ele><time>2026-04-25T12:00:29.998Z</time></trkpt><trkpt lat="36.546619528853206" lon="-5.2360011696762445"><ele>550.0</ele><time>2026-04-25T12:00:30.998Z</time></trkpt><trkpt lat="36.5466787219028" lon="-5.236033636176039"><ele>550.0</ele><time>2026-04-25T12:00:31.998Z</time></trkpt><trkpt lat="36.546726426275505" lon="-5.236087312841779"><ele>550.0</ele><time>2026-04-25T12:00:32.998Z</time></trkpt><trkpt lat="36.546758360508356" lon="-5.2361570402372255"><ele>550.0</ele><time>2026-04-25T12:00:33.998Z</time></trkpt><trkpt lat="36.54677959969277" lon="-5.236240802109491"><ele>550.0</ele><time>2026-04-25T12:00:34.998Z</time></trkpt><trkpt lat="36.54680376861987" lon="-5.236322631245463"><ele>550.0</ele><time>2026-04-25T12:00:35.999Z</time></trkpt><trkpt lat="36.54684610604354" lon="-5.236391537200424"><ele>550.0</ele><time>2026-04-25T12:00:36.999Z</time></trkpt><trkpt lat="36.546905873211855" lon="-5.236441163443839"><ele>550.0</ele><time>2026-04-25T12:00:37.999Z</time></trkpt><trkpt lat="36.54696962238657" lon="-5.236479848912688"><ele>550.0</ele><time>2026-04-25T12:00:38.999Z</time></trkpt><trkpt lat="36.547024182556" lon="-5.236522801132051"><ele>550.0</ele><time>2026-04-25T12:00:39.999Z</time></trkpt><trkpt lat="36.547079912212425" lon="-5.236651729454616"><ele>550.0</ele><time>2026-04-25T12:00:41.999Z</time></trkpt><trkpt lat="36.54707772694962" lon="-5.236741108592692"><ele>550.0</ele><time>2026-04-25T12:00:42.999Z</time></trkpt><trkpt lat="36.54706022739968" lon="-5.236832214458009"><ele>546.1666666666667</ele><time>2026-04-25T12:00:43.999Z</time></trkpt><trkpt lat="36.547040693976015" lon="-5.2369322029505145"><ele>542.3333333333334</ele><time>2026-04-25T12:00:44.999Z</time></trkpt><trkpt lat="36.547020053419125" lon="-5.237034974268062"><ele>538.5</ele><time>2026-04-25T12:00:45.999Z</time></trkpt><trkpt lat="36.546993119855365" lon="-5.237130963242675"><ele>534.6666666666666</ele><time>2026-04-25T12:00:46.999Z</time></trkpt><trkpt lat="36.54698042004465" lon="-5.237217018745121"><ele>530.8333333333333</ele><time>2026-04-25T12:00:47.999Z</time></trkpt><trkpt lat="36.546920875344064" lon="-5.237285260110276"><ele>527.0</ele><time>2026-04-25T12:00:48.999Z</time></trkpt><trkpt lat="36.546849634600456" lon="-5.237347174709719"><ele>527.0</ele><time>2026-04-25T12:00:49.999Z</time></trkpt><trkpt lat="36.546770794238334" lon="-5.237400619542636"><ele>527.0</ele><time>2026-04-25T12:00:50.999Z</time></trkpt><trkpt lat="36.54670337702346" lon="-5.237459080998379"><ele>527.0</ele><time>2026-04-25T12:00:51.999Z</time></trkpt><trkpt lat="36.5466501075886" lon="-5.237541301826862"><ele>527.0</ele><time>2026-04-25T12:00:52.999Z</time></trkpt><trkpt lat="36.54659911617929" lon="-5.237628479575333"><ele>527.0</ele><time>2026-04-25T12:00:53.999Z</time></trkpt><trkpt lat="36.54657293649822" lon="-5.237739799099885"><ele>527.0</ele><time>2026-04-25T12:00:54.999Z</time></trkpt><trkpt lat="36.54652793725769" lon="-5.237848549192652"><ele>527.0</ele><time>2026-04-25T12:00:55.999Z</time></trkpt><trkpt lat="36.54649957867659" lon="-5.23796447113657"><ele>527.0</ele><time>2026-04-25T12:00:56.999Z</time></trkpt><trkpt lat="36.54646977146585" lon="-5.238075208619566"><ele>527.0</ele><time>2026-04-25T12:00:57.999Z</time></trkpt><trkpt lat="36.546442173742236" lon="-5.238188605115217"><ele>527.0</ele><time>2026-04-25T12:00:58.999Z</time></trkpt><trkpt lat="36.54635979627927" lon="-5.238263958146089"><ele>527.0</ele><time>2026-04-25T12:00:59.999Z</time></trkpt><trkpt lat="36.546299743422644" lon="-5.2383391013361935"><ele>529.8000000000001</ele><time>2026-04-25T12:01:00.999Z</time></trkpt><trkpt lat="36.54624029982235" lon="-5.238427465759982"><ele>532.6</ele><time>2026-04-25T12:01:01.999Z</time></trkpt><trkpt lat="36.546204256900516" lon="-5.238531429488847"><ele>535.4000000000001</ele><time>2026-04-25T12:01:02.999Z</time></trkpt><trkpt lat="36.546217932217026" lon="-5.238647902150003"><ele>538.2</ele><time>2026-04-25T12:01:03.999Z</time></trkpt><trkpt lat="36.54621609603932" lon="-5.238770142393328"><ele>541.0</ele><time>2026-04-25T12:01:04.999Z</time></trkpt><trkpt lat="36.54622227425735" lon="-5.238898140261432"><ele>538.6</ele><time>2026-04-25T12:01:05.999Z</time></trkpt><trkpt lat="36.546211636574" lon="-5.239026291144345"><ele>536.2</ele><time>2026-04-25T12:01:06.999Z</time></trkpt><trkpt lat="36.546195310835806" lon="-5.239148050950704"><ele>533.8</ele><time>2026-04-25T12:01:07.999Z</time></trkpt><trkpt lat="36.54618130771414" lon="-5.239261703284208"><ele>531.4</ele><time>2026-04-25T12:01:08.999Z</time></trkpt><trkpt lat="36.54616686277416" lon="-5.2393683183049164"><ele>529.0</ele><time>2026-04-25T12:01:09.999Z</time></trkpt><trkpt lat="36.546166650347296" lon="-5.239458960664021"><ele>529.0</ele><time>2026-04-25T12:01:10.999Z</time></trkpt><trkpt lat="36.54618128045806" lon="-5.23954487672969"><ele>529.0</ele><time>2026-04-25T12:01:11.999Z</time></trkpt><trkpt lat="36.54623223722583" lon="-5.2396209589189615"><ele>529.0</ele><time>2026-04-25T12:01:12.999Z</time></trkpt><trkpt lat="36.54631057705099" lon="-5.239670683349768"><ele>529.0</ele><time>2026-04-25T12:01:13.999Z</time></trkpt><trkpt lat="36.54639275328024" lon="-5.239693501477261"><ele>529.0</ele><time>2026-04-25T12:01:14.999Z</time></trkpt><trkpt lat="36.546480842077095" lon="-5.2396830036747994"><ele>529.0</ele><time>2026-04-25T12:01:15.999Z</time></trkpt><trkpt lat="36.5465711189182" lon="-5.239636112520887"><ele>529.0</ele><time>2026-04-25T12:01:16.999Z</time></trkpt><trkpt lat="36.54665466751726" lon="-5.239614688083951"><ele>529.0</ele><time>2026-04-25T12:01:17.999Z</time></trkpt><trkpt lat="36.54672821786935" lon="-5.2396281115699885"><ele>529.0</ele><time>2026-04-25T12:01:18.999Z</time></trkpt><trkpt lat="36.546813946731305" lon="-5.239643528113646"><ele>529.0</ele><time>2026-04-25T12:01:19.999Z</time></trkpt><trkpt lat="36.54691243683813" lon="-5.239683945383829"><ele>529.0</ele><time>2026-04-25T12:01:20.999Z</time></trkpt><trkpt lat="36.54701329071358" lon="-5.239731403522899"><ele>527.8333333333334</ele><time>2026-04-25T12:01:21.999Z</time></trkpt><trkpt lat="36.54709498156868" lon="-5.239761759937655"><ele>526.6666666666667</ele><time>2026-04-25T12:01:22.999Z</time></trkpt><trkpt lat="36.54716146092866" lon="-5.239804042190698"><ele>525.5</ele><time>2026-04-25T12:01:23.999Z</time></trkpt><trkpt lat="36.54720807769921" lon="-5.239866521846774"><ele>524.3333333333334</ele><time>2026-04-25T12:01:24.999Z</time></trkpt><trkpt lat="36.54721429260848" lon="-5.239964895081567"><ele>523.1666666666666</ele><time>2026-04-25T12:01:25.999Z</time></trkpt><trkpt lat="36.54719294504981" lon="-5.240085100699232"><ele>522.0</ele><time>2026-04-25T12:01:26.999Z</time></trkpt><trkpt lat="36.54715405846688" lon="-5.240200049914394"><ele>522.0</ele><time>2026-04-25T12:01:27.999Z</time></trkpt><trkpt lat="36.547140467243615" lon="-5.240306748883543"><ele>522.0</ele><time>2026-04-25T12:01:28.999Z</time></trkpt><trkpt lat="36.54716742675013" lon="-5.240398181111541"><ele>522.0</ele><time>2026-04-25T12:01:29.999Z</time></trkpt><trkpt lat="36.54723071345292" lon="-5.240465746080916"><ele>522.0</ele><time>2026-04-25T12:01:30.999Z</time></trkpt><trkpt lat="36.54731666674723" lon="-5.240491807698144"><ele>522.0</ele><time>2026-04-25T12:01:31.999Z</time></trkpt><trkpt lat="36.5474170701707" lon="-5.240476264966039"><ele>522.0</ele><time>2026-04-25T12:01:32.999Z</time></trkpt><trkpt lat="36.54752313340286" lon="-5.2404685963243125"><ele>522.0</ele><time>2026-04-25T12:01:33.999Z</time></trkpt><trkpt lat="36.547626514104124" lon="-5.240485435947746"><ele>522.0</ele><time>2026-04-25T12:01:34.999Z</time></trkpt><trkpt lat="36.547723589277076" lon="-5.2404957986756076"><ele>522.0</ele><time>2026-04-25T12:01:35.999Z</time></trkpt><trkpt lat="36.54779474440867" lon="-5.240532333686884"><ele>522.0</ele><time>2026-04-25T12:01:36.999Z</time></trkpt><trkpt lat="36.54789785516298" lon="-5.240599082108415"><ele>522.0</ele><time>2026-04-25T12:01:38.999Z</time></trkpt><trkpt lat="36.5479848500432" lon="-5.240679132162884"><ele>519.8333333333334</ele><time>2026-04-25T12:01:40.999Z</time></trkpt><trkpt lat="36.548062681717454" lon="-5.240756575884539"><ele>517.6666666666666</ele><time>2026-04-25T12:01:42.999Z</time></trkpt><trkpt lat="36.54813706234342" lon="-5.240830585727217"><ele>515.5</ele><time>2026-04-25T12:01:44.999Z</time></trkpt><trkpt lat="36.548195565269076" lon="-5.240890774497779"><ele>513.3333333333333</ele><time>2026-04-25T12:01:46.999Z</time></trkpt><trkpt lat="36.548256426704896" lon="-5.240970503750326"><ele>511.16666666666663</ele><time>2026-04-25T12:01:48.999Z</time></trkpt><trkpt lat="36.54831548030256" lon="-5.241002657384912"><ele>509.0</ele><time>2026-04-25T12:01:49.999Z</time></trkpt><trkpt lat="36.54836013621298" lon="-5.241073973386381"><ele>509.0</ele><time>2026-04-25T12:01:50.999Z</time></trkpt><trkpt lat="36.54837163269214" lon="-5.241180537185041"><ele>509.0</ele><time>2026-04-25T12:01:51.999Z</time></trkpt><trkpt lat="36.548337743548245" lon="-5.2412979506002175"><ele>509.0</ele><time>2026-04-25T12:01:52.999Z</time></trkpt><trkpt lat="36.548272479160225" lon="-5.241405533516918"><ele>509.0</ele><time>2026-04-25T12:01:53.999Z</time></trkpt><trkpt lat="36.548210875765015" lon="-5.241512656073309"><ele>509.0</ele><time>2026-04-25T12:01:54.999Z</time></trkpt><trkpt lat="36.54817525764978" lon="-5.241634626999164"><ele>508.2</ele><time>2026-04-25T12:01:55.999Z</time></trkpt><trkpt lat="36.548153424433096" lon="-5.241773439474688"><ele>507.4</ele><time>2026-04-25T12:01:56.999Z</time></trkpt><trkpt lat="36.548121271778015" lon="-5.241909032399955"><ele>506.6</ele><time>2026-04-25T12:01:57.999Z</time></trkpt><trkpt lat="36.54808911789698" lon="-5.242030531102245"><ele>505.8</ele><time>2026-04-25T12:01:58.999Z</time></trkpt><trkpt lat="36.54808040936672" lon="-5.2421509679226945"><ele>505.0</ele><time>2026-04-25T12:01:59.999Z</time></trkpt><trkpt lat="36.548100421179356" lon="-5.24228059711524"><ele>505.6</ele><time>2026-04-25T12:02:00.999Z</time></trkpt><trkpt lat="36.54812090504844" lon="-5.242401345636808"><ele>506.2</ele><time>2026-04-25T12:02:01.999Z</time></trkpt><trkpt lat="36.54810287386057" lon="-5.242537149083202"><ele>506.79999999999995</ele><time>2026-04-25T12:02:02.999Z</time></trkpt><trkpt lat="36.548063436119655" lon="-5.242676285624863"><ele>507.4</ele><time>2026-04-25T12:02:03.999Z</time></trkpt><trkpt lat="36.548024518196726" lon="-5.242802560486909"><ele>508.0</ele><time>2026-04-25T12:02:04.999Z</time></trkpt><trkpt lat="36.54800914412903" lon="-5.242928851031147"><ele>508.0</ele><time>2026-04-25T12:02:05.999Z</time></trkpt><trkpt lat="36.54799772191804" lon="-5.243057016808668"><ele>507.99999999999994</ele><time>2026-04-25T12:02:06.999Z</time></trkpt><trkpt lat="36.5479901129912" lon="-5.243171814811192"><ele>507.99999999999994</ele><time>2026-04-25T12:02:07.999Z</time></trkpt><trkpt lat="36.54798882019171" lon="-5.243291733035991"><ele>508.0</ele><time>2026-04-25T12:02:08.999Z</time></trkpt><trkpt lat="36.5480038723868" lon="-5.243414818588199"><ele>508.0</ele><time>2026-04-25T12:02:09.999Z</time></trkpt><trkpt lat="36.548007598070704" lon="-5.24355059481052"><ele>508.25</ele><time>2026-04-25T12:02:10.999Z</time></trkpt><trkpt lat="36.54799909866473" lon="-5.243686713629963"><ele>508.5</ele><time>2026-04-25T12:02:11.999Z</time></trkpt><trkpt lat="36.54797512146732" lon="-5.243842162761678"><ele>508.75</ele><time>2026-04-25T12:02:12.999Z</time></trkpt><trkpt lat="36.54794158902158" lon="-5.243993018917996"><ele>509.0</ele><time>2026-04-25T12:02:13.999Z</time></trkpt><trkpt lat="36.547889801240025" lon="-5.244126740760016"><ele>497.0</ele><time>2026-04-25T12:02:14.999Z</time></trkpt><trkpt lat="36.547834303665915" lon="-5.244255120196391"><ele>485.0</ele><time>2026-04-25T12:02:15.999Z</time></trkpt><trkpt lat="36.547793833458215" lon="-5.244386283348783"><ele>473.0</ele><time>2026-04-25T12:02:16.999Z</time></trkpt><trkpt lat="36.54778514222862" lon="-5.244523684936561"><ele>461.0</ele><time>2026-04-25T12:02:17.999Z</time></trkpt><trkpt lat="36.54780147862268" lon="-5.2446745153742595"><ele>461.0</ele><time>2026-04-25T12:02:18.999Z</time></trkpt><trkpt lat="36.54782896341263" lon="-5.244835562118057"><ele>461.0</ele><time>2026-04-25T12:02:19.999Z</time></trkpt><trkpt lat="36.5478630989464" lon="-5.244981609206077"><ele>461.0</ele><time>2026-04-25T12:02:20.999Z</time></trkpt><trkpt lat="36.54789039943879" lon="-5.245119430282429"><ele>461.0</ele><time>2026-04-25T12:02:21.999Z</time></trkpt><trkpt lat="36.54790128116071" lon="-5.24524326819657"><ele>461.0</ele><time>2026-04-25T12:02:22.999Z</time></trkpt><trkpt lat="36.54787717759612" lon="-5.245360065417345"><ele>461.0</ele><time>2026-04-25T12:02:23.999Z</time></trkpt><trkpt lat="36.547818431487926" lon="-5.245473627017468"><ele>461.0</ele><time>2026-04-25T12:02:24.999Z</time></trkpt><trkpt lat="36.5477288535469" lon="-5.245581260314232"><ele>461.0</ele><time>2026-04-25T12:02:25.999Z</time></trkpt><trkpt lat="36.54764225074306" lon="-5.245700198213395"><ele>461.6</ele><time>2026-04-25T12:02:26.999Z</time></trkpt><trkpt lat="36.54756474310521" lon="-5.245796324282758"><ele>462.20000000000005</ele><time>2026-04-25T12:02:27.999Z</time></trkpt><trkpt lat="36.547496180521" lon="-5.245884541074278"><ele>462.79999999999995</ele><time>2026-04-25T12:02:28.999Z</time></trkpt><trkpt lat="36.547436996473266" lon="-5.24596480029419"><ele>463.4</ele><time>2026-04-25T12:02:29.999Z</time></trkpt><trkpt lat="36.54742055142235" lon="-5.246072033728264"><ele>464.0</ele><time>2026-04-25T12:02:30.999Z</time></trkpt><trkpt lat="36.54744784642068" lon="-5.246179633500418"><ele>464.0</ele><time>2026-04-25T12:02:31.998Z</time></trkpt><trkpt lat="36.54751058267069" lon="-5.246278200282146"><ele>464.0</ele><time>2026-04-25T12:02:32.998Z</time></trkpt><trkpt lat="36.54759296412126" lon="-5.246383861932688"><ele>464.0</ele><time>2026-04-25T12:02:33.998Z</time></trkpt><trkpt lat="36.54767145326599" lon="-5.246508208974832"><ele>464.0</ele><time>2026-04-25T12:02:34.998Z</time></trkpt><trkpt lat="36.54775940801551" lon="-5.2466417511919685"><ele>465.0</ele><time>2026-04-25T12:02:35.998Z</time></trkpt><trkpt lat="36.547839560321705" lon="-5.2467738566807816"><ele>466.0</ele><time>2026-04-25T12:02:36.998Z</time></trkpt><trkpt lat="36.54792135525318" lon="-5.246894878456571"><ele>467.0</ele><time>2026-04-25T12:02:37.998Z</time></trkpt><trkpt lat="36.54799743536839" lon="-5.247021211061533"><ele>468.0</ele><time>2026-04-25T12:02:38.998Z</time></trkpt><trkpt lat="36.548069624781355" lon="-5.2471461867916345"><ele>468.0</ele><time>2026-04-25T12:02:39.998Z</time></trkpt><trkpt lat="36.54814773848784" lon="-5.2472631578269535"><ele>468.0</ele><time>2026-04-25T12:02:40.998Z</time></trkpt><trkpt lat="36.548218450624546" lon="-5.247372599592512"><ele>468.0</ele><time>2026-04-25T12:02:41.999Z</time></trkpt><trkpt lat="36.548293169317745" lon="-5.247479514326601"><ele>468.0</ele><time>2026-04-25T12:02:42.999Z</time></trkpt><trkpt lat="36.54838636795674" lon="-5.247550454134114"><ele>464.4</ele><time>2026-04-25T12:02:43.999Z</time></trkpt><trkpt lat="36.54849264224725" lon="-5.247574844984016"><ele>460.79999999999995</ele><time>2026-04-25T12:02:45Z</time></trkpt><trkpt lat="36.54858997139121" lon="-5.247554378007126"><ele>457.2</ele><time>2026-04-25T12:02:46Z</time></trkpt><trkpt lat="36.54866852018223" lon="-5.247505928169699"><ele>453.6</ele><time>2026-04-25T12:02:47Z</time></trkpt><trkpt lat="36.54872793509397" lon="-5.247410213246162"><ele>450.0</ele><time>2026-04-25T12:02:48Z</time></trkpt><trkpt lat="36.54875560353413" lon="-5.2472740683508405"><ele>449.0</ele><time>2026-04-25T12:02:49Z</time></trkpt><trkpt lat="36.54882528769963" lon="-5.24714515878934"><ele>448.0</ele><time>2026-04-25T12:02:50Z</time></trkpt><trkpt lat="36.548891565672534" lon="-5.247008905907047"><ele>447.0</ele><time>2026-04-25T12:02:51Z</time></trkpt><trkpt lat="36.54896650410024" lon="-5.246880122611575"><ele>446.0</ele><time>2026-04-25T12:02:52Z</time></trkpt><trkpt lat="36.54904604615395" lon="-5.246759310199655"><ele>446.0</ele><time>2026-04-25T12:02:53Z</time></trkpt><trkpt lat="36.54912492102229" lon="-5.246646310845484"><ele>446.0</ele><time>2026-04-25T12:02:54Z</time></trkpt><trkpt lat="36.54918529510809" lon="-5.246539952188717"><ele>446.0</ele><time>2026-04-25T12:02:55Z</time></trkpt><trkpt lat="36.549245395685574" lon="-5.246460604377124"><ele>446.0</ele><time>2026-04-25T12:02:56Z</time></trkpt><trkpt lat="36.549339903902606" lon="-5.246429022493732"><ele>446.0</ele><time>2026-04-25T12:02:57Z</time></trkpt><trkpt lat="36.5494591944518" lon="-5.246422331165607"><ele>446.0</ele><time>2026-04-25T12:02:58Z</time></trkpt><trkpt lat="36.54958332105655" lon="-5.24643528367774"><ele>446.0</ele><time>2026-04-25T12:02:59Z</time></trkpt><trkpt lat="36.54970009520621" lon="-5.246445749300568"><ele>446.0</ele><time>2026-04-25T12:03:00Z</time></trkpt><trkpt lat="36.54982273908392" lon="-5.246426290742735"><ele>446.0</ele><time>2026-04-25T12:03:01Z</time></trkpt><trkpt lat="36.54992067484453" lon="-5.246391992299941"><ele>446.0</ele><time>2026-04-25T12:03:02Z</time></trkpt><trkpt lat="36.55000885431317" lon="-5.246321311763152"><ele>446.0</ele><time>2026-04-25T12:03:03Z</time></trkpt><trkpt lat="36.55005752775215" lon="-5.2461915554714915"><ele>446.0</ele><time>2026-04-25T12:03:04Z</time></trkpt><trkpt lat="36.55012675109989" lon="-5.246061031791087"><ele>446.0</ele><time>2026-04-25T12:03:05Z</time></trkpt><trkpt lat="36.550215026708436" lon="-5.245934939178123"><ele>446.0</ele><time>2026-04-25T12:03:06Z</time></trkpt><trkpt lat="36.550292932987674" lon="-5.245813428614837"><ele>446.0</ele><time>2026-04-25T12:03:07Z</time></trkpt><trkpt lat="36.55040783801154" lon="-5.245731799350047"><ele>446.0</ele><time>2026-04-25T12:03:08Z</time></trkpt><trkpt lat="36.55054178260803" lon="-5.245666640779785"><ele>446.0</ele><time>2026-04-25T12:03:09Z</time></trkpt><trkpt lat="36.55067520474703" lon="-5.245609289679261"><ele>445.25</ele><time>2026-04-25T12:03:10Z</time></trkpt><trkpt lat="36.55080194158377" lon="-5.245570797738899"><ele>444.5</ele><time>2026-04-25T12:03:11Z</time></trkpt><trkpt lat="36.55092173692656" lon="-5.245531841234348"><ele>443.75</ele><time>2026-04-25T12:03:12Z</time></trkpt><trkpt lat="36.55103670482873" lon="-5.245487018484522"><ele>443.0</ele><time>2026-04-25T12:03:13Z</time></trkpt><trkpt lat="36.5511417008358" lon="-5.245409848922878"><ele>438.4</ele><time>2026-04-25T12:03:14Z</time></trkpt><trkpt lat="36.55123258473352" lon="-5.245313376193002"><ele>433.79999999999995</ele><time>2026-04-25T12:03:15Z</time></trkpt><trkpt lat="36.55127686147876" lon="-5.245195830051032"><ele>429.2</ele><time>2026-04-25T12:03:16Z</time></trkpt><trkpt lat="36.55130487136277" lon="-5.245079149113685"><ele>424.6</ele><time>2026-04-25T12:03:17Z</time></trkpt><trkpt lat="36.55129742756205" lon="-5.244932902449688"><ele>420.0</ele><time>2026-04-25T12:03:18Z</time></trkpt><trkpt lat="36.55128917041063" lon="-5.244764798284005"><ele>420.0</ele><time>2026-04-25T12:03:19Z</time></trkpt><trkpt lat="36.55127627253271" lon="-5.2445872212349665"><ele>420.0</ele><time>2026-04-25T12:03:20Z</time></trkpt><trkpt lat="36.5512840956842" lon="-5.244427019832533"><ele>420.0</ele><time>2026-04-25T12:03:21Z</time></trkpt><trkpt lat="36.55128469304344" lon="-5.244290607390714"><ele>420.0</ele><time>2026-04-25T12:03:22Z</time></trkpt><trkpt lat="36.551297434194105" lon="-5.24416224851463"><ele>420.0</ele><time>2026-04-25T12:03:23Z</time></trkpt><trkpt lat="36.551328316851816" lon="-5.244067052784326"><ele>420.0</ele><time>2026-04-25T12:03:24Z</time></trkpt><trkpt lat="36.551386206033804" lon="-5.243989928796824"><ele>420.0</ele><time>2026-04-25T12:03:25Z</time></trkpt><trkpt lat="36.55146431036995" lon="-5.243952106687542"><ele>420.0</ele><time>2026-04-25T12:03:26Z</time></trkpt><trkpt lat="36.551555063637196" lon="-5.243969047222838"><ele>420.0</ele><time>2026-04-25T12:03:26.999Z</time></trkpt><trkpt lat="36.55163659719812" lon="-5.244034300157336"><ele>420.0</ele><time>2026-04-25T12:03:27.999Z</time></trkpt><trkpt lat="36.5517155937132" lon="-5.244093788574811"><ele>420.0</ele><time>2026-04-25T12:03:28.999Z</time></trkpt><trkpt lat="36.551808258976074" lon="-5.244107418887478"><ele>420.0</ele><time>2026-04-25T12:03:29.999Z</time></trkpt><trkpt lat="36.55190805132157" lon="-5.244067867473482"><ele>420.0</ele><time>2026-04-25T12:03:30.999Z</time></trkpt><trkpt lat="36.55198842040049" lon="-5.243985166887126"><ele>420.0</ele><time>2026-04-25T12:03:31.999Z</time></trkpt><trkpt lat="36.55206282329091" lon="-5.243933706270977"><ele>420.0</ele><time>2026-04-25T12:03:32.999Z</time></trkpt><trkpt lat="36.55213665040871" lon="-5.243865901682515"><ele>421.6</ele><time>2026-04-25T12:03:33.999Z</time></trkpt><trkpt lat="36.55223235394563" lon="-5.243851904208181"><ele>423.2</ele><time>2026-04-25T12:03:34.999Z</time></trkpt><trkpt lat="36.55232950492864" lon="-5.243935051167652"><ele>424.79999999999995</ele><time>2026-04-25T12:03:35.999Z</time></trkpt><trkpt lat="36.552429328086745" lon="-5.244008439953064"><ele>426.4</ele><time>2026-04-25T12:03:36.999Z</time></trkpt><trkpt lat="36.55252120250736" lon="-5.244069153521846"><ele>428.0</ele><time>2026-04-25T12:03:37.999Z</time></trkpt><trkpt lat="36.552616806371184" lon="-5.2440987064796944"><ele>428.0</ele><time>2026-04-25T12:03:38.999Z</time></trkpt><trkpt lat="36.55270488467043" lon="-5.244114473778996"><ele>427.99999999999994</ele><time>2026-04-25T12:03:39.999Z</time></trkpt><trkpt lat="36.552780762970315" lon="-5.2440616525197505"><ele>427.99999999999994</ele><time>2026-04-25T12:03:40.999Z</time></trkpt><trkpt lat="36.552789974896896" lon="-5.243925854762103"><ele>428.0</ele><time>2026-04-25T12:03:41.999Z</time></trkpt><trkpt lat="36.55282884923007" lon="-5.243794459556503"><ele>428.0</ele><time>2026-04-25T12:03:42.999Z</time></trkpt><trkpt lat="36.552836664664106" lon="-5.2436577010909255"><ele>427.99999999999994</ele><time>2026-04-25T12:03:43.999Z</time></trkpt><trkpt lat="36.5528644679851" lon="-5.243546131972735"><ele>428.0</ele><time>2026-04-25T12:03:44.999Z</time></trkpt><trkpt lat="36.55290135119782" lon="-5.243466332996"><ele>428.0</ele><time>2026-04-25T12:03:45.999Z</time></trkpt><trkpt lat="36.55297114233281" lon="-5.243424763150055"><ele>428.0</ele><time>2026-04-25T12:03:46.999Z</time></trkpt><trkpt lat="36.553058785316665" lon="-5.243433642315188"><ele>427.99999999999994</ele><time>2026-04-25T12:03:47.999Z</time></trkpt><trkpt lat="36.55313551830007" lon="-5.24347663421892"><ele>428.0</ele><time>2026-04-25T12:03:48.999Z</time></trkpt><trkpt lat="36.553190041280764" lon="-5.243554584847635"><ele>425.4</ele><time>2026-04-25T12:03:49.999Z</time></trkpt><trkpt lat="36.55323423529882" lon="-5.243654128965049"><ele>422.79999999999995</ele><time>2026-04-25T12:03:50.999Z</time></trkpt><trkpt lat="36.55325644114891" lon="-5.2437845871176805"><ele>420.2</ele><time>2026-04-25T12:03:51.999Z</time></trkpt><trkpt lat="36.553283564612464" lon="-5.243932575148471"><ele>417.6</ele><time>2026-04-25T12:03:52.999Z</time></trkpt><trkpt lat="36.55331866315271" lon="-5.244078865950277"><ele>415.0</ele><time>2026-04-25T12:03:53.999Z</time></trkpt><trkpt lat="36.5533246207779" lon="-5.244219079060409"><ele>411.0</ele><time>2026-04-25T12:03:54.999Z</time></trkpt><trkpt lat="36.55329658364972" lon="-5.244357694884091"><ele>407.0</ele><time>2026-04-25T12:03:55.999Z</time></trkpt><trkpt lat="36.55324142555527" lon="-5.24449296230028"><ele>403.0</ele><time>2026-04-25T12:03:56.999Z</time></trkpt><trkpt lat="36.553184469680865" lon="-5.244624610345689"><ele>399.0</ele><time>2026-04-25T12:03:57.999Z</time></trkpt><trkpt lat="36.55314286473124" lon="-5.244740234074419"><ele>395.79999999999995</ele><time>2026-04-25T12:03:58.999Z</time></trkpt><trkpt lat="36.55312603687909" lon="-5.244845367655158"><ele>392.59999999999997</ele><time>2026-04-25T12:03:59.999Z</time></trkpt><trkpt lat="36.55314707205928" lon="-5.2449502468775595"><ele>389.4</ele><time>2026-04-25T12:04:00.999Z</time></trkpt><trkpt lat="36.5532024339792" lon="-5.24503524440077"><ele>386.2</ele><time>2026-04-25T12:04:01.999Z</time></trkpt><trkpt lat="36.553310907161425" lon="-5.245041084999896"><ele>383.0</ele><time>2026-04-25T12:04:02.999Z</time></trkpt><trkpt lat="36.55341403007619" lon="-5.245035762895132"><ele>383.0</ele><time>2026-04-25T12:04:03.999Z</time></trkpt><trkpt lat="36.55350321715734" lon="-5.2449798154038785"><ele>383.0</ele><time>2026-04-25T12:04:04.999Z</time></trkpt><trkpt lat="36.55356964423912" lon="-5.244875878464062"><ele>383.0</ele><time>2026-04-25T12:04:05.999Z</time></trkpt><trkpt lat="36.55360837477702" lon="-5.244743247409563"><ele>383.0</ele><time>2026-04-25T12:04:06.999Z</time></trkpt><trkpt lat="36.55366741879707" lon="-5.244595346337293"><ele>379.75</ele><time>2026-04-25T12:04:07.999Z</time></trkpt><trkpt lat="36.553732010024675" lon="-5.244441160762257"><ele>376.5</ele><time>2026-04-25T12:04:08.999Z</time></trkpt><trkpt lat="36.553798135610556" lon="-5.244280887316877"><ele>373.25</ele><time>2026-04-25T12:04:09.999Z</time></trkpt><trkpt lat="36.55386276994158" lon="-5.2441352759957125"><ele>370.0</ele><time>2026-04-25T12:04:10.999Z</time></trkpt><trkpt lat="36.553919556146134" lon="-5.2439981193267595"><ele>372.8</ele><time>2026-04-25T12:04:11.999Z</time></trkpt><trkpt lat="36.55396232190705" lon="-5.243880903998469"><ele>375.6</ele><time>2026-04-25T12:04:12.999Z</time></trkpt><trkpt lat="36.553999397648106" lon="-5.243797614788219"><ele>378.4</ele><time>2026-04-25T12:04:13.999Z</time></trkpt><trkpt lat="36.55403163572115" lon="-5.24371122524395"><ele>381.2</ele><time>2026-04-25T12:04:15.999Z</time></trkpt><trkpt lat="36.55411212015844" lon="-5.243792571811825"><ele>384.0</ele><time>2026-04-25T12:04:18.999Z</time></trkpt><trkpt lat="36.55408810502036" lon="-5.243900577404425"><ele>381.2</ele><time>2026-04-25T12:04:20.999Z</time></trkpt><trkpt lat="36.554031978594104" lon="-5.244050530341009"><ele>378.4</ele><time>2026-04-25T12:04:22.999Z</time></trkpt><trkpt lat="36.554001174828336" lon="-5.244145400730155"><ele>375.6</ele><time>2026-04-25T12:04:23.999Z</time></trkpt><trkpt lat="36.553973616545164" lon="-5.244258258069276"><ele>372.8</ele><time>2026-04-25T12:04:24.999Z</time></trkpt><trkpt lat="36.553944975302244" lon="-5.2443720133736695"><ele>370.0</ele><time>2026-04-25T12:04:25.999Z</time></trkpt><trkpt lat="36.55392465762797" lon="-5.244493877869949"><ele>370.0</ele><time>2026-04-25T12:04:26.999Z</time></trkpt><trkpt lat="36.55390222186037" lon="-5.244619679781043"><ele>370.0</ele><time>2026-04-25T12:04:27.999Z</time></trkpt><trkpt lat="36.55387997911682" lon="-5.2447469413003125"><ele>370.0</ele><time>2026-04-25T12:04:28.999Z</time></trkpt><trkpt lat="36.553859705719695" lon="-5.244873648266316"><ele>370.0</ele><time>2026-04-25T12:04:29.999Z</time></trkpt><trkpt lat="36.55385582924604" lon="-5.244997097798399"><ele>370.0</ele><time>2026-04-25T12:04:30.999Z</time></trkpt><trkpt lat="36.55386946443569" lon="-5.245110697947663"><ele>367.4</ele><time>2026-04-25T12:04:31.999Z</time></trkpt><trkpt lat="36.553885787120144" lon="-5.245216417406305"><ele>364.8</ele><time>2026-04-25T12:04:32.999Z</time></trkpt><trkpt lat="36.55388961403758" lon="-5.245312955465487"><ele>362.20000000000005</ele><time>2026-04-25T12:04:33.999Z</time></trkpt><trkpt lat="36.5538686649799" lon="-5.245390789012204"><ele>359.6</ele><time>2026-04-25T12:04:34.999Z</time></trkpt><trkpt lat="36.553758783252775" lon="-5.245491032355593"><ele>357.0</ele><time>2026-04-25T12:04:36.999Z</time></trkpt><trkpt lat="36.55367595435422" lon="-5.245528675760885"><ele>356.6</ele><time>2026-04-25T12:04:37.999Z</time></trkpt><trkpt lat="36.553579135070095" lon="-5.245537747927268"><ele>356.20000000000005</ele><time>2026-04-25T12:04:38.999Z</time></trkpt><trkpt lat="36.55348339807334" lon="-5.245571730737321"><ele>355.8</ele><time>2026-04-25T12:04:39.999Z</time></trkpt><trkpt lat="36.55338864875874" lon="-5.245614042733946"><ele>355.4</ele><time>2026-04-25T12:04:40.999Z</time></trkpt><trkpt lat="36.55330255286451" lon="-5.245657898251224"><ele>355.0</ele><time>2026-04-25T12:04:41.999Z</time></trkpt><trkpt lat="36.55322790364836" lon="-5.24569585612061"><ele>355.0</ele><time>2026-04-25T12:04:42.999Z</time></trkpt><trkpt lat="36.553156739272616" lon="-5.245728387124653"><ele>355.0</ele><time>2026-04-25T12:04:43.999Z</time></trkpt><trkpt lat="36.55308861819045" lon="-5.245740677902448"><ele>355.0</ele><time>2026-04-25T12:04:44.999Z</time></trkpt><trkpt lat="36.5530167461306" lon="-5.2457088666416025"><ele>355.0</ele><time>2026-04-25T12:04:45.999Z</time></trkpt><trkpt lat="36.55294776275587" lon="-5.245635333168355"><ele>355.0</ele><time>2026-04-25T12:04:46.999Z</time></trkpt><trkpt lat="36.5528869566883" lon="-5.24557991823968"><ele>355.0</ele><time>2026-04-25T12:04:48Z</time></trkpt><trkpt lat="36.55283276421816" lon="-5.245537532829297"><ele>358.8</ele><time>2026-04-25T12:04:49Z</time></trkpt><trkpt lat="36.55274337705528" lon="-5.245563712104285"><ele>362.6</ele><time>2026-04-25T12:04:51Z</time></trkpt><trkpt lat="36.55264238991055" lon="-5.245660046696537"><ele>366.4</ele><time>2026-04-25T12:04:53Z</time></trkpt><trkpt lat="36.5526183216238" lon="-5.245760927734123"><ele>370.2</ele><time>2026-04-25T12:04:54Z</time></trkpt><trkpt lat="36.5526155426536" lon="-5.245881275782918"><ele>374.0</ele><time>2026-04-25T12:04:55Z</time></trkpt><trkpt lat="36.55263242145526" lon="-5.246005634760124"><ele>374.0</ele><time>2026-04-25T12:04:56Z</time></trkpt><trkpt lat="36.55266861018464" lon="-5.2461432819890925"><ele>374.0</ele><time>2026-04-25T12:04:57Z</time></trkpt><trkpt lat="36.55271135357243" lon="-5.246276419683682"><ele>374.0</ele><time>2026-04-25T12:04:58Z</time></trkpt><trkpt lat="36.55275723423968" lon="-5.2464000949930965"><ele>374.0</ele><time>2026-04-25T12:04:59Z</time></trkpt><trkpt lat="36.552809785425815" lon="-5.246518062827148"><ele>374.0</ele><time>2026-04-25T12:05:00Z</time></trkpt><trkpt lat="36.55287404673577" lon="-5.246618292232941"><ele>367.1666666666667</ele><time>2026-04-25T12:05:01Z</time></trkpt><trkpt lat="36.55292592858987" lon="-5.246683710398753"><ele>360.33333333333337</ele><time>2026-04-25T12:05:02Z</time></trkpt><trkpt lat="36.55300231963557" lon="-5.246724832927897"><ele>353.5</ele><time>2026-04-25T12:05:03Z</time></trkpt><trkpt lat="36.55311489923299" lon="-5.246802786207503"><ele>346.6666666666667</ele><time>2026-04-25T12:05:05Z</time></trkpt><trkpt lat="36.55314745160907" lon="-5.2468921220170905"><ele>339.8333333333333</ele><time>2026-04-25T12:05:06Z</time></trkpt><trkpt lat="36.55316107453001" lon="-5.246990231784504"><ele>333.0</ele><time>2026-04-25T12:05:07Z</time></trkpt><trkpt lat="36.553166914597014" lon="-5.247104337340773"><ele>333.0</ele><time>2026-04-25T12:05:08Z</time></trkpt><trkpt lat="36.553177825315714" lon="-5.247237338813655"><ele>333.0</ele><time>2026-04-25T12:05:09Z</time></trkpt><trkpt lat="36.55319876663298" lon="-5.247380185290732"><ele>333.0</ele><time>2026-04-25T12:05:10Z</time></trkpt><trkpt lat="36.55323476717515" lon="-5.2475134658711"><ele>333.0</ele><time>2026-04-25T12:05:11Z</time></trkpt><trkpt lat="36.553271386262956" lon="-5.247635097330205"><ele>333.0</ele><time>2026-04-25T12:05:12Z</time></trkpt><trkpt lat="36.553279218716874" lon="-5.247772178352384"><ele>333.1666666666667</ele><time>2026-04-25T12:05:13Z</time></trkpt><trkpt lat="36.55328834814784" lon="-5.247904522057869"><ele>333.3333333333333</ele><time>2026-04-25T12:05:14Z</time></trkpt><trkpt lat="36.55331353294098" lon="-5.2480251169301795"><ele>333.5</ele><time>2026-04-25T12:05:15Z</time></trkpt><trkpt lat="36.55332467897437" lon="-5.248130668453834"><ele>333.66666666666663</ele><time>2026-04-25T12:05:16Z</time></trkpt><trkpt lat="36.55330916704383" lon="-5.248217545469779"><ele>333.8333333333333</ele><time>2026-04-25T12:05:17Z</time></trkpt><trkpt lat="36.55325722584078" lon="-5.248266071075331"><ele>334.0</ele><time>2026-04-25T12:05:20Z</time></trkpt><trkpt lat="36.55317434968598" lon="-5.248321614460068"><ele>333.8333333333333</ele><time>2026-04-25T12:05:22Z</time></trkpt><trkpt lat="36.55309992258814" lon="-5.24832627185075"><ele>333.66666666666663</ele><time>2026-04-25T12:05:23Z</time></trkpt><trkpt lat="36.55302697747269" lon="-5.2483321686124516"><ele>333.5</ele><time>2026-04-25T12:05:24Z</time></trkpt><trkpt lat="36.55294480837435" lon="-5.248343827281133"><ele>333.3333333333333</ele><time>2026-04-25T12:05:25Z</time></trkpt><trkpt lat="36.55286012801295" lon="-5.248347711150642"><ele>333.1666666666667</ele><time>2026-04-25T12:05:26Z</time></trkpt><trkpt lat="36.55277868556393" lon="-5.248332335565226"><ele>333.0</ele><time>2026-04-25T12:05:27Z</time></trkpt><trkpt lat="36.552693033978294" lon="-5.248308669620598"><ele>333.0</ele><time>2026-04-25T12:05:28Z</time></trkpt><trkpt lat="36.55259286185242" lon="-5.248267622874932"><ele>333.0</ele><time>2026-04-25T12:05:29Z</time></trkpt><trkpt lat="36.55250648180457" lon="-5.2482238152552165"><ele>333.0</ele><time>2026-04-25T12:05:30Z</time></trkpt><trkpt lat="36.55243830632537" lon="-5.248203591350038"><ele>333.0</ele><time>2026-04-25T12:05:31Z</time></trkpt><trkpt lat="36.55237411788909" lon="-5.248196242204186"><ele>333.0</ele><time>2026-04-25T12:05:32Z</time></trkpt><trkpt lat="36.55229221766908" lon="-5.248327319110485"><ele>333.0</ele><time>2026-04-25T12:05:34Z</time></trkpt><trkpt lat="36.55223076740731" lon="-5.2483899170079304"><ele>333.0</ele><time>2026-04-25T12:05:35Z</time></trkpt><trkpt lat="36.55217148431612" lon="-5.248440553243969"><ele>333.0</ele><time>2026-04-25T12:05:36Z</time></trkpt><trkpt lat="36.552086883393784" lon="-5.2484496821396505"><ele>333.0</ele><time>2026-04-25T12:05:37Z</time></trkpt><trkpt lat="36.552009403640824" lon="-5.248486264010683"><ele>333.0</ele><time>2026-04-25T12:05:38Z</time></trkpt><trkpt lat="36.55194424674029" lon="-5.248546651020542"><ele>333.0</ele><time>2026-04-25T12:05:39Z</time></trkpt><trkpt lat="36.55190603868046" lon="-5.248616909649224"><ele>333.5</ele><time>2026-04-25T12:05:40Z</time></trkpt><trkpt lat="36.55188249858673" lon="-5.24870932422067"><ele>334.0</ele><time>2026-04-25T12:05:41Z</time></trkpt><trkpt lat="36.55183818645555" lon="-5.248791858701784"><ele>334.5</ele><time>2026-04-25T12:05:42Z</time></trkpt><trkpt lat="36.5517894773856" lon="-5.248886697237264"><ele>335.0</ele><time>2026-04-25T12:05:43Z</time></trkpt><trkpt lat="36.55175000754205" lon="-5.248998864659143"><ele>335.5</ele><time>2026-04-25T12:05:44Z</time></trkpt><trkpt lat="36.55172636827986" lon="-5.249107046740537"><ele>336.0</ele><time>2026-04-25T12:05:45Z</time></trkpt><trkpt lat="36.551743561120944" lon="-5.249209348592637"><ele>333.4</ele><time>2026-04-25T12:05:45.999Z</time></trkpt><trkpt lat="36.55179720244159" lon="-5.249296218054411"><ele>330.8</ele><time>2026-04-25T12:05:46.999Z</time></trkpt><trkpt lat="36.551875003131585" lon="-5.249363374210896"><ele>328.2</ele><time>2026-04-25T12:05:47.999Z</time></trkpt><trkpt lat="36.5519678568966" lon="-5.249409600186503"><ele>325.59999999999997</ele><time>2026-04-25T12:05:48.999Z</time></trkpt><trkpt lat="36.55204789907149" lon="-5.249469810453948"><ele>323.0</ele><time>2026-04-25T12:05:49.999Z</time></trkpt><trkpt lat="36.55210848127308" lon="-5.249557613158886"><ele>320.33333333333337</ele><time>2026-04-25T12:05:50.999Z</time></trkpt><trkpt lat="36.55215467249419" lon="-5.249658282417438"><ele>317.6666666666667</ele><time>2026-04-25T12:05:51.999Z</time></trkpt><trkpt lat="36.55218176605866" lon="-5.2497560772135525"><ele>315.0</ele><time>2026-04-25T12:05:52.999Z</time></trkpt><trkpt lat="36.552192541997854" lon="-5.249850238520421"><ele>312.3333333333333</ele><time>2026-04-25T12:05:53.999Z</time></trkpt><trkpt lat="36.55217851403956" lon="-5.249934932183284"><ele>309.66666666666663</ele><time>2026-04-25T12:05:54.999Z</time></trkpt><trkpt lat="36.55212927512092" lon="-5.250012200823362"><ele>307.0</ele><time>2026-04-25T12:05:55.999Z</time></trkpt><trkpt lat="36.55204856910119" lon="-5.2500623905438815"><ele>306.3333333333333</ele><time>2026-04-25T12:05:56.999Z</time></trkpt><trkpt lat="36.551990104044386" lon="-5.250142277706987"><ele>305.66666666666663</ele><time>2026-04-25T12:05:57.999Z</time></trkpt><trkpt lat="36.551943679148074" lon="-5.25019925081537"><ele>305.0</ele><time>2026-04-25T12:05:58.999Z</time></trkpt><trkpt lat="36.55194675135062" lon="-5.250349042478749"><ele>304.3333333333333</ele><time>2026-04-25T12:06:00.999Z</time></trkpt><trkpt lat="36.552006673063545" lon="-5.250428730063847"><ele>303.6666666666667</ele><time>2026-04-25T12:06:01.999Z</time></trkpt><trkpt lat="36.55206003336904" lon="-5.2505169604459825"><ele>303.0</ele><time>2026-04-25T12:06:02.999Z</time></trkpt><trkpt lat="36.55211398368823" lon="-5.2506031653803955"><ele>302.8</ele><time>2026-04-25T12:06:03.999Z</time></trkpt><trkpt lat="36.552165352740474" lon="-5.250681528487265"><ele>302.6</ele><time>2026-04-25T12:06:04.999Z</time></trkpt><trkpt lat="36.55220774377864" lon="-5.2508116630923105"><ele>302.4</ele><time>2026-04-25T12:06:06.999Z</time></trkpt><trkpt lat="36.55211724955609" lon="-5.250921225710879"><ele>302.2</ele><time>2026-04-25T12:06:08.999Z</time></trkpt><trkpt lat="36.55201708991333" lon="-5.250919222520398"><ele>302.0</ele><time>2026-04-25T12:06:09.999Z</time></trkpt><trkpt lat="36.55192481933881" lon="-5.250944852479447"><ele>302.0</ele><time>2026-04-25T12:06:10.999Z</time></trkpt><trkpt lat="36.55182191504257" lon="-5.2509503619132305"><ele>302.0</ele><time>2026-04-25T12:06:11.999Z</time></trkpt><trkpt lat="36.55172276443441" lon="-5.250913090024009"><ele>302.0</ele><time>2026-04-25T12:06:12.999Z</time></trkpt><trkpt lat="36.55162929685575" lon="-5.250852942576921"><ele>302.0</ele><time>2026-04-25T12:06:13.999Z</time></trkpt><trkpt lat="36.55152881381037" lon="-5.2508407270316715"><ele>302.0</ele><time>2026-04-25T12:06:14.999Z</time></trkpt><trkpt lat="36.55142686753474" lon="-5.250806567657568"><ele>302.0</ele><time>2026-04-25T12:06:15.999Z</time></trkpt><trkpt lat="36.55131581087852" lon="-5.250769355598569"><ele>302.0</ele><time>2026-04-25T12:06:16.999Z</time></trkpt><trkpt lat="36.55120657367689" lon="-5.250734322920139"><ele>302.0</ele><time>2026-04-25T12:06:17.999Z</time></trkpt><trkpt lat="36.551102139447416" lon="-5.250703530994108"><ele>302.0</ele><time>2026-04-25T12:06:18.999Z</time></trkpt><trkpt lat="36.55101476126667" lon="-5.250681698485749"><ele>302.0</ele><time>2026-04-25T12:06:19.999Z</time></trkpt><trkpt lat="36.550950908271766" lon="-5.250688473394077"><ele>303.6</ele><time>2026-04-25T12:06:20.999Z</time></trkpt><trkpt lat="36.55087843971011" lon="-5.250782427956621"><ele>305.2</ele><time>2026-04-25T12:06:22.999Z</time></trkpt><trkpt lat="36.550838717596996" lon="-5.2508932904604855"><ele>306.8</ele><time>2026-04-25T12:06:23.999Z</time></trkpt><trkpt lat="36.550840195470066" lon="-5.251012531840403"><ele>308.4</ele><time>2026-04-25T12:06:24.999Z</time></trkpt><trkpt lat="36.550850906083056" lon="-5.251124956879861"><ele>310.0</ele><time>2026-04-25T12:06:25.999Z</time></trkpt><trkpt lat="36.550855161089835" lon="-5.251225188662372"><ele>310.0</ele><time>2026-04-25T12:06:26.999Z</time></trkpt><trkpt lat="36.550854549110596" lon="-5.251312623134439"><ele>310.0</ele><time>2026-04-25T12:06:27.999Z</time></trkpt><trkpt lat="36.550823145557246" lon="-5.251393330201376"><ele>310.0</ele><time>2026-04-25T12:06:28.999Z</time></trkpt><trkpt lat="36.55076846714768" lon="-5.25147928120943"><ele>310.0</ele><time>2026-04-25T12:06:29.999Z</time></trkpt><trkpt lat="36.550671236211485" lon="-5.2515114927334325"><ele>310.0</ele><time>2026-04-25T12:06:30.999Z</time></trkpt><trkpt lat="36.550582716741694" lon="-5.251578978927846"><ele>310.0</ele><time>2026-04-25T12:06:31.999Z</time></trkpt><trkpt lat="36.55047692525175" lon="-5.2516258158035525"><ele>306.8</ele><time>2026-04-25T12:06:32.999Z</time></trkpt><trkpt lat="36.55036073996064" lon="-5.251634346492956"><ele>303.6</ele><time>2026-04-25T12:06:33.999Z</time></trkpt><trkpt lat="36.55025827120199" lon="-5.251661483783757"><ele>300.4</ele><time>2026-04-25T12:06:34.999Z</time></trkpt><trkpt lat="36.550182573515784" lon="-5.251690408755055"><ele>297.2</ele><time>2026-04-25T12:06:35.999Z</time></trkpt><trkpt lat="36.550055417992745" lon="-5.251635235397398"><ele>294.0</ele><time>2026-04-25T12:06:36.999Z</time></trkpt><trkpt lat="36.54997936442453" lon="-5.251638032157989"><ele>294.0</ele><time>2026-04-25T12:06:37.999Z</time></trkpt><trkpt lat="36.549911531007304" lon="-5.251635652047229"><ele>294.0</ele><time>2026-04-25T12:06:38.999Z</time></trkpt><trkpt lat="36.549844743895015" lon="-5.251734621108739"><ele>294.0</ele><time>2026-04-25T12:06:40.999Z</time></trkpt><trkpt lat="36.54982946256057" lon="-5.251828417866555"><ele>294.0</ele><time>2026-04-25T12:06:41.999Z</time></trkpt><trkpt lat="36.54980679277523" lon="-5.2519314093401634"><ele>294.0</ele><time>2026-04-25T12:06:42.999Z</time></trkpt><trkpt lat="36.549798334380775" lon="-5.2520294354350225"><ele>294.0</ele><time>2026-04-25T12:06:43.999Z</time></trkpt><trkpt lat="36.54969384209047" lon="-5.252137404904187"><ele>294.0</ele><time>2026-04-25T12:06:45.999Z</time></trkpt><trkpt lat="36.54959277457729" lon="-5.252101968528526"><ele>294.0</ele><time>2026-04-25T12:06:46.999Z</time></trkpt><trkpt lat="36.54950722142864" lon="-5.252129626941034"><ele>294.0</ele><time>2026-04-25T12:06:47.999Z</time></trkpt><trkpt lat="36.549447555076775" lon="-5.252184070471053"><ele>294.0</ele><time>2026-04-25T12:06:48.999Z</time></trkpt><trkpt lat="36.54941393615637" lon="-5.252276722609366"><ele>294.0</ele><time>2026-04-25T12:06:49.999Z</time></trkpt><trkpt lat="36.549379949364884" lon="-5.252372740322712"><ele>294.0</ele><time>2026-04-25T12:06:50.999Z</time></trkpt><trkpt lat="36.549340939532094" lon="-5.252486010600296"><ele>295.0</ele><time>2026-04-25T12:06:51.999Z</time></trkpt><trkpt lat="36.54928514822875" lon="-5.25258748618497"><ele>296.0</ele><time>2026-04-25T12:06:52.999Z</time></trkpt><trkpt lat="36.54918042035058" lon="-5.252656444766735"><ele>297.0</ele><time>2026-04-25T12:06:54Z</time></trkpt><trkpt lat="36.54911148708368" lon="-5.252750561966373"><ele>298.0</ele><time>2026-04-25T12:06:55Z</time></trkpt><trkpt lat="36.54903569284301" lon="-5.2528170630389885"><ele>299.0</ele><time>2026-04-25T12:06:56Z</time></trkpt><trkpt lat="36.54898388169741" lon="-5.252893032876018"><ele>299.0</ele><time>2026-04-25T12:06:57Z</time></trkpt><trkpt lat="36.54891158705215" lon="-5.252927079669054"><ele>299.0</ele><time>2026-04-25T12:06:58Z</time></trkpt><trkpt lat="36.54883291417405" lon="-5.252975371831896"><ele>299.0</ele><time>2026-04-25T12:06:59Z</time></trkpt><trkpt lat="36.548739978332556" lon="-5.253011815744576"><ele>299.0</ele><time>2026-04-25T12:07:00Z</time></trkpt><trkpt lat="36.54866983624845" lon="-5.253046545340215"><ele>299.0</ele><time>2026-04-25T12:07:01Z</time></trkpt><trkpt lat="36.54860788494526" lon="-5.253092262330233"><ele>299.0</ele><time>2026-04-25T12:07:02Z</time></trkpt><trkpt lat="36.548579782302774" lon="-5.253181371654399"><ele>295.59999999999997</ele><time>2026-04-25T12:07:04Z</time></trkpt><trkpt lat="36.54866352686391" lon="-5.253309660096992"><ele>292.2</ele><time>2026-04-25T12:07:06Z</time></trkpt><trkpt lat="36.54869532351258" lon="-5.2533815722563775"><ele>288.79999999999995</ele><time>2026-04-25T12:07:07Z</time></trkpt><trkpt lat="36.54864679349641" lon="-5.25353110584668"><ele>285.4</ele><time>2026-04-25T12:07:09Z</time></trkpt><trkpt lat="36.54856629884374" lon="-5.2536082143667535"><ele>282.0</ele><time>2026-04-25T12:07:10Z</time></trkpt><trkpt lat="36.54850754071902" lon="-5.2536801646415645"><ele>282.0</ele><time>2026-04-25T12:07:11Z</time></trkpt><trkpt lat="36.54842427123598" lon="-5.253721656010168"><ele>282.0</ele><time>2026-04-25T12:07:12Z</time></trkpt><trkpt lat="36.54835982578652" lon="-5.253764594677793"><ele>282.0</ele><time>2026-04-25T12:07:13Z</time></trkpt><trkpt lat="36.54828584557701" lon="-5.253770149850974"><ele>282.0</ele><time>2026-04-25T12:07:14Z</time></trkpt><trkpt lat="36.54822021207662" lon="-5.2537705810028426"><ele>282.0</ele><time>2026-04-25T12:07:15Z</time></trkpt><trkpt lat="36.54810354759742" lon="-5.253753800558326"><ele>282.0</ele><time>2026-04-25T12:07:17Z</time></trkpt><trkpt lat="36.547999023355814" lon="-5.253663906240856"><ele>282.0</ele><time>2026-04-25T12:07:19Z</time></trkpt><trkpt lat="36.54796132487788" lon="-5.253596865668925"><ele>282.0</ele><time>2026-04-25T12:07:20Z</time></trkpt><trkpt lat="36.54796843707878" lon="-5.253467210309381"><ele>282.0</ele><time>2026-04-25T12:07:21Z</time></trkpt><trkpt lat="36.547964497062495" lon="-5.253379217174558"><ele>282.0</ele><time>2026-04-25T12:07:22Z</time></trkpt><trkpt lat="36.54797614711356" lon="-5.253298355115631"><ele>282.0</ele><time>2026-04-25T12:07:23Z</time></trkpt><trkpt lat="36.54790373209482" lon="-5.2531976397729725"><ele>282.0</ele><time>2026-04-25T12:07:25Z</time></trkpt><trkpt lat="36.54785658432093" lon="-5.253125893699505"><ele>281.5</ele><time>2026-04-25T12:07:26Z</time></trkpt><trkpt lat="36.54780244670117" lon="-5.253043784973053"><ele>281.0</ele><time>2026-04-25T12:07:27Z</time></trkpt><trkpt lat="36.547748135430176" lon="-5.2529725971481"><ele>280.5</ele><time>2026-04-25T12:07:28Z</time></trkpt><trkpt lat="36.54768472789521" lon="-5.252938589167337"><ele>280.0</ele><time>2026-04-25T12:07:29Z</time></trkpt><trkpt lat="36.547619219358396" lon="-5.252928625298177"><ele>279.5</ele><time>2026-04-25T12:07:30Z</time></trkpt><trkpt lat="36.54749867860012" lon="-5.25288794676895"><ele>279.0</ele><time>2026-04-25T12:07:32Z</time></trkpt><trkpt lat="36.547449783311144" lon="-5.252809116811125"><ele>279.0</ele><time>2026-04-25T12:07:33Z</time></trkpt><trkpt lat="36.5474377973603" lon="-5.252676881853854"><ele>279.0</ele><time>2026-04-25T12:07:34Z</time></trkpt><trkpt lat="36.54743245202283" lon="-5.252572459177046"><ele>279.0</ele><time>2026-04-25T12:07:35Z</time></trkpt><trkpt lat="36.54739622572608" lon="-5.252504760027101"><ele>279.0</ele><time>2026-04-25T12:07:36Z</time></trkpt><trkpt lat="36.547271998494864" lon="-5.252514500522383"><ele>279.0</ele><time>2026-04-25T12:07:38Z</time></trkpt><trkpt lat="36.54720753358409" lon="-5.252549426105378"><ele>279.0</ele><time>2026-04-25T12:07:39Z</time></trkpt><trkpt lat="36.54713932339983" lon="-5.252547331535712"><ele>279.0</ele><time>2026-04-25T12:07:40Z</time></trkpt><trkpt lat="36.547059691014105" lon="-5.252474538620585"><ele>279.0</ele><time>2026-04-25T12:07:41Z</time></trkpt><trkpt lat="36.54702175634928" lon="-5.2523293041743395"><ele>279.0</ele><time>2026-04-25T12:07:42Z</time></trkpt><trkpt lat="36.54697569273287" lon="-5.252203646662665"><ele>279.0</ele><time>2026-04-25T12:07:43Z</time></trkpt><trkpt lat="36.54692882291581" lon="-5.252086564749583"><ele>277.1666666666667</ele><time>2026-04-25T12:07:44Z</time></trkpt><trkpt lat="36.546873066669704" lon="-5.251998552048523"><ele>275.3333333333333</ele><time>2026-04-25T12:07:45Z</time></trkpt><trkpt lat="36.546811450282924" lon="-5.251924413800643"><ele>273.5</ele><time>2026-04-25T12:07:46Z</time></trkpt><trkpt lat="36.54673711128415" lon="-5.251886342667273"><ele>271.66666666666663</ele><time>2026-04-25T12:07:47Z</time></trkpt><trkpt lat="36.54664961558838" lon="-5.251878905187801"><ele>269.8333333333333</ele><time>2026-04-25T12:07:48Z</time></trkpt><trkpt lat="36.54656131827521" lon="-5.251844959182256"><ele>268.0</ele><time>2026-04-25T12:07:49Z</time></trkpt><trkpt lat="36.54649875899167" lon="-5.251817273299145"><ele>268.0</ele><time>2026-04-25T12:07:50Z</time></trkpt><trkpt lat="36.54638479532621" lon="-5.25190384693257"><ele>268.0</ele><time>2026-04-25T12:07:52Z</time></trkpt><trkpt lat="36.54630850001454" lon="-5.251955075846237"><ele>268.0</ele><time>2026-04-25T12:07:53Z</time></trkpt><trkpt lat="36.546197483985694" lon="-5.251959568663682"><ele>268.0</ele><time>2026-04-25T12:07:54Z</time></trkpt><trkpt lat="36.54610276325213" lon="-5.251997093997642"><ele>268.0</ele><time>2026-04-25T12:07:55Z</time></trkpt><trkpt lat="36.54601889365177" lon="-5.252021703266876"><ele>266.0</ele><time>2026-04-25T12:07:55.999Z</time></trkpt><trkpt lat="36.54594604782873" lon="-5.252010366971683"><ele>264.0</ele><time>2026-04-25T12:07:56.999Z</time></trkpt><trkpt lat="36.545868714006154" lon="-5.252004970719885"><ele>262.0</ele><time>2026-04-25T12:07:57.999Z</time></trkpt><trkpt lat="36.54579340448114" lon="-5.25195977808295"><ele>260.0</ele><time>2026-04-25T12:07:58.999Z</time></trkpt><trkpt lat="36.5457427187156" lon="-5.25184604359082"><ele>258.0</ele><time>2026-04-25T12:07:59.999Z</time></trkpt><trkpt lat="36.54570444523615" lon="-5.251756411202322"><ele>256.0</ele><time>2026-04-25T12:08:00.999Z</time></trkpt><trkpt lat="36.5456618872445" lon="-5.25169173597348"><ele>256.0</ele><time>2026-04-25T12:08:01.999Z</time></trkpt><trkpt lat="36.54555306788321" lon="-5.251641943088371"><ele>256.0</ele><time>2026-04-25T12:08:03.999Z</time></trkpt><trkpt lat="36.54546776674314" lon="-5.251748446677771"><ele>256.0</ele><time>2026-04-25T12:08:05.999Z</time></trkpt><trkpt lat="36.54541901006881" lon="-5.251820871740863"><ele>256.0</ele><time>2026-04-25T12:08:06.999Z</time></trkpt><trkpt lat="36.545359323926164" lon="-5.2518975119239135"><ele>256.0</ele><time>2026-04-25T12:08:07.999Z</time></trkpt><trkpt lat="36.54528191275747" lon="-5.251962033707934"><ele>255.99999999999997</ele><time>2026-04-25T12:08:08.999Z</time></trkpt><trkpt lat="36.545203740748775" lon="-5.25200767380987"><ele>256.0</ele><time>2026-04-25T12:08:09.999Z</time></trkpt><trkpt lat="36.54514921711529" lon="-5.252050714445162"><ele>256.0</ele><time>2026-04-25T12:08:10.999Z</time></trkpt><trkpt lat="36.54525322457931" lon="-5.2520955130872125"><ele>256.0</ele><time>2026-04-25T12:08:14.999Z</time></trkpt><trkpt lat="36.54533230629961" lon="-5.252052117231073"><ele>255.99999999999997</ele><time>2026-04-25T12:08:15.999Z</time></trkpt><trkpt lat="36.54541178266757" lon="-5.251996563535808"><ele>256.0</ele><time>2026-04-25T12:08:16.999Z</time></trkpt><trkpt lat="36.545499027567246" lon="-5.251970989628653"><ele>256.0</ele><time>2026-04-25T12:08:17.999Z</time></trkpt><trkpt lat="36.545583061114385" lon="-5.251987352874391"><ele>256.0</ele><time>2026-04-25T12:08:18.999Z</time></trkpt><trkpt lat="36.545652847013386" lon="-5.252040860640996"><ele>256.0</ele><time>2026-04-25T12:08:19.999Z</time></trkpt><trkpt lat="36.54571592472618" lon="-5.252119229075141"><ele>256.0</ele><time>2026-04-25T12:08:20.999Z</time></trkpt><trkpt lat="36.545790285623475" lon="-5.252195888634596"><ele>256.0</ele><time>2026-04-25T12:08:21.999Z</time></trkpt><trkpt lat="36.545879403431776" lon="-5.252253155451706"><ele>256.0</ele><time>2026-04-25T12:08:22.999Z</time></trkpt><trkpt lat="36.54597545269531" lon="-5.252287687099025"><ele>256.0</ele><time>2026-04-25T12:08:23.999Z</time></trkpt><trkpt lat="36.546069376512655" lon="-5.252302596826686"><ele>256.0</ele><time>2026-04-25T12:08:24.999Z</time></trkpt><trkpt lat="36.546168536942055" lon="-5.252322418328155"><ele>256.0</ele><time>2026-04-25T12:08:25.999Z</time></trkpt><trkpt lat="36.54626404555494" lon="-5.252361087666664"><ele>256.0</ele><time>2026-04-25T12:08:26.999Z</time></trkpt><trkpt lat="36.54635560990455" lon="-5.252407781254012"><ele>254.16666666666666</ele><time>2026-04-25T12:08:27.999Z</time></trkpt><trkpt lat="36.54643498259369" lon="-5.252462147508842"><ele>252.33333333333331</ele><time>2026-04-25T12:08:28.999Z</time></trkpt><trkpt lat="36.54648997585773" lon="-5.252523719157176"><ele>250.5</ele><time>2026-04-25T12:08:29.999Z</time></trkpt><trkpt lat="36.5465328137952" lon="-5.2525901243023405"><ele>248.66666666666669</ele><time>2026-04-25T12:08:30.999Z</time></trkpt><trkpt lat="36.54658485332649" lon="-5.252670468396052"><ele>246.83333333333334</ele><time>2026-04-25T12:08:31.999Z</time></trkpt><trkpt lat="36.54663731730806" lon="-5.252774871735726"><ele>245.0</ele><time>2026-04-25T12:08:32.999Z</time></trkpt><trkpt lat="36.5466916539241" lon="-5.252891749461122"><ele>245.0</ele><time>2026-04-25T12:08:33.999Z</time></trkpt><trkpt lat="36.54675174514252" lon="-5.253003411316741"><ele>245.0</ele><time>2026-04-25T12:08:34.999Z</time></trkpt><trkpt lat="36.54680849873695" lon="-5.253113044212392"><ele>245.0</ele><time>2026-04-25T12:08:35.999Z</time></trkpt><trkpt lat="36.54685799271725" lon="-5.253222199096622"><ele>245.0</ele><time>2026-04-25T12:08:36.999Z</time></trkpt><trkpt lat="36.54689631036395" lon="-5.253318709909497"><ele>245.0</ele><time>2026-04-25T12:08:37.999Z</time></trkpt><trkpt lat="36.546914208575885" lon="-5.253417313118954"><ele>242.33333333333334</ele><time>2026-04-25T12:08:38.999Z</time></trkpt><trkpt lat="36.54691054219631" lon="-5.253519215206632"><ele>239.66666666666669</ele><time>2026-04-25T12:08:39.999Z</time></trkpt><trkpt lat="36.54688204549843" lon="-5.253637034325665"><ele>237.0</ele><time>2026-04-25T12:08:40.999Z</time></trkpt><trkpt lat="36.546836889036236" lon="-5.2537470072392045"><ele>234.33333333333331</ele><time>2026-04-25T12:08:41.999Z</time></trkpt><trkpt lat="36.54680265018037" lon="-5.253849084316163"><ele>231.66666666666666</ele><time>2026-04-25T12:08:42.999Z</time></trkpt><trkpt lat="36.54679162390673" lon="-5.2539427746317475"><ele>229.0</ele><time>2026-04-25T12:08:43.999Z</time></trkpt><trkpt lat="36.54679903624891" lon="-5.25403748093637"><ele>227.0</ele><time>2026-04-25T12:08:44.999Z</time></trkpt><trkpt lat="36.54683766038377" lon="-5.254144123673344"><ele>224.99999999999997</ele><time>2026-04-25T12:08:45.999Z</time></trkpt><trkpt lat="36.54687623243417" lon="-5.254258391529868"><ele>222.99999999999997</ele><time>2026-04-25T12:08:46.999Z</time></trkpt><trkpt lat="36.546901703437214" lon="-5.254375410464778"><ele>221.0</ele><time>2026-04-25T12:08:47.999Z</time></trkpt><trkpt lat="36.5469162803123" lon="-5.254483980136492"><ele>219.0</ele><time>2026-04-25T12:08:48.999Z</time></trkpt><trkpt lat="36.546923406874846" lon="-5.254598086197029"><ele>219.0</ele><time>2026-04-25T12:08:49.999Z</time></trkpt><trkpt lat="36.54692969513972" lon="-5.254704675813313"><ele>219.0</ele><time>2026-04-25T12:08:50.999Z</time></trkpt><trkpt lat="36.546934504273565" lon="-5.254814554028429"><ele>219.0</ele><time>2026-04-25T12:08:51.999Z</time></trkpt><trkpt lat="36.546937992873005" lon="-5.254899712674812"><ele>219.0</ele><time>2026-04-25T12:08:52.999Z</time></trkpt><trkpt lat="36.546997097439174" lon="-5.25502851457382"><ele>219.0</ele><time>2026-04-25T12:08:54.999Z</time></trkpt><trkpt lat="36.54706497594344" lon="-5.255052783921638"><ele>219.0</ele><time>2026-04-25T12:08:55.999Z</time></trkpt><trkpt lat="36.547151122138814" lon="-5.255047981502032"><ele>219.6</ele><time>2026-04-25T12:08:56.999Z</time></trkpt><trkpt lat="36.54724217732526" lon="-5.2550400814892475"><ele>220.2</ele><time>2026-04-25T12:08:57.999Z</time></trkpt><trkpt lat="36.54733958733528" lon="-5.255058016045306"><ele>220.79999999999998</ele><time>2026-04-25T12:08:58.999Z</time></trkpt><trkpt lat="36.54743258953774" lon="-5.255103144555549"><ele>221.39999999999998</ele><time>2026-04-25T12:09:00Z</time></trkpt><trkpt lat="36.54752996886418" lon="-5.2551598047341646"><ele>222.0</ele><time>2026-04-25T12:09:01Z</time></trkpt><trkpt lat="36.54762995662445" lon="-5.255215407852516"><ele>222.0</ele><time>2026-04-25T12:09:02Z</time></trkpt><trkpt lat="36.547728196583385" lon="-5.255275096266642"><ele>222.0</ele><time>2026-04-25T12:09:03Z</time></trkpt><trkpt lat="36.54782061710732" lon="-5.255325013759773"><ele>222.0</ele><time>2026-04-25T12:09:04Z</time></trkpt><trkpt lat="36.54789590340862" lon="-5.255366594691445"><ele>222.0</ele><time>2026-04-25T12:09:05Z</time></trkpt><trkpt lat="36.54797227760338" lon="-5.255421105338089"><ele>222.0</ele><time>2026-04-25T12:09:06Z</time></trkpt><trkpt lat="36.548042336728166" lon="-5.255492308289619"><ele>224.6</ele><time>2026-04-25T12:09:07Z</time></trkpt><trkpt lat="36.54810326835525" lon="-5.2555722782075005"><ele>227.2</ele><time>2026-04-25T12:09:08Z</time></trkpt><trkpt lat="36.54817326653678" lon="-5.255644242437275"><ele>229.8</ele><time>2026-04-25T12:09:09Z</time></trkpt><trkpt lat="36.5482516578036" lon="-5.255701185868866"><ele>232.4</ele><time>2026-04-25T12:09:10Z</time></trkpt><trkpt lat="36.54833665084424" lon="-5.255746003255666"><ele>235.0</ele><time>2026-04-25T12:09:11Z</time></trkpt><trkpt lat="36.54842061049944" lon="-5.255788785841013"><ele>228.6</ele><time>2026-04-25T12:09:12Z</time></trkpt><trkpt lat="36.548481482439726" lon="-5.255829793150933"><ele>222.2</ele><time>2026-04-25T12:09:13Z</time></trkpt><trkpt lat="36.54852744872398" lon="-5.255941821106335"><ele>215.8</ele><time>2026-04-25T12:09:15Z</time></trkpt><trkpt lat="36.54846949626875" lon="-5.256102219441835"><ele>209.4</ele><time>2026-04-25T12:09:17Z</time></trkpt><trkpt lat="36.54839878782709" lon="-5.256178482062876"><ele>203.0</ele><time>2026-04-25T12:09:18Z</time></trkpt><trkpt lat="36.548329692025526" lon="-5.256249714847779"><ele>203.0</ele><time>2026-04-25T12:09:19Z</time></trkpt><trkpt lat="36.54826680310219" lon="-5.2563178463432765"><ele>203.0</ele><time>2026-04-25T12:09:20Z</time></trkpt><trkpt lat="36.54819693503459" lon="-5.256394293513319"><ele>203.0</ele><time>2026-04-25T12:09:21Z</time></trkpt><trkpt lat="36.54812360404265" lon="-5.256473053240523"><ele>203.0</ele><time>2026-04-25T12:09:22Z</time></trkpt><trkpt lat="36.54804567666236" lon="-5.256550269782998"><ele>203.0</ele><time>2026-04-25T12:09:23Z</time></trkpt><trkpt lat="36.54796155780493" lon="-5.256624104981609"><ele>200.4</ele><time>2026-04-25T12:09:24Z</time></trkpt><trkpt lat="36.54788891845961" lon="-5.256722712951191"><ele>197.8</ele><time>2026-04-25T12:09:25Z</time></trkpt><trkpt lat="36.54781509738814" lon="-5.256825507945846"><ele>195.2</ele><time>2026-04-25T12:09:26Z</time></trkpt><trkpt lat="36.5477568713303" lon="-5.2569245875045185"><ele>192.6</ele><time>2026-04-25T12:09:27Z</time></trkpt><trkpt lat="36.547698050446535" lon="-5.256993834959603"><ele>190.0</ele><time>2026-04-25T12:09:28Z</time></trkpt><trkpt lat="36.547662052737415" lon="-5.257070711005937"><ele>190.0</ele><time>2026-04-25T12:09:29Z</time></trkpt><trkpt lat="36.547664630797016" lon="-5.257199862402369"><ele>190.0</ele><time>2026-04-25T12:09:31Z</time></trkpt><trkpt lat="36.547749535568514" lon="-5.257234317234287"><ele>190.0</ele><time>2026-04-25T12:09:32Z</time></trkpt><trkpt lat="36.5478277420204" lon="-5.257313696270356"><ele>190.0</ele><time>2026-04-25T12:09:34Z</time></trkpt><trkpt lat="36.547905053269545" lon="-5.25739869617392"><ele>190.0</ele><time>2026-04-25T12:09:35Z</time></trkpt><trkpt lat="36.547981041242295" lon="-5.257517626291936"><ele>189.4</ele><time>2026-04-25T12:09:36Z</time></trkpt><trkpt lat="36.54805575628262" lon="-5.257603848620619"><ele>188.8</ele><time>2026-04-25T12:09:37Z</time></trkpt><trkpt lat="36.54814050478989" lon="-5.257659906280698"><ele>188.2</ele><time>2026-04-25T12:09:38Z</time></trkpt><trkpt lat="36.548235504399706" lon="-5.257703337452052"><ele>187.6</ele><time>2026-04-25T12:09:39Z</time></trkpt><trkpt lat="36.548328513581886" lon="-5.2577554950039405"><ele>187.0</ele><time>2026-04-25T12:09:40Z</time></trkpt><trkpt lat="36.5484086911696" lon="-5.257803034035986"><ele>187.0</ele><time>2026-04-25T12:09:41Z</time></trkpt><trkpt lat="36.54847702641388" lon="-5.257856273532137"><ele>187.0</ele><time>2026-04-25T12:09:42Z</time></trkpt><trkpt lat="36.54853656886157" lon="-5.257901963183875"><ele>187.0</ele><time>2026-04-25T12:09:43Z</time></trkpt><trkpt lat="36.54863863059545" lon="-5.257974473069374"><ele>187.0</ele><time>2026-04-25T12:09:45Z</time></trkpt><trkpt lat="36.54870823270656" lon="-5.258024879891487"><ele>187.0</ele><time>2026-04-25T12:09:47Z</time></trkpt><trkpt lat="36.54877696478344" lon="-5.258081589980555"><ele>187.0</ele><time>2026-04-25T12:09:49Z</time></trkpt><trkpt lat="36.54885187829766" lon="-5.258148532694032"><ele>186.6</ele><time>2026-04-25T12:09:51Z</time></trkpt><trkpt lat="36.54892709829859" lon="-5.258224311173045"><ele>186.2</ele><time>2026-04-25T12:09:53Z</time></trkpt><trkpt lat="36.54894994645613" lon="-5.258338670527068"><ele>185.8</ele><time>2026-04-25T12:09:55Z</time></trkpt><trkpt lat="36.54890803484483" lon="-5.2584249679384945"><ele>185.4</ele><time>2026-04-25T12:09:56Z</time></trkpt><trkpt lat="36.548845040891656" lon="-5.258530123915763"><ele>185.0</ele><time>2026-04-25T12:09:58Z</time></trkpt><trkpt lat="36.548776487191056" lon="-5.258627805907516"><ele>184.83333333333331</ele><time>2026-04-25T12:10:00Z</time></trkpt><trkpt lat="36.548701775633994" lon="-5.2587400208047335"><ele>184.66666666666666</ele><time>2026-04-25T12:10:02Z</time></trkpt><trkpt lat="36.54865460291419" lon="-5.258797331877754"><ele>184.5</ele><time>2026-04-25T12:10:03Z</time></trkpt><trkpt lat="36.54862323399368" lon="-5.258877619571906"><ele>184.33333333333334</ele><time>2026-04-25T12:10:04Z</time></trkpt><trkpt lat="36.548581610968775" lon="-5.25894848656242"><ele>184.16666666666669</ele><time>2026-04-25T12:10:05Z</time></trkpt><trkpt lat="36.548539602229596" lon="-5.259024873100411"><ele>184.0</ele><time>2026-04-25T12:10:06Z</time></trkpt><trkpt lat="36.548497037068785" lon="-5.259100241960725"><ele>184.79999999999998</ele><time>2026-04-25T12:10:07Z</time></trkpt><trkpt lat="36.548451957763206" lon="-5.259175564282898"><ele>185.6</ele><time>2026-04-25T12:10:08Z</time></trkpt><trkpt lat="36.54839274021249" lon="-5.259258195560452"><ele>186.4</ele><time>2026-04-25T12:10:09Z</time></trkpt><trkpt lat="36.54831665339187" lon="-5.25932329403437"><ele>187.2</ele><time>2026-04-25T12:10:10Z</time></trkpt><trkpt lat="36.54824577050845" lon="-5.2594019726976855"><ele>188.0</ele><time>2026-04-25T12:10:11Z</time></trkpt><trkpt lat="36.548170738351025" lon="-5.259486019602123"><ele>188.0</ele><time>2026-04-25T12:10:12Z</time></trkpt><trkpt lat="36.548097778543394" lon="-5.259567702490314"><ele>188.0</ele><time>2026-04-25T12:10:13Z</time></trkpt><trkpt lat="36.54802408739527" lon="-5.2596544106513745"><ele>188.0</ele><time>2026-04-25T12:10:13.999Z</time></trkpt><trkpt lat="36.54794601572146" lon="-5.259738583768416"><ele>188.0</ele><time>2026-04-25T12:10:14.999Z</time></trkpt><trkpt lat="36.547862023588756" lon="-5.259820514393138"><ele>188.0</ele><time>2026-04-25T12:10:15.999Z</time></trkpt><trkpt lat="36.54778352269371" lon="-5.259887954225744"><ele>190.5</ele><time>2026-04-25T12:10:16.999Z</time></trkpt><trkpt lat="36.54770693612164" lon="-5.259951066661408"><ele>193.0</ele><time>2026-04-25T12:10:17.999Z</time></trkpt><trkpt lat="36.54764022640589" lon="-5.260020167731439"><ele>195.5</ele><time>2026-04-25T12:10:18.999Z</time></trkpt><trkpt lat="36.54756650977299" lon="-5.260089601251452"><ele>198.0</ele><time>2026-04-25T12:10:19.999Z</time></trkpt><trkpt lat="36.54749771393678" lon="-5.260155179227791"><ele>200.50000000000003</ele><time>2026-04-25T12:10:20.999Z</time></trkpt><trkpt lat="36.54742600539059" lon="-5.260219288443797"><ele>203.0</ele><time>2026-04-25T12:10:21.999Z</time></trkpt><trkpt lat="36.5473469404991" lon="-5.260278256325109"><ele>203.0</ele><time>2026-04-25T12:10:22.999Z</time></trkpt><trkpt lat="36.54726418714134" lon="-5.260333962435977"><ele>203.0</ele><time>2026-04-25T12:10:23.999Z</time></trkpt><trkpt lat="36.547188766571196" lon="-5.260408640596291"><ele>203.0</ele><time>2026-04-25T12:10:24.999Z</time></trkpt><trkpt lat="36.54709521032041" lon="-5.260457821591456"><ele>203.0</ele><time>2026-04-25T12:10:25.999Z</time></trkpt><trkpt lat="36.54701303995204" lon="-5.260513989285188"><ele>203.0</ele><time>2026-04-25T12:10:26.999Z</time></trkpt><trkpt lat="36.54693967572071" lon="-5.260568914952981"><ele>200.33333333333334</ele><time>2026-04-25T12:10:27.999Z</time></trkpt><trkpt lat="36.54688148487899" lon="-5.260615316833209"><ele>197.66666666666669</ele><time>2026-04-25T12:10:28.999Z</time></trkpt><trkpt lat="36.546811169487256" lon="-5.260701787491613"><ele>195.0</ele><time>2026-04-25T12:10:30.999Z</time></trkpt><trkpt lat="36.54678335751352" lon="-5.260779687128496"><ele>192.33333333333334</ele><time>2026-04-25T12:10:31.999Z</time></trkpt><trkpt lat="36.546766762120704" lon="-5.260880283779747"><ele>189.66666666666669</ele><time>2026-04-25T12:10:32.999Z</time></trkpt><trkpt lat="36.54674796183341" lon="-5.260977926701426"><ele>187.0</ele><time>2026-04-25T12:10:33.999Z</time></trkpt><trkpt lat="36.546716250118266" lon="-5.261076295281811"><ele>193.8</ele><time>2026-04-25T12:10:34.999Z</time></trkpt><trkpt lat="36.54666394965256" lon="-5.2611549690152675"><ele>200.6</ele><time>2026-04-25T12:10:35.999Z</time></trkpt><trkpt lat="36.54659532991366" lon="-5.26122169267051"><ele>207.40000000000003</ele><time>2026-04-25T12:10:36.999Z</time></trkpt><trkpt lat="36.54651180469082" lon="-5.261260803641857"><ele>214.20000000000002</ele><time>2026-04-25T12:10:37.999Z</time></trkpt><trkpt lat="36.5464201629967" lon="-5.261299332823755"><ele>221.0</ele><time>2026-04-25T12:10:38.999Z</time></trkpt><trkpt lat="36.54633111444473" lon="-5.26134083647149"><ele>221.0</ele><time>2026-04-25T12:10:39.999Z</time></trkpt><trkpt lat="36.546231022126726" lon="-5.261330120726604"><ele>221.00000000000003</ele><time>2026-04-25T12:10:40.999Z</time></trkpt><trkpt lat="36.54614679494781" lon="-5.261241513365234"><ele>221.00000000000003</ele><time>2026-04-25T12:10:41.999Z</time></trkpt><trkpt lat="36.54606165664912" lon="-5.261215923922074"><ele>221.0</ele><time>2026-04-25T12:10:42.999Z</time></trkpt><trkpt lat="36.54599748147335" lon="-5.261202224302498"><ele>221.0</ele><time>2026-04-25T12:10:43.999Z</time></trkpt><trkpt lat="36.54588210255822" lon="-5.2612489652517205"><ele>218.4</ele><time>2026-04-25T12:10:45.999Z</time></trkpt><trkpt lat="36.54582024784216" lon="-5.261339743746203"><ele>215.8</ele><time>2026-04-25T12:10:46.999Z</time></trkpt><trkpt lat="36.54574721656191" lon="-5.261435802824524"><ele>213.20000000000002</ele><time>2026-04-25T12:10:47.999Z</time></trkpt><trkpt lat="36.545659469380304" lon="-5.261529604363136"><ele>210.60000000000002</ele><time>2026-04-25T12:10:48.999Z</time></trkpt><trkpt lat="36.54556527798123" lon="-5.261628357356393"><ele>208.0</ele><time>2026-04-25T12:10:49.999Z</time></trkpt><trkpt lat="36.54546741255743" lon="-5.261717984997694"><ele>214.5</ele><time>2026-04-25T12:10:50.999Z</time></trkpt><trkpt lat="36.54537229425905" lon="-5.261809465571673"><ele>221.0</ele><time>2026-04-25T12:10:51.999Z</time></trkpt><trkpt lat="36.54523788660019" lon="-5.261858938129015"><ele>227.5</ele><time>2026-04-25T12:10:52.999Z</time></trkpt><trkpt lat="36.545126696563614" lon="-5.261927964098395"><ele>234.0</ele><time>2026-04-25T12:10:53.999Z</time></trkpt><trkpt lat="36.54505120288935" lon="-5.261994818231468"><ele>234.0</ele><time>2026-04-25T12:10:54.999Z</time></trkpt><trkpt lat="36.54500140283429" lon="-5.2620666609600635"><ele>234.0</ele><time>2026-04-25T12:10:55.999Z</time></trkpt><trkpt lat="36.54497050714121" lon="-5.262154070122651"><ele>234.0</ele><time>2026-04-25T12:10:56.999Z</time></trkpt><trkpt lat="36.54495890655117" lon="-5.2622447346241685"><ele>234.0</ele><time>2026-04-25T12:10:57.999Z</time></trkpt><trkpt lat="36.54496725494455" lon="-5.262347411031974"><ele>234.0</ele><time>2026-04-25T12:10:58.999Z</time></trkpt><trkpt lat="36.54497473094895" lon="-5.262448133333863"><ele>234.0</ele><time>2026-04-25T12:10:59.999Z</time></trkpt><trkpt lat="36.54497650438036" lon="-5.262549858392218"><ele>238.39999999999998</ele><time>2026-04-25T12:11:00.999Z</time></trkpt><trkpt lat="36.544962787563385" lon="-5.262675342097108"><ele>242.79999999999998</ele><time>2026-04-25T12:11:02.999Z</time></trkpt><trkpt lat="36.544974379978946" lon="-5.262767149382755"><ele>247.20000000000002</ele><time>2026-04-25T12:11:17Z</time></trkpt><trkpt lat="36.544844910335584" lon="-5.262841905006049"><ele>251.60000000000002</ele><time>2026-04-25T12:11:18Z</time></trkpt><trkpt lat="36.54475709963759" lon="-5.262923172557611"><ele>256.0</ele><time>2026-04-25T12:11:20Z</time></trkpt><trkpt lat="36.54468958295484" lon="-5.2630142400145035"><ele>255.99999999999997</ele><time>2026-04-25T12:11:22Z</time></trkpt><trkpt lat="36.54456301779547" lon="-5.262999932918097"><ele>256.0</ele><time>2026-04-25T12:11:24Z</time></trkpt><trkpt lat="36.54451080446239" lon="-5.262935565610992"><ele>256.0</ele><time>2026-04-25T12:11:25Z</time></trkpt><trkpt lat="36.54451792935718" lon="-5.2628103483746465"><ele>256.0</ele><time>2026-04-25T12:11:26Z</time></trkpt><trkpt lat="36.54452978890667" lon="-5.262729748911592"><ele>255.99999999999997</ele><time>2026-04-25T12:11:27Z</time></trkpt><trkpt lat="36.544534964736506" lon="-5.262643174010566"><ele>256.0</ele><time>2026-04-25T12:11:28Z</time></trkpt><trkpt lat="36.544523261717494" lon="-5.262485449436321"><ele>251.42857142857142</ele><time>2026-04-25T12:11:30Z</time></trkpt><trkpt lat="36.54449324448071" lon="-5.262399683612556"><ele>246.85714285714283</ele><time>2026-04-25T12:11:31Z</time></trkpt><trkpt lat="36.54445743806325" lon="-5.2623192959334"><ele>242.28571428571428</ele><time>2026-04-25T12:11:32Z</time></trkpt><trkpt lat="36.544421046164594" lon="-5.262230047807528"><ele>237.71428571428572</ele><time>2026-04-25T12:11:33Z</time></trkpt><trkpt lat="36.544379897022225" lon="-5.262154273101582"><ele>233.14285714285714</ele><time>2026-04-25T12:11:34Z</time></trkpt><trkpt lat="36.54433076348676" lon="-5.262076777545523"><ele>228.57142857142856</ele><time>2026-04-25T12:11:35Z</time></trkpt><trkpt lat="36.544290939001314" lon="-5.262009239879379"><ele>224.0</ele><time>2026-04-25T12:11:36Z</time></trkpt><trkpt lat="36.544235885661266" lon="-5.261872978032471"><ele>223.00000000000003</ele><time>2026-04-25T12:11:38Z</time></trkpt><trkpt lat="36.544234146626614" lon="-5.261788704002461"><ele>222.0</ele><time>2026-04-25T12:11:39Z</time></trkpt><trkpt lat="36.54426631944121" lon="-5.261706221302891"><ele>221.0</ele><time>2026-04-25T12:11:40Z</time></trkpt><trkpt lat="36.54432067279138" lon="-5.261654680654797"><ele>220.0</ele><time>2026-04-25T12:11:41Z</time></trkpt><trkpt lat="36.544401259607106" lon="-5.261673662679642"><ele>219.00000000000003</ele><time>2026-04-25T12:11:42Z</time></trkpt><trkpt lat="36.54453153638319" lon="-5.261729178178477"><ele>218.0</ele><time>2026-04-25T12:11:44Z</time></trkpt><trkpt lat="36.54460206694816" lon="-5.2617299446628"><ele>220.66666666666669</ele><time>2026-04-25T12:11:45Z</time></trkpt><trkpt lat="36.54468042347852" lon="-5.2616907531077"><ele>223.33333333333334</ele><time>2026-04-25T12:11:46Z</time></trkpt><trkpt lat="36.544742583946665" lon="-5.2616142310554945"><ele>226.0</ele><time>2026-04-25T12:11:47Z</time></trkpt><trkpt lat="36.54483223286151" lon="-5.261570485297977"><ele>228.66666666666669</ele><time>2026-04-25T12:11:48Z</time></trkpt><trkpt lat="36.54489883564825" lon="-5.261524060245732"><ele>231.33333333333334</ele><time>2026-04-25T12:11:49Z</time></trkpt><trkpt lat="36.544962981961646" lon="-5.261494407907104"><ele>234.0</ele><time>2026-04-25T12:11:50Z</time></trkpt><trkpt lat="36.545047036081684" lon="-5.261448975283063"><ele>227.83333333333334</ele><time>2026-04-25T12:11:52Z</time></trkpt><trkpt lat="36.545038726610585" lon="-5.261359644682097"><ele>221.66666666666669</ele><time>2026-04-25T12:11:54Z</time></trkpt><trkpt lat="36.54490484450328" lon="-5.261380061747863"><ele>215.5</ele><time>2026-04-25T12:11:56Z</time></trkpt><trkpt lat="36.544834713470195" lon="-5.261398902482582"><ele>209.33333333333334</ele><time>2026-04-25T12:11:57Z</time></trkpt><trkpt lat="36.544754853388994" lon="-5.261419408366061"><ele>203.16666666666669</ele><time>2026-04-25T12:11:58Z</time></trkpt><trkpt lat="36.54468113913657" lon="-5.261406227034978"><ele>197.0</ele><time>2026-04-25T12:11:59Z</time></trkpt><trkpt lat="36.54460570575255" lon="-5.261362896955224"><ele>197.00000000000003</ele><time>2026-04-25T12:12:00Z</time></trkpt><trkpt lat="36.54454640886234" lon="-5.261328289210968"><ele>197.0</ele><time>2026-04-25T12:12:01Z</time></trkpt><trkpt lat="36.544477415981" lon="-5.261271879218556"><ele>197.0</ele><time>2026-04-25T12:12:02Z</time></trkpt><trkpt lat="36.54438913058921" lon="-5.26123912310787"><ele>197.0</ele><time>2026-04-25T12:12:04Z</time></trkpt><trkpt lat="36.54427806428312" lon="-5.261270426055173"><ele>197.00000000000003</ele><time>2026-04-25T12:12:06Z</time></trkpt><trkpt lat="36.54421818606769" lon="-5.261310035737305"><ele>197.0</ele><time>2026-04-25T12:12:07Z</time></trkpt><trkpt lat="36.54410215830258" lon="-5.261333945801611"><ele>195.83333333333334</ele><time>2026-04-25T12:12:09Z</time></trkpt><trkpt lat="36.54404022458935" lon="-5.261305244559083"><ele>194.66666666666669</ele><time>2026-04-25T12:12:10Z</time></trkpt><trkpt lat="36.5439313660132" lon="-5.261233090571842"><ele>193.5</ele><time>2026-04-25T12:12:12Z</time></trkpt><trkpt lat="36.543841594593324" lon="-5.261193262652514"><ele>192.33333333333334</ele><time>2026-04-25T12:12:14Z</time></trkpt><trkpt lat="36.54375596336622" lon="-5.2612341077687"><ele>191.16666666666669</ele><time>2026-04-25T12:12:16Z</time></trkpt><trkpt lat="36.54369202234207" lon="-5.261257611857375"><ele>190.0</ele><time>2026-04-25T12:12:17Z</time></trkpt><trkpt lat="36.54363145561147" lon="-5.2612920816150925"><ele>190.0</ele><time>2026-04-25T12:12:18Z</time></trkpt><trkpt lat="36.54357713406722" lon="-5.2613514492582825"><ele>190.0</ele><time>2026-04-25T12:12:19Z</time></trkpt><trkpt lat="36.54351964351788" lon="-5.26138803982297"><ele>190.0</ele><time>2026-04-25T12:12:20Z</time></trkpt><trkpt lat="36.54344648759502" lon="-5.261431520173849"><ele>190.0</ele><time>2026-04-25T12:12:21Z</time></trkpt><trkpt lat="36.54339948389694" lon="-5.261493870374316"><ele>190.0</ele><time>2026-04-25T12:12:22Z</time></trkpt><trkpt lat="36.54336845260283" lon="-5.261566477738367"><ele>190.0</ele><time>2026-04-25T12:12:23Z</time></trkpt><trkpt lat="36.54334747907986" lon="-5.2616510246654755"><ele>190.0</ele><time>2026-04-25T12:12:24Z</time></trkpt><trkpt lat="36.54334413825224" lon="-5.2617415330935815"><ele>190.0</ele><time>2026-04-25T12:12:24.999Z</time></trkpt><trkpt lat="36.54334776314849" lon="-5.261828408182352"><ele>190.0</ele><time>2026-04-25T12:12:25.999Z</time></trkpt><trkpt lat="36.543343504212764" lon="-5.261960258671231"><ele>190.0</ele><time>2026-04-25T12:12:27.999Z</time></trkpt><trkpt lat="36.54327908684062" lon="-5.262041830082912"><ele>190.0</ele><time>2026-04-25T12:12:29.999Z</time></trkpt><trkpt lat="36.54318465219809" lon="-5.262102193733393"><ele>190.0</ele><time>2026-04-25T12:12:31.999Z</time></trkpt><trkpt lat="36.54307684139619" lon="-5.26205039245953"><ele>190.0</ele><time>2026-04-25T12:12:33.999Z</time></trkpt><trkpt lat="36.543056343608534" lon="-5.261954142127309"><ele>190.0</ele><time>2026-04-25T12:12:34.999Z</time></trkpt><trkpt lat="36.54300307244713" lon="-5.261907029692157"><ele>190.0</ele><time>2026-04-25T12:12:35.999Z</time></trkpt><trkpt lat="36.54295398828851" lon="-5.261839881701777"><ele>190.0</ele><time>2026-04-25T12:12:36.999Z</time></trkpt><trkpt lat="36.542901774319766" lon="-5.261776812185412"><ele>190.0</ele><time>2026-04-25T12:12:37.999Z</time></trkpt><trkpt lat="36.54278731447682" lon="-5.261690803806825"><ele>190.0</ele><time>2026-04-25T12:12:39.999Z</time></trkpt><trkpt lat="36.54271534676329" lon="-5.261662256681883"><ele>190.66666666666669</ele><time>2026-04-25T12:12:40.999Z</time></trkpt><trkpt lat="36.542645915100806" lon="-5.261672460533011"><ele>191.33333333333334</ele><time>2026-04-25T12:12:41.999Z</time></trkpt><trkpt lat="36.542562157157576" lon="-5.261685723826799"><ele>192.0</ele><time>2026-04-25T12:12:42.999Z</time></trkpt><trkpt lat="36.54247900593341" lon="-5.261697550580747"><ele>192.66666666666669</ele><time>2026-04-25T12:12:43.999Z</time></trkpt><trkpt lat="36.54238427564269" lon="-5.26170404013293"><ele>193.33333333333334</ele><time>2026-04-25T12:12:44.999Z</time></trkpt><trkpt lat="36.542288611355495" lon="-5.261711302812026"><ele>194.0</ele><time>2026-04-25T12:12:45.999Z</time></trkpt><trkpt lat="36.542194997330526" lon="-5.261710086999777"><ele>194.0</ele><time>2026-04-25T12:12:46.999Z</time></trkpt><trkpt lat="36.542106579668676" lon="-5.2617107180548395"><ele>194.0</ele><time>2026-04-25T12:12:47.999Z</time></trkpt><trkpt lat="36.542016880369474" lon="-5.261684657321443"><ele>194.0</ele><time>2026-04-25T12:12:48.999Z</time></trkpt><trkpt lat="36.54193206554549" lon="-5.261626247739276"><ele>194.0</ele><time>2026-04-25T12:12:49.999Z</time></trkpt><trkpt lat="36.54184973575644" lon="-5.261557092047231"><ele>194.0</ele><time>2026-04-25T12:12:50.999Z</time></trkpt><trkpt lat="36.54175512628831" lon="-5.261510177019525"><ele>192.0</ele><time>2026-04-25T12:12:51.999Z</time></trkpt><trkpt lat="36.54166687676339" lon="-5.261440669162817"><ele>190.0</ele><time>2026-04-25T12:12:52.999Z</time></trkpt><trkpt lat="36.541579647102104" lon="-5.261388474413186"><ele>188.0</ele><time>2026-04-25T12:12:53.999Z</time></trkpt><trkpt lat="36.541491032180694" lon="-5.26133456798731"><ele>186.0</ele><time>2026-04-25T12:12:54.999Z</time></trkpt><trkpt lat="36.541402635953176" lon="-5.261285656417205"><ele>184.0</ele><time>2026-04-25T12:12:55.999Z</time></trkpt><trkpt lat="36.541312388784256" lon="-5.261227721343972"><ele>184.0</ele><time>2026-04-25T12:12:56.999Z</time></trkpt><trkpt lat="36.54121970501886" lon="-5.26116193566069"><ele>184.0</ele><time>2026-04-25T12:12:57.999Z</time></trkpt><trkpt lat="36.541149064594" lon="-5.261087117624642"><ele>184.0</ele><time>2026-04-25T12:12:58.999Z</time></trkpt><trkpt lat="36.54108890901164" lon="-5.26099336830722"><ele>184.0</ele><time>2026-04-25T12:12:59.999Z</time></trkpt><trkpt lat="36.5410307989031" lon="-5.26091966855269"><ele>184.0</ele><time>2026-04-25T12:13:00.999Z</time></trkpt><trkpt lat="36.540961152664714" lon="-5.260874617200053"><ele>184.83333333333334</ele><time>2026-04-25T12:13:01.999Z</time></trkpt><trkpt lat="36.54090278472668" lon="-5.260835649153676"><ele>185.66666666666669</ele><time>2026-04-25T12:13:02.999Z</time></trkpt><trkpt lat="36.54083750765926" lon="-5.260829281679623"><ele>186.5</ele><time>2026-04-25T12:13:03.999Z</time></trkpt><trkpt lat="36.54078293681311" lon="-5.2607798965925765"><ele>187.33333333333334</ele><time>2026-04-25T12:13:04.999Z</time></trkpt><trkpt lat="36.54071958752353" lon="-5.260708657179662"><ele>188.16666666666666</ele><time>2026-04-25T12:13:05.999Z</time></trkpt><trkpt lat="36.540691080364006" lon="-5.2606233950189605"><ele>189.0</ele><time>2026-04-25T12:13:06.999Z</time></trkpt><trkpt lat="36.54060252365684" lon="-5.260555758950187"><ele>189.0</ele><time>2026-04-25T12:13:07.999Z</time></trkpt><trkpt lat="36.54055564878591" lon="-5.260461129547038"><ele>189.0</ele><time>2026-04-25T12:13:08.999Z</time></trkpt><trkpt lat="36.540516429041816" lon="-5.2603537370869855"><ele>189.0</ele><time>2026-04-25T12:13:09.999Z</time></trkpt><trkpt lat="36.54049586671433" lon="-5.260236552335941"><ele>189.0</ele><time>2026-04-25T12:13:10.999Z</time></trkpt><trkpt lat="36.54046906673755" lon="-5.260129796419196"><ele>189.0</ele><time>2026-04-25T12:13:12Z</time></trkpt><trkpt lat="36.540388462780165" lon="-5.260028350621181"><ele>191.66666666666666</ele><time>2026-04-25T12:13:14Z</time></trkpt><trkpt lat="36.54032096319328" lon="-5.2599760854521485"><ele>194.33333333333331</ele><time>2026-04-25T12:13:15Z</time></trkpt><trkpt lat="36.5402552912881" lon="-5.259921348578085"><ele>197.0</ele><time>2026-04-25T12:13:16Z</time></trkpt><trkpt lat="36.5402053942132" lon="-5.259858843757331"><ele>199.66666666666666</ele><time>2026-04-25T12:13:17Z</time></trkpt><trkpt lat="36.54014654112985" lon="-5.259800339657669"><ele>202.33333333333331</ele><time>2026-04-25T12:13:18Z</time></trkpt><trkpt lat="36.54009086487289" lon="-5.259733104220047"><ele>205.0</ele><time>2026-04-25T12:13:19Z</time></trkpt><trkpt lat="36.5400279119169" lon="-5.259668157491168"><ele>204.99999999999997</ele><time>2026-04-25T12:13:20Z</time></trkpt><trkpt lat="36.539973242897126" lon="-5.259604242135637"><ele>205.0</ele><time>2026-04-25T12:13:21Z</time></trkpt><trkpt lat="36.53992587612818" lon="-5.259547298804203"><ele>205.0</ele><time>2026-04-25T12:13:22Z</time></trkpt><trkpt lat="36.539861823608256" lon="-5.259500767628155"><ele>205.0</ele><time>2026-04-25T12:13:23Z</time></trkpt><trkpt lat="36.53981358127573" lon="-5.259416771429737"><ele>204.99999999999997</ele><time>2026-04-25T12:13:24Z</time></trkpt><trkpt lat="36.539700466670276" lon="-5.259454815572197"><ele>205.0</ele><time>2026-04-25T12:13:25Z</time></trkpt><trkpt lat="36.53961637878601" lon="-5.259431948187907"><ele>205.0</ele><time>2026-04-25T12:13:26Z</time></trkpt><trkpt lat="36.53955113999065" lon="-5.259408775477864"><ele>205.0</ele><time>2026-04-25T12:13:27Z</time></trkpt><trkpt lat="36.539442439435135" lon="-5.259420531190869"><ele>205.0</ele><time>2026-04-25T12:13:29Z</time></trkpt><trkpt lat="36.539367479948126" lon="-5.259432060854981"><ele>205.0</ele><time>2026-04-25T12:13:30Z</time></trkpt><trkpt lat="36.53929804741596" lon="-5.259513430333443"><ele>205.0</ele><time>2026-04-25T12:13:31Z</time></trkpt><trkpt lat="36.539271277029734" lon="-5.259638813925062"><ele>205.6</ele><time>2026-04-25T12:13:32Z</time></trkpt><trkpt lat="36.53923038276081" lon="-5.259718509977206"><ele>206.2</ele><time>2026-04-25T12:13:33Z</time></trkpt><trkpt lat="36.53911852560209" lon="-5.2597994000450825"><ele>206.8</ele><time>2026-04-25T12:13:35Z</time></trkpt><trkpt lat="36.53902989519627" lon="-5.259807900578351"><ele>207.4</ele><time>2026-04-25T12:13:36Z</time></trkpt><trkpt lat="36.53892032717721" lon="-5.259807531874729"><ele>208.0</ele><time>2026-04-25T12:13:37Z</time></trkpt><trkpt lat="36.53882262161498" lon="-5.259820902125709"><ele>208.33333333333331</ele><time>2026-04-25T12:13:38Z</time></trkpt><trkpt lat="36.53872179815256" lon="-5.2598609235522185"><ele>208.66666666666666</ele><time>2026-04-25T12:13:39Z</time></trkpt><trkpt lat="36.53863339020422" lon="-5.259863059159665"><ele>209.0</ele><time>2026-04-25T12:13:40Z</time></trkpt><trkpt lat="36.53855136873341" lon="-5.259818224825659"><ele>209.33333333333331</ele><time>2026-04-25T12:13:41Z</time></trkpt><trkpt lat="36.53848248620307" lon="-5.259769021038145"><ele>209.66666666666666</ele><time>2026-04-25T12:13:42Z</time></trkpt><trkpt lat="36.53840860313677" lon="-5.259730687450342"><ele>210.0</ele><time>2026-04-25T12:13:43Z</time></trkpt><trkpt lat="36.53832552128818" lon="-5.259731710939816"><ele>210.0</ele><time>2026-04-25T12:13:44Z</time></trkpt><trkpt lat="36.53825753276165" lon="-5.259778683694353"><ele>210.0</ele><time>2026-04-25T12:13:45Z</time></trkpt><trkpt lat="36.53822596780287" lon="-5.259850659369418"><ele>210.0</ele><time>2026-04-25T12:13:46Z</time></trkpt><trkpt lat="36.5382213626988" lon="-5.25995571635091"><ele>210.0</ele><time>2026-04-25T12:13:47Z</time></trkpt><trkpt lat="36.53824480312918" lon="-5.260066540928831"><ele>210.0</ele><time>2026-04-25T12:13:48Z</time></trkpt><trkpt lat="36.53830331627006" lon="-5.260222226573037"><ele>215.0</ele><time>2026-04-25T12:13:49Z</time></trkpt><trkpt lat="36.53837004764425" lon="-5.260405760155826"><ele>220.0</ele><time>2026-04-25T12:13:50Z</time></trkpt><trkpt lat="36.538400778903885" lon="-5.26054723515061"><ele>225.0</ele><time>2026-04-25T12:13:51Z</time></trkpt><trkpt lat="36.538397876196306" lon="-5.260698206091288"><ele>230.0</ele><time>2026-04-25T12:13:52Z</time></trkpt><trkpt lat="36.5383791239679" lon="-5.260860266607848"><ele>232.6</ele><time>2026-04-25T12:13:53Z</time></trkpt><trkpt lat="36.538389780700754" lon="-5.2610009155744955"><ele>235.2</ele><time>2026-04-25T12:13:54Z</time></trkpt><trkpt lat="36.53841177533112" lon="-5.26109898395416"><ele>237.8</ele><time>2026-04-25T12:13:55Z</time></trkpt><trkpt lat="36.53839257734562" lon="-5.26119795837167"><ele>240.4</ele><time>2026-04-25T12:13:56Z</time></trkpt><trkpt lat="36.538321594760376" lon="-5.261310022144819"><ele>243.0</ele><time>2026-04-25T12:13:57Z</time></trkpt><trkpt lat="36.53824973184477" lon="-5.261412978166414"><ele>245.4</ele><time>2026-04-25T12:13:58Z</time></trkpt><trkpt lat="36.53819860671523" lon="-5.261500047021555"><ele>247.8</ele><time>2026-04-25T12:13:59Z</time></trkpt><trkpt lat="36.53818438812305" lon="-5.261607432305319"><ele>250.2</ele><time>2026-04-25T12:14:00Z</time></trkpt><trkpt lat="36.538201424776126" lon="-5.2617405782303655"><ele>252.6</ele><time>2026-04-25T12:14:01Z</time></trkpt><trkpt lat="36.538226091202205" lon="-5.26187451767087"><ele>255.0</ele><time>2026-04-25T12:14:02Z</time></trkpt><trkpt lat="36.53822954401565" lon="-5.261994472581636"><ele>255.0</ele><time>2026-04-25T12:14:03Z</time></trkpt><trkpt lat="36.538203984571325" lon="-5.26209103929328"><ele>255.0</ele><time>2026-04-25T12:14:04Z</time></trkpt><trkpt lat="36.53815057615576" lon="-5.262172996951796"><ele>255.0</ele><time>2026-04-25T12:14:05Z</time></trkpt><trkpt lat="36.53810377047329" lon="-5.262277109577355"><ele>255.0</ele><time>2026-04-25T12:14:06Z</time></trkpt><trkpt lat="36.538083687772684" lon="-5.262382416691901"><ele>255.0</ele><time>2026-04-25T12:14:07Z</time></trkpt><trkpt lat="36.538069115881584" lon="-5.262486527731753"><ele>255.0</ele><time>2026-04-25T12:14:08Z</time></trkpt><trkpt lat="36.53804111227912" lon="-5.262582012867317"><ele>258.0</ele><time>2026-04-25T12:14:09Z</time></trkpt><trkpt lat="36.53798878339661" lon="-5.262653545375434"><ele>261.0</ele><time>2026-04-25T12:14:10Z</time></trkpt><trkpt lat="36.537923488802065" lon="-5.262710664913531"><ele>264.0</ele><time>2026-04-25T12:14:11Z</time></trkpt><trkpt lat="36.537862298452254" lon="-5.262785882168073"><ele>267.0</ele><time>2026-04-25T12:14:12Z</time></trkpt><trkpt lat="36.5377857601908" lon="-5.262864727727878"><ele>270.0</ele><time>2026-04-25T12:14:13Z</time></trkpt><trkpt lat="36.537778916507534" lon="-5.263008164618739"><ele>267.0</ele><time>2026-04-25T12:14:14Z</time></trkpt><trkpt lat="36.53770974535465" lon="-5.26309837121874"><ele>264.0</ele><time>2026-04-25T12:14:15Z</time></trkpt><trkpt lat="36.537639116364964" lon="-5.26319588665191"><ele>261.0</ele><time>2026-04-25T12:14:15.999Z</time></trkpt><trkpt lat="36.537598441709584" lon="-5.2633057828669445"><ele>258.0</ele><time>2026-04-25T12:14:16.999Z</time></trkpt><trkpt lat="36.53757123635576" lon="-5.263430608442118"><ele>255.0</ele><time>2026-04-25T12:14:17.999Z</time></trkpt><trkpt lat="36.53753982700098" lon="-5.263569819998826"><ele>255.0</ele><time>2026-04-25T12:14:18.999Z</time></trkpt><trkpt lat="36.53750535121223" lon="-5.263704901590511"><ele>255.0</ele><time>2026-04-25T12:14:19.999Z</time></trkpt><trkpt lat="36.53747050815845" lon="-5.263827328131789"><ele>255.0</ele><time>2026-04-25T12:14:20.999Z</time></trkpt><trkpt lat="36.53743405536884" lon="-5.263918049018372"><ele>255.0</ele><time>2026-04-25T12:14:21.999Z</time></trkpt><trkpt lat="36.53739706908505" lon="-5.263990466944029"><ele>255.0</ele><time>2026-04-25T12:14:22.999Z</time></trkpt><trkpt lat="36.53737584437286" lon="-5.264096812189155"><ele>258.75</ele><time>2026-04-25T12:14:23.999Z</time></trkpt><trkpt lat="36.53736442041276" lon="-5.264231323946418"><ele>262.5</ele><time>2026-04-25T12:14:24.999Z</time></trkpt><trkpt lat="36.53735379128993" lon="-5.264381459194041"><ele>266.25</ele><time>2026-04-25T12:14:25.999Z</time></trkpt><trkpt lat="36.53734779176636" lon="-5.264528323589094"><ele>270.0</ele><time>2026-04-25T12:14:26.999Z</time></trkpt><trkpt lat="36.53734433190367" lon="-5.264674983684025"><ele>271.2</ele><time>2026-04-25T12:14:27.999Z</time></trkpt><trkpt lat="36.53734703618242" lon="-5.264825419691067"><ele>272.4</ele><time>2026-04-25T12:14:28.999Z</time></trkpt><trkpt lat="36.53736270330026" lon="-5.264964303877727"><ele>273.6</ele><time>2026-04-25T12:14:29.999Z</time></trkpt><trkpt lat="36.53738347859063" lon="-5.265082656810712"><ele>274.8</ele><time>2026-04-25T12:14:30.999Z</time></trkpt><trkpt lat="36.53740314000365" lon="-5.26517768407626"><ele>276.0</ele><time>2026-04-25T12:14:31.999Z</time></trkpt><trkpt lat="36.537441813170226" lon="-5.26528001021075"><ele>276.0</ele><time>2026-04-25T12:14:32.999Z</time></trkpt><trkpt lat="36.53748531258901" lon="-5.265389970851445"><ele>276.0</ele><time>2026-04-25T12:14:33.999Z</time></trkpt><trkpt lat="36.53751641854107" lon="-5.265505425253312"><ele>276.0</ele><time>2026-04-25T12:14:34.999Z</time></trkpt><trkpt lat="36.53755369685682" lon="-5.265635061942749"><ele>276.0</ele><time>2026-04-25T12:14:35.999Z</time></trkpt><trkpt lat="36.537606860960025" lon="-5.265757319273862"><ele>276.0</ele><time>2026-04-25T12:14:36.999Z</time></trkpt><trkpt lat="36.53767243346889" lon="-5.265859107652776"><ele>276.2</ele><time>2026-04-25T12:14:37.999Z</time></trkpt><trkpt lat="36.53773180057844" lon="-5.265964937993784"><ele>276.40000000000003</ele><time>2026-04-25T12:14:38.999Z</time></trkpt><trkpt lat="36.537778614429726" lon="-5.26607633921343"><ele>276.6</ele><time>2026-04-25T12:14:39.999Z</time></trkpt><trkpt lat="36.53780863860353" lon="-5.266193911030534"><ele>276.8</ele><time>2026-04-25T12:14:40.999Z</time></trkpt><trkpt lat="36.53784011788451" lon="-5.266319334560689"><ele>277.0</ele><time>2026-04-25T12:14:41.999Z</time></trkpt><trkpt lat="36.53786652427736" lon="-5.26645364081329"><ele>280.8</ele><time>2026-04-25T12:14:42.999Z</time></trkpt><trkpt lat="36.537902224208985" lon="-5.266588748641345"><ele>284.6</ele><time>2026-04-25T12:14:43.999Z</time></trkpt><trkpt lat="36.53794131315715" lon="-5.266713953915512"><ele>288.40000000000003</ele><time>2026-04-25T12:14:44.999Z</time></trkpt><trkpt lat="36.53799161906895" lon="-5.266831931836703"><ele>292.2</ele><time>2026-04-25T12:14:45.999Z</time></trkpt><trkpt lat="36.538045288002635" lon="-5.266954570140852"><ele>296.0</ele><time>2026-04-25T12:14:46.999Z</time></trkpt><trkpt lat="36.538098885646164" lon="-5.267058542007915"><ele>296.0</ele><time>2026-04-25T12:14:47.999Z</time></trkpt><trkpt lat="36.538139380424276" lon="-5.267142190432698"><ele>296.0</ele><time>2026-04-25T12:14:48.999Z</time></trkpt><trkpt lat="36.53813101948667" lon="-5.267222290614554"><ele>296.0</ele><time>2026-04-25T12:14:50.999Z</time></trkpt><trkpt lat="36.53803014513797" lon="-5.267316734040781"><ele>296.0</ele><time>2026-04-25T12:14:52.999Z</time></trkpt><trkpt lat="36.53794209286617" lon="-5.267257936874855"><ele>296.0</ele><time>2026-04-25T12:14:53.999Z</time></trkpt><trkpt lat="36.537902590898945" lon="-5.267155244241868"><ele>294.5</ele><time>2026-04-25T12:14:54.999Z</time></trkpt><trkpt lat="36.537860195203976" lon="-5.267094145846525"><ele>293.0</ele><time>2026-04-25T12:14:55.999Z</time></trkpt><trkpt lat="36.537811392492856" lon="-5.267030924433527"><ele>291.5</ele><time>2026-04-25T12:14:56.999Z</time></trkpt><trkpt lat="36.53776295951061" lon="-5.266977058275285"><ele>290.0</ele><time>2026-04-25T12:14:57.999Z</time></trkpt><trkpt lat="36.537718077953556" lon="-5.2669207068485155"><ele>288.5</ele><time>2026-04-25T12:14:58.999Z</time></trkpt><trkpt lat="36.537684198644925" lon="-5.266843378078005"><ele>287.0</ele><time>2026-04-25T12:14:59.999Z</time></trkpt><trkpt lat="36.537593240188244" lon="-5.266718355935598"><ele>287.0</ele><time>2026-04-25T12:15:01.999Z</time></trkpt><trkpt lat="36.53754665177635" lon="-5.266658135667826"><ele>287.0</ele><time>2026-04-25T12:15:02.999Z</time></trkpt><trkpt lat="36.53748727752781" lon="-5.266590910395607"><ele>287.0</ele><time>2026-04-25T12:15:03.999Z</time></trkpt><trkpt lat="36.53743006080601" lon="-5.266524940744323"><ele>287.0</ele><time>2026-04-25T12:15:04.999Z</time></trkpt><trkpt lat="36.5373524680248" lon="-5.266484167842818"><ele>287.0</ele><time>2026-04-25T12:15:05.999Z</time></trkpt><trkpt lat="36.537288735387776" lon="-5.266405539933034"><ele>287.0</ele><time>2026-04-25T12:15:06.999Z</time></trkpt><trkpt lat="36.53723146325178" lon="-5.2663363224350075"><ele>285.33333333333337</ele><time>2026-04-25T12:15:07.999Z</time></trkpt><trkpt lat="36.537188441601046" lon="-5.266247550735045"><ele>283.6666666666667</ele><time>2026-04-25T12:15:08.999Z</time></trkpt><trkpt lat="36.5371552052237" lon="-5.2661418749409545"><ele>282.0</ele><time>2026-04-25T12:15:09.999Z</time></trkpt><trkpt lat="36.5371332268822" lon="-5.266029345655696"><ele>280.3333333333333</ele><time>2026-04-25T12:15:10.999Z</time></trkpt><trkpt lat="36.53710761195805" lon="-5.265930416427664"><ele>278.66666666666663</ele><time>2026-04-25T12:15:11.999Z</time></trkpt><trkpt lat="36.53705024343628" lon="-5.265851098334859"><ele>277.0</ele><time>2026-04-25T12:15:12.999Z</time></trkpt><trkpt lat="36.53699432322208" lon="-5.265777213352185"><ele>278.0</ele><time>2026-04-25T12:15:13.999Z</time></trkpt><trkpt lat="36.53692364229193" lon="-5.265711357251619"><ele>279.0</ele><time>2026-04-25T12:15:14.999Z</time></trkpt><trkpt lat="36.5368544701437" lon="-5.265658058478287"><ele>280.0</ele><time>2026-04-25T12:15:15.999Z</time></trkpt><trkpt lat="36.53677922317815" lon="-5.265594349469623"><ele>281.0</ele><time>2026-04-25T12:15:16.999Z</time></trkpt><trkpt lat="36.53672663447172" lon="-5.265486498674024"><ele>282.0</ele><time>2026-04-25T12:15:18Z</time></trkpt><trkpt lat="36.53665514254859" lon="-5.265395524154827"><ele>282.0</ele><time>2026-04-25T12:15:19Z</time></trkpt><trkpt lat="36.53660371629805" lon="-5.265274644994154"><ele>282.0</ele><time>2026-04-25T12:15:20Z</time></trkpt><trkpt lat="36.53655651235877" lon="-5.265156473037864"><ele>282.0</ele><time>2026-04-25T12:15:21Z</time></trkpt><trkpt lat="36.53651609119499" lon="-5.265051790145887"><ele>282.0</ele><time>2026-04-25T12:15:22Z</time></trkpt><trkpt lat="36.536461904365616" lon="-5.26496246405075"><ele>282.0</ele><time>2026-04-25T12:15:23Z</time></trkpt><trkpt lat="36.536389591923154" lon="-5.2648849228313175"><ele>282.0</ele><time>2026-04-25T12:15:24Z</time></trkpt><trkpt lat="36.536321513138546" lon="-5.2648174761265185"><ele>282.0</ele><time>2026-04-25T12:15:25Z</time></trkpt><trkpt lat="36.53626113596411" lon="-5.264735425807674"><ele>282.0</ele><time>2026-04-25T12:15:26Z</time></trkpt><trkpt lat="36.53620271734152" lon="-5.264652902231527"><ele>282.0</ele><time>2026-04-25T12:15:27Z</time></trkpt><trkpt lat="36.53614093116286" lon="-5.26456937402617"><ele>282.0</ele><time>2026-04-25T12:15:28Z</time></trkpt><trkpt lat="36.53608524491261" lon="-5.264505611330104"><ele>282.0</ele><time>2026-04-25T12:15:29Z</time></trkpt><trkpt lat="36.53602479828717" lon="-5.264482002509874"><ele>283.8571428571429</ele><time>2026-04-25T12:15:30Z</time></trkpt><trkpt lat="36.53596000269115" lon="-5.2644818551517005"><ele>285.7142857142857</ele><time>2026-04-25T12:15:31Z</time></trkpt><trkpt lat="36.535890861068694" lon="-5.26450274821146"><ele>287.57142857142856</ele><time>2026-04-25T12:15:32Z</time></trkpt><trkpt lat="36.535806725075034" lon="-5.264529516021921"><ele>289.42857142857144</ele><time>2026-04-25T12:15:33Z</time></trkpt><trkpt lat="36.53572611728372" lon="-5.264544598215646"><ele>291.2857142857143</ele><time>2026-04-25T12:15:34Z</time></trkpt><trkpt lat="36.53565144512703" lon="-5.264530980366739"><ele>293.14285714285717</ele><time>2026-04-25T12:15:35Z</time></trkpt><trkpt lat="36.53559162416828" lon="-5.2644997414615355"><ele>295.0</ele><time>2026-04-25T12:15:36Z</time></trkpt><trkpt lat="36.53555353258099" lon="-5.264420849438308"><ele>295.0</ele><time>2026-04-25T12:15:37Z</time></trkpt><trkpt lat="36.53556858486152" lon="-5.264299889516578"><ele>295.0</ele><time>2026-04-25T12:15:38Z</time></trkpt><trkpt lat="36.53553575292429" lon="-5.264224471827013"><ele>295.0</ele><time>2026-04-25T12:15:39Z</time></trkpt><trkpt lat="36.53550464182722" lon="-5.264147392368388"><ele>295.0</ele><time>2026-04-25T12:15:40Z</time></trkpt><trkpt lat="36.535462747387136" lon="-5.264069448463205"><ele>295.0</ele><time>2026-04-25T12:15:41Z</time></trkpt><trkpt lat="36.53540852949544" lon="-5.26399677536332"><ele>295.0</ele><time>2026-04-25T12:15:42Z</time></trkpt><trkpt lat="36.53534888768761" lon="-5.2639083250700285"><ele>299.2</ele><time>2026-04-25T12:15:43Z</time></trkpt><trkpt lat="36.53529969133893" lon="-5.263826110474001"><ele>303.4</ele><time>2026-04-25T12:15:44Z</time></trkpt><trkpt lat="36.535248589315096" lon="-5.263725796584038"><ele>307.6</ele><time>2026-04-25T12:15:45Z</time></trkpt><trkpt lat="36.535220800592505" lon="-5.263613626626186"><ele>311.8</ele><time>2026-04-25T12:15:46Z</time></trkpt><trkpt lat="36.535195006035" lon="-5.263513336404099"><ele>316.0</ele><time>2026-04-25T12:15:47Z</time></trkpt><trkpt lat="36.53523250718838" lon="-5.2633973893515815"><ele>316.0</ele><time>2026-04-25T12:15:48Z</time></trkpt><trkpt lat="36.535254915733034" lon="-5.263299515809751"><ele>316.0</ele><time>2026-04-25T12:15:49Z</time></trkpt><trkpt lat="36.53524818727843" lon="-5.263212744529682"><ele>316.0</ele><time>2026-04-25T12:15:50Z</time></trkpt><trkpt lat="36.53520572483929" lon="-5.263130502098225"><ele>316.0</ele><time>2026-04-25T12:15:51Z</time></trkpt><trkpt lat="36.535140481489854" lon="-5.263048460906639"><ele>316.0</ele><time>2026-04-25T12:15:52Z</time></trkpt><trkpt lat="36.535048592170455" lon="-5.262980924163941"><ele>316.0</ele><time>2026-04-25T12:15:53Z</time></trkpt><trkpt lat="36.53498524580662" lon="-5.2629046601962015"><ele>315.2</ele><time>2026-04-25T12:15:54Z</time></trkpt><trkpt lat="36.53491035765057" lon="-5.262852695282455"><ele>314.40000000000003</ele><time>2026-04-25T12:15:55Z</time></trkpt><trkpt lat="36.53481815096903" lon="-5.262817008522921"><ele>313.6</ele><time>2026-04-25T12:15:56Z</time></trkpt><trkpt lat="36.534722866223845" lon="-5.262798920333569"><ele>312.8</ele><time>2026-04-25T12:15:57Z</time></trkpt><trkpt lat="36.534634556052694" lon="-5.262809821061804"><ele>312.0</ele><time>2026-04-25T12:15:58Z</time></trkpt><trkpt lat="36.53454172728466" lon="-5.262830754968755"><ele>312.0</ele><time>2026-04-25T12:15:59Z</time></trkpt><trkpt lat="36.53445770502934" lon="-5.2628589286383995"><ele>312.0</ele><time>2026-04-25T12:16:00Z</time></trkpt><trkpt lat="36.534386142065365" lon="-5.262862872358122"><ele>312.0</ele><time>2026-04-25T12:16:01Z</time></trkpt><trkpt lat="36.53431042594747" lon="-5.262831465341044"><ele>312.0</ele><time>2026-04-25T12:16:02Z</time></trkpt><trkpt lat="36.53425882706984" lon="-5.262723199016903"><ele>312.0</ele><time>2026-04-25T12:16:03Z</time></trkpt><trkpt lat="36.53422657273172" lon="-5.2626268454535685"><ele>312.0</ele><time>2026-04-25T12:16:04Z</time></trkpt><trkpt lat="36.53416613595797" lon="-5.262591183709225"><ele>312.0</ele><time>2026-04-25T12:16:05Z</time></trkpt><trkpt lat="36.53405363194373" lon="-5.262628135343009"><ele>312.0</ele><time>2026-04-25T12:16:07Z</time></trkpt><trkpt lat="36.53401440472049" lon="-5.26273445837302"><ele>312.0</ele><time>2026-04-25T12:16:08Z</time></trkpt><trkpt lat="36.533947181784725" lon="-5.262804151849528"><ele>312.0</ele><time>2026-04-25T12:16:09Z</time></trkpt><trkpt lat="36.5338518480834" lon="-5.2628321630393495"><ele>312.0</ele><time>2026-04-25T12:16:10Z</time></trkpt><trkpt lat="36.53376802656581" lon="-5.26277049186341"><ele>314.2</ele><time>2026-04-25T12:16:11Z</time></trkpt><trkpt lat="36.53369833209117" lon="-5.2627171036524025"><ele>316.4</ele><time>2026-04-25T12:16:12Z</time></trkpt><trkpt lat="36.53360976804985" lon="-5.262657679181284"><ele>318.59999999999997</ele><time>2026-04-25T12:16:14Z</time></trkpt><trkpt lat="36.53351564800152" lon="-5.262614193389694"><ele>320.79999999999995</ele><time>2026-04-25T12:16:17Z</time></trkpt><trkpt lat="36.53342791606818" lon="-5.262607257572651"><ele>323.0</ele><time>2026-04-25T12:16:19Z</time></trkpt><trkpt lat="36.53333255240058" lon="-5.262611232169913"><ele>323.0</ele><time>2026-04-25T12:16:21Z</time></trkpt><trkpt lat="36.53322010394245" lon="-5.262611199550558"><ele>323.0</ele><time>2026-04-25T12:16:23Z</time></trkpt><trkpt lat="36.53309951374467" lon="-5.262612244002366"><ele>323.0</ele><time>2026-04-25T12:16:24.999Z</time></trkpt><trkpt lat="36.533002516725205" lon="-5.262629305534079"><ele>323.0</ele><time>2026-04-25T12:16:26.999Z</time></trkpt><trkpt lat="36.5328828127693" lon="-5.262597972229633"><ele>323.4</ele><time>2026-04-25T12:16:28.999Z</time></trkpt><trkpt lat="36.532805205543994" lon="-5.262586329391538"><ele>323.79999999999995</ele><time>2026-04-25T12:16:29.999Z</time></trkpt><trkpt lat="36.53271780556814" lon="-5.262602887501744"><ele>324.2</ele><time>2026-04-25T12:16:30.999Z</time></trkpt><trkpt lat="36.53262527864194" lon="-5.262609673195325"><ele>324.6</ele><time>2026-04-25T12:16:31.999Z</time></trkpt><trkpt lat="36.532534902233586" lon="-5.262641207527591"><ele>325.0</ele><time>2026-04-25T12:16:32.999Z</time></trkpt><trkpt lat="36.532429057211125" lon="-5.262661169386249"><ele>325.0</ele><time>2026-04-25T12:16:33.999Z</time></trkpt><trkpt lat="36.53233370234195" lon="-5.262678570155585"><ele>325.0</ele><time>2026-04-25T12:16:34.999Z</time></trkpt><trkpt lat="36.53225339472677" lon="-5.262693225027388"><ele>325.0</ele><time>2026-04-25T12:16:35.999Z</time></trkpt><trkpt lat="36.53218513210964" lon="-5.2627094937739285"><ele>325.0</ele><time>2026-04-25T12:16:36.999Z</time></trkpt><trkpt lat="36.53212251915632" lon="-5.262721398221315"><ele>325.0</ele><time>2026-04-25T12:16:37.999Z</time></trkpt><trkpt lat="36.53205896422058" lon="-5.2627831245956935"><ele>325.0</ele><time>2026-04-25T12:16:38.999Z</time></trkpt><trkpt lat="36.53197801844867" lon="-5.262803694161941"><ele>326.16666666666663</ele><time>2026-04-25T12:16:39.999Z</time></trkpt><trkpt lat="36.531933098445755" lon="-5.262861725511581"><ele>327.3333333333333</ele><time>2026-04-25T12:16:40.999Z</time></trkpt><trkpt lat="36.531899526981015" lon="-5.262955602808943"><ele>328.5</ele><time>2026-04-25T12:16:41.999Z</time></trkpt><trkpt lat="36.53187422236488" lon="-5.263084778188609"><ele>329.6666666666667</ele><time>2026-04-25T12:16:42.999Z</time></trkpt><trkpt lat="36.53184460045343" lon="-5.263218554787531"><ele>330.83333333333337</ele><time>2026-04-25T12:16:43.999Z</time></trkpt><trkpt lat="36.531799803667" lon="-5.263306343101406"><ele>332.0</ele><time>2026-04-25T12:16:44.999Z</time></trkpt><trkpt lat="36.53179474100004" lon="-5.263400306374708"><ele>332.0</ele><time>2026-04-25T12:16:46.999Z</time></trkpt><trkpt lat="36.53190067121148" lon="-5.26335465906531"><ele>332.0</ele><time>2026-04-25T12:16:48.999Z</time></trkpt><trkpt lat="36.53189459116748" lon="-5.26327362137307"><ele>332.0</ele><time>2026-04-25T12:16:49.999Z</time></trkpt><trkpt lat="36.53194089108225" lon="-5.2630948755648745"><ele>332.0</ele><time>2026-04-25T12:16:51.999Z</time></trkpt><trkpt lat="36.53198337905045" lon="-5.262993275305272"><ele>332.0</ele><time>2026-04-25T12:16:52.999Z</time></trkpt><trkpt lat="36.532035843162745" lon="-5.262911627270387"><ele>330.25</ele><time>2026-04-25T12:16:53.999Z</time></trkpt><trkpt lat="36.53213042915872" lon="-5.262892829246368"><ele>328.5</ele><time>2026-04-25T12:16:54.999Z</time></trkpt><trkpt lat="36.53223559496733" lon="-5.262888802640332"><ele>326.75</ele><time>2026-04-25T12:16:55.999Z</time></trkpt><trkpt lat="36.53236135120681" lon="-5.2629005553768105"><ele>325.0</ele><time>2026-04-25T12:16:56.999Z</time></trkpt><trkpt lat="36.53250449012303" lon="-5.262933413849357"><ele>325.0</ele><time>2026-04-25T12:16:57.999Z</time></trkpt><trkpt lat="36.532655073605966" lon="-5.262978773078949"><ele>325.0</ele><time>2026-04-25T12:16:58.999Z</time></trkpt><trkpt lat="36.53281474371602" lon="-5.262980314049261"><ele>325.0</ele><time>2026-04-25T12:16:59.999Z</time></trkpt><trkpt lat="36.532965318277476" lon="-5.262971078330193"><ele>324.5</ele><time>2026-04-25T12:17:00.999Z</time></trkpt><trkpt lat="36.5331295220542" lon="-5.262986086199224"><ele>324.0</ele><time>2026-04-25T12:17:01.999Z</time></trkpt><trkpt lat="36.53327797197162" lon="-5.262965452083236"><ele>323.5</ele><time>2026-04-25T12:17:02.999Z</time></trkpt><trkpt lat="36.533399367480385" lon="-5.262972684257777"><ele>323.0</ele><time>2026-04-25T12:17:03.999Z</time></trkpt><trkpt lat="36.53349825642104" lon="-5.263002460725757"><ele>323.0</ele><time>2026-04-25T12:17:04.999Z</time></trkpt><trkpt lat="36.533578170977805" lon="-5.263047181678039"><ele>323.0</ele><time>2026-04-25T12:17:05.999Z</time></trkpt><trkpt lat="36.53363908452241" lon="-5.263118217772336"><ele>323.0</ele><time>2026-04-25T12:17:06.999Z</time></trkpt><trkpt lat="36.53367421643763" lon="-5.263200159177305"><ele>323.0</ele><time>2026-04-25T12:17:07.999Z</time></trkpt><trkpt lat="36.53367853070497" lon="-5.263307984735956"><ele>323.0</ele><time>2026-04-25T12:17:08.999Z</time></trkpt><trkpt lat="36.533649556287074" lon="-5.263456368553327"><ele>329.0</ele><time>2026-04-25T12:17:09.999Z</time></trkpt><trkpt lat="36.53363152391956" lon="-5.263636383912703"><ele>335.0</ele><time>2026-04-25T12:17:10.999Z</time></trkpt><trkpt lat="36.53365710834445" lon="-5.263803108681704"><ele>341.0</ele><time>2026-04-25T12:17:11.999Z</time></trkpt><trkpt lat="36.5337266491279" lon="-5.263991625278987"><ele>347.0</ele><time>2026-04-25T12:17:12.999Z</time></trkpt><trkpt lat="36.53381063983198" lon="-5.2642051159147645"><ele>347.0</ele><time>2026-04-25T12:17:13.999Z</time></trkpt><trkpt lat="36.5338634298944" lon="-5.264416366569905"><ele>347.0</ele><time>2026-04-25T12:17:14.999Z</time></trkpt><trkpt lat="36.53389551719559" lon="-5.264592882200138"><ele>347.0</ele><time>2026-04-25T12:17:15.999Z</time></trkpt><trkpt lat="36.53392306816421" lon="-5.264767301275644"><ele>350.5</ele><time>2026-04-25T12:17:16.999Z</time></trkpt><trkpt lat="36.533934118047206" lon="-5.2649542200370405"><ele>354.0</ele><time>2026-04-25T12:17:17.999Z</time></trkpt><trkpt lat="36.533931265679" lon="-5.265110066051063"><ele>357.5</ele><time>2026-04-25T12:17:18.999Z</time></trkpt><trkpt lat="36.533945556584506" lon="-5.265236320015792"><ele>361.0</ele><time>2026-04-25T12:17:19.999Z</time></trkpt><trkpt lat="36.533973037595864" lon="-5.265363687905927"><ele>361.0</ele><time>2026-04-25T12:17:20.999Z</time></trkpt><trkpt lat="36.53405462624668" lon="-5.265484536795478"><ele>361.0</ele><time>2026-04-25T12:17:21.999Z</time></trkpt><trkpt lat="36.534158466361" lon="-5.265594570235156"><ele>361.0</ele><time>2026-04-25T12:17:22.999Z</time></trkpt><trkpt lat="36.534282755054406" lon="-5.265670265607618"><ele>361.0</ele><time>2026-04-25T12:17:24Z</time></trkpt><trkpt lat="36.534418251477156" lon="-5.265750713015768"><ele>361.25</ele><time>2026-04-25T12:17:25Z</time></trkpt><trkpt lat="36.53454645421521" lon="-5.265824591553967"><ele>361.5</ele><time>2026-04-25T12:17:26Z</time></trkpt><trkpt lat="36.53464207204434" lon="-5.265897327887265"><ele>361.75</ele><time>2026-04-25T12:17:27Z</time></trkpt><trkpt lat="36.53473374356499" lon="-5.2660003996365194"><ele>362.0</ele><time>2026-04-25T12:17:28Z</time></trkpt><trkpt lat="36.534829046307415" lon="-5.266152403836229"><ele>362.0</ele><time>2026-04-25T12:17:29Z</time></trkpt><trkpt lat="36.534904856931504" lon="-5.2663105672496755"><ele>362.0</ele><time>2026-04-25T12:17:30Z</time></trkpt><trkpt lat="36.53496188123769" lon="-5.266461451549578"><ele>362.0</ele><time>2026-04-25T12:17:31Z</time></trkpt><trkpt lat="36.53499983647684" lon="-5.266631595715278"><ele>362.0</ele><time>2026-04-25T12:17:32Z</time></trkpt><trkpt lat="36.535016691029526" lon="-5.26681834042306"><ele>368.6666666666667</ele><time>2026-04-25T12:17:33Z</time></trkpt><trkpt lat="36.535020037187024" lon="-5.267022092186095"><ele>375.3333333333333</ele><time>2026-04-25T12:17:34Z</time></trkpt><trkpt lat="36.535023842187975" lon="-5.267239276526807"><ele>382.0</ele><time>2026-04-25T12:17:35Z</time></trkpt><trkpt lat="36.535032432974674" lon="-5.267431986743237"><ele>385.40000000000003</ele><time>2026-04-25T12:17:36Z</time></trkpt><trkpt lat="36.535046038729355" lon="-5.267574007695616"><ele>388.8</ele><time>2026-04-25T12:17:37Z</time></trkpt><trkpt lat="36.53508418576551" lon="-5.26769599675948"><ele>392.2</ele><time>2026-04-25T12:17:38Z</time></trkpt><trkpt lat="36.53515343769224" lon="-5.267802266556514"><ele>395.6</ele><time>2026-04-25T12:17:39Z</time></trkpt><trkpt lat="36.53524256366516" lon="-5.267835623990909"><ele>399.0</ele><time>2026-04-25T12:17:40Z</time></trkpt><trkpt lat="36.535325003799954" lon="-5.2679068335796035"><ele>396.25</ele><time>2026-04-25T12:17:41Z</time></trkpt><trkpt lat="36.53544188897617" lon="-5.267985756721192"><ele>393.5</ele><time>2026-04-25T12:17:42Z</time></trkpt><trkpt lat="36.53554490984672" lon="-5.268082370493844"><ele>390.75</ele><time>2026-04-25T12:17:43Z</time></trkpt><trkpt lat="36.535627134907" lon="-5.268183421381088"><ele>388.0</ele><time>2026-04-25T12:17:44Z</time></trkpt><trkpt lat="36.53568718261475" lon="-5.268298963007021"><ele>388.0</ele><time>2026-04-25T12:17:45Z</time></trkpt><trkpt lat="36.535739572832654" lon="-5.2684526908037785"><ele>388.0</ele><time>2026-04-25T12:17:46Z</time></trkpt><trkpt lat="36.53580642018954" lon="-5.268615910726141"><ele>388.0</ele><time>2026-04-25T12:17:47Z</time></trkpt><trkpt lat="36.53587853195069" lon="-5.2687592049243905"><ele>388.0</ele><time>2026-04-25T12:17:48Z</time></trkpt><trkpt lat="36.535927500010104" lon="-5.268861939376331"><ele>393.0</ele><time>2026-04-25T12:17:49Z</time></trkpt><trkpt lat="36.53593872937454" lon="-5.268987948378967"><ele>398.0</ele><time>2026-04-25T12:17:50Z</time></trkpt><trkpt lat="36.535931648221066" lon="-5.269148673292025"><ele>403.0</ele><time>2026-04-25T12:17:51Z</time></trkpt><trkpt lat="36.53592255807853" lon="-5.269324894534633"><ele>408.0</ele><time>2026-04-25T12:17:52Z</time></trkpt><trkpt lat="36.535898683235274" lon="-5.269496814776616"><ele>408.0</ele><time>2026-04-25T12:17:53Z</time></trkpt><trkpt lat="36.53587114093824" lon="-5.269646508481775"><ele>408.0</ele><time>2026-04-25T12:17:54Z</time></trkpt><trkpt lat="36.535849913758284" lon="-5.269764503892391"><ele>408.0</ele><time>2026-04-25T12:17:55Z</time></trkpt><trkpt lat="36.53584474915961" lon="-5.269848697018671"><ele>408.0</ele><time>2026-04-25T12:17:56Z</time></trkpt><trkpt lat="36.535903511367195" lon="-5.269936164620845"><ele>408.0</ele><time>2026-04-25T12:17:58Z</time></trkpt><trkpt lat="36.5359914878864" lon="-5.269946402753096"><ele>406.59999999999997</ele><time>2026-04-25T12:17:59Z</time></trkpt><trkpt lat="36.53611050018519" lon="-5.269962903011122"><ele>405.2</ele><time>2026-04-25T12:18:00Z</time></trkpt><trkpt lat="36.536235720072234" lon="-5.269993286526261"><ele>403.8</ele><time>2026-04-25T12:18:01Z</time></trkpt><trkpt lat="36.536308920887606" lon="-5.270046351461356"><ele>402.4</ele><time>2026-04-25T12:18:02Z</time></trkpt><trkpt lat="36.53637036882625" lon="-5.270134462905207"><ele>401.0</ele><time>2026-04-25T12:18:03Z</time></trkpt><trkpt lat="36.53647037871455" lon="-5.270215567966054"><ele>401.0</ele><time>2026-04-25T12:18:04Z</time></trkpt><trkpt lat="36.536582838291665" lon="-5.270305635527315"><ele>401.0</ele><time>2026-04-25T12:18:05Z</time></trkpt><trkpt lat="36.53672494082931" lon="-5.27036226166639"><ele>401.0</ele><time>2026-04-25T12:18:06Z</time></trkpt><trkpt lat="36.53685848122258" lon="-5.270389216931415"><ele>401.0</ele><time>2026-04-25T12:18:07Z</time></trkpt><trkpt lat="36.53699721351689" lon="-5.270391264094973"><ele>398.0</ele><time>2026-04-25T12:18:08Z</time></trkpt><trkpt lat="36.53710815348066" lon="-5.270405335484959"><ele>395.0</ele><time>2026-04-25T12:18:09Z</time></trkpt><trkpt lat="36.5371922965298" lon="-5.270460652189269"><ele>392.0</ele><time>2026-04-25T12:18:10Z</time></trkpt><trkpt lat="36.537280718708146" lon="-5.270550199149774"><ele>389.0</ele><time>2026-04-25T12:18:11Z</time></trkpt><trkpt lat="36.53737663952778" lon="-5.27067545470765"><ele>396.5</ele><time>2026-04-25T12:18:12Z</time></trkpt><trkpt lat="36.53748253257419" lon="-5.2707909874010275"><ele>404.0</ele><time>2026-04-25T12:18:13Z</time></trkpt><trkpt lat="36.537585609007785" lon="-5.270874911926838"><ele>411.5</ele><time>2026-04-25T12:18:14Z</time></trkpt><trkpt lat="36.53769273483119" lon="-5.270908991720301"><ele>419.0</ele><time>2026-04-25T12:18:15Z</time></trkpt><trkpt lat="36.53780985011563" lon="-5.270935361276256"><ele>419.0</ele><time>2026-04-25T12:18:16Z</time></trkpt><trkpt lat="36.537899487190536" lon="-5.270961942282884"><ele>419.0</ele><time>2026-04-25T12:18:17Z</time></trkpt><trkpt lat="36.537970909561054" lon="-5.271073088237731"><ele>419.0</ele><time>2026-04-25T12:18:19Z</time></trkpt><trkpt lat="36.53790798961501" lon="-5.2711586669114325"><ele>419.0</ele><time>2026-04-25T12:18:21Z</time></trkpt><trkpt lat="36.53784086328133" lon="-5.271184468501457"><ele>419.0</ele><time>2026-04-25T12:18:22Z</time></trkpt><trkpt lat="36.53774830610815" lon="-5.271113530009589"><ele>419.0</ele><time>2026-04-25T12:18:23Z</time></trkpt><trkpt lat="36.53762008094686" lon="-5.271076750198163"><ele>419.0</ele><time>2026-04-25T12:18:24Z</time></trkpt><trkpt lat="36.53745708750245" lon="-5.271037514738658"><ele>419.0</ele><time>2026-04-25T12:18:24.999Z</time></trkpt><trkpt lat="36.53731016932519" lon="-5.2709468442175265"><ele>419.0</ele><time>2026-04-25T12:18:25.999Z</time></trkpt><trkpt lat="36.537156901051276" lon="-5.270912177471482"><ele>419.0</ele><time>2026-04-25T12:18:26.999Z</time></trkpt><trkpt lat="36.53698097702754" lon="-5.270889238872504"><ele>419.0</ele><time>2026-04-25T12:18:27.999Z</time></trkpt><trkpt lat="36.53681606820724" lon="-5.270852288728553"><ele>423.25</ele><time>2026-04-25T12:18:28.999Z</time></trkpt><trkpt lat="36.53666444594673" lon="-5.270799033650712"><ele>427.5</ele><time>2026-04-25T12:18:29.999Z</time></trkpt><trkpt lat="36.53652179851464" lon="-5.270759574356881"><ele>431.75</ele><time>2026-04-25T12:18:30.999Z</time></trkpt><trkpt lat="36.536382289668005" lon="-5.270739701696571"><ele>436.0</ele><time>2026-04-25T12:18:31.999Z</time></trkpt><trkpt lat="36.536237529408766" lon="-5.270732788114435"><ele>433.0</ele><time>2026-04-25T12:18:32.999Z</time></trkpt><trkpt lat="36.53612690448329" lon="-5.270659693171496"><ele>430.0</ele><time>2026-04-25T12:18:33.999Z</time></trkpt><trkpt lat="36.53602368457995" lon="-5.27058312205868"><ele>427.0</ele><time>2026-04-25T12:18:34.999Z</time></trkpt><trkpt lat="36.53594199358293" lon="-5.270562347561233"><ele>424.0</ele><time>2026-04-25T12:18:35.999Z</time></trkpt><trkpt lat="36.535862602046436" lon="-5.27053352110007"><ele>421.0</ele><time>2026-04-25T12:18:36.999Z</time></trkpt><trkpt lat="36.535793174996556" lon="-5.270618128910871"><ele>421.0</ele><time>2026-04-25T12:18:37.999Z</time></trkpt><trkpt lat="36.53570963232974" lon="-5.270666879856862"><ele>421.0</ele><time>2026-04-25T12:18:38.999Z</time></trkpt><trkpt lat="36.5356226807806" lon="-5.270716668745819"><ele>421.0</ele><time>2026-04-25T12:18:39.999Z</time></trkpt><trkpt lat="36.53551488063564" lon="-5.270737329114246"><ele>421.0</ele><time>2026-04-25T12:18:41.999Z</time></trkpt><trkpt lat="36.535470078921605" lon="-5.270649834573373"><ele>421.0</ele><time>2026-04-25T12:18:42.999Z</time></trkpt><trkpt lat="36.535431370420916" lon="-5.270543980132704"><ele>425.0</ele><time>2026-04-25T12:18:43.999Z</time></trkpt><trkpt lat="36.53536731405372" lon="-5.270424710528032"><ele>429.0</ele><time>2026-04-25T12:18:44.999Z</time></trkpt><trkpt lat="36.535275898787" lon="-5.270348140130141"><ele>433.0</ele><time>2026-04-25T12:18:45.999Z</time></trkpt><trkpt lat="36.53516417576075" lon="-5.270300407415964"><ele>437.0</ele><time>2026-04-25T12:18:46.999Z</time></trkpt><trkpt lat="36.53507521938019" lon="-5.2702822723958365"><ele>441.0</ele><time>2026-04-25T12:18:47.999Z</time></trkpt><trkpt lat="36.53495689861759" lon="-5.2702827210151675"><ele>441.0</ele><time>2026-04-25T12:18:49.999Z</time></trkpt><trkpt lat="36.53491104436602" lon="-5.270375221829047"><ele>441.0</ele><time>2026-04-25T12:18:50.999Z</time></trkpt><trkpt lat="36.53487108622729" lon="-5.270489410506271"><ele>441.0</ele><time>2026-04-25T12:18:51.999Z</time></trkpt><trkpt lat="36.53484939057382" lon="-5.270623818475601"><ele>441.0</ele><time>2026-04-25T12:18:52.999Z</time></trkpt><trkpt lat="36.53484064501803" lon="-5.270759907475904"><ele>441.0</ele><time>2026-04-25T12:18:53.999Z</time></trkpt><trkpt lat="36.53483716597792" lon="-5.270898909478709"><ele>445.0</ele><time>2026-04-25T12:18:54.999Z</time></trkpt><trkpt lat="36.53484094659401" lon="-5.271042338874541"><ele>449.0</ele><time>2026-04-25T12:18:55.999Z</time></trkpt><trkpt lat="36.534856832415336" lon="-5.271171953793658"><ele>453.0</ele><time>2026-04-25T12:18:56.999Z</time></trkpt><trkpt lat="36.53485453271201" lon="-5.271262955478986"><ele>457.0</ele><time>2026-04-25T12:18:57.999Z</time></trkpt><trkpt lat="36.534804587729546" lon="-5.271328061285016"><ele>461.0</ele><time>2026-04-25T12:18:58.999Z</time></trkpt><trkpt lat="36.53470701408527" lon="-5.271385522678758"><ele>458.0</ele><time>2026-04-25T12:18:59.999Z</time></trkpt><trkpt lat="36.5346200231084" lon="-5.271484246222768"><ele>455.0</ele><time>2026-04-25T12:19:00.999Z</time></trkpt><trkpt lat="36.53454315637585" lon="-5.2716038462707555"><ele>452.0</ele><time>2026-04-25T12:19:01.999Z</time></trkpt><trkpt lat="36.53451954978896" lon="-5.271788610158349"><ele>449.0</ele><time>2026-04-25T12:19:02.999Z</time></trkpt><trkpt lat="36.53449130121805" lon="-5.271938071676733"><ele>448.99999999999994</ele><time>2026-04-25T12:19:03.999Z</time></trkpt><trkpt lat="36.53446125383272" lon="-5.272041169205614"><ele>449.0</ele><time>2026-04-25T12:19:04.999Z</time></trkpt><trkpt lat="36.534510918607495" lon="-5.272131884158436"><ele>449.0</ele><time>2026-04-25T12:19:06.999Z</time></trkpt><trkpt lat="36.53459640635355" lon="-5.272062101553797"><ele>449.0</ele><time>2026-04-25T12:19:08.999Z</time></trkpt><trkpt lat="36.534582455631245" lon="-5.271966875864483"><ele>448.99999999999994</ele><time>2026-04-25T12:19:09.999Z</time></trkpt><trkpt lat="36.53460261010515" lon="-5.271886001715546"><ele>449.0</ele><time>2026-04-25T12:19:10.999Z</time></trkpt><trkpt lat="36.53463313255415" lon="-5.271792202239005"><ele>452.0</ele><time>2026-04-25T12:19:11.999Z</time></trkpt><trkpt lat="36.534716682762465" lon="-5.271699759288203"><ele>455.0</ele><time>2026-04-25T12:19:12.999Z</time></trkpt><trkpt lat="36.53478194675677" lon="-5.271592265217269"><ele>458.0</ele><time>2026-04-25T12:19:13.999Z</time></trkpt><trkpt lat="36.534882399257256" lon="-5.271506368326887"><ele>461.0</ele><time>2026-04-25T12:19:14.999Z</time></trkpt><trkpt lat="36.5349794120149" lon="-5.271408818367247"><ele>460.99999999999994</ele><time>2026-04-25T12:19:15.999Z</time></trkpt><trkpt lat="36.53502926133118" lon="-5.271266424653138"><ele>461.0</ele><time>2026-04-25T12:19:16.999Z</time></trkpt><trkpt lat="36.535087807298844" lon="-5.271182255048914"><ele>461.0</ele><time>2026-04-25T12:19:17.999Z</time></trkpt><trkpt lat="36.53513908722124" lon="-5.271130810695487"><ele>461.0</ele><time>2026-04-25T12:19:18.999Z</time></trkpt><trkpt lat="36.5352040589157" lon="-5.271094830317012"><ele>460.99999999999994</ele><time>2026-04-25T12:19:19.999Z</time></trkpt><trkpt lat="36.53529216780649" lon="-5.271123415610861"><ele>461.0</ele><time>2026-04-25T12:19:20.999Z</time></trkpt><trkpt lat="36.53538093657927" lon="-5.271192871064579"><ele>460.75</ele><time>2026-04-25T12:19:21.999Z</time></trkpt><trkpt lat="36.535477561134655" lon="-5.271305872337884"><ele>460.5</ele><time>2026-04-25T12:19:22.999Z</time></trkpt><trkpt lat="36.5355850472183" lon="-5.271433161144678"><ele>460.25</ele><time>2026-04-25T12:19:23.999Z</time></trkpt><trkpt lat="36.53568297708719" lon="-5.271507889691928"><ele>460.0</ele><time>2026-04-25T12:19:24.999Z</time></trkpt><trkpt lat="36.53580137123559" lon="-5.271534717019684"><ele>463.6</ele><time>2026-04-25T12:19:25.999Z</time></trkpt><trkpt lat="36.53594421831611" lon="-5.27155207887939"><ele>467.2</ele><time>2026-04-25T12:19:26.999Z</time></trkpt><trkpt lat="36.53608643076642" lon="-5.271584045371234"><ele>470.79999999999995</ele><time>2026-04-25T12:19:27.999Z</time></trkpt><trkpt lat="36.536173967592944" lon="-5.271614700952854"><ele>474.4</ele><time>2026-04-25T12:19:28.999Z</time></trkpt><trkpt lat="36.5362290956005" lon="-5.271664238092565"><ele>478.0</ele><time>2026-04-25T12:19:30Z</time></trkpt><trkpt lat="36.536271077079746" lon="-5.27177094686169"><ele>478.0</ele><time>2026-04-25T12:19:31Z</time></trkpt><trkpt lat="36.53631527744159" lon="-5.271884782360902"><ele>477.99999999999994</ele><time>2026-04-25T12:19:32Z</time></trkpt><trkpt lat="36.53634782516886" lon="-5.271990430511165"><ele>477.99999999999994</ele><time>2026-04-25T12:19:34Z</time></trkpt><trkpt lat="36.53637415489311" lon="-5.272100988320554"><ele>478.0</ele><time>2026-04-25T12:20:50.999Z</time></trkpt><trkpt lat="36.53640452314478" lon="-5.272190691009494"><ele>478.0</ele><time>2026-04-25T12:20:51.999Z</time></trkpt><trkpt lat="36.5364404820992" lon="-5.272296859347866"><ele>481.5</ele><time>2026-04-25T12:20:52.999Z</time></trkpt><trkpt lat="36.53646665457821" lon="-5.272417555276581"><ele>485.0</ele><time>2026-04-25T12:20:53.999Z</time></trkpt><trkpt lat="36.53651253791776" lon="-5.272558866770697"><ele>488.5</ele><time>2026-04-25T12:20:54.999Z</time></trkpt><trkpt lat="36.53655200508006" lon="-5.272709540836314"><ele>492.0</ele><time>2026-04-25T12:20:55.999Z</time></trkpt><trkpt lat="36.53660201798053" lon="-5.272868170242513"><ele>492.0</ele><time>2026-04-25T12:20:56.999Z</time></trkpt><trkpt lat="36.53665179927895" lon="-5.2730358475853185"><ele>492.0</ele><time>2026-04-25T12:20:57.999Z</time></trkpt><trkpt lat="36.5366910095883" lon="-5.273189971402012"><ele>492.0</ele><time>2026-04-25T12:20:58.999Z</time></trkpt><trkpt lat="36.53672712775414" lon="-5.273332237754724"><ele>492.0</ele><time>2026-04-25T12:20:59.999Z</time></trkpt><trkpt lat="36.53676871117165" lon="-5.273490609267941"><ele>494.75</ele><time>2026-04-25T12:21:00.999Z</time></trkpt><trkpt lat="36.53682060799019" lon="-5.273657610470816"><ele>497.5</ele><time>2026-04-25T12:21:01.999Z</time></trkpt><trkpt lat="36.53690943754176" lon="-5.273803545830656"><ele>500.25</ele><time>2026-04-25T12:21:02.999Z</time></trkpt><trkpt lat="36.53699080764941" lon="-5.273939313110849"><ele>503.0</ele><time>2026-04-25T12:21:03.999Z</time></trkpt><trkpt lat="36.537065339981844" lon="-5.274060211020651"><ele>503.0</ele><time>2026-04-25T12:21:04.999Z</time></trkpt><trkpt lat="36.53713225873663" lon="-5.274184804244261"><ele>503.0</ele><time>2026-04-25T12:21:05.999Z</time></trkpt><trkpt lat="36.53720350430247" lon="-5.274337390630912"><ele>503.0</ele><time>2026-04-25T12:21:06.999Z</time></trkpt><trkpt lat="36.53727793471596" lon="-5.274463154655458"><ele>503.0</ele><time>2026-04-25T12:21:07.999Z</time></trkpt><trkpt lat="36.53735269115763" lon="-5.274606514561688"><ele>503.0</ele><time>2026-04-25T12:21:08.999Z</time></trkpt><trkpt lat="36.53740698732169" lon="-5.274768340909864"><ele>503.0</ele><time>2026-04-25T12:21:09.999Z</time></trkpt><trkpt lat="36.53746633543488" lon="-5.27494741401749"><ele>503.0</ele><time>2026-04-25T12:21:10.999Z</time></trkpt><trkpt lat="36.53756037711853" lon="-5.2751019748866215"><ele>505.79999999999995</ele><time>2026-04-25T12:21:11.999Z</time></trkpt><trkpt lat="36.53764437961976" lon="-5.275219789715023"><ele>508.59999999999997</ele><time>2026-04-25T12:21:12.999Z</time></trkpt><trkpt lat="36.537700725416656" lon="-5.2753323486760175"><ele>511.40000000000003</ele><time>2026-04-25T12:21:13.999Z</time></trkpt><trkpt lat="36.5377445933432" lon="-5.275441710643706"><ele>514.2</ele><time>2026-04-25T12:21:14.999Z</time></trkpt><trkpt lat="36.53776431198156" lon="-5.275536373246233"><ele>517.0</ele><time>2026-04-25T12:21:15.999Z</time></trkpt><trkpt lat="36.53776226997821" lon="-5.275636160534649"><ele>520.0</ele><time>2026-04-25T12:21:16.999Z</time></trkpt><trkpt lat="36.53770478964256" lon="-5.275786247497772"><ele>523.0</ele><time>2026-04-25T12:21:17.999Z</time></trkpt><trkpt lat="36.53764544140329" lon="-5.275963130347697"><ele>526.0</ele><time>2026-04-25T12:21:18.999Z</time></trkpt><trkpt lat="36.53759024926937" lon="-5.276107001388923"><ele>529.0</ele><time>2026-04-25T12:21:19.999Z</time></trkpt><trkpt lat="36.537518236539675" lon="-5.276210692681101"><ele>529.0</ele><time>2026-04-25T12:21:20.999Z</time></trkpt><trkpt lat="36.537423418082966" lon="-5.276310389863348"><ele>529.0</ele><time>2026-04-25T12:21:21.999Z</time></trkpt><trkpt lat="36.53731249642304" lon="-5.276400398785608"><ele>529.0</ele><time>2026-04-25T12:21:22.999Z</time></trkpt><trkpt lat="36.53721451994336" lon="-5.276454077959725"><ele>529.0</ele><time>2026-04-25T12:21:23.999Z</time></trkpt><trkpt lat="36.53715197247375" lon="-5.276526893281645"><ele>529.0</ele><time>2026-04-25T12:21:24.999Z</time></trkpt><trkpt lat="36.53716401088955" lon="-5.276696652170677"><ele>527.0</ele><time>2026-04-25T12:21:26.999Z</time></trkpt><trkpt lat="36.53718934068675" lon="-5.276823448064011"><ele>525.0</ele><time>2026-04-25T12:21:27.999Z</time></trkpt><trkpt lat="36.537201301636436" lon="-5.276942534243774"><ele>523.0</ele><time>2026-04-25T12:21:28.999Z</time></trkpt><trkpt lat="36.53719100709901" lon="-5.277088478286591"><ele>521.0</ele><time>2026-04-25T12:21:29.999Z</time></trkpt><trkpt lat="36.53712881633117" lon="-5.27726525552387"><ele>531.0</ele><time>2026-04-25T12:21:30.999Z</time></trkpt><trkpt lat="36.53703494197744" lon="-5.277459289227902"><ele>541.0</ele><time>2026-04-25T12:21:31.999Z</time></trkpt><trkpt lat="36.53694299367614" lon="-5.277636322697906"><ele>551.0</ele><time>2026-04-25T12:21:32.999Z</time></trkpt><trkpt lat="36.53684696307775" lon="-5.277814252683805"><ele>551.0</ele><time>2026-04-25T12:21:33.999Z</time></trkpt><trkpt lat="36.536752542180764" lon="-5.2779807609302605"><ele>551.0</ele><time>2026-04-25T12:21:34.999Z</time></trkpt><trkpt lat="36.53666864992235" lon="-5.2781258269928095"><ele>551.0</ele><time>2026-04-25T12:21:36Z</time></trkpt><trkpt lat="36.536609790422716" lon="-5.27823195941842"><ele>551.0</ele><time>2026-04-25T12:21:37Z</time></trkpt><trkpt lat="36.53657975333111" lon="-5.278313190095112"><ele>546.75</ele><time>2026-04-25T12:21:38Z</time></trkpt><trkpt lat="36.53651465557982" lon="-5.27837275700496"><ele>542.5</ele><time>2026-04-25T12:21:39Z</time></trkpt><trkpt lat="36.53640923510177" lon="-5.278472501550067"><ele>538.25</ele><time>2026-04-25T12:21:40Z</time></trkpt><trkpt lat="36.536287980982195" lon="-5.2785764066992105"><ele>534.0</ele><time>2026-04-25T12:21:41Z</time></trkpt><trkpt lat="36.536204916768845" lon="-5.278693095661989"><ele>531.8</ele><time>2026-04-25T12:21:42Z</time></trkpt><trkpt lat="36.53617774102634" lon="-5.278826026592836"><ele>529.5999999999999</ele><time>2026-04-25T12:21:43Z</time></trkpt><trkpt lat="36.53616627221815" lon="-5.278937581331126"><ele>527.4</ele><time>2026-04-25T12:21:44Z</time></trkpt><trkpt lat="36.53620579481207" lon="-5.279018171234197"><ele>525.1999999999999</ele><time>2026-04-25T12:21:45Z</time></trkpt><trkpt lat="36.5362329184131" lon="-5.27913758808055"><ele>523.0</ele><time>2026-04-25T12:21:46Z</time></trkpt><trkpt lat="36.53624407624141" lon="-5.279246894644929"><ele>523.0</ele><time>2026-04-25T12:21:47Z</time></trkpt><trkpt lat="36.53624777391323" lon="-5.279370003068575"><ele>523.0</ele><time>2026-04-25T12:21:48Z</time></trkpt><trkpt lat="36.53624085712056" lon="-5.279505076298454"><ele>523.0</ele><time>2026-04-25T12:21:49Z</time></trkpt><trkpt lat="36.53619596802913" lon="-5.2796198678166615"><ele>523.0</ele><time>2026-04-25T12:21:50Z</time></trkpt><trkpt lat="36.53609796257247" lon="-5.279720824312353"><ele>523.0</ele><time>2026-04-25T12:21:51Z</time></trkpt><trkpt lat="36.535973890021296" lon="-5.279822589820425"><ele>532.3333333333334</ele><time>2026-04-25T12:21:52Z</time></trkpt><trkpt lat="36.53585080485625" lon="-5.279940146396135"><ele>541.6666666666666</ele><time>2026-04-25T12:21:53Z</time></trkpt><trkpt lat="36.53573551590992" lon="-5.280050256912178"><ele>551.0</ele><time>2026-04-25T12:21:54Z</time></trkpt><trkpt lat="36.535599888088534" lon="-5.280153219878787"><ele>551.0</ele><time>2026-04-25T12:21:55Z</time></trkpt><trkpt lat="36.53548987220385" lon="-5.280278634066073"><ele>551.0</ele><time>2026-04-25T12:21:56Z</time></trkpt><trkpt lat="36.535384860781406" lon="-5.280368974215435"><ele>551.0</ele><time>2026-04-25T12:21:57Z</time></trkpt><trkpt lat="36.53531205064769" lon="-5.28045737579214"><ele>551.0</ele><time>2026-04-25T12:21:58Z</time></trkpt><trkpt lat="36.535237732115874" lon="-5.2805191883865294"><ele>553.5</ele><time>2026-04-25T12:21:59Z</time></trkpt><trkpt lat="36.535143719549005" lon="-5.280596317726609"><ele>556.0</ele><time>2026-04-25T12:22:00Z</time></trkpt><trkpt lat="36.5350124877123" lon="-5.280668078730251"><ele>558.5</ele><time>2026-04-25T12:22:01Z</time></trkpt><trkpt lat="36.53490341383508" lon="-5.280764807751904"><ele>561.0</ele><time>2026-04-25T12:22:02Z</time></trkpt><trkpt lat="36.534804125698585" lon="-5.280835084056002"><ele>561.0</ele><time>2026-04-25T12:22:03Z</time></trkpt><trkpt lat="36.534701135592954" lon="-5.280920126806553"><ele>561.0</ele><time>2026-04-25T12:22:04Z</time></trkpt><trkpt lat="36.53460570884881" lon="-5.281067716057236"><ele>561.0</ele><time>2026-04-25T12:22:05Z</time></trkpt><trkpt lat="36.5345227598085" lon="-5.2812323506136245"><ele>561.0</ele><time>2026-04-25T12:22:06Z</time></trkpt><trkpt lat="36.53445819923822" lon="-5.281370619094508"><ele>561.0</ele><time>2026-04-25T12:22:07Z</time></trkpt><trkpt lat="36.534415360845436" lon="-5.281538005506343"><ele>561.0</ele><time>2026-04-25T12:22:08Z</time></trkpt><trkpt lat="36.53436646206963" lon="-5.281731915831291"><ele>561.0</ele><time>2026-04-25T12:22:09Z</time></trkpt><trkpt lat="36.534359351647154" lon="-5.281927818490856"><ele>561.0</ele><time>2026-04-25T12:22:10Z</time></trkpt><trkpt lat="36.53431808394926" lon="-5.282072577609475"><ele>561.0</ele><time>2026-04-25T12:22:11Z</time></trkpt><trkpt lat="36.53427562136441" lon="-5.282202800264734"><ele>561.0</ele><time>2026-04-25T12:22:12Z</time></trkpt><trkpt lat="36.53419820980087" lon="-5.282319382010336"><ele>561.0</ele><time>2026-04-25T12:22:13Z</time></trkpt><trkpt lat="36.534099993424256" lon="-5.282417184225999"><ele>564.0</ele><time>2026-04-25T12:22:14Z</time></trkpt><trkpt lat="36.53399434862205" lon="-5.282471978435267"><ele>567.0</ele><time>2026-04-25T12:22:15Z</time></trkpt><trkpt lat="36.53390657563563" lon="-5.28251521516058"><ele>570.0</ele><time>2026-04-25T12:22:16Z</time></trkpt><trkpt lat="36.53381607381967" lon="-5.282525367929741"><ele>573.0</ele><time>2026-04-25T12:22:17Z</time></trkpt><trkpt lat="36.53371325881047" lon="-5.282480187278531"><ele>576.0</ele><time>2026-04-25T12:22:18Z</time></trkpt><trkpt lat="36.533634826520405" lon="-5.282370274399586"><ele>578.0</ele><time>2026-04-25T12:22:19Z</time></trkpt><trkpt lat="36.533540154536475" lon="-5.282332208518596"><ele>580.0</ele><time>2026-04-25T12:22:20Z</time></trkpt><trkpt lat="36.533434693877005" lon="-5.282346618947445"><ele>582.0</ele><time>2026-04-25T12:22:21Z</time></trkpt><trkpt lat="36.53330952086208" lon="-5.282300065925926"><ele>584.0</ele><time>2026-04-25T12:22:22Z</time></trkpt><trkpt lat="36.533209561939756" lon="-5.28219878734308"><ele>584.0</ele><time>2026-04-25T12:22:23Z</time></trkpt><trkpt lat="36.5331000695902" lon="-5.282147017661638"><ele>584.0</ele><time>2026-04-25T12:22:24Z</time></trkpt><trkpt lat="36.53302903338903" lon="-5.282112142132548"><ele>584.0</ele><time>2026-04-25T12:22:25Z</time></trkpt><trkpt lat="36.53296370108894" lon="-5.282106820972137"><ele>584.0</ele><time>2026-04-25T12:22:26Z</time></trkpt><trkpt lat="36.53290280171057" lon="-5.282197045317854"><ele>584.0</ele><time>2026-04-25T12:22:28Z</time></trkpt><trkpt lat="36.53294210976682" lon="-5.282290425474997"><ele>584.0</ele><time>2026-04-25T12:22:29Z</time></trkpt><trkpt lat="36.532994168928106" lon="-5.282349498138677"><ele>584.0</ele><time>2026-04-25T12:22:30Z</time></trkpt><trkpt lat="36.53305610349763" lon="-5.28239359685572"><ele>584.0</ele><time>2026-04-25T12:22:31Z</time></trkpt><trkpt lat="36.53308800603253" lon="-5.2824795100059685"><ele>584.0</ele><time>2026-04-25T12:22:34Z</time></trkpt><trkpt lat="36.533168736922015" lon="-5.282511408832553"><ele>584.0</ele><time>2026-04-25T12:22:35Z</time></trkpt><trkpt lat="36.53323876872071" lon="-5.282559405863811"><ele>584.0</ele><time>2026-04-25T12:22:36Z</time></trkpt><trkpt lat="36.53332218241675" lon="-5.282628511151871"><ele>584.0</ele><time>2026-04-25T12:22:38Z</time></trkpt><trkpt lat="36.53338024067379" lon="-5.282706544896701"><ele>584.0</ele><time>2026-04-25T12:22:40Z</time></trkpt><trkpt lat="36.533401691564656" lon="-5.28280557076298"><ele>584.0</ele><time>2026-04-25T12:22:42Z</time></trkpt><trkpt lat="36.53339441393073" lon="-5.282980783211011"><ele>584.0</ele><time>2026-04-25T12:22:44Z</time></trkpt><trkpt lat="36.53338199744879" lon="-5.283107000094506"><ele>584.0</ele><time>2026-04-25T12:22:45Z</time></trkpt><trkpt lat="36.53336956355216" lon="-5.283242067988475"><ele>584.0</ele><time>2026-04-25T12:22:46Z</time></trkpt><trkpt lat="36.533341431390724" lon="-5.283416821712731"><ele>588.0</ele><time>2026-04-25T12:22:47Z</time></trkpt><trkpt lat="36.533288836307875" lon="-5.283621489415361"><ele>592.0</ele><time>2026-04-25T12:22:48Z</time></trkpt><trkpt lat="36.53324839577428" lon="-5.283830588010832"><ele>596.0</ele><time>2026-04-25T12:22:49Z</time></trkpt><trkpt lat="36.53322180605593" lon="-5.283990356498171"><ele>598.1666666666666</ele><time>2026-04-25T12:22:50Z</time></trkpt><trkpt lat="36.533216759455385" lon="-5.284108353391007"><ele>600.3333333333333</ele><time>2026-04-25T12:22:51Z</time></trkpt><trkpt lat="36.533224558151026" lon="-5.284206811214937"><ele>602.5</ele><time>2026-04-25T12:22:52Z</time></trkpt><trkpt lat="36.533298177168774" lon="-5.284295491246094"><ele>604.6666666666666</ele><time>2026-04-25T12:22:53.999Z</time></trkpt><trkpt lat="36.533357672963575" lon="-5.2842585722217255"><ele>606.8333333333334</ele><time>2026-04-25T12:22:54.999Z</time></trkpt><trkpt lat="36.53334625033746" lon="-5.284151316950497"><ele>609.0</ele><time>2026-04-25T12:22:55.999Z</time></trkpt><trkpt lat="36.533322165156434" lon="-5.284046364599452"><ele>606.4</ele><time>2026-04-25T12:22:56.999Z</time></trkpt><trkpt lat="36.53335395928209" lon="-5.283921523997926"><ele>603.8</ele><time>2026-04-25T12:22:57.999Z</time></trkpt><trkpt lat="36.53345779561838" lon="-5.283836835893134"><ele>601.2</ele><time>2026-04-25T12:22:58.999Z</time></trkpt><trkpt lat="36.53353685434276" lon="-5.283795269515905"><ele>598.6</ele><time>2026-04-25T12:22:59.999Z</time></trkpt><trkpt lat="36.53360449750382" lon="-5.2838136674462275"><ele>596.0</ele><time>2026-04-25T12:23:00.999Z</time></trkpt><trkpt lat="36.53367405138811" lon="-5.283882292365214"><ele>595.25</ele><time>2026-04-25T12:23:01.999Z</time></trkpt><trkpt lat="36.53371823292529" lon="-5.283987107176881"><ele>594.5</ele><time>2026-04-25T12:23:02.999Z</time></trkpt><trkpt lat="36.533753593242054" lon="-5.284140325254889"><ele>593.75</ele><time>2026-04-25T12:23:03.999Z</time></trkpt><trkpt lat="36.53377412621976" lon="-5.284302231710303"><ele>593.0</ele><time>2026-04-25T12:23:04.999Z</time></trkpt><trkpt lat="36.533759601797136" lon="-5.284442934143246"><ele>593.0</ele><time>2026-04-25T12:23:05.999Z</time></trkpt><trkpt lat="36.53372593270841" lon="-5.284590049809151"><ele>593.0</ele><time>2026-04-25T12:23:06.999Z</time></trkpt><trkpt lat="36.53364514031127" lon="-5.2847417447377465"><ele>593.0</ele><time>2026-04-25T12:23:07.999Z</time></trkpt><trkpt lat="36.53354191997024" lon="-5.284884015255443"><ele>593.0</ele><time>2026-04-25T12:23:08.999Z</time></trkpt><trkpt lat="36.53343473633307" lon="-5.285011701975901"><ele>599.75</ele><time>2026-04-25T12:23:09.999Z</time></trkpt><trkpt lat="36.533302205340355" lon="-5.285064898738242"><ele>606.5</ele><time>2026-04-25T12:23:10.999Z</time></trkpt><trkpt lat="36.53316962624843" lon="-5.285154996842976"><ele>613.25</ele><time>2026-04-25T12:23:11.999Z</time></trkpt><trkpt lat="36.53302990973154" lon="-5.285245943716271"><ele>620.0</ele><time>2026-04-25T12:23:12.999Z</time></trkpt><trkpt lat="36.53287619771071" lon="-5.2853080866964355"><ele>621.0</ele><time>2026-04-25T12:23:13.999Z</time></trkpt><trkpt lat="36.53272560430441" lon="-5.285290295146355"><ele>622.0</ele><time>2026-04-25T12:23:14.999Z</time></trkpt><trkpt lat="36.53258951596285" lon="-5.285283961966408"><ele>623.0</ele><time>2026-04-25T12:23:15.999Z</time></trkpt><trkpt lat="36.53246323687377" lon="-5.28525868821716"><ele>624.0</ele><time>2026-04-25T12:23:16.999Z</time></trkpt><trkpt lat="36.53239513093259" lon="-5.285243080700528"><ele>624.0</ele><time>2026-04-25T12:23:17.999Z</time></trkpt><trkpt lat="36.53238339726788" lon="-5.285350766896186"><ele>624.0</ele><time>2026-04-25T12:23:20.999Z</time></trkpt><trkpt lat="36.532469738280426" lon="-5.28538097464969"><ele>624.0</ele><time>2026-04-25T12:23:21.999Z</time></trkpt><trkpt lat="36.532580950183785" lon="-5.285395644053658"><ele>624.0</ele><time>2026-04-25T12:23:22.999Z</time></trkpt><trkpt lat="36.53267592573622" lon="-5.285434983864709"><ele>624.0</ele><time>2026-04-25T12:23:23.999Z</time></trkpt><trkpt lat="36.53273636271934" lon="-5.28549788819314"><ele>624.0</ele><time>2026-04-25T12:23:24.999Z</time></trkpt><trkpt lat="36.53275794769712" lon="-5.285592740404189"><ele>624.0</ele><time>2026-04-25T12:23:25.999Z</time></trkpt><trkpt lat="36.53274926289466" lon="-5.285714351205528"><ele>624.0</ele><time>2026-04-25T12:23:26.999Z</time></trkpt><trkpt lat="36.532742169438855" lon="-5.285876772678787"><ele>624.0</ele><time>2026-04-25T12:23:27.999Z</time></trkpt><trkpt lat="36.53274122749332" lon="-5.286042131148699"><ele>624.0</ele><time>2026-04-25T12:23:28.999Z</time></trkpt><trkpt lat="36.532734650175136" lon="-5.2862272364347245"><ele>629.25</ele><time>2026-04-25T12:23:29.999Z</time></trkpt><trkpt lat="36.53270544225727" lon="-5.286354911387819"><ele>634.5</ele><time>2026-04-25T12:23:30.999Z</time></trkpt><trkpt lat="36.53262282593692" lon="-5.286483296082773"><ele>639.75</ele><time>2026-04-25T12:23:31.999Z</time></trkpt><trkpt lat="36.53256206529901" lon="-5.286617858982397"><ele>645.0</ele><time>2026-04-25T12:23:32.999Z</time></trkpt><trkpt lat="36.53254327945042" lon="-5.286751337591742"><ele>646.75</ele><time>2026-04-25T12:23:33.999Z</time></trkpt><trkpt lat="36.53260461546082" lon="-5.286866564221062"><ele>648.5</ele><time>2026-04-25T12:23:34.999Z</time></trkpt><trkpt lat="36.53262853852018" lon="-5.286979006484623"><ele>650.25</ele><time>2026-04-25T12:23:35.999Z</time></trkpt><trkpt lat="36.53263676962662" lon="-5.287114070911286"><ele>652.0</ele><time>2026-04-25T12:23:36.999Z</time></trkpt><trkpt lat="36.53252944725612" lon="-5.287241416223957"><ele>652.25</ele><time>2026-04-25T12:23:37.999Z</time></trkpt><trkpt lat="36.53252358068063" lon="-5.287387120032605"><ele>652.5</ele><time>2026-04-25T12:23:38.999Z</time></trkpt><trkpt lat="36.53257284389995" lon="-5.287529485064464"><ele>652.75</ele><time>2026-04-25T12:23:39.999Z</time></trkpt><trkpt lat="36.532626573336785" lon="-5.287659510744853"><ele>653.0</ele><time>2026-04-25T12:23:40.999Z</time></trkpt><trkpt lat="36.53264829855672" lon="-5.287769724262327"><ele>653.0</ele><time>2026-04-25T12:23:42Z</time></trkpt><trkpt lat="36.532590354938016" lon="-5.287894259457335"><ele>653.0</ele><time>2026-04-25T12:23:43Z</time></trkpt><trkpt lat="36.53251559389422" lon="-5.2880581367322765"><ele>653.0</ele><time>2026-04-25T12:23:44Z</time></trkpt><trkpt lat="36.53246378890083" lon="-5.288248908263055"><ele>653.0</ele><time>2026-04-25T12:23:45Z</time></trkpt><trkpt lat="36.5324240696897" lon="-5.2884024002115035"><ele>653.75</ele><time>2026-04-25T12:23:46Z</time></trkpt><trkpt lat="36.53244957059641" lon="-5.2885575060607835"><ele>654.5</ele><time>2026-04-25T12:23:47Z</time></trkpt><trkpt lat="36.53254559231115" lon="-5.288712834783817"><ele>655.25</ele><time>2026-04-25T12:23:48Z</time></trkpt><trkpt lat="36.532521097736335" lon="-5.288898620575705"><ele>656.0</ele><time>2026-04-25T12:23:49Z</time></trkpt><trkpt lat="36.532506813494706" lon="-5.289087086173563"><ele>657.5</ele><time>2026-04-25T12:23:50Z</time></trkpt><trkpt lat="36.53252246960705" lon="-5.289264657565377"><ele>659.0</ele><time>2026-04-25T12:23:51Z</time></trkpt><trkpt lat="36.53251706960355" lon="-5.28940568104431"><ele>660.5</ele><time>2026-04-25T12:23:52Z</time></trkpt><trkpt lat="36.53253745917277" lon="-5.289513053370963"><ele>662.0</ele><time>2026-04-25T12:23:53Z</time></trkpt><trkpt lat="36.53257180827164" lon="-5.289640184469301"><ele>662.0</ele><time>2026-04-25T12:23:54Z</time></trkpt><trkpt lat="36.532658263820096" lon="-5.289705457406817"><ele>662.0</ele><time>2026-04-25T12:23:55Z</time></trkpt><trkpt lat="36.532751730146735" lon="-5.28976365660188"><ele>662.0</ele><time>2026-04-25T12:23:56Z</time></trkpt><trkpt lat="36.532867820840785" lon="-5.289841890460563"><ele>662.0</ele><time>2026-04-25T12:23:57Z</time></trkpt><trkpt lat="36.53299531122757" lon="-5.289919716694128"><ele>661.0</ele><time>2026-04-25T12:23:58Z</time></trkpt><trkpt lat="36.53309857011992" lon="-5.289984641129623"><ele>660.0</ele><time>2026-04-25T12:23:59Z</time></trkpt><trkpt lat="36.53316435776914" lon="-5.290040431977971"><ele>659.0</ele><time>2026-04-25T12:24:00Z</time></trkpt><trkpt lat="36.533228918863465" lon="-5.290112738433842"><ele>658.0</ele><time>2026-04-25T12:24:01Z</time></trkpt><trkpt lat="36.53322966079197" lon="-5.290276802945488"><ele>657.0</ele><time>2026-04-25T12:24:02Z</time></trkpt><trkpt lat="36.53328547878319" lon="-5.290439055765714"><ele>657.0</ele><time>2026-04-25T12:24:03Z</time></trkpt><trkpt lat="36.53340631498731" lon="-5.290521620193465"><ele>657.0</ele><time>2026-04-25T12:24:04Z</time></trkpt><trkpt lat="36.53349748346608" lon="-5.2906435572950015"><ele>657.0</ele><time>2026-04-25T12:24:05Z</time></trkpt><trkpt lat="36.53357844445136" lon="-5.290758997158328"><ele>657.0</ele><time>2026-04-25T12:24:06Z</time></trkpt><trkpt lat="36.5336209924151" lon="-5.290859176783669"><ele>659.1428571428571</ele><time>2026-04-25T12:24:07Z</time></trkpt><trkpt lat="36.53365907668359" lon="-5.290933268036027"><ele>661.2857142857143</ele><time>2026-04-25T12:24:08Z</time></trkpt><trkpt lat="36.53374466070764" lon="-5.29097966185275"><ele>663.4285714285714</ele><time>2026-04-25T12:24:10Z</time></trkpt><trkpt lat="36.5338092009539" lon="-5.2909555954983665"><ele>665.5714285714286</ele><time>2026-04-25T12:24:12Z</time></trkpt><trkpt lat="36.533878465416876" lon="-5.290910756102502"><ele>667.7142857142858</ele><time>2026-04-25T12:24:14Z</time></trkpt><trkpt lat="36.53394063467466" lon="-5.290879542445485"><ele>669.8571428571429</ele><time>2026-04-25T12:24:16Z</time></trkpt><trkpt lat="36.53400606930063" lon="-5.29086149908288"><ele>672.0</ele><time>2026-04-25T12:24:18Z</time></trkpt><trkpt lat="36.53408452593869" lon="-5.290851437254522"><ele>672.0</ele><time>2026-04-25T12:24:20Z</time></trkpt><trkpt lat="36.53417642072755" lon="-5.290839194189155"><ele>672.0</ele><time>2026-04-25T12:24:22Z</time></trkpt><trkpt lat="36.534272264939695" lon="-5.290860357788074"><ele>672.0</ele><time>2026-04-25T12:24:24Z</time></trkpt><trkpt lat="36.534392338735294" lon="-5.290929618420275"><ele>672.0</ele><time>2026-04-25T12:24:26Z</time></trkpt><trkpt lat="36.53446041856156" lon="-5.290974857584151"><ele>672.0</ele><time>2026-04-25T12:24:27Z</time></trkpt><trkpt lat="36.534532607796415" lon="-5.291014424320327"><ele>670.8333333333334</ele><time>2026-04-25T12:24:28Z</time></trkpt><trkpt lat="36.53460278499989" lon="-5.291052644410964"><ele>669.6666666666666</ele><time>2026-04-25T12:24:29Z</time></trkpt><trkpt lat="36.53467616172744" lon="-5.291089879378737"><ele>668.5</ele><time>2026-04-25T12:24:30Z</time></trkpt><trkpt lat="36.53475136484716" lon="-5.291139853288265"><ele>667.3333333333333</ele><time>2026-04-25T12:24:31Z</time></trkpt><trkpt lat="36.53483666348422" lon="-5.2911886755996616"><ele>666.1666666666666</ele><time>2026-04-25T12:24:32Z</time></trkpt><trkpt lat="36.53491645830283" lon="-5.291262447843182"><ele>665.0</ele><time>2026-04-25T12:24:33Z</time></trkpt><trkpt lat="36.53499443309785" lon="-5.291357005843539"><ele>670.75</ele><time>2026-04-25T12:24:34Z</time></trkpt><trkpt lat="36.535056414111914" lon="-5.291486524461881"><ele>676.5</ele><time>2026-04-25T12:24:35Z</time></trkpt><trkpt lat="36.53514166991345" lon="-5.2916112890401825"><ele>682.25</ele><time>2026-04-25T12:24:36Z</time></trkpt><trkpt lat="36.53522990884659" lon="-5.291739595615632"><ele>688.0</ele><time>2026-04-25T12:24:37Z</time></trkpt><trkpt lat="36.53530833763435" lon="-5.291854376925103"><ele>688.0</ele><time>2026-04-25T12:24:38Z</time></trkpt><trkpt lat="36.53536925539817" lon="-5.291985441907326"><ele>688.0</ele><time>2026-04-25T12:24:39Z</time></trkpt><trkpt lat="36.53543207733787" lon="-5.292119831540579"><ele>688.0</ele><time>2026-04-25T12:24:40Z</time></trkpt><trkpt lat="36.53551018963323" lon="-5.292197236319216"><ele>688.0</ele><time>2026-04-25T12:24:41Z</time></trkpt><trkpt lat="36.5355940920086" lon="-5.29222824125893"><ele>688.0</ele><time>2026-04-25T12:24:42Z</time></trkpt><trkpt lat="36.535702219980095" lon="-5.292230129486032"><ele>688.0</ele><time>2026-04-25T12:24:43Z</time></trkpt><trkpt lat="36.535816205259465" lon="-5.292205636146215"><ele>688.0</ele><time>2026-04-25T12:24:44Z</time></trkpt><trkpt lat="36.53592628867368" lon="-5.292225118211471"><ele>688.0</ele><time>2026-04-25T12:24:45Z</time></trkpt><trkpt lat="36.536010335334595" lon="-5.292297931089391"><ele>688.0</ele><time>2026-04-25T12:24:46Z</time></trkpt><trkpt lat="36.536076951386676" lon="-5.292415741030578"><ele>688.0</ele><time>2026-04-25T12:24:47Z</time></trkpt><trkpt lat="36.536164024936724" lon="-5.292530363879556"><ele>692.25</ele><time>2026-04-25T12:24:48Z</time></trkpt><trkpt lat="36.53627799275168" lon="-5.292571159198137"><ele>696.5</ele><time>2026-04-25T12:24:49Z</time></trkpt><trkpt lat="36.53640764325988" lon="-5.2925097010731275"><ele>700.75</ele><time>2026-04-25T12:24:50Z</time></trkpt><trkpt lat="36.53653784829487" lon="-5.292474449174073"><ele>705.0</ele><time>2026-04-25T12:24:51Z</time></trkpt><trkpt lat="36.536659963938185" lon="-5.292414127183226"><ele>705.0</ele><time>2026-04-25T12:24:51.999Z</time></trkpt><trkpt lat="36.536753447320585" lon="-5.292343356105209"><ele>705.0</ele><time>2026-04-25T12:24:52.999Z</time></trkpt><trkpt lat="36.53682044160072" lon="-5.292281641537613"><ele>705.0</ele><time>2026-04-25T12:24:53.999Z</time></trkpt><trkpt lat="36.53686391211895" lon="-5.292184882077512"><ele>705.0</ele><time>2026-04-25T12:24:54.999Z</time></trkpt><trkpt lat="36.53692560966233" lon="-5.2920749570466326"><ele>705.0</ele><time>2026-04-25T12:24:55.999Z</time></trkpt><trkpt lat="36.537000709331956" lon="-5.291979510208851"><ele>704.0</ele><time>2026-04-25T12:24:56.999Z</time></trkpt><trkpt lat="36.53710779592181" lon="-5.291922824351081"><ele>703.0</ele><time>2026-04-25T12:24:57.999Z</time></trkpt><trkpt lat="36.537216999264835" lon="-5.2919245294102994"><ele>702.0</ele><time>2026-04-25T12:24:58.999Z</time></trkpt><trkpt lat="36.53734403855208" lon="-5.291955585218272"><ele>701.0</ele><time>2026-04-25T12:24:59.999Z</time></trkpt><trkpt lat="36.53746302729291" lon="-5.292004331922019"><ele>701.0</ele><time>2026-04-25T12:25:00.999Z</time></trkpt><trkpt lat="36.53756024537568" lon="-5.292050382180398"><ele>701.0</ele><time>2026-04-25T12:25:01.999Z</time></trkpt><trkpt lat="36.53761990774996" lon="-5.292117140948616"><ele>701.0</ele><time>2026-04-25T12:25:02.999Z</time></trkpt><trkpt lat="36.537653408979615" lon="-5.2922305435134"><ele>701.0</ele><time>2026-04-25T12:25:03.999Z</time></trkpt><trkpt lat="36.53767907203235" lon="-5.292372231714928"><ele>701.0</ele><time>2026-04-25T12:25:04.999Z</time></trkpt><trkpt lat="36.53770665012291" lon="-5.292520158103904"><ele>706.25</ele><time>2026-04-25T12:25:05.999Z</time></trkpt><trkpt lat="36.53774903564992" lon="-5.29267462497882"><ele>711.5</ele><time>2026-04-25T12:25:06.999Z</time></trkpt><trkpt lat="36.5377917598342" lon="-5.292830993951984"><ele>716.75</ele><time>2026-04-25T12:25:07.999Z</time></trkpt><trkpt lat="36.537833315744116" lon="-5.292988289572341"><ele>722.0</ele><time>2026-04-25T12:25:08.999Z</time></trkpt><trkpt lat="36.53788297692209" lon="-5.293149099641496"><ele>720.25</ele><time>2026-04-25T12:25:09.999Z</time></trkpt><trkpt lat="36.537944024231585" lon="-5.293306696195564"><ele>718.5</ele><time>2026-04-25T12:25:10.999Z</time></trkpt><trkpt lat="36.5380202009687" lon="-5.293459000831217"><ele>716.75</ele><time>2026-04-25T12:25:11.999Z</time></trkpt><trkpt lat="36.53811094401494" lon="-5.293592732528513"><ele>715.0</ele><time>2026-04-25T12:25:12.999Z</time></trkpt><trkpt lat="36.53819650450882" lon="-5.293715651193939"><ele>715.0</ele><time>2026-04-25T12:25:13.999Z</time></trkpt><trkpt lat="36.538273642105885" lon="-5.293838582880817"><ele>715.0</ele><time>2026-04-25T12:25:14.999Z</time></trkpt><trkpt lat="36.53832339118533" lon="-5.293944572893994"><ele>715.0</ele><time>2026-04-25T12:25:15.999Z</time></trkpt><trkpt lat="36.53836549162182" lon="-5.294047522444556"><ele>715.0</ele><time>2026-04-25T12:25:16.999Z</time></trkpt><trkpt lat="36.538379957769855" lon="-5.294195405786416"><ele>715.0</ele><time>2026-04-25T12:25:17.999Z</time></trkpt><trkpt lat="36.53835257748962" lon="-5.2944032307045354"><ele>718.75</ele><time>2026-04-25T12:25:18.999Z</time></trkpt><trkpt lat="36.53834279653818" lon="-5.29461222561881"><ele>722.5</ele><time>2026-04-25T12:25:19.999Z</time></trkpt><trkpt lat="36.538378613376224" lon="-5.294763218822519"><ele>726.25</ele><time>2026-04-25T12:25:20.999Z</time></trkpt><trkpt lat="36.53840334185476" lon="-5.2949099962370845"><ele>730.0</ele><time>2026-04-25T12:25:21.999Z</time></trkpt><trkpt lat="36.53837137944312" lon="-5.295095162615396"><ele>730.6666666666667</ele><time>2026-04-25T12:25:22.999Z</time></trkpt><trkpt lat="36.538353761281364" lon="-5.295291558600006"><ele>731.3333333333334</ele><time>2026-04-25T12:25:23.999Z</time></trkpt><trkpt lat="36.53830639642396" lon="-5.295528216511828"><ele>732.0</ele><time>2026-04-25T12:25:24.999Z</time></trkpt><trkpt lat="36.538242746636755" lon="-5.29575467771846"><ele>732.0</ele><time>2026-04-25T12:25:25.999Z</time></trkpt><trkpt lat="36.5381871434808" lon="-5.295942052734212"><ele>732.0</ele><time>2026-04-25T12:25:26.999Z</time></trkpt><trkpt lat="36.53817092888646" lon="-5.296154125551945"><ele>732.0</ele><time>2026-04-25T12:25:27.999Z</time></trkpt><trkpt lat="36.53818209462316" lon="-5.29637819973949"><ele>732.3333333333334</ele><time>2026-04-25T12:25:28.999Z</time></trkpt><trkpt lat="36.53820583199094" lon="-5.296617682366619"><ele>732.6666666666667</ele><time>2026-04-25T12:25:29.999Z</time></trkpt><trkpt lat="36.538227770026296" lon="-5.296833332551867"><ele>733.0</ele><time>2026-04-25T12:25:30.999Z</time></trkpt><trkpt lat="36.53827435291259" lon="-5.2970089876127195"><ele>733.0</ele><time>2026-04-25T12:25:31.999Z</time></trkpt><trkpt lat="36.53835368744719" lon="-5.297161446485594"><ele>733.0</ele><time>2026-04-25T12:25:32.999Z</time></trkpt><trkpt lat="36.53844394295471" lon="-5.297312189064857"><ele>733.0</ele><time>2026-04-25T12:25:33.999Z</time></trkpt><trkpt lat="36.53851632702597" lon="-5.297448595265789"><ele>733.0</ele><time>2026-04-25T12:25:34.999Z</time></trkpt><trkpt lat="36.53854985407333" lon="-5.297607587229876"><ele>735.3333333333334</ele><time>2026-04-25T12:25:35.999Z</time></trkpt><trkpt lat="36.53851318580439" lon="-5.297810909326256"><ele>737.6666666666666</ele><time>2026-04-25T12:25:36.999Z</time></trkpt><trkpt lat="36.538488810512895" lon="-5.298033041979393"><ele>740.0</ele><time>2026-04-25T12:25:37.999Z</time></trkpt><trkpt lat="36.538491993733885" lon="-5.298204143399796"><ele>742.0</ele><time>2026-04-25T12:25:38.999Z</time></trkpt><trkpt lat="36.53851206035313" lon="-5.298343221620519"><ele>744.0</ele><time>2026-04-25T12:25:39.999Z</time></trkpt><trkpt lat="36.538565607321026" lon="-5.298498045710338"><ele>746.0</ele><time>2026-04-25T12:25:40.999Z</time></trkpt><trkpt lat="36.53866835111345" lon="-5.298681836463643"><ele>748.0</ele><time>2026-04-25T12:25:41.999Z</time></trkpt><trkpt lat="36.538744082731924" lon="-5.298866009228561"><ele>746.0</ele><time>2026-04-25T12:25:42.999Z</time></trkpt><trkpt lat="36.53880249633082" lon="-5.299009294718632"><ele>744.0</ele><time>2026-04-25T12:25:43.999Z</time></trkpt><trkpt lat="36.53883757045355" lon="-5.299185887333095"><ele>742.0</ele><time>2026-04-25T12:25:44.999Z</time></trkpt><trkpt lat="36.5388550144406" lon="-5.299354477137612"><ele>740.0</ele><time>2026-04-25T12:25:45.999Z</time></trkpt><trkpt lat="36.538864071778995" lon="-5.299546979516993"><ele>740.0</ele><time>2026-04-25T12:25:46.999Z</time></trkpt><trkpt lat="36.53886229321433" lon="-5.2997214900125655"><ele>740.0</ele><time>2026-04-25T12:25:48Z</time></trkpt><trkpt lat="36.538846370258305" lon="-5.299872212520983"><ele>740.0</ele><time>2026-04-25T12:25:49Z</time></trkpt><trkpt lat="36.538855134395774" lon="-5.300037969523907"><ele>740.0</ele><time>2026-04-25T12:25:50Z</time></trkpt><trkpt lat="36.53887381978916" lon="-5.300178160235966"><ele>744.5</ele><time>2026-04-25T12:25:51Z</time></trkpt><trkpt lat="36.53892718596654" lon="-5.300300456205617"><ele>749.0</ele><time>2026-04-25T12:25:52Z</time></trkpt><trkpt lat="36.53900804410783" lon="-5.300454943032205"><ele>753.5</ele><time>2026-04-25T12:25:53Z</time></trkpt><trkpt lat="36.539076131949216" lon="-5.300580022002319"><ele>758.0</ele><time>2026-04-25T12:25:54Z</time></trkpt><trkpt lat="36.539168305888715" lon="-5.300633122729764"><ele>762.5</ele><time>2026-04-25T12:25:55Z</time></trkpt><trkpt lat="36.539275806991036" lon="-5.300704468320808"><ele>767.0</ele><time>2026-04-25T12:25:56Z</time></trkpt><trkpt lat="36.53941936915557" lon="-5.300755661170212"><ele>771.5</ele><time>2026-04-25T12:25:57Z</time></trkpt><trkpt lat="36.5395763983031" lon="-5.300802078701624"><ele>776.0</ele><time>2026-04-25T12:25:58Z</time></trkpt><trkpt lat="36.539714864782454" lon="-5.300840562375947"><ele>777.0</ele><time>2026-04-25T12:25:59Z</time></trkpt><trkpt lat="36.53982678715766" lon="-5.300906334248921"><ele>778.0</ele><time>2026-04-25T12:26:00Z</time></trkpt><trkpt lat="36.53994419096134" lon="-5.300977780428092"><ele>779.0</ele><time>2026-04-25T12:26:01Z</time></trkpt><trkpt lat="36.54005465980385" lon="-5.301022414462315"><ele>780.0</ele><time>2026-04-25T12:26:02Z</time></trkpt><trkpt lat="36.54017047496989" lon="-5.300975662453014"><ele>780.0</ele><time>2026-04-25T12:26:03Z</time></trkpt><trkpt lat="36.540328416835116" lon="-5.30095675405096"><ele>780.0</ele><time>2026-04-25T12:26:04Z</time></trkpt><trkpt lat="36.54048487800728" lon="-5.300955710995546"><ele>780.0</ele><time>2026-04-25T12:26:05Z</time></trkpt><trkpt lat="36.54061935496043" lon="-5.300919861286849"><ele>777.5</ele><time>2026-04-25T12:26:06Z</time></trkpt><trkpt lat="36.54072919410656" lon="-5.300845864675215"><ele>775.0</ele><time>2026-04-25T12:26:07Z</time></trkpt><trkpt lat="36.54086216892103" lon="-5.300757354492263"><ele>772.5</ele><time>2026-04-25T12:26:08Z</time></trkpt><trkpt lat="36.54096044352732" lon="-5.300654384932095"><ele>770.0</ele><time>2026-04-25T12:26:09Z</time></trkpt><trkpt lat="36.541010202500026" lon="-5.300467919400957"><ele>770.0</ele><time>2026-04-25T12:26:10Z</time></trkpt><trkpt lat="36.541076296100805" lon="-5.300310783341817"><ele>770.0</ele><time>2026-04-25T12:26:11Z</time></trkpt><trkpt lat="36.541137193592135" lon="-5.300195698621336"><ele>770.0</ele><time>2026-04-25T12:26:12Z</time></trkpt><trkpt lat="36.54121757094043" lon="-5.300125594208638"><ele>770.0</ele><time>2026-04-25T12:26:13Z</time></trkpt><trkpt lat="36.5412962921076" lon="-5.300104357476542"><ele>770.0</ele><time>2026-04-25T12:26:14Z</time></trkpt><trkpt lat="36.54138424344994" lon="-5.300116247054073"><ele>773.0</ele><time>2026-04-25T12:26:15Z</time></trkpt><trkpt lat="36.54148763739267" lon="-5.300177050043528"><ele>776.0</ele><time>2026-04-25T12:26:16Z</time></trkpt><trkpt lat="36.54161282890507" lon="-5.300265619996"><ele>779.0</ele><time>2026-04-25T12:26:17Z</time></trkpt><trkpt lat="36.54174052872403" lon="-5.300321380001689"><ele>782.0</ele><time>2026-04-25T12:26:18Z</time></trkpt><trkpt lat="36.54188736418979" lon="-5.300332836840286"><ele>782.0</ele><time>2026-04-25T12:26:19Z</time></trkpt><trkpt lat="36.54202350216115" lon="-5.300290295507587"><ele>782.0</ele><time>2026-04-25T12:26:20Z</time></trkpt><trkpt lat="36.54213981271157" lon="-5.300244268450108"><ele>782.0</ele><time>2026-04-25T12:26:21Z</time></trkpt><trkpt lat="36.54223606832687" lon="-5.300226595278759"><ele>782.0</ele><time>2026-04-25T12:26:22Z</time></trkpt><trkpt lat="36.54233441720482" lon="-5.300229992169884"><ele>782.8</ele><time>2026-04-25T12:26:23Z</time></trkpt><trkpt lat="36.542439972963784" lon="-5.300237472347136"><ele>783.6</ele><time>2026-04-25T12:26:24Z</time></trkpt><trkpt lat="36.542527045718096" lon="-5.3002384976823596"><ele>784.4</ele><time>2026-04-25T12:26:25Z</time></trkpt><trkpt lat="36.54262069166827" lon="-5.300274196974241"><ele>785.1999999999999</ele><time>2026-04-25T12:26:27Z</time></trkpt><trkpt lat="36.54247072623393" lon="-5.300270298042179"><ele>786.0</ele><time>2026-04-25T12:26:59.999Z</time></trkpt><trkpt lat="36.542368477357236" lon="-5.300256928362986"><ele>786.0</ele><time>2026-04-25T12:27:00.999Z</time></trkpt><trkpt lat="36.54224908646413" lon="-5.3002603327479205"><ele>786.0</ele><time>2026-04-25T12:27:01.999Z</time></trkpt><trkpt lat="36.542126178718874" lon="-5.300263501905161"><ele>786.0</ele><time>2026-04-25T12:27:02.999Z</time></trkpt><trkpt lat="36.542016262113286" lon="-5.300296627315401"><ele>786.0</ele><time>2026-04-25T12:27:03.999Z</time></trkpt><trkpt lat="36.54191150838769" lon="-5.300320506717748"><ele>785.1999999999999</ele><time>2026-04-25T12:27:04.999Z</time></trkpt><trkpt lat="36.54180829401743" lon="-5.300332063485812"><ele>784.4</ele><time>2026-04-25T12:27:05.999Z</time></trkpt><trkpt lat="36.54171315989205" lon="-5.300323208717265"><ele>783.6</ele><time>2026-04-25T12:27:06.999Z</time></trkpt><trkpt lat="36.54162289970323" lon="-5.300287481487399"><ele>782.8</ele><time>2026-04-25T12:27:07.999Z</time></trkpt><trkpt lat="36.541538583733356" lon="-5.300244699562896"><ele>782.0</ele><time>2026-04-25T12:27:08.999Z</time></trkpt><trkpt lat="36.5414685734213" lon="-5.300199487484137"><ele>782.0000000000001</ele><time>2026-04-25T12:27:09.999Z</time></trkpt><trkpt lat="36.54139648024865" lon="-5.300162205683173"><ele>782.0</ele><time>2026-04-25T12:27:10.999Z</time></trkpt><trkpt lat="36.54132359808776" lon="-5.300133555982341"><ele>782.0</ele><time>2026-04-25T12:27:11.999Z</time></trkpt><trkpt lat="36.54124867453732" lon="-5.300134924549238"><ele>782.0</ele><time>2026-04-25T12:27:12.999Z</time></trkpt><trkpt lat="36.541173106587294" lon="-5.300180243470681"><ele>782.0000000000001</ele><time>2026-04-25T12:27:13.999Z</time></trkpt><trkpt lat="36.54112917206182" lon="-5.300264491611729"><ele>782.0</ele><time>2026-04-25T12:27:14.999Z</time></trkpt><trkpt lat="36.54109427346998" lon="-5.300355358078033"><ele>779.6</ele><time>2026-04-25T12:27:15.999Z</time></trkpt><trkpt lat="36.541049809245074" lon="-5.300464375728453"><ele>777.2</ele><time>2026-04-25T12:27:16.999Z</time></trkpt><trkpt lat="36.54099285520769" lon="-5.300580447186242"><ele>774.8</ele><time>2026-04-25T12:27:17.999Z</time></trkpt><trkpt lat="36.540933192766396" lon="-5.300703955157618"><ele>772.4</ele><time>2026-04-25T12:27:18.999Z</time></trkpt><trkpt lat="36.54085059858574" lon="-5.300808631787176"><ele>770.0</ele><time>2026-04-25T12:27:19.999Z</time></trkpt><trkpt lat="36.54076559005584" lon="-5.3008873302502915"><ele>771.6666666666667</ele><time>2026-04-25T12:27:20.999Z</time></trkpt><trkpt lat="36.54067916736475" lon="-5.300948476019822"><ele>773.3333333333334</ele><time>2026-04-25T12:27:21.999Z</time></trkpt><trkpt lat="36.54059292487734" lon="-5.300972979231499"><ele>775.0</ele><time>2026-04-25T12:27:22.999Z</time></trkpt><trkpt lat="36.54050059411139" lon="-5.3009941967396985"><ele>776.6666666666667</ele><time>2026-04-25T12:27:23.999Z</time></trkpt><trkpt lat="36.540415491572006" lon="-5.300984319536665"><ele>778.3333333333334</ele><time>2026-04-25T12:27:24.999Z</time></trkpt><trkpt lat="36.540337993042705" lon="-5.30096701744817"><ele>780.0</ele><time>2026-04-25T12:27:25.999Z</time></trkpt><trkpt lat="36.54026690350173" lon="-5.300965396933852"><ele>780.0</ele><time>2026-04-25T12:27:26.999Z</time></trkpt><trkpt lat="36.540202980461316" lon="-5.300979932785321"><ele>780.0</ele><time>2026-04-25T12:27:27.999Z</time></trkpt><trkpt lat="36.54013942348463" lon="-5.301025032774751"><ele>780.0</ele><time>2026-04-25T12:27:28.999Z</time></trkpt><trkpt lat="36.540051961534324" lon="-5.30104077378806"><ele>780.0</ele><time>2026-04-25T12:27:29.999Z</time></trkpt><trkpt lat="36.539948535208595" lon="-5.301033339609495"><ele>780.0</ele><time>2026-04-25T12:27:30.999Z</time></trkpt><trkpt lat="36.53983158278207" lon="-5.300973644853483"><ele>780.0</ele><time>2026-04-25T12:27:31.999Z</time></trkpt><trkpt lat="36.539742052583655" lon="-5.30089886196146"><ele>780.0</ele><time>2026-04-25T12:27:32.999Z</time></trkpt><trkpt lat="36.53964797082241" lon="-5.300858557204913"><ele>780.0</ele><time>2026-04-25T12:27:33.999Z</time></trkpt><trkpt lat="36.5395393153033" lon="-5.30083463954582"><ele>780.0</ele><time>2026-04-25T12:27:34.999Z</time></trkpt><trkpt lat="36.539433665777075" lon="-5.3007817000515605"><ele>780.0</ele><time>2026-04-25T12:27:35.999Z</time></trkpt><trkpt lat="36.5393194798198" lon="-5.300753883547522"><ele>779.2</ele><time>2026-04-25T12:27:36.999Z</time></trkpt><trkpt lat="36.53922369255921" lon="-5.3007130716528605"><ele>778.4</ele><time>2026-04-25T12:27:37.999Z</time></trkpt><trkpt lat="36.539137898217184" lon="-5.300639389493735"><ele>777.5999999999999</ele><time>2026-04-25T12:27:38.999Z</time></trkpt><trkpt lat="36.53905517161787" lon="-5.300562488443611"><ele>776.8</ele><time>2026-04-25T12:27:39.999Z</time></trkpt><trkpt lat="36.53898648372992" lon="-5.300454773355693"><ele>776.0</ele><time>2026-04-25T12:27:40.999Z</time></trkpt><trkpt lat="36.53891282977359" lon="-5.300335691834751"><ele>772.4</ele><time>2026-04-25T12:27:41.999Z</time></trkpt><trkpt lat="36.53886287333229" lon="-5.300226843606493"><ele>768.8</ele><time>2026-04-25T12:27:42.999Z</time></trkpt><trkpt lat="36.5388178976663" lon="-5.300119007525014"><ele>765.1999999999999</ele><time>2026-04-25T12:27:43.999Z</time></trkpt><trkpt lat="36.53880268910559" lon="-5.29999186192748"><ele>761.5999999999999</ele><time>2026-04-25T12:27:44.999Z</time></trkpt><trkpt lat="36.53881766693946" lon="-5.299856697219744"><ele>758.0</ele><time>2026-04-25T12:27:45.999Z</time></trkpt><trkpt lat="36.5388241347833" lon="-5.299729481484549"><ele>754.4</ele><time>2026-04-25T12:27:46.999Z</time></trkpt><trkpt lat="36.538832220781174" lon="-5.299606530884206"><ele>750.8</ele><time>2026-04-25T12:27:47.999Z</time></trkpt><trkpt lat="36.53882477855469" lon="-5.299494602699187"><ele>747.2</ele><time>2026-04-25T12:27:48.999Z</time></trkpt><trkpt lat="36.53881589646545" lon="-5.299364284498314"><ele>743.6</ele><time>2026-04-25T12:27:49.999Z</time></trkpt><trkpt lat="36.538808401191154" lon="-5.29924634430014"><ele>740.0</ele><time>2026-04-25T12:27:50.999Z</time></trkpt><trkpt lat="36.538798095623875" lon="-5.299138279262292"><ele>740.0</ele><time>2026-04-25T12:27:51.999Z</time></trkpt><trkpt lat="36.53879062824875" lon="-5.29904867410549"><ele>740.0</ele><time>2026-04-25T12:27:52.999Z</time></trkpt><trkpt lat="36.53874727984092" lon="-5.298946226672953"><ele>740.0</ele><time>2026-04-25T12:27:55Z</time></trkpt><trkpt lat="36.53872921527051" lon="-5.298861182311008"><ele>740.0</ele><time>2026-04-25T12:27:57Z</time></trkpt><trkpt lat="36.538669674320055" lon="-5.298746156991004"><ele>740.0</ele><time>2026-04-25T12:27:59Z</time></trkpt><trkpt lat="36.53862890407635" lon="-5.2986584501303895"><ele>740.0</ele><time>2026-04-25T12:28:00Z</time></trkpt><trkpt lat="36.53856276832964" lon="-5.298573905055799"><ele>740.0</ele><time>2026-04-25T12:28:01Z</time></trkpt><trkpt lat="36.53851280628546" lon="-5.298459492499164"><ele>740.0</ele><time>2026-04-25T12:28:02Z</time></trkpt><trkpt lat="36.53849095039396" lon="-5.298334668261769"><ele>740.0</ele><time>2026-04-25T12:28:03Z</time></trkpt><trkpt lat="36.53847089175666" lon="-5.298223623754662"><ele>740.0</ele><time>2026-04-25T12:28:04Z</time></trkpt><trkpt lat="36.53845660963823" lon="-5.298094330641304"><ele>740.0</ele><time>2026-04-25T12:28:05Z</time></trkpt><trkpt lat="36.5384626777935" lon="-5.297964426846781"><ele>740.0</ele><time>2026-04-25T12:28:06Z</time></trkpt><trkpt lat="36.538479382814565" lon="-5.297830894197594"><ele>740.0</ele><time>2026-04-25T12:28:07Z</time></trkpt><trkpt lat="36.53848664568876" lon="-5.297699052727777"><ele>740.0</ele><time>2026-04-25T12:28:08Z</time></trkpt><trkpt lat="36.538503905237455" lon="-5.297590236624542"><ele>740.0</ele><time>2026-04-25T12:28:09Z</time></trkpt><trkpt lat="36.53849265009753" lon="-5.297496676646912"><ele>740.0</ele><time>2026-04-25T12:28:10Z</time></trkpt><trkpt lat="36.53845741598914" lon="-5.297415381555381"><ele>740.0</ele><time>2026-04-25T12:28:11Z</time></trkpt><trkpt lat="36.538419264916826" lon="-5.297334869777987"><ele>740.0</ele><time>2026-04-25T12:28:12Z</time></trkpt><trkpt lat="36.53837596600123" lon="-5.29724927261558"><ele>740.0</ele><time>2026-04-25T12:28:13Z</time></trkpt><trkpt lat="36.53832343239784" lon="-5.297159865999801"><ele>740.0</ele><time>2026-04-25T12:28:14Z</time></trkpt><trkpt lat="36.538285736854945" lon="-5.297066017585772"><ele>740.0</ele><time>2026-04-25T12:28:15Z</time></trkpt><trkpt lat="36.53823505774725" lon="-5.296956640403342"><ele>740.0</ele><time>2026-04-25T12:28:16Z</time></trkpt><trkpt lat="36.53821690098149" lon="-5.296838583687789"><ele>738.6</ele><time>2026-04-25T12:28:17Z</time></trkpt><trkpt lat="36.53820106778878" lon="-5.296731128681017"><ele>737.2</ele><time>2026-04-25T12:28:18Z</time></trkpt><trkpt lat="36.53818011105729" lon="-5.296612719961502"><ele>735.8</ele><time>2026-04-25T12:28:19Z</time></trkpt><trkpt lat="36.53816676662435" lon="-5.296493575301478"><ele>734.4</ele><time>2026-04-25T12:28:20Z</time></trkpt><trkpt lat="36.538155130262865" lon="-5.296384087074299"><ele>733.0</ele><time>2026-04-25T12:28:21Z</time></trkpt><trkpt lat="36.538133102620634" lon="-5.2962711158333065"><ele>733.0</ele><time>2026-04-25T12:28:23Z</time></trkpt><trkpt lat="36.53804225643722" lon="-5.296393978260135"><ele>733.0</ele><time>2026-04-25T12:29:43.999Z</time></trkpt><trkpt lat="36.53802399135419" lon="-5.296505542261966"><ele>733.0</ele><time>2026-04-25T12:29:45.999Z</time></trkpt><trkpt lat="36.538010451939634" lon="-5.296585656572847"><ele>733.0</ele><time>2026-04-25T12:29:46.999Z</time></trkpt><trkpt lat="36.53799585821392" lon="-5.2966668735374896"><ele>733.0</ele><time>2026-04-25T12:29:47.999Z</time></trkpt><trkpt lat="36.537979902284285" lon="-5.296755671600252"><ele>733.0</ele><time>2026-04-25T12:29:48.999Z</time></trkpt><trkpt lat="36.5379501157099" lon="-5.296847662724945"><ele>733.0</ele><time>2026-04-25T12:29:49.999Z</time></trkpt><trkpt lat="36.5379387767286" lon="-5.296930706869051"><ele>733.0</ele><time>2026-04-25T12:29:50.999Z</time></trkpt><trkpt lat="36.537910476701846" lon="-5.297067503711535"><ele>733.0</ele><time>2026-04-25T12:29:52.999Z</time></trkpt><trkpt lat="36.53787552440273" lon="-5.29716876456019"><ele>733.0</ele><time>2026-04-25T12:29:54.999Z</time></trkpt><trkpt lat="36.53784679693762" lon="-5.297271510581755"><ele>733.0</ele><time>2026-04-25T12:29:56.999Z</time></trkpt><trkpt lat="36.53781681970331" lon="-5.297355085932911"><ele>733.0</ele><time>2026-04-25T12:29:58.999Z</time></trkpt><trkpt lat="36.537806548653265" lon="-5.297438392992097"><ele>730.6666666666667</ele><time>2026-04-25T12:30:02Z</time></trkpt><trkpt lat="36.53776467859772" lon="-5.297512131419168"><ele>728.3333333333334</ele><time>2026-04-25T12:30:04Z</time></trkpt><trkpt lat="36.53774333043845" lon="-5.297595158630278"><ele>726.0</ele><time>2026-04-25T12:30:06Z</time></trkpt><trkpt lat="36.53775315563219" lon="-5.29751733053115"><ele>723.6666666666666</ele><time>2026-04-25T12:30:16Z</time></trkpt><trkpt lat="36.53781132014597" lon="-5.297446701347703"><ele>721.3333333333333</ele><time>2026-04-25T12:30:20Z</time></trkpt><trkpt lat="36.537837665709695" lon="-5.297323637248746"><ele>719.0</ele><time>2026-04-25T12:30:22Z</time></trkpt><trkpt lat="36.53787426793202" lon="-5.2972458102741395"><ele>721.8000000000001</ele><time>2026-04-25T12:30:23Z</time></trkpt><trkpt lat="36.53790888201233" lon="-5.297164386840776"><ele>724.6</ele><time>2026-04-25T12:30:24Z</time></trkpt><trkpt lat="36.53789164897815" lon="-5.297021588864267"><ele>727.4</ele><time>2026-04-25T12:30:25Z</time></trkpt><trkpt lat="36.53794664644746" lon="-5.296841597026829"><ele>730.2</ele><time>2026-04-25T12:30:26Z</time></trkpt><trkpt lat="36.53795297571947" lon="-5.296712409512974"><ele>733.0</ele><time>2026-04-25T12:30:27Z</time></trkpt><trkpt lat="36.53798743828348" lon="-5.296606366550177"><ele>733.0</ele><time>2026-04-25T12:30:28Z</time></trkpt><trkpt lat="36.537995478521374" lon="-5.296527510387703"><ele>733.0</ele><time>2026-04-25T12:30:29Z</time></trkpt><trkpt lat="36.5380048890449" lon="-5.296418561165475"><ele>733.0</ele><time>2026-04-25T12:30:30Z</time></trkpt><trkpt lat="36.538034108190615" lon="-5.2962855684165895"><ele>733.0</ele><time>2026-04-25T12:30:32Z</time></trkpt><trkpt lat="36.53818359423903" lon="-5.296389175251459"><ele>733.0</ele><time>2026-04-25T12:30:36Z</time></trkpt><trkpt lat="36.53819616649127" lon="-5.29649272391693"><ele>733.0</ele><time>2026-04-25T12:30:37Z</time></trkpt><trkpt lat="36.538190758841615" lon="-5.296595585833362"><ele>733.0</ele><time>2026-04-25T12:30:38Z</time></trkpt><trkpt lat="36.53820512387339" lon="-5.296681887765132"><ele>733.0</ele><time>2026-04-25T12:30:39Z</time></trkpt><trkpt lat="36.53821686661609" lon="-5.2967627758985785"><ele>733.0</ele><time>2026-04-25T12:30:40Z</time></trkpt><trkpt lat="36.53824551938612" lon="-5.2968853379475105"><ele>733.0</ele><time>2026-04-25T12:30:42Z</time></trkpt><trkpt lat="36.5382640199072" lon="-5.296978129940802"><ele>733.0</ele><time>2026-04-25T12:30:44Z</time></trkpt><trkpt lat="36.538307621468434" lon="-5.297069100955148"><ele>733.0</ele><time>2026-04-25T12:31:01Z</time></trkpt><trkpt lat="36.538377251727766" lon="-5.297220312288723"><ele>733.0</ele><time>2026-04-25T12:31:03Z</time></trkpt><trkpt lat="36.538426901112345" lon="-5.2973170582024505"><ele>733.0</ele><time>2026-04-25T12:31:04Z</time></trkpt><trkpt lat="36.538492192754994" lon="-5.297398582618736"><ele>733.0</ele><time>2026-04-25T12:31:04.999Z</time></trkpt><trkpt lat="36.53853169153272" lon="-5.297501185157737"><ele>733.0</ele><time>2026-04-25T12:31:05.999Z</time></trkpt><trkpt lat="36.53854360853225" lon="-5.297619417572003"><ele>734.4</ele><time>2026-04-25T12:31:06.999Z</time></trkpt><trkpt lat="36.53851226795048" lon="-5.297736495279683"><ele>735.8</ele><time>2026-04-25T12:31:07.999Z</time></trkpt><trkpt lat="36.53850400940414" lon="-5.2978752759948335"><ele>737.2</ele><time>2026-04-25T12:31:08.999Z</time></trkpt><trkpt lat="36.53847743512594" lon="-5.298020033589262"><ele>738.6</ele><time>2026-04-25T12:31:09.999Z</time></trkpt><trkpt lat="36.5384887582176" lon="-5.298133688319416"><ele>740.0</ele><time>2026-04-25T12:31:10.999Z</time></trkpt><trkpt lat="36.538494748424355" lon="-5.298238527288145"><ele>741.6</ele><time>2026-04-25T12:31:11.999Z</time></trkpt><trkpt lat="36.538513842106404" lon="-5.298346772695268"><ele>743.2</ele><time>2026-04-25T12:31:12.999Z</time></trkpt><trkpt lat="36.53853752378381" lon="-5.298462047047866"><ele>744.8</ele><time>2026-04-25T12:31:13.999Z</time></trkpt><trkpt lat="36.53859753499335" lon="-5.2985655789261825"><ele>746.4</ele><time>2026-04-25T12:31:14.999Z</time></trkpt><trkpt lat="36.53866063423934" lon="-5.298668043692552"><ele>748.0</ele><time>2026-04-25T12:31:15.999Z</time></trkpt><trkpt lat="36.53872122030137" lon="-5.298791061359787"><ele>746.4</ele><time>2026-04-25T12:31:16.999Z</time></trkpt><trkpt lat="36.538766827223945" lon="-5.298912130230471"><ele>744.8</ele><time>2026-04-25T12:31:17.999Z</time></trkpt><trkpt lat="36.538801328915945" lon="-5.299041290753008"><ele>743.2</ele><time>2026-04-25T12:31:18.999Z</time></trkpt><trkpt lat="36.53881913660429" lon="-5.299161814698094"><ele>741.6</ele><time>2026-04-25T12:31:19.999Z</time></trkpt><trkpt lat="36.538834752527386" lon="-5.299279275212156"><ele>740.0</ele><time>2026-04-25T12:31:20.999Z</time></trkpt><trkpt lat="36.53884349845459" lon="-5.299392868723216"><ele>740.0</ele><time>2026-04-25T12:31:21.999Z</time></trkpt><trkpt lat="36.538851958079206" lon="-5.299515859923017"><ele>740.0</ele><time>2026-04-25T12:31:22.999Z</time></trkpt><trkpt lat="36.53885061579736" lon="-5.299648443383111"><ele>740.0</ele><time>2026-04-25T12:31:23.999Z</time></trkpt><trkpt lat="36.53885211818369" lon="-5.299764558979051"><ele>740.0</ele><time>2026-04-25T12:31:24.999Z</time></trkpt><trkpt lat="36.53884509255976" lon="-5.299873032288351"><ele>740.0</ele><time>2026-04-25T12:31:25.999Z</time></trkpt><trkpt lat="36.538852246900994" lon="-5.2999877777040965"><ele>743.0</ele><time>2026-04-25T12:31:26.999Z</time></trkpt><trkpt lat="36.53885762490241" lon="-5.30009431622631"><ele>746.0</ele><time>2026-04-25T12:31:27.999Z</time></trkpt><trkpt lat="36.538875820986874" lon="-5.300191586192612"><ele>749.0</ele><time>2026-04-25T12:31:28.999Z</time></trkpt><trkpt lat="36.538918245811296" lon="-5.300281882493088"><ele>752.0</ele><time>2026-04-25T12:31:29.999Z</time></trkpt><trkpt lat="36.53896151338054" lon="-5.300375856958229"><ele>755.0</ele><time>2026-04-25T12:31:30.999Z</time></trkpt><trkpt lat="36.53902010476484" lon="-5.300458148483537"><ele>758.0</ele><time>2026-04-25T12:31:31.999Z</time></trkpt><trkpt lat="36.539067624740326" lon="-5.300536398604533"><ele>761.0</ele><time>2026-04-25T12:31:32.999Z</time></trkpt><trkpt lat="36.539123486779445" lon="-5.300601733929449"><ele>764.0</ele><time>2026-04-25T12:31:33.999Z</time></trkpt><trkpt lat="36.53918647141544" lon="-5.300648755439696"><ele>767.0</ele><time>2026-04-25T12:31:34.999Z</time></trkpt><trkpt lat="36.539247777378264" lon="-5.3006956524689075"><ele>770.0</ele><time>2026-04-25T12:31:35.999Z</time></trkpt><trkpt lat="36.5393245896888" lon="-5.300723362747103"><ele>773.0000000000001</ele><time>2026-04-25T12:31:36.999Z</time></trkpt><trkpt lat="36.53940285342857" lon="-5.300761812173643"><ele>776.0</ele><time>2026-04-25T12:31:37.999Z</time></trkpt><trkpt lat="36.53947639918574" lon="-5.300773710306616"><ele>776.5714285714286</ele><time>2026-04-25T12:31:38.999Z</time></trkpt><trkpt lat="36.539554357905075" lon="-5.300796339656286"><ele>777.1428571428572</ele><time>2026-04-25T12:31:39.999Z</time></trkpt><trkpt lat="36.53963322726391" lon="-5.300814424014123"><ele>777.7142857142858</ele><time>2026-04-25T12:31:40.999Z</time></trkpt><trkpt lat="36.539706396878415" lon="-5.300849545387852"><ele>778.2857142857142</ele><time>2026-04-25T12:31:41.999Z</time></trkpt><trkpt lat="36.5397731638952" lon="-5.300878134933713"><ele>778.8571428571429</ele><time>2026-04-25T12:31:42.999Z</time></trkpt><trkpt lat="36.539832864785616" lon="-5.300917494404819"><ele>779.4285714285714</ele><time>2026-04-25T12:31:43.999Z</time></trkpt><trkpt lat="36.539895746797164" lon="-5.30096054588373"><ele>780.0</ele><time>2026-04-25T12:31:45.999Z</time></trkpt><trkpt lat="36.53995460498954" lon="-5.301005843007743"><ele>780.0</ele><time>2026-04-25T12:32:54Z</time></trkpt><trkpt lat="36.54003161630444" lon="-5.3010182068761456"><ele>780.0</ele><time>2026-04-25T12:32:56Z</time></trkpt><trkpt lat="36.5401481940914" lon="-5.300981575639983"><ele>780.0</ele><time>2026-04-25T12:32:58Z</time></trkpt><trkpt lat="36.54021855347916" lon="-5.300957912471171"><ele>780.0</ele><time>2026-04-25T12:32:59Z</time></trkpt><trkpt lat="36.54029449530174" lon="-5.300944258379146"><ele>780.0</ele><time>2026-04-25T12:33:00Z</time></trkpt><trkpt lat="36.540367918840694" lon="-5.300948438400373"><ele>780.0</ele><time>2026-04-25T12:33:01Z</time></trkpt><trkpt lat="36.54044731609825" lon="-5.300963378267259"><ele>782.5</ele><time>2026-04-25T12:33:01.999Z</time></trkpt><trkpt lat="36.54052126069461" lon="-5.300949763118628"><ele>785.0</ele><time>2026-04-25T12:33:02.999Z</time></trkpt><trkpt lat="36.54058870085013" lon="-5.3009265592618595"><ele>787.5</ele><time>2026-04-25T12:33:03.999Z</time></trkpt><trkpt lat="36.54065855985995" lon="-5.300894394454557"><ele>790.0</ele><time>2026-04-25T12:33:04.999Z</time></trkpt><trkpt lat="36.540726594627415" lon="-5.30084836449123"><ele>792.5</ele><time>2026-04-25T12:33:05.999Z</time></trkpt><trkpt lat="36.54079840106434" lon="-5.300816142233009"><ele>795.0</ele><time>2026-04-25T12:33:06.999Z</time></trkpt><trkpt lat="36.54086142334914" lon="-5.300752740908673"><ele>795.0</ele><time>2026-04-25T12:33:07.999Z</time></trkpt><trkpt lat="36.540923748832185" lon="-5.300671778473103"><ele>795.0</ele><time>2026-04-25T12:33:08.999Z</time></trkpt><trkpt lat="36.54097226866538" lon="-5.3005699733947305"><ele>795.0</ele><time>2026-04-25T12:33:09.999Z</time></trkpt><trkpt lat="36.54101637319786" lon="-5.300459199294094"><ele>795.0</ele><time>2026-04-25T12:33:10.999Z</time></trkpt><trkpt lat="36.54105242610176" lon="-5.30034644922534"><ele>795.0</ele><time>2026-04-25T12:33:11.999Z</time></trkpt><trkpt lat="36.54109891371178" lon="-5.300255086237165"><ele>792.8333333333334</ele><time>2026-04-25T12:33:12.999Z</time></trkpt><trkpt lat="36.541149395280485" lon="-5.300190693654508"><ele>790.6666666666667</ele><time>2026-04-25T12:33:13.999Z</time></trkpt><trkpt lat="36.54121086170624" lon="-5.300137567870585"><ele>788.5</ele><time>2026-04-25T12:33:14.999Z</time></trkpt><trkpt lat="36.54127440047842" lon="-5.300112781638477"><ele>786.3333333333334</ele><time>2026-04-25T12:33:15.999Z</time></trkpt><trkpt lat="36.54135064331968" lon="-5.300111390463539"><ele>784.1666666666667</ele><time>2026-04-25T12:33:16.999Z</time></trkpt><trkpt lat="36.54142869433398" lon="-5.300148249409348"><ele>782.0</ele><time>2026-04-25T12:33:17.999Z</time></trkpt><trkpt lat="36.54150777644973" lon="-5.300206965021227"><ele>782.0</ele><time>2026-04-25T12:33:18.999Z</time></trkpt><trkpt lat="36.54158415870049" lon="-5.300261632178627"><ele>782.0</ele><time>2026-04-25T12:33:19.999Z</time></trkpt><trkpt lat="36.541668365946" lon="-5.30029878990938"><ele>782.0</ele><time>2026-04-25T12:33:20.999Z</time></trkpt><trkpt lat="36.541760774222155" lon="-5.300323752359455"><ele>782.0</ele><time>2026-04-25T12:33:21.999Z</time></trkpt><trkpt lat="36.5418610293895" lon="-5.300326122824955"><ele>782.0</ele><time>2026-04-25T12:33:22.999Z</time></trkpt><trkpt lat="36.54195519388912" lon="-5.30030451926112"><ele>782.0000000000001</ele><time>2026-04-25T12:33:23.999Z</time></trkpt><trkpt lat="36.542035596329136" lon="-5.300269685523678"><ele>782.0</ele><time>2026-04-25T12:33:24.999Z</time></trkpt><trkpt lat="36.54212231569077" lon="-5.30024320319309"><ele>782.0</ele><time>2026-04-25T12:33:25.999Z</time></trkpt><trkpt lat="36.54221019454652" lon="-5.300229080188846"><ele>782.0</ele><time>2026-04-25T12:33:26.999Z</time></trkpt><trkpt lat="36.542291857504566" lon="-5.300225449080051"><ele>782.0000000000001</ele><time>2026-04-25T12:33:27.999Z</time></trkpt><trkpt lat="36.542369139926876" lon="-5.300237335052889"><ele>782.0</ele><time>2026-04-25T12:33:28.999Z</time></trkpt><trkpt lat="36.542441252786546" lon="-5.300245355250202"><ele>782.8</ele><time>2026-04-25T12:33:29.999Z</time></trkpt><trkpt lat="36.54250883908121" lon="-5.300254213468929"><ele>783.6</ele><time>2026-04-25T12:33:30.999Z</time></trkpt><trkpt lat="36.54262946554583" lon="-5.30028401821969"><ele>784.4</ele><time>2026-04-25T12:33:32.999Z</time></trkpt><trkpt lat="36.54273262044093" lon="-5.300283408692909"><ele>785.1999999999999</ele><time>2026-04-25T12:33:34.999Z</time></trkpt><trkpt lat="36.54283530351347" lon="-5.300290270647575"><ele>786.0</ele><time>2026-04-25T12:33:36.999Z</time></trkpt><trkpt lat="36.542899271316294" lon="-5.300319637777565"><ele>786.8333333333334</ele><time>2026-04-25T12:33:37.999Z</time></trkpt><trkpt lat="36.54296383967758" lon="-5.300362205776528"><ele>787.6666666666667</ele><time>2026-04-25T12:33:38.999Z</time></trkpt><trkpt lat="36.54302437795443" lon="-5.300421486584037"><ele>788.5</ele><time>2026-04-25T12:33:39.999Z</time></trkpt><trkpt lat="36.543098140101584" lon="-5.300516867247007"><ele>789.3333333333334</ele><time>2026-04-25T12:33:41.999Z</time></trkpt><trkpt lat="36.543126966489325" lon="-5.300586582180803"><ele>790.1666666666667</ele><time>2026-04-25T12:33:44.999Z</time></trkpt><trkpt lat="36.54316123537044" lon="-5.30067209582682"><ele>791.0</ele><time>2026-04-25T12:33:52.999Z</time></trkpt><trkpt lat="36.54307256934308" lon="-5.300778758141515"><ele>791.0</ele><time>2026-04-25T12:33:53.999Z</time></trkpt><trkpt lat="36.54300866423934" lon="-5.3008433816531335"><ele>791.0</ele><time>2026-04-25T12:33:54.999Z</time></trkpt><trkpt lat="36.542957751852924" lon="-5.300942083530352"><ele>791.0</ele><time>2026-04-25T12:33:55.999Z</time></trkpt><trkpt lat="36.54288803684201" lon="-5.301036918251114"><ele>791.0</ele><time>2026-04-25T12:33:56.999Z</time></trkpt><trkpt lat="36.54281514496756" lon="-5.301136292806294"><ele>791.0</ele><time>2026-04-25T12:33:57.999Z</time></trkpt><trkpt lat="36.542734403967934" lon="-5.301246368084286"><ele>791.25</ele><time>2026-04-25T12:33:58.999Z</time></trkpt><trkpt lat="36.54263704403121" lon="-5.301348935431545"><ele>791.5</ele><time>2026-04-25T12:33:59.999Z</time></trkpt><trkpt lat="36.54254617685498" lon="-5.301479798191856"><ele>791.75</ele><time>2026-04-25T12:34:00.999Z</time></trkpt><trkpt lat="36.54244704584809" lon="-5.301620071830362"><ele>792.0</ele><time>2026-04-25T12:34:01.999Z</time></trkpt><trkpt lat="36.54234266192603" lon="-5.3017641097210095"><ele>792.0</ele><time>2026-04-25T12:34:02.999Z</time></trkpt><trkpt lat="36.54223912694478" lon="-5.301915602872503"><ele>792.0</ele><time>2026-04-25T12:34:03.999Z</time></trkpt><trkpt lat="36.54213281098884" lon="-5.302070201087794"><ele>792.0</ele><time>2026-04-25T12:34:04.999Z</time></trkpt><trkpt lat="36.542013642175874" lon="-5.302216856744701"><ele>793.25</ele><time>2026-04-25T12:34:05.999Z</time></trkpt><trkpt lat="36.54189787329242" lon="-5.30233978281193"><ele>794.5</ele><time>2026-04-25T12:34:06.999Z</time></trkpt><trkpt lat="36.5417877278181" lon="-5.302456941207866"><ele>795.75</ele><time>2026-04-25T12:34:07.999Z</time></trkpt><trkpt lat="36.54166886210178" lon="-5.3025608161200255"><ele>797.0</ele><time>2026-04-25T12:34:08.999Z</time></trkpt><trkpt lat="36.54154881908873" lon="-5.302644541028415"><ele>797.0</ele><time>2026-04-25T12:34:09.999Z</time></trkpt><trkpt lat="36.541417416599934" lon="-5.302708564155248"><ele>797.0</ele><time>2026-04-25T12:34:10.999Z</time></trkpt><trkpt lat="36.54127667375403" lon="-5.30275437142194"><ele>797.0</ele><time>2026-04-25T12:34:12Z</time></trkpt><trkpt lat="36.54113181346089" lon="-5.3027749597483655"><ele>797.0</ele><time>2026-04-25T12:34:13Z</time></trkpt><trkpt lat="36.54099058382197" lon="-5.302798455227568"><ele>795.6666666666667</ele><time>2026-04-25T12:34:14Z</time></trkpt><trkpt lat="36.54084157777454" lon="-5.302769668626251"><ele>794.3333333333333</ele><time>2026-04-25T12:34:15Z</time></trkpt><trkpt lat="36.540693991231215" lon="-5.30272054163523"><ele>793.0</ele><time>2026-04-25T12:34:16Z</time></trkpt><trkpt lat="36.54054227799012" lon="-5.302666188748098"><ele>793.0</ele><time>2026-04-25T12:34:17Z</time></trkpt><trkpt lat="36.54039067019722" lon="-5.302608340420143"><ele>793.0</ele><time>2026-04-25T12:34:18Z</time></trkpt><trkpt lat="36.540252981175236" lon="-5.302548626490248"><ele>793.0</ele><time>2026-04-25T12:34:19Z</time></trkpt><trkpt lat="36.540123434496856" lon="-5.30248873465233"><ele>793.0</ele><time>2026-04-25T12:34:20Z</time></trkpt><trkpt lat="36.5399976788665" lon="-5.302421054734764"><ele>793.0</ele><time>2026-04-25T12:34:21Z</time></trkpt><trkpt lat="36.53988464816182" lon="-5.302328871743025"><ele>793.0</ele><time>2026-04-25T12:34:22Z</time></trkpt><trkpt lat="36.53977747015868" lon="-5.302221814176669"><ele>793.0</ele><time>2026-04-25T12:34:23Z</time></trkpt><trkpt lat="36.539687266971114" lon="-5.302101154353183"><ele>793.0</ele><time>2026-04-25T12:34:24Z</time></trkpt><trkpt lat="36.539591449083126" lon="-5.301981526409761"><ele>787.75</ele><time>2026-04-25T12:34:25Z</time></trkpt><trkpt lat="36.539498116520434" lon="-5.301868879880121"><ele>782.5</ele><time>2026-04-25T12:34:26Z</time></trkpt><trkpt lat="36.539394260974454" lon="-5.301755396203355"><ele>777.25</ele><time>2026-04-25T12:34:27Z</time></trkpt><trkpt lat="36.539283889738854" lon="-5.3016322677414776"><ele>772.0</ele><time>2026-04-25T12:34:28Z</time></trkpt><trkpt lat="36.539179293362" lon="-5.301514661462673"><ele>771.75</ele><time>2026-04-25T12:34:29Z</time></trkpt><trkpt lat="36.53907813152648" lon="-5.301404081937673"><ele>771.5</ele><time>2026-04-25T12:34:30Z</time></trkpt><trkpt lat="36.538952622069274" lon="-5.301340055751506"><ele>771.25</ele><time>2026-04-25T12:34:31Z</time></trkpt><trkpt lat="36.53883366277095" lon="-5.3012807382385105"><ele>771.0</ele><time>2026-04-25T12:34:32Z</time></trkpt><trkpt lat="36.538711157318" lon="-5.30124091342703"><ele>771.0</ele><time>2026-04-25T12:34:33Z</time></trkpt><trkpt lat="36.538581844567354" lon="-5.301229349486989"><ele>771.0</ele><time>2026-04-25T12:34:34Z</time></trkpt><trkpt lat="36.53844921880724" lon="-5.301240892912503"><ele>771.0</ele><time>2026-04-25T12:34:35Z</time></trkpt><trkpt lat="36.538310196477866" lon="-5.3012602288761"><ele>771.0</ele><time>2026-04-25T12:34:36Z</time></trkpt><trkpt lat="36.5381578056125" lon="-5.301284090373714"><ele>771.0</ele><time>2026-04-25T12:34:37Z</time></trkpt><trkpt lat="36.5380143384138" lon="-5.301310941633965"><ele>771.0</ele><time>2026-04-25T12:34:38Z</time></trkpt><trkpt lat="36.53787376540702" lon="-5.3013447147196935"><ele>771.0</ele><time>2026-04-25T12:34:39Z</time></trkpt><trkpt lat="36.53772889609654" lon="-5.301400776330501"><ele>771.0</ele><time>2026-04-25T12:34:40Z</time></trkpt><trkpt lat="36.53758730682174" lon="-5.301453702782085"><ele>766.25</ele><time>2026-04-25T12:34:41Z</time></trkpt><trkpt lat="36.53746386541134" lon="-5.3015359990817155"><ele>761.5</ele><time>2026-04-25T12:34:42Z</time></trkpt><trkpt lat="36.537339790834125" lon="-5.301604316825335"><ele>756.75</ele><time>2026-04-25T12:34:43Z</time></trkpt><trkpt lat="36.537209443922436" lon="-5.301668037108887"><ele>752.0</ele><time>2026-04-25T12:34:44Z</time></trkpt><trkpt lat="36.53708619694698" lon="-5.30171411713945"><ele>751.4000000000001</ele><time>2026-04-25T12:34:45Z</time></trkpt><trkpt lat="36.536962311817234" lon="-5.301746426541417"><ele>750.8000000000001</ele><time>2026-04-25T12:34:46Z</time></trkpt><trkpt lat="36.53685286567115" lon="-5.301744405008417"><ele>750.2</ele><time>2026-04-25T12:34:47Z</time></trkpt><trkpt lat="36.53675067283429" lon="-5.301754613619114"><ele>749.6</ele><time>2026-04-25T12:34:48Z</time></trkpt><trkpt lat="36.536652042990006" lon="-5.301731858790672"><ele>749.0</ele><time>2026-04-25T12:34:49Z</time></trkpt><trkpt lat="36.53656233577085" lon="-5.301736929779086"><ele>749.0</ele><time>2026-04-25T12:34:50Z</time></trkpt><trkpt lat="36.53648660879166" lon="-5.301695904623564"><ele>749.0</ele><time>2026-04-25T12:34:51Z</time></trkpt><trkpt lat="36.5363760502618" lon="-5.301710915835591"><ele>749.0</ele><time>2026-04-25T12:34:53Z</time></trkpt><trkpt lat="36.53624344146322" lon="-5.3017168525607445"><ele>749.0</ele><time>2026-04-25T12:34:55Z</time></trkpt><trkpt lat="36.53617700391083" lon="-5.301701763594602"><ele>749.0</ele><time>2026-04-25T12:34:56Z</time></trkpt><trkpt lat="36.53607382347282" lon="-5.301675280804943"><ele>746.75</ele><time>2026-04-25T12:34:57Z</time></trkpt><trkpt lat="36.536105795475876" lon="-5.30196614387062"><ele>744.5</ele><time>2026-04-25T12:34:58Z</time></trkpt><trkpt lat="36.536040277194644" lon="-5.302061326230719"><ele>742.25</ele><time>2026-04-25T12:34:59Z</time></trkpt><trkpt lat="36.53598147240139" lon="-5.302145276848381"><ele>740.0</ele><time>2026-04-25T12:35:00Z</time></trkpt><trkpt lat="36.53591810915397" lon="-5.302227523080271"><ele>741.2</ele><time>2026-04-25T12:35:01Z</time></trkpt><trkpt lat="36.53586030841677" lon="-5.302304565462157"><ele>742.4</ele><time>2026-04-25T12:35:02Z</time></trkpt><trkpt lat="36.535785997160694" lon="-5.302395717495561"><ele>743.5999999999999</ele><time>2026-04-25T12:35:02.999Z</time></trkpt><trkpt lat="36.535704496450336" lon="-5.302484662835037"><ele>744.8</ele><time>2026-04-25T12:35:03.999Z</time></trkpt><trkpt lat="36.535623254408044" lon="-5.30256476971363"><ele>746.0</ele><time>2026-04-25T12:35:04.999Z</time></trkpt><trkpt lat="36.53553391815249" lon="-5.302635806928141"><ele>746.0</ele><time>2026-04-25T12:35:05.999Z</time></trkpt><trkpt lat="36.53544290702594" lon="-5.302724169881507"><ele>746.0</ele><time>2026-04-25T12:35:06.999Z</time></trkpt><trkpt lat="36.53535316832794" lon="-5.302807688727352"><ele>746.0</ele><time>2026-04-25T12:35:07.999Z</time></trkpt><trkpt lat="36.53526181931339" lon="-5.302897101588633"><ele>746.0</ele><time>2026-04-25T12:35:08.999Z</time></trkpt><trkpt lat="36.535172400549236" lon="-5.302982454901983"><ele>746.0</ele><time>2026-04-25T12:35:09.999Z</time></trkpt><trkpt lat="36.53509930129189" lon="-5.303068760870619"><ele>746.0</ele><time>2026-04-25T12:35:10.999Z</time></trkpt><trkpt lat="36.53501043293665" lon="-5.303143483607295"><ele>746.0</ele><time>2026-04-25T12:35:11.999Z</time></trkpt><trkpt lat="36.53492509185403" lon="-5.303213757476555"><ele>746.0</ele><time>2026-04-25T12:35:12.999Z</time></trkpt><trkpt lat="36.53483784840149" lon="-5.303281374296053"><ele>746.0</ele><time>2026-04-25T12:35:13.999Z</time></trkpt><trkpt lat="36.534746823820385" lon="-5.303324897216091"><ele>746.0</ele><time>2026-04-25T12:35:14.999Z</time></trkpt><trkpt lat="36.53466579407473" lon="-5.3033846261572934"><ele>746.0</ele><time>2026-04-25T12:35:15.999Z</time></trkpt><trkpt lat="36.53459682111808" lon="-5.303437459437676"><ele>746.0</ele><time>2026-04-25T12:35:16.999Z</time></trkpt><trkpt lat="36.5345411029226" lon="-5.303483124860004"><ele>746.0</ele><time>2026-04-25T12:35:17.999Z</time></trkpt><trkpt lat="36.534479754421476" lon="-5.303515272050215"><ele>746.0</ele><time>2026-04-25T12:35:18.999Z</time></trkpt><trkpt lat="36.53440247079747" lon="-5.303523075814076"><ele>746.0</ele><time>2026-04-25T12:35:19.999Z</time></trkpt><trkpt lat="36.53431798520843" lon="-5.303532716550248"><ele>746.0</ele><time>2026-04-25T12:35:20.999Z</time></trkpt><trkpt lat="36.534228988936576" lon="-5.303543669579738"><ele>746.0</ele><time>2026-04-25T12:35:21.999Z</time></trkpt><trkpt lat="36.53415256004737" lon="-5.303548560507135"><ele>746.0</ele><time>2026-04-25T12:35:22.999Z</time></trkpt><trkpt lat="36.534085862810635" lon="-5.303549948239302"><ele>746.0</ele><time>2026-04-25T12:35:23.999Z</time></trkpt><trkpt lat="36.53399851503121" lon="-5.3035427628423095"><ele>746.0</ele><time>2026-04-25T12:35:24.999Z</time></trkpt><trkpt lat="36.53390359910048" lon="-5.303555127654884"><ele>746.0</ele><time>2026-04-25T12:35:25.999Z</time></trkpt><trkpt lat="36.5338023556175" lon="-5.303548716362904"><ele>742.5999999999999</ele><time>2026-04-25T12:35:26.999Z</time></trkpt><trkpt lat="36.53370501354296" lon="-5.303542552140356"><ele>739.2</ele><time>2026-04-25T12:35:27.999Z</time></trkpt><trkpt lat="36.5335983381914" lon="-5.3035322655662664"><ele>735.8</ele><time>2026-04-25T12:35:28.999Z</time></trkpt><trkpt lat="36.533491677791325" lon="-5.303502338386892"><ele>732.4000000000001</ele><time>2026-04-25T12:35:29.999Z</time></trkpt><trkpt lat="36.53339472458667" lon="-5.303498523143278"><ele>729.0</ele><time>2026-04-25T12:35:30.999Z</time></trkpt><trkpt lat="36.533314200802366" lon="-5.3035092559734816"><ele>729.0</ele><time>2026-04-25T12:35:31.999Z</time></trkpt><trkpt lat="36.533242666803105" lon="-5.3035123647266955"><ele>729.0</ele><time>2026-04-25T12:35:32.999Z</time></trkpt><trkpt lat="36.533178007676" lon="-5.303543725863686"><ele>729.0</ele><time>2026-04-25T12:35:33.999Z</time></trkpt><trkpt lat="36.53311730437823" lon="-5.303591235157587"><ele>729.0</ele><time>2026-04-25T12:35:34.999Z</time></trkpt><trkpt lat="36.533061639482874" lon="-5.303648192878159"><ele>729.0</ele><time>2026-04-25T12:35:35.999Z</time></trkpt><trkpt lat="36.53300767084653" lon="-5.303724932341044"><ele>729.0</ele><time>2026-04-25T12:35:36.999Z</time></trkpt><trkpt lat="36.53296029007984" lon="-5.303804214508719"><ele>729.0</ele><time>2026-04-25T12:35:37.999Z</time></trkpt><trkpt lat="36.53287503378183" lon="-5.303957002830585"><ele>728.0</ele><time>2026-04-25T12:35:39.999Z</time></trkpt><trkpt lat="36.532820171693" lon="-5.304058476053988"><ele>727.0</ele><time>2026-04-25T12:35:40.999Z</time></trkpt><trkpt lat="36.53277134032113" lon="-5.3041607573349046"><ele>726.0</ele><time>2026-04-25T12:35:41.999Z</time></trkpt><trkpt lat="36.53271134141936" lon="-5.304268678914124"><ele>725.0</ele><time>2026-04-25T12:35:42.999Z</time></trkpt><trkpt lat="36.53264574808555" lon="-5.30437433422921"><ele>724.0</ele><time>2026-04-25T12:35:43.999Z</time></trkpt><trkpt lat="36.532574903617" lon="-5.304469361874293"><ele>724.0</ele><time>2026-04-25T12:35:44.999Z</time></trkpt><trkpt lat="36.53251271921053" lon="-5.30456019282867"><ele>724.0</ele><time>2026-04-25T12:35:45.999Z</time></trkpt><trkpt lat="36.53245911264972" lon="-5.304649198496575"><ele>724.0</ele><time>2026-04-25T12:35:46.999Z</time></trkpt><trkpt lat="36.53243817259929" lon="-5.304756780397537"><ele>724.0</ele><time>2026-04-25T12:35:47.999Z</time></trkpt><trkpt lat="36.53240771961662" lon="-5.3048562018069605"><ele>724.0</ele><time>2026-04-25T12:35:48.999Z</time></trkpt><trkpt lat="36.53237525843675" lon="-5.304960673771564"><ele>725.2</ele><time>2026-04-25T12:35:49.999Z</time></trkpt><trkpt lat="36.532349780439134" lon="-5.305082001053483"><ele>726.4000000000001</ele><time>2026-04-25T12:35:50.999Z</time></trkpt><trkpt lat="36.53232219208143" lon="-5.3051966996311"><ele>727.6</ele><time>2026-04-25T12:35:51.999Z</time></trkpt><trkpt lat="36.53230090640383" lon="-5.3053095027335"><ele>728.8</ele><time>2026-04-25T12:35:52.999Z</time></trkpt><trkpt lat="36.5322681976672" lon="-5.305419545919479"><ele>730.0</ele><time>2026-04-25T12:35:53.999Z</time></trkpt><trkpt lat="36.53221636045823" lon="-5.305521788953222"><ele>731.2</ele><time>2026-04-25T12:35:54.999Z</time></trkpt><trkpt lat="36.532184523744434" lon="-5.305658039285548"><ele>732.4</ele><time>2026-04-25T12:35:55.999Z</time></trkpt><trkpt lat="36.53213529291436" lon="-5.305785354179464"><ele>733.5999999999999</ele><time>2026-04-25T12:35:56.999Z</time></trkpt><trkpt lat="36.532087624206774" lon="-5.305907446271159"><ele>734.8</ele><time>2026-04-25T12:35:57.999Z</time></trkpt><trkpt lat="36.532048366255005" lon="-5.30600559198588"><ele>736.0</ele><time>2026-04-25T12:35:58.999Z</time></trkpt><trkpt lat="36.53201057578204" lon="-5.3060965016626644"><ele>730.5999999999999</ele><time>2026-04-25T12:35:59.999Z</time></trkpt><trkpt lat="36.53196788516141" lon="-5.30619787694812"><ele>725.2</ele><time>2026-04-25T12:36:00.999Z</time></trkpt><trkpt lat="36.53191796703173" lon="-5.306303722023616"><ele>719.8</ele><time>2026-04-25T12:36:01.999Z</time></trkpt><trkpt lat="36.531880685962186" lon="-5.306422028611089"><ele>714.4000000000001</ele><time>2026-04-25T12:36:02.999Z</time></trkpt><trkpt lat="36.53182400749588" lon="-5.306531554154742"><ele>709.0</ele><time>2026-04-25T12:36:03.999Z</time></trkpt><trkpt lat="36.53176920621011" lon="-5.306651037382112"><ele>709.0</ele><time>2026-04-25T12:36:04.999Z</time></trkpt><trkpt lat="36.531712797347275" lon="-5.306766656081532"><ele>709.0</ele><time>2026-04-25T12:36:05.999Z</time></trkpt><trkpt lat="36.531665466891326" lon="-5.306855440585973"><ele>709.0</ele><time>2026-04-25T12:36:06.999Z</time></trkpt><trkpt lat="36.53162594581762" lon="-5.306946319614878"><ele>709.0</ele><time>2026-04-25T12:36:07.999Z</time></trkpt><trkpt lat="36.53158541755157" lon="-5.307042245888471"><ele>709.0</ele><time>2026-04-25T12:36:08.999Z</time></trkpt><trkpt lat="36.53154148068195" lon="-5.307142798496114"><ele>709.0</ele><time>2026-04-25T12:36:09.999Z</time></trkpt><trkpt lat="36.5314951584819" lon="-5.307241560139078"><ele>709.0</ele><time>2026-04-25T12:36:10.999Z</time></trkpt><trkpt lat="36.531445575892505" lon="-5.307335818223126"><ele>709.0</ele><time>2026-04-25T12:36:11.999Z</time></trkpt><trkpt lat="36.531384443921425" lon="-5.307416716470592"><ele>709.0</ele><time>2026-04-25T12:36:12.999Z</time></trkpt><trkpt lat="36.531324220598215" lon="-5.307493011899805"><ele>709.0</ele><time>2026-04-25T12:36:13.999Z</time></trkpt><trkpt lat="36.53125271667904" lon="-5.307557704505371"><ele>709.0</ele><time>2026-04-25T12:36:14.999Z</time></trkpt><trkpt lat="36.53118723504522" lon="-5.3076373782349675"><ele>705.3333333333334</ele><time>2026-04-25T12:36:15.999Z</time></trkpt><trkpt lat="36.53109981509933" lon="-5.30767944782647"><ele>701.6666666666667</ele><time>2026-04-25T12:36:16.999Z</time></trkpt><trkpt lat="36.53103352357618" lon="-5.307744415665316"><ele>698.0</ele><time>2026-04-25T12:36:18Z</time></trkpt><trkpt lat="36.5309981321155" lon="-5.3078433438393855"><ele>694.3333333333334</ele><time>2026-04-25T12:36:19Z</time></trkpt><trkpt lat="36.5309520949254" lon="-5.307912489572684"><ele>690.6666666666666</ele><time>2026-04-25T12:36:20Z</time></trkpt><trkpt lat="36.5308981738387" lon="-5.307973393699591"><ele>687.0</ele><time>2026-04-25T12:36:21Z</time></trkpt><trkpt lat="36.530782527919015" lon="-5.308033861603219"><ele>687.0</ele><time>2026-04-25T12:36:23Z</time></trkpt><trkpt lat="36.53069624003846" lon="-5.308027139331488"><ele>687.0</ele><time>2026-04-25T12:36:24Z</time></trkpt><trkpt lat="36.53061046061705" lon="-5.308004001434054"><ele>687.0</ele><time>2026-04-25T12:36:25Z</time></trkpt><trkpt lat="36.53054553689178" lon="-5.308003894311104"><ele>687.0</ele><time>2026-04-25T12:36:26Z</time></trkpt><trkpt lat="36.53048200150459" lon="-5.308021710121947"><ele>687.0</ele><time>2026-04-25T12:36:27Z</time></trkpt><trkpt lat="36.53041616170149" lon="-5.30805135638604"><ele>687.0</ele><time>2026-04-25T12:36:28Z</time></trkpt><trkpt lat="36.530359518389986" lon="-5.308101371115689"><ele>687.0</ele><time>2026-04-25T12:36:29Z</time></trkpt><trkpt lat="36.530258456780196" lon="-5.3082339237027485"><ele>686.6666666666666</ele><time>2026-04-25T12:36:31Z</time></trkpt><trkpt lat="36.530206541037536" lon="-5.308310554179892"><ele>686.3333333333334</ele><time>2026-04-25T12:36:32Z</time></trkpt><trkpt lat="36.53015152095141" lon="-5.308366674126372"><ele>686.0</ele><time>2026-04-25T12:36:33Z</time></trkpt><trkpt lat="36.53010739201728" lon="-5.308428983105196"><ele>685.6666666666667</ele><time>2026-04-25T12:36:34Z</time></trkpt><trkpt lat="36.53007257869886" lon="-5.308513706500601"><ele>685.3333333333334</ele><time>2026-04-25T12:36:35Z</time></trkpt><trkpt lat="36.53001879660758" lon="-5.308594224948445"><ele>685.0</ele><time>2026-04-25T12:36:36Z</time></trkpt><trkpt lat="36.52995785967771" lon="-5.308682106872582"><ele>685.0</ele><time>2026-04-25T12:36:37Z</time></trkpt><trkpt lat="36.52989631336947" lon="-5.308771767522389"><ele>685.0</ele><time>2026-04-25T12:36:38Z</time></trkpt><trkpt lat="36.52982680021673" lon="-5.308871139382751"><ele>685.0</ele><time>2026-04-25T12:36:39Z</time></trkpt><trkpt lat="36.52975764373403" lon="-5.30896219960768"><ele>685.0</ele><time>2026-04-25T12:36:40Z</time></trkpt><trkpt lat="36.529683192636426" lon="-5.309042744003499"><ele>685.0</ele><time>2026-04-25T12:36:41Z</time></trkpt><trkpt lat="36.529615024391454" lon="-5.309115127755976"><ele>682.3333333333334</ele><time>2026-04-25T12:36:42Z</time></trkpt><trkpt lat="36.52954476819568" lon="-5.3091857012417485"><ele>679.6666666666667</ele><time>2026-04-25T12:36:43Z</time></trkpt><trkpt lat="36.52947370885466" lon="-5.309250973818033"><ele>677.0</ele><time>2026-04-25T12:36:44Z</time></trkpt><trkpt lat="36.52940163015532" lon="-5.309309676667596"><ele>674.3333333333334</ele><time>2026-04-25T12:36:45Z</time></trkpt><trkpt lat="36.52932477255999" lon="-5.309346528053127"><ele>671.6666666666666</ele><time>2026-04-25T12:36:46Z</time></trkpt><trkpt lat="36.52926252491488" lon="-5.309410947614798"><ele>669.0</ele><time>2026-04-25T12:36:47Z</time></trkpt><trkpt lat="36.529197160864015" lon="-5.309452421670965"><ele>669.0</ele><time>2026-04-25T12:36:48Z</time></trkpt><trkpt lat="36.52913426702455" lon="-5.309492959568672"><ele>669.0</ele><time>2026-04-25T12:36:49Z</time></trkpt><trkpt lat="36.5290779302782" lon="-5.309542102691531"><ele>669.0</ele><time>2026-04-25T12:36:50Z</time></trkpt><trkpt lat="36.529028805576075" lon="-5.309599682724631"><ele>669.0</ele><time>2026-04-25T12:36:51Z</time></trkpt><trkpt lat="36.528965610153534" lon="-5.309722997923168"><ele>669.0</ele><time>2026-04-25T12:36:53Z</time></trkpt><trkpt lat="36.52894670519934" lon="-5.309807411006231"><ele>669.0</ele><time>2026-04-25T12:36:54Z</time></trkpt><trkpt lat="36.52891984411582" lon="-5.3098957826293125"><ele>667.5714285714286</ele><time>2026-04-25T12:36:55Z</time></trkpt><trkpt lat="36.52888191521682" lon="-5.3099638214375915"><ele>666.1428571428571</ele><time>2026-04-25T12:36:56Z</time></trkpt><trkpt lat="36.5288277236802" lon="-5.310024191900452"><ele>664.7142857142858</ele><time>2026-04-25T12:36:57Z</time></trkpt><trkpt lat="36.52878770210899" lon="-5.310089734806029"><ele>663.2857142857142</ele><time>2026-04-25T12:36:58Z</time></trkpt><trkpt lat="36.52872367691867" lon="-5.310116317490232"><ele>661.8571428571428</ele><time>2026-04-25T12:36:59Z</time></trkpt><trkpt lat="36.528679285945465" lon="-5.3101735847540725"><ele>660.4285714285714</ele><time>2026-04-25T12:37:00Z</time></trkpt><trkpt lat="36.52858809166122" lon="-5.310240623252235"><ele>659.0</ele><time>2026-04-25T12:37:02Z</time></trkpt><trkpt lat="36.52850666786457" lon="-5.310297133190858"><ele>659.0</ele><time>2026-04-25T12:37:04Z</time></trkpt><trkpt lat="36.52841448761883" lon="-5.310349552972232"><ele>659.0</ele><time>2026-04-25T12:37:06Z</time></trkpt><trkpt lat="36.52833913038014" lon="-5.3103804136844674"><ele>659.0</ele><time>2026-04-25T12:37:08Z</time></trkpt><trkpt lat="36.52825468842087" lon="-5.310413122889566"><ele>659.0</ele><time>2026-04-25T12:37:10Z</time></trkpt><trkpt lat="36.52817024208664" lon="-5.310444676061893"><ele>659.0</ele><time>2026-04-25T12:37:12Z</time></trkpt><trkpt lat="36.52807200794308" lon="-5.31045973521993"><ele>659.0</ele><time>2026-04-25T12:37:15Z</time></trkpt><trkpt lat="36.52800352359982" lon="-5.310496072660337"><ele>659.0</ele><time>2026-04-25T12:37:17.999Z</time></trkpt><trkpt lat="36.52793102692971" lon="-5.310539323061692"><ele>659.0</ele><time>2026-04-25T12:37:19.999Z</time></trkpt><trkpt lat="36.527846676621735" lon="-5.310576521123321"><ele>659.0</ele><time>2026-04-25T12:37:22.999Z</time></trkpt><trkpt lat="36.52779090668884" lon="-5.310621412920393"><ele>659.0</ele><time>2026-04-25T12:37:24.999Z</time></trkpt><trkpt lat="36.52771223742082" lon="-5.310680749807753"><ele>659.0</ele><time>2026-04-25T12:37:27.999Z</time></trkpt><trkpt lat="36.52764162710193" lon="-5.310748946217545"><ele>658.3333333333333</ele><time>2026-04-25T12:37:30.999Z</time></trkpt><trkpt lat="36.52759361903824" lon="-5.310800401696856"><ele>657.6666666666666</ele><time>2026-04-25T12:37:32.999Z</time></trkpt><trkpt lat="36.527520129760205" lon="-5.310882100648035"><ele>657.0</ele><time>2026-04-25T12:37:35.999Z</time></trkpt><trkpt lat="36.52744830358041" lon="-5.31095715029542"><ele>656.3333333333334</ele><time>2026-04-25T12:37:38.999Z</time></trkpt><trkpt lat="36.5273792035947" lon="-5.310997472437629"><ele>655.6666666666667</ele><time>2026-04-25T12:37:40.999Z</time></trkpt><trkpt lat="36.527316273502336" lon="-5.311044794224106"><ele>655.0</ele><time>2026-04-25T12:37:42.999Z</time></trkpt><trkpt lat="36.52722366933871" lon="-5.311076691143665"><ele>655.0</ele><time>2026-04-25T12:37:44.999Z</time></trkpt><trkpt lat="36.52715664711044" lon="-5.311071847501506"><ele>655.0</ele><time>2026-04-25T12:37:45.999Z</time></trkpt><trkpt lat="36.52704279391872" lon="-5.311124663775559"><ele>655.0</ele><time>2026-04-25T12:37:47.999Z</time></trkpt><trkpt lat="36.52694469652615" lon="-5.311138023600812"><ele>655.0</ele><time>2026-04-25T12:37:49.999Z</time></trkpt><trkpt lat="36.52687107643508" lon="-5.311165895551755"><ele>655.0</ele><time>2026-04-25T12:40:24.999Z</time></trkpt><trkpt lat="36.52674634830602" lon="-5.311231594337933"><ele>655.2</ele><time>2026-04-25T12:40:26.999Z</time></trkpt><trkpt lat="36.5266675873244" lon="-5.311270717472024"><ele>655.4</ele><time>2026-04-25T12:40:27.999Z</time></trkpt><trkpt lat="36.52658380723512" lon="-5.311311691092755"><ele>655.5999999999999</ele><time>2026-04-25T12:40:28.999Z</time></trkpt><trkpt lat="36.526490767717355" lon="-5.311357193105213"><ele>655.8</ele><time>2026-04-25T12:40:30Z</time></trkpt><trkpt lat="36.526400090124504" lon="-5.3114015399690775"><ele>656.0</ele><time>2026-04-25T12:40:31Z</time></trkpt><trkpt lat="36.526304182866696" lon="-5.3114484445316865"><ele>650.4</ele><time>2026-04-25T12:40:32Z</time></trkpt><trkpt lat="36.5262007302355" lon="-5.311499039203645"><ele>644.8</ele><time>2026-04-25T12:40:33Z</time></trkpt><trkpt lat="36.52610164237352" lon="-5.311547499228098"><ele>639.1999999999999</ele><time>2026-04-25T12:40:34Z</time></trkpt><trkpt lat="36.52600901931185" lon="-5.311592798963755"><ele>633.5999999999999</ele><time>2026-04-25T12:40:35Z</time></trkpt><trkpt lat="36.52592656697626" lon="-5.3116592974058445"><ele>628.0</ele><time>2026-04-25T12:40:36Z</time></trkpt><trkpt lat="36.52584190823975" lon="-5.311746586706262"><ele>628.0</ele><time>2026-04-25T12:40:37Z</time></trkpt><trkpt lat="36.525755427041226" lon="-5.311833685617617"><ele>628.0</ele><time>2026-04-25T12:40:38Z</time></trkpt><trkpt lat="36.52568724695909" lon="-5.311949930670868"><ele>628.0</ele><time>2026-04-25T12:40:39Z</time></trkpt><trkpt lat="36.52562474761528" lon="-5.312064889269403"><ele>628.0</ele><time>2026-04-25T12:40:40Z</time></trkpt><trkpt lat="36.52555934589414" lon="-5.312166239647524"><ele>628.0</ele><time>2026-04-25T12:40:41Z</time></trkpt><trkpt lat="36.525488176776264" lon="-5.312267315331833"><ele>624.0</ele><time>2026-04-25T12:40:42Z</time></trkpt><trkpt lat="36.525398243881774" lon="-5.312386623099258"><ele>620.0</ele><time>2026-04-25T12:40:43Z</time></trkpt><trkpt lat="36.52529740705959" lon="-5.312501335770904"><ele>616.0</ele><time>2026-04-25T12:40:44Z</time></trkpt><trkpt lat="36.52518317756694" lon="-5.3126258474445605"><ele>612.0</ele><time>2026-04-25T12:40:45Z</time></trkpt><trkpt lat="36.52504360621392" lon="-5.312710193460387"><ele>612.0</ele><time>2026-04-25T12:40:46Z</time></trkpt><trkpt lat="36.52491375279949" lon="-5.312818540902869"><ele>612.0</ele><time>2026-04-25T12:40:47Z</time></trkpt><trkpt lat="36.52477977886747" lon="-5.312937819466639"><ele>612.0</ele><time>2026-04-25T12:40:48Z</time></trkpt><trkpt lat="36.52465367926721" lon="-5.313059198885295"><ele>610.0</ele><time>2026-04-25T12:40:49Z</time></trkpt><trkpt lat="36.524530992038024" lon="-5.313177576354271"><ele>608.0</ele><time>2026-04-25T12:40:50Z</time></trkpt><trkpt lat="36.524419176862416" lon="-5.313303867108302"><ele>606.0</ele><time>2026-04-25T12:40:51Z</time></trkpt><trkpt lat="36.52431267857287" lon="-5.313444136781671"><ele>606.0</ele><time>2026-04-25T12:40:52Z</time></trkpt><trkpt lat="36.524215013516425" lon="-5.313592163473121"><ele>606.0</ele><time>2026-04-25T12:40:53Z</time></trkpt><trkpt lat="36.52411595615774" lon="-5.313749066494875"><ele>606.0</ele><time>2026-04-25T12:40:54Z</time></trkpt><trkpt lat="36.52401946810525" lon="-5.31391538155903"><ele>606.0</ele><time>2026-04-25T12:40:55Z</time></trkpt><trkpt lat="36.52392957426887" lon="-5.314082195274906"><ele>606.0</ele><time>2026-04-25T12:40:56Z</time></trkpt><trkpt lat="36.523842892101364" lon="-5.31424444411827"><ele>606.0</ele><time>2026-04-25T12:40:57Z</time></trkpt><trkpt lat="36.52375982639312" lon="-5.31439541376357"><ele>607.0</ele><time>2026-04-25T12:40:58Z</time></trkpt><trkpt lat="36.52367773900088" lon="-5.314540945080963"><ele>608.0</ele><time>2026-04-25T12:40:59Z</time></trkpt><trkpt lat="36.52359358556912" lon="-5.314687569892171"><ele>609.0</ele><time>2026-04-25T12:41:00Z</time></trkpt><trkpt lat="36.523510344692774" lon="-5.314825226062784"><ele>610.0</ele><time>2026-04-25T12:41:01Z</time></trkpt><trkpt lat="36.52343432620059" lon="-5.3149685549262315"><ele>610.0</ele><time>2026-04-25T12:41:02Z</time></trkpt><trkpt lat="36.523320318102805" lon="-5.3150716150025845"><ele>610.0</ele><time>2026-04-25T12:41:03Z</time></trkpt><trkpt lat="36.523200854377194" lon="-5.315166082528975"><ele>610.0</ele><time>2026-04-25T12:41:04Z</time></trkpt><trkpt lat="36.52307006792127" lon="-5.315237655360645"><ele>610.0</ele><time>2026-04-25T12:41:05Z</time></trkpt><trkpt lat="36.52294271780531" lon="-5.315319416237702"><ele>609.25</ele><time>2026-04-25T12:41:06Z</time></trkpt><trkpt lat="36.52280659299089" lon="-5.315365216634883"><ele>608.5</ele><time>2026-04-25T12:41:07Z</time></trkpt><trkpt lat="36.52267567174545" lon="-5.315401006156751"><ele>607.75</ele><time>2026-04-25T12:41:08Z</time></trkpt><trkpt lat="36.52251950753067" lon="-5.315446864664949"><ele>607.0</ele><time>2026-04-25T12:41:09Z</time></trkpt><trkpt lat="36.52239456868943" lon="-5.315495654715109"><ele>607.0</ele><time>2026-04-25T12:41:10Z</time></trkpt><trkpt lat="36.522276728406695" lon="-5.3155599509468034"><ele>607.0</ele><time>2026-04-25T12:41:11Z</time></trkpt><trkpt lat="36.52216608371509" lon="-5.315650628899961"><ele>607.0</ele><time>2026-04-25T12:41:12Z</time></trkpt><trkpt lat="36.52204943964459" lon="-5.315771836874778"><ele>607.0</ele><time>2026-04-25T12:41:13Z</time></trkpt><trkpt lat="36.52194727794128" lon="-5.315895232348099"><ele>608.75</ele><time>2026-04-25T12:41:14Z</time></trkpt><trkpt lat="36.521870704086716" lon="-5.316049604338314"><ele>610.5</ele><time>2026-04-25T12:41:15Z</time></trkpt><trkpt lat="36.52180073262191" lon="-5.316180664109943"><ele>612.25</ele><time>2026-04-25T12:41:16Z</time></trkpt><trkpt lat="36.52173124242079" lon="-5.316291188793194"><ele>614.0</ele><time>2026-04-25T12:41:17Z</time></trkpt><trkpt lat="36.52164315224492" lon="-5.316375056970405"><ele>611.5</ele><time>2026-04-25T12:41:18Z</time></trkpt><trkpt lat="36.52153180070544" lon="-5.316422158495833"><ele>609.0</ele><time>2026-04-25T12:41:18.999Z</time></trkpt><trkpt lat="36.521400979146414" lon="-5.316437820007038"><ele>606.5</ele><time>2026-04-25T12:41:19.999Z</time></trkpt><trkpt lat="36.52126925653036" lon="-5.31645759107469"><ele>604.0</ele><time>2026-04-25T12:41:20.999Z</time></trkpt><trkpt lat="36.521144065689015" lon="-5.316473360982633"><ele>604.0</ele><time>2026-04-25T12:41:21.999Z</time></trkpt><trkpt lat="36.521026039056785" lon="-5.316492956672843"><ele>604.0</ele><time>2026-04-25T12:41:22.999Z</time></trkpt><trkpt lat="36.52090943654015" lon="-5.316504363709823"><ele>604.0</ele><time>2026-04-25T12:41:23.999Z</time></trkpt><trkpt lat="36.520792719461255" lon="-5.3165525378024014"><ele>604.0</ele><time>2026-04-25T12:41:24.999Z</time></trkpt><trkpt lat="36.52068148240504" lon="-5.31660502914594"><ele>604.0</ele><time>2026-04-25T12:41:25.999Z</time></trkpt><trkpt lat="36.52056338683436" lon="-5.316658501278713"><ele>604.0</ele><time>2026-04-25T12:41:26.999Z</time></trkpt><trkpt lat="36.520439878815935" lon="-5.316711676826419"><ele>604.0</ele><time>2026-04-25T12:41:27.999Z</time></trkpt><trkpt lat="36.520323460520785" lon="-5.31676408073604"><ele>604.0</ele><time>2026-04-25T12:41:28.999Z</time></trkpt><trkpt lat="36.520217825660474" lon="-5.316821434189081"><ele>604.4</ele><time>2026-04-25T12:41:29.999Z</time></trkpt><trkpt lat="36.52012331775354" lon="-5.316902929450405"><ele>604.8</ele><time>2026-04-25T12:41:30.999Z</time></trkpt><trkpt lat="36.52004668223195" lon="-5.317001583887902"><ele>605.2</ele><time>2026-04-25T12:41:31.999Z</time></trkpt><trkpt lat="36.519989789156504" lon="-5.317117798070661"><ele>605.6</ele><time>2026-04-25T12:41:32.999Z</time></trkpt><trkpt lat="36.519959593550034" lon="-5.31724440392875"><ele>606.0</ele><time>2026-04-25T12:41:33.999Z</time></trkpt><trkpt lat="36.51994659809636" lon="-5.317379246406426"><ele>606.0</ele><time>2026-04-25T12:41:34.999Z</time></trkpt><trkpt lat="36.519958514838166" lon="-5.3175210037627725"><ele>606.0</ele><time>2026-04-25T12:41:35.999Z</time></trkpt><trkpt lat="36.51999536938319" lon="-5.31766129110414"><ele>606.0</ele><time>2026-04-25T12:41:36.999Z</time></trkpt><trkpt lat="36.520050936631435" lon="-5.3177830964479185"><ele>606.0</ele><time>2026-04-25T12:41:37.999Z</time></trkpt><trkpt lat="36.520118754297144" lon="-5.317891202293175"><ele>606.0</ele><time>2026-04-25T12:41:38.999Z</time></trkpt><trkpt lat="36.52019918121988" lon="-5.318007318638455"><ele>606.0</ele><time>2026-04-25T12:41:39.999Z</time></trkpt><trkpt lat="36.520276814474045" lon="-5.318132497847245"><ele>606.0</ele><time>2026-04-25T12:41:40.999Z</time></trkpt><trkpt lat="36.52036514871273" lon="-5.318255698947234"><ele>606.0</ele><time>2026-04-25T12:41:41.999Z</time></trkpt><trkpt lat="36.52045680900925" lon="-5.318383732112868"><ele>603.25</ele><time>2026-04-25T12:41:42.999Z</time></trkpt><trkpt lat="36.520533499408906" lon="-5.318491434004693"><ele>600.5</ele><time>2026-04-25T12:41:43.999Z</time></trkpt><trkpt lat="36.52066063879904" lon="-5.3185779348541065"><ele>597.75</ele><time>2026-04-25T12:41:44.999Z</time></trkpt><trkpt lat="36.52078935306557" lon="-5.318656539056508"><ele>595.0</ele><time>2026-04-25T12:41:45.999Z</time></trkpt><trkpt lat="36.52088566881087" lon="-5.318752196666307"><ele>595.0</ele><time>2026-04-25T12:41:46.999Z</time></trkpt><trkpt lat="36.52095420347233" lon="-5.318864817046359"><ele>595.0</ele><time>2026-04-25T12:41:47.999Z</time></trkpt><trkpt lat="36.521011419369835" lon="-5.318995081897963"><ele>595.0</ele><time>2026-04-25T12:41:48.999Z</time></trkpt><trkpt lat="36.521062737522385" lon="-5.319147895597577"><ele>595.0</ele><time>2026-04-25T12:41:49.999Z</time></trkpt><trkpt lat="36.52110517432711" lon="-5.319311060983526"><ele>599.5</ele><time>2026-04-25T12:41:50.999Z</time></trkpt><trkpt lat="36.521131605080036" lon="-5.319483065727709"><ele>604.0</ele><time>2026-04-25T12:41:51.999Z</time></trkpt><trkpt lat="36.52114337529062" lon="-5.319653584410507"><ele>608.5</ele><time>2026-04-25T12:41:52.999Z</time></trkpt><trkpt lat="36.52112145131329" lon="-5.319828035134803"><ele>613.0</ele><time>2026-04-25T12:41:53.999Z</time></trkpt><trkpt lat="36.521068749885906" lon="-5.319989654394969"><ele>614.25</ele><time>2026-04-25T12:41:54.999Z</time></trkpt><trkpt lat="36.52101423277069" lon="-5.32014750536758"><ele>615.5</ele><time>2026-04-25T12:41:55.999Z</time></trkpt><trkpt lat="36.520979989601074" lon="-5.320312841620525"><ele>616.75</ele><time>2026-04-25T12:41:56.999Z</time></trkpt><trkpt lat="36.52097953317853" lon="-5.320486666233668"><ele>618.0</ele><time>2026-04-25T12:41:57.999Z</time></trkpt><trkpt lat="36.52104125742691" lon="-5.320635650962111"><ele>619.5</ele><time>2026-04-25T12:41:58.999Z</time></trkpt><trkpt lat="36.52108595253713" lon="-5.320797560348869"><ele>621.0</ele><time>2026-04-25T12:41:59.999Z</time></trkpt><trkpt lat="36.52116156310557" lon="-5.320940465873455"><ele>622.5</ele><time>2026-04-25T12:42:00.999Z</time></trkpt><trkpt lat="36.52121138944175" lon="-5.321105427700888"><ele>624.0</ele><time>2026-04-25T12:42:01.999Z</time></trkpt><trkpt lat="36.52122879655713" lon="-5.321265210945058"><ele>623.0</ele><time>2026-04-25T12:42:02.999Z</time></trkpt><trkpt lat="36.52121539917156" lon="-5.321422862663258"><ele>622.0</ele><time>2026-04-25T12:42:03.999Z</time></trkpt><trkpt lat="36.52116875450477" lon="-5.321565294643802"><ele>621.0</ele><time>2026-04-25T12:42:04.999Z</time></trkpt><trkpt lat="36.52108926522807" lon="-5.32168830514679"><ele>620.0</ele><time>2026-04-25T12:42:05.999Z</time></trkpt><trkpt lat="36.52094551911534" lon="-5.321765186485171"><ele>620.0</ele><time>2026-04-25T12:42:06.999Z</time></trkpt><trkpt lat="36.52081190982151" lon="-5.3218381725629"><ele>620.0</ele><time>2026-04-25T12:42:07.999Z</time></trkpt><trkpt lat="36.52067091608536" lon="-5.321906133268887"><ele>620.0</ele><time>2026-04-25T12:42:08.999Z</time></trkpt><trkpt lat="36.520537109721715" lon="-5.321992281412196"><ele>620.0</ele><time>2026-04-25T12:42:09.999Z</time></trkpt><trkpt lat="36.52042685497397" lon="-5.322116273778333"><ele>623.5</ele><time>2026-04-25T12:42:10.999Z</time></trkpt><trkpt lat="36.520341371327994" lon="-5.322257759262109"><ele>627.0</ele><time>2026-04-25T12:42:11.999Z</time></trkpt><trkpt lat="36.52028245933317" lon="-5.322427807091137"><ele>630.5</ele><time>2026-04-25T12:42:12.999Z</time></trkpt><trkpt lat="36.52025800742403" lon="-5.322615419397055"><ele>634.0</ele><time>2026-04-25T12:42:13.999Z</time></trkpt><trkpt lat="36.52025857426523" lon="-5.322808815184847"><ele>634.0</ele><time>2026-04-25T12:42:14.999Z</time></trkpt><trkpt lat="36.52028893200516" lon="-5.323002434937152"><ele>634.0</ele><time>2026-04-25T12:42:15.999Z</time></trkpt><trkpt lat="36.52035421446658" lon="-5.323179594562949"><ele>634.0</ele><time>2026-04-25T12:42:16.999Z</time></trkpt><trkpt lat="36.52044330092029" lon="-5.323343016543925"><ele>629.25</ele><time>2026-04-25T12:42:17.999Z</time></trkpt><trkpt lat="36.52051224259664" lon="-5.323488925405176"><ele>624.5</ele><time>2026-04-25T12:42:18.999Z</time></trkpt><trkpt lat="36.52054751095254" lon="-5.323642008483191"><ele>619.75</ele><time>2026-04-25T12:42:19.999Z</time></trkpt><trkpt lat="36.52053764089864" lon="-5.323809835477764"><ele>615.0</ele><time>2026-04-25T12:42:20.999Z</time></trkpt><trkpt lat="36.52050035971987" lon="-5.323981019562814"><ele>615.0</ele><time>2026-04-25T12:42:21.999Z</time></trkpt><trkpt lat="36.52043997179074" lon="-5.324147176901349"><ele>615.0</ele><time>2026-04-25T12:42:22.999Z</time></trkpt><trkpt lat="36.520368707057244" lon="-5.324285979569488"><ele>615.0</ele><time>2026-04-25T12:42:23.999Z</time></trkpt><trkpt lat="36.520293767389404" lon="-5.324403788827239"><ele>615.0</ele><time>2026-04-25T12:42:24.999Z</time></trkpt><trkpt lat="36.52022245805287" lon="-5.3245097044676"><ele>617.8</ele><time>2026-04-25T12:42:25.999Z</time></trkpt><trkpt lat="36.52016250920334" lon="-5.324603723913076"><ele>620.6</ele><time>2026-04-25T12:42:26.999Z</time></trkpt><trkpt lat="36.52011882845493" lon="-5.32469548472373"><ele>623.4</ele><time>2026-04-25T12:42:27.999Z</time></trkpt><trkpt lat="36.5200756152602" lon="-5.324785998802096"><ele>626.2</ele><time>2026-04-25T12:42:28.999Z</time></trkpt><trkpt lat="36.52002809492251" lon="-5.324883454498713"><ele>629.0</ele><time>2026-04-25T12:42:29.999Z</time></trkpt><trkpt lat="36.51998857479924" lon="-5.324990174841135"><ele>629.0</ele><time>2026-04-25T12:42:30.999Z</time></trkpt><trkpt lat="36.51995970555573" lon="-5.3251051352797285"><ele>629.0</ele><time>2026-04-25T12:42:31.999Z</time></trkpt><trkpt lat="36.519948222181" lon="-5.325217436167923"><ele>629.0</ele><time>2026-04-25T12:42:32.999Z</time></trkpt><trkpt lat="36.519940746160486" lon="-5.325334641520656"><ele>629.0</ele><time>2026-04-25T12:42:33.999Z</time></trkpt><trkpt lat="36.51993841359641" lon="-5.32545027329501"><ele>629.0</ele><time>2026-04-25T12:42:34.999Z</time></trkpt><trkpt lat="36.51993832274432" lon="-5.325569201920451"><ele>629.5</ele><time>2026-04-25T12:42:36Z</time></trkpt><trkpt lat="36.51993646274024" lon="-5.325687473572658"><ele>630.0</ele><time>2026-04-25T12:42:37Z</time></trkpt><trkpt lat="36.51993340170269" lon="-5.325792201433857"><ele>630.5</ele><time>2026-04-25T12:42:38Z</time></trkpt><trkpt lat="36.519923953680646" lon="-5.325893418619875"><ele>631.0</ele><time>2026-04-25T12:42:39Z</time></trkpt><trkpt lat="36.519901891837264" lon="-5.326002760035593"><ele>631.5</ele><time>2026-04-25T12:42:40Z</time></trkpt><trkpt lat="36.51986376483424" lon="-5.326114671969211"><ele>632.0</ele><time>2026-04-25T12:42:41Z</time></trkpt><trkpt lat="36.51981359665463" lon="-5.326227589965931"><ele>632.0</ele><time>2026-04-25T12:42:42Z</time></trkpt><trkpt lat="36.519751653709456" lon="-5.3263235659683215"><ele>632.0</ele><time>2026-04-25T12:42:43Z</time></trkpt><trkpt lat="36.519701091344125" lon="-5.326413379250229"><ele>632.0</ele><time>2026-04-25T12:42:44Z</time></trkpt><trkpt lat="36.519653104237925" lon="-5.326506426979945"><ele>632.0</ele><time>2026-04-25T12:42:45Z</time></trkpt><trkpt lat="36.51959867726966" lon="-5.3265983332952525"><ele>632.0</ele><time>2026-04-25T12:42:46Z</time></trkpt><trkpt lat="36.519545550278146" lon="-5.326688586146355"><ele>631.0</ele><time>2026-04-25T12:42:47Z</time></trkpt><trkpt lat="36.519463769073944" lon="-5.3267919596277125"><ele>630.0</ele><time>2026-04-25T12:42:48Z</time></trkpt><trkpt lat="36.51936887958615" lon="-5.3269110658799885"><ele>629.0</ele><time>2026-04-25T12:42:49Z</time></trkpt><trkpt lat="36.519248249737444" lon="-5.327006106131223"><ele>628.0</ele><time>2026-04-25T12:42:50Z</time></trkpt><trkpt lat="36.519110656129826" lon="-5.327091870323482"><ele>628.0</ele><time>2026-04-25T12:42:51Z</time></trkpt><trkpt lat="36.51897953207936" lon="-5.32720342838814"><ele>628.0</ele><time>2026-04-25T12:42:52Z</time></trkpt><trkpt lat="36.51889476831988" lon="-5.327373214954483"><ele>628.0</ele><time>2026-04-25T12:42:53Z</time></trkpt><trkpt lat="36.51882784169005" lon="-5.3275585665869345"><ele>630.3333333333334</ele><time>2026-04-25T12:42:54Z</time></trkpt><trkpt lat="36.518770306575405" lon="-5.327761343430767"><ele>632.6666666666666</ele><time>2026-04-25T12:42:55Z</time></trkpt><trkpt lat="36.518735893348854" lon="-5.327972503891222"><ele>635.0</ele><time>2026-04-25T12:42:56Z</time></trkpt><trkpt lat="36.518658916541206" lon="-5.328165740837676"><ele>635.0</ele><time>2026-04-25T12:42:57Z</time></trkpt><trkpt lat="36.5185527215101" lon="-5.328349064880827"><ele>635.0</ele><time>2026-04-25T12:42:58Z</time></trkpt><trkpt lat="36.51843379015959" lon="-5.328524504045146"><ele>635.0</ele><time>2026-04-25T12:42:59Z</time></trkpt><trkpt lat="36.51831179431566" lon="-5.328714143541867"><ele>639.3333333333333</ele><time>2026-04-25T12:43:00Z</time></trkpt><trkpt lat="36.518201027580126" lon="-5.32889930593635"><ele>643.6666666666666</ele><time>2026-04-25T12:43:01Z</time></trkpt><trkpt lat="36.518088310865664" lon="-5.329085799557464"><ele>648.0</ele><time>2026-04-25T12:43:02Z</time></trkpt><trkpt lat="36.51798266807903" lon="-5.32926572100767"><ele>648.0</ele><time>2026-04-25T12:43:03Z</time></trkpt><trkpt lat="36.51790185514341" lon="-5.3294311985315375"><ele>648.0</ele><time>2026-04-25T12:43:04Z</time></trkpt><trkpt lat="36.51780170637785" lon="-5.329595314755819"><ele>648.0</ele><time>2026-04-25T12:43:05Z</time></trkpt><trkpt lat="36.5177410921949" lon="-5.329787508495167"><ele>643.3333333333334</ele><time>2026-04-25T12:43:06Z</time></trkpt><trkpt lat="36.51770751383636" lon="-5.3299933160068615"><ele>638.6666666666667</ele><time>2026-04-25T12:43:07Z</time></trkpt><trkpt lat="36.517707214978074" lon="-5.330204954123453"><ele>634.0</ele><time>2026-04-25T12:43:08Z</time></trkpt><trkpt lat="36.517726123194336" lon="-5.330382728569158"><ele>634.0</ele><time>2026-04-25T12:43:09Z</time></trkpt><trkpt lat="36.517709501726785" lon="-5.330555779480357"><ele>634.0</ele><time>2026-04-25T12:43:10Z</time></trkpt><trkpt lat="36.517641403935066" lon="-5.330715815008815"><ele>634.0</ele><time>2026-04-25T12:43:11Z</time></trkpt><trkpt lat="36.51753715858874" lon="-5.330854403102294"><ele>634.0</ele><time>2026-04-25T12:43:12Z</time></trkpt><trkpt lat="36.51740693916189" lon="-5.330967173142566"><ele>633.3333333333334</ele><time>2026-04-25T12:43:13Z</time></trkpt><trkpt lat="36.517257092972656" lon="-5.331041075711041"><ele>632.6666666666666</ele><time>2026-04-25T12:43:14Z</time></trkpt><trkpt lat="36.51709651186168" lon="-5.331089511082788"><ele>632.0</ele><time>2026-04-25T12:43:15Z</time></trkpt><trkpt lat="36.51693460340762" lon="-5.3311610660312265"><ele>632.0</ele><time>2026-04-25T12:43:16Z</time></trkpt><trkpt lat="36.516776501725666" lon="-5.3312397409719114"><ele>632.0</ele><time>2026-04-25T12:43:17Z</time></trkpt><trkpt lat="36.51662559582247" lon="-5.331355614540035"><ele>632.0</ele><time>2026-04-25T12:43:18Z</time></trkpt><trkpt lat="36.51647621640406" lon="-5.331487092946268"><ele>633.3333333333333</ele><time>2026-04-25T12:43:19Z</time></trkpt><trkpt lat="36.516319414488095" lon="-5.331608241044131"><ele>634.6666666666666</ele><time>2026-04-25T12:43:20Z</time></trkpt><trkpt lat="36.51616957116579" lon="-5.331747854130928"><ele>636.0</ele><time>2026-04-25T12:43:21Z</time></trkpt><trkpt lat="36.51601789706825" lon="-5.3318874768521"><ele>636.0</ele><time>2026-04-25T12:43:22Z</time></trkpt><trkpt lat="36.515863421499404" lon="-5.33202910216758"><ele>636.0</ele><time>2026-04-25T12:43:23Z</time></trkpt><trkpt lat="36.515706501068394" lon="-5.332164879178902"><ele>636.0</ele><time>2026-04-25T12:43:24Z</time></trkpt><trkpt lat="36.515558255624484" lon="-5.332318052060814"><ele>636.6666666666666</ele><time>2026-04-25T12:43:25Z</time></trkpt><trkpt lat="36.51539093097114" lon="-5.332444774348752"><ele>637.3333333333333</ele><time>2026-04-25T12:43:26Z</time></trkpt><trkpt lat="36.51522112274516" lon="-5.33255489087825"><ele>638.0</ele><time>2026-04-25T12:43:27Z</time></trkpt><trkpt lat="36.515051191342934" lon="-5.332664087572639"><ele>638.0</ele><time>2026-04-25T12:43:28Z</time></trkpt><trkpt lat="36.514879358156975" lon="-5.332768657598798"><ele>638.0</ele><time>2026-04-25T12:43:28.999Z</time></trkpt><trkpt lat="36.51469069041798" lon="-5.3328428422549505"><ele>638.0</ele><time>2026-04-25T12:43:29.999Z</time></trkpt><trkpt lat="36.514513918287896" lon="-5.332931684116749"><ele>635.0</ele><time>2026-04-25T12:43:30.999Z</time></trkpt><trkpt lat="36.514345671800484" lon="-5.333039466257726"><ele>632.0</ele><time>2026-04-25T12:43:31.999Z</time></trkpt><trkpt lat="36.51418057041876" lon="-5.333137993412821"><ele>629.0</ele><time>2026-04-25T12:43:32.999Z</time></trkpt><trkpt lat="36.514050058061486" lon="-5.333260425092623"><ele>635.0</ele><time>2026-04-25T12:43:33.999Z</time></trkpt><trkpt lat="36.51394582539369" lon="-5.333392177678194"><ele>641.0</ele><time>2026-04-25T12:43:34.999Z</time></trkpt><trkpt lat="36.51386935375996" lon="-5.333546668073692"><ele>647.0</ele><time>2026-04-25T12:43:35.999Z</time></trkpt><trkpt lat="36.51380058821423" lon="-5.333720320521496"><ele>649.3333333333333</ele><time>2026-04-25T12:43:36.999Z</time></trkpt><trkpt lat="36.51377350861661" lon="-5.333930495564074"><ele>651.6666666666666</ele><time>2026-04-25T12:43:37.999Z</time></trkpt><trkpt lat="36.51375938647624" lon="-5.334154714052233"><ele>654.0</ele><time>2026-04-25T12:43:38.999Z</time></trkpt><trkpt lat="36.513734741537554" lon="-5.334383061485855"><ele>646.0</ele><time>2026-04-25T12:43:39.999Z</time></trkpt><trkpt lat="36.5136940040684" lon="-5.334616270240448"><ele>638.0</ele><time>2026-04-25T12:43:40.999Z</time></trkpt><trkpt lat="36.513640636929814" lon="-5.334840844763586"><ele>630.0</ele><time>2026-04-25T12:43:41.999Z</time></trkpt><trkpt lat="36.513575505781745" lon="-5.335060587790585"><ele>629.6666666666666</ele><time>2026-04-25T12:43:42.999Z</time></trkpt><trkpt lat="36.513499183332684" lon="-5.335267222420454"><ele>629.3333333333333</ele><time>2026-04-25T12:43:43.999Z</time></trkpt><trkpt lat="36.5134356062948" lon="-5.335474447557645"><ele>629.0</ele><time>2026-04-25T12:43:44.999Z</time></trkpt><trkpt lat="36.51336882617745" lon="-5.3356704320620665"><ele>631.6666666666666</ele><time>2026-04-25T12:43:45.999Z</time></trkpt><trkpt lat="36.513314634024695" lon="-5.335870527445174"><ele>634.3333333333334</ele><time>2026-04-25T12:43:46.999Z</time></trkpt><trkpt lat="36.51328684226376" lon="-5.336056274960087"><ele>637.0</ele><time>2026-04-25T12:43:47.999Z</time></trkpt><trkpt lat="36.513295493120815" lon="-5.336247853490504"><ele>637.0</ele><time>2026-04-25T12:43:48.999Z</time></trkpt><trkpt lat="36.51331910114246" lon="-5.336453650294216"><ele>637.0</ele><time>2026-04-25T12:43:49.999Z</time></trkpt><trkpt lat="36.5133969552233" lon="-5.336658833434911"><ele>637.0</ele><time>2026-04-25T12:43:50.999Z</time></trkpt><trkpt lat="36.513484451861814" lon="-5.336869120811499"><ele>637.0</ele><time>2026-04-25T12:43:51.999Z</time></trkpt><trkpt lat="36.51357061712868" lon="-5.337078920745456"><ele>637.0</ele><time>2026-04-25T12:43:52.999Z</time></trkpt><trkpt lat="36.513656029146546" lon="-5.337264219609827"><ele>637.0</ele><time>2026-04-25T12:43:53.999Z</time></trkpt><trkpt lat="36.51372568356376" lon="-5.337434799582826"><ele>647.3333333333334</ele><time>2026-04-25T12:43:54.999Z</time></trkpt><trkpt lat="36.51380030616472" lon="-5.3376198843293"><ele>657.6666666666666</ele><time>2026-04-25T12:43:55.999Z</time></trkpt><trkpt lat="36.51387711180852" lon="-5.33780387439053"><ele>668.0</ele><time>2026-04-25T12:43:56.999Z</time></trkpt><trkpt lat="36.51394103045412" lon="-5.3379855806773335"><ele>666.0</ele><time>2026-04-25T12:43:57.999Z</time></trkpt><trkpt lat="36.514005051948004" lon="-5.3381734144322746"><ele>664.0</ele><time>2026-04-25T12:43:58.999Z</time></trkpt><trkpt lat="36.51404305246961" lon="-5.338366832380043"><ele>662.0</ele><time>2026-04-25T12:43:59.999Z</time></trkpt><trkpt lat="36.51404505234029" lon="-5.338567871199259"><ele>662.0</ele><time>2026-04-25T12:44:00.999Z</time></trkpt><trkpt lat="36.51402886409201" lon="-5.33876304971292"><ele>662.0</ele><time>2026-04-25T12:44:01.999Z</time></trkpt><trkpt lat="36.51398752794692" lon="-5.338941672899605"><ele>662.0</ele><time>2026-04-25T12:44:02.999Z</time></trkpt><trkpt lat="36.51392336384832" lon="-5.339112380179609"><ele>664.3333333333333</ele><time>2026-04-25T12:44:03.999Z</time></trkpt><trkpt lat="36.513839804686675" lon="-5.339274901279709"><ele>666.6666666666666</ele><time>2026-04-25T12:44:04.999Z</time></trkpt><trkpt lat="36.51374306056144" lon="-5.339427408239448"><ele>669.0</ele><time>2026-04-25T12:44:05.999Z</time></trkpt><trkpt lat="36.51364828359138" lon="-5.339570655142468"><ele>661.0</ele><time>2026-04-25T12:44:06.999Z</time></trkpt><trkpt lat="36.51355515005576" lon="-5.339711311656245"><ele>653.0</ele><time>2026-04-25T12:44:07.999Z</time></trkpt><trkpt lat="36.51347741410071" lon="-5.339866730181938"><ele>645.0</ele><time>2026-04-25T12:44:08.999Z</time></trkpt><trkpt lat="36.51339344773627" lon="-5.340014844143865"><ele>637.0</ele><time>2026-04-25T12:44:09.999Z</time></trkpt><trkpt lat="36.513355622712105" lon="-5.340195674225256"><ele>637.0</ele><time>2026-04-25T12:44:10.999Z</time></trkpt><trkpt lat="36.513346158641156" lon="-5.3403808943957936"><ele>637.0</ele><time>2026-04-25T12:44:11.999Z</time></trkpt><trkpt lat="36.513351344619956" lon="-5.340555876555386"><ele>637.0</ele><time>2026-04-25T12:44:12.999Z</time></trkpt><trkpt lat="36.513365176364225" lon="-5.34072798099726"><ele>637.0</ele><time>2026-04-25T12:44:13.999Z</time></trkpt><trkpt lat="36.51339896030868" lon="-5.340892332775466"><ele>637.25</ele><time>2026-04-25T12:44:14.999Z</time></trkpt><trkpt lat="36.51345559482983" lon="-5.341054763668728"><ele>637.5</ele><time>2026-04-25T12:44:15.999Z</time></trkpt><trkpt lat="36.513545221247604" lon="-5.341190800261292"><ele>637.75</ele><time>2026-04-25T12:44:16.999Z</time></trkpt><trkpt lat="36.513631392547296" lon="-5.341314755524446"><ele>638.0</ele><time>2026-04-25T12:44:17.999Z</time></trkpt><trkpt lat="36.513720099978364" lon="-5.341432896060564"><ele>637.0</ele><time>2026-04-25T12:44:18.999Z</time></trkpt><trkpt lat="36.51373429702613" lon="-5.341585803814716"><ele>636.0</ele><time>2026-04-25T12:44:19.999Z</time></trkpt><trkpt lat="36.51377118409111" lon="-5.341715970794944"><ele>635.0</ele><time>2026-04-25T12:44:20.999Z</time></trkpt><trkpt lat="36.51377423073232" lon="-5.341843063246861"><ele>634.0</ele><time>2026-04-25T12:44:21.999Z</time></trkpt><trkpt lat="36.51375437029954" lon="-5.3419764387254505"><ele>633.0</ele><time>2026-04-25T12:44:22.999Z</time></trkpt><trkpt lat="36.513709035247" lon="-5.342100590909071"><ele>632.0</ele><time>2026-04-25T12:44:23.999Z</time></trkpt><trkpt lat="36.51365911796177" lon="-5.342236125589727"><ele>631.0</ele><time>2026-04-25T12:44:24.999Z</time></trkpt><trkpt lat="36.51362697427634" lon="-5.342372287266699"><ele>630.0</ele><time>2026-04-25T12:44:25.999Z</time></trkpt><trkpt lat="36.5136323649406" lon="-5.3425125034341265"><ele>629.0</ele><time>2026-04-25T12:44:26.999Z</time></trkpt><trkpt lat="36.51367348634501" lon="-5.342653398848133"><ele>636.3333333333333</ele><time>2026-04-25T12:44:27.999Z</time></trkpt><trkpt lat="36.51374533191838" lon="-5.342785295993921"><ele>643.6666666666666</ele><time>2026-04-25T12:44:28.999Z</time></trkpt><trkpt lat="36.51382659259592" lon="-5.342949709022969"><ele>651.0</ele><time>2026-04-25T12:44:29.999Z</time></trkpt><trkpt lat="36.513908671869736" lon="-5.343182909415447"><ele>651.0</ele><time>2026-04-25T12:44:30.999Z</time></trkpt><trkpt lat="36.51399648778894" lon="-5.343473844774291"><ele>651.0</ele><time>2026-04-25T12:44:31.999Z</time></trkpt><trkpt lat="36.51406709688381" lon="-5.3437730590909505"><ele>647.0</ele><time>2026-04-25T12:44:32.999Z</time></trkpt><trkpt lat="36.51411288453129" lon="-5.344030247737664"><ele>643.0</ele><time>2026-04-25T12:44:33.999Z</time></trkpt><trkpt lat="36.514166224179945" lon="-5.344252057462942"><ele>639.0</ele><time>2026-04-25T12:44:34.999Z</time></trkpt><trkpt lat="36.514247558647334" lon="-5.344438978719261"><ele>639.0</ele><time>2026-04-25T12:44:35.999Z</time></trkpt><trkpt lat="36.51437496544248" lon="-5.344563277835138"><ele>639.0</ele><time>2026-04-25T12:44:36.999Z</time></trkpt><trkpt lat="36.5145159983562" lon="-5.344645551119557"><ele>639.0</ele><time>2026-04-25T12:44:37.999Z</time></trkpt><trkpt lat="36.51466976340763" lon="-5.34477590481977"><ele>642.0</ele><time>2026-04-25T12:44:38.999Z</time></trkpt><trkpt lat="36.514800359639565" lon="-5.344885792878839"><ele>645.0</ele><time>2026-04-25T12:44:39.999Z</time></trkpt><trkpt lat="36.51489315213216" lon="-5.3450070010852535"><ele>648.0</ele><time>2026-04-25T12:44:40.999Z</time></trkpt><trkpt lat="36.514933905273175" lon="-5.345158017032179"><ele>651.0</ele><time>2026-04-25T12:44:42Z</time></trkpt><trkpt lat="36.51494506992121" lon="-5.345324282827851"><ele>651.0</ele><time>2026-04-25T12:44:43Z</time></trkpt><trkpt lat="36.51492946304106" lon="-5.345482989590588"><ele>651.0</ele><time>2026-04-25T12:44:44Z</time></trkpt><trkpt lat="36.5148938714817" lon="-5.34562773145027"><ele>651.0</ele><time>2026-04-25T12:44:45Z</time></trkpt><trkpt lat="36.51482939562655" lon="-5.345757119612588"><ele>651.0</ele><time>2026-04-25T12:44:46Z</time></trkpt><trkpt lat="36.51473481703329" lon="-5.345875650170318"><ele>648.5</ele><time>2026-04-25T12:44:47Z</time></trkpt><trkpt lat="36.514620038923425" lon="-5.3459913999356745"><ele>646.0</ele><time>2026-04-25T12:44:48Z</time></trkpt><trkpt lat="36.5145239476826" lon="-5.346124434300927"><ele>643.5</ele><time>2026-04-25T12:44:49Z</time></trkpt><trkpt lat="36.51448020563412" lon="-5.346291924946912"><ele>641.0</ele><time>2026-04-25T12:44:50Z</time></trkpt><trkpt lat="36.51442786278188" lon="-5.346467283102604"><ele>637.5</ele><time>2026-04-25T12:44:51Z</time></trkpt><trkpt lat="36.51442543292146" lon="-5.346642849764139"><ele>634.0</ele><time>2026-04-25T12:44:52Z</time></trkpt><trkpt lat="36.51445410687813" lon="-5.346828028612293"><ele>630.5</ele><time>2026-04-25T12:44:53Z</time></trkpt><trkpt lat="36.514498478683144" lon="-5.347011048541728"><ele>627.0</ele><time>2026-04-25T12:44:54Z</time></trkpt><trkpt lat="36.514531416585505" lon="-5.347184159719744"><ele>627.3333333333334</ele><time>2026-04-25T12:44:55Z</time></trkpt><trkpt lat="36.51453320612939" lon="-5.347367919684159"><ele>627.6666666666667</ele><time>2026-04-25T12:44:56Z</time></trkpt><trkpt lat="36.51449594916311" lon="-5.347570362230524"><ele>628.0</ele><time>2026-04-25T12:44:57Z</time></trkpt><trkpt lat="36.514428220169115" lon="-5.347770832311373"><ele>628.0</ele><time>2026-04-25T12:44:58Z</time></trkpt><trkpt lat="36.51434940208131" lon="-5.347965446378872"><ele>628.0</ele><time>2026-04-25T12:44:59Z</time></trkpt><trkpt lat="36.51428292714541" lon="-5.348155127022295"><ele>628.0</ele><time>2026-04-25T12:45:00Z</time></trkpt><trkpt lat="36.51423240907433" lon="-5.348327711957238"><ele>626.5</ele><time>2026-04-25T12:45:01Z</time></trkpt><trkpt lat="36.51417900188917" lon="-5.348491296003382"><ele>625.0</ele><time>2026-04-25T12:45:02Z</time></trkpt><trkpt lat="36.51411092880661" lon="-5.348635934430819"><ele>623.5</ele><time>2026-04-25T12:45:03Z</time></trkpt><trkpt lat="36.51402071398969" lon="-5.348757918259645"><ele>622.0</ele><time>2026-04-25T12:45:04Z</time></trkpt><trkpt lat="36.51390212780123" lon="-5.348842082728932"><ele>617.3333333333334</ele><time>2026-04-25T12:45:05Z</time></trkpt><trkpt lat="36.51375456411139" lon="-5.348881850864543"><ele>612.6666666666666</ele><time>2026-04-25T12:45:06Z</time></trkpt><trkpt lat="36.513588559798954" lon="-5.348890710910738"><ele>608.0</ele><time>2026-04-25T12:45:07Z</time></trkpt><trkpt lat="36.51342963411093" lon="-5.34892251880483"><ele>607.75</ele><time>2026-04-25T12:45:08Z</time></trkpt><trkpt lat="36.51329031726509" lon="-5.348951806439782"><ele>607.5</ele><time>2026-04-25T12:45:09Z</time></trkpt><trkpt lat="36.51316955184421" lon="-5.3490117502421155"><ele>607.25</ele><time>2026-04-25T12:45:10Z</time></trkpt><trkpt lat="36.513062280888526" lon="-5.349113248009681"><ele>607.0</ele><time>2026-04-25T12:45:11Z</time></trkpt><trkpt lat="36.51296835477617" lon="-5.3492316190746"><ele>607.0</ele><time>2026-04-25T12:45:12Z</time></trkpt><trkpt lat="36.51294049004881" lon="-5.34939922801925"><ele>607.0</ele><time>2026-04-25T12:45:13Z</time></trkpt><trkpt lat="36.51294233016036" lon="-5.3495732009861925"><ele>607.0</ele><time>2026-04-25T12:45:14Z</time></trkpt><trkpt lat="36.512986070842864" lon="-5.349750408220665"><ele>607.0</ele><time>2026-04-25T12:45:15Z</time></trkpt><trkpt lat="36.51307683094334" lon="-5.349917193449934"><ele>606.3333333333334</ele><time>2026-04-25T12:45:16Z</time></trkpt><trkpt lat="36.51320397621335" lon="-5.350065537024235"><ele>605.6666666666666</ele><time>2026-04-25T12:45:17Z</time></trkpt><trkpt lat="36.51334303727707" lon="-5.350212095413938"><ele>605.0</ele><time>2026-04-25T12:45:18Z</time></trkpt><trkpt lat="36.51347942689883" lon="-5.350366156718798"><ele>605.0</ele><time>2026-04-25T12:45:19Z</time></trkpt><trkpt lat="36.51360369982443" lon="-5.3505238150545"><ele>605.0</ele><time>2026-04-25T12:45:20Z</time></trkpt><trkpt lat="36.51372077696173" lon="-5.350663989910362"><ele>605.0</ele><time>2026-04-25T12:45:21Z</time></trkpt><trkpt lat="36.513830095461216" lon="-5.350802411978711"><ele>599.6666666666666</ele><time>2026-04-25T12:45:22Z</time></trkpt><trkpt lat="36.51394888370931" lon="-5.350936636266378"><ele>594.3333333333334</ele><time>2026-04-25T12:45:23Z</time></trkpt><trkpt lat="36.514085347971545" lon="-5.351043558846681"><ele>589.0</ele><time>2026-04-25T12:45:24Z</time></trkpt><trkpt lat="36.51424085877164" lon="-5.3511432045095395"><ele>589.0</ele><time>2026-04-25T12:45:25Z</time></trkpt><trkpt lat="36.514401899751114" lon="-5.351234463696547"><ele>589.0</ele><time>2026-04-25T12:45:26Z</time></trkpt><trkpt lat="36.51455841617433" lon="-5.351327312149027"><ele>589.0</ele><time>2026-04-25T12:45:27Z</time></trkpt><trkpt lat="36.51469876262713" lon="-5.3514304299597795"><ele>589.25</ele><time>2026-04-25T12:45:28Z</time></trkpt><trkpt lat="36.514827106062704" lon="-5.351540362058049"><ele>589.5</ele><time>2026-04-25T12:45:29Z</time></trkpt><trkpt lat="36.51494538334575" lon="-5.35164721107127"><ele>589.75</ele><time>2026-04-25T12:45:30Z</time></trkpt><trkpt lat="36.515059715274994" lon="-5.3517500337379476"><ele>590.0</ele><time>2026-04-25T12:45:31Z</time></trkpt><trkpt lat="36.51517088886493" lon="-5.351848269239268"><ele>590.0</ele><time>2026-04-25T12:45:32Z</time></trkpt><trkpt lat="36.51527933856146" lon="-5.351948925033282"><ele>590.0</ele><time>2026-04-25T12:45:33Z</time></trkpt><trkpt lat="36.515373255809955" lon="-5.352049403983354"><ele>590.0</ele><time>2026-04-25T12:45:34Z</time></trkpt><trkpt lat="36.515447268028005" lon="-5.352160136744552"><ele>590.0</ele><time>2026-04-25T12:45:34.999Z</time></trkpt><trkpt lat="36.51549981878045" lon="-5.352294118812538"><ele>582.75</ele><time>2026-04-25T12:45:35.999Z</time></trkpt><trkpt lat="36.515528806078706" lon="-5.3524491750307535"><ele>575.5</ele><time>2026-04-25T12:45:36.999Z</time></trkpt><trkpt lat="36.51554866069017" lon="-5.352618247224678"><ele>568.25</ele><time>2026-04-25T12:45:37.999Z</time></trkpt><trkpt lat="36.51556397212892" lon="-5.352797581733732"><ele>561.0</ele><time>2026-04-25T12:45:38.999Z</time></trkpt><trkpt lat="36.515579957509665" lon="-5.352980363604536"><ele>563.0</ele><time>2026-04-25T12:45:39.999Z</time></trkpt><trkpt lat="36.515600562041925" lon="-5.35316428732678"><ele>565.0</ele><time>2026-04-25T12:45:40.999Z</time></trkpt><trkpt lat="36.51562745931255" lon="-5.35335590138218"><ele>567.0</ele><time>2026-04-25T12:45:41.999Z</time></trkpt><trkpt lat="36.51564231427938" lon="-5.3535414218475665"><ele>567.0</ele><time>2026-04-25T12:45:42.999Z</time></trkpt><trkpt lat="36.515663271271286" lon="-5.353723230413019"><ele>567.0</ele><time>2026-04-25T12:45:43.999Z</time></trkpt><trkpt lat="36.51568796481064" lon="-5.353897165829311"><ele>567.0</ele><time>2026-04-25T12:45:44.999Z</time></trkpt><trkpt lat="36.51569913268135" lon="-5.3540708418967276"><ele>567.0</ele><time>2026-04-25T12:45:45.999Z</time></trkpt><trkpt lat="36.51568334911731" lon="-5.354244295334359"><ele>565.0</ele><time>2026-04-25T12:45:46.999Z</time></trkpt><trkpt lat="36.51563559842527" lon="-5.354423491926223"><ele>563.0</ele><time>2026-04-25T12:45:47.999Z</time></trkpt><trkpt lat="36.515579639358094" lon="-5.354592977364661"><ele>561.0</ele><time>2026-04-25T12:45:48.999Z</time></trkpt><trkpt lat="36.51551283859931" lon="-5.354749458552943"><ele>559.0</ele><time>2026-04-25T12:45:49.999Z</time></trkpt><trkpt lat="36.51544696814577" lon="-5.354883757830946"><ele>559.25</ele><time>2026-04-25T12:45:50.999Z</time></trkpt><trkpt lat="36.51537521643159" lon="-5.354994012413643"><ele>559.5</ele><time>2026-04-25T12:45:51.999Z</time></trkpt><trkpt lat="36.51528152794331" lon="-5.355069159264282"><ele>559.75</ele><time>2026-04-25T12:45:52.999Z</time></trkpt><trkpt lat="36.51517195864982" lon="-5.35510223320566"><ele>560.0</ele><time>2026-04-25T12:45:53.999Z</time></trkpt><trkpt lat="36.51504625473413" lon="-5.355089849311734"><ele>560.0</ele><time>2026-04-25T12:45:54.999Z</time></trkpt><trkpt lat="36.51492516635284" lon="-5.355022890810062"><ele>560.0</ele><time>2026-04-25T12:45:55.999Z</time></trkpt><trkpt lat="36.514817562870334" lon="-5.354919006385904"><ele>560.0</ele><time>2026-04-25T12:45:56.999Z</time></trkpt><trkpt lat="36.514726307718206" lon="-5.3547955339773265"><ele>560.0</ele><time>2026-04-25T12:45:57.999Z</time></trkpt><trkpt lat="36.514641378159" lon="-5.354669779427182"><ele>566.5</ele><time>2026-04-25T12:45:58.999Z</time></trkpt><trkpt lat="36.51453903522032" lon="-5.354571688317544"><ele>573.0</ele><time>2026-04-25T12:45:59.999Z</time></trkpt><trkpt lat="36.514419151684876" lon="-5.354525015923113"><ele>579.5</ele><time>2026-04-25T12:46:00.999Z</time></trkpt><trkpt lat="36.51429248817827" lon="-5.354526565970812"><ele>586.0</ele><time>2026-04-25T12:46:01.999Z</time></trkpt><trkpt lat="36.51418187064338" lon="-5.3545739014031115"><ele>586.0</ele><time>2026-04-25T12:46:02.999Z</time></trkpt><trkpt lat="36.51410761082345" lon="-5.354683546675164"><ele>586.0</ele><time>2026-04-25T12:46:03.999Z</time></trkpt><trkpt lat="36.51406200219251" lon="-5.354832029979092"><ele>586.0</ele><time>2026-04-25T12:46:04.999Z</time></trkpt><trkpt lat="36.51403900839809" lon="-5.355012636999292"><ele>586.0</ele><time>2026-04-25T12:46:05.999Z</time></trkpt><trkpt lat="36.514006892706234" lon="-5.355202376000494"><ele>579.75</ele><time>2026-04-25T12:46:06.999Z</time></trkpt><trkpt lat="36.51396037386911" lon="-5.355382336546116"><ele>573.5</ele><time>2026-04-25T12:46:07.999Z</time></trkpt><trkpt lat="36.513908010725125" lon="-5.355547769244346"><ele>567.25</ele><time>2026-04-25T12:46:08.999Z</time></trkpt><trkpt lat="36.513836106407055" lon="-5.355704696493277"><ele>561.0</ele><time>2026-04-25T12:46:09.999Z</time></trkpt><trkpt lat="36.51373498780885" lon="-5.355855411553655"><ele>561.0</ele><time>2026-04-25T12:46:10.999Z</time></trkpt><trkpt lat="36.51360659130476" lon="-5.355985001787246"><ele>561.0</ele><time>2026-04-25T12:46:11.999Z</time></trkpt><trkpt lat="36.51347017781922" lon="-5.3561075581659425"><ele>561.0</ele><time>2026-04-25T12:46:12.999Z</time></trkpt><trkpt lat="36.513353169133175" lon="-5.3562628613624135"><ele>554.0</ele><time>2026-04-25T12:46:13.999Z</time></trkpt><trkpt lat="36.51327418403807" lon="-5.356458590240967"><ele>547.0</ele><time>2026-04-25T12:46:14.999Z</time></trkpt><trkpt lat="36.51323328102294" lon="-5.3566672622261065"><ele>540.0</ele><time>2026-04-25T12:46:15.999Z</time></trkpt><trkpt lat="36.51318152894055" lon="-5.356858249832789"><ele>540.0</ele><time>2026-04-25T12:46:16.999Z</time></trkpt><trkpt lat="36.51314331720919" lon="-5.357022281955931"><ele>540.0</ele><time>2026-04-25T12:46:17.999Z</time></trkpt><trkpt lat="36.51305213191482" lon="-5.357166293670005"><ele>540.0</ele><time>2026-04-25T12:46:18.999Z</time></trkpt><trkpt lat="36.51292233662446" lon="-5.35729456729391"><ele>540.3333333333334</ele><time>2026-04-25T12:46:19.999Z</time></trkpt><trkpt lat="36.512780688113416" lon="-5.357406227640321"><ele>540.6666666666667</ele><time>2026-04-25T12:46:20.999Z</time></trkpt><trkpt lat="36.512648540843266" lon="-5.357530471659875"><ele>541.0</ele><time>2026-04-25T12:46:21.999Z</time></trkpt><trkpt lat="36.51253230174111" lon="-5.357655934625675"><ele>541.0</ele><time>2026-04-25T12:46:22.999Z</time></trkpt><trkpt lat="36.512422017550016" lon="-5.357776631794678"><ele>541.0</ele><time>2026-04-25T12:46:23.999Z</time></trkpt><trkpt lat="36.512308905901385" lon="-5.357880447393504"><ele>541.0</ele><time>2026-04-25T12:46:24.999Z</time></trkpt><trkpt lat="36.51218298624969" lon="-5.357947074701026"><ele>541.0</ele><time>2026-04-25T12:46:25.999Z</time></trkpt><trkpt lat="36.512040248879735" lon="-5.357961387365469"><ele>541.75</ele><time>2026-04-25T12:46:26.999Z</time></trkpt><trkpt lat="36.51189034899648" lon="-5.357927634874563"><ele>542.5</ele><time>2026-04-25T12:46:27.999Z</time></trkpt><trkpt lat="36.51174926856358" lon="-5.357862836165285"><ele>543.25</ele><time>2026-04-25T12:46:28.999Z</time></trkpt><trkpt lat="36.51161440185656" lon="-5.357853136653182"><ele>544.0</ele><time>2026-04-25T12:46:29.999Z</time></trkpt><trkpt lat="36.51148763803779" lon="-5.357881887243826"><ele>544.0</ele><time>2026-04-25T12:46:30.999Z</time></trkpt><trkpt lat="36.511366788833605" lon="-5.3579844150325115"><ele>544.0</ele><time>2026-04-25T12:46:31.999Z</time></trkpt><trkpt lat="36.51125984029098" lon="-5.35812959911024"><ele>544.0</ele><time>2026-04-25T12:46:32.999Z</time></trkpt><trkpt lat="36.51114485105799" lon="-5.358271991152173"><ele>536.3333333333334</ele><time>2026-04-25T12:46:33.999Z</time></trkpt><trkpt lat="36.511022540309526" lon="-5.358417474788565"><ele>528.6666666666666</ele><time>2026-04-25T12:46:34.999Z</time></trkpt><trkpt lat="36.51088015658432" lon="-5.358525322195217"><ele>521.0</ele><time>2026-04-25T12:46:35.999Z</time></trkpt><trkpt lat="36.51074033862568" lon="-5.358608386602166"><ele>521.0</ele><time>2026-04-25T12:46:36.999Z</time></trkpt><trkpt lat="36.510602665752614" lon="-5.358670006261322"><ele>521.0</ele><time>2026-04-25T12:46:37.999Z</time></trkpt><trkpt lat="36.51046290396911" lon="-5.35870582477514"><ele>521.0</ele><time>2026-04-25T12:46:38.999Z</time></trkpt><trkpt lat="36.510325116341306" lon="-5.358687951005621"><ele>521.0</ele><time>2026-04-25T12:46:39.999Z</time></trkpt><trkpt lat="36.51018856750501" lon="-5.358629930268862"><ele>518.0</ele><time>2026-04-25T12:46:40.999Z</time></trkpt><trkpt lat="36.51005562161537" lon="-5.35852888445869"><ele>515.0</ele><time>2026-04-25T12:46:41.999Z</time></trkpt><trkpt lat="36.50992641106678" lon="-5.358400306589766"><ele>512.0</ele><time>2026-04-25T12:46:42.999Z</time></trkpt><trkpt lat="36.509800442116486" lon="-5.358264088240551"><ele>512.0</ele><time>2026-04-25T12:46:43.999Z</time></trkpt><trkpt lat="36.50967080242817" lon="-5.358139093827042"><ele>512.0</ele><time>2026-04-25T12:46:44.999Z</time></trkpt><trkpt lat="36.50953949651924" lon="-5.358009537066721"><ele>512.0</ele><time>2026-04-25T12:46:45.999Z</time></trkpt><trkpt lat="36.509425460191366" lon="-5.357862840837717"><ele>508.0</ele><time>2026-04-25T12:46:46.999Z</time></trkpt><trkpt lat="36.5093297391975" lon="-5.357690910287081"><ele>504.0</ele><time>2026-04-25T12:46:48Z</time></trkpt><trkpt lat="36.50926781917906" lon="-5.357495779997362"><ele>500.0</ele><time>2026-04-25T12:46:49Z</time></trkpt><trkpt lat="36.509232461946816" lon="-5.357310176876267"><ele>504.25</ele><time>2026-04-25T12:46:50Z</time></trkpt><trkpt lat="36.50919493601914" lon="-5.357133676454642"><ele>508.5</ele><time>2026-04-25T12:46:51Z</time></trkpt><trkpt lat="36.50916406042594" lon="-5.356978862916191"><ele>512.75</ele><time>2026-04-25T12:46:52Z</time></trkpt><trkpt lat="36.50911847140644" lon="-5.35685513307859"><ele>517.0</ele><time>2026-04-25T12:46:53Z</time></trkpt><trkpt lat="36.50904176262344" lon="-5.356764020772128"><ele>517.0</ele><time>2026-04-25T12:46:54Z</time></trkpt><trkpt lat="36.50894106296229" lon="-5.356709119140394"><ele>517.0</ele><time>2026-04-25T12:46:55Z</time></trkpt><trkpt lat="36.50882977923298" lon="-5.356712959289417"><ele>517.0</ele><time>2026-04-25T12:46:56Z</time></trkpt><trkpt lat="36.50873193331658" lon="-5.356749269980447"><ele>517.0</ele><time>2026-04-25T12:46:57Z</time></trkpt><trkpt lat="36.50866666673555" lon="-5.356881627352292"><ele>517.0</ele><time>2026-04-25T12:46:58Z</time></trkpt><trkpt lat="36.508636518325375" lon="-5.356986315617323"><ele>520.0</ele><time>2026-04-25T12:46:59Z</time></trkpt><trkpt lat="36.50857506639663" lon="-5.3571755599507345"><ele>523.0</ele><time>2026-04-25T12:47:00Z</time></trkpt><trkpt lat="36.50849429800198" lon="-5.357363248786878"><ele>526.0</ele><time>2026-04-25T12:47:01Z</time></trkpt><trkpt lat="36.50840289539126" lon="-5.357551055883033"><ele>516.6666666666667</ele><time>2026-04-25T12:47:02Z</time></trkpt><trkpt lat="36.50830651073264" lon="-5.357709844977095"><ele>507.33333333333337</ele><time>2026-04-25T12:47:03Z</time></trkpt><trkpt lat="36.508248960765485" lon="-5.357891064495852"><ele>498.0</ele><time>2026-04-25T12:47:04Z</time></trkpt><trkpt lat="36.508229561114604" lon="-5.358088197341538"><ele>494.33333333333337</ele><time>2026-04-25T12:47:05Z</time></trkpt><trkpt lat="36.508262968200626" lon="-5.358285581064807"><ele>490.6666666666667</ele><time>2026-04-25T12:47:06Z</time></trkpt><trkpt lat="36.5082848168927" lon="-5.358488540007747"><ele>487.0</ele><time>2026-04-25T12:47:07Z</time></trkpt><trkpt lat="36.508322837634836" lon="-5.358660002678072"><ele>487.0</ele><time>2026-04-25T12:47:08Z</time></trkpt><trkpt lat="36.508315375998684" lon="-5.358829794768289"><ele>487.0</ele><time>2026-04-25T12:47:09Z</time></trkpt><trkpt lat="36.50825900540901" lon="-5.359006423536636"><ele>487.0</ele><time>2026-04-25T12:47:10Z</time></trkpt><trkpt lat="36.50815799834498" lon="-5.359168089526656"><ele>483.33333333333337</ele><time>2026-04-25T12:47:11Z</time></trkpt><trkpt lat="36.50801800902633" lon="-5.359309933283019"><ele>479.66666666666663</ele><time>2026-04-25T12:47:12Z</time></trkpt><trkpt lat="36.50786735707313" lon="-5.359441906125566"><ele>476.0</ele><time>2026-04-25T12:47:13Z</time></trkpt><trkpt lat="36.50774189105083" lon="-5.359607668857006"><ele>477.66666666666663</ele><time>2026-04-25T12:47:14Z</time></trkpt><trkpt lat="36.50765244095746" lon="-5.359812881383771"><ele>479.33333333333337</ele><time>2026-04-25T12:47:15Z</time></trkpt><trkpt lat="36.50759969204219" lon="-5.360047494054583"><ele>481.0</ele><time>2026-04-25T12:47:16Z</time></trkpt><trkpt lat="36.507564067357954" lon="-5.3602814512589605"><ele>481.0</ele><time>2026-04-25T12:47:17Z</time></trkpt><trkpt lat="36.50751357383538" lon="-5.360487291439515"><ele>481.0</ele><time>2026-04-25T12:47:18Z</time></trkpt><trkpt lat="36.50743288164376" lon="-5.360664239361556"><ele>481.0</ele><time>2026-04-25T12:47:19Z</time></trkpt><trkpt lat="36.50732369927228" lon="-5.360802386981121"><ele>476.33333333333337</ele><time>2026-04-25T12:47:20Z</time></trkpt><trkpt lat="36.50719490684276" lon="-5.360908839657535"><ele>471.66666666666663</ele><time>2026-04-25T12:47:21Z</time></trkpt><trkpt lat="36.50703885240822" lon="-5.360985012814335"><ele>467.0</ele><time>2026-04-25T12:47:22Z</time></trkpt><trkpt lat="36.506870640491385" lon="-5.361017405989801"><ele>467.0</ele><time>2026-04-25T12:47:23Z</time></trkpt><trkpt lat="36.50669693492412" lon="-5.360993409257955"><ele>467.0</ele><time>2026-04-25T12:47:24Z</time></trkpt><trkpt lat="36.50652443628498" lon="-5.360906812271417"><ele>467.0</ele><time>2026-04-25T12:47:25Z</time></trkpt><trkpt lat="36.50636054819554" lon="-5.360787743667058"><ele>464.66666666666663</ele><time>2026-04-25T12:47:26Z</time></trkpt><trkpt lat="36.50619097588512" lon="-5.360703067322035"><ele>462.33333333333337</ele><time>2026-04-25T12:47:27Z</time></trkpt><trkpt lat="36.506030121554566" lon="-5.360680654277658"><ele>460.0</ele><time>2026-04-25T12:47:28Z</time></trkpt><trkpt lat="36.5058747128071" lon="-5.360696840561101"><ele>460.0</ele><time>2026-04-25T12:47:29Z</time></trkpt><trkpt lat="36.50572545521105" lon="-5.360747138190951"><ele>460.0</ele><time>2026-04-25T12:47:30Z</time></trkpt><trkpt lat="36.50559716928101" lon="-5.360840164180793"><ele>460.0</ele><time>2026-04-25T12:47:31Z</time></trkpt><trkpt lat="36.505482890099714" lon="-5.360975168033987"><ele>461.6666666666667</ele><time>2026-04-25T12:47:32Z</time></trkpt><trkpt lat="36.5053879002704" lon="-5.361154156826227"><ele>463.33333333333337</ele><time>2026-04-25T12:47:33Z</time></trkpt><trkpt lat="36.50530088928796" lon="-5.361337983765085"><ele>465.0</ele><time>2026-04-25T12:47:34Z</time></trkpt><trkpt lat="36.50522279039083" lon="-5.361463395653804"><ele>461.0</ele><time>2026-04-25T12:47:35Z</time></trkpt><trkpt lat="36.505107037535055" lon="-5.36154574771819"><ele>457.0</ele><time>2026-04-25T12:47:36Z</time></trkpt><trkpt lat="36.504969472938534" lon="-5.36158351322656"><ele>453.0</ele><time>2026-04-25T12:47:37Z</time></trkpt><trkpt lat="36.50482172773244" lon="-5.361561648303326"><ele>449.0</ele><time>2026-04-25T12:47:38Z</time></trkpt><trkpt lat="36.50467222357211" lon="-5.361504197202764"><ele>447.3333333333333</ele><time>2026-04-25T12:47:39Z</time></trkpt><trkpt lat="36.50452976121861" lon="-5.361410944120428"><ele>445.66666666666663</ele><time>2026-04-25T12:47:40Z</time></trkpt><trkpt lat="36.50441157882069" lon="-5.3612841825977195"><ele>444.0</ele><time>2026-04-25T12:47:41Z</time></trkpt><trkpt lat="36.50431546457284" lon="-5.361121089691105"><ele>444.0</ele><time>2026-04-25T12:47:42Z</time></trkpt><trkpt lat="36.50423827570099" lon="-5.360934590814963"><ele>444.0</ele><time>2026-04-25T12:47:42.999Z</time></trkpt><trkpt lat="36.504199883239764" lon="-5.360723382149396"><ele>444.0</ele><time>2026-04-25T12:47:43.999Z</time></trkpt><trkpt lat="36.50417958917817" lon="-5.360501245040209"><ele>447.33333333333337</ele><time>2026-04-25T12:47:44.999Z</time></trkpt><trkpt lat="36.50414570581797" lon="-5.360288230481229"><ele>450.6666666666667</ele><time>2026-04-25T12:47:45.999Z</time></trkpt><trkpt lat="36.50412292496705" lon="-5.360096737525781"><ele>454.0</ele><time>2026-04-25T12:47:46.999Z</time></trkpt><trkpt lat="36.50410214241925" lon="-5.359930729242789"><ele>454.0</ele><time>2026-04-25T12:47:47.999Z</time></trkpt><trkpt lat="36.504072531520826" lon="-5.359781161931867"><ele>454.0</ele><time>2026-04-25T12:47:48.999Z</time></trkpt><trkpt lat="36.504017460600096" lon="-5.359650372763102"><ele>454.0</ele><time>2026-04-25T12:47:49.999Z</time></trkpt><trkpt lat="36.503931311197036" lon="-5.3595774335059385"><ele>454.0</ele><time>2026-04-25T12:47:50.999Z</time></trkpt><trkpt lat="36.503831509274754" lon="-5.359529652566037"><ele>453.75</ele><time>2026-04-25T12:47:51.999Z</time></trkpt><trkpt lat="36.50372234383942" lon="-5.359522185981773"><ele>453.5</ele><time>2026-04-25T12:47:52.999Z</time></trkpt><trkpt lat="36.50360927436187" lon="-5.359555019299485"><ele>453.25</ele><time>2026-04-25T12:47:53.999Z</time></trkpt><trkpt lat="36.50353409084753" lon="-5.359671701568351"><ele>453.0</ele><time>2026-04-25T12:47:54.999Z</time></trkpt><trkpt lat="36.50347682570304" lon="-5.359816085770943"><ele>453.0</ele><time>2026-04-25T12:47:55.999Z</time></trkpt><trkpt lat="36.50343825290887" lon="-5.359998209159667"><ele>453.0</ele><time>2026-04-25T12:47:56.999Z</time></trkpt><trkpt lat="36.50344131384518" lon="-5.360208581238193"><ele>453.0</ele><time>2026-04-25T12:47:57.999Z</time></trkpt><trkpt lat="36.50343847839989" lon="-5.360431248083079"><ele>447.0</ele><time>2026-04-25T12:47:58.999Z</time></trkpt><trkpt lat="36.50342032189477" lon="-5.360668806533616"><ele>441.0</ele><time>2026-04-25T12:47:59.999Z</time></trkpt><trkpt lat="36.50339304913321" lon="-5.360905142885766"><ele>435.0</ele><time>2026-04-25T12:48:00.999Z</time></trkpt><trkpt lat="36.503355591956925" lon="-5.361138402037531"><ele>435.0</ele><time>2026-04-25T12:48:01.999Z</time></trkpt><trkpt lat="36.50331033931585" lon="-5.361353966115"><ele>435.0</ele><time>2026-04-25T12:48:02.999Z</time></trkpt><trkpt lat="36.50327168436056" lon="-5.361563104636479"><ele>435.0</ele><time>2026-04-25T12:48:03.999Z</time></trkpt><trkpt lat="36.503240433863986" lon="-5.361764090412484"><ele>432.0</ele><time>2026-04-25T12:48:04.999Z</time></trkpt><trkpt lat="36.50321044178183" lon="-5.361956056160822"><ele>429.0</ele><time>2026-04-25T12:48:05.999Z</time></trkpt><trkpt lat="36.503167879113654" lon="-5.362124785746853"><ele>426.0</ele><time>2026-04-25T12:48:06.999Z</time></trkpt><trkpt lat="36.50310367901152" lon="-5.362262893306876"><ele>423.0</ele><time>2026-04-25T12:48:07.999Z</time></trkpt><trkpt lat="36.50299675487861" lon="-5.362364743107127"><ele>419.25</ele><time>2026-04-25T12:48:08.999Z</time></trkpt><trkpt lat="36.50286794195473" lon="-5.36243020413142"><ele>415.5</ele><time>2026-04-25T12:48:09.999Z</time></trkpt><trkpt lat="36.5027282353867" lon="-5.362447319264463"><ele>411.75</ele><time>2026-04-25T12:48:10.999Z</time></trkpt><trkpt lat="36.50258096458714" lon="-5.362412592937934"><ele>408.0</ele><time>2026-04-25T12:48:11.999Z</time></trkpt><trkpt lat="36.50244077893722" lon="-5.362313957067898"><ele>411.0</ele><time>2026-04-25T12:48:12.999Z</time></trkpt><trkpt lat="36.50231361342409" lon="-5.362175278775853"><ele>414.0</ele><time>2026-04-25T12:48:13.999Z</time></trkpt><trkpt lat="36.502174201990584" lon="-5.362047649765806"><ele>417.0</ele><time>2026-04-25T12:48:14.999Z</time></trkpt><trkpt lat="36.50203654617546" lon="-5.361929121342104"><ele>417.0</ele><time>2026-04-25T12:48:15.999Z</time></trkpt><trkpt lat="36.50189603926199" lon="-5.361837876496327"><ele>417.0</ele><time>2026-04-25T12:48:16.999Z</time></trkpt><trkpt lat="36.50175340276022" lon="-5.3618104809939116"><ele>417.0</ele><time>2026-04-25T12:48:17.999Z</time></trkpt><trkpt lat="36.50159630926942" lon="-5.361817570549115"><ele>417.0</ele><time>2026-04-25T12:48:18.999Z</time></trkpt><trkpt lat="36.50143905322075" lon="-5.361893382538311"><ele>417.0</ele><time>2026-04-25T12:48:19.999Z</time></trkpt><trkpt lat="36.50128749117845" lon="-5.3620019381869435"><ele>417.0</ele><time>2026-04-25T12:48:20.999Z</time></trkpt><trkpt lat="36.50113904195492" lon="-5.362117569380538"><ele>415.0</ele><time>2026-04-25T12:48:21.999Z</time></trkpt><trkpt lat="36.50099663753938" lon="-5.362254698506248"><ele>413.0</ele><time>2026-04-25T12:48:22.999Z</time></trkpt><trkpt lat="36.5008933256858" lon="-5.362447897289169"><ele>411.0</ele><time>2026-04-25T12:48:23.999Z</time></trkpt><trkpt lat="36.50078178448215" lon="-5.362633827564749"><ele>411.0</ele><time>2026-04-25T12:48:24.999Z</time></trkpt><trkpt lat="36.50067940938012" lon="-5.36283739190173"><ele>411.0</ele><time>2026-04-25T12:48:25.999Z</time></trkpt><trkpt lat="36.500568509432924" lon="-5.363040636782212"><ele>411.0</ele><time>2026-04-25T12:48:26.999Z</time></trkpt><trkpt lat="36.50046547572581" lon="-5.3632365409438005"><ele>414.66666666666663</ele><time>2026-04-25T12:48:27.999Z</time></trkpt><trkpt lat="36.50037060262182" lon="-5.363422053465597"><ele>418.3333333333333</ele><time>2026-04-25T12:48:28.999Z</time></trkpt><trkpt lat="36.500299401708276" lon="-5.363608461426774"><ele>422.0</ele><time>2026-04-25T12:48:29.999Z</time></trkpt><trkpt lat="36.50026339527774" lon="-5.363813850835088"><ele>418.3333333333333</ele><time>2026-04-25T12:48:30.999Z</time></trkpt><trkpt lat="36.500267484678176" lon="-5.364040509763166"><ele>414.66666666666663</ele><time>2026-04-25T12:48:31.999Z</time></trkpt><trkpt lat="36.500317041219674" lon="-5.36425352644424"><ele>411.0</ele><time>2026-04-25T12:48:32.999Z</time></trkpt><trkpt lat="36.50039260228245" lon="-5.364450716132866"><ele>408.66666666666663</ele><time>2026-04-25T12:48:33.999Z</time></trkpt><trkpt lat="36.500420044083185" lon="-5.364663178415957"><ele>406.3333333333333</ele><time>2026-04-25T12:48:34.999Z</time></trkpt><trkpt lat="36.50041278272453" lon="-5.364882489359839"><ele>404.0</ele><time>2026-04-25T12:48:35.999Z</time></trkpt><trkpt lat="36.50035936326593" lon="-5.36510196532481"><ele>404.0</ele><time>2026-04-25T12:48:36.999Z</time></trkpt><trkpt lat="36.50028504114246" lon="-5.365313636921204"><ele>404.0</ele><time>2026-04-25T12:48:37.999Z</time></trkpt><trkpt lat="36.50018807003098" lon="-5.3655029769599425"><ele>404.0</ele><time>2026-04-25T12:48:38.999Z</time></trkpt><trkpt lat="36.50006161501757" lon="-5.3656834438462795"><ele>401.0</ele><time>2026-04-25T12:48:39.999Z</time></trkpt><trkpt lat="36.49992008930789" lon="-5.365852469778329"><ele>398.0</ele><time>2026-04-25T12:48:40.999Z</time></trkpt><trkpt lat="36.49978057522635" lon="-5.366024794466755"><ele>395.0</ele><time>2026-04-25T12:48:41.999Z</time></trkpt><trkpt lat="36.49965789923581" lon="-5.366225333038464"><ele>395.0</ele><time>2026-04-25T12:48:42.999Z</time></trkpt><trkpt lat="36.499555570923235" lon="-5.366443811586688"><ele>395.0</ele><time>2026-04-25T12:48:43.999Z</time></trkpt><trkpt lat="36.49947389504574" lon="-5.366679343950399"><ele>395.0</ele><time>2026-04-25T12:48:44.999Z</time></trkpt><trkpt lat="36.49940643974242" lon="-5.366906711709658"><ele>395.0</ele><time>2026-04-25T12:48:45.999Z</time></trkpt><trkpt lat="36.49933648312004" lon="-5.367126669731776"><ele>395.0</ele><time>2026-04-25T12:48:46.999Z</time></trkpt><trkpt lat="36.49926177718443" lon="-5.36734832995705"><ele>395.0</ele><time>2026-04-25T12:48:47.999Z</time></trkpt><trkpt lat="36.49917030337114" lon="-5.367570376390843"><ele>390.3333333333333</ele><time>2026-04-25T12:48:48.999Z</time></trkpt><trkpt lat="36.49905942828285" lon="-5.367777898710781"><ele>385.66666666666663</ele><time>2026-04-25T12:48:49.999Z</time></trkpt><trkpt lat="36.49891532503566" lon="-5.367963466873695"><ele>381.0</ele><time>2026-04-25T12:48:50.999Z</time></trkpt><trkpt lat="36.49875103660949" lon="-5.368133683426598"><ele>379.6666666666667</ele><time>2026-04-25T12:48:51.999Z</time></trkpt><trkpt lat="36.49858282232396" lon="-5.368301322859298"><ele>378.33333333333337</ele><time>2026-04-25T12:48:52.999Z</time></trkpt><trkpt lat="36.498430086324625" lon="-5.368465482782769"><ele>377.0</ele><time>2026-04-25T12:48:54Z</time></trkpt><trkpt lat="36.4982893359329" lon="-5.36861413668283"><ele>377.0</ele><time>2026-04-25T12:48:55Z</time></trkpt><trkpt lat="36.49815333751569" lon="-5.368732991052139"><ele>377.0</ele><time>2026-04-25T12:48:56Z</time></trkpt><trkpt lat="36.49800560965526" lon="-5.368811821144943"><ele>377.0</ele><time>2026-04-25T12:48:57Z</time></trkpt><trkpt lat="36.497852537324945" lon="-5.368831436023417"><ele>379.25</ele><time>2026-04-25T12:48:58Z</time></trkpt><trkpt lat="36.49771301314529" lon="-5.368816993002104"><ele>381.5</ele><time>2026-04-25T12:48:59Z</time></trkpt><trkpt lat="36.49760368539367" lon="-5.368848397718223"><ele>383.75</ele><time>2026-04-25T12:49:00Z</time></trkpt><trkpt lat="36.4975107014354" lon="-5.36890929311382"><ele>386.0</ele><time>2026-04-25T12:49:01Z</time></trkpt><trkpt lat="36.49742375295282" lon="-5.369012133896633"><ele>380.75</ele><time>2026-04-25T12:49:02Z</time></trkpt><trkpt lat="36.497400044219496" lon="-5.369169705928759"><ele>375.5</ele><time>2026-04-25T12:49:03Z</time></trkpt><trkpt lat="36.49743981612152" lon="-5.36931195479924"><ele>370.25</ele><time>2026-04-25T12:49:04Z</time></trkpt><trkpt lat="36.49751644170734" lon="-5.369444922590798"><ele>365.0</ele><time>2026-04-25T12:49:05Z</time></trkpt><trkpt lat="36.49762748187485" lon="-5.369526226013455"><ele>365.0</ele><time>2026-04-25T12:49:06Z</time></trkpt><trkpt lat="36.49777127860329" lon="-5.36952203103637"><ele>365.0</ele><time>2026-04-25T12:49:07Z</time></trkpt><trkpt lat="36.497908411350956" lon="-5.3694405381955255"><ele>365.0</ele><time>2026-04-25T12:49:08Z</time></trkpt><trkpt lat="36.4980674995735" lon="-5.369348184043958"><ele>364.0</ele><time>2026-04-25T12:49:09Z</time></trkpt><trkpt lat="36.49822178132359" lon="-5.3692331482174644"><ele>363.0</ele><time>2026-04-25T12:49:10Z</time></trkpt><trkpt lat="36.49836817341798" lon="-5.369142244345742"><ele>362.0</ele><time>2026-04-25T12:49:11Z</time></trkpt><trkpt lat="36.498500550473246" lon="-5.3690879989729625"><ele>362.0</ele><time>2026-04-25T12:49:12Z</time></trkpt><trkpt lat="36.49863088943621" lon="-5.369080307305482"><ele>362.0</ele><time>2026-04-25T12:49:13Z</time></trkpt><trkpt lat="36.49876729841774" lon="-5.369126184795966"><ele>362.0</ele><time>2026-04-25T12:49:14Z</time></trkpt><trkpt lat="36.4989021407121" lon="-5.369215670668637"><ele>362.0</ele><time>2026-04-25T12:49:15Z</time></trkpt><trkpt lat="36.499009400013065" lon="-5.369353348827192"><ele>360.6666666666667</ele><time>2026-04-25T12:49:16Z</time></trkpt><trkpt lat="36.49908244420756" lon="-5.369520996969664"><ele>359.3333333333333</ele><time>2026-04-25T12:49:17Z</time></trkpt><trkpt lat="36.49909778281737" lon="-5.369708921648516"><ele>358.0</ele><time>2026-04-25T12:49:18Z</time></trkpt><trkpt lat="36.49905563705096" lon="-5.369897620384236"><ele>355.0</ele><time>2026-04-25T12:49:19Z</time></trkpt><trkpt lat="36.49897854484915" lon="-5.370066788118685"><ele>352.0</ele><time>2026-04-25T12:49:20Z</time></trkpt><trkpt lat="36.498855990220555" lon="-5.3702060671819245"><ele>349.0</ele><time>2026-04-25T12:49:21Z</time></trkpt><trkpt lat="36.49868509883688" lon="-5.370291434381026"><ele>349.0</ele><time>2026-04-25T12:49:22Z</time></trkpt><trkpt lat="36.498496968109954" lon="-5.370347214398333"><ele>349.0</ele><time>2026-04-25T12:49:23Z</time></trkpt><trkpt lat="36.498301847295664" lon="-5.370383636170489"><ele>349.0</ele><time>2026-04-25T12:49:24Z</time></trkpt><trkpt lat="36.498084633342216" lon="-5.370430132487208"><ele>349.0</ele><time>2026-04-25T12:49:25Z</time></trkpt><trkpt lat="36.49790104726218" lon="-5.370469451233116"><ele>349.0</ele><time>2026-04-25T12:49:26Z</time></trkpt><trkpt lat="36.49771495810881" lon="-5.370491747870914"><ele>349.0</ele><time>2026-04-25T12:49:27Z</time></trkpt><trkpt lat="36.497534719061214" lon="-5.370468604142528"><ele>349.0</ele><time>2026-04-25T12:49:28Z</time></trkpt><trkpt lat="36.497381554530676" lon="-5.370466340057589"><ele>349.0</ele><time>2026-04-25T12:49:29Z</time></trkpt><trkpt lat="36.49726981300972" lon="-5.37047629049925"><ele>349.0</ele><time>2026-04-25T12:49:30Z</time></trkpt><trkpt lat="36.49717755843688" lon="-5.370524752359814"><ele>349.0</ele><time>2026-04-25T12:49:31Z</time></trkpt><trkpt lat="36.49710668059631" lon="-5.370629099245103"><ele>345.75</ele><time>2026-04-25T12:49:32Z</time></trkpt><trkpt lat="36.49708300267903" lon="-5.370784902997499"><ele>342.5</ele><time>2026-04-25T12:49:33Z</time></trkpt><trkpt lat="36.497120115315646" lon="-5.370957819299305"><ele>339.25</ele><time>2026-04-25T12:49:34Z</time></trkpt><trkpt lat="36.497225781954526" lon="-5.371098792628784"><ele>336.0</ele><time>2026-04-25T12:49:35Z</time></trkpt><trkpt lat="36.49736009493692" lon="-5.3711995598955085"><ele>336.0</ele><time>2026-04-25T12:49:36Z</time></trkpt><trkpt lat="36.497529251894214" lon="-5.371247834238381"><ele>336.0</ele><time>2026-04-25T12:49:37Z</time></trkpt><trkpt lat="36.497705934132654" lon="-5.371290322085431"><ele>336.0</ele><time>2026-04-25T12:49:38Z</time></trkpt><trkpt lat="36.497900117029076" lon="-5.371310571726548"><ele>336.0</ele><time>2026-04-25T12:49:39Z</time></trkpt><trkpt lat="36.498094853805476" lon="-5.371295745602777"><ele>336.0</ele><time>2026-04-25T12:49:40Z</time></trkpt><trkpt lat="36.49827803476307" lon="-5.37126210201199"><ele>336.0</ele><time>2026-04-25T12:49:41Z</time></trkpt><trkpt lat="36.4984397142082" lon="-5.371253731297202"><ele>336.0</ele><time>2026-04-25T12:49:42Z</time></trkpt><trkpt lat="36.49859321107884" lon="-5.371283300189049"><ele>336.0</ele><time>2026-04-25T12:49:43Z</time></trkpt><trkpt lat="36.49875160544824" lon="-5.371384054552749"><ele>336.0</ele><time>2026-04-25T12:49:44Z</time></trkpt><trkpt lat="36.49891331187348" lon="-5.37149243632998"><ele>333.25</ele><time>2026-04-25T12:49:45Z</time></trkpt><trkpt lat="36.4990538884519" lon="-5.3715861439023564"><ele>330.5</ele><time>2026-04-25T12:49:46Z</time></trkpt><trkpt lat="36.49915873621852" lon="-5.371663647267227"><ele>327.75</ele><time>2026-04-25T12:49:47Z</time></trkpt><trkpt lat="36.49923840101008" lon="-5.371758353437461"><ele>325.0</ele><time>2026-04-25T12:49:48Z</time></trkpt><trkpt lat="36.49927485894565" lon="-5.371883135137695"><ele>325.0</ele><time>2026-04-25T12:49:49Z</time></trkpt><trkpt lat="36.499271236761395" lon="-5.37201236085374"><ele>325.0</ele><time>2026-04-25T12:49:50Z</time></trkpt><trkpt lat="36.4992434017002" lon="-5.372111757466056"><ele>325.0</ele><time>2026-04-25T12:49:51Z</time></trkpt><trkpt lat="36.49909200286313" lon="-5.372179292746603"><ele>325.0</ele><time>2026-04-25T12:49:52Z</time></trkpt><trkpt lat="36.49896107860763" lon="-5.372190501030965"><ele>325.0</ele><time>2026-04-25T12:49:53Z</time></trkpt><trkpt lat="36.49882417179325" lon="-5.37213438166618"><ele>325.0</ele><time>2026-04-25T12:49:53.999Z</time></trkpt><trkpt lat="36.49867430221516" lon="-5.372047518613544"><ele>325.0</ele><time>2026-04-25T12:49:54.999Z</time></trkpt><trkpt lat="36.49855199475242" lon="-5.371973471012435"><ele>325.0</ele><time>2026-04-25T12:49:55.999Z</time></trkpt><trkpt lat="36.49837663215026" lon="-5.371879300369295"><ele>324.0</ele><time>2026-04-25T12:49:56.999Z</time></trkpt><trkpt lat="36.49821493440838" lon="-5.371819907807613"><ele>323.0</ele><time>2026-04-25T12:49:57.999Z</time></trkpt><trkpt lat="36.49804994975703" lon="-5.371809178508221"><ele>322.0</ele><time>2026-04-25T12:49:58.999Z</time></trkpt><trkpt lat="36.497879325030404" lon="-5.371837575493154"><ele>322.0</ele><time>2026-04-25T12:49:59.999Z</time></trkpt><trkpt lat="36.497700948321636" lon="-5.371902864523054"><ele>322.0</ele><time>2026-04-25T12:50:00.999Z</time></trkpt><trkpt lat="36.497515096499654" lon="-5.3719865040759265"><ele>322.0</ele><time>2026-04-25T12:50:01.999Z</time></trkpt><trkpt lat="36.49734158688732" lon="-5.372075652470036"><ele>317.3333333333333</ele><time>2026-04-25T12:50:02.999Z</time></trkpt><trkpt lat="36.49720622874978" lon="-5.372196639849151"><ele>312.6666666666667</ele><time>2026-04-25T12:50:03.999Z</time></trkpt><trkpt lat="36.497084011464864" lon="-5.372349907519923"><ele>308.0</ele><time>2026-04-25T12:50:04.999Z</time></trkpt><trkpt lat="36.4969793095401" lon="-5.372548411036253"><ele>308.0</ele><time>2026-04-25T12:50:05.999Z</time></trkpt><trkpt lat="36.49686492677206" lon="-5.372733218759602"><ele>308.0</ele><time>2026-04-25T12:50:06.999Z</time></trkpt><trkpt lat="36.49673495768242" lon="-5.372878745026169"><ele>308.0</ele><time>2026-04-25T12:50:07.999Z</time></trkpt><trkpt lat="36.49658052939502" lon="-5.372993372429189"><ele>306.0</ele><time>2026-04-25T12:50:08.999Z</time></trkpt><trkpt lat="36.49639909728102" lon="-5.373048582156221"><ele>304.0</ele><time>2026-04-25T12:50:09.999Z</time></trkpt><trkpt lat="36.49619331732534" lon="-5.373060304859684"><ele>302.0</ele><time>2026-04-25T12:50:10.999Z</time></trkpt><trkpt lat="36.495986180064044" lon="-5.373073611288221"><ele>300.33333333333337</ele><time>2026-04-25T12:50:11.999Z</time></trkpt><trkpt lat="36.495771911405036" lon="-5.37309652702542"><ele>298.6666666666667</ele><time>2026-04-25T12:50:12.999Z</time></trkpt><trkpt lat="36.49556839917761" lon="-5.373119342283573"><ele>297.0</ele><time>2026-04-25T12:50:13.999Z</time></trkpt><trkpt lat="36.49537529151743" lon="-5.373136182199495"><ele>295.3333333333333</ele><time>2026-04-25T12:50:14.999Z</time></trkpt><trkpt lat="36.49519286389215" lon="-5.373170550364309"><ele>293.66666666666663</ele><time>2026-04-25T12:50:15.999Z</time></trkpt><trkpt lat="36.49500993665767" lon="-5.373171869486449"><ele>292.0</ele><time>2026-04-25T12:50:16.999Z</time></trkpt><trkpt lat="36.494833147046215" lon="-5.373160455798268"><ele>292.0</ele><time>2026-04-25T12:50:17.999Z</time></trkpt><trkpt lat="36.49466697518608" lon="-5.37311157069736"><ele>292.0</ele><time>2026-04-25T12:50:18.999Z</time></trkpt><trkpt lat="36.49448641901877" lon="-5.373026806719208"><ele>292.0</ele><time>2026-04-25T12:50:19.999Z</time></trkpt><trkpt lat="36.49429820103553" lon="-5.372951798758239"><ele>293.3333333333333</ele><time>2026-04-25T12:50:20.999Z</time></trkpt><trkpt lat="36.4941020786405" lon="-5.372861691069605"><ele>294.6666666666667</ele><time>2026-04-25T12:50:21.999Z</time></trkpt><trkpt lat="36.49390441481458" lon="-5.372770875203098"><ele>296.0</ele><time>2026-04-25T12:50:22.999Z</time></trkpt><trkpt lat="36.49370182210932" lon="-5.372677794881842"><ele>292.6666666666667</ele><time>2026-04-25T12:50:23.999Z</time></trkpt><trkpt lat="36.49349862557038" lon="-5.37257683735255"><ele>289.3333333333333</ele><time>2026-04-25T12:50:24.999Z</time></trkpt><trkpt lat="36.49329805858918" lon="-5.372460035229487"><ele>286.0</ele><time>2026-04-25T12:50:25.999Z</time></trkpt><trkpt lat="36.49310341173614" lon="-5.372333568502922"><ele>285.0</ele><time>2026-04-25T12:50:26.999Z</time></trkpt><trkpt lat="36.49291718821183" lon="-5.372206952558587"><ele>284.0</ele><time>2026-04-25T12:50:27.999Z</time></trkpt><trkpt lat="36.49273764436559" lon="-5.372082683063816"><ele>283.0</ele><time>2026-04-25T12:50:28.999Z</time></trkpt><trkpt lat="36.492566730035925" lon="-5.37196414014999"><ele>283.0</ele><time>2026-04-25T12:50:29.999Z</time></trkpt><trkpt lat="36.492404325524646" lon="-5.371850066770653"><ele>283.0</ele><time>2026-04-25T12:50:30.999Z</time></trkpt><trkpt lat="36.49225209211245" lon="-5.371743826750089"><ele>283.0</ele><time>2026-04-25T12:50:31.999Z</time></trkpt><trkpt lat="36.49210710653068" lon="-5.371650512547027"><ele>280.3333333333333</ele><time>2026-04-25T12:50:32.999Z</time></trkpt><trkpt lat="36.491954969480446" lon="-5.3715715466294816"><ele>277.6666666666667</ele><time>2026-04-25T12:50:33.999Z</time></trkpt><trkpt lat="36.49178611642361" lon="-5.371538060469784"><ele>275.0</ele><time>2026-04-25T12:50:34.999Z</time></trkpt><trkpt lat="36.491601427633555" lon="-5.371543910869831"><ele>275.0</ele><time>2026-04-25T12:50:35.999Z</time></trkpt><trkpt lat="36.491402402256824" lon="-5.371550752688913"><ele>275.0</ele><time>2026-04-25T12:50:36.999Z</time></trkpt><trkpt lat="36.4912101510635" lon="-5.371557361630559"><ele>275.0</ele><time>2026-04-25T12:50:37.999Z</time></trkpt><trkpt lat="36.49100090394949" lon="-5.371564554842895"><ele>273.6666666666667</ele><time>2026-04-25T12:50:38.999Z</time></trkpt><trkpt lat="36.49081107304347" lon="-5.371574168786799"><ele>272.3333333333333</ele><time>2026-04-25T12:50:39.999Z</time></trkpt><trkpt lat="36.49064925599891" lon="-5.371594521885081"><ele>271.0</ele><time>2026-04-25T12:50:40.999Z</time></trkpt><trkpt lat="36.49050914324138" lon="-5.371634143464638"><ele>271.25</ele><time>2026-04-25T12:50:41.999Z</time></trkpt><trkpt lat="36.49040195218456" lon="-5.371710176476704"><ele>271.5</ele><time>2026-04-25T12:50:42.999Z</time></trkpt><trkpt lat="36.49030073574693" lon="-5.371824991499602"><ele>271.75</ele><time>2026-04-25T12:50:43.999Z</time></trkpt><trkpt lat="36.490226972168834" lon="-5.371999391766083"><ele>272.0</ele><time>2026-04-25T12:50:44.999Z</time></trkpt><trkpt lat="36.49017258445565" lon="-5.372205365944719"><ele>269.33333333333337</ele><time>2026-04-25T12:50:45.999Z</time></trkpt><trkpt lat="36.49011100597646" lon="-5.37242538242372"><ele>266.6666666666667</ele><time>2026-04-25T12:50:46.999Z</time></trkpt><trkpt lat="36.49007265130228" lon="-5.372654518683679"><ele>264.0</ele><time>2026-04-25T12:50:47.999Z</time></trkpt><trkpt lat="36.49003097386892" lon="-5.3728622721331805"><ele>261.75</ele><time>2026-04-25T12:50:48.999Z</time></trkpt><trkpt lat="36.48996806388151" lon="-5.373033469856632"><ele>259.5</ele><time>2026-04-25T12:50:49.999Z</time></trkpt><trkpt lat="36.4898770795042" lon="-5.373173188235072"><ele>257.25</ele><time>2026-04-25T12:50:50.999Z</time></trkpt><trkpt lat="36.489759536201475" lon="-5.37327973613253"><ele>255.0</ele><time>2026-04-25T12:50:51.999Z</time></trkpt><trkpt lat="36.48960746297229" lon="-5.373335031126205"><ele>254.0</ele><time>2026-04-25T12:50:52.999Z</time></trkpt><trkpt lat="36.48944088768566" lon="-5.373348385463501"><ele>253.0</ele><time>2026-04-25T12:50:53.999Z</time></trkpt><trkpt lat="36.48926833561902" lon="-5.373298940682927"><ele>252.0</ele><time>2026-04-25T12:50:54.999Z</time></trkpt><trkpt lat="36.489104348139186" lon="-5.373205937874695"><ele>252.0</ele><time>2026-04-25T12:50:55.999Z</time></trkpt><trkpt lat="36.48894463385683" lon="-5.373084886553596"><ele>252.0</ele><time>2026-04-25T12:50:56.999Z</time></trkpt><trkpt lat="36.488787332265645" lon="-5.37295178639318"><ele>252.0</ele><time>2026-04-25T12:50:57.999Z</time></trkpt><trkpt lat="36.488640149292955" lon="-5.372849063068141"><ele>252.0</ele><time>2026-04-25T12:50:58.999Z</time></trkpt><trkpt lat="36.48848879563913" lon="-5.3727817490424306"><ele>252.0</ele><time>2026-04-25T12:51:00Z</time></trkpt><trkpt lat="36.48833024272683" lon="-5.372778860288066"><ele>252.0</ele><time>2026-04-25T12:51:01Z</time></trkpt><trkpt lat="36.4881484247112" lon="-5.372825742369813"><ele>252.0</ele><time>2026-04-25T12:51:02Z</time></trkpt><trkpt lat="36.48795555591044" lon="-5.372878066347803"><ele>252.0</ele><time>2026-04-25T12:51:03Z</time></trkpt><trkpt lat="36.487780325964714" lon="-5.372939132018632"><ele>252.0</ele><time>2026-04-25T12:51:04Z</time></trkpt><trkpt lat="36.48760309552886" lon="-5.373026370034036"><ele>248.33333333333331</ele><time>2026-04-25T12:51:05Z</time></trkpt><trkpt lat="36.48743211113622" lon="-5.373148489378841"><ele>244.66666666666666</ele><time>2026-04-25T12:51:06Z</time></trkpt><trkpt lat="36.487258649847625" lon="-5.373309733983643"><ele>241.0</ele><time>2026-04-25T12:51:07Z</time></trkpt><trkpt lat="36.487069988409324" lon="-5.373456028553479"><ele>241.0</ele><time>2026-04-25T12:51:08Z</time></trkpt><trkpt lat="36.486903547398626" lon="-5.373632690466746"><ele>241.0</ele><time>2026-04-25T12:51:09Z</time></trkpt><trkpt lat="36.48672404754638" lon="-5.3737959409336336"><ele>241.0</ele><time>2026-04-25T12:51:10Z</time></trkpt><trkpt lat="36.486556121439136" lon="-5.37395133632434"><ele>237.33333333333331</ele><time>2026-04-25T12:51:11Z</time></trkpt><trkpt lat="36.4863815584684" lon="-5.374112868766228"><ele>233.66666666666669</ele><time>2026-04-25T12:51:12Z</time></trkpt><trkpt lat="36.48621149128369" lon="-5.374270241035008"><ele>230.0</ele><time>2026-04-25T12:51:13Z</time></trkpt><trkpt lat="36.4860460420824" lon="-5.374422022270098"><ele>229.33333333333334</ele><time>2026-04-25T12:51:14Z</time></trkpt><trkpt lat="36.48587517252892" lon="-5.374557734607134"><ele>228.66666666666669</ele><time>2026-04-25T12:51:15Z</time></trkpt><trkpt lat="36.485717830345436" lon="-5.3747062587968975"><ele>228.0</ele><time>2026-04-25T12:51:16Z</time></trkpt><trkpt lat="36.485566909642245" lon="-5.374843557128376"><ele>224.33333333333331</ele><time>2026-04-25T12:51:17Z</time></trkpt><trkpt lat="36.485426593538406" lon="-5.37495126359757"><ele>220.66666666666666</ele><time>2026-04-25T12:51:18Z</time></trkpt><trkpt lat="36.48528580407508" lon="-5.375022529262561"><ele>217.0</ele><time>2026-04-25T12:51:19Z</time></trkpt><trkpt lat="36.48512978993195" lon="-5.375050762179132"><ele>217.0</ele><time>2026-04-25T12:51:20Z</time></trkpt><trkpt lat="36.484970054516516" lon="-5.375025041167324"><ele>217.0</ele><time>2026-04-25T12:51:21Z</time></trkpt><trkpt lat="36.484811877497066" lon="-5.374934275989587"><ele>217.0</ele><time>2026-04-25T12:51:22Z</time></trkpt><trkpt lat="36.48465439239399" lon="-5.374824067919273"><ele>215.0</ele><time>2026-04-25T12:51:23Z</time></trkpt><trkpt lat="36.48451064163834" lon="-5.3747447787702125"><ele>213.0</ele><time>2026-04-25T12:51:24Z</time></trkpt><trkpt lat="36.48438292958414" lon="-5.374729868833756"><ele>211.0</ele><time>2026-04-25T12:51:25Z</time></trkpt><trkpt lat="36.48423606674135" lon="-5.374750335464072"><ele>209.0</ele><time>2026-04-25T12:51:26Z</time></trkpt><trkpt lat="36.48408310525477" lon="-5.374850333335415"><ele>209.0</ele><time>2026-04-25T12:51:27Z</time></trkpt><trkpt lat="36.48390710904205" lon="-5.374964005343149"><ele>209.0</ele><time>2026-04-25T12:51:28Z</time></trkpt><trkpt lat="36.48371435507296" lon="-5.375072427388786"><ele>209.0</ele><time>2026-04-25T12:51:29Z</time></trkpt><trkpt lat="36.48352413523203" lon="-5.375199345036974"><ele>209.0</ele><time>2026-04-25T12:51:30Z</time></trkpt><trkpt lat="36.48332421091511" lon="-5.375326831591433"><ele>209.0</ele><time>2026-04-25T12:51:31Z</time></trkpt><trkpt lat="36.48313680113049" lon="-5.3754515602841355"><ele>209.0</ele><time>2026-04-25T12:51:32Z</time></trkpt><trkpt lat="36.48296343415095" lon="-5.375568361114569"><ele>204.0</ele><time>2026-04-25T12:51:33Z</time></trkpt><trkpt lat="36.48278703021356" lon="-5.375685454071732"><ele>199.0</ele><time>2026-04-25T12:51:34Z</time></trkpt><trkpt lat="36.482592795977254" lon="-5.375791610080191"><ele>194.0</ele><time>2026-04-25T12:51:35Z</time></trkpt><trkpt lat="36.48238569082185" lon="-5.375874426619493"><ele>194.0</ele><time>2026-04-25T12:51:36Z</time></trkpt><trkpt lat="36.48217404141215" lon="-5.375918605935455"><ele>194.0</ele><time>2026-04-25T12:51:37Z</time></trkpt><trkpt lat="36.48196102257762" lon="-5.375945482236338"><ele>194.0</ele><time>2026-04-25T12:51:38Z</time></trkpt><trkpt lat="36.48175284122309" lon="-5.37598901398215"><ele>193.0</ele><time>2026-04-25T12:51:39Z</time></trkpt><trkpt lat="36.481540944721154" lon="-5.376017006666459"><ele>192.0</ele><time>2026-04-25T12:51:40Z</time></trkpt><trkpt lat="36.48133281990963" lon="-5.376044501088618"><ele>191.0</ele><time>2026-04-25T12:51:41Z</time></trkpt><trkpt lat="36.48112112656239" lon="-5.376072466933998"><ele>190.0</ele><time>2026-04-25T12:51:42Z</time></trkpt><trkpt lat="36.480901931551855" lon="-5.376100474651633"><ele>189.0</ele><time>2026-04-25T12:51:43Z</time></trkpt><trkpt lat="36.48068315008774" lon="-5.376126022828817"><ele>188.0</ele><time>2026-04-25T12:51:44Z</time></trkpt><trkpt lat="36.480461312307135" lon="-5.376151929218969"><ele>186.33333333333331</ele><time>2026-04-25T12:51:45Z</time></trkpt><trkpt lat="36.48024066584934" lon="-5.3761807500741"><ele>184.66666666666666</ele><time>2026-04-25T12:51:46Z</time></trkpt><trkpt lat="36.48001671129115" lon="-5.376192870279149"><ele>183.0</ele><time>2026-04-25T12:51:47Z</time></trkpt><trkpt lat="36.479802718242844" lon="-5.3762197453885054"><ele>181.33333333333334</ele><time>2026-04-25T12:51:48Z</time></trkpt><trkpt lat="36.47959247036339" lon="-5.376252995046746"><ele>179.66666666666669</ele><time>2026-04-25T12:51:49Z</time></trkpt><trkpt lat="36.47939739573334" lon="-5.376278085864963"><ele>178.0</ele><time>2026-04-25T12:51:50Z</time></trkpt><trkpt lat="36.479215708743084" lon="-5.3763005113665026"><ele>178.0</ele><time>2026-04-25T12:51:51Z</time></trkpt><trkpt lat="36.47905030763732" lon="-5.376293152296822"><ele>178.0</ele><time>2026-04-25T12:51:52Z</time></trkpt><trkpt lat="36.47886901591706" lon="-5.376235301847741"><ele>178.0</ele><time>2026-04-25T12:51:53Z</time></trkpt><trkpt lat="36.47868437103402" lon="-5.376173343477671"><ele>174.66666666666669</ele><time>2026-04-25T12:51:53.999Z</time></trkpt><trkpt lat="36.47852188281538" lon="-5.376103355113651"><ele>171.33333333333334</ele><time>2026-04-25T12:51:54.999Z</time></trkpt><trkpt lat="36.478359488364006" lon="-5.3760639800504935"><ele>168.0</ele><time>2026-04-25T12:51:55.999Z</time></trkpt><trkpt lat="36.47820319873569" lon="-5.376085112218468"><ele>168.0</ele><time>2026-04-25T12:51:56.999Z</time></trkpt><trkpt lat="36.47805105805122" lon="-5.376170579471682"><ele>168.0</ele><time>2026-04-25T12:51:57.999Z</time></trkpt><trkpt lat="36.47789896737478" lon="-5.376307794230408"><ele>168.0</ele><time>2026-04-25T12:51:58.999Z</time></trkpt><trkpt lat="36.47773553534828" lon="-5.37645488298712"><ele>165.33333333333334</ele><time>2026-04-25T12:51:59.999Z</time></trkpt><trkpt lat="36.47757775467364" lon="-5.376637358854232"><ele>162.66666666666669</ele><time>2026-04-25T12:52:00.999Z</time></trkpt><trkpt lat="36.47741315098029" lon="-5.376814654584709"><ele>160.0</ele><time>2026-04-25T12:52:01.999Z</time></trkpt><trkpt lat="36.47724470517449" lon="-5.376991073054346"><ele>161.66666666666669</ele><time>2026-04-25T12:52:02.999Z</time></trkpt><trkpt lat="36.47707814386547" lon="-5.377165188347037"><ele>163.33333333333334</ele><time>2026-04-25T12:52:03.999Z</time></trkpt><trkpt lat="36.47691524654621" lon="-5.37733483926188"><ele>165.0</ele><time>2026-04-25T12:52:04.999Z</time></trkpt><trkpt lat="36.47675295369437" lon="-5.377499224323553"><ele>161.33333333333334</ele><time>2026-04-25T12:52:05.999Z</time></trkpt><trkpt lat="36.47658478217214" lon="-5.377653358466039"><ele>157.66666666666669</ele><time>2026-04-25T12:52:06.999Z</time></trkpt><trkpt lat="36.47641452378186" lon="-5.377818469153811"><ele>154.0</ele><time>2026-04-25T12:52:07.999Z</time></trkpt><trkpt lat="36.47623595234257" lon="-5.377963852208617"><ele>150.0</ele><time>2026-04-25T12:52:08.999Z</time></trkpt><trkpt lat="36.47604990240506" lon="-5.378095624934392"><ele>146.0</ele><time>2026-04-25T12:52:09.999Z</time></trkpt><trkpt lat="36.47587076195234" lon="-5.378242434833041"><ele>142.0</ele><time>2026-04-25T12:52:10.999Z</time></trkpt><trkpt lat="36.475696412709695" lon="-5.378383402177363"><ele>142.0</ele><time>2026-04-25T12:52:11.999Z</time></trkpt><trkpt lat="36.47554048427964" lon="-5.37852819550603"><ele>142.0</ele><time>2026-04-25T12:52:12.999Z</time></trkpt><trkpt lat="36.475374855923484" lon="-5.378629664952934"><ele>142.0</ele><time>2026-04-25T12:52:13.999Z</time></trkpt><trkpt lat="36.4752124545823" lon="-5.378716523230502"><ele>142.33333333333334</ele><time>2026-04-25T12:52:14.999Z</time></trkpt><trkpt lat="36.47504234385749" lon="-5.378778065030552"><ele>142.66666666666666</ele><time>2026-04-25T12:52:15.999Z</time></trkpt><trkpt lat="36.474880041470094" lon="-5.378847446723771"><ele>143.0</ele><time>2026-04-25T12:52:16.999Z</time></trkpt><trkpt lat="36.474732387147135" lon="-5.378908620413635"><ele>139.5</ele><time>2026-04-25T12:52:17.999Z</time></trkpt><trkpt lat="36.4746024558633" lon="-5.378997049437831"><ele>136.0</ele><time>2026-04-25T12:52:18.999Z</time></trkpt><trkpt lat="36.47449277985366" lon="-5.379109798325184"><ele>132.5</ele><time>2026-04-25T12:52:19.999Z</time></trkpt><trkpt lat="36.47439821605126" lon="-5.379256969409203"><ele>129.0</ele><time>2026-04-25T12:52:20.999Z</time></trkpt><trkpt lat="36.47435595484309" lon="-5.379464005570535"><ele>129.0</ele><time>2026-04-25T12:52:21.999Z</time></trkpt><trkpt lat="36.47427349500761" lon="-5.379632792822354"><ele>129.0</ele><time>2026-04-25T12:52:22.999Z</time></trkpt><trkpt lat="36.47435541390324" lon="-5.37992245423938"><ele>129.0</ele><time>2026-04-25T12:52:23.999Z</time></trkpt><trkpt lat="36.47438049454673" lon="-5.380160979439933"><ele>129.66666666666666</ele><time>2026-04-25T12:52:24.999Z</time></trkpt><trkpt lat="36.47438418748593" lon="-5.380407175249061"><ele>130.33333333333331</ele><time>2026-04-25T12:52:25.999Z</time></trkpt><trkpt lat="36.474388757030454" lon="-5.380644018782778"><ele>131.0</ele><time>2026-04-25T12:52:26.999Z</time></trkpt><trkpt lat="36.47440238977746" lon="-5.380866262074323"><ele>131.0</ele><time>2026-04-25T12:52:27.999Z</time></trkpt><trkpt lat="36.47441000065196" lon="-5.381060366477202"><ele>131.0</ele><time>2026-04-25T12:52:28.999Z</time></trkpt><trkpt lat="36.4744119352291" lon="-5.381234101294605"><ele>131.0</ele><time>2026-04-25T12:52:29.999Z</time></trkpt><trkpt lat="36.47441643234556" lon="-5.38138800879085"><ele>131.0</ele><time>2026-04-25T12:52:30.999Z</time></trkpt><trkpt lat="36.47442620678017" lon="-5.381530458692288"><ele>132.33333333333331</ele><time>2026-04-25T12:52:31.999Z</time></trkpt><trkpt lat="36.474436866877355" lon="-5.38165879278182"><ele>133.66666666666666</ele><time>2026-04-25T12:52:32.999Z</time></trkpt><trkpt lat="36.4744448867104" lon="-5.381769456245453"><ele>135.0</ele><time>2026-04-25T12:52:33.999Z</time></trkpt><trkpt lat="36.474443977882395" lon="-5.38186057152347"><ele>136.33333333333334</ele><time>2026-04-25T12:52:34.999Z</time></trkpt><trkpt lat="36.474430413562075" lon="-5.381947422123118"><ele>137.66666666666669</ele><time>2026-04-25T12:52:36.999Z</time></trkpt><trkpt lat="36.47435825468047" lon="-5.381879754254727"><ele>139.0</ele><time>2026-04-25T12:52:39.999Z</time></trkpt><trkpt lat="36.47436105203868" lon="-5.381781434514527"><ele>139.0</ele><time>2026-04-25T12:52:40.999Z</time></trkpt><trkpt lat="36.47438021280016" lon="-5.381658103938091"><ele>139.0</ele><time>2026-04-25T12:52:41.999Z</time></trkpt><trkpt lat="36.47437806635836" lon="-5.38150433556016"><ele>139.0</ele><time>2026-04-25T12:52:42.999Z</time></trkpt><trkpt lat="36.47437624279752" lon="-5.38135446342304"><ele>139.0</ele><time>2026-04-25T12:52:43.999Z</time></trkpt><trkpt lat="36.47437393304553" lon="-5.381203446224628"><ele>137.4</ele><time>2026-04-25T12:52:44.999Z</time></trkpt><trkpt lat="36.474373098562566" lon="-5.381066347186231"><ele>135.8</ele><time>2026-04-25T12:52:45.999Z</time></trkpt><trkpt lat="36.474373532108004" lon="-5.380936390525943"><ele>134.2</ele><time>2026-04-25T12:52:46.999Z</time></trkpt><trkpt lat="36.47436799238713" lon="-5.380808935230412"><ele>132.6</ele><time>2026-04-25T12:52:47.999Z</time></trkpt><trkpt lat="36.47436364063978" lon="-5.380690177961859"><ele>131.0</ele><time>2026-04-25T12:52:48.999Z</time></trkpt><trkpt lat="36.4743605915856" lon="-5.380565696808313"><ele>130.0</ele><time>2026-04-25T12:52:49.999Z</time></trkpt><trkpt lat="36.474355672572166" lon="-5.380435751741825"><ele>129.0</ele><time>2026-04-25T12:52:50.999Z</time></trkpt><trkpt lat="36.47435377695627" lon="-5.380307793814231"><ele>128.0</ele><time>2026-04-25T12:52:51.999Z</time></trkpt><trkpt lat="36.474356983406146" lon="-5.380177701339904"><ele>127.0</ele><time>2026-04-25T12:52:52.999Z</time></trkpt><trkpt lat="36.47435477266789" lon="-5.380049999997873"><ele>126.0</ele><time>2026-04-25T12:52:53.999Z</time></trkpt><trkpt lat="36.47434668882126" lon="-5.379921623503506"><ele>126.0</ele><time>2026-04-25T12:52:54.999Z</time></trkpt><trkpt lat="36.474346315038815" lon="-5.379793870763536"><ele>126.0</ele><time>2026-04-25T12:52:55.999Z</time></trkpt><trkpt lat="36.47434835666722" lon="-5.3796618514673025"><ele>126.0</ele><time>2026-04-25T12:52:56.999Z</time></trkpt><trkpt lat="36.47435336137837" lon="-5.379534119193625"><ele>126.0</ele><time>2026-04-25T12:52:57.999Z</time></trkpt><trkpt lat="36.47436473419473" lon="-5.379408726015346"><ele>126.0</ele><time>2026-04-25T12:52:58.999Z</time></trkpt><trkpt lat="36.4743843233624" lon="-5.379304742327414"><ele>126.5</ele><time>2026-04-25T12:52:59.999Z</time></trkpt><trkpt lat="36.47440218298211" lon="-5.379219038442951"><ele>127.0</ele><time>2026-04-25T12:53:00.999Z</time></trkpt><trkpt lat="36.474414926263265" lon="-5.379102091971916"><ele>127.5</ele><time>2026-04-25T12:53:02.999Z</time></trkpt><trkpt lat="36.47434358325169" lon="-5.378983919582424"><ele>128.0</ele><time>2026-04-25T12:53:08Z</time></trkpt><trkpt lat="36.47428056637953" lon="-5.378987110894166"><ele>128.5</ele><time>2026-04-25T12:55:34.999Z</time></trkpt><trkpt lat="36.47418376326475" lon="-5.378962612829924"><ele>129.0</ele><time>2026-04-25T12:55:36.999Z</time></trkpt><trkpt lat="36.474096906763705" lon="-5.3789107320427245"><ele>129.0</ele><time>2026-04-25T12:55:37.999Z</time></trkpt><trkpt lat="36.47400239998898" lon="-5.3788594076479095"><ele>129.0</ele><time>2026-04-25T12:55:38.999Z</time></trkpt><trkpt lat="36.47393314260019" lon="-5.378830154708467"><ele>129.0</ele><time>2026-04-25T12:55:39.999Z</time></trkpt><trkpt lat="36.47382775043729" lon="-5.37875449835006"><ele>129.0</ele><time>2026-04-25T12:55:40.999Z</time></trkpt><trkpt lat="36.47371446013398" lon="-5.378677363786444"><ele>129.0</ele><time>2026-04-25T12:55:41.999Z</time></trkpt><trkpt lat="36.47359712866123" lon="-5.378596099405673"><ele>128.25</ele><time>2026-04-25T12:55:42.999Z</time></trkpt><trkpt lat="36.47348256046674" lon="-5.378518485644823"><ele>127.5</ele><time>2026-04-25T12:55:43.999Z</time></trkpt><trkpt lat="36.47335726348806" lon="-5.378437610918776"><ele>126.75</ele><time>2026-04-25T12:55:44.999Z</time></trkpt><trkpt lat="36.47323027460578" lon="-5.378360575034708"><ele>126.0</ele><time>2026-04-25T12:55:45.999Z</time></trkpt><trkpt lat="36.47310437576781" lon="-5.3782771192564685"><ele>126.0</ele><time>2026-04-25T12:55:46.999Z</time></trkpt><trkpt lat="36.47298061282484" lon="-5.378193343666586"><ele>126.0</ele><time>2026-04-25T12:55:47.999Z</time></trkpt><trkpt lat="36.47286292965819" lon="-5.378114134065429"><ele>126.0</ele><time>2026-04-25T12:55:48.999Z</time></trkpt><trkpt lat="36.472739988865875" lon="-5.378043592407813"><ele>126.0</ele><time>2026-04-25T12:55:49.999Z</time></trkpt><trkpt lat="36.47262798531429" lon="-5.377958176749057"><ele>125.0</ele><time>2026-04-25T12:55:50.999Z</time></trkpt><trkpt lat="36.472518444527545" lon="-5.3778686568751715"><ele>124.0</ele><time>2026-04-25T12:55:51.999Z</time></trkpt><trkpt lat="36.47240550167399" lon="-5.377796559548687"><ele>123.0</ele><time>2026-04-25T12:55:52.999Z</time></trkpt><trkpt lat="36.472287253793255" lon="-5.377728317143613"><ele>122.0</ele><time>2026-04-25T12:55:53.999Z</time></trkpt><trkpt lat="36.47218018641726" lon="-5.377639948073473"><ele>121.0</ele><time>2026-04-25T12:55:54.999Z</time></trkpt><trkpt lat="36.472068697427595" lon="-5.3775366040311"><ele>120.0</ele><time>2026-04-25T12:55:55.999Z</time></trkpt><trkpt lat="36.4719352904245" lon="-5.3773916065386915"><ele>119.0</ele><time>2026-04-25T12:55:56.999Z</time></trkpt><trkpt lat="36.47177926520647" lon="-5.3771923342963905"><ele>119.66666666666666</ele><time>2026-04-25T12:55:57.999Z</time></trkpt><trkpt lat="36.47161473063141" lon="-5.3769832500788475"><ele>120.33333333333334</ele><time>2026-04-25T12:55:58.999Z</time></trkpt><trkpt lat="36.471479063484935" lon="-5.376810739503897"><ele>121.0</ele><time>2026-04-25T12:55:59.999Z</time></trkpt><trkpt lat="36.47135419277133" lon="-5.376658639719636"><ele>119.66666666666667</ele><time>2026-04-25T12:56:00.999Z</time></trkpt><trkpt lat="36.47124049302928" lon="-5.376516666419594"><ele>118.33333333333334</ele><time>2026-04-25T12:56:01.999Z</time></trkpt><trkpt lat="36.47114244950031" lon="-5.376387310008001"><ele>117.0</ele><time>2026-04-25T12:56:02.999Z</time></trkpt><trkpt lat="36.47102543731417" lon="-5.376261318607638"><ele>117.0</ele><time>2026-04-25T12:56:03.999Z</time></trkpt><trkpt lat="36.47091250614046" lon="-5.376153994160488"><ele>117.0</ele><time>2026-04-25T12:56:04.999Z</time></trkpt><trkpt lat="36.470818357597594" lon="-5.376039758384403"><ele>117.0</ele><time>2026-04-25T12:56:05.999Z</time></trkpt><trkpt lat="36.47072270703035" lon="-5.375930559762397"><ele>117.0</ele><time>2026-04-25T12:56:06.999Z</time></trkpt><trkpt lat="36.47059119708184" lon="-5.37580360498184"><ele>117.0</ele><time>2026-04-25T12:56:07.999Z</time></trkpt><trkpt lat="36.47044205107181" lon="-5.375707441103341"><ele>117.0</ele><time>2026-04-25T12:56:08.999Z</time></trkpt><trkpt lat="36.4702826280062" lon="-5.375625666547757"><ele>117.0</ele><time>2026-04-25T12:56:09.999Z</time></trkpt><trkpt lat="36.470128756092855" lon="-5.375552308523454"><ele>118.33333333333334</ele><time>2026-04-25T12:56:10.999Z</time></trkpt><trkpt lat="36.469988844806025" lon="-5.37548860809101"><ele>119.66666666666667</ele><time>2026-04-25T12:56:11.999Z</time></trkpt><trkpt lat="36.46984815560142" lon="-5.375440651186097"><ele>121.0</ele><time>2026-04-25T12:56:12.999Z</time></trkpt><trkpt lat="36.46969369804841" lon="-5.375420133212428"><ele>120.0</ele><time>2026-04-25T12:56:13.999Z</time></trkpt><trkpt lat="36.469520710916115" lon="-5.375429091536339"><ele>119.0</ele><time>2026-04-25T12:56:14.999Z</time></trkpt><trkpt lat="36.469346803361546" lon="-5.375436805876457"><ele>118.0</ele><time>2026-04-25T12:56:15.999Z</time></trkpt><trkpt lat="36.46915964072934" lon="-5.375449752503797"><ele>118.0</ele><time>2026-04-25T12:56:16.999Z</time></trkpt><trkpt lat="36.468960662035244" lon="-5.375471331142876"><ele>118.0</ele><time>2026-04-25T12:56:17.999Z</time></trkpt><trkpt lat="36.468790542327575" lon="-5.375499590593306"><ele>118.0</ele><time>2026-04-25T12:56:18.999Z</time></trkpt><trkpt lat="36.46863802236331" lon="-5.3755174336979366"><ele>117.75</ele><time>2026-04-25T12:56:19.999Z</time></trkpt><trkpt lat="36.46849425523986" lon="-5.375514192914617"><ele>117.5</ele><time>2026-04-25T12:56:20.999Z</time></trkpt><trkpt lat="36.468347174101844" lon="-5.375506160344333"><ele>117.25</ele><time>2026-04-25T12:56:21.999Z</time></trkpt><trkpt lat="36.46820098970895" lon="-5.375492405840462"><ele>117.0</ele><time>2026-04-25T12:56:22.999Z</time></trkpt><trkpt lat="36.46807438840637" lon="-5.375470415709481"><ele>117.0</ele><time>2026-04-25T12:56:23.999Z</time></trkpt><trkpt lat="36.467975874564125" lon="-5.375455364871956"><ele>117.0</ele><time>2026-04-25T12:56:24.999Z</time></trkpt><trkpt lat="36.46789769563226" lon="-5.3754507969287255"><ele>117.0</ele><time>2026-04-25T12:56:25.999Z</time></trkpt><trkpt lat="36.4678336185182" lon="-5.375470941830906"><ele>117.0</ele><time>2026-04-25T12:56:26.999Z</time></trkpt><trkpt lat="36.46777818911107" lon="-5.3755938228621885"><ele>117.0</ele><time>2026-04-25T12:56:28.999Z</time></trkpt><trkpt lat="36.46776600316873" lon="-5.375681148503226"><ele>117.0</ele><time>2026-04-25T12:56:29.999Z</time></trkpt><trkpt lat="36.46774543756604" lon="-5.375761647010735"><ele>115.0</ele><time>2026-04-25T12:56:30.999Z</time></trkpt><trkpt lat="36.467681726736004" lon="-5.3758611859640935"><ele>113.0</ele><time>2026-04-25T12:56:31.999Z</time></trkpt><trkpt lat="36.467607476692336" lon="-5.375929391134321"><ele>111.0</ele><time>2026-04-25T12:56:32.999Z</time></trkpt><trkpt lat="36.467492311385634" lon="-5.375987698708827"><ele>109.0</ele><time>2026-04-25T12:56:33.999Z</time></trkpt><trkpt lat="36.46735370293444" lon="-5.376031238807962"><ele>109.0</ele><time>2026-04-25T12:56:34.999Z</time></trkpt><trkpt lat="36.46721865582806" lon="-5.3760872138401785"><ele>109.0</ele><time>2026-04-25T12:56:35.999Z</time></trkpt><trkpt lat="36.46708144598689" lon="-5.376143162806135"><ele>109.0</ele><time>2026-04-25T12:56:36.999Z</time></trkpt><trkpt lat="36.466950873571676" lon="-5.376195966257173"><ele>109.0</ele><time>2026-04-25T12:56:37.999Z</time></trkpt><trkpt lat="36.46681549377666" lon="-5.3762475076770535"><ele>108.5</ele><time>2026-04-25T12:56:38.999Z</time></trkpt><trkpt lat="36.466678913067774" lon="-5.3762982629520115"><ele>108.0</ele><time>2026-04-25T12:56:39.999Z</time></trkpt><trkpt lat="36.466548635001146" lon="-5.376346936479681"><ele>107.5</ele><time>2026-04-25T12:56:40.999Z</time></trkpt><trkpt lat="36.46641979850835" lon="-5.376394538719738"><ele>107.0</ele><time>2026-04-25T12:56:41.999Z</time></trkpt><trkpt lat="36.466280708072745" lon="-5.37645871261113"><ele>106.25</ele><time>2026-04-25T12:56:42.999Z</time></trkpt><trkpt lat="36.46614036159895" lon="-5.376516801727735"><ele>105.5</ele><time>2026-04-25T12:56:43.999Z</time></trkpt><trkpt lat="36.46600360802738" lon="-5.376573395119364"><ele>104.75</ele><time>2026-04-25T12:56:44.999Z</time></trkpt><trkpt lat="36.465865587857834" lon="-5.376630909592849"><ele>104.0</ele><time>2026-04-25T12:56:45.999Z</time></trkpt><trkpt lat="36.46573913429426" lon="-5.376693581572163"><ele>104.0</ele><time>2026-04-25T12:56:46.999Z</time></trkpt><trkpt lat="36.465595177242996" lon="-5.376753333080661"><ele>104.0</ele><time>2026-04-25T12:56:47.999Z</time></trkpt><trkpt lat="36.465458728848205" lon="-5.376813654458814"><ele>104.0</ele><time>2026-04-25T12:56:48.999Z</time></trkpt><trkpt lat="36.465326264681394" lon="-5.376881963321728"><ele>104.0</ele><time>2026-04-25T12:56:49.999Z</time></trkpt><trkpt lat="36.46518832826768" lon="-5.3769397174717755"><ele>105.0</ele><time>2026-04-25T12:56:50.999Z</time></trkpt><trkpt lat="36.46504278829379" lon="-5.377017899107663"><ele>106.0</ele><time>2026-04-25T12:56:51.999Z</time></trkpt><trkpt lat="36.464892364714984" lon="-5.377103370723016"><ele>107.0</ele><time>2026-04-25T12:56:52.999Z</time></trkpt><trkpt lat="36.46474209174616" lon="-5.377198155380802"><ele>106.0</ele><time>2026-04-25T12:56:53.999Z</time></trkpt><trkpt lat="36.46460256237122" lon="-5.377272017899602"><ele>105.0</ele><time>2026-04-25T12:56:54.999Z</time></trkpt><trkpt lat="36.464479049176184" lon="-5.377327450786837"><ele>104.0</ele><time>2026-04-25T12:56:55.999Z</time></trkpt><trkpt lat="36.464361952446566" lon="-5.377361002071523"><ele>103.0</ele><time>2026-04-25T12:56:56.999Z</time></trkpt><trkpt lat="36.464250751169914" lon="-5.377412702140213"><ele>103.0</ele><time>2026-04-25T12:56:57.999Z</time></trkpt><trkpt lat="36.46416470166647" lon="-5.377466977121716"><ele>103.0</ele><time>2026-04-25T12:56:58.999Z</time></trkpt><trkpt lat="36.464086011725506" lon="-5.377517691826178"><ele>103.0</ele><time>2026-04-25T12:56:59.999Z</time></trkpt><trkpt lat="36.46398849649616" lon="-5.377575298704587"><ele>103.0</ele><time>2026-04-25T12:57:00.999Z</time></trkpt><trkpt lat="36.463894915420866" lon="-5.377645723916058"><ele>103.0</ele><time>2026-04-25T12:57:01.998Z</time></trkpt><trkpt lat="36.46379258603654" lon="-5.3777304549466525"><ele>102.5</ele><time>2026-04-25T12:57:02.998Z</time></trkpt><trkpt lat="36.46368634046691" lon="-5.377825801253213"><ele>102.0</ele><time>2026-04-25T12:57:03.998Z</time></trkpt><trkpt lat="36.463563377779344" lon="-5.377927857810302"><ele>101.5</ele><time>2026-04-25T12:57:04.998Z</time></trkpt><trkpt lat="36.46343973793972" lon="-5.37802810713623"><ele>101.0</ele><time>2026-04-25T12:57:05.998Z</time></trkpt><trkpt lat="36.463304406680514" lon="-5.37813103290864"><ele>101.0</ele><time>2026-04-25T12:57:06.998Z</time></trkpt><trkpt lat="36.463168697822624" lon="-5.378245548489356"><ele>101.0</ele><time>2026-04-25T12:57:07.998Z</time></trkpt><trkpt lat="36.463041270722336" lon="-5.378358609440448"><ele>101.0</ele><time>2026-04-25T12:57:08.998Z</time></trkpt><trkpt lat="36.46291467945366" lon="-5.378461496915628"><ele>99.0</ele><time>2026-04-25T12:57:09.998Z</time></trkpt><trkpt lat="36.46278336427957" lon="-5.378571546218611"><ele>97.0</ele><time>2026-04-25T12:57:10.998Z</time></trkpt><trkpt lat="36.46264740232562" lon="-5.378686888747372"><ele>95.0</ele><time>2026-04-25T12:57:11.998Z</time></trkpt><trkpt lat="36.46252728410793" lon="-5.37878599315533"><ele>95.75</ele><time>2026-04-25T12:57:12.998Z</time></trkpt><trkpt lat="36.462421251933385" lon="-5.378877994323775"><ele>96.5</ele><time>2026-04-25T12:57:13.998Z</time></trkpt><trkpt lat="36.462313368504425" lon="-5.378972190096212"><ele>97.25</ele><time>2026-04-25T12:57:14.998Z</time></trkpt><trkpt lat="36.46218803758435" lon="-5.379045914014451"><ele>98.0</ele><time>2026-04-25T12:57:15.998Z</time></trkpt><trkpt lat="36.462040757684136" lon="-5.37908994475416"><ele>98.0</ele><time>2026-04-25T12:57:17Z</time></trkpt><trkpt lat="36.461888448421924" lon="-5.379128530778914"><ele>98.0</ele><time>2026-04-25T12:57:18Z</time></trkpt><trkpt lat="36.46173866092464" lon="-5.379180845164236"><ele>98.0</ele><time>2026-04-25T12:57:19Z</time></trkpt><trkpt lat="36.46158706658149" lon="-5.379243452219685"><ele>98.0</ele><time>2026-04-25T12:57:20Z</time></trkpt><trkpt lat="36.461434135499054" lon="-5.37930061519401"><ele>98.0</ele><time>2026-04-25T12:57:21Z</time></trkpt><trkpt lat="36.46127832760556" lon="-5.37936141071989"><ele>98.0</ele><time>2026-04-25T12:57:22Z</time></trkpt><trkpt lat="36.46112584673195" lon="-5.379430050129033"><ele>96.33333333333333</ele><time>2026-04-25T12:57:23Z</time></trkpt><trkpt lat="36.46096847449413" lon="-5.379493673978279"><ele>94.66666666666666</ele><time>2026-04-25T12:57:24Z</time></trkpt><trkpt lat="36.460807469655784" lon="-5.379546730766994"><ele>93.0</ele><time>2026-04-25T12:57:25Z</time></trkpt><trkpt lat="36.46064074482443" lon="-5.379601234499151"><ele>93.0</ele><time>2026-04-25T12:57:26Z</time></trkpt><trkpt lat="36.46047027767587" lon="-5.379653240527897"><ele>93.0</ele><time>2026-04-25T12:57:27Z</time></trkpt><trkpt lat="36.46030606308154" lon="-5.379701966520732"><ele>93.0</ele><time>2026-04-25T12:57:28Z</time></trkpt><trkpt lat="36.46014410117737" lon="-5.3797623294148025"><ele>93.25</ele><time>2026-04-25T12:57:29Z</time></trkpt><trkpt lat="36.45999067967716" lon="-5.379818108748641"><ele>93.5</ele><time>2026-04-25T12:57:30Z</time></trkpt><trkpt lat="36.459859470172574" lon="-5.379868355493903"><ele>93.75</ele><time>2026-04-25T12:57:31Z</time></trkpt><trkpt lat="36.45973718260477" lon="-5.379920102720686"><ele>94.0</ele><time>2026-04-25T12:57:32Z</time></trkpt><trkpt lat="36.459621662876366" lon="-5.379969497751185"><ele>93.5</ele><time>2026-04-25T12:57:33Z</time></trkpt><trkpt lat="36.459512369216164" lon="-5.380061862415916"><ele>93.0</ele><time>2026-04-25T12:57:34Z</time></trkpt><trkpt lat="36.45940419712418" lon="-5.380180336602329"><ele>92.5</ele><time>2026-04-25T12:57:35Z</time></trkpt><trkpt lat="36.45931871357651" lon="-5.380327901877393"><ele>92.0</ele><time>2026-04-25T12:57:36Z</time></trkpt><trkpt lat="36.459235217255724" lon="-5.38047259610863"><ele>94.0</ele><time>2026-04-25T12:57:37Z</time></trkpt><trkpt lat="36.4591406209022" lon="-5.38061078764361"><ele>96.0</ele><time>2026-04-25T12:57:38Z</time></trkpt><trkpt lat="36.45903782943725" lon="-5.380733863497023"><ele>98.0</ele><time>2026-04-25T12:57:39Z</time></trkpt><trkpt lat="36.458934689071356" lon="-5.3808419643446515"><ele>100.0</ele><time>2026-04-25T12:57:40Z</time></trkpt><trkpt lat="36.4588376900936" lon="-5.380934952450326"><ele>98.4</ele><time>2026-04-25T12:57:41Z</time></trkpt><trkpt lat="36.45874768222305" lon="-5.381016734817676"><ele>96.8</ele><time>2026-04-25T12:57:42Z</time></trkpt><trkpt lat="36.458661656163876" lon="-5.3810879458318395"><ele>95.19999999999999</ele><time>2026-04-25T12:57:43Z</time></trkpt><trkpt lat="36.45857694409917" lon="-5.381165516267618"><ele>93.6</ele><time>2026-04-25T12:57:44Z</time></trkpt><trkpt lat="36.45849232843755" lon="-5.381251015430826"><ele>92.0</ele><time>2026-04-25T12:57:45Z</time></trkpt><trkpt lat="36.45842262119426" lon="-5.381337280810913"><ele>93.66666666666667</ele><time>2026-04-25T12:57:46Z</time></trkpt><trkpt lat="36.458370030750885" lon="-5.381433754048368"><ele>95.33333333333334</ele><time>2026-04-25T12:57:47Z</time></trkpt><trkpt lat="36.45833856134868" lon="-5.38150285280756"><ele>97.0</ele><time>2026-04-25T12:57:48Z</time></trkpt><trkpt lat="36.45828114456364" lon="-5.381595853371469"><ele>98.66666666666667</ele><time>2026-04-25T12:57:49Z</time></trkpt><trkpt lat="36.45823974493807" lon="-5.381671013729029"><ele>100.33333333333333</ele><time>2026-04-25T12:57:50Z</time></trkpt><trkpt lat="36.458202244329314" lon="-5.381747323654087"><ele>102.0</ele><time>2026-04-25T12:57:51Z</time></trkpt><trkpt lat="36.45814975100951" lon="-5.3818287032236825"><ele>102.0</ele><time>2026-04-25T12:57:52Z</time></trkpt><trkpt lat="36.45810335411013" lon="-5.381896357751102"><ele>102.0</ele><time>2026-04-25T12:57:53Z</time></trkpt><trkpt lat="36.458037822291885" lon="-5.381997181880945"><ele>102.0</ele><time>2026-04-25T12:57:55Z</time></trkpt><trkpt lat="36.45798000020733" lon="-5.382065421895701"><ele>102.0</ele><time>2026-04-25T12:57:58Z</time></trkpt><trkpt lat="36.457927496844576" lon="-5.382130477546571"><ele>102.0</ele><time>2026-04-25T12:58:01.999Z</time></trkpt><trkpt lat="36.45786313722873" lon="-5.382201749229586"><ele>102.0</ele><time>2026-04-25T12:58:05.999Z</time></trkpt><trkpt lat="36.45782144550106" lon="-5.3822786790572605"><ele>101.71428571428572</ele><time>2026-04-25T12:58:07.999Z</time></trkpt><trkpt lat="36.45777671513018" lon="-5.382334593357749"><ele>101.42857142857143</ele><time>2026-04-25T12:58:09.999Z</time></trkpt><trkpt lat="36.457716883204306" lon="-5.382387563793564"><ele>101.14285714285714</ele><time>2026-04-25T12:58:11.999Z</time></trkpt><trkpt lat="36.45766200374571" lon="-5.382437035258874"><ele>100.85714285714286</ele><time>2026-04-25T12:58:13.999Z</time></trkpt><trkpt lat="36.45760431025406" lon="-5.38249766349063"><ele>100.57142857142857</ele><time>2026-04-25T12:58:15.999Z</time></trkpt><trkpt lat="36.4575299233919" lon="-5.382576114494225"><ele>100.28571428571429</ele><time>2026-04-25T12:58:17.999Z</time></trkpt><trkpt lat="36.45747901027859" lon="-5.382623131658243"><ele>100.0</ele><time>2026-04-25T12:58:18.999Z</time></trkpt><trkpt lat="36.4574245868217" lon="-5.382671806829886"><ele>100.00000000000001</ele><time>2026-04-25T12:58:19.999Z</time></trkpt><trkpt lat="36.45735395439005" lon="-5.382723368274528"><ele>100.0</ele><time>2026-04-25T12:58:20.999Z</time></trkpt><trkpt lat="36.45728280617825" lon="-5.3827695286120525"><ele>100.0</ele><time>2026-04-25T12:58:21.999Z</time></trkpt><trkpt lat="36.45717384401478" lon="-5.382841167798488"><ele>100.0</ele><time>2026-04-25T12:58:23.999Z</time></trkpt><trkpt lat="36.457111385049714" lon="-5.382890702545294"><ele>100.00000000000001</ele><time>2026-04-25T12:58:24.999Z</time></trkpt><trkpt lat="36.45704400459339" lon="-5.382940160697621"><ele>100.0</ele><time>2026-04-25T12:58:25.999Z</time></trkpt><trkpt lat="36.45698141043327" lon="-5.382976726825213"><ele>99.6</ele><time>2026-04-25T12:58:26.999Z</time></trkpt><trkpt lat="36.456916171040966" lon="-5.383008014558357"><ele>99.2</ele><time>2026-04-25T12:58:27.999Z</time></trkpt><trkpt lat="36.45684859025862" lon="-5.3830481214770325"><ele>98.80000000000001</ele><time>2026-04-25T12:58:28.999Z</time></trkpt><trkpt lat="36.45674493843132" lon="-5.383078791616668"><ele>98.4</ele><time>2026-04-25T12:58:30.999Z</time></trkpt><trkpt lat="36.45667129668175" lon="-5.3830928203947686"><ele>98.0</ele><time>2026-04-25T12:58:31.999Z</time></trkpt><trkpt lat="36.45653869586575" lon="-5.383116988457994"><ele>97.4</ele><time>2026-04-25T12:58:33.999Z</time></trkpt><trkpt lat="36.4564685477549" lon="-5.383122098114704"><ele>96.80000000000001</ele><time>2026-04-25T12:58:34.999Z</time></trkpt><trkpt lat="36.456401663396754" lon="-5.383121701936359"><ele>96.2</ele><time>2026-04-25T12:58:35.999Z</time></trkpt><trkpt lat="36.456278779460106" lon="-5.383115942223268"><ele>95.6</ele><time>2026-04-25T12:58:37.999Z</time></trkpt><trkpt lat="36.456142498476495" lon="-5.383105405820393"><ele>95.0</ele><time>2026-04-25T12:58:39.999Z</time></trkpt><trkpt lat="36.45607536356053" lon="-5.383097021479248"><ele>95.0</ele><time>2026-04-25T12:58:40.999Z</time></trkpt><trkpt lat="36.455961926648236" lon="-5.383094050448907"><ele>95.0</ele><time>2026-04-25T12:58:42.999Z</time></trkpt><trkpt lat="36.455895455555556" lon="-5.383084020374089"><ele>95.0</ele><time>2026-04-25T12:58:43.999Z</time></trkpt><trkpt lat="36.45579671145384" lon="-5.38307479718305"><ele>95.0</ele><time>2026-04-25T12:58:45.999Z</time></trkpt><trkpt lat="36.45571350478281" lon="-5.383068607241951"><ele>95.0</ele><time>2026-04-25T12:58:47.999Z</time></trkpt><trkpt lat="36.45560131184186" lon="-5.383050805899181"><ele>95.0</ele><time>2026-04-25T12:58:49.999Z</time></trkpt><trkpt lat="36.45553325203582" lon="-5.383039803080691"><ele>95.0</ele><time>2026-04-25T12:58:50.999Z</time></trkpt><trkpt lat="36.455410263308664" lon="-5.3830299071739605"><ele>95.0</ele><time>2026-04-25T12:58:52.999Z</time></trkpt><trkpt lat="36.45534034774099" lon="-5.383037405557631"><ele>95.0</ele><time>2026-04-25T12:58:53.999Z</time></trkpt><trkpt lat="36.45527479602166" lon="-5.383042363066195"><ele>95.0</ele><time>2026-04-25T12:58:54.999Z</time></trkpt><trkpt lat="36.45521074915059" lon="-5.383050859617574"><ele>95.0</ele><time>2026-04-25T12:58:55.999Z</time></trkpt><trkpt lat="36.455093996474005" lon="-5.383067887939507"><ele>94.8</ele><time>2026-04-25T12:58:57.999Z</time></trkpt><trkpt lat="36.45500376100019" lon="-5.383092810009365"><ele>94.6</ele><time>2026-04-25T12:58:59.999Z</time></trkpt><trkpt lat="36.454917382718705" lon="-5.383131370923439"><ele>94.4</ele><time>2026-04-25T12:59:01.999Z</time></trkpt><trkpt lat="36.45481564638485" lon="-5.38316261144443"><ele>94.2</ele><time>2026-04-25T12:59:03.999Z</time></trkpt><trkpt lat="36.45470431777857" lon="-5.383206059421906"><ele>94.0</ele><time>2026-04-25T12:59:05.999Z</time></trkpt><trkpt lat="36.45458821423138" lon="-5.383237365308429"><ele>94.0</ele><time>2026-04-25T12:59:07.999Z</time></trkpt><trkpt lat="36.454472381305216" lon="-5.383228490055997"><ele>94.0</ele><time>2026-04-25T12:59:09.999Z</time></trkpt><trkpt lat="36.454356060508154" lon="-5.383194636280471"><ele>94.0</ele><time>2026-04-25T12:59:11.999Z</time></trkpt><trkpt lat="36.45424706983062" lon="-5.383173016613736"><ele>94.0</ele><time>2026-04-25T12:59:13.999Z</time></trkpt><trkpt lat="36.454129976356164" lon="-5.383135194913196"><ele>94.0</ele><time>2026-04-25T12:59:15.999Z</time></trkpt><trkpt lat="36.454018123656454" lon="-5.3831149249975265"><ele>94.0</ele><time>2026-04-25T12:59:17.999Z</time></trkpt><trkpt lat="36.45395488690101" lon="-5.383103013451401"><ele>94.0</ele><time>2026-04-25T12:59:18.999Z</time></trkpt><trkpt lat="36.45388273803678" lon="-5.3830898759771655"><ele>94.0</ele><time>2026-04-25T12:59:19.998Z</time></trkpt><trkpt lat="36.45376929748633" lon="-5.383066086273595"><ele>94.0</ele><time>2026-04-25T12:59:21.998Z</time></trkpt><trkpt lat="36.453633738604275" lon="-5.383061638792549"><ele>94.66666666666666</ele><time>2026-04-25T12:59:24Z</time></trkpt><trkpt lat="36.45355308581612" lon="-5.3830563038489325"><ele>95.33333333333333</ele><time>2026-04-25T12:59:25Z</time></trkpt><trkpt lat="36.45347060083703" lon="-5.383052713510241"><ele>96.0</ele><time>2026-04-25T12:59:26Z</time></trkpt><trkpt lat="36.45339927775133" lon="-5.383049054015276"><ele>96.66666666666666</ele><time>2026-04-25T12:59:27Z</time></trkpt><trkpt lat="36.45332223643074" lon="-5.383046261822346"><ele>97.33333333333333</ele><time>2026-04-25T12:59:28Z</time></trkpt><trkpt lat="36.45323568790774" lon="-5.383047976631983"><ele>98.0</ele><time>2026-04-25T12:59:29Z</time></trkpt><trkpt lat="36.45314736672673" lon="-5.383045284139053"><ele>98.0</ele><time>2026-04-25T12:59:30Z</time></trkpt><trkpt lat="36.45305771873323" lon="-5.383035588265484"><ele>98.0</ele><time>2026-04-25T12:59:31Z</time></trkpt><trkpt lat="36.452973254656015" lon="-5.3830327996004605"><ele>98.0</ele><time>2026-04-25T12:59:32Z</time></trkpt><trkpt lat="36.452877996114836" lon="-5.3830107707390145"><ele>98.0</ele><time>2026-04-25T12:59:33Z</time></trkpt><trkpt lat="36.452783679170835" lon="-5.382988959684323"><ele>98.0</ele><time>2026-04-25T12:59:34Z</time></trkpt><trkpt lat="36.4526871535946" lon="-5.382976525711426"><ele>96.16666666666666</ele><time>2026-04-25T12:59:35Z</time></trkpt><trkpt lat="36.45258617172676" lon="-5.38297139218861"><ele>94.33333333333333</ele><time>2026-04-25T12:59:36Z</time></trkpt><trkpt lat="36.45250094925851" lon="-5.382964425302924"><ele>92.5</ele><time>2026-04-25T12:59:37Z</time></trkpt><trkpt lat="36.45241898893643" lon="-5.382953150119107"><ele>90.66666666666666</ele><time>2026-04-25T12:59:38Z</time></trkpt><trkpt lat="36.452337820712806" lon="-5.382938722163113"><ele>88.83333333333333</ele><time>2026-04-25T12:59:39Z</time></trkpt><trkpt lat="36.45226259239972" lon="-5.3829416738584674"><ele>87.0</ele><time>2026-04-25T12:59:40Z</time></trkpt><trkpt lat="36.45218493125858" lon="-5.382956023082823"><ele>86.6</ele><time>2026-04-25T12:59:41Z</time></trkpt><trkpt lat="36.45211134834993" lon="-5.3829775700053935"><ele>86.19999999999999</ele><time>2026-04-25T12:59:42Z</time></trkpt><trkpt lat="36.452047537907774" lon="-5.383008560379141"><ele>85.8</ele><time>2026-04-25T12:59:43Z</time></trkpt><trkpt lat="36.45194265233798" lon="-5.383083074163661"><ele>85.4</ele><time>2026-04-25T12:59:45Z</time></trkpt><trkpt lat="36.451861656887054" lon="-5.383152765219141"><ele>85.0</ele><time>2026-04-25T12:59:47Z</time></trkpt><trkpt lat="36.45177353447384" lon="-5.383250568150359"><ele>85.0</ele><time>2026-04-25T12:59:49Z</time></trkpt><trkpt lat="36.45171781594543" lon="-5.3833470158325945"><ele>85.0</ele><time>2026-04-25T12:59:50Z</time></trkpt><trkpt lat="36.451637598375406" lon="-5.383473859613476"><ele>85.0</ele><time>2026-04-25T12:59:51Z</time></trkpt><trkpt lat="36.45155989693751" lon="-5.383612478285584"><ele>85.0</ele><time>2026-04-25T12:59:52Z</time></trkpt><trkpt lat="36.451470664234755" lon="-5.383770175831306"><ele>87.0</ele><time>2026-04-25T12:59:53Z</time></trkpt><trkpt lat="36.45137654363468" lon="-5.383932493072054"><ele>89.0</ele><time>2026-04-25T12:59:54Z</time></trkpt><trkpt lat="36.45128529013786" lon="-5.384082767833544"><ele>91.0</ele><time>2026-04-25T12:59:55Z</time></trkpt><trkpt lat="36.45119888387629" lon="-5.384226725490252"><ele>89.25</ele><time>2026-04-25T12:59:56Z</time></trkpt><trkpt lat="36.45111567427935" lon="-5.384366314020933"><ele>87.5</ele><time>2026-04-25T12:59:57Z</time></trkpt><trkpt lat="36.451034624562816" lon="-5.384502688604066"><ele>85.75</ele><time>2026-04-25T12:59:58Z</time></trkpt><trkpt lat="36.45095559091874" lon="-5.384632489764498"><ele>84.0</ele><time>2026-04-25T12:59:59Z</time></trkpt><trkpt lat="36.45087630704117" lon="-5.38475791655825"><ele>84.0</ele><time>2026-04-25T13:00:00Z</time></trkpt><trkpt lat="36.45079712201986" lon="-5.384876662031348"><ele>84.0</ele><time>2026-04-25T13:00:01Z</time></trkpt><trkpt lat="36.45071697797181" lon="-5.384982867298625"><ele>84.0</ele><time>2026-04-25T13:00:02Z</time></trkpt><trkpt lat="36.450629950867906" lon="-5.385079810473953"><ele>84.0</ele><time>2026-04-25T13:00:03Z</time></trkpt><trkpt lat="36.45053141921044" lon="-5.385166174087249"><ele>81.0</ele><time>2026-04-25T13:00:04Z</time></trkpt><trkpt lat="36.45042003100853" lon="-5.3852385529335836"><ele>78.0</ele><time>2026-04-25T13:00:05Z</time></trkpt><trkpt lat="36.45030362204276" lon="-5.385309422243659"><ele>75.0</ele><time>2026-04-25T13:00:06Z</time></trkpt><trkpt lat="36.450189339172525" lon="-5.385378298313438"><ele>72.0</ele><time>2026-04-25T13:00:07Z</time></trkpt><trkpt lat="36.450084179310984" lon="-5.385441128999698"><ele>72.0</ele><time>2026-04-25T13:00:08Z</time></trkpt><trkpt lat="36.44998747237654" lon="-5.385525340647132"><ele>72.0</ele><time>2026-04-25T13:00:09Z</time></trkpt><trkpt lat="36.44988314854641" lon="-5.3855586915663425"><ele>72.0</ele><time>2026-04-25T13:00:10Z</time></trkpt><trkpt lat="36.44976470037023" lon="-5.3855478308926585"><ele>72.0</ele><time>2026-04-25T13:00:11Z</time></trkpt><trkpt lat="36.44962229615378" lon="-5.385507531326166"><ele>70.0</ele><time>2026-04-25T13:00:12Z</time></trkpt><trkpt lat="36.44945523723547" lon="-5.3854666287284845"><ele>68.0</ele><time>2026-04-25T13:00:13Z</time></trkpt><trkpt lat="36.44927490006518" lon="-5.385433885179105"><ele>66.0</ele><time>2026-04-25T13:00:13.999Z</time></trkpt><trkpt lat="36.449097954259166" lon="-5.385399454783289"><ele>66.0</ele><time>2026-04-25T13:00:14.999Z</time></trkpt><trkpt lat="36.44893234197486" lon="-5.385374968090509"><ele>66.0</ele><time>2026-04-25T13:00:15.999Z</time></trkpt><trkpt lat="36.44878655643541" lon="-5.3853525549235535"><ele>66.0</ele><time>2026-04-25T13:00:16.999Z</time></trkpt><trkpt lat="36.44865723838127" lon="-5.385343517114197"><ele>66.0</ele><time>2026-04-25T13:00:17.999Z</time></trkpt><trkpt lat="36.448537584138826" lon="-5.385364410607205"><ele>65.75</ele><time>2026-04-25T13:00:18.999Z</time></trkpt><trkpt lat="36.44843972096655" lon="-5.3854253122458875"><ele>65.5</ele><time>2026-04-25T13:00:19.999Z</time></trkpt><trkpt lat="36.44835589572265" lon="-5.385529093076264"><ele>65.25</ele><time>2026-04-25T13:00:20.999Z</time></trkpt><trkpt lat="36.448279913038455" lon="-5.385658319648501"><ele>65.0</ele><time>2026-04-25T13:00:21.999Z</time></trkpt><trkpt lat="36.4482124890669" lon="-5.385791651165299"><ele>65.0</ele><time>2026-04-25T13:00:22.999Z</time></trkpt><trkpt lat="36.44813612009815" lon="-5.385936876123417"><ele>65.0</ele><time>2026-04-25T13:00:23.999Z</time></trkpt><trkpt lat="36.44803977237585" lon="-5.386094333632746"><ele>65.0</ele><time>2026-04-25T13:00:24.999Z</time></trkpt><trkpt lat="36.44794003040741" lon="-5.386259052072367"><ele>64.33333333333334</ele><time>2026-04-25T13:00:25.999Z</time></trkpt><trkpt lat="36.44783697534181" lon="-5.386435779005816"><ele>63.66666666666667</ele><time>2026-04-25T13:00:26.999Z</time></trkpt><trkpt lat="36.44773859031795" lon="-5.386606985544103"><ele>63.0</ele><time>2026-04-25T13:00:27.999Z</time></trkpt><trkpt lat="36.44763985552233" lon="-5.386784668303327"><ele>63.0</ele><time>2026-04-25T13:00:28.999Z</time></trkpt><trkpt lat="36.44755042829448" lon="-5.386950196937994"><ele>63.0</ele><time>2026-04-25T13:00:29.999Z</time></trkpt><trkpt lat="36.44746538750695" lon="-5.387106058409711"><ele>63.0</ele><time>2026-04-25T13:00:30.999Z</time></trkpt><trkpt lat="36.4473829057529" lon="-5.387237354630805"><ele>63.0</ele><time>2026-04-25T13:00:31.999Z</time></trkpt><trkpt lat="36.44728621958502" lon="-5.3873415963984534"><ele>63.0</ele><time>2026-04-25T13:00:32.999Z</time></trkpt><trkpt lat="36.447186071755226" lon="-5.387421629999009"><ele>63.0</ele><time>2026-04-25T13:00:33.999Z</time></trkpt><trkpt lat="36.4470756203999" lon="-5.387463837931565"><ele>63.0</ele><time>2026-04-25T13:00:34.999Z</time></trkpt><trkpt lat="36.446944950447424" lon="-5.387478011694741"><ele>63.0</ele><time>2026-04-25T13:00:35.999Z</time></trkpt><trkpt lat="36.4468100444618" lon="-5.387474010717947"><ele>62.25</ele><time>2026-04-25T13:00:36.999Z</time></trkpt><trkpt lat="36.446683265998715" lon="-5.387476686664494"><ele>61.5</ele><time>2026-04-25T13:00:37.999Z</time></trkpt><trkpt lat="36.446561007855934" lon="-5.387494179420695"><ele>60.75</ele><time>2026-04-25T13:00:38.999Z</time></trkpt><trkpt lat="36.446458444865314" lon="-5.387554438286518"><ele>60.0</ele><time>2026-04-25T13:00:39.999Z</time></trkpt><trkpt lat="36.4463699673971" lon="-5.3876480116602234"><ele>60.0</ele><time>2026-04-25T13:00:40.999Z</time></trkpt><trkpt lat="36.4462839131548" lon="-5.387737299519333"><ele>60.0</ele><time>2026-04-25T13:00:41.999Z</time></trkpt><trkpt lat="36.44619936578319" lon="-5.387822237006228"><ele>60.0</ele><time>2026-04-25T13:00:42.999Z</time></trkpt><trkpt lat="36.44611151859983" lon="-5.387928049986509"><ele>60.0</ele><time>2026-04-25T13:00:43.999Z</time></trkpt><trkpt lat="36.44601478456094" lon="-5.388052189682371"><ele>59.33333333333333</ele><time>2026-04-25T13:00:44.999Z</time></trkpt><trkpt lat="36.445918476463476" lon="-5.388192837732455"><ele>58.666666666666664</ele><time>2026-04-25T13:00:45.999Z</time></trkpt><trkpt lat="36.44581232718236" lon="-5.388341522983196"><ele>58.0</ele><time>2026-04-25T13:00:46.999Z</time></trkpt><trkpt lat="36.445708710188775" lon="-5.388489657890801"><ele>58.0</ele><time>2026-04-25T13:00:47.999Z</time></trkpt><trkpt lat="36.44560939876281" lon="-5.388635830103657"><ele>58.0</ele><time>2026-04-25T13:00:48.999Z</time></trkpt><trkpt lat="36.445523824989564" lon="-5.388784973330284"><ele>58.0</ele><time>2026-04-25T13:00:49.999Z</time></trkpt><trkpt lat="36.445454930612144" lon="-5.3889106340995445"><ele>58.0</ele><time>2026-04-25T13:00:50.999Z</time></trkpt><trkpt lat="36.44537340082755" lon="-5.389014722902739"><ele>57.75</ele><time>2026-04-25T13:00:51.999Z</time></trkpt><trkpt lat="36.44526679355985" lon="-5.389094765885244"><ele>57.5</ele><time>2026-04-25T13:00:52.999Z</time></trkpt><trkpt lat="36.44515653328967" lon="-5.389166299785824"><ele>57.25</ele><time>2026-04-25T13:00:53.999Z</time></trkpt><trkpt lat="36.4450324703655" lon="-5.389211635315653"><ele>57.0</ele><time>2026-04-25T13:00:54.999Z</time></trkpt><trkpt lat="36.44488355545959" lon="-5.389230761330655"><ele>57.0</ele><time>2026-04-25T13:00:55.999Z</time></trkpt><trkpt lat="36.44472113958414" lon="-5.389260138171469"><ele>57.0</ele><time>2026-04-25T13:00:56.999Z</time></trkpt><trkpt lat="36.444569030829115" lon="-5.389304466836582"><ele>57.0</ele><time>2026-04-25T13:00:57.999Z</time></trkpt><trkpt lat="36.44442961875506" lon="-5.389345810531197"><ele>56.5</ele><time>2026-04-25T13:00:58.999Z</time></trkpt><trkpt lat="36.44429741099877" lon="-5.389375456103147"><ele>56.0</ele><time>2026-04-25T13:00:59.999Z</time></trkpt><trkpt lat="36.444166677961334" lon="-5.3894037082133925"><ele>55.5</ele><time>2026-04-25T13:01:00.999Z</time></trkpt><trkpt lat="36.44404953904771" lon="-5.389448212013978"><ele>55.0</ele><time>2026-04-25T13:01:01.999Z</time></trkpt><trkpt lat="36.44392707140559" lon="-5.3895181506639"><ele>55.0</ele><time>2026-04-25T13:01:02.999Z</time></trkpt><trkpt lat="36.44382134381832" lon="-5.389614697682758"><ele>55.0</ele><time>2026-04-25T13:01:03.999Z</time></trkpt><trkpt lat="36.44372836024887" lon="-5.389708859451262"><ele>55.0</ele><time>2026-04-25T13:01:04.999Z</time></trkpt><trkpt lat="36.44363483336357" lon="-5.389768521427226"><ele>55.0</ele><time>2026-04-25T13:01:05.999Z</time></trkpt><trkpt lat="36.44351797435731" lon="-5.389795152313983"><ele>55.0</ele><time>2026-04-25T13:01:06.999Z</time></trkpt><trkpt lat="36.44340345563867" lon="-5.389792251330275"><ele>55.0</ele><time>2026-04-25T13:01:07.999Z</time></trkpt><trkpt lat="36.443267671793954" lon="-5.389739130451848"><ele>55.0</ele><time>2026-04-25T13:01:08.999Z</time></trkpt><trkpt lat="36.44310981690562" lon="-5.389699403739453"><ele>55.0</ele><time>2026-04-25T13:01:09.999Z</time></trkpt><trkpt lat="36.442949257597085" lon="-5.389681500177067"><ele>55.33333333333333</ele><time>2026-04-25T13:01:10.999Z</time></trkpt><trkpt lat="36.44278698881095" lon="-5.389682762240869"><ele>55.66666666666667</ele><time>2026-04-25T13:01:11.999Z</time></trkpt><trkpt lat="36.44262956868202" lon="-5.3896804442000645"><ele>56.0</ele><time>2026-04-25T13:01:12.999Z</time></trkpt><trkpt lat="36.44249152773102" lon="-5.38966758576064"><ele>55.5</ele><time>2026-04-25T13:01:13.999Z</time></trkpt><trkpt lat="36.44236550506823" lon="-5.38964980267303"><ele>55.0</ele><time>2026-04-25T13:01:14.999Z</time></trkpt><trkpt lat="36.44224811636455" lon="-5.389639702553502"><ele>54.5</ele><time>2026-04-25T13:01:15.999Z</time></trkpt><trkpt lat="36.44214073526767" lon="-5.389668605235435"><ele>54.0</ele><time>2026-04-25T13:01:16.999Z</time></trkpt><trkpt lat="36.442033787476895" lon="-5.389733985585407"><ele>53.5</ele><time>2026-04-25T13:01:17.999Z</time></trkpt><trkpt lat="36.44194019647698" lon="-5.389839205612785"><ele>53.0</ele><time>2026-04-25T13:01:18.999Z</time></trkpt><trkpt lat="36.4418491635861" lon="-5.38996375303397"><ele>52.5</ele><time>2026-04-25T13:01:19.999Z</time></trkpt><trkpt lat="36.44175850686361" lon="-5.390102831885433"><ele>52.0</ele><time>2026-04-25T13:01:20.999Z</time></trkpt><trkpt lat="36.44165498857542" lon="-5.3902409101423245"><ele>52.0</ele><time>2026-04-25T13:01:21.999Z</time></trkpt><trkpt lat="36.441550350396376" lon="-5.390393940905376"><ele>52.0</ele><time>2026-04-25T13:01:22.999Z</time></trkpt><trkpt lat="36.44145455263539" lon="-5.390532201450422"><ele>52.0</ele><time>2026-04-25T13:01:23.999Z</time></trkpt><trkpt lat="36.441354406787376" lon="-5.390651213984418"><ele>52.0</ele><time>2026-04-25T13:01:24.999Z</time></trkpt><trkpt lat="36.441274758993636" lon="-5.3907858208384285"><ele>51.75</ele><time>2026-04-25T13:01:25.999Z</time></trkpt><trkpt lat="36.44119085798018" lon="-5.390916995357452"><ele>51.5</ele><time>2026-04-25T13:01:26.999Z</time></trkpt><trkpt lat="36.44111022353593" lon="-5.391035505379405"><ele>51.25</ele><time>2026-04-25T13:01:27.999Z</time></trkpt><trkpt lat="36.44101627672318" lon="-5.391139530011686"><ele>51.0</ele><time>2026-04-25T13:01:29Z</time></trkpt><trkpt lat="36.44090416503015" lon="-5.391224978925102"><ele>51.0</ele><time>2026-04-25T13:01:30Z</time></trkpt><trkpt lat="36.44077183553707" lon="-5.391291065594204"><ele>51.0</ele><time>2026-04-25T13:01:31Z</time></trkpt><trkpt lat="36.44062207322335" lon="-5.391332041675066"><ele>51.0</ele><time>2026-04-25T13:01:32Z</time></trkpt><trkpt lat="36.44046427022919" lon="-5.391371475371321"><ele>51.66666666666667</ele><time>2026-04-25T13:01:33Z</time></trkpt><trkpt lat="36.44029811855979" lon="-5.391420079759993"><ele>52.333333333333336</ele><time>2026-04-25T13:01:34Z</time></trkpt><trkpt lat="36.440134477044516" lon="-5.391468235953631"><ele>53.0</ele><time>2026-04-25T13:01:35Z</time></trkpt><trkpt lat="36.439967819141344" lon="-5.391524382479991"><ele>53.0</ele><time>2026-04-25T13:01:36Z</time></trkpt><trkpt lat="36.439801697417664" lon="-5.3915744319507635"><ele>53.0</ele><time>2026-04-25T13:01:37Z</time></trkpt><trkpt lat="36.43963867069224" lon="-5.391622574639804"><ele>53.0</ele><time>2026-04-25T13:01:38Z</time></trkpt><trkpt lat="36.43948926408504" lon="-5.391664929904236"><ele>52.2</ele><time>2026-04-25T13:01:39Z</time></trkpt><trkpt lat="36.43934582103491" lon="-5.391705382820428"><ele>51.4</ele><time>2026-04-25T13:01:40Z</time></trkpt><trkpt lat="36.43922073072449" lon="-5.391752243861923"><ele>50.6</ele><time>2026-04-25T13:01:41Z</time></trkpt><trkpt lat="36.43909572761626" lon="-5.391809609666768"><ele>49.800000000000004</ele><time>2026-04-25T13:01:42Z</time></trkpt><trkpt lat="36.43909572761626" lon="-5.391809609666768"><ele>49.0</ele><time>2026-04-25T13:01:42Z</time></trkpt><trkpt lat="36.43876968783862" lon="-5.392027583538673"><ele>49.0</ele><time>2026-04-25T13:01:45Z</time></trkpt><trkpt lat="36.4386497222642" lon="-5.392100147725574"><ele>49.0</ele><time>2026-04-25T13:01:46Z</time></trkpt><trkpt lat="36.43854032014645" lon="-5.392167551083625"><ele>49.0</ele><time>2026-04-25T13:01:47Z</time></trkpt><trkpt lat="36.43843263562544" lon="-5.3922225842851415"><ele>49.0</ele><time>2026-04-25T13:01:48Z</time></trkpt><trkpt lat="36.43833631965893" lon="-5.39228855624659"><ele>49.0</ele><time>2026-04-25T13:01:49Z</time></trkpt><trkpt lat="36.43824980652619" lon="-5.392372059330344"><ele>49.0</ele><time>2026-04-25T13:01:50Z</time></trkpt><trkpt lat="36.438176606688984" lon="-5.3924711088739095"><ele>49.0</ele><time>2026-04-25T13:01:51Z</time></trkpt><trkpt lat="36.43804812131007" lon="-5.392694644936546"><ele>49.0</ele><time>2026-04-25T13:01:53Z</time></trkpt><trkpt lat="36.437981139567206" lon="-5.392811126131057"><ele>49.2</ele><time>2026-04-25T13:01:54Z</time></trkpt><trkpt lat="36.43789203332561" lon="-5.39293525067038"><ele>49.400000000000006</ele><time>2026-04-25T13:01:55Z</time></trkpt><trkpt lat="36.437804387488065" lon="-5.393024434134354"><ele>49.6</ele><time>2026-04-25T13:01:56Z</time></trkpt><trkpt lat="36.437712358636134" lon="-5.393067319474391"><ele>49.8</ele><time>2026-04-25T13:01:57Z</time></trkpt><trkpt lat="36.437621838109905" lon="-5.3930707371419295"><ele>50.0</ele><time>2026-04-25T13:01:58Z</time></trkpt><trkpt lat="36.437509930397404" lon="-5.393033525599625"><ele>49.25</ele><time>2026-04-25T13:01:59Z</time></trkpt><trkpt lat="36.43739194784632" lon="-5.39296406231739"><ele>48.5</ele><time>2026-04-25T13:02:00Z</time></trkpt><trkpt lat="36.43727070592828" lon="-5.392860358037462"><ele>47.75</ele><time>2026-04-25T13:02:01Z</time></trkpt><trkpt lat="36.437145884655315" lon="-5.392760726476263"><ele>47.0</ele><time>2026-04-25T13:02:02Z</time></trkpt><trkpt lat="36.437039232980304" lon="-5.39268014224014"><ele>46.400000000000006</ele><time>2026-04-25T13:02:03Z</time></trkpt><trkpt lat="36.43694540476141" lon="-5.392636789142671"><ele>45.800000000000004</ele><time>2026-04-25T13:02:03.999Z</time></trkpt><trkpt lat="36.43685265094806" lon="-5.392640908791474"><ele>45.2</ele><time>2026-04-25T13:02:04.999Z</time></trkpt><trkpt lat="36.43675390105049" lon="-5.3926573551952535"><ele>44.6</ele><time>2026-04-25T13:02:05.999Z</time></trkpt><trkpt lat="36.43664915804538" lon="-5.392677644748912"><ele>44.0</ele><time>2026-04-25T13:02:06.999Z</time></trkpt><trkpt lat="36.43655896968949" lon="-5.392691180605152"><ele>44.0</ele><time>2026-04-25T13:02:07.999Z</time></trkpt><trkpt lat="36.436458131280666" lon="-5.392680521533744"><ele>44.0</ele><time>2026-04-25T13:02:09.999Z</time></trkpt><trkpt lat="36.43641151985239" lon="-5.392581350803527"><ele>44.0</ele><time>2026-04-25T13:02:11.999Z</time></trkpt><trkpt lat="36.436473521763304" lon="-5.392630162082705"><ele>44.0</ele><time>2026-04-25T13:02:29.999Z</time></trkpt><trkpt lat="36.436543143414966" lon="-5.392602816067005"><ele>44.0</ele><time>2026-04-25T13:02:32.999Z</time></trkpt><trkpt lat="36.43658032269648" lon="-5.392525815496243"><ele>44.0</ele><time>2026-04-25T13:02:34.999Z</time></trkpt><trkpt lat="36.43661929453855" lon="-5.392410087342427"><ele>44.0</ele><time>2026-04-25T13:02:36.999Z</time></trkpt><trkpt lat="36.43661049732353" lon="-5.392282678239453"><ele>44.0</ele><time>2026-04-25T13:02:38.999Z</time></trkpt><trkpt lat="36.4365744873572" lon="-5.3921801237870675"><ele>44.0</ele><time>2026-04-25T13:02:40.999Z</time></trkpt><trkpt lat="36.43660893494849" lon="-5.392077303147967"><ele>44.0</ele><time>2026-04-25T13:02:42.999Z</time></trkpt><trkpt lat="36.43668189347178" lon="-5.392010643888964"><ele>44.0</ele><time>2026-04-25T13:02:44.999Z</time></trkpt><trkpt lat="36.436707347728145" lon="-5.39193663708641"><ele>44.0</ele><time>2026-04-25T13:02:46.999Z</time></trkpt><trkpt lat="36.43671842905818" lon="-5.391805177836322"><ele>44.0</ele><time>2026-04-25T13:02:48.999Z</time></trkpt><trkpt lat="36.43669344666501" lon="-5.391674580090773"><ele>44.0</ele><time>2026-04-25T13:02:50.999Z</time></trkpt><trkpt lat="36.43664949653866" lon="-5.391570779894636"><ele>44.0</ele><time>2026-04-25T13:02:52.999Z</time></trkpt><trkpt lat="36.43660391797197" lon="-5.391498064520414"><ele>44.0</ele><time>2026-04-25T13:02:54.999Z</time></trkpt><trkpt lat="36.43656263397112" lon="-5.391428318890679"><ele>44.0</ele><time>2026-04-25T13:02:56.999Z</time></trkpt><trkpt lat="36.43653696896196" lon="-5.39135682555425"><ele>44.0</ele><time>2026-04-25T13:03:22.999Z</time></trkpt><trkpt lat="36.43649124304386" lon="-5.391287359658902"><ele>44.0</ele><time>2026-04-25T13:03:25.999Z</time></trkpt><trkpt lat="36.43641422790685" lon="-5.391149517745533"><ele>44.0</ele><time>2026-04-25T13:03:27.999Z</time></trkpt><trkpt lat="36.436363769422954" lon="-5.391086171543031"><ele>44.0</ele><time>2026-04-25T13:03:28.999Z</time></trkpt><trkpt lat="36.43630719907332" lon="-5.391019361518414"><ele>44.0</ele><time>2026-04-25T13:03:29.999Z</time></trkpt><trkpt lat="36.43624883347847" lon="-5.390951063019169"><ele>44.0</ele><time>2026-04-25T13:03:30.999Z</time></trkpt><trkpt lat="36.436179771666126" lon="-5.3908938929933035"><ele>44.0</ele><time>2026-04-25T13:03:31.999Z</time></trkpt><trkpt lat="36.43609985769291" lon="-5.390854012749533"><ele>44.75</ele><time>2026-04-25T13:03:32.999Z</time></trkpt><trkpt lat="36.436039797584634" lon="-5.390792284024168"><ele>45.5</ele><time>2026-04-25T13:03:33.999Z</time></trkpt><trkpt lat="36.43599533747039" lon="-5.3906942990661015"><ele>46.25</ele><time>2026-04-25T13:03:35.997Z</time></trkpt><trkpt lat="36.436194898666535" lon="-5.3908779642735825"><ele>47.0</ele><time>2026-04-25T13:04:01.998Z</time></trkpt><trkpt lat="36.436294748840126" lon="-5.3909749609951865"><ele>46.57142857142857</ele><time>2026-04-25T13:04:03.999Z</time></trkpt><trkpt lat="36.43634583166798" lon="-5.391027683716983"><ele>46.14285714285714</ele><time>2026-04-25T13:04:04.999Z</time></trkpt><trkpt lat="36.436395642232206" lon="-5.391085974804335"><ele>45.714285714285715</ele><time>2026-04-25T13:04:05.999Z</time></trkpt><trkpt lat="36.436449633789344" lon="-5.3911794421706025"><ele>45.285714285714285</ele><time>2026-04-25T13:04:06.999Z</time></trkpt><trkpt lat="36.43648525348056" lon="-5.391266006932265"><ele>44.857142857142854</ele><time>2026-04-25T13:04:07.999Z</time></trkpt><trkpt lat="36.4365223566309" lon="-5.39133997384885"><ele>44.42857142857143</ele><time>2026-04-25T13:04:08.999Z</time></trkpt><trkpt lat="36.4365610462674" lon="-5.391411722963267"><ele>44.0</ele><time>2026-04-25T13:04:09.999Z</time></trkpt><trkpt lat="36.43661557839679" lon="-5.391485809079144"><ele>44.0</ele><time>2026-04-25T13:04:10.999Z</time></trkpt><trkpt lat="36.43668327069383" lon="-5.391618028200685"><ele>44.0</ele><time>2026-04-25T13:04:12.999Z</time></trkpt><trkpt lat="36.436704686852345" lon="-5.391758823083266"><ele>44.0</ele><time>2026-04-25T13:04:14.999Z</time></trkpt><trkpt lat="36.436722695083255" lon="-5.391848240479129"><ele>44.0</ele><time>2026-04-25T13:04:16.999Z</time></trkpt><trkpt lat="36.43671240581196" lon="-5.391950820078893"><ele>44.0</ele><time>2026-04-25T13:04:18.999Z</time></trkpt><trkpt lat="36.43669170653908" lon="-5.392044803072711"><ele>44.0</ele><time>2026-04-25T13:04:20.999Z</time></trkpt><trkpt lat="36.436571472355546" lon="-5.392167478477343"><ele>44.0</ele><time>2026-04-25T13:04:22.999Z</time></trkpt><trkpt lat="36.43649771366959" lon="-5.3921997745274055"><ele>44.0</ele><time>2026-04-25T13:04:23.999Z</time></trkpt><trkpt lat="36.43644510021384" lon="-5.392244229842958"><ele>44.0</ele><time>2026-04-25T13:04:24.999Z</time></trkpt><trkpt lat="36.4363507435783" lon="-5.392288898941026"><ele>44.0</ele><time>2026-04-25T13:04:26.999Z</time></trkpt><trkpt lat="36.436261677563444" lon="-5.392171956766301"><ele>44.400000000000006</ele><time>2026-04-25T13:04:58.999Z</time></trkpt><trkpt lat="36.436222810959514" lon="-5.392078497985135"><ele>44.8</ele><time>2026-04-25T13:04:59.999Z</time></trkpt><trkpt lat="36.436179157199746" lon="-5.391983633858102"><ele>45.2</ele><time>2026-04-25T13:05:00.999Z</time></trkpt><trkpt lat="36.436118653793244" lon="-5.391874945009152"><ele>45.599999999999994</ele><time>2026-04-25T13:05:01.999Z</time></trkpt><trkpt lat="36.436046540772985" lon="-5.391771906161973"><ele>46.0</ele><time>2026-04-25T13:05:02.999Z</time></trkpt><trkpt lat="36.435965190076466" lon="-5.391677339156009"><ele>46.0</ele><time>2026-04-25T13:05:03.999Z</time></trkpt><trkpt lat="36.435881391159604" lon="-5.391586374027474"><ele>46.0</ele><time>2026-04-25T13:05:04.999Z</time></trkpt><trkpt lat="36.4358074312155" lon="-5.391518210147995"><ele>46.0</ele><time>2026-04-25T13:05:05.999Z</time></trkpt><trkpt lat="36.435737230954" lon="-5.391463078425987"><ele>46.0</ele><time>2026-04-25T13:05:06.999Z</time></trkpt><trkpt lat="36.43567508793916" lon="-5.391423503706364"><ele>46.0</ele><time>2026-04-25T13:05:07.999Z</time></trkpt><trkpt lat="36.435610452648554" lon="-5.391413301776343"><ele>46.0</ele><time>2026-04-25T13:05:08.999Z</time></trkpt><trkpt lat="36.435535874040795" lon="-5.391448907067942"><ele>45.75</ele><time>2026-04-25T13:05:09.999Z</time></trkpt><trkpt lat="36.435447833700366" lon="-5.391508584571723"><ele>45.5</ele><time>2026-04-25T13:05:10.999Z</time></trkpt><trkpt lat="36.435340216821196" lon="-5.391565005534232"><ele>45.25</ele><time>2026-04-25T13:05:11.999Z</time></trkpt><trkpt lat="36.43522293727217" lon="-5.391621241632851"><ele>45.0</ele><time>2026-04-25T13:05:12.999Z</time></trkpt><trkpt lat="36.435095512118096" lon="-5.391671899055984"><ele>45.0</ele><time>2026-04-25T13:05:13.999Z</time></trkpt><trkpt lat="36.43496532337616" lon="-5.391719385092827"><ele>45.0</ele><time>2026-04-25T13:05:14.999Z</time></trkpt><trkpt lat="36.43483202665734" lon="-5.391769560740999"><ele>45.0</ele><time>2026-04-25T13:05:15.999Z</time></trkpt><trkpt lat="36.43469331427601" lon="-5.391828505864063"><ele>45.0</ele><time>2026-04-25T13:05:16.999Z</time></trkpt><trkpt lat="36.434561337930845" lon="-5.391894056808988"><ele>44.666666666666664</ele><time>2026-04-25T13:05:17.999Z</time></trkpt><trkpt lat="36.434429992386555" lon="-5.391975490337925"><ele>44.33333333333333</ele><time>2026-04-25T13:05:18.999Z</time></trkpt><trkpt lat="36.434300143971996" lon="-5.392085509357714"><ele>44.0</ele><time>2026-04-25T13:05:19.999Z</time></trkpt><trkpt lat="36.43416758922252" lon="-5.392203503662175"><ele>44.0</ele><time>2026-04-25T13:05:20.999Z</time></trkpt><trkpt lat="36.43403651909548" lon="-5.3923314139426815"><ele>44.0</ele><time>2026-04-25T13:05:21.999Z</time></trkpt><trkpt lat="36.43389557330319" lon="-5.3924523968766565"><ele>44.0</ele><time>2026-04-25T13:05:22.999Z</time></trkpt><trkpt lat="36.433779807192174" lon="-5.392585942786574"><ele>43.33333333333333</ele><time>2026-04-25T13:05:23.999Z</time></trkpt><trkpt lat="36.43366421350733" lon="-5.392729224957558"><ele>42.666666666666664</ele><time>2026-04-25T13:05:24.999Z</time></trkpt><trkpt lat="36.43354494279196" lon="-5.39288163289788"><ele>42.0</ele><time>2026-04-25T13:05:25.999Z</time></trkpt><trkpt lat="36.433421982792645" lon="-5.3930401020578405"><ele>42.0</ele><time>2026-04-25T13:05:26.999Z</time></trkpt><trkpt lat="36.433303778715846" lon="-5.3931996203792"><ele>42.0</ele><time>2026-04-25T13:05:27.999Z</time></trkpt><trkpt lat="36.43319083683055" lon="-5.393365132790208"><ele>42.0</ele><time>2026-04-25T13:05:28.999Z</time></trkpt><trkpt lat="36.433088991225766" lon="-5.3935266589792015"><ele>42.0</ele><time>2026-04-25T13:05:29.999Z</time></trkpt><trkpt lat="36.432998233524415" lon="-5.393678875417455"><ele>42.0</ele><time>2026-04-25T13:05:30.999Z</time></trkpt><trkpt lat="36.43289771488847" lon="-5.393828183294991"><ele>42.0</ele><time>2026-04-25T13:05:31.999Z</time></trkpt><trkpt lat="36.43278355778178" lon="-5.39397648815757"><ele>41.5</ele><time>2026-04-25T13:05:32.999Z</time></trkpt><trkpt lat="36.432670665559115" lon="-5.394117464165876"><ele>41.0</ele><time>2026-04-25T13:05:33.999Z</time></trkpt><trkpt lat="36.43256280582449" lon="-5.394243985057057"><ele>40.5</ele><time>2026-04-25T13:05:34.999Z</time></trkpt><trkpt lat="36.43245546827254" lon="-5.394356469289246"><ele>40.0</ele><time>2026-04-25T13:05:35.999Z</time></trkpt><trkpt lat="36.432335184541145" lon="-5.394462844641834"><ele>40.0</ele><time>2026-04-25T13:05:36.999Z</time></trkpt><trkpt lat="36.43216715969518" lon="-5.394519919542184"><ele>40.0</ele><time>2026-04-25T13:05:37.999Z</time></trkpt><trkpt lat="36.43200474382795" lon="-5.394605739893346"><ele>40.0</ele><time>2026-04-25T13:05:38.999Z</time></trkpt><trkpt lat="36.431828225238064" lon="-5.3946458487447515"><ele>39.0</ele><time>2026-04-25T13:05:39.999Z</time></trkpt><trkpt lat="36.43165210574422" lon="-5.394722193491005"><ele>38.0</ele><time>2026-04-25T13:05:40.999Z</time></trkpt><trkpt lat="36.43146445494563" lon="-5.394771041150679"><ele>37.0</ele><time>2026-04-25T13:05:41.999Z</time></trkpt><trkpt lat="36.43127073647697" lon="-5.394790217867194"><ele>36.66666666666667</ele><time>2026-04-25T13:05:42.999Z</time></trkpt><trkpt lat="36.431077471048205" lon="-5.394794631049715"><ele>36.333333333333336</ele><time>2026-04-25T13:05:43.999Z</time></trkpt><trkpt lat="36.4308858284577" lon="-5.394793995798122"><ele>36.0</ele><time>2026-04-25T13:05:44.999Z</time></trkpt><trkpt lat="36.43069133871148" lon="-5.394791416534478"><ele>36.0</ele><time>2026-04-25T13:05:45.999Z</time></trkpt><trkpt lat="36.43049708738324" lon="-5.394786842983892"><ele>36.0</ele><time>2026-04-25T13:05:46.999Z</time></trkpt><trkpt lat="36.43029817400756" lon="-5.394781278387081"><ele>36.0</ele><time>2026-04-25T13:05:47.999Z</time></trkpt><trkpt lat="36.430096561810146" lon="-5.394756924307001"><ele>35.666666666666664</ele><time>2026-04-25T13:05:48.999Z</time></trkpt><trkpt lat="36.42989283544573" lon="-5.394773146419272"><ele>35.33333333333333</ele><time>2026-04-25T13:05:50Z</time></trkpt><trkpt lat="36.42968838920078" lon="-5.394767110058893"><ele>35.0</ele><time>2026-04-25T13:05:51Z</time></trkpt><trkpt lat="36.42948461537551" lon="-5.394760328807585"><ele>34.666666666666664</ele><time>2026-04-25T13:05:52Z</time></trkpt><trkpt lat="36.429279276263266" lon="-5.394756066061496"><ele>34.333333333333336</ele><time>2026-04-25T13:05:53Z</time></trkpt><trkpt lat="36.429075346473546" lon="-5.394737198030282"><ele>34.0</ele><time>2026-04-25T13:05:54Z</time></trkpt><trkpt lat="36.428871108973524" lon="-5.394756249911211"><ele>33.66666666666667</ele><time>2026-04-25T13:05:55Z</time></trkpt><trkpt lat="36.428667604186494" lon="-5.394785097924044"><ele>33.333333333333336</ele><time>2026-04-25T13:05:56Z</time></trkpt><trkpt lat="36.42846800087039" lon="-5.39483505904031"><ele>33.0</ele><time>2026-04-25T13:05:57Z</time></trkpt><trkpt lat="36.42826470068023" lon="-5.394864820784555"><ele>33.0</ele><time>2026-04-25T13:05:58Z</time></trkpt><trkpt lat="36.42805562046732" lon="-5.3949055696320505"><ele>33.0</ele><time>2026-04-25T13:05:59Z</time></trkpt><trkpt lat="36.42784524737168" lon="-5.3949604872553705"><ele>33.0</ele><time>2026-04-25T13:06:00Z</time></trkpt><trkpt lat="36.427629535346185" lon="-5.395009163552684"><ele>33.0</ele><time>2026-04-25T13:06:01Z</time></trkpt><trkpt lat="36.42742311534744" lon="-5.395109814846364"><ele>33.0</ele><time>2026-04-25T13:06:02Z</time></trkpt><trkpt lat="36.42721369296343" lon="-5.395173806672419"><ele>33.0</ele><time>2026-04-25T13:06:03Z</time></trkpt><trkpt lat="36.4270059573274" lon="-5.395258105989881"><ele>33.0</ele><time>2026-04-25T13:06:04Z</time></trkpt><trkpt lat="36.4268017855543" lon="-5.395360978525072"><ele>33.0</ele><time>2026-04-25T13:06:05Z</time></trkpt><trkpt lat="36.426593950627286" lon="-5.395447937134801"><ele>33.0</ele><time>2026-04-25T13:06:06Z</time></trkpt><trkpt lat="36.426383862658156" lon="-5.395535839689179"><ele>32.666666666666664</ele><time>2026-04-25T13:06:07Z</time></trkpt><trkpt lat="36.42617828405073" lon="-5.395621855488744"><ele>32.33333333333333</ele><time>2026-04-25T13:06:08Z</time></trkpt><trkpt lat="36.42598889827803" lon="-5.395701096072381"><ele>32.0</ele><time>2026-04-25T13:06:09Z</time></trkpt><trkpt lat="36.4258119534077" lon="-5.395773695965817"><ele>32.0</ele><time>2026-04-25T13:06:10Z</time></trkpt><trkpt lat="36.42563716043392" lon="-5.395840323388426"><ele>32.0</ele><time>2026-04-25T13:06:11Z</time></trkpt><trkpt lat="36.425454994738445" lon="-5.395906934951985"><ele>32.0</ele><time>2026-04-25T13:06:12Z</time></trkpt><trkpt lat="36.42527215260471" lon="-5.395977667668796"><ele>33.33333333333333</ele><time>2026-04-25T13:06:13Z</time></trkpt><trkpt lat="36.425098839739476" lon="-5.396049482509674"><ele>34.666666666666664</ele><time>2026-04-25T13:06:14Z</time></trkpt><trkpt lat="36.42493896897519" lon="-5.396120575478008"><ele>36.0</ele><time>2026-04-25T13:06:15Z</time></trkpt><trkpt lat="36.42477915378405" lon="-5.396196269564209"><ele>36.333333333333336</ele><time>2026-04-25T13:06:16Z</time></trkpt><trkpt lat="36.42461811936483" lon="-5.396284479510976"><ele>36.66666666666667</ele><time>2026-04-25T13:06:17Z</time></trkpt><trkpt lat="36.42445874164285" lon="-5.396387991651224"><ele>37.0</ele><time>2026-04-25T13:06:18Z</time></trkpt><trkpt lat="36.42429994748397" lon="-5.3965006113317076"><ele>35.333333333333336</ele><time>2026-04-25T13:06:19Z</time></trkpt><trkpt lat="36.42415636167004" lon="-5.3966135291595165"><ele>33.666666666666664</ele><time>2026-04-25T13:06:20Z</time></trkpt><trkpt lat="36.42402756862808" lon="-5.396732036732025"><ele>32.0</ele><time>2026-04-25T13:06:21Z</time></trkpt><trkpt lat="36.42391252177341" lon="-5.3968585781107326"><ele>33.666666666666664</ele><time>2026-04-25T13:06:22Z</time></trkpt><trkpt lat="36.423796044319054" lon="-5.3970264712913405"><ele>35.333333333333336</ele><time>2026-04-25T13:06:23Z</time></trkpt><trkpt lat="36.42370360814736" lon="-5.39718977732158"><ele>37.0</ele><time>2026-04-25T13:06:24Z</time></trkpt><trkpt lat="36.42361881734002" lon="-5.397364406785764"><ele>37.0</ele><time>2026-04-25T13:06:25Z</time></trkpt><trkpt lat="36.423550304767176" lon="-5.3975492240741465"><ele>37.0</ele><time>2026-04-25T13:06:26Z</time></trkpt><trkpt lat="36.42349848983231" lon="-5.397719224674551"><ele>37.0</ele><time>2026-04-25T13:06:27Z</time></trkpt><trkpt lat="36.4234503388432" lon="-5.39788839412227"><ele>36.0</ele><time>2026-04-25T13:06:28Z</time></trkpt><trkpt lat="36.423404229708396" lon="-5.3980585650808575"><ele>35.0</ele><time>2026-04-25T13:06:29Z</time></trkpt><trkpt lat="36.42336335892804" lon="-5.398214687232671"><ele>34.0</ele><time>2026-04-25T13:06:30Z</time></trkpt><trkpt lat="36.423324229970866" lon="-5.398364155734591"><ele>33.0</ele><time>2026-04-25T13:06:31Z</time></trkpt><trkpt lat="36.423284694357505" lon="-5.39851517762057"><ele>33.0</ele><time>2026-04-25T13:06:32Z</time></trkpt><trkpt lat="36.42316572961259" lon="-5.398632337886765"><ele>33.0</ele><time>2026-04-25T13:06:33Z</time></trkpt><trkpt lat="36.423052119980525" lon="-5.398745634864419"><ele>33.0</ele><time>2026-04-25T13:06:34Z</time></trkpt><trkpt lat="36.422944842162124" lon="-5.398878428078373"><ele>33.0</ele><time>2026-04-25T13:06:35Z</time></trkpt><trkpt lat="36.42284285571102" lon="-5.399019572414527"><ele>32.333333333333336</ele><time>2026-04-25T13:06:36Z</time></trkpt><trkpt lat="36.422717348402585" lon="-5.399144510751031"><ele>31.666666666666668</ele><time>2026-04-25T13:06:37Z</time></trkpt><trkpt lat="36.42260159483657" lon="-5.399265547538692"><ele>31.0</ele><time>2026-04-25T13:06:38Z</time></trkpt><trkpt lat="36.422478887599524" lon="-5.3993821733940734"><ele>31.0</ele><time>2026-04-25T13:06:39Z</time></trkpt><trkpt lat="36.42235041383555" lon="-5.3994978605471085"><ele>31.0</ele><time>2026-04-25T13:06:40Z</time></trkpt><trkpt lat="36.42221553723048" lon="-5.399601151593999"><ele>31.0</ele><time>2026-04-25T13:06:41Z</time></trkpt><trkpt lat="36.422089925991386" lon="-5.399712461113056"><ele>30.666666666666668</ele><time>2026-04-25T13:06:42Z</time></trkpt><trkpt lat="36.421950790411444" lon="-5.399819901350258"><ele>30.333333333333336</ele><time>2026-04-25T13:06:43Z</time></trkpt><trkpt lat="36.42182222772132" lon="-5.39993247926191"><ele>30.0</ele><time>2026-04-25T13:06:44Z</time></trkpt><trkpt lat="36.421681969747326" lon="-5.400039356161641"><ele>30.0</ele><time>2026-04-25T13:06:45Z</time></trkpt><trkpt lat="36.42154619939909" lon="-5.400138678806546"><ele>30.0</ele><time>2026-04-25T13:06:46Z</time></trkpt><trkpt lat="36.421419520502745" lon="-5.400233453417865"><ele>30.0</ele><time>2026-04-25T13:06:47Z</time></trkpt><trkpt lat="36.421287529248296" lon="-5.4003431391997765"><ele>30.333333333333336</ele><time>2026-04-25T13:06:48Z</time></trkpt><trkpt lat="36.421160941554646" lon="-5.400449929656272"><ele>30.666666666666668</ele><time>2026-04-25T13:06:49Z</time></trkpt><trkpt lat="36.42101542283586" lon="-5.400514493227394"><ele>31.0</ele><time>2026-04-25T13:06:50Z</time></trkpt><trkpt lat="36.42086418437624" lon="-5.4005571298773685"><ele>30.0</ele><time>2026-04-25T13:06:51Z</time></trkpt><trkpt lat="36.4206985277961" lon="-5.400575990987239"><ele>29.0</ele><time>2026-04-25T13:06:52Z</time></trkpt><trkpt lat="36.42052291657705" lon="-5.4005859167226875"><ele>28.0</ele><time>2026-04-25T13:06:53Z</time></trkpt><trkpt lat="36.42034942853248" lon="-5.400554302388982"><ele>28.0</ele><time>2026-04-25T13:06:54Z</time></trkpt><trkpt lat="36.420171350200484" lon="-5.400510168805701"><ele>28.0</ele><time>2026-04-25T13:06:55Z</time></trkpt><trkpt lat="36.419997758767984" lon="-5.4004607289470945"><ele>28.0</ele><time>2026-04-25T13:06:56Z</time></trkpt><trkpt lat="36.41982344100997" lon="-5.400415098513463"><ele>28.666666666666668</ele><time>2026-04-25T13:06:57Z</time></trkpt><trkpt lat="36.41965764290368" lon="-5.40036837630869"><ele>29.333333333333336</ele><time>2026-04-25T13:06:58Z</time></trkpt><trkpt lat="36.41949860097493" lon="-5.400321131296391"><ele>30.0</ele><time>2026-04-25T13:06:59Z</time></trkpt><trkpt lat="36.41934633476549" lon="-5.400272227065998"><ele>30.333333333333336</ele><time>2026-04-25T13:07:00Z</time></trkpt><trkpt lat="36.419198938145286" lon="-5.400215680296229"><ele>30.666666666666668</ele><time>2026-04-25T13:07:01Z</time></trkpt><trkpt lat="36.41905571845723" lon="-5.4001456367223035"><ele>31.0</ele><time>2026-04-25T13:07:02Z</time></trkpt><trkpt lat="36.41891632223517" lon="-5.400061464999348"><ele>30.0</ele><time>2026-04-25T13:07:03Z</time></trkpt><trkpt lat="36.418779852127315" lon="-5.399958534670918"><ele>29.0</ele><time>2026-04-25T13:07:04Z</time></trkpt><trkpt lat="36.418644730392586" lon="-5.399832282857814"><ele>28.0</ele><time>2026-04-25T13:07:05Z</time></trkpt><trkpt lat="36.41850900371197" lon="-5.39969336250781"><ele>29.333333333333336</ele><time>2026-04-25T13:07:06Z</time></trkpt><trkpt lat="36.418369169741815" lon="-5.399554688261156"><ele>30.666666666666664</ele><time>2026-04-25T13:07:07Z</time></trkpt><trkpt lat="36.41823221658023" lon="-5.399417168436449"><ele>32.0</ele><time>2026-04-25T13:07:08Z</time></trkpt><trkpt lat="36.41808680319741" lon="-5.399282583217232"><ele>31.0</ele><time>2026-04-25T13:07:09Z</time></trkpt><trkpt lat="36.417946674916536" lon="-5.399150331163978"><ele>30.0</ele><time>2026-04-25T13:07:10Z</time></trkpt><trkpt lat="36.41780495460912" lon="-5.399016192144279"><ele>29.0</ele><time>2026-04-25T13:07:11Z</time></trkpt><trkpt lat="36.41766322664335" lon="-5.3988878991535145"><ele>30.333333333333332</ele><time>2026-04-25T13:07:12Z</time></trkpt><trkpt lat="36.41752638929681" lon="-5.39876246415179"><ele>31.666666666666664</ele><time>2026-04-25T13:07:13Z</time></trkpt><trkpt lat="36.41741128432835" lon="-5.398649607733069"><ele>33.0</ele><time>2026-04-25T13:07:14Z</time></trkpt><trkpt lat="36.41730473656774" lon="-5.398546187814488"><ele>33.0</ele><time>2026-04-25T13:07:15Z</time></trkpt><trkpt lat="36.41720105015591" lon="-5.398447763985336"><ele>33.0</ele><time>2026-04-25T13:07:16Z</time></trkpt><trkpt lat="36.41709975716717" lon="-5.398357470457596"><ele>33.0</ele><time>2026-04-25T13:07:17Z</time></trkpt><trkpt lat="36.41700236957494" lon="-5.398286965537295"><ele>33.0</ele><time>2026-04-25T13:07:18Z</time></trkpt><trkpt lat="36.416922534853114" lon="-5.398256855311623"><ele>31.799999999999997</ele><time>2026-04-25T13:07:19Z</time></trkpt><trkpt lat="36.41680307449949" lon="-5.398299144604281"><ele>30.599999999999998</ele><time>2026-04-25T13:07:21Z</time></trkpt><trkpt lat="36.41673362556186" lon="-5.398376637789397"><ele>29.400000000000002</ele><time>2026-04-25T13:07:22Z</time></trkpt><trkpt lat="36.416661118302486" lon="-5.398453273767409"><ele>28.200000000000003</ele><time>2026-04-25T13:07:23Z</time></trkpt><trkpt lat="36.4165813440617" lon="-5.398535727612978"><ele>27.0</ele><time>2026-04-25T13:07:24Z</time></trkpt><trkpt lat="36.416511248137255" lon="-5.398646077227149"><ele>27.0</ele><time>2026-04-25T13:07:25Z</time></trkpt><trkpt lat="36.41642254468319" lon="-5.398726754804931"><ele>27.0</ele><time>2026-04-25T13:07:26Z</time></trkpt><trkpt lat="36.41632876793854" lon="-5.398813076609234"><ele>27.0</ele><time>2026-04-25T13:07:27Z</time></trkpt><trkpt lat="36.41623360619659" lon="-5.398900673305691"><ele>27.0</ele><time>2026-04-25T13:07:28Z</time></trkpt><trkpt lat="36.41611979813856" lon="-5.3990054339962645"><ele>27.0</ele><time>2026-04-25T13:07:29Z</time></trkpt><trkpt lat="36.416003634178715" lon="-5.399106273512967"><ele>27.0</ele><time>2026-04-25T13:07:30Z</time></trkpt><trkpt lat="36.415869347735466" lon="-5.399198423931435"><ele>27.0</ele><time>2026-04-25T13:07:31Z</time></trkpt><trkpt lat="36.415742853979005" lon="-5.399324563470631"><ele>27.0</ele><time>2026-04-25T13:07:32Z</time></trkpt><trkpt lat="36.41562042908831" lon="-5.399429760511616"><ele>27.0</ele><time>2026-04-25T13:07:33Z</time></trkpt><trkpt lat="36.415511423497215" lon="-5.39953231849836"><ele>27.0</ele><time>2026-04-25T13:07:34Z</time></trkpt><trkpt lat="36.41540728557847" lon="-5.399630044798498"><ele>27.0</ele><time>2026-04-25T13:07:35Z</time></trkpt><trkpt lat="36.41531939745806" lon="-5.3997396472960855"><ele>28.0</ele><time>2026-04-25T13:07:36Z</time></trkpt><trkpt lat="36.41522334990016" lon="-5.399832151558472"><ele>29.0</ele><time>2026-04-25T13:07:37Z</time></trkpt><trkpt lat="36.41512553861461" lon="-5.39992517474171"><ele>30.0</ele><time>2026-04-25T13:07:38Z</time></trkpt><trkpt lat="36.41503238039763" lon="-5.400013071740665"><ele>31.0</ele><time>2026-04-25T13:07:39Z</time></trkpt><trkpt lat="36.41494971906791" lon="-5.400091064676188"><ele>31.000000000000004</ele><time>2026-04-25T13:07:40Z</time></trkpt><trkpt lat="36.41487551652989" lon="-5.400161168955863"><ele>31.0</ele><time>2026-04-25T13:07:41Z</time></trkpt><trkpt lat="36.414801642435236" lon="-5.4002108185842825"><ele>31.0</ele><time>2026-04-25T13:07:42Z</time></trkpt><trkpt lat="36.41474143866252" lon="-5.4002723869122"><ele>31.0</ele><time>2026-04-25T13:07:43Z</time></trkpt><trkpt lat="36.4146932961375" lon="-5.400342921452421"><ele>31.000000000000004</ele><time>2026-04-25T13:07:44Z</time></trkpt><trkpt lat="36.41464329297507" lon="-5.400390956900041"><ele>31.0</ele><time>2026-04-25T13:07:45Z</time></trkpt><trkpt lat="36.414582712495275" lon="-5.400431724727494"><ele>30.8</ele><time>2026-04-25T13:07:47Z</time></trkpt><trkpt lat="36.41452362687509" lon="-5.400497823397289"><ele>30.6</ele><time>2026-04-25T13:32:49.998Z</time></trkpt><trkpt lat="36.414440024910924" lon="-5.400543468204817"><ele>30.4</ele><time>2026-04-25T13:32:51.998Z</time></trkpt><trkpt lat="36.414321891979945" lon="-5.400585940868064"><ele>30.2</ele><time>2026-04-25T13:32:53.998Z</time></trkpt><trkpt lat="36.414190013620676" lon="-5.400623927366421"><ele>30.0</ele><time>2026-04-25T13:32:55.998Z</time></trkpt><trkpt lat="36.414111391594346" lon="-5.4006578799992155"><ele>31.5</ele><time>2026-04-25T13:32:56.998Z</time></trkpt><trkpt lat="36.41403759185684" lon="-5.400671965858251"><ele>33.0</ele><time>2026-04-25T13:32:57.998Z</time></trkpt><trkpt lat="36.41396991217663" lon="-5.400686458377938"><ele>34.5</ele><time>2026-04-25T13:32:59Z</time></trkpt><trkpt lat="36.41389837547421" lon="-5.400703750198168"><ele>36.0</ele><time>2026-04-25T13:33:00Z</time></trkpt><trkpt lat="36.41382112757205" lon="-5.400723062170699"><ele>37.5</ele><time>2026-04-25T13:33:01Z</time></trkpt><trkpt lat="36.41374461344146" lon="-5.400743265447312"><ele>39.0</ele><time>2026-04-25T13:33:02Z</time></trkpt><trkpt lat="36.413666762202" lon="-5.400767486792659"><ele>39.0</ele><time>2026-04-25T13:33:03Z</time></trkpt><trkpt lat="36.4135820630203" lon="-5.400797190839241"><ele>39.0</ele><time>2026-04-25T13:33:04Z</time></trkpt><trkpt lat="36.41349266804586" lon="-5.400811798872849"><ele>39.0</ele><time>2026-04-25T13:33:05Z</time></trkpt><trkpt lat="36.413405101706886" lon="-5.400855055629536"><ele>39.0</ele><time>2026-04-25T13:33:06Z</time></trkpt><trkpt lat="36.41332261303403" lon="-5.400906229128353"><ele>39.0</ele><time>2026-04-25T13:33:07Z</time></trkpt><trkpt lat="36.413242916617556" lon="-5.400967242085915"><ele>39.0</ele><time>2026-04-25T13:33:08Z</time></trkpt><trkpt lat="36.41316793828337" lon="-5.401028347807716"><ele>39.0</ele><time>2026-04-25T13:33:09Z</time></trkpt><trkpt lat="36.41310524846384" lon="-5.401109455578419"><ele>39.0</ele><time>2026-04-25T13:33:10Z</time></trkpt><trkpt lat="36.41302847724431" lon="-5.401167132601401"><ele>39.0</ele><time>2026-04-25T13:33:11Z</time></trkpt><trkpt lat="36.41296400101098" lon="-5.401238443043322"><ele>39.0</ele><time>2026-04-25T13:33:11.999Z</time></trkpt><trkpt lat="36.412901858812845" lon="-5.401308854611486"><ele>39.0</ele><time>2026-04-25T13:33:13Z</time></trkpt><trkpt lat="36.412838582532146" lon="-5.401365933394279"><ele>38.57142857142858</ele><time>2026-04-25T13:33:13.999Z</time></trkpt><trkpt lat="36.4127765237021" lon="-5.4014236530674875"><ele>38.14285714285714</ele><time>2026-04-25T13:33:14.999Z</time></trkpt><trkpt lat="36.41271543055494" lon="-5.40148395303188"><ele>37.714285714285715</ele><time>2026-04-25T13:33:15.999Z</time></trkpt><trkpt lat="36.412657683754766" lon="-5.40154025657811"><ele>37.28571428571429</ele><time>2026-04-25T13:33:16.999Z</time></trkpt><trkpt lat="36.41259435912739" lon="-5.401602551397758"><ele>36.85714285714286</ele><time>2026-04-25T13:33:17.999Z</time></trkpt><trkpt lat="36.41254255841905" lon="-5.401658629062732"><ele>36.42857142857143</ele><time>2026-04-25T13:33:18.999Z</time></trkpt><trkpt lat="36.41250117889941" lon="-5.4017278889695355"><ele>36.0</ele><time>2026-04-25T13:33:19.999Z</time></trkpt><trkpt lat="36.412444505395406" lon="-5.401869236786786"><ele>36.0</ele><time>2026-04-25T13:33:21.999Z</time></trkpt><trkpt lat="36.41244089005965" lon="-5.401960457740701"><ele>36.0</ele><time>2026-04-25T13:33:22.999Z</time></trkpt><trkpt lat="36.41242681444469" lon="-5.402053697194526"><ele>36.0</ele><time>2026-04-25T13:33:23.999Z</time></trkpt><trkpt lat="36.41242067052043" lon="-5.402152290419864"><ele>36.0</ele><time>2026-04-25T13:33:24.999Z</time></trkpt><trkpt lat="36.41241335374162" lon="-5.402256670845984"><ele>36.0</ele><time>2026-04-25T13:33:25.999Z</time></trkpt><trkpt lat="36.4123898254274" lon="-5.402356934185221"><ele>36.0</ele><time>2026-04-25T13:33:26.999Z</time></trkpt><trkpt lat="36.41238484990092" lon="-5.402461311578877"><ele>36.4</ele><time>2026-04-25T13:33:27.999Z</time></trkpt><trkpt lat="36.41238382411662" lon="-5.40256998980918"><ele>36.8</ele><time>2026-04-25T13:33:28.999Z</time></trkpt><trkpt lat="36.41237828637088" lon="-5.402676897672253"><ele>37.199999999999996</ele><time>2026-04-25T13:33:29.999Z</time></trkpt><trkpt lat="36.4123761594522" lon="-5.402814032332364"><ele>37.6</ele><time>2026-04-25T13:33:30.999Z</time></trkpt><trkpt lat="36.41236912269924" lon="-5.402948621061109"><ele>38.0</ele><time>2026-04-25T13:33:31.999Z</time></trkpt><trkpt lat="36.41236144051014" lon="-5.403100054580076"><ele>38.0</ele><time>2026-04-25T13:33:32.999Z</time></trkpt><trkpt lat="36.41234946719826" lon="-5.4032518490043175"><ele>38.0</ele><time>2026-04-25T13:33:33.999Z</time></trkpt><trkpt lat="36.41233220029947" lon="-5.403418610118017"><ele>38.0</ele><time>2026-04-25T13:33:34.999Z</time></trkpt><trkpt lat="36.41232092475937" lon="-5.403607018932234"><ele>38.0</ele><time>2026-04-25T13:33:35.999Z</time></trkpt><trkpt lat="36.41230789152704" lon="-5.403811337999788"><ele>37.666666666666664</ele><time>2026-04-25T13:33:36.999Z</time></trkpt><trkpt lat="36.41228504206245" lon="-5.40403592610519"><ele>37.333333333333336</ele><time>2026-04-25T13:33:37.999Z</time></trkpt><trkpt lat="36.41225437073831" lon="-5.404251115964288"><ele>37.0</ele><time>2026-04-25T13:33:38.999Z</time></trkpt><trkpt lat="36.41224414473636" lon="-5.404469613763396"><ele>37.66666666666667</ele><time>2026-04-25T13:33:39.999Z</time></trkpt><trkpt lat="36.41222943849969" lon="-5.4046868040741565"><ele>38.333333333333336</ele><time>2026-04-25T13:33:40.999Z</time></trkpt><trkpt lat="36.41221862869483" lon="-5.4048977459834155"><ele>39.0</ele><time>2026-04-25T13:33:41.999Z</time></trkpt><trkpt lat="36.41220726981073" lon="-5.405100478534539"><ele>39.0</ele><time>2026-04-25T13:33:42.999Z</time></trkpt><trkpt lat="36.412197417534045" lon="-5.405304791687674"><ele>39.0</ele><time>2026-04-25T13:33:43.999Z</time></trkpt><trkpt lat="36.41218673346036" lon="-5.405512265303664"><ele>39.0</ele><time>2026-04-25T13:33:44.999Z</time></trkpt><trkpt lat="36.41217524368877" lon="-5.405714758579074"><ele>40.666666666666664</ele><time>2026-04-25T13:33:45.999Z</time></trkpt><trkpt lat="36.412158316603374" lon="-5.405918582585689"><ele>42.33333333333333</ele><time>2026-04-25T13:33:46.999Z</time></trkpt><trkpt lat="36.41214844897873" lon="-5.406113823547872"><ele>44.0</ele><time>2026-04-25T13:33:47.999Z</time></trkpt><trkpt lat="36.412131496069044" lon="-5.406308309415523"><ele>44.5</ele><time>2026-04-25T13:33:48.999Z</time></trkpt><trkpt lat="36.41209857690816" lon="-5.406490594203761"><ele>45.0</ele><time>2026-04-25T13:33:49.999Z</time></trkpt><trkpt lat="36.41204592773971" lon="-5.406665838789034"><ele>45.5</ele><time>2026-04-25T13:33:50.999Z</time></trkpt><trkpt lat="36.41198185070297" lon="-5.406819817270653"><ele>46.0</ele><time>2026-04-25T13:33:51.999Z</time></trkpt><trkpt lat="36.41189609982011" lon="-5.40698269273065"><ele>46.0</ele><time>2026-04-25T13:33:52.999Z</time></trkpt><trkpt lat="36.411804357623126" lon="-5.407149298720712"><ele>46.0</ele><time>2026-04-25T13:33:53.999Z</time></trkpt><trkpt lat="36.41171014340474" lon="-5.407322419329876"><ele>46.0</ele><time>2026-04-25T13:33:54.999Z</time></trkpt><trkpt lat="36.411620694524466" lon="-5.407504758617748"><ele>46.0</ele><time>2026-04-25T13:33:55.999Z</time></trkpt><trkpt lat="36.41153358204227" lon="-5.4076931182611725"><ele>46.0</ele><time>2026-04-25T13:33:56.999Z</time></trkpt><trkpt lat="36.41145449497247" lon="-5.40787060086368"><ele>46.0</ele><time>2026-04-25T13:33:57.999Z</time></trkpt><trkpt lat="36.41137542029894" lon="-5.408035016578205"><ele>48.5</ele><time>2026-04-25T13:33:58.999Z</time></trkpt><trkpt lat="36.41131311147008" lon="-5.408178350877096"><ele>51.0</ele><time>2026-04-25T13:33:59.999Z</time></trkpt><trkpt lat="36.41125100131367" lon="-5.408317899204599"><ele>53.5</ele><time>2026-04-25T13:34:00.999Z</time></trkpt><trkpt lat="36.41117108269452" lon="-5.408455805656978"><ele>56.0</ele><time>2026-04-25T13:34:01.999Z</time></trkpt><trkpt lat="36.41106336890795" lon="-5.4085872791728535"><ele>56.0</ele><time>2026-04-25T13:34:02.999Z</time></trkpt><trkpt lat="36.41093560837708" lon="-5.408727885994257"><ele>56.0</ele><time>2026-04-25T13:34:03.999Z</time></trkpt><trkpt lat="36.410799182299606" lon="-5.408872435143467"><ele>56.0</ele><time>2026-04-25T13:34:04.999Z</time></trkpt><trkpt lat="36.41067443404305" lon="-5.409032021918859"><ele>54.66666666666667</ele><time>2026-04-25T13:34:05.999Z</time></trkpt><trkpt lat="36.41055307848543" lon="-5.4092031345077105"><ele>53.33333333333333</ele><time>2026-04-25T13:34:06.999Z</time></trkpt><trkpt lat="36.410434110545154" lon="-5.409375111512022"><ele>52.0</ele><time>2026-04-25T13:34:07.999Z</time></trkpt><trkpt lat="36.41033292056607" lon="-5.409555237416421"><ele>56.666666666666664</ele><time>2026-04-25T13:34:08.999Z</time></trkpt><trkpt lat="36.410222828708825" lon="-5.409720319104581"><ele>61.33333333333333</ele><time>2026-04-25T13:34:09.999Z</time></trkpt><trkpt lat="36.41010093618929" lon="-5.4098782588965415"><ele>66.0</ele><time>2026-04-25T13:34:10.999Z</time></trkpt><trkpt lat="36.409997319249534" lon="-5.4100396356927565"><ele>66.0</ele><time>2026-04-25T13:34:11.999Z</time></trkpt><trkpt lat="36.4098869012249" lon="-5.410196602936365"><ele>66.0</ele><time>2026-04-25T13:34:12.999Z</time></trkpt><trkpt lat="36.40977933202312" lon="-5.410338001141385"><ele>66.0</ele><time>2026-04-25T13:34:13.999Z</time></trkpt><trkpt lat="36.409697865853474" lon="-5.410497267776016"><ele>71.33333333333333</ele><time>2026-04-25T13:34:14.999Z</time></trkpt><trkpt lat="36.409625318133436" lon="-5.410669217969095"><ele>76.66666666666666</ele><time>2026-04-25T13:34:15.999Z</time></trkpt><trkpt lat="36.40955431653702" lon="-5.410865384574782"><ele>82.0</ele><time>2026-04-25T13:34:16.999Z</time></trkpt><trkpt lat="36.4094845759045" lon="-5.411039757057178"><ele>82.0</ele><time>2026-04-25T13:34:17.999Z</time></trkpt><trkpt lat="36.409427884317175" lon="-5.411232902303838"><ele>82.0</ele><time>2026-04-25T13:34:18.999Z</time></trkpt><trkpt lat="36.40937184695173" lon="-5.4114240184309566"><ele>82.0</ele><time>2026-04-25T13:34:19.999Z</time></trkpt><trkpt lat="36.40932688802341" lon="-5.411570384475123"><ele>83.25</ele><time>2026-04-25T13:34:20.999Z</time></trkpt><trkpt lat="36.40925966136113" lon="-5.411714500895795"><ele>84.5</ele><time>2026-04-25T13:34:21.999Z</time></trkpt><trkpt lat="36.40916122104559" lon="-5.4118464269556865"><ele>85.75</ele><time>2026-04-25T13:34:22.999Z</time></trkpt><trkpt lat="36.40905432285356" lon="-5.411959369363957"><ele>87.0</ele><time>2026-04-25T13:34:23.999Z</time></trkpt><trkpt lat="36.40894575752748" lon="-5.412021474735003"><ele>87.0</ele><time>2026-04-25T13:34:24.999Z</time></trkpt><trkpt lat="36.408825128476174" lon="-5.412066862844157"><ele>87.0</ele><time>2026-04-25T13:34:25.999Z</time></trkpt><trkpt lat="36.40870514825196" lon="-5.412126233614697"><ele>87.0</ele><time>2026-04-25T13:34:26.999Z</time></trkpt><trkpt lat="36.40859454164299" lon="-5.412183946471339"><ele>87.0</ele><time>2026-04-25T13:34:27.999Z</time></trkpt><trkpt lat="36.408483702122766" lon="-5.412252338120332"><ele>87.0</ele><time>2026-04-25T13:34:28.999Z</time></trkpt><trkpt lat="36.40836936530454" lon="-5.412341004077002"><ele>87.0</ele><time>2026-04-25T13:34:29.999Z</time></trkpt><trkpt lat="36.40825532298807" lon="-5.412424542168108"><ele>87.0</ele><time>2026-04-25T13:34:30.999Z</time></trkpt><trkpt lat="36.40814371532193" lon="-5.412501306151948"><ele>87.0</ele><time>2026-04-25T13:34:31.999Z</time></trkpt><trkpt lat="36.408015776692515" lon="-5.412562781845847"><ele>83.75</ele><time>2026-04-25T13:34:32.999Z</time></trkpt><trkpt lat="36.4078676300826" lon="-5.4125629172944905"><ele>80.5</ele><time>2026-04-25T13:34:33.999Z</time></trkpt><trkpt lat="36.407718605120884" lon="-5.412564295947097"><ele>77.25</ele><time>2026-04-25T13:34:34.998Z</time></trkpt><trkpt lat="36.4075779170247" lon="-5.412551133153089"><ele>74.0</ele><time>2026-04-25T13:34:35.998Z</time></trkpt><trkpt lat="36.40743717772494" lon="-5.4125776431079995"><ele>74.0</ele><time>2026-04-25T13:34:36.998Z</time></trkpt><trkpt lat="36.40729404938995" lon="-5.41259116845408"><ele>74.0</ele><time>2026-04-25T13:34:37.998Z</time></trkpt><trkpt lat="36.40715963579929" lon="-5.412610082974025"><ele>74.0</ele><time>2026-04-25T13:34:38.998Z</time></trkpt><trkpt lat="36.407025174047156" lon="-5.412635431048322"><ele>74.0</ele><time>2026-04-25T13:34:39.998Z</time></trkpt><trkpt lat="36.40689056010068" lon="-5.41267564181984"><ele>71.25</ele><time>2026-04-25T13:34:40.998Z</time></trkpt><trkpt lat="36.40675479423282" lon="-5.412738312796315"><ele>68.5</ele><time>2026-04-25T13:34:41.998Z</time></trkpt><trkpt lat="36.406648883956436" lon="-5.412804095098069"><ele>65.75</ele><time>2026-04-25T13:34:42.998Z</time></trkpt><trkpt lat="36.406554381664165" lon="-5.412877083115974"><ele>63.0</ele><time>2026-04-25T13:34:43.998Z</time></trkpt><trkpt lat="36.406457904896214" lon="-5.412969515624609"><ele>63.5</ele><time>2026-04-25T13:34:44.998Z</time></trkpt><trkpt lat="36.40636197334938" lon="-5.413087454634453"><ele>64.0</ele><time>2026-04-25T13:34:45.998Z</time></trkpt><trkpt lat="36.40626077396714" lon="-5.413235420181414"><ele>64.5</ele><time>2026-04-25T13:34:46.998Z</time></trkpt><trkpt lat="36.40615994125517" lon="-5.4133788218405865"><ele>65.0</ele><time>2026-04-25T13:34:47.998Z</time></trkpt><trkpt lat="36.40606476865126" lon="-5.413503461665697"><ele>61.66666666666667</ele><time>2026-04-25T13:34:48.998Z</time></trkpt><trkpt lat="36.40595579796483" lon="-5.413610408517605"><ele>58.33333333333333</ele><time>2026-04-25T13:34:49.998Z</time></trkpt><trkpt lat="36.405819254047934" lon="-5.413703245670459"><ele>55.0</ele><time>2026-04-25T13:34:50.998Z</time></trkpt><trkpt lat="36.40566262656648" lon="-5.413771766487537"><ele>55.666666666666664</ele><time>2026-04-25T13:34:51.998Z</time></trkpt><trkpt lat="36.405508068629835" lon="-5.413877743729798"><ele>56.33333333333333</ele><time>2026-04-25T13:34:52.998Z</time></trkpt><trkpt lat="36.40535989259073" lon="-5.413961437362538"><ele>57.0</ele><time>2026-04-25T13:34:53.998Z</time></trkpt><trkpt lat="36.405217236788424" lon="-5.414024448208416"><ele>55.0</ele><time>2026-04-25T13:34:54.998Z</time></trkpt><trkpt lat="36.40508973492536" lon="-5.414103536959002"><ele>53.0</ele><time>2026-04-25T13:34:55.998Z</time></trkpt><trkpt lat="36.40494274377217" lon="-5.414176506720624"><ele>51.0</ele><time>2026-04-25T13:34:56.998Z</time></trkpt><trkpt lat="36.404776134815755" lon="-5.414239771259908"><ele>50.66666666666667</ele><time>2026-04-25T13:34:57.998Z</time></trkpt><trkpt lat="36.404600821263124" lon="-5.414286467889725"><ele>50.333333333333336</ele><time>2026-04-25T13:34:58.998Z</time></trkpt><trkpt lat="36.40442389745382" lon="-5.4143271751533035"><ele>50.0</ele><time>2026-04-25T13:34:59.998Z</time></trkpt><trkpt lat="36.40424427582368" lon="-5.414399155137222"><ele>50.0</ele><time>2026-04-25T13:35:00.998Z</time></trkpt><trkpt lat="36.404056344145076" lon="-5.414454366040995"><ele>50.0</ele><time>2026-04-25T13:35:01.998Z</time></trkpt><trkpt lat="36.403879199509745" lon="-5.414504799373679"><ele>50.0</ele><time>2026-04-25T13:35:02.998Z</time></trkpt><trkpt lat="36.40368474975231" lon="-5.414560062194795"><ele>50.0</ele><time>2026-04-25T13:35:03.998Z</time></trkpt><trkpt lat="36.40348822850006" lon="-5.414617351130539"><ele>50.0</ele><time>2026-04-25T13:35:04.997Z</time></trkpt><trkpt lat="36.403294953598866" lon="-5.414669340572601"><ele>50.0</ele><time>2026-04-25T13:35:05.997Z</time></trkpt><trkpt lat="36.40310780896213" lon="-5.41471874598279"><ele>48.66666666666667</ele><time>2026-04-25T13:35:06.997Z</time></trkpt><trkpt lat="36.40293242190751" lon="-5.414765047461698"><ele>47.333333333333336</ele><time>2026-04-25T13:35:07.997Z</time></trkpt><trkpt lat="36.402748917952216" lon="-5.414811226819434"><ele>46.0</ele><time>2026-04-25T13:35:08.998Z</time></trkpt><trkpt lat="36.402570867526926" lon="-5.414853239788179"><ele>46.0</ele><time>2026-04-25T13:35:09.998Z</time></trkpt><trkpt lat="36.40239430531747" lon="-5.414894328895747"><ele>46.0</ele><time>2026-04-25T13:35:10.998Z</time></trkpt><trkpt lat="36.40222548415765" lon="-5.41495028099871"><ele>46.0</ele><time>2026-04-25T13:35:11.998Z</time></trkpt><trkpt lat="36.40205825935081" lon="-5.415027210793214"><ele>44.66666666666667</ele><time>2026-04-25T13:35:12.998Z</time></trkpt><trkpt lat="36.40188783062662" lon="-5.415101321336866"><ele>43.333333333333336</ele><time>2026-04-25T13:35:13.998Z</time></trkpt><trkpt lat="36.401710550037876" lon="-5.415172252171242"><ele>42.0</ele><time>2026-04-25T13:35:14.998Z</time></trkpt><trkpt lat="36.40152544926068" lon="-5.415239110144181"><ele>42.0</ele><time>2026-04-25T13:35:15.998Z</time></trkpt><trkpt lat="36.40134112319524" lon="-5.415298495792359"><ele>42.0</ele><time>2026-04-25T13:35:16.998Z</time></trkpt><trkpt lat="36.40114977511673" lon="-5.415358802084892"><ele>42.0</ele><time>2026-04-25T13:35:17.998Z</time></trkpt><trkpt lat="36.400961596585944" lon="-5.415417760999327"><ele>42.333333333333336</ele><time>2026-04-25T13:35:18.998Z</time></trkpt><trkpt lat="36.400770104350926" lon="-5.415472449166975"><ele>42.66666666666667</ele><time>2026-04-25T13:35:19.998Z</time></trkpt><trkpt lat="36.40057968695417" lon="-5.415529529748114"><ele>43.0</ele><time>2026-04-25T13:35:20.998Z</time></trkpt><trkpt lat="36.400388514847094" lon="-5.415587206638963"><ele>42.333333333333336</ele><time>2026-04-25T13:35:21.998Z</time></trkpt><trkpt lat="36.40020451090875" lon="-5.415642474003975"><ele>41.666666666666664</ele><time>2026-04-25T13:35:22.998Z</time></trkpt><trkpt lat="36.400008253053215" lon="-5.415698076978611"><ele>41.0</ele><time>2026-04-25T13:35:23.998Z</time></trkpt><trkpt lat="36.39981238902025" lon="-5.4157595994867"><ele>39.666666666666664</ele><time>2026-04-25T13:35:24.998Z</time></trkpt><trkpt lat="36.39962187803822" lon="-5.415814973592359"><ele>38.333333333333336</ele><time>2026-04-25T13:35:25.998Z</time></trkpt><trkpt lat="36.39942089864159" lon="-5.415878608732883"><ele>37.0</ele><time>2026-04-25T13:35:26.998Z</time></trkpt><trkpt lat="36.399223822908105" lon="-5.41591419490802"><ele>37.0</ele><time>2026-04-25T13:35:27.998Z</time></trkpt><trkpt lat="36.39903040526678" lon="-5.41596853324754"><ele>37.0</ele><time>2026-04-25T13:35:28.998Z</time></trkpt><trkpt lat="36.39883947549328" lon="-5.416023144866119"><ele>37.0</ele><time>2026-04-25T13:35:29.998Z</time></trkpt><trkpt lat="36.39864807081316" lon="-5.416077198302181"><ele>36.66666666666667</ele><time>2026-04-25T13:35:30.998Z</time></trkpt><trkpt lat="36.39846265641397" lon="-5.416151259949279"><ele>36.333333333333336</ele><time>2026-04-25T13:35:31.998Z</time></trkpt><trkpt lat="36.39828145841693" lon="-5.416203969051786"><ele>36.0</ele><time>2026-04-25T13:35:32.999Z</time></trkpt><trkpt lat="36.39811805701671" lon="-5.416250888056119"><ele>36.0</ele><time>2026-04-25T13:35:33.999Z</time></trkpt><trkpt lat="36.39796359587845" lon="-5.416299173178376"><ele>36.0</ele><time>2026-04-25T13:35:34.999Z</time></trkpt><trkpt lat="36.39780503738591" lon="-5.416350565261364"><ele>36.0</ele><time>2026-04-25T13:35:35.999Z</time></trkpt><trkpt lat="36.397644599276994" lon="-5.4164084134777095"><ele>35.666666666666664</ele><time>2026-04-25T13:35:36.999Z</time></trkpt><trkpt lat="36.3974853961378" lon="-5.4164989051629595"><ele>35.33333333333333</ele><time>2026-04-25T13:35:37.999Z</time></trkpt><trkpt lat="36.39732482939017" lon="-5.416613591094715"><ele>35.0</ele><time>2026-04-25T13:35:38.999Z</time></trkpt><trkpt lat="36.39714858241415" lon="-5.416739894246115"><ele>34.0</ele><time>2026-04-25T13:35:39.999Z</time></trkpt><trkpt lat="36.39698770827605" lon="-5.416855269724124"><ele>33.0</ele><time>2026-04-25T13:35:40.999Z</time></trkpt><trkpt lat="36.39680279213671" lon="-5.416990403383842"><ele>32.0</ele><time>2026-04-25T13:35:41.999Z</time></trkpt><trkpt lat="36.39660430772985" lon="-5.417112340531381"><ele>31.666666666666664</ele><time>2026-04-25T13:35:42.999Z</time></trkpt><trkpt lat="36.39640963951019" lon="-5.417232618977642"><ele>31.333333333333336</ele><time>2026-04-25T13:35:43.999Z</time></trkpt><trkpt lat="36.39623101947477" lon="-5.417351273407638"><ele>31.0</ele><time>2026-04-25T13:35:44.999Z</time></trkpt><trkpt lat="36.39606733707996" lon="-5.417446127520075"><ele>30.333333333333336</ele><time>2026-04-25T13:35:45.999Z</time></trkpt><trkpt lat="36.395905287960204" lon="-5.4175316616206"><ele>29.666666666666664</ele><time>2026-04-25T13:35:46.999Z</time></trkpt><trkpt lat="36.39575488061172" lon="-5.41760749160162"><ele>29.0</ele><time>2026-04-25T13:35:47.999Z</time></trkpt><trkpt lat="36.39560271571415" lon="-5.417667757436394"><ele>29.333333333333332</ele><time>2026-04-25T13:35:48.999Z</time></trkpt><trkpt lat="36.3954425409756" lon="-5.417716927740063"><ele>29.666666666666664</ele><time>2026-04-25T13:35:49.999Z</time></trkpt><trkpt lat="36.39528816535024" lon="-5.417762233049921"><ele>30.0</ele><time>2026-04-25T13:35:50.999Z</time></trkpt><trkpt lat="36.39513324703363" lon="-5.417798141043433"><ele>30.0</ele><time>2026-04-25T13:35:51.999Z</time></trkpt><trkpt lat="36.39499579547259" lon="-5.417823712250218"><ele>30.0</ele><time>2026-04-25T13:35:52.999Z</time></trkpt><trkpt lat="36.39486844937645" lon="-5.417847638837977"><ele>30.0</ele><time>2026-04-25T13:35:53.999Z</time></trkpt><trkpt lat="36.39474881583794" lon="-5.417873302230605"><ele>30.0</ele><time>2026-04-25T13:35:54.999Z</time></trkpt><trkpt lat="36.39463906617838" lon="-5.417885188596633"><ele>30.0</ele><time>2026-04-25T13:35:55.999Z</time></trkpt><trkpt lat="36.394550869245606" lon="-5.417935565870844"><ele>30.0</ele><time>2026-04-25T13:35:56.999Z</time></trkpt><trkpt lat="36.394472444910065" lon="-5.41797057425603"><ele>30.0</ele><time>2026-04-25T13:35:57.999Z</time></trkpt><trkpt lat="36.394396049776454" lon="-5.4180106418013425"><ele>30.0</ele><time>2026-04-25T13:35:58.999Z</time></trkpt><trkpt lat="36.39426002653739" lon="-5.41808021334894"><ele>30.0</ele><time>2026-04-25T13:36:00.999Z</time></trkpt><trkpt lat="36.39418008623383" lon="-5.418145863003068"><ele>29.833333333333332</ele><time>2026-04-25T13:36:01.999Z</time></trkpt><trkpt lat="36.39409398249629" lon="-5.418196831872073"><ele>29.666666666666664</ele><time>2026-04-25T13:36:02.999Z</time></trkpt><trkpt lat="36.394016552686615" lon="-5.418264849204038"><ele>29.5</ele><time>2026-04-25T13:36:03.999Z</time></trkpt><trkpt lat="36.39395124419306" lon="-5.418310941741854"><ele>29.333333333333332</ele><time>2026-04-25T13:36:04.999Z</time></trkpt><trkpt lat="36.39389672740933" lon="-5.418355698567962"><ele>29.166666666666664</ele><time>2026-04-25T13:36:05.999Z</time></trkpt><trkpt lat="36.393839894070645" lon="-5.4184137380134025"><ele>29.0</ele><time>2026-04-25T13:36:06.999Z</time></trkpt><trkpt lat="36.39378505701478" lon="-5.418484603551959"><ele>29.0</ele><time>2026-04-25T13:36:07.999Z</time></trkpt><trkpt lat="36.39372964163353" lon="-5.418555363527069"><ele>29.0</ele><time>2026-04-25T13:36:08.999Z</time></trkpt><trkpt lat="36.39368854864336" lon="-5.4186497994546245"><ele>29.0</ele><time>2026-04-25T13:36:09.999Z</time></trkpt><trkpt lat="36.393653502041964" lon="-5.418759871363901"><ele>29.0</ele><time>2026-04-25T13:36:10.999Z</time></trkpt><trkpt lat="36.39362376442031" lon="-5.41887171882166"><ele>29.0</ele><time>2026-04-25T13:36:11.999Z</time></trkpt><trkpt lat="36.39358972902838" lon="-5.418990815834653"><ele>29.0</ele><time>2026-04-25T13:36:12.999Z</time></trkpt><trkpt lat="36.39355914060685" lon="-5.419116044821011"><ele>29.0</ele><time>2026-04-25T13:36:13.999Z</time></trkpt><trkpt lat="36.39353651058711" lon="-5.419251793553775"><ele>29.0</ele><time>2026-04-25T13:36:14.999Z</time></trkpt><trkpt lat="36.3935061545073" lon="-5.419380053874036"><ele>29.0</ele><time>2026-04-25T13:36:15.999Z</time></trkpt><trkpt lat="36.39347517359503" lon="-5.419515887492137"><ele>29.0</ele><time>2026-04-25T13:36:16.999Z</time></trkpt><trkpt lat="36.39344200645893" lon="-5.419654793080055"><ele>29.0</ele><time>2026-04-25T13:36:17.999Z</time></trkpt><trkpt lat="36.39340381723927" lon="-5.419813056889456"><ele>29.0</ele><time>2026-04-25T13:36:18.998Z</time></trkpt><trkpt lat="36.39336312193996" lon="-5.419979484416397"><ele>29.0</ele><time>2026-04-25T13:36:19.998Z</time></trkpt><trkpt lat="36.39331922569457" lon="-5.420157266739725"><ele>29.0</ele><time>2026-04-25T13:36:20.998Z</time></trkpt><trkpt lat="36.39326805579958" lon="-5.420362286300387"><ele>30.666666666666664</ele><time>2026-04-25T13:36:21.998Z</time></trkpt><trkpt lat="36.393216571789424" lon="-5.420586281306407"><ele>32.333333333333336</ele><time>2026-04-25T13:36:22.998Z</time></trkpt><trkpt lat="36.39317014083458" lon="-5.420833328121659"><ele>34.0</ele><time>2026-04-25T13:36:23.998Z</time></trkpt><trkpt lat="36.393129423659" lon="-5.421085270207823"><ele>35.66666666666667</ele><time>2026-04-25T13:36:24.998Z</time></trkpt><trkpt lat="36.39309884306477" lon="-5.421349424414261"><ele>37.333333333333336</ele><time>2026-04-25T13:36:25.998Z</time></trkpt><trkpt lat="36.39308016210043" lon="-5.421623121313901"><ele>39.0</ele><time>2026-04-25T13:36:26.998Z</time></trkpt><trkpt lat="36.39305883848469" lon="-5.421866666028933"><ele>39.0</ele><time>2026-04-25T13:36:27.998Z</time></trkpt><trkpt lat="36.393048366121825" lon="-5.422091408775507"><ele>39.0</ele><time>2026-04-25T13:36:28.998Z</time></trkpt><trkpt lat="36.39304096610032" lon="-5.422320642288995"><ele>39.0</ele><time>2026-04-25T13:36:29.998Z</time></trkpt><trkpt lat="36.39302789599507" lon="-5.422570539391419"><ele>37.666666666666664</ele><time>2026-04-25T13:36:30.998Z</time></trkpt><trkpt lat="36.393017919129534" lon="-5.422805159643413"><ele>36.33333333333333</ele><time>2026-04-25T13:36:31.998Z</time></trkpt><trkpt lat="36.39300917077979" lon="-5.42301489745197"><ele>35.0</ele><time>2026-04-25T13:36:32.998Z</time></trkpt><trkpt lat="36.39299699687374" lon="-5.4232048504082995"><ele>34.0</ele><time>2026-04-25T13:36:33.998Z</time></trkpt><trkpt lat="36.39298027387778" lon="-5.423379654112561"><ele>33.0</ele><time>2026-04-25T13:36:34.998Z</time></trkpt><trkpt lat="36.39294717450818" lon="-5.423551137043521"><ele>32.0</ele><time>2026-04-25T13:36:35.998Z</time></trkpt><trkpt lat="36.39289040832491" lon="-5.423733514212137"><ele>31.0</ele><time>2026-04-25T13:36:36.998Z</time></trkpt><trkpt lat="36.39282132362308" lon="-5.423906192498756"><ele>31.0</ele><time>2026-04-25T13:36:37.998Z</time></trkpt><trkpt lat="36.39273911870769" lon="-5.4240805785806065"><ele>31.0</ele><time>2026-04-25T13:36:38.998Z</time></trkpt><trkpt lat="36.39263656858424" lon="-5.424251233828684"><ele>31.0</ele><time>2026-04-25T13:36:39.998Z</time></trkpt><trkpt lat="36.39251475399465" lon="-5.424398612958742"><ele>31.0</ele><time>2026-04-25T13:36:40.998Z</time></trkpt><trkpt lat="36.39237004394712" lon="-5.424556138714396"><ele>31.0</ele><time>2026-04-25T13:36:41.998Z</time></trkpt><trkpt lat="36.39222736833735" lon="-5.424714492341081"><ele>31.0</ele><time>2026-04-25T13:36:42.998Z</time></trkpt><trkpt lat="36.392084409132046" lon="-5.424861001066779"><ele>30.333333333333336</ele><time>2026-04-25T13:36:43.998Z</time></trkpt><trkpt lat="36.391944134320866" lon="-5.4250026733732035"><ele>29.666666666666664</ele><time>2026-04-25T13:36:44.998Z</time></trkpt><trkpt lat="36.39181536129169" lon="-5.425154845469772"><ele>29.0</ele><time>2026-04-25T13:36:45.998Z</time></trkpt><trkpt lat="36.391666890638696" lon="-5.425283734774258"><ele>29.0</ele><time>2026-04-25T13:36:46.998Z</time></trkpt><trkpt lat="36.391492968322446" lon="-5.425398019700094"><ele>29.0</ele><time>2026-04-25T13:36:47.998Z</time></trkpt><trkpt lat="36.39132131987294" lon="-5.425518357661336"><ele>29.0</ele><time>2026-04-25T13:36:48.998Z</time></trkpt><trkpt lat="36.391147621473294" lon="-5.425656425182183"><ele>28.666666666666664</ele><time>2026-04-25T13:36:49.998Z</time></trkpt><trkpt lat="36.39096557406661" lon="-5.425776393633735"><ele>28.333333333333336</ele><time>2026-04-25T13:36:50.998Z</time></trkpt><trkpt lat="36.39078460960769" lon="-5.42589863478694"><ele>28.0</ele><time>2026-04-25T13:36:51.998Z</time></trkpt><trkpt lat="36.39060130527824" lon="-5.426021220633129"><ele>27.0</ele><time>2026-04-25T13:36:52.998Z</time></trkpt><trkpt lat="36.39041599255117" lon="-5.426145074968532"><ele>26.0</ele><time>2026-04-25T13:36:53.998Z</time></trkpt><trkpt lat="36.39023269707604" lon="-5.426267581110462"><ele>25.0</ele><time>2026-04-25T13:36:54.998Z</time></trkpt><trkpt lat="36.3900490961195" lon="-5.426390291454654"><ele>25.0</ele><time>2026-04-25T13:36:55.998Z</time></trkpt><trkpt lat="36.38986868645273" lon="-5.426510861270932"><ele>25.0</ele><time>2026-04-25T13:36:56.998Z</time></trkpt><trkpt lat="36.38970414581374" lon="-5.4266189964003955"><ele>25.0</ele><time>2026-04-25T13:36:57.998Z</time></trkpt><trkpt lat="36.389520698007836" lon="-5.426745084180681"><ele>24.666666666666668</ele><time>2026-04-25T13:36:58.998Z</time></trkpt><trkpt lat="36.38934684176777" lon="-5.426864579407126"><ele>24.333333333333336</ele><time>2026-04-25T13:36:59.998Z</time></trkpt><trkpt lat="36.38917006974039" lon="-5.426983882511651"><ele>24.0</ele><time>2026-04-25T13:37:00.998Z</time></trkpt><trkpt lat="36.38900424941172" lon="-5.427093795155121"><ele>24.0</ele><time>2026-04-25T13:37:01.998Z</time></trkpt><trkpt lat="36.38884772029284" lon="-5.427200526623263"><ele>24.0</ele><time>2026-04-25T13:37:02.998Z</time></trkpt><trkpt lat="36.38871345594009" lon="-5.427294019729934"><ele>24.0</ele><time>2026-04-25T13:37:03.998Z</time></trkpt><trkpt lat="36.388586750882126" lon="-5.427377282732555"><ele>25.333333333333336</ele><time>2026-04-25T13:37:04.998Z</time></trkpt><trkpt lat="36.38843950354379" lon="-5.427449772178455"><ele>26.666666666666668</ele><time>2026-04-25T13:37:05.998Z</time></trkpt><trkpt lat="36.388274280098976" lon="-5.427498351144967"><ele>28.0</ele><time>2026-04-25T13:37:06.998Z</time></trkpt><trkpt lat="36.38810988961669" lon="-5.4275051735515465"><ele>28.25</ele><time>2026-04-25T13:37:07.998Z</time></trkpt><trkpt lat="36.3879655526384" lon="-5.42752903282882"><ele>28.5</ele><time>2026-04-25T13:37:08.998Z</time></trkpt><trkpt lat="36.38783569110947" lon="-5.427560217757095"><ele>28.75</ele><time>2026-04-25T13:37:09.998Z</time></trkpt><trkpt lat="36.38771739475794" lon="-5.427592509306518"><ele>29.0</ele><time>2026-04-25T13:37:10.999Z</time></trkpt><trkpt lat="36.387618913684356" lon="-5.427650467774816"><ele>28.999999999999996</ele><time>2026-04-25T13:37:11.999Z</time></trkpt><trkpt lat="36.38754186103538" lon="-5.427700497612466"><ele>29.0</ele><time>2026-04-25T13:37:12.999Z</time></trkpt><trkpt lat="36.38748589511906" lon="-5.427748389648652"><ele>29.0</ele><time>2026-04-25T13:37:13.999Z</time></trkpt><trkpt lat="36.38743786459594" lon="-5.427805522398598"><ele>29.0</ele><time>2026-04-25T13:37:14.999Z</time></trkpt><trkpt lat="36.387377540973766" lon="-5.427866543064479"><ele>28.999999999999996</ele><time>2026-04-25T13:37:15.999Z</time></trkpt><trkpt lat="36.387321372895734" lon="-5.427939170033287"><ele>29.0</ele><time>2026-04-25T13:37:16.999Z</time></trkpt><trkpt lat="36.38725784199968" lon="-5.4280142120461425"><ele>29.166666666666664</ele><time>2026-04-25T13:37:17.999Z</time></trkpt><trkpt lat="36.38718968590578" lon="-5.428095018165013"><ele>29.333333333333332</ele><time>2026-04-25T13:37:18.999Z</time></trkpt><trkpt lat="36.387124679515054" lon="-5.428173299411987"><ele>29.5</ele><time>2026-04-25T13:37:19.999Z</time></trkpt><trkpt lat="36.38705876769932" lon="-5.428239871603752"><ele>29.666666666666664</ele><time>2026-04-25T13:37:20.999Z</time></trkpt><trkpt lat="36.38698626196569" lon="-5.428296022182093"><ele>29.833333333333332</ele><time>2026-04-25T13:37:21.999Z</time></trkpt><trkpt lat="36.38691161228008" lon="-5.428345208463037"><ele>30.0</ele><time>2026-04-25T13:37:22.999Z</time></trkpt><trkpt lat="36.386841191918464" lon="-5.428393456740919"><ele>30.0</ele><time>2026-04-25T13:37:23.999Z</time></trkpt><trkpt lat="36.38676771403386" lon="-5.428434758345486"><ele>30.0</ele><time>2026-04-25T13:37:24.999Z</time></trkpt><trkpt lat="36.38669620585454" lon="-5.428469797030451"><ele>30.0</ele><time>2026-04-25T13:37:25.999Z</time></trkpt><trkpt lat="36.38663032229836" lon="-5.428503791865513"><ele>30.0</ele><time>2026-04-25T13:37:26.999Z</time></trkpt><trkpt lat="36.38656146559892" lon="-5.428533332814606"><ele>30.0</ele><time>2026-04-25T13:37:27.999Z</time></trkpt><trkpt lat="36.38648565355509" lon="-5.428565410311935"><ele>30.0</ele><time>2026-04-25T13:37:28.999Z</time></trkpt><trkpt lat="36.386404975418884" lon="-5.4285945271184115"><ele>30.0</ele><time>2026-04-25T13:37:29.999Z</time></trkpt><trkpt lat="36.386316674277474" lon="-5.42861530129386"><ele>30.0</ele><time>2026-04-25T13:37:30.999Z</time></trkpt><trkpt lat="36.38623211525531" lon="-5.428625138395721"><ele>30.0</ele><time>2026-04-25T13:37:31.999Z</time></trkpt><trkpt lat="36.38615663311471" lon="-5.428656621880469"><ele>30.0</ele><time>2026-04-25T13:37:32.999Z</time></trkpt><trkpt lat="36.38607566570143" lon="-5.428643666854816"><ele>30.0</ele><time>2026-04-25T13:37:33.999Z</time></trkpt><trkpt lat="36.38597608723753" lon="-5.428665819220018"><ele>30.0</ele><time>2026-04-25T13:37:34.999Z</time></trkpt><trkpt lat="36.38588622998191" lon="-5.42867147256025"><ele>30.0</ele><time>2026-04-25T13:37:35.999Z</time></trkpt><trkpt lat="36.38580087586365" lon="-5.428678349907722"><ele>30.0</ele><time>2026-04-25T13:37:36.999Z</time></trkpt><trkpt lat="36.38570994191181" lon="-5.428697220977378"><ele>30.0</ele><time>2026-04-25T13:37:37.999Z</time></trkpt><trkpt lat="36.385612040646684" lon="-5.428723239723248"><ele>30.0</ele><time>2026-04-25T13:37:38.999Z</time></trkpt><trkpt lat="36.385515828192204" lon="-5.428747712804345"><ele>30.0</ele><time>2026-04-25T13:37:39.999Z</time></trkpt><trkpt lat="36.385427878493" lon="-5.428771110500289"><ele>29.333333333333332</ele><time>2026-04-25T13:37:40.999Z</time></trkpt><trkpt lat="36.385350438584034" lon="-5.428801244829888"><ele>28.666666666666664</ele><time>2026-04-25T13:37:41.999Z</time></trkpt><trkpt lat="36.38529244031672" lon="-5.428859107630444"><ele>28.0</ele><time>2026-04-25T13:37:42.999Z</time></trkpt><trkpt lat="36.385235435633945" lon="-5.428918896682013"><ele>27.333333333333332</ele><time>2026-04-25T13:37:43.999Z</time></trkpt><trkpt lat="36.38517638073944" lon="-5.428981088261608"><ele>26.666666666666664</ele><time>2026-04-25T13:37:45.999Z</time></trkpt><trkpt lat="36.38510028511626" lon="-5.429027121858517"><ele>26.0</ele><time>2026-04-25T13:37:54.999Z</time></trkpt><trkpt lat="36.38502377971056" lon="-5.429101630778311"><ele>25.499999999999996</ele><time>2026-04-25T13:37:55.999Z</time></trkpt><trkpt lat="36.38495484194616" lon="-5.429145388013357"><ele>25.0</ele><time>2026-04-25T13:37:56.999Z</time></trkpt><trkpt lat="36.38485989367097" lon="-5.4291862174185415"><ele>24.5</ele><time>2026-04-25T13:37:58.999Z</time></trkpt><trkpt lat="36.38479437233834" lon="-5.4292532564343325"><ele>24.0</ele><time>2026-04-25T13:38:01.999Z</time></trkpt><trkpt lat="36.384736587780566" lon="-5.429293918769779"><ele>23.5</ele><time>2026-04-25T13:38:04.999Z</time></trkpt><trkpt lat="36.38467796507762" lon="-5.429335170895254"><ele>23.0</ele><time>2026-04-25T13:38:08.999Z</time></trkpt><trkpt lat="36.38461661651776" lon="-5.4293795333133"><ele>22.799999999999997</ele><time>2026-04-25T13:38:13.999Z</time></trkpt><trkpt lat="36.38453830119797" lon="-5.429438912948111"><ele>22.6</ele><time>2026-04-25T13:39:08.999Z</time></trkpt><trkpt lat="36.38447322398721" lon="-5.429488255242002"><ele>22.4</ele><time>2026-04-25T13:39:09.999Z</time></trkpt><trkpt lat="36.38438631376498" lon="-5.429557672725963"><ele>22.200000000000003</ele><time>2026-04-25T13:39:10.999Z</time></trkpt><trkpt lat="36.38429008190181" lon="-5.429637118635926"><ele>22.0</ele><time>2026-04-25T13:39:11.999Z</time></trkpt><trkpt lat="36.38418284094553" lon="-5.429732422172812"><ele>22.0</ele><time>2026-04-25T13:39:12.999Z</time></trkpt><trkpt lat="36.384076475558686" lon="-5.429813353356114"><ele>22.0</ele><time>2026-04-25T13:39:13.999Z</time></trkpt><trkpt lat="36.384002594501304" lon="-5.429921228796945"><ele>22.0</ele><time>2026-04-25T13:39:14.999Z</time></trkpt><trkpt lat="36.383918769389055" lon="-5.430020532497276"><ele>22.0</ele><time>2026-04-25T13:39:15.999Z</time></trkpt><trkpt lat="36.3838269538066" lon="-5.430113961598692"><ele>22.0</ele><time>2026-04-25T13:39:17Z</time></trkpt><trkpt lat="36.38375889285165" lon="-5.430217400680411"><ele>22.0</ele><time>2026-04-25T13:39:18Z</time></trkpt><trkpt lat="36.38368411234181" lon="-5.43033424356107"><ele>22.0</ele><time>2026-04-25T13:39:19Z</time></trkpt><trkpt lat="36.38360669222803" lon="-5.430453832365774"><ele>22.0</ele><time>2026-04-25T13:39:20Z</time></trkpt><trkpt lat="36.38353281698091" lon="-5.430589840314171"><ele>22.0</ele><time>2026-04-25T13:39:21Z</time></trkpt><trkpt lat="36.38346168753898" lon="-5.43071867556318"><ele>22.0</ele><time>2026-04-25T13:39:22Z</time></trkpt><trkpt lat="36.38340008662284" lon="-5.430832097479769"><ele>22.0</ele><time>2026-04-25T13:39:23Z</time></trkpt><trkpt lat="36.38334065647728" lon="-5.43093145185438"><ele>22.0</ele><time>2026-04-25T13:39:24Z</time></trkpt><trkpt lat="36.383284026629795" lon="-5.431028351672223"><ele>22.0</ele><time>2026-04-25T13:39:25Z</time></trkpt><trkpt lat="36.38323010481782" lon="-5.431113377967178"><ele>22.0</ele><time>2026-04-25T13:39:26Z</time></trkpt><trkpt lat="36.38317744233243" lon="-5.431196797705006"><ele>22.0</ele><time>2026-04-25T13:39:27Z</time></trkpt><trkpt lat="36.38313320877173" lon="-5.431277120768077"><ele>22.0</ele><time>2026-04-25T13:39:28Z</time></trkpt><trkpt lat="36.383083507951625" lon="-5.431345499339245"><ele>22.0</ele><time>2026-04-25T13:39:29Z</time></trkpt><trkpt lat="36.38303909634924" lon="-5.431462773636485"><ele>22.0</ele><time>2026-04-25T13:39:31Z</time></trkpt><trkpt lat="36.38295289938432" lon="-5.431455974988184"><ele>22.0</ele><time>2026-04-25T13:39:32Z</time></trkpt><trkpt lat="36.38288650034141" lon="-5.431472632249991"><ele>21.333333333333332</ele><time>2026-04-25T13:39:33Z</time></trkpt><trkpt lat="36.38280119982884" lon="-5.43147939664299"><ele>20.666666666666664</ele><time>2026-04-25T13:39:34Z</time></trkpt><trkpt lat="36.382719219916545" lon="-5.431488361347008"><ele>20.0</ele><time>2026-04-25T13:39:35Z</time></trkpt><trkpt lat="36.3826369473927" lon="-5.431489812993872"><ele>19.333333333333332</ele><time>2026-04-25T13:39:36Z</time></trkpt><trkpt lat="36.38255493174196" lon="-5.431483278075388"><ele>18.666666666666668</ele><time>2026-04-25T13:39:37Z</time></trkpt><trkpt lat="36.38247655233814" lon="-5.431463241845276"><ele>18.0</ele><time>2026-04-25T13:39:38Z</time></trkpt><trkpt lat="36.382404485993845" lon="-5.4314337358478415"><ele>18.0</ele><time>2026-04-25T13:39:39Z</time></trkpt><trkpt lat="36.38233514803652" lon="-5.431401696667575"><ele>18.0</ele><time>2026-04-25T13:39:40Z</time></trkpt><trkpt lat="36.38225451415632" lon="-5.431366482285532"><ele>18.0</ele><time>2026-04-25T13:39:41Z</time></trkpt><trkpt lat="36.38218141466614" lon="-5.431312599275749"><ele>18.0</ele><time>2026-04-25T13:39:42Z</time></trkpt><trkpt lat="36.38210285159966" lon="-5.431262553164618"><ele>18.0</ele><time>2026-04-25T13:39:43Z</time></trkpt><trkpt lat="36.38202085235512" lon="-5.431211335488293"><ele>18.0</ele><time>2026-04-25T13:39:44Z</time></trkpt><trkpt lat="36.381943633561804" lon="-5.431149186489407"><ele>18.4</ele><time>2026-04-25T13:39:45Z</time></trkpt><trkpt lat="36.38185270364571" lon="-5.431100817001352"><ele>18.8</ele><time>2026-04-25T13:39:46Z</time></trkpt><trkpt lat="36.38176918750246" lon="-5.431028181647841"><ele>19.2</ele><time>2026-04-25T13:39:47Z</time></trkpt><trkpt lat="36.38170550823712" lon="-5.430936694699861"><ele>19.6</ele><time>2026-04-25T13:39:48Z</time></trkpt><trkpt lat="36.38162957124623" lon="-5.430857537224552"><ele>20.0</ele><time>2026-04-25T13:39:49Z</time></trkpt><trkpt lat="36.38155850769532" lon="-5.43075972608485"><ele>20.0</ele><time>2026-04-25T13:39:50Z</time></trkpt><trkpt lat="36.38147912977002" lon="-5.430686480201051"><ele>20.0</ele><time>2026-04-25T13:39:51Z</time></trkpt><trkpt lat="36.38140913650009" lon="-5.430603496792783"><ele>20.0</ele><time>2026-04-25T13:39:52Z</time></trkpt><trkpt lat="36.38133613275724" lon="-5.430517326692069"><ele>20.0</ele><time>2026-04-25T13:39:53Z</time></trkpt><trkpt lat="36.38127512959728" lon="-5.430420844504931"><ele>20.0</ele><time>2026-04-25T13:39:54Z</time></trkpt><trkpt lat="36.381211778794274" lon="-5.43033716887474"><ele>19.833333333333336</ele><time>2026-04-25T13:39:55Z</time></trkpt><trkpt lat="36.381153163337046" lon="-5.430264698521464"><ele>19.666666666666668</ele><time>2026-04-25T13:39:56Z</time></trkpt><trkpt lat="36.381089037366635" lon="-5.430209034380946"><ele>19.5</ele><time>2026-04-25T13:39:57Z</time></trkpt><trkpt lat="36.38104903713424" lon="-5.430128604987967"><ele>19.333333333333332</ele><time>2026-04-25T13:39:58Z</time></trkpt><trkpt lat="36.380998569751725" lon="-5.430073372823942"><ele>19.166666666666664</ele><time>2026-04-25T13:39:59Z</time></trkpt><trkpt lat="36.38093321138695" lon="-5.4299587496085415"><ele>19.0</ele><time>2026-04-25T13:40:01Z</time></trkpt><trkpt lat="36.38086639252221" lon="-5.429872650333018"><ele>19.0</ele><time>2026-04-25T13:40:03Z</time></trkpt><trkpt lat="36.38082050165341" lon="-5.429808741874491"><ele>19.0</ele><time>2026-04-25T13:40:05Z</time></trkpt><trkpt lat="36.38077204810268" lon="-5.4297492272892045"><ele>19.0</ele><time>2026-04-25T13:40:09Z</time></trkpt><trkpt lat="36.38070899221659" lon="-5.429682495050238"><ele>19.0</ele><time>2026-04-25T13:40:11Z</time></trkpt><trkpt lat="36.380610552669786" lon="-5.4296637772962395"><ele>19.0</ele><time>2026-04-25T13:40:13Z</time></trkpt><trkpt lat="36.38053389399224" lon="-5.42963776783479"><ele>19.0</ele><time>2026-04-25T13:40:28Z</time></trkpt><trkpt lat="36.380456150464084" lon="-5.42959745446802"><ele>18.833333333333332</ele><time>2026-04-25T13:40:30Z</time></trkpt><trkpt lat="36.3803825397393" lon="-5.429580532714691"><ele>18.666666666666664</ele><time>2026-04-25T13:40:32Z</time></trkpt><trkpt lat="36.380319604373604" lon="-5.429563131559294"><ele>18.5</ele><time>2026-04-25T13:44:31Z</time></trkpt><trkpt lat="36.38023069769366" lon="-5.429531923793403"><ele>18.333333333333332</ele><time>2026-04-25T13:44:33Z</time></trkpt><trkpt lat="36.380171468701164" lon="-5.429577107485146"><ele>18.166666666666668</ele><time>2026-04-25T13:44:35Z</time></trkpt><trkpt lat="36.380118115565956" lon="-5.429696891061137"><ele>18.0</ele><time>2026-04-25T13:44:37Z</time></trkpt><trkpt lat="36.380074985459146" lon="-5.429845512328665"><ele>18.333333333333332</ele><time>2026-04-25T13:44:39Z</time></trkpt><trkpt lat="36.38005564910671" lon="-5.429928474220463"><ele>18.666666666666668</ele><time>2026-04-25T13:44:40Z</time></trkpt><trkpt lat="36.3800354287297" lon="-5.430024708146083"><ele>19.0</ele><time>2026-04-25T13:44:41Z</time></trkpt><trkpt lat="36.38001200549271" lon="-5.43011570777794"><ele>19.333333333333336</ele><time>2026-04-25T13:44:42Z</time></trkpt><trkpt lat="36.37998289797425" lon="-5.430209844500426"><ele>19.666666666666668</ele><time>2026-04-25T13:44:43Z</time></trkpt><trkpt lat="36.379938552966244" lon="-5.430302640844925"><ele>20.0</ele><time>2026-04-25T13:44:44Z</time></trkpt><trkpt lat="36.37992822840075" lon="-5.430401328931854"><ele>20.4</ele><time>2026-04-25T13:44:45Z</time></trkpt><trkpt lat="36.37990032214373" lon="-5.430475450301579"><ele>20.8</ele><time>2026-04-25T13:44:46Z</time></trkpt><trkpt lat="36.379836268460195" lon="-5.4305432670247615"><ele>21.200000000000003</ele><time>2026-04-25T13:44:48Z</time></trkpt><trkpt lat="36.37971891894839" lon="-5.430555829693651"><ele>21.6</ele><time>2026-04-25T13:44:50Z</time></trkpt><trkpt lat="36.37967352625643" lon="-5.430394636297515"><ele>22.0</ele><time>2026-04-25T13:44:52Z</time></trkpt><trkpt lat="36.379650897108235" lon="-5.430315193110966"><ele>23.0</ele><time>2026-04-25T13:44:53Z</time></trkpt><trkpt lat="36.37961021677095" lon="-5.4302419261171355"><ele>24.0</ele><time>2026-04-25T13:44:54Z</time></trkpt><trkpt lat="36.37957785918838" lon="-5.430142114043629"><ele>25.0</ele><time>2026-04-25T13:44:55Z</time></trkpt><trkpt lat="36.37955048948338" lon="-5.430060422952451"><ele>26.0</ele><time>2026-04-25T13:44:56Z</time></trkpt><trkpt lat="36.37950025757879" lon="-5.429925390566093"><ele>27.000000000000004</ele><time>2026-04-25T13:44:58Z</time></trkpt><trkpt lat="36.37947842176362" lon="-5.429845308117781"><ele>28.0</ele><time>2026-04-25T13:44:59Z</time></trkpt><trkpt lat="36.37945148143315" lon="-5.429764277873773"><ele>28.0</ele><time>2026-04-25T13:45:00Z</time></trkpt><trkpt lat="36.37941644842603" lon="-5.429679440104326"><ele>27.999999999999996</ele><time>2026-04-25T13:45:01Z</time></trkpt><trkpt lat="36.379377678548856" lon="-5.4295803970298815"><ele>27.999999999999996</ele><time>2026-04-25T13:45:02Z</time></trkpt><trkpt lat="36.37933339039108" lon="-5.429465897929689"><ele>28.0</ele><time>2026-04-25T13:45:03Z</time></trkpt><trkpt lat="36.379288542953866" lon="-5.429337235472058"><ele>28.0</ele><time>2026-04-25T13:45:04Z</time></trkpt><trkpt lat="36.379238623791515" lon="-5.429199502043568"><ele>27.5</ele><time>2026-04-25T13:45:05Z</time></trkpt><trkpt lat="36.37918844882246" lon="-5.42906936915663"><ele>27.0</ele><time>2026-04-25T13:45:06Z</time></trkpt><trkpt lat="36.37912840139837" lon="-5.428925287480115"><ele>26.5</ele><time>2026-04-25T13:45:07Z</time></trkpt><trkpt lat="36.37907239476724" lon="-5.428792507851665"><ele>26.0</ele><time>2026-04-25T13:45:08Z</time></trkpt><trkpt lat="36.37902164963492" lon="-5.428684213240935"><ele>25.5</ele><time>2026-04-25T13:45:09Z</time></trkpt><trkpt lat="36.378966907501415" lon="-5.428564765283829"><ele>25.0</ele><time>2026-04-25T13:45:10Z</time></trkpt><trkpt lat="36.378907156922075" lon="-5.428422237047469"><ele>24.5</ele><time>2026-04-25T13:45:11Z</time></trkpt><trkpt lat="36.37885132863462" lon="-5.428298245849059"><ele>24.0</ele><time>2026-04-25T13:45:12Z</time></trkpt><trkpt lat="36.37878781096227" lon="-5.4281931261234755"><ele>24.799999999999997</ele><time>2026-04-25T13:45:13Z</time></trkpt><trkpt lat="36.378751502344905" lon="-5.428063969633749"><ele>25.599999999999998</ele><time>2026-04-25T13:45:14Z</time></trkpt><trkpt lat="36.378691937307735" lon="-5.4279515049552725"><ele>26.4</ele><time>2026-04-25T13:45:15Z</time></trkpt><trkpt lat="36.37864718475883" lon="-5.427831080084114"><ele>27.2</ele><time>2026-04-25T13:45:16Z</time></trkpt><trkpt lat="36.37859361467972" lon="-5.427715236848301"><ele>28.0</ele><time>2026-04-25T13:45:17Z</time></trkpt><trkpt lat="36.37854557164826" lon="-5.427602280365251"><ele>28.0</ele><time>2026-04-25T13:45:18Z</time></trkpt><trkpt lat="36.37849360070879" lon="-5.427493686475059"><ele>27.999999999999996</ele><time>2026-04-25T13:45:19Z</time></trkpt><trkpt lat="36.37844496663816" lon="-5.427376438162786"><ele>27.999999999999996</ele><time>2026-04-25T13:45:20Z</time></trkpt><trkpt lat="36.3783956966495" lon="-5.427288532973422"><ele>28.0</ele><time>2026-04-25T13:45:21Z</time></trkpt><trkpt lat="36.37835634350644" lon="-5.427212562407163"><ele>28.0</ele><time>2026-04-25T13:45:22Z</time></trkpt><trkpt lat="36.378293163695496" lon="-5.427082986178037"><ele>27.714285714285715</ele><time>2026-04-25T13:45:24Z</time></trkpt><trkpt lat="36.37825552006037" lon="-5.427008545896968"><ele>27.42857142857143</ele><time>2026-04-25T13:45:25Z</time></trkpt><trkpt lat="36.37821971104082" lon="-5.426931195492858"><ele>27.142857142857142</ele><time>2026-04-25T13:45:26Z</time></trkpt><trkpt lat="36.3781765992033" lon="-5.426852256128739"><ele>26.857142857142858</ele><time>2026-04-25T13:45:26.999Z</time></trkpt><trkpt lat="36.37813917676028" lon="-5.426778613934685"><ele>26.571428571428573</ele><time>2026-04-25T13:45:27.999Z</time></trkpt><trkpt lat="36.37810119731987" lon="-5.426697513652628"><ele>26.285714285714285</ele><time>2026-04-25T13:45:28.999Z</time></trkpt><trkpt lat="36.37806258779382" lon="-5.426614376600945"><ele>26.0</ele><time>2026-04-25T13:45:29.999Z</time></trkpt><trkpt lat="36.37801449189804" lon="-5.426524710011618"><ele>25.999999999999996</ele><time>2026-04-25T13:45:30.999Z</time></trkpt><trkpt lat="36.37796124820188" lon="-5.426434589665267"><ele>26.0</ele><time>2026-04-25T13:45:31.999Z</time></trkpt><trkpt lat="36.37790786849887" lon="-5.426340165377099"><ele>26.0</ele><time>2026-04-25T13:45:32.999Z</time></trkpt><trkpt lat="36.37785632355213" lon="-5.426251061144953"><ele>26.0</ele><time>2026-04-25T13:45:33.999Z</time></trkpt><trkpt lat="36.37780446139584" lon="-5.426168169538238"><ele>25.999999999999996</ele><time>2026-04-25T13:45:35Z</time></trkpt><trkpt lat="36.377757880852215" lon="-5.426082702613378"><ele>26.0</ele><time>2026-04-25T13:45:36Z</time></trkpt><trkpt lat="36.377709283002936" lon="-5.425996578292694"><ele>25.499999999999996</ele><time>2026-04-25T13:45:37Z</time></trkpt><trkpt lat="36.37766799608455" lon="-5.425934511271673"><ele>25.0</ele><time>2026-04-25T13:45:38Z</time></trkpt><trkpt lat="36.37761168465382" lon="-5.425859485006889"><ele>24.5</ele><time>2026-04-25T13:45:39Z</time></trkpt><trkpt lat="36.37754431508806" lon="-5.425780818074322"><ele>24.0</ele><time>2026-04-25T13:45:40Z</time></trkpt><trkpt lat="36.377488664518935" lon="-5.425701917120232"><ele>23.5</ele><time>2026-04-25T13:45:41Z</time></trkpt><trkpt lat="36.37742603004754" lon="-5.42563268772619"><ele>23.0</ele><time>2026-04-25T13:45:42Z</time></trkpt><trkpt lat="36.37736536993788" lon="-5.425572384011958"><ele>23.0</ele><time>2026-04-25T13:45:43Z</time></trkpt><trkpt lat="36.377298533497246" lon="-5.42550428444793"><ele>23.0</ele><time>2026-04-25T13:45:44Z</time></trkpt><trkpt lat="36.377236433411944" lon="-5.42544821832111"><ele>23.0</ele><time>2026-04-25T13:45:45Z</time></trkpt><trkpt lat="36.3771743506443" lon="-5.425392148930616"><ele>23.0</ele><time>2026-04-25T13:45:46Z</time></trkpt><trkpt lat="36.377109750537976" lon="-5.425334050538529"><ele>23.0</ele><time>2026-04-25T13:45:47Z</time></trkpt><trkpt lat="36.377044118592146" lon="-5.4252737208481765"><ele>23.0</ele><time>2026-04-25T13:45:48Z</time></trkpt><trkpt lat="36.376966454548075" lon="-5.425206528916509"><ele>23.0</ele><time>2026-04-25T13:45:49Z</time></trkpt><trkpt lat="36.37689837959915" lon="-5.425147119708559"><ele>23.0</ele><time>2026-04-25T13:45:50Z</time></trkpt><trkpt lat="36.37683165944207" lon="-5.4250934590968845"><ele>23.0</ele><time>2026-04-25T13:45:51Z</time></trkpt><trkpt lat="36.376760138010994" lon="-5.425035351744236"><ele>23.0</ele><time>2026-04-25T13:45:52Z</time></trkpt><trkpt lat="36.376681722613085" lon="-5.424974497632311"><ele>23.0</ele><time>2026-04-25T13:45:53Z</time></trkpt><trkpt lat="36.376616397782676" lon="-5.424923508473507"><ele>23.0</ele><time>2026-04-25T13:45:54Z</time></trkpt><trkpt lat="36.376532000549865" lon="-5.42486168723805"><ele>23.0</ele><time>2026-04-25T13:45:56Z</time></trkpt><trkpt lat="36.37658860481634" lon="-5.4249063721851964"><ele>23.0</ele><time>2026-04-25T13:47:46Z</time></trkpt><trkpt lat="36.376652713753394" lon="-5.424952987163127"><ele>23.0</ele><time>2026-04-25T13:49:04.999Z</time></trkpt><trkpt lat="36.376714639197125" lon="-5.425000502685339"><ele>23.0</ele><time>2026-04-25T13:49:06.999Z</time></trkpt><trkpt lat="36.37678158193966" lon="-5.425055145083259"><ele>23.0</ele><time>2026-04-25T13:49:08.999Z</time></trkpt><trkpt lat="36.376839966203356" lon="-5.42510315790633"><ele>23.0</ele><time>2026-04-25T13:49:10.999Z</time></trkpt><trkpt lat="36.37693130721224" lon="-5.425178291312174"><ele>23.0</ele><time>2026-04-25T13:49:12.999Z</time></trkpt><trkpt lat="36.37701792487539" lon="-5.425252740159785"><ele>23.0</ele><time>2026-04-25T13:49:14.999Z</time></trkpt><trkpt lat="36.37709324459329" lon="-5.42531857977925"><ele>23.0</ele><time>2026-04-25T13:49:16.999Z</time></trkpt><trkpt lat="36.37716251712637" lon="-5.425382191114962"><ele>23.0</ele><time>2026-04-25T13:49:18.999Z</time></trkpt><trkpt lat="36.37722094065288" lon="-5.425438290706098"><ele>23.0</ele><time>2026-04-25T13:49:20.999Z</time></trkpt><trkpt lat="36.3772969319461" lon="-5.425507984048857"><ele>23.0</ele><time>2026-04-25T13:49:22.999Z</time></trkpt><trkpt lat="36.37736415354993" lon="-5.425575913784772"><ele>23.0</ele><time>2026-04-25T13:49:24.999Z</time></trkpt><trkpt lat="36.377431683685984" lon="-5.425644365087327"><ele>23.0</ele><time>2026-04-25T13:49:26.999Z</time></trkpt><trkpt lat="36.377495844129605" lon="-5.4257192662671"><ele>23.0</ele><time>2026-04-25T13:49:28.999Z</time></trkpt><trkpt lat="36.37757402720063" lon="-5.425801994911818"><ele>23.0</ele><time>2026-04-25T13:49:30.999Z</time></trkpt><trkpt lat="36.37765092927335" lon="-5.425901027514239"><ele>23.0</ele><time>2026-04-25T13:49:32.999Z</time></trkpt><trkpt lat="36.37772474219571" lon="-5.426003923466393"><ele>23.0</ele><time>2026-04-25T13:49:34.999Z</time></trkpt><trkpt lat="36.37779577954506" lon="-5.426124537889777"><ele>23.0</ele><time>2026-04-25T13:49:36.999Z</time></trkpt><trkpt lat="36.37783598869241" lon="-5.426202177667773"><ele>23.0</ele><time>2026-04-25T13:49:37.999Z</time></trkpt><trkpt lat="36.377881387697805" lon="-5.426287855884095"><ele>23.0</ele><time>2026-04-25T13:49:38.999Z</time></trkpt><trkpt lat="36.37793327960724" lon="-5.426369582446984"><ele>23.2</ele><time>2026-04-25T13:49:39.999Z</time></trkpt><trkpt lat="36.37799112507439" lon="-5.426469030517099"><ele>23.4</ele><time>2026-04-25T13:49:40.999Z</time></trkpt><trkpt lat="36.378041608782816" lon="-5.426565826853344"><ele>23.599999999999998</ele><time>2026-04-25T13:49:41.999Z</time></trkpt><trkpt lat="36.378089725188396" lon="-5.426655956655244"><ele>23.799999999999997</ele><time>2026-04-25T13:49:42.999Z</time></trkpt><trkpt lat="36.37813783993833" lon="-5.426750078575026"><ele>24.0</ele><time>2026-04-25T13:49:43.999Z</time></trkpt><trkpt lat="36.37820081788284" lon="-5.426877103202786"><ele>24.0</ele><time>2026-04-25T13:49:44.999Z</time></trkpt><trkpt lat="36.37828224714198" lon="-5.427035724951003"><ele>24.0</ele><time>2026-04-25T13:49:45.999Z</time></trkpt><trkpt lat="36.378388798774466" lon="-5.427256010697251"><ele>24.0</ele><time>2026-04-25T13:49:47Z</time></trkpt><trkpt lat="36.378485702289005" lon="-5.427461670077233"><ele>25.333333333333336</ele><time>2026-04-25T13:49:48Z</time></trkpt><trkpt lat="36.37856510825429" lon="-5.427645859954047"><ele>26.666666666666668</ele><time>2026-04-25T13:49:49Z</time></trkpt><trkpt lat="36.37864161040213" lon="-5.427809677352"><ele>28.0</ele><time>2026-04-25T13:49:50Z</time></trkpt><trkpt lat="36.378714697447656" lon="-5.427961903718442"><ele>26.666666666666668</ele><time>2026-04-25T13:49:51Z</time></trkpt><trkpt lat="36.37878243564208" lon="-5.428125892429752"><ele>25.333333333333336</ele><time>2026-04-25T13:49:52Z</time></trkpt><trkpt lat="36.3788661597628" lon="-5.428280265823194"><ele>24.0</ele><time>2026-04-25T13:49:53Z</time></trkpt><trkpt lat="36.378944382327695" lon="-5.428447830942281"><ele>24.0</ele><time>2026-04-25T13:49:53.999Z</time></trkpt><trkpt lat="36.37901762684942" lon="-5.42860761083516"><ele>24.0</ele><time>2026-04-25T13:49:54.999Z</time></trkpt><trkpt lat="36.37908254063813" lon="-5.428756563220128"><ele>24.0</ele><time>2026-04-25T13:49:55.999Z</time></trkpt><trkpt lat="36.379124844671736" lon="-5.428902425281619"><ele>24.0</ele><time>2026-04-25T13:49:56.999Z</time></trkpt><trkpt lat="36.37919037857062" lon="-5.4290299828680135"><ele>24.4</ele><time>2026-04-25T13:49:58Z</time></trkpt><trkpt lat="36.37923417548892" lon="-5.429154645622646"><ele>24.799999999999997</ele><time>2026-04-25T13:49:59Z</time></trkpt><trkpt lat="36.37928795626698" lon="-5.4292820343287245"><ele>25.200000000000003</ele><time>2026-04-25T13:50:00Z</time></trkpt><trkpt lat="36.37932447367927" lon="-5.429404474435749"><ele>25.6</ele><time>2026-04-25T13:50:01Z</time></trkpt><trkpt lat="36.37936776727133" lon="-5.429514379503671"><ele>26.0</ele><time>2026-04-25T13:50:02Z</time></trkpt><trkpt lat="36.379410227341204" lon="-5.429614852157085"><ele>26.333333333333332</ele><time>2026-04-25T13:50:03Z</time></trkpt><trkpt lat="36.379450008481086" lon="-5.429714328549329"><ele>26.666666666666664</ele><time>2026-04-25T13:50:04Z</time></trkpt><trkpt lat="36.3794835948242" lon="-5.4298077467559835"><ele>27.0</ele><time>2026-04-25T13:50:05Z</time></trkpt><trkpt lat="36.37952174487083" lon="-5.4299044830418115"><ele>27.333333333333336</ele><time>2026-04-25T13:50:06Z</time></trkpt><trkpt lat="36.379557189552294" lon="-5.429994654186301"><ele>27.666666666666668</ele><time>2026-04-25T13:50:07Z</time></trkpt><trkpt lat="36.3795956435386" lon="-5.430088306892988"><ele>28.0</ele><time>2026-04-25T13:50:08Z</time></trkpt><trkpt lat="36.379628324990826" lon="-5.430176393480693"><ele>28.0</ele><time>2026-04-25T13:50:09Z</time></trkpt><trkpt lat="36.37964820847645" lon="-5.430253506521847"><ele>27.999999999999996</ele><time>2026-04-25T13:50:10Z</time></trkpt><trkpt lat="36.3796894773863" lon="-5.430394677822636"><ele>27.999999999999996</ele><time>2026-04-25T13:50:12Z</time></trkpt><trkpt lat="36.37973982718204" lon="-5.430518847476428"><ele>28.0</ele><time>2026-04-25T13:50:14Z</time></trkpt><trkpt lat="36.37982063629343" lon="-5.4305416719425725"><ele>28.0</ele><time>2026-04-25T13:50:16Z</time></trkpt><trkpt lat="36.379890938548726" lon="-5.430448273370958"><ele>26.4</ele><time>2026-04-25T13:50:18Z</time></trkpt><trkpt lat="36.379906413856354" lon="-5.430332257411163"><ele>24.799999999999997</ele><time>2026-04-25T13:50:20Z</time></trkpt><trkpt lat="36.379950641467744" lon="-5.430197448969774"><ele>23.2</ele><time>2026-04-25T13:50:22Z</time></trkpt><trkpt lat="36.37997304399881" lon="-5.430114738487463"><ele>21.6</ele><time>2026-04-25T13:50:23Z</time></trkpt><trkpt lat="36.38001627180745" lon="-5.429972456221663"><ele>20.0</ele><time>2026-04-25T13:50:25Z</time></trkpt><trkpt lat="36.38003664323165" lon="-5.429890656474469"><ele>20.0</ele><time>2026-04-25T13:50:26Z</time></trkpt><trkpt lat="36.38005275922782" lon="-5.429809846499726"><ele>20.0</ele><time>2026-04-25T13:50:27Z</time></trkpt><trkpt lat="36.38009073825433" lon="-5.429678781637109"><ele>20.0</ele><time>2026-04-25T13:50:29Z</time></trkpt><trkpt lat="36.380134511371445" lon="-5.429583904801596"><ele>20.0</ele><time>2026-04-25T13:50:31Z</time></trkpt><trkpt lat="36.380182801374765" lon="-5.429496992306375"><ele>20.0</ele><time>2026-04-25T13:50:33Z</time></trkpt><trkpt lat="36.380243278751465" lon="-5.4294625573355475"><ele>20.0</ele><time>2026-04-25T13:50:34.999Z</time></trkpt><trkpt lat="36.38031661745595" lon="-5.4294921790600705"><ele>19.833333333333336</ele><time>2026-04-25T13:50:36.999Z</time></trkpt><trkpt lat="36.38037494067133" lon="-5.4295536137285385"><ele>19.666666666666668</ele><time>2026-04-25T13:50:38.999Z</time></trkpt><trkpt lat="36.380437002233414" lon="-5.429585034032165"><ele>19.5</ele><time>2026-04-25T13:50:40.999Z</time></trkpt><trkpt lat="36.38051025192804" lon="-5.429600489193147"><ele>19.333333333333332</ele><time>2026-04-25T13:50:43.999Z</time></trkpt><trkpt lat="36.38059459939475" lon="-5.429599244168281"><ele>19.166666666666664</ele><time>2026-04-25T13:50:46.999Z</time></trkpt><trkpt lat="36.38065234775352" lon="-5.429645098290975"><ele>19.0</ele><time>2026-04-25T13:50:48.999Z</time></trkpt><trkpt lat="36.38073552597693" lon="-5.429670132314907"><ele>19.0</ele><time>2026-04-25T13:50:50.999Z</time></trkpt><trkpt lat="36.38080412770633" lon="-5.429729541393391"><ele>19.0</ele><time>2026-04-25T13:50:52.999Z</time></trkpt><trkpt lat="36.3808523772906" lon="-5.429790402515903"><ele>19.0</ele><time>2026-04-25T13:50:54.999Z</time></trkpt><trkpt lat="36.380929665627235" lon="-5.4298997329065175"><ele>19.0</ele><time>2026-04-25T13:51:35.999Z</time></trkpt><trkpt lat="36.38097804267671" lon="-5.429986819221202"><ele>19.0</ele><time>2026-04-25T13:51:36.999Z</time></trkpt><trkpt lat="36.38104290650476" lon="-5.430086182109992"><ele>19.0</ele><time>2026-04-25T13:51:37.999Z</time></trkpt><trkpt lat="36.38113308848574" lon="-5.430207096998364"><ele>19.0</ele><time>2026-04-25T13:51:38.999Z</time></trkpt><trkpt lat="36.38122549602973" lon="-5.430351058098403"><ele>19.0</ele><time>2026-04-25T13:51:39.999Z</time></trkpt><trkpt lat="36.38131475835971" lon="-5.430462559421451"><ele>19.0</ele><time>2026-04-25T13:51:40.999Z</time></trkpt><trkpt lat="36.38141433670464" lon="-5.430578463332925"><ele>19.25</ele><time>2026-04-25T13:51:41.999Z</time></trkpt><trkpt lat="36.38151802087183" lon="-5.430675523679545"><ele>19.5</ele><time>2026-04-25T13:51:42.999Z</time></trkpt><trkpt lat="36.38160949853628" lon="-5.430787646050441"><ele>19.75</ele><time>2026-04-25T13:51:43.999Z</time></trkpt><trkpt lat="36.38169362660847" lon="-5.430889964296592"><ele>20.0</ele><time>2026-04-25T13:51:44.999Z</time></trkpt><trkpt lat="36.381776389657986" lon="-5.430981633233395"><ele>20.0</ele><time>2026-04-25T13:51:45.999Z</time></trkpt><trkpt lat="36.38185453014455" lon="-5.431076786215376"><ele>20.0</ele><time>2026-04-25T13:51:46.999Z</time></trkpt><trkpt lat="36.38195023695197" lon="-5.431128358540242"><ele>20.0</ele><time>2026-04-25T13:51:47.999Z</time></trkpt><trkpt lat="36.382046081917366" lon="-5.431195182121971"><ele>20.0</ele><time>2026-04-25T13:51:48.999Z</time></trkpt><trkpt lat="36.382156888100496" lon="-5.431266720339988"><ele>20.0</ele><time>2026-04-25T13:51:49.999Z</time></trkpt><trkpt lat="36.38226590393978" lon="-5.43133677735109"><ele>19.6</ele><time>2026-04-25T13:51:50.999Z</time></trkpt><trkpt lat="36.38236465675155" lon="-5.431390626669142"><ele>19.2</ele><time>2026-04-25T13:51:51.999Z</time></trkpt><trkpt lat="36.38246854318989" lon="-5.431432152506188"><ele>18.8</ele><time>2026-04-25T13:51:52.999Z</time></trkpt><trkpt lat="36.38256222308886" lon="-5.4314733911503685"><ele>18.4</ele><time>2026-04-25T13:51:53.999Z</time></trkpt><trkpt lat="36.38265650044328" lon="-5.431483226340526"><ele>18.0</ele><time>2026-04-25T13:51:54.999Z</time></trkpt><trkpt lat="36.38276432665911" lon="-5.4314599903887295"><ele>18.0</ele><time>2026-04-25T13:51:55.999Z</time></trkpt><trkpt lat="36.382869542903535" lon="-5.431444763676857"><ele>18.0</ele><time>2026-04-25T13:51:56.999Z</time></trkpt><trkpt lat="36.38296327580772" lon="-5.4314385924439215"><ele>18.0</ele><time>2026-04-25T13:51:57.999Z</time></trkpt><trkpt lat="36.38305898824314" lon="-5.431372195271634"><ele>18.0</ele><time>2026-04-25T13:51:59.999Z</time></trkpt><trkpt lat="36.3830918115442" lon="-5.431283968757077"><ele>18.0</ele><time>2026-04-25T13:52:00.999Z</time></trkpt><trkpt lat="36.38316490120756" lon="-5.431194704080495"><ele>19.0</ele><time>2026-04-25T13:52:01.999Z</time></trkpt><trkpt lat="36.38323001336426" lon="-5.431073557369686"><ele>20.0</ele><time>2026-04-25T13:52:02.999Z</time></trkpt><trkpt lat="36.38330537371962" lon="-5.4309592726933875"><ele>21.0</ele><time>2026-04-25T13:52:03.999Z</time></trkpt><trkpt lat="36.38340900884377" lon="-5.4307812354410485"><ele>22.0</ele><time>2026-04-25T13:52:04.999Z</time></trkpt><trkpt lat="36.383522677083334" lon="-5.43057327934315"><ele>22.333333333333332</ele><time>2026-04-25T13:52:05.999Z</time></trkpt><trkpt lat="36.38361767354481" lon="-5.430406966175724"><ele>22.666666666666668</ele><time>2026-04-25T13:52:06.999Z</time></trkpt><trkpt lat="36.38371693645218" lon="-5.430249723312418"><ele>23.0</ele><time>2026-04-25T13:52:07.999Z</time></trkpt><trkpt lat="36.383812491834625" lon="-5.4301057726949455"><ele>22.75</ele><time>2026-04-25T13:52:08.999Z</time></trkpt><trkpt lat="36.38390416342168" lon="-5.4299777830564855"><ele>22.5</ele><time>2026-04-25T13:52:09.999Z</time></trkpt><trkpt lat="36.3839934808613" lon="-5.429864833077623"><ele>22.25</ele><time>2026-04-25T13:52:10.999Z</time></trkpt><trkpt lat="36.3840938711247" lon="-5.429758453438283"><ele>22.0</ele><time>2026-04-25T13:52:11.999Z</time></trkpt><trkpt lat="36.38419858571155" lon="-5.429658572784215"><ele>22.0</ele><time>2026-04-25T13:52:12.999Z</time></trkpt><trkpt lat="36.384304464975" lon="-5.429565597264223"><ele>22.0</ele><time>2026-04-25T13:52:13.999Z</time></trkpt><trkpt lat="36.38441429551604" lon="-5.429477406127066"><ele>22.0</ele><time>2026-04-25T13:52:14.999Z</time></trkpt><trkpt lat="36.38453441252332" lon="-5.429389463565601"><ele>22.0</ele><time>2026-04-25T13:52:15.999Z</time></trkpt><trkpt lat="36.38465822431712" lon="-5.42929717575252"><ele>22.200000000000003</ele><time>2026-04-25T13:52:16.999Z</time></trkpt><trkpt lat="36.38477993850667" lon="-5.429211347305037"><ele>22.4</ele><time>2026-04-25T13:52:17.999Z</time></trkpt><trkpt lat="36.38489169676736" lon="-5.429140439808403"><ele>22.6</ele><time>2026-04-25T13:52:18.999Z</time></trkpt><trkpt lat="36.38496812577567" lon="-5.429093334557473"><ele>22.799999999999997</ele><time>2026-04-25T13:52:19.999Z</time></trkpt><trkpt lat="36.38503611957842" lon="-5.429047254577737"><ele>23.0</ele><time>2026-04-25T13:52:20.999Z</time></trkpt><trkpt lat="36.3851031486307" lon="-5.429001740191692"><ele>23.0</ele><time>2026-04-25T13:52:22.999Z</time></trkpt><trkpt lat="36.38505121319601" lon="-5.42892524328378"><ele>23.0</ele><time>2026-04-25T13:52:26.999Z</time></trkpt><trkpt lat="36.385008478349455" lon="-5.428839258111391"><ele>23.0</ele><time>2026-04-25T14:02:11.999Z</time></trkpt><trkpt lat="36.38493324293567" lon="-5.42876104317802"><ele>23.0</ele><time>2026-04-25T14:02:13.999Z</time></trkpt><trkpt lat="36.384882090475365" lon="-5.428699871533724"><ele>23.0</ele><time>2026-04-25T14:02:14.999Z</time></trkpt><trkpt lat="36.384829086447105" lon="-5.428635893724332"><ele>23.0</ele><time>2026-04-25T14:02:15.999Z</time></trkpt><trkpt lat="36.38476984925935" lon="-5.428562295182264"><ele>23.0</ele><time>2026-04-25T14:02:16.999Z</time></trkpt><trkpt lat="36.38470731651463" lon="-5.428484602063786"><ele>23.0</ele><time>2026-04-25T14:02:17.999Z</time></trkpt><trkpt lat="36.38464017712625" lon="-5.428401185535121"><ele>23.0</ele><time>2026-04-25T14:02:18.999Z</time></trkpt><trkpt lat="36.384570575341236" lon="-5.428318334045974"><ele>23.0</ele><time>2026-04-25T14:02:19.999Z</time></trkpt><trkpt lat="36.38450207218343" lon="-5.4282373850423795"><ele>23.0</ele><time>2026-04-25T14:02:20.999Z</time></trkpt><trkpt lat="36.38442870228127" lon="-5.428150637714758"><ele>23.0</ele><time>2026-04-25T14:02:21.999Z</time></trkpt><trkpt lat="36.38434973776793" lon="-5.428050874047962"><ele>23.0</ele><time>2026-04-25T14:02:23Z</time></trkpt><trkpt lat="36.38426529858428" lon="-5.427941219394451"><ele>23.0</ele><time>2026-04-25T14:02:24Z</time></trkpt><trkpt lat="36.38418780658483" lon="-5.427836328741926"><ele>23.0</ele><time>2026-04-25T14:02:25Z</time></trkpt><trkpt lat="36.38410980012066" lon="-5.427727543707304"><ele>23.0</ele><time>2026-04-25T14:02:26Z</time></trkpt><trkpt lat="36.38402486966747" lon="-5.427607365465363"><ele>23.0</ele><time>2026-04-25T14:02:27Z</time></trkpt><trkpt lat="36.383937711778" lon="-5.427477516389922"><ele>23.0</ele><time>2026-04-25T14:02:28Z</time></trkpt><trkpt lat="36.383849026552966" lon="-5.427339857917647"><ele>23.0</ele><time>2026-04-25T14:02:29Z</time></trkpt><trkpt lat="36.38376476251476" lon="-5.427205479054476"><ele>22.75</ele><time>2026-04-25T14:02:30Z</time></trkpt><trkpt lat="36.38368024366885" lon="-5.4270668164171605"><ele>22.5</ele><time>2026-04-25T14:02:31Z</time></trkpt><trkpt lat="36.38359463074828" lon="-5.426923830144904"><ele>22.25</ele><time>2026-04-25T14:02:32Z</time></trkpt><trkpt lat="36.383507751550134" lon="-5.426776951200224"><ele>22.0</ele><time>2026-04-25T14:02:33Z</time></trkpt><trkpt lat="36.38342087994883" lon="-5.426628013643455"><ele>22.0</ele><time>2026-04-25T14:02:34Z</time></trkpt><trkpt lat="36.38333415885355" lon="-5.426481212602246"><ele>22.0</ele><time>2026-04-25T14:02:35Z</time></trkpt><trkpt lat="36.383244739120734" lon="-5.426331559911606"><ele>22.0</ele><time>2026-04-25T14:02:36Z</time></trkpt><trkpt lat="36.38315557153769" lon="-5.4261800530641"><ele>22.0</ele><time>2026-04-25T14:02:37Z</time></trkpt><trkpt lat="36.383066833934365" lon="-5.426028475615556"><ele>22.0</ele><time>2026-04-25T14:02:38Z</time></trkpt><trkpt lat="36.38297476702986" lon="-5.425872554639714"><ele>22.0</ele><time>2026-04-25T14:02:39Z</time></trkpt><trkpt lat="36.38287747974178" lon="-5.425717131365625"><ele>22.0</ele><time>2026-04-25T14:02:40Z</time></trkpt><trkpt lat="36.3827765820692" lon="-5.425552426122118"><ele>22.333333333333332</ele><time>2026-04-25T14:02:41Z</time></trkpt><trkpt lat="36.382683667903386" lon="-5.425393346522211"><ele>22.666666666666668</ele><time>2026-04-25T14:02:42Z</time></trkpt><trkpt lat="36.382589969674356" lon="-5.425232563298324"><ele>23.0</ele><time>2026-04-25T14:02:43Z</time></trkpt><trkpt lat="36.38249668361417" lon="-5.425072487409444"><ele>23.0</ele><time>2026-04-25T14:02:44Z</time></trkpt><trkpt lat="36.38239987718038" lon="-5.424910560599888"><ele>23.0</ele><time>2026-04-25T14:02:45Z</time></trkpt><trkpt lat="36.38230176030103" lon="-5.424750085223986"><ele>23.0</ele><time>2026-04-25T14:02:46Z</time></trkpt><trkpt lat="36.382205699278494" lon="-5.424598466256618"><ele>21.666666666666668</ele><time>2026-04-25T14:02:47Z</time></trkpt><trkpt lat="36.38210557110275" lon="-5.424442684089539"><ele>20.333333333333332</ele><time>2026-04-25T14:02:48Z</time></trkpt><trkpt lat="36.38200207488391" lon="-5.424286134820614"><ele>19.0</ele><time>2026-04-25T14:02:49Z</time></trkpt><trkpt lat="36.3819001636743" lon="-5.424133785616603"><ele>19.0</ele><time>2026-04-25T14:02:50Z</time></trkpt><trkpt lat="36.38178968867545" lon="-5.423980603707362"><ele>19.0</ele><time>2026-04-25T14:02:51Z</time></trkpt><trkpt lat="36.38167310038209" lon="-5.423835575763988"><ele>19.0</ele><time>2026-04-25T14:02:52Z</time></trkpt><trkpt lat="36.38155438542817" lon="-5.423694093864463"><ele>19.333333333333332</ele><time>2026-04-25T14:02:53Z</time></trkpt><trkpt lat="36.38143796823861" lon="-5.4235599980163895"><ele>19.666666666666668</ele><time>2026-04-25T14:02:54Z</time></trkpt><trkpt lat="36.38132185953583" lon="-5.423426373027632"><ele>20.0</ele><time>2026-04-25T14:02:55Z</time></trkpt><trkpt lat="36.38120024292676" lon="-5.423287025240785"><ele>20.0</ele><time>2026-04-25T14:02:56Z</time></trkpt><trkpt lat="36.381072198788175" lon="-5.423151507155886"><ele>20.0</ele><time>2026-04-25T14:02:57Z</time></trkpt><trkpt lat="36.38093714337359" lon="-5.42301840163925"><ele>20.0</ele><time>2026-04-25T14:02:58Z</time></trkpt><trkpt lat="36.38079747433166" lon="-5.422890488285241"><ele>20.333333333333336</ele><time>2026-04-25T14:02:59Z</time></trkpt><trkpt lat="36.38064816228025" lon="-5.422768510780944"><ele>20.666666666666668</ele><time>2026-04-25T14:03:00Z</time></trkpt><trkpt lat="36.3804904429261" lon="-5.422653864662749"><ele>21.0</ele><time>2026-04-25T14:03:01Z</time></trkpt><trkpt lat="36.38033309854044" lon="-5.42254569444783"><ele>21.0</ele><time>2026-04-25T14:03:02Z</time></trkpt><trkpt lat="36.3801714383747" lon="-5.42243033809458"><ele>21.0</ele><time>2026-04-25T14:03:03Z</time></trkpt><trkpt lat="36.380006703520614" lon="-5.422314326127635"><ele>21.0</ele><time>2026-04-25T14:03:04Z</time></trkpt><trkpt lat="36.37983776303904" lon="-5.42219809224263"><ele>21.0</ele><time>2026-04-25T14:03:05Z</time></trkpt><trkpt lat="36.37966968052824" lon="-5.4220824487388795"><ele>21.0</ele><time>2026-04-25T14:03:06Z</time></trkpt><trkpt lat="36.37950385842563" lon="-5.421968360428022"><ele>21.0</ele><time>2026-04-25T14:03:07Z</time></trkpt><trkpt lat="36.379336191307516" lon="-5.4218530027101135"><ele>21.0</ele><time>2026-04-25T14:03:08Z</time></trkpt><trkpt lat="36.37916837449829" lon="-5.421737542000772"><ele>21.0</ele><time>2026-04-25T14:03:09Z</time></trkpt><trkpt lat="36.37900676838297" lon="-5.421625673200376"><ele>21.0</ele><time>2026-04-25T14:03:10Z</time></trkpt><trkpt lat="36.378840200242784" lon="-5.421509583634352"><ele>21.0</ele><time>2026-04-25T14:03:11Z</time></trkpt><trkpt lat="36.37867180624691" lon="-5.421392221574508"><ele>21.0</ele><time>2026-04-25T14:03:12Z</time></trkpt><trkpt lat="36.378500768537236" lon="-5.421273016992159"><ele>21.0</ele><time>2026-04-25T14:03:13Z</time></trkpt><trkpt lat="36.37832605736532" lon="-5.421151165970872"><ele>21.0</ele><time>2026-04-25T14:03:14Z</time></trkpt><trkpt lat="36.37815143817746" lon="-5.421027219084041"><ele>21.0</ele><time>2026-04-25T14:03:15Z</time></trkpt><trkpt lat="36.377971726151955" lon="-5.420899657218995"><ele>21.0</ele><time>2026-04-25T14:03:16Z</time></trkpt><trkpt lat="36.37779319821174" lon="-5.420775724917133"><ele>21.333333333333332</ele><time>2026-04-25T14:03:17Z</time></trkpt><trkpt lat="36.377610475203824" lon="-5.420651941620334"><ele>21.666666666666664</ele><time>2026-04-25T14:03:18Z</time></trkpt><trkpt lat="36.37742449761936" lon="-5.420523880979265"><ele>22.0</ele><time>2026-04-25T14:03:19Z</time></trkpt><trkpt lat="36.37723483531805" lon="-5.4203908568569075"><ele>21.333333333333332</ele><time>2026-04-25T14:03:20Z</time></trkpt><trkpt lat="36.37704489639794" lon="-5.420257707697521"><ele>20.666666666666668</ele><time>2026-04-25T14:03:21Z</time></trkpt><trkpt lat="36.37685475239567" lon="-5.420125237713836"><ele>20.0</ele><time>2026-04-25T14:03:22Z</time></trkpt><trkpt lat="36.37666957304241" lon="-5.419974885200777"><ele>20.0</ele><time>2026-04-25T14:03:23Z</time></trkpt><trkpt lat="36.376478870816584" lon="-5.419843386826398"><ele>20.0</ele><time>2026-04-25T14:03:24Z</time></trkpt><trkpt lat="36.37629254466586" lon="-5.419711468152618"><ele>20.0</ele><time>2026-04-25T14:03:25Z</time></trkpt><trkpt lat="36.37610015908528" lon="-5.41959952464889"><ele>20.666666666666668</ele><time>2026-04-25T14:03:26Z</time></trkpt><trkpt lat="36.37592128166439" lon="-5.419474206631083"><ele>21.333333333333332</ele><time>2026-04-25T14:03:27Z</time></trkpt><trkpt lat="36.37574843878049" lon="-5.419352343298357"><ele>22.0</ele><time>2026-04-25T14:03:27.999Z</time></trkpt><trkpt lat="36.37557985954787" lon="-5.41921455767544"><ele>22.0</ele><time>2026-04-25T14:03:28.999Z</time></trkpt><trkpt lat="36.375398814596345" lon="-5.419102866170477"><ele>22.0</ele><time>2026-04-25T14:03:29.999Z</time></trkpt><trkpt lat="36.37520800772278" lon="-5.419008015770265"><ele>22.0</ele><time>2026-04-25T14:03:30.999Z</time></trkpt><trkpt lat="36.375020594679484" lon="-5.41893195044645"><ele>22.0</ele><time>2026-04-25T14:03:31.999Z</time></trkpt><trkpt lat="36.374823121676165" lon="-5.418903266054225"><ele>22.0</ele><time>2026-04-25T14:03:32.999Z</time></trkpt><trkpt lat="36.37462184632658" lon="-5.418889116473934"><ele>22.0</ele><time>2026-04-25T14:03:33.999Z</time></trkpt><trkpt lat="36.37441402034019" lon="-5.418903199807444"><ele>22.666666666666664</ele><time>2026-04-25T14:03:34.999Z</time></trkpt><trkpt lat="36.37420101394602" lon="-5.418926824706938"><ele>23.333333333333332</ele><time>2026-04-25T14:03:35.999Z</time></trkpt><trkpt lat="36.37398507194303" lon="-5.418938036463293"><ele>24.0</ele><time>2026-04-25T14:03:36.999Z</time></trkpt><trkpt lat="36.37376886418421" lon="-5.418979117925261"><ele>24.0</ele><time>2026-04-25T14:03:37.999Z</time></trkpt><trkpt lat="36.37355537786449" lon="-5.419016079643696"><ele>24.0</ele><time>2026-04-25T14:03:38.999Z</time></trkpt><trkpt lat="36.37334001718627" lon="-5.419051460483338"><ele>24.0</ele><time>2026-04-25T14:03:39.999Z</time></trkpt><trkpt lat="36.37312394277072" lon="-5.419104351165436"><ele>24.0</ele><time>2026-04-25T14:03:40.999Z</time></trkpt><trkpt lat="36.37290426805428" lon="-5.419143513743066"><ele>24.0</ele><time>2026-04-25T14:03:41.999Z</time></trkpt><trkpt lat="36.37268447907441" lon="-5.419180281783635"><ele>24.0</ele><time>2026-04-25T14:03:42.999Z</time></trkpt><trkpt lat="36.37246503306883" lon="-5.419212970239807"><ele>24.0</ele><time>2026-04-25T14:03:43.999Z</time></trkpt><trkpt lat="36.37224939219613" lon="-5.419240656694148"><ele>24.0</ele><time>2026-04-25T14:03:44.999Z</time></trkpt><trkpt lat="36.37203432376352" lon="-5.419264816947492"><ele>24.0</ele><time>2026-04-25T14:03:45.999Z</time></trkpt><trkpt lat="36.37181807178849" lon="-5.4192827722583905"><ele>24.333333333333336</ele><time>2026-04-25T14:03:46.999Z</time></trkpt><trkpt lat="36.37159763610637" lon="-5.419264769108944"><ele>24.666666666666668</ele><time>2026-04-25T14:03:47.999Z</time></trkpt><trkpt lat="36.371377102849436" lon="-5.419256556490256"><ele>25.0</ele><time>2026-04-25T14:03:48.999Z</time></trkpt><trkpt lat="36.371155299726254" lon="-5.419239929196939"><ele>25.0</ele><time>2026-04-25T14:03:49.999Z</time></trkpt><trkpt lat="36.37093732754973" lon="-5.419245277248388"><ele>25.0</ele><time>2026-04-25T14:03:50.999Z</time></trkpt><trkpt lat="36.37072268419341" lon="-5.4192308147911055"><ele>25.0</ele><time>2026-04-25T14:03:51.999Z</time></trkpt><trkpt lat="36.37050269424334" lon="-5.419214557037785"><ele>25.0</ele><time>2026-04-25T14:03:52.999Z</time></trkpt><trkpt lat="36.37029000803132" lon="-5.419198839011263"><ele>25.0</ele><time>2026-04-25T14:03:53.999Z</time></trkpt><trkpt lat="36.37007974689519" lon="-5.4191634390829435"><ele>25.0</ele><time>2026-04-25T14:03:54.999Z</time></trkpt><trkpt lat="36.36986533018373" lon="-5.419169514224797"><ele>24.666666666666668</ele><time>2026-04-25T14:03:55.999Z</time></trkpt><trkpt lat="36.369661583901966" lon="-5.419138075988059"><ele>24.333333333333336</ele><time>2026-04-25T14:03:56.999Z</time></trkpt><trkpt lat="36.3694510369731" lon="-5.419125727801274"><ele>24.0</ele><time>2026-04-25T14:03:57.999Z</time></trkpt><trkpt lat="36.36923933957213" lon="-5.419111996035248"><ele>24.0</ele><time>2026-04-25T14:03:58.999Z</time></trkpt><trkpt lat="36.3690320643965" lon="-5.419115243199096"><ele>24.0</ele><time>2026-04-25T14:03:59.999Z</time></trkpt><trkpt lat="36.36883006838939" lon="-5.4191013848557725"><ele>24.0</ele><time>2026-04-25T14:04:00.999Z</time></trkpt><trkpt lat="36.36862074031097" lon="-5.419088962246624"><ele>24.0</ele><time>2026-04-25T14:04:01.999Z</time></trkpt><trkpt lat="36.36840910522589" lon="-5.419076723706791"><ele>24.0</ele><time>2026-04-25T14:04:02.999Z</time></trkpt><trkpt lat="36.36820605604131" lon="-5.419065349150919"><ele>24.0</ele><time>2026-04-25T14:04:03.999Z</time></trkpt><trkpt lat="36.36799861265227" lon="-5.419053727950823"><ele>24.666666666666664</ele><time>2026-04-25T14:04:04.999Z</time></trkpt><trkpt lat="36.3677903197783" lon="-5.419042059162118"><ele>25.333333333333332</ele><time>2026-04-25T14:04:05.999Z</time></trkpt><trkpt lat="36.36758252979266" lon="-5.419000258693766"><ele>26.0</ele><time>2026-04-25T14:04:06.999Z</time></trkpt><trkpt lat="36.367376395584614" lon="-5.418980745091486"><ele>25.666666666666664</ele><time>2026-04-25T14:04:07.999Z</time></trkpt><trkpt lat="36.367162628747685" lon="-5.418969168422134"><ele>25.333333333333336</ele><time>2026-04-25T14:04:08.999Z</time></trkpt><trkpt lat="36.36694751788875" lon="-5.41895881360411"><ele>25.0</ele><time>2026-04-25T14:04:09.999Z</time></trkpt><trkpt lat="36.36672808489336" lon="-5.418939729790941"><ele>25.0</ele><time>2026-04-25T14:04:10.999Z</time></trkpt><trkpt lat="36.366504503767594" lon="-5.418925589531532"><ele>25.0</ele><time>2026-04-25T14:04:11.999Z</time></trkpt><trkpt lat="36.366292367686164" lon="-5.4189102048332485"><ele>25.0</ele><time>2026-04-25T14:04:12.999Z</time></trkpt><trkpt lat="36.36607481050727" lon="-5.418893672454337"><ele>25.0</ele><time>2026-04-25T14:04:13.999Z</time></trkpt><trkpt lat="36.365871294057435" lon="-5.418882279487102"><ele>25.0</ele><time>2026-04-25T14:04:14.999Z</time></trkpt><trkpt lat="36.36565718180378" lon="-5.418868428420303"><ele>25.0</ele><time>2026-04-25T14:04:15.999Z</time></trkpt><trkpt lat="36.365449138144925" lon="-5.418862190991232"><ele>24.666666666666668</ele><time>2026-04-25T14:04:16.999Z</time></trkpt><trkpt lat="36.365231828982296" lon="-5.418845820132663"><ele>24.333333333333336</ele><time>2026-04-25T14:04:17.999Z</time></trkpt><trkpt lat="36.36501755424654" lon="-5.418832753191693"><ele>24.0</ele><time>2026-04-25T14:04:18.999Z</time></trkpt><trkpt lat="36.3648093483244" lon="-5.418815147434867"><ele>25.333333333333336</ele><time>2026-04-25T14:04:19.999Z</time></trkpt><trkpt lat="36.364601240773354" lon="-5.418806447304928"><ele>26.666666666666668</ele><time>2026-04-25T14:04:20.999Z</time></trkpt><trkpt lat="36.36438499082309" lon="-5.418791281779323"><ele>28.0</ele><time>2026-04-25T14:04:21.999Z</time></trkpt><trkpt lat="36.364170044363014" lon="-5.418778781833685"><ele>28.0</ele><time>2026-04-25T14:04:22.999Z</time></trkpt><trkpt lat="36.363955583746915" lon="-5.418762656036189"><ele>28.0</ele><time>2026-04-25T14:04:23.999Z</time></trkpt><trkpt lat="36.36372538428556" lon="-5.4187572668232376"><ele>28.0</ele><time>2026-04-25T14:04:24.999Z</time></trkpt><trkpt lat="36.363510794098474" lon="-5.418739773667135"><ele>27.333333333333336</ele><time>2026-04-25T14:04:25.999Z</time></trkpt><trkpt lat="36.36329002338225" lon="-5.41872073305418"><ele>26.666666666666664</ele><time>2026-04-25T14:04:26.999Z</time></trkpt><trkpt lat="36.363076071647015" lon="-5.4187092624995765"><ele>26.0</ele><time>2026-04-25T14:04:27.999Z</time></trkpt><trkpt lat="36.36286177435765" lon="-5.418687674240907"><ele>26.0</ele><time>2026-04-25T14:04:29.001Z</time></trkpt><trkpt lat="36.362652872590886" lon="-5.4186790922467925"><ele>26.0</ele><time>2026-04-25T14:04:30.001Z</time></trkpt><trkpt lat="36.362440231044424" lon="-5.418664790145109"><ele>26.0</ele><time>2026-04-25T14:04:31.001Z</time></trkpt><trkpt lat="36.36224832240094" lon="-5.418653268725644"><ele>26.666666666666664</ele><time>2026-04-25T14:04:32.001Z</time></trkpt><trkpt lat="36.36204190375001" lon="-5.418642892833924"><ele>27.333333333333336</ele><time>2026-04-25T14:04:33.001Z</time></trkpt><trkpt lat="36.361835187137785" lon="-5.418629075587205"><ele>28.0</ele><time>2026-04-25T14:04:34.001Z</time></trkpt><trkpt lat="36.36163073430714" lon="-5.418603301324166"><ele>28.0</ele><time>2026-04-25T14:04:35.001Z</time></trkpt><trkpt lat="36.36142438485845" lon="-5.418559086102407"><ele>28.0</ele><time>2026-04-25T14:04:36.001Z</time></trkpt><trkpt lat="36.361216345614075" lon="-5.4184986947629294"><ele>28.0</ele><time>2026-04-25T14:04:37Z</time></trkpt><trkpt lat="36.361012843579026" lon="-5.418423236861892"><ele>28.333333333333336</ele><time>2026-04-25T14:04:38Z</time></trkpt><trkpt lat="36.36081030799664" lon="-5.418330827169936"><ele>28.666666666666664</ele><time>2026-04-25T14:04:39Z</time></trkpt><trkpt lat="36.3606060727497" lon="-5.41823838145853"><ele>29.0</ele><time>2026-04-25T14:04:40Z</time></trkpt><trkpt lat="36.36039799744292" lon="-5.418128479566614"><ele>29.666666666666664</ele><time>2026-04-25T14:04:41Z</time></trkpt><trkpt lat="36.3601874397856" lon="-5.418027855888098"><ele>30.333333333333336</ele><time>2026-04-25T14:04:42Z</time></trkpt><trkpt lat="36.35997961101136" lon="-5.417930927974513"><ele>31.0</ele><time>2026-04-25T14:04:43Z</time></trkpt><trkpt lat="36.3597727466579" lon="-5.417829816847302"><ele>29.333333333333336</ele><time>2026-04-25T14:04:44Z</time></trkpt><trkpt lat="36.359566099609324" lon="-5.417730283065211"><ele>27.666666666666664</ele><time>2026-04-25T14:04:45Z</time></trkpt><trkpt lat="36.359369598075055" lon="-5.417637747348004"><ele>26.0</ele><time>2026-04-25T14:04:46Z</time></trkpt><trkpt lat="36.35917061649732" lon="-5.417541117962683"><ele>26.0</ele><time>2026-04-25T14:04:47Z</time></trkpt><trkpt lat="36.358973074288144" lon="-5.417443805991414"><ele>26.0</ele><time>2026-04-25T14:04:48Z</time></trkpt><trkpt lat="36.35877413915125" lon="-5.417350999841342"><ele>26.0</ele><time>2026-04-25T14:04:49Z</time></trkpt><trkpt lat="36.35857124299433" lon="-5.417254397372914"><ele>26.333333333333332</ele><time>2026-04-25T14:04:50Z</time></trkpt><trkpt lat="36.35837560549722" lon="-5.417158968348124"><ele>26.666666666666664</ele><time>2026-04-25T14:04:51Z</time></trkpt><trkpt lat="36.358174242523056" lon="-5.417062875275751"><ele>27.0</ele><time>2026-04-25T14:04:52Z</time></trkpt><trkpt lat="36.35797671825509" lon="-5.41696900849043"><ele>26.0</ele><time>2026-04-25T14:04:53Z</time></trkpt><trkpt lat="36.35778100223043" lon="-5.416868712227254"><ele>25.0</ele><time>2026-04-25T14:04:54Z</time></trkpt><trkpt lat="36.35757952414171" lon="-5.416776753178758"><ele>24.0</ele><time>2026-04-25T14:04:55Z</time></trkpt><trkpt lat="36.35738523496609" lon="-5.416682262910395"><ele>22.666666666666668</ele><time>2026-04-25T14:04:56Z</time></trkpt><trkpt lat="36.357193880485426" lon="-5.416587281797476"><ele>21.333333333333336</ele><time>2026-04-25T14:04:57Z</time></trkpt><trkpt lat="36.356998884611386" lon="-5.416492857154821"><ele>20.0</ele><time>2026-04-25T14:04:58Z</time></trkpt><trkpt lat="36.356804291728906" lon="-5.416407334557204"><ele>21.0</ele><time>2026-04-25T14:04:59Z</time></trkpt><trkpt lat="36.35660468130108" lon="-5.416311999148426"><ele>22.0</ele><time>2026-04-25T14:05:00Z</time></trkpt><trkpt lat="36.35640957900841" lon="-5.416216359450979"><ele>23.0</ele><time>2026-04-25T14:05:01Z</time></trkpt><trkpt lat="36.356214797847706" lon="-5.416121121796243"><ele>23.0</ele><time>2026-04-25T14:05:02Z</time></trkpt><trkpt lat="36.35602029289359" lon="-5.416028601301161"><ele>23.0</ele><time>2026-04-25T14:05:03Z</time></trkpt><trkpt lat="36.35582009976175" lon="-5.415931716647857"><ele>23.0</ele><time>2026-04-25T14:05:04Z</time></trkpt><trkpt lat="36.355620380916655" lon="-5.4158362381007805"><ele>22.666666666666668</ele><time>2026-04-25T14:05:05Z</time></trkpt><trkpt lat="36.35542021477101" lon="-5.415736643882278"><ele>22.333333333333332</ele><time>2026-04-25T14:05:06Z</time></trkpt><trkpt lat="36.35522251885973" lon="-5.415637017654172"><ele>22.0</ele><time>2026-04-25T14:05:07Z</time></trkpt><trkpt lat="36.355028850287184" lon="-5.415545979285345"><ele>22.0</ele><time>2026-04-25T14:05:08Z</time></trkpt><trkpt lat="36.35483050503056" lon="-5.415452258930363"><ele>22.0</ele><time>2026-04-25T14:05:09Z</time></trkpt><trkpt lat="36.35463576226269" lon="-5.415362902851471"><ele>22.0</ele><time>2026-04-25T14:05:10Z</time></trkpt><trkpt lat="36.35443857762581" lon="-5.415272285664491"><ele>22.0</ele><time>2026-04-25T14:05:11Z</time></trkpt><trkpt lat="36.35423286354049" lon="-5.415198029841747"><ele>22.0</ele><time>2026-04-25T14:05:12Z</time></trkpt><trkpt lat="36.354032283047324" lon="-5.415103050550639"><ele>22.0</ele><time>2026-04-25T14:05:13Z</time></trkpt><trkpt lat="36.35382975435121" lon="-5.415006456617296"><ele>21.666666666666664</ele><time>2026-04-25T14:05:14Z</time></trkpt><trkpt lat="36.35363178219419" lon="-5.414911970826145"><ele>21.333333333333332</ele><time>2026-04-25T14:05:15Z</time></trkpt><trkpt lat="36.35343287102725" lon="-5.414817343763737"><ele>21.0</ele><time>2026-04-25T14:05:16Z</time></trkpt><trkpt lat="36.35323683573303" lon="-5.414724412014735"><ele>21.0</ele><time>2026-04-25T14:05:17Z</time></trkpt><trkpt lat="36.35303921888464" lon="-5.414630730516967"><ele>21.0</ele><time>2026-04-25T14:05:18Z</time></trkpt><trkpt lat="36.35284574287085" lon="-5.414538093273393"><ele>21.0</ele><time>2026-04-25T14:05:19Z</time></trkpt><trkpt lat="36.35264873781945" lon="-5.414442936674955"><ele>21.0</ele><time>2026-04-25T14:05:20Z</time></trkpt><trkpt lat="36.352454949488454" lon="-5.414349333809348"><ele>21.0</ele><time>2026-04-25T14:05:21Z</time></trkpt><trkpt lat="36.3522565317042" lon="-5.414257503573263"><ele>21.0</ele><time>2026-04-25T14:05:22Z</time></trkpt><trkpt lat="36.35206068426716" lon="-5.414167937470892"><ele>21.0</ele><time>2026-04-25T14:05:23Z</time></trkpt><trkpt lat="36.35186217916329" lon="-5.414076333992648"><ele>21.0</ele><time>2026-04-25T14:05:24Z</time></trkpt><trkpt lat="36.35166420246489" lon="-5.413980675360196"><ele>21.0</ele><time>2026-04-25T14:05:25Z</time></trkpt><trkpt lat="36.35146755606389" lon="-5.413884442425322"><ele>21.333333333333332</ele><time>2026-04-25T14:05:26Z</time></trkpt><trkpt lat="36.351268654532674" lon="-5.413787105889345"><ele>21.666666666666664</ele><time>2026-04-25T14:05:27Z</time></trkpt><trkpt lat="36.35107237193601" lon="-5.413673252822488"><ele>22.0</ele><time>2026-04-25T14:05:28Z</time></trkpt><trkpt lat="36.35087360225275" lon="-5.413575435302318"><ele>22.0</ele><time>2026-04-25T14:05:29Z</time></trkpt><trkpt lat="36.35067761427236" lon="-5.413484609835352"><ele>22.0</ele><time>2026-04-25T14:05:30Z</time></trkpt><trkpt lat="36.35047509450429" lon="-5.413411331426834"><ele>22.0</ele><time>2026-04-25T14:05:31Z</time></trkpt><trkpt lat="36.35028964187535" lon="-5.4133027366650985"><ele>21.666666666666664</ele><time>2026-04-25T14:05:32Z</time></trkpt><trkpt lat="36.3500836098576" lon="-5.413227988546247"><ele>21.333333333333332</ele><time>2026-04-25T14:05:33Z</time></trkpt><trkpt lat="36.34988178262334" lon="-5.413137045205316"><ele>21.0</ele><time>2026-04-25T14:05:34Z</time></trkpt><trkpt lat="36.349683005874475" lon="-5.413058559252504"><ele>22.333333333333336</ele><time>2026-04-25T14:05:35Z</time></trkpt><trkpt lat="36.349474591015955" lon="-5.412986642240787"><ele>23.666666666666668</ele><time>2026-04-25T14:05:36Z</time></trkpt><trkpt lat="36.3492639055482" lon="-5.412916791188727"><ele>25.0</ele><time>2026-04-25T14:05:36.999Z</time></trkpt><trkpt lat="36.34905784916059" lon="-5.412848474871764"><ele>23.666666666666668</ele><time>2026-04-25T14:05:37.999Z</time></trkpt><trkpt lat="36.34885056183492" lon="-5.412779750451768"><ele>22.333333333333336</ele><time>2026-04-25T14:05:38.999Z</time></trkpt><trkpt lat="36.348653822764476" lon="-5.412697198333602"><ele>21.0</ele><time>2026-04-25T14:05:39.999Z</time></trkpt><trkpt lat="36.34845340141625" lon="-5.412629261047355"><ele>21.0</ele><time>2026-04-25T14:05:40.999Z</time></trkpt><trkpt lat="36.348254197355324" lon="-5.412567196834329"><ele>21.0</ele><time>2026-04-25T14:05:41.999Z</time></trkpt><trkpt lat="36.3480550108145" lon="-5.412510130383694"><ele>21.0</ele><time>2026-04-25T14:05:42.999Z</time></trkpt><trkpt lat="36.34785338040853" lon="-5.412450736449125"><ele>20.333333333333332</ele><time>2026-04-25T14:05:43.999Z</time></trkpt><trkpt lat="36.347648888164585" lon="-5.412391448419677"><ele>19.666666666666664</ele><time>2026-04-25T14:05:44.999Z</time></trkpt><trkpt lat="36.34745172671331" lon="-5.41233389823222"><ele>19.0</ele><time>2026-04-25T14:05:45.999Z</time></trkpt><trkpt lat="36.34724865025156" lon="-5.412270467306983"><ele>19.333333333333332</ele><time>2026-04-25T14:05:46.999Z</time></trkpt><trkpt lat="36.347053619543985" lon="-5.412208484174363"><ele>19.666666666666668</ele><time>2026-04-25T14:05:47.999Z</time></trkpt><trkpt lat="36.34685152826622" lon="-5.412142438260138"><ele>20.0</ele><time>2026-04-25T14:05:48.999Z</time></trkpt><trkpt lat="36.34664934778431" lon="-5.4120789033674646"><ele>21.0</ele><time>2026-04-25T14:05:49.999Z</time></trkpt><trkpt lat="36.34644539744996" lon="-5.412017329331231"><ele>22.0</ele><time>2026-04-25T14:05:50.999Z</time></trkpt><trkpt lat="36.34624288272882" lon="-5.411954237338601"><ele>23.0</ele><time>2026-04-25T14:05:51.999Z</time></trkpt><trkpt lat="36.34603310255711" lon="-5.411883333505064"><ele>23.0</ele><time>2026-04-25T14:05:52.999Z</time></trkpt><trkpt lat="36.34582273682222" lon="-5.41181291408987"><ele>23.0</ele><time>2026-04-25T14:05:53.999Z</time></trkpt><trkpt lat="36.34561699325432" lon="-5.411745790439148"><ele>23.0</ele><time>2026-04-25T14:05:54.999Z</time></trkpt><trkpt lat="36.345405479945725" lon="-5.411672186327087"><ele>22.333333333333336</ele><time>2026-04-25T14:05:55.999Z</time></trkpt><trkpt lat="36.345192117540044" lon="-5.411601733544694"><ele>21.666666666666668</ele><time>2026-04-25T14:05:56.999Z</time></trkpt><trkpt lat="36.34497876044243" lon="-5.411531339304967"><ele>21.0</ele><time>2026-04-25T14:05:57.999Z</time></trkpt><trkpt lat="36.34476885708453" lon="-5.411469445465109"><ele>21.0</ele><time>2026-04-25T14:05:58.999Z</time></trkpt><trkpt lat="36.34456583626055" lon="-5.4114060824782335"><ele>21.0</ele><time>2026-04-25T14:05:59.999Z</time></trkpt><trkpt lat="36.34435513820237" lon="-5.411335416106569"><ele>21.0</ele><time>2026-04-25T14:06:00.999Z</time></trkpt><trkpt lat="36.34416853968155" lon="-5.4112613333042185"><ele>21.0</ele><time>2026-04-25T14:06:01.999Z</time></trkpt><trkpt lat="36.343971847896334" lon="-5.411195444275228"><ele>21.0</ele><time>2026-04-25T14:06:02.999Z</time></trkpt><trkpt lat="36.34377242721732" lon="-5.41114644417368"><ele>21.0</ele><time>2026-04-25T14:06:03.999Z</time></trkpt><trkpt lat="36.343571403947756" lon="-5.411079210038381"><ele>21.666666666666668</ele><time>2026-04-25T14:06:04.999Z</time></trkpt><trkpt lat="36.34336808482533" lon="-5.411011068525917"><ele>22.333333333333336</ele><time>2026-04-25T14:06:05.999Z</time></trkpt><trkpt lat="36.34316395799806" lon="-5.410942656308058"><ele>23.0</ele><time>2026-04-25T14:06:06.999Z</time></trkpt><trkpt lat="36.342949350213665" lon="-5.410871675073864"><ele>23.0</ele><time>2026-04-25T14:06:07.999Z</time></trkpt><trkpt lat="36.342742113351854" lon="-5.410809436678878"><ele>23.0</ele><time>2026-04-25T14:06:08.999Z</time></trkpt><trkpt lat="36.34253059080307" lon="-5.4107440461471095"><ele>23.0</ele><time>2026-04-25T14:06:09.999Z</time></trkpt><trkpt lat="36.34232573201867" lon="-5.410666737710271"><ele>23.666666666666668</ele><time>2026-04-25T14:06:10.999Z</time></trkpt><trkpt lat="36.342126126776684" lon="-5.410564901582428"><ele>24.333333333333336</ele><time>2026-04-25T14:06:11.999Z</time></trkpt><trkpt lat="36.341924501203756" lon="-5.410480421527816"><ele>25.0</ele><time>2026-04-25T14:06:12.999Z</time></trkpt><trkpt lat="36.34172619850773" lon="-5.410382700301247"><ele>25.0</ele><time>2026-04-25T14:06:13.999Z</time></trkpt><trkpt lat="36.34152282438892" lon="-5.410291944639306"><ele>25.0</ele><time>2026-04-25T14:06:14.999Z</time></trkpt><trkpt lat="36.34132086778224" lon="-5.41019259599528"><ele>25.0</ele><time>2026-04-25T14:06:15.999Z</time></trkpt><trkpt lat="36.34111751893496" lon="-5.410092562464505"><ele>23.0</ele><time>2026-04-25T14:06:16.999Z</time></trkpt><trkpt lat="36.340920073157584" lon="-5.409989435057885"><ele>21.0</ele><time>2026-04-25T14:06:17.999Z</time></trkpt><trkpt lat="36.340753329044496" lon="-5.409763245130456"><ele>22.666666666666664</ele><time>2026-04-25T14:06:18.999Z</time></trkpt><trkpt lat="36.34055322290694" lon="-5.40964003962306"><ele>24.333333333333332</ele><time>2026-04-25T14:06:19.999Z</time></trkpt><trkpt lat="36.340357352334955" lon="-5.409516747460745"><ele>26.0</ele><time>2026-04-25T14:06:20.999Z</time></trkpt><trkpt lat="36.340161668777775" lon="-5.4093924117184855"><ele>26.0</ele><time>2026-04-25T14:06:21.999Z</time></trkpt><trkpt lat="36.339971734082816" lon="-5.409267727100283"><ele>26.0</ele><time>2026-04-25T14:06:22.999Z</time></trkpt><trkpt lat="36.33979109065568" lon="-5.409148311235158"><ele>26.0</ele><time>2026-04-25T14:06:23.999Z</time></trkpt><trkpt lat="36.339617507573685" lon="-5.4090411618001175"><ele>25.0</ele><time>2026-04-25T14:06:24.999Z</time></trkpt><trkpt lat="36.33944234811109" lon="-5.40893168852703"><ele>24.0</ele><time>2026-04-25T14:06:25.999Z</time></trkpt><trkpt lat="36.33926097627708" lon="-5.408821067612359"><ele>23.0</ele><time>2026-04-25T14:06:26.999Z</time></trkpt><trkpt lat="36.33907542536764" lon="-5.408702995910546"><ele>23.0</ele><time>2026-04-25T14:06:27.999Z</time></trkpt><trkpt lat="36.33888818802745" lon="-5.408582267588593"><ele>23.0</ele><time>2026-04-25T14:06:28.999Z</time></trkpt><trkpt lat="36.33869859770837" lon="-5.408461256755081"><ele>23.0</ele><time>2026-04-25T14:06:29.999Z</time></trkpt><trkpt lat="36.33850375000279" lon="-5.408343691848227"><ele>22.666666666666668</ele><time>2026-04-25T14:06:30.999Z</time></trkpt><trkpt lat="36.33830820784206" lon="-5.408221956318366"><ele>22.333333333333332</ele><time>2026-04-25T14:06:31.999Z</time></trkpt><trkpt lat="36.33812178762344" lon="-5.408091228080782"><ele>22.0</ele><time>2026-04-25T14:06:32.999Z</time></trkpt><trkpt lat="36.33792725508787" lon="-5.407972141761889"><ele>24.0</ele><time>2026-04-25T14:06:33.999Z</time></trkpt><trkpt lat="36.33773444149594" lon="-5.407857181757142"><ele>26.0</ele><time>2026-04-25T14:06:35.001Z</time></trkpt><trkpt lat="36.337543945968406" lon="-5.40774562952003"><ele>28.0</ele><time>2026-04-25T14:06:36.001Z</time></trkpt><trkpt lat="36.33735568704175" lon="-5.4076395993668775"><ele>29.333333333333336</ele><time>2026-04-25T14:06:37.001Z</time></trkpt><trkpt lat="36.33716656931297" lon="-5.407546082623267"><ele>30.666666666666664</ele><time>2026-04-25T14:06:38.001Z</time></trkpt><trkpt lat="36.33697486429017" lon="-5.407469902803429"><ele>32.0</ele><time>2026-04-25T14:06:39.001Z</time></trkpt><trkpt lat="36.336776412440905" lon="-5.4074231444451"><ele>32.0</ele><time>2026-04-25T14:06:40.001Z</time></trkpt><trkpt lat="36.33657356628245" lon="-5.407405582256586"><ele>32.0</ele><time>2026-04-25T14:06:41.001Z</time></trkpt><trkpt lat="36.33636841953101" lon="-5.407386829052862"><ele>32.0</ele><time>2026-04-25T14:06:42.001Z</time></trkpt><trkpt lat="36.33616713083354" lon="-5.407364909569969"><ele>31.333333333333332</ele><time>2026-04-25T14:06:43.001Z</time></trkpt><trkpt lat="36.335968961718095" lon="-5.4073421876041134"><ele>30.666666666666664</ele><time>2026-04-25T14:06:44.001Z</time></trkpt><trkpt lat="36.33578332039662" lon="-5.407316411884133"><ele>30.0</ele><time>2026-04-25T14:06:45.001Z</time></trkpt><trkpt lat="36.335607927435284" lon="-5.407293990240022"><ele>27.0</ele><time>2026-04-25T14:06:46.001Z</time></trkpt><trkpt lat="36.33544236887911" lon="-5.40727417129041"><ele>24.0</ele><time>2026-04-25T14:06:47.001Z</time></trkpt><trkpt lat="36.33528641119245" lon="-5.407254430131419"><ele>21.0</ele><time>2026-04-25T14:06:48.001Z</time></trkpt><trkpt lat="36.335143502129725" lon="-5.407234975175306"><ele>21.0</ele><time>2026-04-25T14:06:49.001Z</time></trkpt><trkpt lat="36.3350087985464" lon="-5.407197353971909"><ele>21.0</ele><time>2026-04-25T14:06:50.001Z</time></trkpt><trkpt lat="36.33489259010621" lon="-5.407116869834915"><ele>21.0</ele><time>2026-04-25T14:06:51.001Z</time></trkpt><trkpt lat="36.33476983302029" lon="-5.4070065191152885"><ele>21.0</ele><time>2026-04-25T14:06:52Z</time></trkpt><trkpt lat="36.33466535032427" lon="-5.406860258808575"><ele>20.333333333333332</ele><time>2026-04-25T14:06:53Z</time></trkpt><trkpt lat="36.33457709725665" lon="-5.406692051952801"><ele>19.666666666666664</ele><time>2026-04-25T14:06:54Z</time></trkpt><trkpt lat="36.33449091861178" lon="-5.40649663951749"><ele>19.0</ele><time>2026-04-25T14:06:55Z</time></trkpt><trkpt lat="36.33440739406616" lon="-5.406300066801871"><ele>20.333333333333332</ele><time>2026-04-25T14:06:56Z</time></trkpt><trkpt lat="36.33431413859764" lon="-5.406107938805244"><ele>21.666666666666668</ele><time>2026-04-25T14:06:57Z</time></trkpt><trkpt lat="36.33422408560442" lon="-5.405907021805682"><ele>23.0</ele><time>2026-04-25T14:06:58Z</time></trkpt><trkpt lat="36.33413262706909" lon="-5.405689903152263"><ele>23.5</ele><time>2026-04-25T14:06:59Z</time></trkpt><trkpt lat="36.3340340347158" lon="-5.405454314987484"><ele>24.0</ele><time>2026-04-25T14:07:00Z</time></trkpt><trkpt lat="36.33391501799195" lon="-5.405180687060387"><ele>21.5</ele><time>2026-04-25T14:07:01Z</time></trkpt><trkpt lat="36.33378246973995" lon="-5.4048898611264695"><ele>19.0</ele><time>2026-04-25T14:07:02Z</time></trkpt><trkpt lat="36.33365695236038" lon="-5.404636356588541"><ele>19.0</ele><time>2026-04-25T14:07:03Z</time></trkpt><trkpt lat="36.33355308613868" lon="-5.40441086405188"><ele>19.0</ele><time>2026-04-25T14:07:04Z</time></trkpt><trkpt lat="36.33345486102116" lon="-5.404204584841752"><ele>19.0</ele><time>2026-04-25T14:07:05Z</time></trkpt><trkpt lat="36.33335716165629" lon="-5.404004423579934"><ele>18.333333333333332</ele><time>2026-04-25T14:07:06Z</time></trkpt><trkpt lat="36.333253178197126" lon="-5.403786830270179"><ele>17.666666666666668</ele><time>2026-04-25T14:07:07Z</time></trkpt><trkpt lat="36.33314964003697" lon="-5.403568749654945"><ele>17.0</ele><time>2026-04-25T14:07:08Z</time></trkpt><trkpt lat="36.33304875902916" lon="-5.4033759575249665"><ele>17.0</ele><time>2026-04-25T14:07:09Z</time></trkpt><trkpt lat="36.33297060390002" lon="-5.403178411727732"><ele>17.0</ele><time>2026-04-25T14:07:10Z</time></trkpt><trkpt lat="36.332882717657675" lon="-5.40298446491069"><ele>17.0</ele><time>2026-04-25T14:07:11Z</time></trkpt><trkpt lat="36.33280164062048" lon="-5.402807870182269"><ele>17.25</ele><time>2026-04-25T14:07:12Z</time></trkpt><trkpt lat="36.3327303665338" lon="-5.402651746019555"><ele>17.5</ele><time>2026-04-25T14:07:13Z</time></trkpt><trkpt lat="36.33265378430243" lon="-5.402509687620773"><ele>17.75</ele><time>2026-04-25T14:07:14Z</time></trkpt><trkpt lat="36.33256547201852" lon="-5.4024097892056036"><ele>18.0</ele><time>2026-04-25T14:07:15Z</time></trkpt><trkpt lat="36.33246251879267" lon="-5.402367235647189"><ele>18.0</ele><time>2026-04-25T14:07:16Z</time></trkpt><trkpt lat="36.33233375769561" lon="-5.4023950291617995"><ele>18.0</ele><time>2026-04-25T14:07:17Z</time></trkpt><trkpt lat="36.332215445482305" lon="-5.402436828879086"><ele>18.0</ele><time>2026-04-25T14:07:18Z</time></trkpt><trkpt lat="36.33209219223178" lon="-5.402503858148535"><ele>18.0</ele><time>2026-04-25T14:07:19Z</time></trkpt><trkpt lat="36.331957586099804" lon="-5.402580057755735"><ele>18.0</ele><time>2026-04-25T14:07:20Z</time></trkpt><trkpt lat="36.33180795651104" lon="-5.402659082960231"><ele>18.0</ele><time>2026-04-25T14:07:21Z</time></trkpt><trkpt lat="36.331644562888506" lon="-5.402741072153928"><ele>18.0</ele><time>2026-04-25T14:07:22Z</time></trkpt><trkpt lat="36.331470775529795" lon="-5.402820409205025"><ele>18.0</ele><time>2026-04-25T14:07:23Z</time></trkpt><trkpt lat="36.331284636014416" lon="-5.4028982804430585"><ele>18.0</ele><time>2026-04-25T14:07:24Z</time></trkpt><trkpt lat="36.33108951098385" lon="-5.402958672327784"><ele>18.0</ele><time>2026-04-25T14:07:25Z</time></trkpt><trkpt lat="36.33088568800766" lon="-5.403011177176145"><ele>18.0</ele><time>2026-04-25T14:07:26Z</time></trkpt><trkpt lat="36.33070622725862" lon="-5.403074066383202"><ele>18.0</ele><time>2026-04-25T14:07:27Z</time></trkpt><trkpt lat="36.330533673260454" lon="-5.403149134255393"><ele>18.0</ele><time>2026-04-25T14:07:28Z</time></trkpt><trkpt lat="36.33035916473499" lon="-5.403239372313881"><ele>18.0</ele><time>2026-04-25T14:07:29Z</time></trkpt><trkpt lat="36.3301829286756" lon="-5.403343072638322"><ele>18.0</ele><time>2026-04-25T14:07:30Z</time></trkpt><trkpt lat="36.330001447554" lon="-5.403446288663905"><ele>18.0</ele><time>2026-04-25T14:07:31Z</time></trkpt><trkpt lat="36.32982111380173" lon="-5.40356814728918"><ele>18.0</ele><time>2026-04-25T14:07:32Z</time></trkpt><trkpt lat="36.32962363740506" lon="-5.403659828383939"><ele>18.0</ele><time>2026-04-25T14:07:33Z</time></trkpt><trkpt lat="36.32943271233284" lon="-5.403767244161754"><ele>18.0</ele><time>2026-04-25T14:07:34Z</time></trkpt><trkpt lat="36.32924401624108" lon="-5.403874488586078"><ele>18.0</ele><time>2026-04-25T14:07:35Z</time></trkpt><trkpt lat="36.32906164931771" lon="-5.4039961564080805"><ele>18.0</ele><time>2026-04-25T14:07:36Z</time></trkpt><trkpt lat="36.3288631475558" lon="-5.404077335625958"><ele>18.0</ele><time>2026-04-25T14:07:37Z</time></trkpt><trkpt lat="36.32867069598027" lon="-5.4041895513836735"><ele>18.666666666666668</ele><time>2026-04-25T14:07:38Z</time></trkpt><trkpt lat="36.32846240728018" lon="-5.404272515501948"><ele>19.333333333333336</ele><time>2026-04-25T14:07:39Z</time></trkpt><trkpt lat="36.32824577659158" lon="-5.404309580734181"><ele>20.0</ele><time>2026-04-25T14:07:40Z</time></trkpt><trkpt lat="36.328033088805014" lon="-5.404344167123306"><ele>20.0</ele><time>2026-04-25T14:07:41Z</time></trkpt><trkpt lat="36.327823258427244" lon="-5.404369438565768"><ele>20.0</ele><time>2026-04-25T14:07:42Z</time></trkpt><trkpt lat="36.32762414666924" lon="-5.404413910584936"><ele>20.0</ele><time>2026-04-25T14:07:43Z</time></trkpt><trkpt lat="36.327421010461656" lon="-5.404441130646696"><ele>20.0</ele><time>2026-04-25T14:07:44Z</time></trkpt><trkpt lat="36.327215820987696" lon="-5.404468625846489"><ele>20.0</ele><time>2026-04-25T14:07:45Z</time></trkpt><trkpt lat="36.32701733240481" lon="-5.404495048201884"><ele>20.0</ele><time>2026-04-25T14:07:46Z</time></trkpt><trkpt lat="36.3268194113062" lon="-5.4045213308119315"><ele>20.0</ele><time>2026-04-25T14:07:47Z</time></trkpt><trkpt lat="36.326614952511086" lon="-5.404548480337649"><ele>20.0</ele><time>2026-04-25T14:07:47.999Z</time></trkpt><trkpt lat="36.32640985086161" lon="-5.404575716466013"><ele>20.0</ele><time>2026-04-25T14:07:48.999Z</time></trkpt><trkpt lat="36.32620082817926" lon="-5.404603473281897"><ele>20.333333333333336</ele><time>2026-04-25T14:07:49.999Z</time></trkpt><trkpt lat="36.325990030075516" lon="-5.404631465863026"><ele>20.666666666666668</ele><time>2026-04-25T14:07:50.999Z</time></trkpt><trkpt lat="36.3257798353722" lon="-5.404658977595767"><ele>21.0</ele><time>2026-04-25T14:07:51.999Z</time></trkpt><trkpt lat="36.32556809411305" lon="-5.404686566203987"><ele>22.333333333333336</ele><time>2026-04-25T14:07:52.999Z</time></trkpt><trkpt lat="36.32535680747369" lon="-5.404714095578686"><ele>23.666666666666668</ele><time>2026-04-25T14:07:53.999Z</time></trkpt><trkpt lat="36.3251496627928" lon="-5.404741085282309"><ele>25.0</ele><time>2026-04-25T14:07:54.999Z</time></trkpt><trkpt lat="36.324939096165295" lon="-5.404767623235357"><ele>25.0</ele><time>2026-04-25T14:07:55.999Z</time></trkpt><trkpt lat="36.32473336734095" lon="-5.404793496858071"><ele>25.0</ele><time>2026-04-25T14:07:56.999Z</time></trkpt><trkpt lat="36.32451898365986" lon="-5.404820458964618"><ele>25.0</ele><time>2026-04-25T14:07:57.999Z</time></trkpt><trkpt lat="36.32430507673784" lon="-5.404847892606546"><ele>25.666666666666668</ele><time>2026-04-25T14:07:58.999Z</time></trkpt><trkpt lat="36.32409417307052" lon="-5.40485968535353"><ele>26.333333333333336</ele><time>2026-04-25T14:07:59.999Z</time></trkpt><trkpt lat="36.32388620775997" lon="-5.404903998736003"><ele>27.0</ele><time>2026-04-25T14:08:00.999Z</time></trkpt><trkpt lat="36.32367669207254" lon="-5.404932062614134"><ele>27.666666666666664</ele><time>2026-04-25T14:08:01.999Z</time></trkpt><trkpt lat="36.32346204132372" lon="-5.4049608143172225"><ele>28.333333333333332</ele><time>2026-04-25T14:08:02.999Z</time></trkpt><trkpt lat="36.32325017997289" lon="-5.404962096110822"><ele>29.0</ele><time>2026-04-25T14:08:03.999Z</time></trkpt><trkpt lat="36.32303788911354" lon="-5.404989516112755"><ele>30.333333333333332</ele><time>2026-04-25T14:08:04.999Z</time></trkpt><trkpt lat="36.32282519657793" lon="-5.405018234521771"><ele>31.666666666666664</ele><time>2026-04-25T14:08:05.999Z</time></trkpt><trkpt lat="36.322609601608605" lon="-5.405048955519046"><ele>33.0</ele><time>2026-04-25T14:08:06.999Z</time></trkpt><trkpt lat="36.3223988341841" lon="-5.405077417074486"><ele>34.666666666666664</ele><time>2026-04-25T14:08:07.999Z</time></trkpt><trkpt lat="36.322192475929334" lon="-5.405099362087791"><ele>36.33333333333333</ele><time>2026-04-25T14:08:08.999Z</time></trkpt><trkpt lat="36.32199780797382" lon="-5.405111341640017"><ele>38.0</ele><time>2026-04-25T14:08:09.999Z</time></trkpt><trkpt lat="36.32180237106277" lon="-5.405115632100477"><ele>38.0</ele><time>2026-04-25T14:08:10.999Z</time></trkpt><trkpt lat="36.321607890381884" lon="-5.4050809153922685"><ele>38.0</ele><time>2026-04-25T14:08:11.999Z</time></trkpt><trkpt lat="36.32141544389544" lon="-5.405009810979942"><ele>38.0</ele><time>2026-04-25T14:08:12.999Z</time></trkpt><trkpt lat="36.3212410033457" lon="-5.4049045257569945"><ele>39.0</ele><time>2026-04-25T14:08:13.999Z</time></trkpt><trkpt lat="36.32108661471995" lon="-5.404772199078155"><ele>40.0</ele><time>2026-04-25T14:08:14.999Z</time></trkpt><trkpt lat="36.32093101288208" lon="-5.404611001439102"><ele>41.0</ele><time>2026-04-25T14:08:15.999Z</time></trkpt><trkpt lat="36.32077871566611" lon="-5.404433263401344"><ele>43.666666666666664</ele><time>2026-04-25T14:08:16.999Z</time></trkpt><trkpt lat="36.320622496416526" lon="-5.404256144575069"><ele>46.33333333333333</ele><time>2026-04-25T14:08:17.999Z</time></trkpt><trkpt lat="36.320461347983866" lon="-5.404080602760232"><ele>49.0</ele><time>2026-04-25T14:08:18.999Z</time></trkpt><trkpt lat="36.32029791379372" lon="-5.4039126163972355"><ele>51.33333333333333</ele><time>2026-04-25T14:08:19.999Z</time></trkpt><trkpt lat="36.320141288349305" lon="-5.403734233164179"><ele>53.66666666666667</ele><time>2026-04-25T14:08:20.999Z</time></trkpt><trkpt lat="36.3199868291074" lon="-5.40355846006899"><ele>56.0</ele><time>2026-04-25T14:08:21.999Z</time></trkpt><trkpt lat="36.319836224208714" lon="-5.403384596390372"><ele>57.66666666666667</ele><time>2026-04-25T14:08:22.999Z</time></trkpt><trkpt lat="36.31969037073485" lon="-5.403213267270796"><ele>59.33333333333333</ele><time>2026-04-25T14:08:23.999Z</time></trkpt><trkpt lat="36.31954060765726" lon="-5.403045794281996"><ele>61.0</ele><time>2026-04-25T14:08:24.999Z</time></trkpt><trkpt lat="36.31938967014057" lon="-5.402884662279061"><ele>61.666666666666664</ele><time>2026-04-25T14:08:25.999Z</time></trkpt><trkpt lat="36.31923054397788" lon="-5.4027290956604395"><ele>62.33333333333333</ele><time>2026-04-25T14:08:26.999Z</time></trkpt><trkpt lat="36.31904964663016" lon="-5.402583807537137"><ele>63.0</ele><time>2026-04-25T14:08:27.999Z</time></trkpt><trkpt lat="36.31886122586665" lon="-5.402454380842005"><ele>66.66666666666667</ele><time>2026-04-25T14:08:28.999Z</time></trkpt><trkpt lat="36.31867252508086" lon="-5.402330705711425"><ele>70.33333333333334</ele><time>2026-04-25T14:08:29.999Z</time></trkpt><trkpt lat="36.31848681466727" lon="-5.402203773432899"><ele>74.0</ele><time>2026-04-25T14:08:30.999Z</time></trkpt><trkpt lat="36.31830040539261" lon="-5.402074303538247"><ele>74.66666666666667</ele><time>2026-04-25T14:08:31.999Z</time></trkpt><trkpt lat="36.318120585803186" lon="-5.401945576706812"><ele>75.33333333333333</ele><time>2026-04-25T14:08:32.999Z</time></trkpt><trkpt lat="36.3179367076681" lon="-5.401822194990699"><ele>76.0</ele><time>2026-04-25T14:08:33.999Z</time></trkpt><trkpt lat="36.31775339427455" lon="-5.401698137047365"><ele>79.66666666666666</ele><time>2026-04-25T14:08:34.999Z</time></trkpt><trkpt lat="36.31757407449856" lon="-5.4015693676808345"><ele>83.33333333333333</ele><time>2026-04-25T14:08:35.999Z</time></trkpt><trkpt lat="36.31738963269584" lon="-5.401441263133537"><ele>87.0</ele><time>2026-04-25T14:08:36.999Z</time></trkpt><trkpt lat="36.31720688992884" lon="-5.401317315983972"><ele>87.66666666666667</ele><time>2026-04-25T14:08:37.999Z</time></trkpt><trkpt lat="36.31702432589293" lon="-5.40119010449657"><ele>88.33333333333334</ele><time>2026-04-25T14:08:38.999Z</time></trkpt><trkpt lat="36.31684046256228" lon="-5.401062097369901"><ele>89.0</ele><time>2026-04-25T14:08:39.999Z</time></trkpt><trkpt lat="36.31665786856523" lon="-5.400933603486291"><ele>89.0</ele><time>2026-04-25T14:08:41.001Z</time></trkpt><trkpt lat="36.316479264803554" lon="-5.400806580140887"><ele>89.0</ele><time>2026-04-25T14:08:42.001Z</time></trkpt><trkpt lat="36.31630970760982" lon="-5.400682010415973"><ele>89.0</ele><time>2026-04-25T14:08:43.001Z</time></trkpt><trkpt lat="36.31613468189292" lon="-5.400553679888862"><ele>89.33333333333334</ele><time>2026-04-25T14:08:44.001Z</time></trkpt><trkpt lat="36.31595895308695" lon="-5.400423421744423"><ele>89.66666666666667</ele><time>2026-04-25T14:08:45.001Z</time></trkpt><trkpt lat="36.315777807070816" lon="-5.400321931725146"><ele>90.0</ele><time>2026-04-25T14:08:46.001Z</time></trkpt><trkpt lat="36.31558331668003" lon="-5.400276444393507"><ele>90.0</ele><time>2026-04-25T14:08:47.001Z</time></trkpt><trkpt lat="36.31539279020406" lon="-5.400270554482965"><ele>90.0</ele><time>2026-04-25T14:08:48.001Z</time></trkpt><trkpt lat="36.31519672740538" lon="-5.40031290969323"><ele>90.0</ele><time>2026-04-25T14:08:49.001Z</time></trkpt><trkpt lat="36.31499981985238" lon="-5.400384816299789"><ele>90.0</ele><time>2026-04-25T14:08:50.001Z</time></trkpt><trkpt lat="36.314788384095685" lon="-5.400417056776329"><ele>90.0</ele><time>2026-04-25T14:08:51.001Z</time></trkpt><trkpt lat="36.31456847155157" lon="-5.400401125086714"><ele>90.0</ele><time>2026-04-25T14:08:52Z</time></trkpt><trkpt lat="36.31433361137262" lon="-5.400316599880444"><ele>88.0</ele><time>2026-04-25T14:08:53Z</time></trkpt><trkpt lat="36.314103083995334" lon="-5.400310047245277"><ele>86.0</ele><time>2026-04-25T14:08:54Z</time></trkpt><trkpt lat="36.31387625340628" lon="-5.400317614509038"><ele>85.66666666666667</ele><time>2026-04-25T14:08:55Z</time></trkpt><trkpt lat="36.3136470417033" lon="-5.400338622679284"><ele>85.33333333333333</ele><time>2026-04-25T14:08:56Z</time></trkpt><trkpt lat="36.3134328577574" lon="-5.400353992930889"><ele>85.0</ele><time>2026-04-25T14:08:57Z</time></trkpt><trkpt lat="36.3132226138034" lon="-5.400359518946755"><ele>85.33333333333333</ele><time>2026-04-25T14:08:58Z</time></trkpt><trkpt lat="36.313009062495695" lon="-5.400374597641851"><ele>85.66666666666667</ele><time>2026-04-25T14:08:59Z</time></trkpt><trkpt lat="36.31279960305003" lon="-5.400381901803934"><ele>86.0</ele><time>2026-04-25T14:09:00Z</time></trkpt><trkpt lat="36.31259474411976" lon="-5.400386108993218"><ele>86.0</ele><time>2026-04-25T14:09:01Z</time></trkpt><trkpt lat="36.312388206340934" lon="-5.400388792815836"><ele>86.0</ele><time>2026-04-25T14:09:02Z</time></trkpt><trkpt lat="36.31217000087992" lon="-5.400406304118862"><ele>86.0</ele><time>2026-04-25T14:09:03Z</time></trkpt><trkpt lat="36.31195474301453" lon="-5.4004167920337975"><ele>85.66666666666667</ele><time>2026-04-25T14:09:04Z</time></trkpt><trkpt lat="36.311736955610186" lon="-5.400426567893725"><ele>85.33333333333333</ele><time>2026-04-25T14:09:05Z</time></trkpt><trkpt lat="36.31152210445499" lon="-5.400433595792616"><ele>85.0</ele><time>2026-04-25T14:09:06Z</time></trkpt><trkpt lat="36.31130394470596" lon="-5.400442094350807"><ele>85.0</ele><time>2026-04-25T14:09:07Z</time></trkpt><trkpt lat="36.31109058201461" lon="-5.400450626219878"><ele>85.0</ele><time>2026-04-25T14:09:08Z</time></trkpt><trkpt lat="36.31088755337337" lon="-5.400458368444076"><ele>85.0</ele><time>2026-04-25T14:09:09Z</time></trkpt><trkpt lat="36.31068249490938" lon="-5.400465167585262"><ele>84.66666666666666</ele><time>2026-04-25T14:09:10Z</time></trkpt><trkpt lat="36.310469561770965" lon="-5.4004739450168096"><ele>84.33333333333333</ele><time>2026-04-25T14:09:11Z</time></trkpt><trkpt lat="36.31026023564746" lon="-5.400501147519945"><ele>84.0</ele><time>2026-04-25T14:09:12Z</time></trkpt><trkpt lat="36.310047141464" lon="-5.400512092051527"><ele>84.0</ele><time>2026-04-25T14:09:13Z</time></trkpt><trkpt lat="36.30983619068056" lon="-5.40052146070047"><ele>84.0</ele><time>2026-04-25T14:09:14Z</time></trkpt><trkpt lat="36.30962458825696" lon="-5.400529330460594"><ele>84.0</ele><time>2026-04-25T14:09:15Z</time></trkpt><trkpt lat="36.30941028107277" lon="-5.400536976656773"><ele>84.0</ele><time>2026-04-25T14:09:16Z</time></trkpt><trkpt lat="36.30919852739711" lon="-5.400524993785818"><ele>84.0</ele><time>2026-04-25T14:09:17Z</time></trkpt><trkpt lat="36.308980728008656" lon="-5.400533265081438"><ele>84.0</ele><time>2026-04-25T14:09:18Z</time></trkpt><trkpt lat="36.30876361556739" lon="-5.400540087114061"><ele>84.0</ele><time>2026-04-25T14:09:19Z</time></trkpt><trkpt lat="36.308544762536634" lon="-5.400569493465366"><ele>84.0</ele><time>2026-04-25T14:09:20Z</time></trkpt><trkpt lat="36.30834106164116" lon="-5.4005777074597345"><ele>84.0</ele><time>2026-04-25T14:09:21Z</time></trkpt><trkpt lat="36.30813409159232" lon="-5.400566087123798"><ele>83.66666666666667</ele><time>2026-04-25T14:09:22Z</time></trkpt><trkpt lat="36.30792350530242" lon="-5.400594544931642"><ele>83.33333333333334</ele><time>2026-04-25T14:09:23Z</time></trkpt><trkpt lat="36.30771212461356" lon="-5.400603068610184"><ele>83.0</ele><time>2026-04-25T14:09:24Z</time></trkpt><trkpt lat="36.30750254809687" lon="-5.400611391355034"><ele>83.0</ele><time>2026-04-25T14:09:25Z</time></trkpt><trkpt lat="36.30729270886287" lon="-5.400619576966645"><ele>83.0</ele><time>2026-04-25T14:09:26Z</time></trkpt><trkpt lat="36.30708756146378" lon="-5.400613729742043"><ele>83.0</ele><time>2026-04-25T14:09:27Z</time></trkpt><trkpt lat="36.30687890989482" lon="-5.400620343871488"><ele>83.0</ele><time>2026-04-25T14:09:28Z</time></trkpt><trkpt lat="36.30666614180343" lon="-5.400628748359539"><ele>83.0</ele><time>2026-04-25T14:09:29Z</time></trkpt><trkpt lat="36.306452444641465" lon="-5.40063121583066"><ele>83.0</ele><time>2026-04-25T14:09:30Z</time></trkpt><trkpt lat="36.30624378271298" lon="-5.400640417663597"><ele>82.0</ele><time>2026-04-25T14:09:31Z</time></trkpt><trkpt lat="36.30602495753871" lon="-5.400664137635832"><ele>81.0</ele><time>2026-04-25T14:09:32Z</time></trkpt><trkpt lat="36.305801380444585" lon="-5.40064993486796"><ele>80.0</ele><time>2026-04-25T14:09:33Z</time></trkpt><trkpt lat="36.30558380581534" lon="-5.400655405210765"><ele>78.0</ele><time>2026-04-25T14:09:34Z</time></trkpt><trkpt lat="36.30536687135081" lon="-5.400663218862534"><ele>76.0</ele><time>2026-04-25T14:09:35Z</time></trkpt><trkpt lat="36.305152132016644" lon="-5.400669476787345"><ele>74.0</ele><time>2026-04-25T14:09:36Z</time></trkpt><trkpt lat="36.30494179912963" lon="-5.400672534358235"><ele>75.0</ele><time>2026-04-25T14:09:37Z</time></trkpt><trkpt lat="36.30473811171867" lon="-5.40068226048939"><ele>76.0</ele><time>2026-04-25T14:09:38Z</time></trkpt><trkpt lat="36.304531023305046" lon="-5.400690270807866"><ele>77.0</ele><time>2026-04-25T14:09:39Z</time></trkpt><trkpt lat="36.30433002931356" lon="-5.400694862782532"><ele>77.0</ele><time>2026-04-25T14:09:40Z</time></trkpt><trkpt lat="36.304129519042675" lon="-5.400704306150272"><ele>77.0</ele><time>2026-04-25T14:09:41Z</time></trkpt><trkpt lat="36.30392755674104" lon="-5.400711992871665"><ele>77.0</ele><time>2026-04-25T14:09:42Z</time></trkpt><trkpt lat="36.30372343743215" lon="-5.400719668568043"><ele>76.33333333333334</ele><time>2026-04-25T14:09:42.999Z</time></trkpt><trkpt lat="36.303519556639046" lon="-5.400732973839958"><ele>75.66666666666667</ele><time>2026-04-25T14:09:43.999Z</time></trkpt><trkpt lat="36.30332528263813" lon="-5.4007376460972525"><ele>75.0</ele><time>2026-04-25T14:09:44.999Z</time></trkpt><trkpt lat="36.30314705104614" lon="-5.400742180221055"><ele>75.66666666666667</ele><time>2026-04-25T14:09:45.999Z</time></trkpt><trkpt lat="36.30298418602815" lon="-5.4007623386671675"><ele>76.33333333333334</ele><time>2026-04-25T14:09:46.999Z</time></trkpt><trkpt lat="36.30282553176073" lon="-5.4008174814698675"><ele>77.0</ele><time>2026-04-25T14:09:47.999Z</time></trkpt><trkpt lat="36.30267263767542" lon="-5.400908155058494"><ele>77.0</ele><time>2026-04-25T14:09:48.999Z</time></trkpt><trkpt lat="36.302537360803946" lon="-5.401039023754859"><ele>77.0</ele><time>2026-04-25T14:09:49.999Z</time></trkpt><trkpt lat="36.30241810001217" lon="-5.401204707625888"><ele>77.0</ele><time>2026-04-25T14:09:50.999Z</time></trkpt><trkpt lat="36.30233829886446" lon="-5.401401028409479"><ele>77.0</ele><time>2026-04-25T14:09:51.999Z</time></trkpt><trkpt lat="36.302266220929255" lon="-5.401606898170075"><ele>77.0</ele><time>2026-04-25T14:09:52.999Z</time></trkpt><trkpt lat="36.30224253161489" lon="-5.401831258037284"><ele>77.0</ele><time>2026-04-25T14:09:53.999Z</time></trkpt><trkpt lat="36.30223653669327" lon="-5.402069849205422"><ele>77.0</ele><time>2026-04-25T14:09:54.999Z</time></trkpt><trkpt lat="36.30227596507561" lon="-5.402311442506456"><ele>77.0</ele><time>2026-04-25T14:09:55.999Z</time></trkpt><trkpt lat="36.30230191620602" lon="-5.402575870012882"><ele>77.0</ele><time>2026-04-25T14:09:56.999Z</time></trkpt><trkpt lat="36.30232244608711" lon="-5.402855277259699"><ele>76.0</ele><time>2026-04-25T14:09:57.999Z</time></trkpt><trkpt lat="36.30234665180334" lon="-5.403139848680609"><ele>75.0</ele><time>2026-04-25T14:09:58.999Z</time></trkpt><trkpt lat="36.302371891908116" lon="-5.403438822454332"><ele>75.0</ele><time>2026-04-25T14:09:59.999Z</time></trkpt><trkpt lat="36.30239612608123" lon="-5.403748556602428"><ele>75.0</ele><time>2026-04-25T14:10:00.999Z</time></trkpt><trkpt lat="36.30242269145834" lon="-5.404070768661609"><ele>74.0</ele><time>2026-04-25T14:10:01.999Z</time></trkpt><trkpt lat="36.3024492953718" lon="-5.404389973354722"><ele>73.0</ele><time>2026-04-25T14:10:02.999Z</time></trkpt><trkpt lat="36.30247609158353" lon="-5.404691493730803"><ele>71.5</ele><time>2026-04-25T14:10:03.999Z</time></trkpt><trkpt lat="36.302500006069906" lon="-5.404973907438306"><ele>70.0</ele><time>2026-04-25T14:10:04.999Z</time></trkpt><trkpt lat="36.30252529506799" lon="-5.405252637446261"><ele>69.33333333333333</ele><time>2026-04-25T14:10:05.999Z</time></trkpt><trkpt lat="36.30255440785553" lon="-5.405531881410872"><ele>68.66666666666667</ele><time>2026-04-25T14:10:06.999Z</time></trkpt><trkpt lat="36.30257896900021" lon="-5.4057999437606234"><ele>68.0</ele><time>2026-04-25T14:10:07.999Z</time></trkpt><trkpt lat="36.302606836247406" lon="-5.406064329855596"><ele>67.66666666666667</ele><time>2026-04-25T14:10:08.999Z</time></trkpt><trkpt lat="36.30262885666679" lon="-5.406329121730615"><ele>67.33333333333333</ele><time>2026-04-25T14:10:09.999Z</time></trkpt><trkpt lat="36.302657467248196" lon="-5.406603927403397"><ele>67.0</ele><time>2026-04-25T14:10:10.999Z</time></trkpt><trkpt lat="36.30268623744733" lon="-5.406876350775416"><ele>67.0</ele><time>2026-04-25T14:10:11.999Z</time></trkpt><trkpt lat="36.30271654575637" lon="-5.40715230550479"><ele>67.0</ele><time>2026-04-25T14:10:12.999Z</time></trkpt><trkpt lat="36.302746502295584" lon="-5.407425852666324"><ele>67.0</ele><time>2026-04-25T14:10:13.999Z</time></trkpt><trkpt lat="36.302771571358875" lon="-5.407693532017"><ele>67.0</ele><time>2026-04-25T14:10:14.999Z</time></trkpt><trkpt lat="36.30279492753182" lon="-5.4079536200367055"><ele>67.0</ele><time>2026-04-25T14:10:15.999Z</time></trkpt><trkpt lat="36.30281633474976" lon="-5.408203734437468"><ele>67.0</ele><time>2026-04-25T14:10:16.999Z</time></trkpt><trkpt lat="36.302836140135426" lon="-5.408438825540012"><ele>65.33333333333333</ele><time>2026-04-25T14:10:17.999Z</time></trkpt><trkpt lat="36.30285400666788" lon="-5.40865589248997"><ele>63.66666666666667</ele><time>2026-04-25T14:10:18.999Z</time></trkpt><trkpt lat="36.302853464597604" lon="-5.4088699075054905"><ele>62.0</ele><time>2026-04-25T14:10:19.999Z</time></trkpt><trkpt lat="36.302822903862" lon="-5.409072835963045"><ele>61.0</ele><time>2026-04-25T14:10:20.999Z</time></trkpt><trkpt lat="36.30275250489355" lon="-5.4092618435825885"><ele>60.0</ele><time>2026-04-25T14:10:21.999Z</time></trkpt><trkpt lat="36.30264851650586" lon="-5.409442497499588"><ele>59.0</ele><time>2026-04-25T14:10:22.999Z</time></trkpt><trkpt lat="36.302510780423894" lon="-5.4096098693555765"><ele>58.66666666666667</ele><time>2026-04-25T14:10:23.999Z</time></trkpt><trkpt lat="36.30235766551691" lon="-5.409775505276761"><ele>58.33333333333333</ele><time>2026-04-25T14:10:24.999Z</time></trkpt><trkpt lat="36.30220192198036" lon="-5.40994482107414"><ele>58.0</ele><time>2026-04-25T14:10:25.999Z</time></trkpt><trkpt lat="36.30204462417566" lon="-5.410126515450685"><ele>58.0</ele><time>2026-04-25T14:10:26.999Z</time></trkpt><trkpt lat="36.30188546609203" lon="-5.410313146962962"><ele>58.0</ele><time>2026-04-25T14:10:27.999Z</time></trkpt><trkpt lat="36.3017221777566" lon="-5.410505560843002"><ele>58.0</ele><time>2026-04-25T14:10:28.999Z</time></trkpt><trkpt lat="36.301550837860084" lon="-5.410707991884314"><ele>55.5</ele><time>2026-04-25T14:10:29.999Z</time></trkpt><trkpt lat="36.30137297429405" lon="-5.410913803847578"><ele>53.0</ele><time>2026-04-25T14:10:30.999Z</time></trkpt><trkpt lat="36.301196071584044" lon="-5.411119700058231"><ele>53.0</ele><time>2026-04-25T14:10:31.999Z</time></trkpt><trkpt lat="36.301026565806" lon="-5.411319056404261"><ele>53.0</ele><time>2026-04-25T14:10:32.999Z</time></trkpt><trkpt lat="36.3008572418787" lon="-5.4115135309832585"><ele>52.66666666666667</ele><time>2026-04-25T14:10:33.999Z</time></trkpt><trkpt lat="36.3006980237568" lon="-5.411701753828795"><ele>52.33333333333333</ele><time>2026-04-25T14:10:34.999Z</time></trkpt><trkpt lat="36.30054019600098" lon="-5.411890658080804"><ele>52.0</ele><time>2026-04-25T14:10:35.999Z</time></trkpt><trkpt lat="36.300383384178176" lon="-5.412070643462022"><ele>52.666666666666664</ele><time>2026-04-25T14:10:36.999Z</time></trkpt><trkpt lat="36.30022618051483" lon="-5.412245025428462"><ele>53.33333333333333</ele><time>2026-04-25T14:10:37.999Z</time></trkpt><trkpt lat="36.300082388441616" lon="-5.412433782036563"><ele>54.0</ele><time>2026-04-25T14:10:38.999Z</time></trkpt><trkpt lat="36.299939631128005" lon="-5.412600638948401"><ele>54.0</ele><time>2026-04-25T14:10:39.999Z</time></trkpt><trkpt lat="36.299801272682465" lon="-5.412765376150563"><ele>54.0</ele><time>2026-04-25T14:10:40.999Z</time></trkpt><trkpt lat="36.29965912407879" lon="-5.412924131953006"><ele>54.0</ele><time>2026-04-25T14:10:41.999Z</time></trkpt><trkpt lat="36.299499707290785" lon="-5.413082158482856"><ele>53.33333333333333</ele><time>2026-04-25T14:10:42.999Z</time></trkpt><trkpt lat="36.299314463528724" lon="-5.41322388871909"><ele>52.666666666666664</ele><time>2026-04-25T14:10:43.999Z</time></trkpt><trkpt lat="36.29911426408946" lon="-5.41334156529585"><ele>52.0</ele><time>2026-04-25T14:10:44.999Z</time></trkpt><trkpt lat="36.29892679304042" lon="-5.413488647810121"><ele>49.5</ele><time>2026-04-25T14:10:45.998Z</time></trkpt><trkpt lat="36.29872253061449" lon="-5.413623960180628"><ele>47.0</ele><time>2026-04-25T14:10:47.001Z</time></trkpt><trkpt lat="36.29851628558928" lon="-5.413757889118966"><ele>52.5</ele><time>2026-04-25T14:10:48.001Z</time></trkpt><trkpt lat="36.29831237271823" lon="-5.413890467525292"><ele>58.0</ele><time>2026-04-25T14:10:49.001Z</time></trkpt><trkpt lat="36.29811131134981" lon="-5.414021984426595"><ele>55.0</ele><time>2026-04-25T14:10:50.001Z</time></trkpt><trkpt lat="36.297912433396576" lon="-5.414152900925142"><ele>52.0</ele><time>2026-04-25T14:10:51.001Z</time></trkpt><trkpt lat="36.29771347159177" lon="-5.414278717847771"><ele>49.0</ele><time>2026-04-25T14:10:52Z</time></trkpt><trkpt lat="36.297517427947966" lon="-5.414402689553465"><ele>49.0</ele><time>2026-04-25T14:10:53Z</time></trkpt><trkpt lat="36.2973227188677" lon="-5.414525819638838"><ele>49.0</ele><time>2026-04-25T14:10:54Z</time></trkpt><trkpt lat="36.29712206011487" lon="-5.414637020992073"><ele>49.0</ele><time>2026-04-25T14:10:55Z</time></trkpt><trkpt lat="36.29694834049949" lon="-5.414804361825967"><ele>48.0</ele><time>2026-04-25T14:10:56Z</time></trkpt><trkpt lat="36.296789099050834" lon="-5.414995951356674"><ele>47.0</ele><time>2026-04-25T14:10:57Z</time></trkpt><trkpt lat="36.29663036753838" lon="-5.415185575637384"><ele>46.0</ele><time>2026-04-25T14:10:58Z</time></trkpt><trkpt lat="36.29647022523259" lon="-5.415368048804149"><ele>45.333333333333336</ele><time>2026-04-25T14:10:59Z</time></trkpt><trkpt lat="36.2963079875223" lon="-5.415551334553898"><ele>44.666666666666664</ele><time>2026-04-25T14:11:00Z</time></trkpt><trkpt lat="36.29614179934084" lon="-5.415739178107675"><ele>44.0</ele><time>2026-04-25T14:11:01Z</time></trkpt><trkpt lat="36.295971598719" lon="-5.415923658983417"><ele>44.0</ele><time>2026-04-25T14:11:02Z</time></trkpt><trkpt lat="36.2957968596912" lon="-5.4161166916352315"><ele>44.0</ele><time>2026-04-25T14:11:03Z</time></trkpt><trkpt lat="36.295624165337436" lon="-5.4163051096434085"><ele>43.5</ele><time>2026-04-25T14:11:04Z</time></trkpt><trkpt lat="36.29544904082726" lon="-5.416496206404486"><ele>43.0</ele><time>2026-04-25T14:11:05Z</time></trkpt><trkpt lat="36.295277440899504" lon="-5.416687545175721"><ele>43.0</ele><time>2026-04-25T14:11:06Z</time></trkpt><trkpt lat="36.295110148438134" lon="-5.416881731171597"><ele>43.0</ele><time>2026-04-25T14:11:07Z</time></trkpt><trkpt lat="36.29495332912236" lon="-5.417073446145406"><ele>43.0</ele><time>2026-04-25T14:11:08Z</time></trkpt><trkpt lat="36.294784914237376" lon="-5.417261859907856"><ele>40.0</ele><time>2026-04-25T14:11:09Z</time></trkpt><trkpt lat="36.29461458788968" lon="-5.4174609776874"><ele>37.0</ele><time>2026-04-25T14:11:10Z</time></trkpt><trkpt lat="36.294438503955504" lon="-5.417653034298987"><ele>37.0</ele><time>2026-04-25T14:11:11Z</time></trkpt><trkpt lat="36.29425412995553" lon="-5.417834131660569"><ele>37.0</ele><time>2026-04-25T14:11:12Z</time></trkpt><trkpt lat="36.29406597370531" lon="-5.4179984098204015"><ele>34.0</ele><time>2026-04-25T14:11:13Z</time></trkpt><trkpt lat="36.293871769532885" lon="-5.4181630838437425"><ele>31.0</ele><time>2026-04-25T14:11:14Z</time></trkpt><trkpt lat="36.29367160961848" lon="-5.418323022182915"><ele>31.0</ele><time>2026-04-25T14:11:15Z</time></trkpt><trkpt lat="36.293477713354314" lon="-5.41847249857788"><ele>31.0</ele><time>2026-04-25T14:11:16Z</time></trkpt><trkpt lat="36.29328111210043" lon="-5.418621611744038"><ele>31.0</ele><time>2026-04-25T14:11:17Z</time></trkpt><trkpt lat="36.29309376612869" lon="-5.418771329714293"><ele>31.0</ele><time>2026-04-25T14:11:18Z</time></trkpt><trkpt lat="36.292905261308306" lon="-5.418921691030928"><ele>31.0</ele><time>2026-04-25T14:11:19Z</time></trkpt><trkpt lat="36.29271366104845" lon="-5.419063826775902"><ele>30.0</ele><time>2026-04-25T14:11:20Z</time></trkpt><trkpt lat="36.2925222665923" lon="-5.419209161984032"><ele>29.0</ele><time>2026-04-25T14:11:21Z</time></trkpt><trkpt lat="36.29233105602523" lon="-5.419357359742163"><ele>28.666666666666664</ele><time>2026-04-25T14:11:22Z</time></trkpt><trkpt lat="36.292143471339735" lon="-5.419506417929808"><ele>28.333333333333336</ele><time>2026-04-25T14:11:23Z</time></trkpt><trkpt lat="36.29195999182267" lon="-5.419653627707522"><ele>28.0</ele><time>2026-04-25T14:11:24Z</time></trkpt><trkpt lat="36.29178065172759" lon="-5.419800814511971"><ele>28.0</ele><time>2026-04-25T14:11:25Z</time></trkpt><trkpt lat="36.291595213803355" lon="-5.4199460108231"><ele>28.0</ele><time>2026-04-25T14:11:26Z</time></trkpt><trkpt lat="36.29140709467529" lon="-5.420090224322816"><ele>28.0</ele><time>2026-04-25T14:11:27Z</time></trkpt><trkpt lat="36.2912182917474" lon="-5.4202394302048"><ele>27.5</ele><time>2026-04-25T14:11:28Z</time></trkpt><trkpt lat="36.29102855710379" lon="-5.420389012133813"><ele>27.0</ele><time>2026-04-25T14:11:29Z</time></trkpt><trkpt lat="36.29083668065263" lon="-5.420536769262968"><ele>27.0</ele><time>2026-04-25T14:11:30Z</time></trkpt><trkpt lat="36.29064989189309" lon="-5.420683399628558"><ele>27.0</ele><time>2026-04-25T14:11:31Z</time></trkpt><trkpt lat="36.2904674621378" lon="-5.420823927082904"><ele>27.0</ele><time>2026-04-25T14:11:32Z</time></trkpt><trkpt lat="36.290283276488864" lon="-5.4209710987415285"><ele>26.333333333333336</ele><time>2026-04-25T14:11:33Z</time></trkpt><trkpt lat="36.29010099100792" lon="-5.421115220359754"><ele>25.666666666666668</ele><time>2026-04-25T14:11:34Z</time></trkpt><trkpt lat="36.28991632530598" lon="-5.4212616763118"><ele>25.0</ele><time>2026-04-25T14:11:35Z</time></trkpt><trkpt lat="36.28973245634651" lon="-5.421411434827967"><ele>24.333333333333336</ele><time>2026-04-25T14:11:36Z</time></trkpt><trkpt lat="36.28954597195919" lon="-5.4215573353092585"><ele>23.666666666666668</ele><time>2026-04-25T14:11:37Z</time></trkpt><trkpt lat="36.289357187746255" lon="-5.42169849443308"><ele>23.0</ele><time>2026-04-25T14:11:38Z</time></trkpt><trkpt lat="36.289172875694135" lon="-5.421853490871272"><ele>23.0</ele><time>2026-04-25T14:11:39Z</time></trkpt><trkpt lat="36.28898426968963" lon="-5.421996671904321"><ele>23.0</ele><time>2026-04-25T14:11:39.999Z</time></trkpt><trkpt lat="36.288802041668504" lon="-5.422148970410838"><ele>23.0</ele><time>2026-04-25T14:11:40.999Z</time></trkpt><trkpt lat="36.28861893630998" lon="-5.422292796012274"><ele>22.666666666666668</ele><time>2026-04-25T14:11:41.999Z</time></trkpt><trkpt lat="36.288435475404185" lon="-5.422437705991612"><ele>22.333333333333332</ele><time>2026-04-25T14:11:42.999Z</time></trkpt><trkpt lat="36.28825061629008" lon="-5.422581835999893"><ele>22.0</ele><time>2026-04-25T14:11:43.999Z</time></trkpt><trkpt lat="36.28806965655039" lon="-5.422725703505172"><ele>22.0</ele><time>2026-04-25T14:11:44.999Z</time></trkpt><trkpt lat="36.2878871882074" lon="-5.422865224192664"><ele>22.0</ele><time>2026-04-25T14:11:45.999Z</time></trkpt><trkpt lat="36.28770565044757" lon="-5.4230112376459365"><ele>22.0</ele><time>2026-04-25T14:11:46.999Z</time></trkpt><trkpt lat="36.287520664892824" lon="-5.42315807452604"><ele>22.0</ele><time>2026-04-25T14:11:47.999Z</time></trkpt><trkpt lat="36.287336629826875" lon="-5.423299142135212"><ele>22.0</ele><time>2026-04-25T14:11:48.999Z</time></trkpt><trkpt lat="36.28714966051826" lon="-5.4234408083683885"><ele>22.0</ele><time>2026-04-25T14:11:49.999Z</time></trkpt><trkpt lat="36.286963020836076" lon="-5.423588120759943"><ele>22.0</ele><time>2026-04-25T14:11:50.999Z</time></trkpt><trkpt lat="36.28677571427227" lon="-5.423737079075459"><ele>22.0</ele><time>2026-04-25T14:11:51.999Z</time></trkpt><trkpt lat="36.28658603145891" lon="-5.423884831397025"><ele>22.0</ele><time>2026-04-25T14:11:52.999Z</time></trkpt><trkpt lat="36.286394878040625" lon="-5.424029124718469"><ele>21.0</ele><time>2026-04-25T14:11:53.999Z</time></trkpt><trkpt lat="36.286202840377264" lon="-5.424170474585057"><ele>20.0</ele><time>2026-04-25T14:11:54.999Z</time></trkpt><trkpt lat="36.286006741121135" lon="-5.424314031460349"><ele>20.0</ele><time>2026-04-25T14:11:55.999Z</time></trkpt><trkpt lat="36.28581172276579" lon="-5.424462567392296"><ele>20.0</ele><time>2026-04-25T14:11:56.999Z</time></trkpt><trkpt lat="36.285616629396934" lon="-5.424612063805811"><ele>19.5</ele><time>2026-04-25T14:11:57.999Z</time></trkpt><trkpt lat="36.28542062377729" lon="-5.424763421277141"><ele>19.0</ele><time>2026-04-25T14:11:58.999Z</time></trkpt><trkpt lat="36.28522766191169" lon="-5.424904479350839"><ele>19.0</ele><time>2026-04-25T14:11:59.999Z</time></trkpt><trkpt lat="36.28504578498518" lon="-5.425085883554537"><ele>19.0</ele><time>2026-04-25T14:12:00.999Z</time></trkpt><trkpt lat="36.2848562569178" lon="-5.425236714108284"><ele>19.0</ele><time>2026-04-25T14:12:01.999Z</time></trkpt><trkpt lat="36.284664497936525" lon="-5.425388425232947"><ele>19.0</ele><time>2026-04-25T14:12:02.999Z</time></trkpt><trkpt lat="36.2844740100235" lon="-5.425537899218024"><ele>18.333333333333332</ele><time>2026-04-25T14:12:03.999Z</time></trkpt><trkpt lat="36.28429211749034" lon="-5.425680567195805"><ele>17.666666666666668</ele><time>2026-04-25T14:12:04.999Z</time></trkpt><trkpt lat="36.28412326457036" lon="-5.425812554846495"><ele>17.0</ele><time>2026-04-25T14:12:05.999Z</time></trkpt><trkpt lat="36.28394935037324" lon="-5.425952493716734"><ele>16.666666666666668</ele><time>2026-04-25T14:12:06.999Z</time></trkpt><trkpt lat="36.28377552240119" lon="-5.426100192032821"><ele>16.333333333333332</ele><time>2026-04-25T14:12:07.999Z</time></trkpt><trkpt lat="36.28360833338491" lon="-5.426260774465196"><ele>16.0</ele><time>2026-04-25T14:12:08.999Z</time></trkpt><trkpt lat="36.28344738683566" lon="-5.426429806909756"><ele>15.666666666666666</ele><time>2026-04-25T14:12:09.999Z</time></trkpt><trkpt lat="36.28329350659597" lon="-5.4266021640755495"><ele>15.333333333333332</ele><time>2026-04-25T14:12:10.999Z</time></trkpt><trkpt lat="36.28313728491609" lon="-5.426777905053467"><ele>15.0</ele><time>2026-04-25T14:12:11.999Z</time></trkpt><trkpt lat="36.282984059974815" lon="-5.426950274860645"><ele>15.0</ele><time>2026-04-25T14:12:12.999Z</time></trkpt><trkpt lat="36.282831151436945" lon="-5.427122288730994"><ele>15.0</ele><time>2026-04-25T14:12:13.999Z</time></trkpt><trkpt lat="36.282679947932074" lon="-5.427293124711857"><ele>15.0</ele><time>2026-04-25T14:12:14.999Z</time></trkpt><trkpt lat="36.28252807520617" lon="-5.427465503189269"><ele>14.666666666666668</ele><time>2026-04-25T14:12:15.999Z</time></trkpt><trkpt lat="36.282375144187895" lon="-5.4276409383625905"><ele>14.333333333333334</ele><time>2026-04-25T14:12:16.999Z</time></trkpt><trkpt lat="36.28222105541102" lon="-5.427810452875382"><ele>14.0</ele><time>2026-04-25T14:12:17.999Z</time></trkpt><trkpt lat="36.28207145465646" lon="-5.427991221832124"><ele>14.0</ele><time>2026-04-25T14:12:18.999Z</time></trkpt><trkpt lat="36.28195555323291" lon="-5.42817297551522"><ele>14.0</ele><time>2026-04-25T14:12:19.999Z</time></trkpt><trkpt lat="36.28187036732425" lon="-5.428375883166061"><ele>14.0</ele><time>2026-04-25T14:12:20.999Z</time></trkpt><trkpt lat="36.281808669703786" lon="-5.428602560843029"><ele>14.666666666666668</ele><time>2026-04-25T14:12:21.999Z</time></trkpt><trkpt lat="36.281746091613826" lon="-5.428844479114725"><ele>15.333333333333332</ele><time>2026-04-25T14:12:22.999Z</time></trkpt><trkpt lat="36.281702741814286" lon="-5.429083044965365"><ele>16.0</ele><time>2026-04-25T14:12:23.999Z</time></trkpt><trkpt lat="36.28165267102267" lon="-5.429319493487219"><ele>16.0</ele><time>2026-04-25T14:12:24.999Z</time></trkpt><trkpt lat="36.28160293201037" lon="-5.429553480770606"><ele>16.0</ele><time>2026-04-25T14:12:25.999Z</time></trkpt><trkpt lat="36.28155091605593" lon="-5.429794485067392"><ele>16.0</ele><time>2026-04-25T14:12:26.999Z</time></trkpt><trkpt lat="36.28150168818807" lon="-5.430029161830521"><ele>16.0</ele><time>2026-04-25T14:12:27.999Z</time></trkpt><trkpt lat="36.28145001664946" lon="-5.430266183065917"><ele>16.0</ele><time>2026-04-25T14:12:28.999Z</time></trkpt><trkpt lat="36.281400169483845" lon="-5.430515999411038"><ele>16.0</ele><time>2026-04-25T14:12:29.999Z</time></trkpt><trkpt lat="36.28135561004538" lon="-5.430771184653468"><ele>16.0</ele><time>2026-04-25T14:12:30.999Z</time></trkpt><trkpt lat="36.28130295531651" lon="-5.4310136374552265"><ele>16.0</ele><time>2026-04-25T14:12:31.999Z</time></trkpt><trkpt lat="36.28124277359889" lon="-5.431245177551025"><ele>16.0</ele><time>2026-04-25T14:12:32.999Z</time></trkpt><trkpt lat="36.28116648003876" lon="-5.431455098287887"><ele>17.0</ele><time>2026-04-25T14:12:33.999Z</time></trkpt><trkpt lat="36.281064252053945" lon="-5.431634763425758"><ele>18.0</ele><time>2026-04-25T14:12:34.999Z</time></trkpt><trkpt lat="36.280941559049324" lon="-5.4317913306460675"><ele>19.0</ele><time>2026-04-25T14:12:35.999Z</time></trkpt><trkpt lat="36.280821344869715" lon="-5.431922047431328"><ele>19.0</ele><time>2026-04-25T14:12:36.998Z</time></trkpt><trkpt lat="36.28073282135878" lon="-5.432054185501134"><ele>19.0</ele><time>2026-04-25T14:12:37.998Z</time></trkpt><trkpt lat="36.280644032873916" lon="-5.432175952259798"><ele>19.0</ele><time>2026-04-25T14:12:38.998Z</time></trkpt><trkpt lat="36.280560526004216" lon="-5.432287029413552"><ele>19.0</ele><time>2026-04-25T14:12:39.998Z</time></trkpt><trkpt lat="36.28053225619628" lon="-5.432419833340426"><ele>18.599999999999998</ele><time>2026-04-25T14:12:40.998Z</time></trkpt><trkpt lat="36.2805341219577" lon="-5.432551678303894"><ele>18.2</ele><time>2026-04-25T14:12:41.998Z</time></trkpt><trkpt lat="36.28052101898565" lon="-5.432661259722076"><ele>17.799999999999997</ele><time>2026-04-25T14:12:42.998Z</time></trkpt><trkpt lat="36.2804696570088" lon="-5.432749637611375"><ele>17.4</ele><time>2026-04-25T14:12:43.998Z</time></trkpt><trkpt lat="36.28040700872359" lon="-5.432818641823402"><ele>17.0</ele><time>2026-04-25T14:12:44.998Z</time></trkpt><trkpt lat="36.2803086417844" lon="-5.432832543169931"><ele>17.0</ele><time>2026-04-25T14:12:45.998Z</time></trkpt><trkpt lat="36.28020832513156" lon="-5.432790597559246"><ele>17.0</ele><time>2026-04-25T14:12:46.998Z</time></trkpt><trkpt lat="36.28011923980616" lon="-5.432703565811334"><ele>17.0</ele><time>2026-04-25T14:12:47.998Z</time></trkpt><trkpt lat="36.28001587217446" lon="-5.432629687111353"><ele>17.0</ele><time>2026-04-25T14:12:48.998Z</time></trkpt><trkpt lat="36.27989432329774" lon="-5.4325783491180655"><ele>17.25</ele><time>2026-04-25T14:12:49.998Z</time></trkpt><trkpt lat="36.2797596646639" lon="-5.432538711098215"><ele>17.5</ele><time>2026-04-25T14:12:50.998Z</time></trkpt><trkpt lat="36.27962687222262" lon="-5.432477727371487"><ele>17.75</ele><time>2026-04-25T14:12:51.998Z</time></trkpt><trkpt lat="36.27949596229606" lon="-5.432417409677843"><ele>18.0</ele><time>2026-04-25T14:12:53Z</time></trkpt><trkpt lat="36.279361611394684" lon="-5.432352463326425"><ele>18.0</ele><time>2026-04-25T14:12:54Z</time></trkpt><trkpt lat="36.279225368118716" lon="-5.432270343960388"><ele>18.0</ele><time>2026-04-25T14:12:55Z</time></trkpt><trkpt lat="36.27909967981611" lon="-5.432164142740867"><ele>18.0</ele><time>2026-04-25T14:12:56Z</time></trkpt><trkpt lat="36.27900005410947" lon="-5.432032459621516"><ele>18.0</ele><time>2026-04-25T14:12:57Z</time></trkpt><trkpt lat="36.278914379756245" lon="-5.43190331074761"><ele>17.75</ele><time>2026-04-25T14:12:58Z</time></trkpt><trkpt lat="36.27882611912151" lon="-5.43178275563899"><ele>17.5</ele><time>2026-04-25T14:12:59Z</time></trkpt><trkpt lat="36.27873768139529" lon="-5.43166406523476"><ele>17.25</ele><time>2026-04-25T14:13:00Z</time></trkpt><trkpt lat="36.278644146306384" lon="-5.431540793553173"><ele>17.0</ele><time>2026-04-25T14:13:01Z</time></trkpt><trkpt lat="36.27854326682568" lon="-5.431405777838182"><ele>16.333333333333336</ele><time>2026-04-25T14:13:02Z</time></trkpt><trkpt lat="36.27843798666187" lon="-5.4312555523946395"><ele>15.666666666666668</ele><time>2026-04-25T14:13:03Z</time></trkpt><trkpt lat="36.278328689776465" lon="-5.431092486125471"><ele>15.0</ele><time>2026-04-25T14:13:04Z</time></trkpt><trkpt lat="36.27822464432814" lon="-5.430943881457916"><ele>15.0</ele><time>2026-04-25T14:13:05Z</time></trkpt><trkpt lat="36.27812902869776" lon="-5.430818106100831"><ele>15.0</ele><time>2026-04-25T14:13:06Z</time></trkpt><trkpt lat="36.278027551247945" lon="-5.43071546200776"><ele>15.0</ele><time>2026-04-25T14:13:07Z</time></trkpt><trkpt lat="36.277916849993204" lon="-5.430631353798012"><ele>15.0</ele><time>2026-04-25T14:13:08Z</time></trkpt><trkpt lat="36.27777562043865" lon="-5.430640778840077"><ele>15.0</ele><time>2026-04-25T14:13:09Z</time></trkpt><trkpt lat="36.27763290809141" lon="-5.430625251187159"><ele>15.0</ele><time>2026-04-25T14:13:10Z</time></trkpt><trkpt lat="36.2774864641225" lon="-5.430608046550198"><ele>15.0</ele><time>2026-04-25T14:13:11Z</time></trkpt><trkpt lat="36.27734857754705" lon="-5.430588924538844"><ele>15.0</ele><time>2026-04-25T14:13:12Z</time></trkpt><trkpt lat="36.277207777285575" lon="-5.43054750154469"><ele>15.0</ele><time>2026-04-25T14:13:13Z</time></trkpt><trkpt lat="36.277072252382816" lon="-5.43047979997175"><ele>15.0</ele><time>2026-04-25T14:13:14Z</time></trkpt><trkpt lat="36.27694246731511" lon="-5.430414910452378"><ele>15.0</ele><time>2026-04-25T14:13:15Z</time></trkpt><trkpt lat="36.27679737409627" lon="-5.430364314903321"><ele>15.0</ele><time>2026-04-25T14:13:16Z</time></trkpt><trkpt lat="36.27665068531666" lon="-5.430326171187946"><ele>15.333333333333332</ele><time>2026-04-25T14:13:17Z</time></trkpt><trkpt lat="36.27648940405957" lon="-5.430345176701494"><ele>15.666666666666666</ele><time>2026-04-25T14:13:18Z</time></trkpt><trkpt lat="36.276310932302735" lon="-5.430379346285163"><ele>16.0</ele><time>2026-04-25T14:13:19Z</time></trkpt><trkpt lat="36.27614068843597" lon="-5.430418020201904"><ele>16.0</ele><time>2026-04-25T14:13:20Z</time></trkpt><trkpt lat="36.27597833684177" lon="-5.43044693933635"><ele>16.0</ele><time>2026-04-25T14:13:21Z</time></trkpt><trkpt lat="36.27581526772431" lon="-5.430503395068409"><ele>16.0</ele><time>2026-04-25T14:13:22Z</time></trkpt><trkpt lat="36.275647849435174" lon="-5.430552098644255"><ele>15.666666666666666</ele><time>2026-04-25T14:13:23Z</time></trkpt><trkpt lat="36.27547976746102" lon="-5.430611212179147"><ele>15.333333333333332</ele><time>2026-04-25T14:13:24Z</time></trkpt><trkpt lat="36.27531358436686" lon="-5.43067578486604"><ele>15.0</ele><time>2026-04-25T14:13:25Z</time></trkpt><trkpt lat="36.27514141365968" lon="-5.430724103182952"><ele>15.0</ele><time>2026-04-25T14:13:26Z</time></trkpt><trkpt lat="36.27497416093453" lon="-5.4307876937392905"><ele>15.0</ele><time>2026-04-25T14:13:27Z</time></trkpt><trkpt lat="36.2748078780991" lon="-5.430872874384741"><ele>15.0</ele><time>2026-04-25T14:13:28Z</time></trkpt><trkpt lat="36.27463861932258" lon="-5.430940093346571"><ele>14.666666666666668</ele><time>2026-04-25T14:13:29Z</time></trkpt><trkpt lat="36.274469041490086" lon="-5.431007439012176"><ele>14.333333333333334</ele><time>2026-04-25T14:13:30Z</time></trkpt><trkpt lat="36.274295170169765" lon="-5.431076489800748"><ele>14.0</ele><time>2026-04-25T14:13:31Z</time></trkpt><trkpt lat="36.27411699530876" lon="-5.431148245154883"><ele>14.0</ele><time>2026-04-25T14:13:32Z</time></trkpt><trkpt lat="36.273931044877244" lon="-5.431226004042781"><ele>14.0</ele><time>2026-04-25T14:13:33Z</time></trkpt><trkpt lat="36.273742795546355" lon="-5.431307225637443"><ele>14.0</ele><time>2026-04-25T14:13:34Z</time></trkpt><trkpt lat="36.27355217370687" lon="-5.431391259542094"><ele>14.333333333333334</ele><time>2026-04-25T14:13:35Z</time></trkpt><trkpt lat="36.27335218627502" lon="-5.431458788228979"><ele>14.666666666666668</ele><time>2026-04-25T14:13:36Z</time></trkpt><trkpt lat="36.27316232123414" lon="-5.431544564206247"><ele>15.0</ele><time>2026-04-25T14:13:37Z</time></trkpt><trkpt lat="36.27297992002121" lon="-5.431631738307954"><ele>15.333333333333332</ele><time>2026-04-25T14:13:38Z</time></trkpt><trkpt lat="36.272797047509584" lon="-5.431718501614161"><ele>15.666666666666666</ele><time>2026-04-25T14:13:39Z</time></trkpt><trkpt lat="36.272605884160114" lon="-5.43179714366886"><ele>16.0</ele><time>2026-04-25T14:13:40Z</time></trkpt><trkpt lat="36.27241922914901" lon="-5.4318915664345555"><ele>15.666666666666666</ele><time>2026-04-25T14:13:40.999Z</time></trkpt><trkpt lat="36.27223296885664" lon="-5.431997118311683"><ele>15.333333333333332</ele><time>2026-04-25T14:13:41.999Z</time></trkpt><trkpt lat="36.27205373448292" lon="-5.432104123688587"><ele>15.0</ele><time>2026-04-25T14:13:42.999Z</time></trkpt><trkpt lat="36.27187153701033" lon="-5.432209854154097"><ele>15.666666666666668</ele><time>2026-04-25T14:13:43.999Z</time></trkpt><trkpt lat="36.271679792282406" lon="-5.432251465319718"><ele>16.333333333333336</ele><time>2026-04-25T14:13:44.999Z</time></trkpt><trkpt lat="36.27149900118856" lon="-5.432298402600932"><ele>17.0</ele><time>2026-04-25T14:13:45.999Z</time></trkpt><trkpt lat="36.27127523078803" lon="-5.432270668706379"><ele>17.0</ele><time>2026-04-25T14:13:46.999Z</time></trkpt><trkpt lat="36.271082981305426" lon="-5.432305275787919"><ele>17.0</ele><time>2026-04-25T14:13:47.999Z</time></trkpt><trkpt lat="36.27089852058434" lon="-5.432332694689818"><ele>17.0</ele><time>2026-04-25T14:13:48.999Z</time></trkpt><trkpt lat="36.2707128887593" lon="-5.432363399516218"><ele>16.666666666666668</ele><time>2026-04-25T14:13:49.999Z</time></trkpt><trkpt lat="36.27053490529779" lon="-5.432398680954807"><ele>16.333333333333332</ele><time>2026-04-25T14:13:50.999Z</time></trkpt><trkpt lat="36.27035869678682" lon="-5.432442421065141"><ele>16.0</ele><time>2026-04-25T14:13:51.999Z</time></trkpt><trkpt lat="36.2701772795927" lon="-5.432480659071928"><ele>16.0</ele><time>2026-04-25T14:13:52.999Z</time></trkpt><trkpt lat="36.26999562045145" lon="-5.4325490685094815"><ele>16.0</ele><time>2026-04-25T14:13:53.999Z</time></trkpt><trkpt lat="36.269815120854346" lon="-5.4326274311141685"><ele>16.0</ele><time>2026-04-25T14:13:54.999Z</time></trkpt><trkpt lat="36.26963210856279" lon="-5.4327227202361"><ele>15.666666666666666</ele><time>2026-04-25T14:13:55.999Z</time></trkpt><trkpt lat="36.2694459588658" lon="-5.43283021212129"><ele>15.333333333333332</ele><time>2026-04-25T14:13:56.999Z</time></trkpt><trkpt lat="36.26925836876071" lon="-5.432938601047438"><ele>15.0</ele><time>2026-04-25T14:13:57.999Z</time></trkpt><trkpt lat="36.269065906937506" lon="-5.433044604130336"><ele>14.666666666666668</ele><time>2026-04-25T14:13:58.999Z</time></trkpt><trkpt lat="36.26887083629887" lon="-5.433150324192302"><ele>14.333333333333334</ele><time>2026-04-25T14:13:59.999Z</time></trkpt><trkpt lat="36.26866397853198" lon="-5.43323023289927"><ele>14.0</ele><time>2026-04-25T14:14:00.999Z</time></trkpt><trkpt lat="36.268462345619824" lon="-5.433328260583374"><ele>14.0</ele><time>2026-04-25T14:14:01.999Z</time></trkpt><trkpt lat="36.26825387768386" lon="-5.433415337221259"><ele>14.0</ele><time>2026-04-25T14:14:02.999Z</time></trkpt><trkpt lat="36.268050399929734" lon="-5.433521419240424"><ele>14.0</ele><time>2026-04-25T14:14:03.999Z</time></trkpt><trkpt lat="36.267844351612474" lon="-5.433607787139358"><ele>13.666666666666668</ele><time>2026-04-25T14:14:04.999Z</time></trkpt><trkpt lat="36.2676377167701" lon="-5.433691919416245"><ele>13.333333333333332</ele><time>2026-04-25T14:14:05.999Z</time></trkpt><trkpt lat="36.267435957868926" lon="-5.433774008037591"><ele>13.0</ele><time>2026-04-25T14:14:06.999Z</time></trkpt><trkpt lat="36.26723055637912" lon="-5.43383961513112"><ele>13.666666666666666</ele><time>2026-04-25T14:14:07.999Z</time></trkpt><trkpt lat="36.26703333587348" lon="-5.433928333275237"><ele>14.333333333333332</ele><time>2026-04-25T14:14:08.999Z</time></trkpt><trkpt lat="36.26684177949779" lon="-5.434025628060949"><ele>15.0</ele><time>2026-04-25T14:14:09.999Z</time></trkpt><trkpt lat="36.2666538819525" lon="-5.434141261138403"><ele>15.0</ele><time>2026-04-25T14:14:10.999Z</time></trkpt><trkpt lat="36.2664830360615" lon="-5.434285371981573"><ele>15.0</ele><time>2026-04-25T14:14:11.999Z</time></trkpt><trkpt lat="36.266319169971126" lon="-5.434438887499846"><ele>15.0</ele><time>2026-04-25T14:14:12.999Z</time></trkpt><trkpt lat="36.26616218720266" lon="-5.43458294614717"><ele>14.666666666666668</ele><time>2026-04-25T14:14:13.999Z</time></trkpt><trkpt lat="36.26599989422687" lon="-5.434707287513476"><ele>14.333333333333334</ele><time>2026-04-25T14:14:14.999Z</time></trkpt><trkpt lat="36.265849086188325" lon="-5.434849338351492"><ele>14.0</ele><time>2026-04-25T14:14:15.999Z</time></trkpt><trkpt lat="36.26570175022037" lon="-5.434976455322601"><ele>14.333333333333334</ele><time>2026-04-25T14:14:16.999Z</time></trkpt><trkpt lat="36.26554842202688" lon="-5.4350988960483715"><ele>14.666666666666668</ele><time>2026-04-25T14:14:17.999Z</time></trkpt><trkpt lat="36.26538734185304" lon="-5.435206240175845"><ele>15.0</ele><time>2026-04-25T14:14:18.999Z</time></trkpt><trkpt lat="36.26521894136908" lon="-5.43530822928761"><ele>15.0</ele><time>2026-04-25T14:14:19.999Z</time></trkpt><trkpt lat="36.265048262687095" lon="-5.435416805195952"><ele>15.0</ele><time>2026-04-25T14:14:20.999Z</time></trkpt><trkpt lat="36.26486101123467" lon="-5.435482234016489"><ele>15.0</ele><time>2026-04-25T14:14:21.999Z</time></trkpt><trkpt lat="36.26467318142715" lon="-5.435558804905646"><ele>15.0</ele><time>2026-04-25T14:14:22.999Z</time></trkpt><trkpt lat="36.264487197065755" lon="-5.435620664191027"><ele>15.0</ele><time>2026-04-25T14:14:23.999Z</time></trkpt><trkpt lat="36.26429704880283" lon="-5.435665370338935"><ele>15.0</ele><time>2026-04-25T14:14:24.999Z</time></trkpt><trkpt lat="36.26411191646928" lon="-5.435694277172579"><ele>14.333333333333332</ele><time>2026-04-25T14:14:25.999Z</time></trkpt><trkpt lat="36.263930983818014" lon="-5.435711283313578"><ele>13.666666666666666</ele><time>2026-04-25T14:14:26.999Z</time></trkpt><trkpt lat="36.263741354600775" lon="-5.435753483302855"><ele>13.0</ele><time>2026-04-25T14:14:27.999Z</time></trkpt><trkpt lat="36.263559771473815" lon="-5.4357778992543855"><ele>13.0</ele><time>2026-04-25T14:14:28.999Z</time></trkpt><trkpt lat="36.26337931362097" lon="-5.435815134479391"><ele>13.0</ele><time>2026-04-25T14:14:29.999Z</time></trkpt><trkpt lat="36.26320262704604" lon="-5.435854051026165"><ele>13.0</ele><time>2026-04-25T14:14:30.999Z</time></trkpt><trkpt lat="36.263029158026534" lon="-5.435887989137404"><ele>12.333333333333332</ele><time>2026-04-25T14:14:31.999Z</time></trkpt><trkpt lat="36.262860261461945" lon="-5.43595434678804"><ele>11.666666666666666</ele><time>2026-04-25T14:14:32.999Z</time></trkpt><trkpt lat="36.262684636787206" lon="-5.43602568666282"><ele>11.0</ele><time>2026-04-25T14:14:33.999Z</time></trkpt><trkpt lat="36.2625044558061" lon="-5.436093965641001"><ele>11.0</ele><time>2026-04-25T14:14:34.998Z</time></trkpt><trkpt lat="36.26232998402299" lon="-5.436157926525198"><ele>11.0</ele><time>2026-04-25T14:14:35.998Z</time></trkpt><trkpt lat="36.26215166167987" lon="-5.436219149121286"><ele>11.0</ele><time>2026-04-25T14:14:36.998Z</time></trkpt><trkpt lat="36.261972104857335" lon="-5.436279882710204"><ele>11.666666666666666</ele><time>2026-04-25T14:14:37.998Z</time></trkpt><trkpt lat="36.26178770306734" lon="-5.43634097156419"><ele>12.333333333333332</ele><time>2026-04-25T14:14:38.998Z</time></trkpt><trkpt lat="36.26159320156716" lon="-5.436393363220057"><ele>13.0</ele><time>2026-04-25T14:14:39.998Z</time></trkpt><trkpt lat="36.26139968240884" lon="-5.436435818513876"><ele>13.333333333333332</ele><time>2026-04-25T14:14:40.998Z</time></trkpt><trkpt lat="36.26120299809774" lon="-5.43647200497214"><ele>13.666666666666668</ele><time>2026-04-25T14:14:41.998Z</time></trkpt><trkpt lat="36.261001858788596" lon="-5.436494103434305"><ele>14.0</ele><time>2026-04-25T14:14:42.998Z</time></trkpt><trkpt lat="36.26079639440471" lon="-5.436508100834892"><ele>13.333333333333334</ele><time>2026-04-25T14:14:43.998Z</time></trkpt><trkpt lat="36.26060360683754" lon="-5.436524506665763"><ele>12.666666666666668</ele><time>2026-04-25T14:14:44.998Z</time></trkpt><trkpt lat="36.26041011991932" lon="-5.436552094847947"><ele>12.0</ele><time>2026-04-25T14:14:45.998Z</time></trkpt><trkpt lat="36.260225028800754" lon="-5.436577229095713"><ele>12.0</ele><time>2026-04-25T14:14:46.998Z</time></trkpt><trkpt lat="36.26004180828888" lon="-5.436611116866475"><ele>12.0</ele><time>2026-04-25T14:14:47.998Z</time></trkpt><trkpt lat="36.259863541839934" lon="-5.436635436949596"><ele>12.0</ele><time>2026-04-25T14:14:48.998Z</time></trkpt><trkpt lat="36.259677832357774" lon="-5.436669437693138"><ele>12.0</ele><time>2026-04-25T14:14:49.998Z</time></trkpt><trkpt lat="36.25949864782815" lon="-5.436697443983495"><ele>12.0</ele><time>2026-04-25T14:14:50.998Z</time></trkpt><trkpt lat="36.25931476342077" lon="-5.436731766484448"><ele>12.0</ele><time>2026-04-25T14:14:51.998Z</time></trkpt><trkpt lat="36.259125852403" lon="-5.436772229242406"><ele>11.666666666666666</ele><time>2026-04-25T14:14:52.998Z</time></trkpt><trkpt lat="36.258931155375656" lon="-5.436807717837388"><ele>11.333333333333332</ele><time>2026-04-25T14:14:53.998Z</time></trkpt><trkpt lat="36.2587278172073" lon="-5.436852773586049"><ele>11.0</ele><time>2026-04-25T14:14:54.998Z</time></trkpt><trkpt lat="36.25852483267556" lon="-5.436891206076706"><ele>11.0</ele><time>2026-04-25T14:14:55.998Z</time></trkpt><trkpt lat="36.258336968317074" lon="-5.436929265978075"><ele>11.0</ele><time>2026-04-25T14:14:56.998Z</time></trkpt><trkpt lat="36.25815495808482" lon="-5.436958129960418"><ele>11.0</ele><time>2026-04-25T14:14:57.998Z</time></trkpt><trkpt lat="36.25796934015082" lon="-5.437001075624641"><ele>11.0</ele><time>2026-04-25T14:14:59Z</time></trkpt><trkpt lat="36.257784894135206" lon="-5.437043156376558"><ele>11.0</ele><time>2026-04-25T14:15:00Z</time></trkpt><trkpt lat="36.257597541038876" lon="-5.437092893268887"><ele>11.0</ele><time>2026-04-25T14:15:01Z</time></trkpt><trkpt lat="36.25740684682813" lon="-5.437144993724111"><ele>11.333333333333332</ele><time>2026-04-25T14:15:02Z</time></trkpt><trkpt lat="36.25721616217262" lon="-5.437206645039065"><ele>11.666666666666666</ele><time>2026-04-25T14:15:03Z</time></trkpt><trkpt lat="36.257016820207006" lon="-5.43727249164274"><ele>12.0</ele><time>2026-04-25T14:15:04Z</time></trkpt><trkpt lat="36.25681935709201" lon="-5.437350822001427"><ele>12.0</ele><time>2026-04-25T14:15:05Z</time></trkpt><trkpt lat="36.25661442116907" lon="-5.437416774596883"><ele>12.0</ele><time>2026-04-25T14:15:06Z</time></trkpt><trkpt lat="36.256413221698615" lon="-5.43747978276544"><ele>12.0</ele><time>2026-04-25T14:15:07Z</time></trkpt><trkpt lat="36.25620107453584" lon="-5.437562129495302"><ele>11.333333333333334</ele><time>2026-04-25T14:15:08Z</time></trkpt><trkpt lat="36.255988908963985" lon="-5.437641604031837"><ele>10.666666666666668</ele><time>2026-04-25T14:15:09Z</time></trkpt><trkpt lat="36.25577408655126" lon="-5.437716069229654"><ele>10.0</ele><time>2026-04-25T14:15:10Z</time></trkpt><trkpt lat="36.25555821696874" lon="-5.43779172558465"><ele>10.0</ele><time>2026-04-25T14:15:11Z</time></trkpt><trkpt lat="36.255342814865024" lon="-5.437869618265293"><ele>10.0</ele><time>2026-04-25T14:15:12Z</time></trkpt><trkpt lat="36.25513350601443" lon="-5.437944569289793"><ele>10.0</ele><time>2026-04-25T14:15:13Z</time></trkpt><trkpt lat="36.25492291392525" lon="-5.43802393326832"><ele>10.333333333333334</ele><time>2026-04-25T14:15:14Z</time></trkpt><trkpt lat="36.25470894704363" lon="-5.438102105181762"><ele>10.666666666666666</ele><time>2026-04-25T14:15:15Z</time></trkpt><trkpt lat="36.25450822752419" lon="-5.438168538319176"><ele>11.0</ele><time>2026-04-25T14:15:16Z</time></trkpt><trkpt lat="36.254306691044405" lon="-5.438241296497408"><ele>11.0</ele><time>2026-04-25T14:15:17Z</time></trkpt><trkpt lat="36.25410859692785" lon="-5.43831096107123"><ele>11.0</ele><time>2026-04-25T14:15:18Z</time></trkpt><trkpt lat="36.25391118472664" lon="-5.438378926135521"><ele>11.0</ele><time>2026-04-25T14:15:19Z</time></trkpt><trkpt lat="36.25371199174038" lon="-5.438438765128912"><ele>10.666666666666666</ele><time>2026-04-25T14:15:20Z</time></trkpt><trkpt lat="36.2535098397791" lon="-5.438487255887203"><ele>10.333333333333334</ele><time>2026-04-25T14:15:21Z</time></trkpt><trkpt lat="36.253300416232996" lon="-5.438525684718126"><ele>10.0</ele><time>2026-04-25T14:15:22Z</time></trkpt><trkpt lat="36.253085748785885" lon="-5.438551847070934"><ele>9.666666666666668</ele><time>2026-04-25T14:15:23Z</time></trkpt><trkpt lat="36.25287378682796" lon="-5.438559226778001"><ele>9.333333333333334</ele><time>2026-04-25T14:15:24Z</time></trkpt><trkpt lat="36.252663208742966" lon="-5.438561580460171"><ele>9.0</ele><time>2026-04-25T14:15:25Z</time></trkpt><trkpt lat="36.25244523048594" lon="-5.438556800247056"><ele>9.333333333333334</ele><time>2026-04-25T14:15:26Z</time></trkpt><trkpt lat="36.25222677965062" lon="-5.438553661418831"><ele>9.666666666666668</ele><time>2026-04-25T14:15:27Z</time></trkpt><trkpt lat="36.25200819894966" lon="-5.438546261470629"><ele>10.0</ele><time>2026-04-25T14:15:28Z</time></trkpt><trkpt lat="36.25179530567496" lon="-5.43854845642379"><ele>10.0</ele><time>2026-04-25T14:15:29Z</time></trkpt><trkpt lat="36.25159084690858" lon="-5.438547826184795"><ele>10.0</ele><time>2026-04-25T14:15:30Z</time></trkpt><trkpt lat="36.251383795155434" lon="-5.438547983718192"><ele>10.0</ele><time>2026-04-25T14:15:31Z</time></trkpt><trkpt lat="36.25117504614168" lon="-5.438548167941272"><ele>9.666666666666668</ele><time>2026-04-25T14:15:32Z</time></trkpt><trkpt lat="36.25096524317964" lon="-5.438544881729204"><ele>9.333333333333334</ele><time>2026-04-25T14:15:33Z</time></trkpt><trkpt lat="36.250754068931045" lon="-5.438540628878628"><ele>9.0</ele><time>2026-04-25T14:15:34Z</time></trkpt><trkpt lat="36.25053722962125" lon="-5.438540892221508"><ele>9.0</ele><time>2026-04-25T14:15:35Z</time></trkpt><trkpt lat="36.25032088915335" lon="-5.438574105566063"><ele>9.0</ele><time>2026-04-25T14:15:36Z</time></trkpt><trkpt lat="36.25010441221037" lon="-5.438572836250516"><ele>9.0</ele><time>2026-04-25T14:15:37Z</time></trkpt><trkpt lat="36.24988965069929" lon="-5.4385716502086865"><ele>8.666666666666666</ele><time>2026-04-25T14:15:38Z</time></trkpt><trkpt lat="36.249673740441715" lon="-5.438569104075599"><ele>8.333333333333332</ele><time>2026-04-25T14:15:39Z</time></trkpt><trkpt lat="36.24945312801396" lon="-5.438563850799923"><ele>8.0</ele><time>2026-04-25T14:15:39.999Z</time></trkpt><trkpt lat="36.249236593469675" lon="-5.438533814078286"><ele>8.0</ele><time>2026-04-25T14:15:40.999Z</time></trkpt><trkpt lat="36.24901816851365" lon="-5.438543697036377"><ele>8.0</ele><time>2026-04-25T14:15:41.999Z</time></trkpt><trkpt lat="36.24880150889326" lon="-5.4385273694963985"><ele>8.0</ele><time>2026-04-25T14:15:42.999Z</time></trkpt><trkpt lat="36.24859598302026" lon="-5.438506982408734"><ele>8.333333333333332</ele><time>2026-04-25T14:15:43.999Z</time></trkpt><trkpt lat="36.248392332923565" lon="-5.438484757775714"><ele>8.666666666666666</ele><time>2026-04-25T14:15:44.999Z</time></trkpt><trkpt lat="36.24818986611152" lon="-5.438461824919361"><ele>9.0</ele><time>2026-04-25T14:15:45.999Z</time></trkpt><trkpt lat="36.24799031786046" lon="-5.4384355284005865"><ele>9.333333333333334</ele><time>2026-04-25T14:15:46.999Z</time></trkpt><trkpt lat="36.24779678306769" lon="-5.438407140311894"><ele>9.666666666666668</ele><time>2026-04-25T14:15:47.999Z</time></trkpt><trkpt lat="36.24759092327712" lon="-5.438370852672012"><ele>10.0</ele><time>2026-04-25T14:15:48.999Z</time></trkpt><trkpt lat="36.24738600673119" lon="-5.438311489835504"><ele>9.666666666666668</ele><time>2026-04-25T14:15:49.999Z</time></trkpt><trkpt lat="36.24717624042003" lon="-5.438266789486363"><ele>9.333333333333334</ele><time>2026-04-25T14:15:50.999Z</time></trkpt><trkpt lat="36.2469652098052" lon="-5.438219064122735"><ele>9.0</ele><time>2026-04-25T14:15:51.999Z</time></trkpt><trkpt lat="36.24674647986753" lon="-5.438169729458869"><ele>9.0</ele><time>2026-04-25T14:15:52.999Z</time></trkpt><trkpt lat="36.24653040158214" lon="-5.438117748958641"><ele>9.0</ele><time>2026-04-25T14:15:53.999Z</time></trkpt><trkpt lat="36.2463090240281" lon="-5.438059075488843"><ele>9.0</ele><time>2026-04-25T14:15:54.999Z</time></trkpt><trkpt lat="36.24609205189914" lon="-5.437995059507075"><ele>8.5</ele><time>2026-04-25T14:15:55.999Z</time></trkpt><trkpt lat="36.24586502298605" lon="-5.437950683660108"><ele>8.0</ele><time>2026-04-25T14:15:56.999Z</time></trkpt><trkpt lat="36.24564012066637" lon="-5.437885372123973"><ele>8.5</ele><time>2026-04-25T14:15:57.999Z</time></trkpt><trkpt lat="36.24541868305916" lon="-5.437799756305839"><ele>9.0</ele><time>2026-04-25T14:15:58.999Z</time></trkpt><trkpt lat="36.24519361330217" lon="-5.437748593264777"><ele>9.0</ele><time>2026-04-25T14:15:59.999Z</time></trkpt><trkpt lat="36.24498956218531" lon="-5.4376600615767385"><ele>9.0</ele><time>2026-04-25T14:16:00.999Z</time></trkpt><trkpt lat="36.24478637506868" lon="-5.43760160318393"><ele>9.0</ele><time>2026-04-25T14:16:01.999Z</time></trkpt><trkpt lat="36.2445947942317" lon="-5.4374985135139475"><ele>8.666666666666666</ele><time>2026-04-25T14:16:02.999Z</time></trkpt><trkpt lat="36.244393545879305" lon="-5.43739783869828"><ele>8.333333333333332</ele><time>2026-04-25T14:16:03.999Z</time></trkpt><trkpt lat="36.2441930891642" lon="-5.437283529719605"><ele>8.0</ele><time>2026-04-25T14:16:04.999Z</time></trkpt><trkpt lat="36.24399334550465" lon="-5.437162027219879"><ele>7.333333333333333</ele><time>2026-04-25T14:16:05.999Z</time></trkpt><trkpt lat="36.243794970321304" lon="-5.437040197622829"><ele>6.666666666666666</ele><time>2026-04-25T14:16:06.999Z</time></trkpt><trkpt lat="36.24359882980448" lon="-5.436919559688489"><ele>6.0</ele><time>2026-04-25T14:16:07.999Z</time></trkpt><trkpt lat="36.24340868922895" lon="-5.436824885638457"><ele>6.0</ele><time>2026-04-25T14:16:08.999Z</time></trkpt><trkpt lat="36.24322734974436" lon="-5.436713544618036"><ele>6.0</ele><time>2026-04-25T14:16:09.999Z</time></trkpt><trkpt lat="36.24304182034479" lon="-5.436607073200909"><ele>6.0</ele><time>2026-04-25T14:16:10.999Z</time></trkpt><trkpt lat="36.242849801038346" lon="-5.436504547092878"><ele>6.0</ele><time>2026-04-25T14:16:11.999Z</time></trkpt><trkpt lat="36.24265785910943" lon="-5.43641176732"><ele>6.0</ele><time>2026-04-25T14:16:12.999Z</time></trkpt><trkpt lat="36.24246415055631" lon="-5.436326338084893"><ele>6.0</ele><time>2026-04-25T14:16:13.999Z</time></trkpt><trkpt lat="36.24227512255054" lon="-5.436243803392271"><ele>6.333333333333334</ele><time>2026-04-25T14:16:14.999Z</time></trkpt><trkpt lat="36.242086417490505" lon="-5.436161409796543"><ele>6.666666666666667</ele><time>2026-04-25T14:16:15.999Z</time></trkpt><trkpt lat="36.24190048295178" lon="-5.436080225823985"><ele>7.0</ele><time>2026-04-25T14:16:16.999Z</time></trkpt><trkpt lat="36.24171992403371" lon="-5.436002862539265"><ele>7.0</ele><time>2026-04-25T14:16:17.999Z</time></trkpt><trkpt lat="36.24153384639639" lon="-5.435923302405446"><ele>7.0</ele><time>2026-04-25T14:16:18.999Z</time></trkpt><trkpt lat="36.24134494495048" lon="-5.435842536223706"><ele>7.0</ele><time>2026-04-25T14:16:19.999Z</time></trkpt><trkpt lat="36.24115329237203" lon="-5.43576068529324"><ele>7.333333333333334</ele><time>2026-04-25T14:16:20.999Z</time></trkpt><trkpt lat="36.24096345296554" lon="-5.435664418426104"><ele>7.666666666666666</ele><time>2026-04-25T14:16:21.999Z</time></trkpt><trkpt lat="36.240776432193925" lon="-5.435582462334429"><ele>8.0</ele><time>2026-04-25T14:16:22.999Z</time></trkpt><trkpt lat="36.24058131786379" lon="-5.435520411964852"><ele>8.0</ele><time>2026-04-25T14:16:23.999Z</time></trkpt><trkpt lat="36.24039044618576" lon="-5.435452697872441"><ele>8.0</ele><time>2026-04-25T14:16:24.999Z</time></trkpt><trkpt lat="36.24019647522955" lon="-5.435393989181787"><ele>8.0</ele><time>2026-04-25T14:16:25.999Z</time></trkpt><trkpt lat="36.23999569806002" lon="-5.435344543693506"><ele>8.333333333333332</ele><time>2026-04-25T14:16:26.999Z</time></trkpt><trkpt lat="36.23979345161989" lon="-5.435304058961851"><ele>8.666666666666666</ele><time>2026-04-25T14:16:27.999Z</time></trkpt><trkpt lat="36.23958956805201" lon="-5.435276614839756"><ele>9.0</ele><time>2026-04-25T14:16:28.999Z</time></trkpt><trkpt lat="36.23938652003744" lon="-5.435266018546614"><ele>9.0</ele><time>2026-04-25T14:16:29.999Z</time></trkpt><trkpt lat="36.239181821819756" lon="-5.435267554918061"><ele>9.0</ele><time>2026-04-25T14:16:30.999Z</time></trkpt><trkpt lat="36.23897640531089" lon="-5.435279258966988"><ele>9.0</ele><time>2026-04-25T14:16:31.998Z</time></trkpt><trkpt lat="36.238767096742" lon="-5.435306969364565"><ele>8.666666666666666</ele><time>2026-04-25T14:16:32.998Z</time></trkpt><trkpt lat="36.23855601172179" lon="-5.435349533181218"><ele>8.333333333333332</ele><time>2026-04-25T14:16:33.998Z</time></trkpt><trkpt lat="36.238342499537836" lon="-5.435394003924798"><ele>8.0</ele><time>2026-04-25T14:16:34.998Z</time></trkpt><trkpt lat="36.23812984113461" lon="-5.435440538125055"><ele>10.0</ele><time>2026-04-25T14:16:35.998Z</time></trkpt><trkpt lat="36.23791530178353" lon="-5.4354929622294295"><ele>12.0</ele><time>2026-04-25T14:16:36.998Z</time></trkpt><trkpt lat="36.23769902738129" lon="-5.4355493822201515"><ele>14.0</ele><time>2026-04-25T14:16:37.998Z</time></trkpt><trkpt lat="36.237479919426306" lon="-5.435607747665986"><ele>12.5</ele><time>2026-04-25T14:16:38.998Z</time></trkpt><trkpt lat="36.23726164413907" lon="-5.435666727446021"><ele>11.0</ele><time>2026-04-25T14:16:39.998Z</time></trkpt><trkpt lat="36.237040718038884" lon="-5.435727207413287"><ele>11.0</ele><time>2026-04-25T14:16:40.998Z</time></trkpt><trkpt lat="36.236819337814374" lon="-5.435788029912119"><ele>11.0</ele><time>2026-04-25T14:16:41.998Z</time></trkpt><trkpt lat="36.23660118292643" lon="-5.43583403979029"><ele>11.0</ele><time>2026-04-25T14:16:42.998Z</time></trkpt><trkpt lat="36.23639189442219" lon="-5.435901461348945"><ele>10.333333333333332</ele><time>2026-04-25T14:16:43.998Z</time></trkpt><trkpt lat="36.23619012799759" lon="-5.4359883391413835"><ele>9.666666666666666</ele><time>2026-04-25T14:16:44.998Z</time></trkpt><trkpt lat="36.23598758785454" lon="-5.436055032632866"><ele>9.0</ele><time>2026-04-25T14:16:45.998Z</time></trkpt><trkpt lat="36.235782874703126" lon="-5.436122441656628"><ele>9.666666666666666</ele><time>2026-04-25T14:16:46.998Z</time></trkpt><trkpt lat="36.23557746944484" lon="-5.436190078596298"><ele>10.333333333333332</ele><time>2026-04-25T14:16:47.998Z</time></trkpt><trkpt lat="36.235366764908626" lon="-5.436240750807572"><ele>11.0</ele><time>2026-04-25T14:16:48.998Z</time></trkpt><trkpt lat="36.23515809267275" lon="-5.43631327848516"><ele>11.0</ele><time>2026-04-25T14:16:49.998Z</time></trkpt><trkpt lat="36.23494480914242" lon="-5.436379760681277"><ele>11.0</ele><time>2026-04-25T14:16:50.998Z</time></trkpt><trkpt lat="36.2347377343919" lon="-5.436446214666552"><ele>11.0</ele><time>2026-04-25T14:16:51.998Z</time></trkpt><trkpt lat="36.234525908569225" lon="-5.436510351638453"><ele>10.666666666666666</ele><time>2026-04-25T14:16:52.998Z</time></trkpt><trkpt lat="36.23431932804096" lon="-5.43658242422216"><ele>10.333333333333334</ele><time>2026-04-25T14:16:53.998Z</time></trkpt><trkpt lat="36.23411552620854" lon="-5.436655165072415"><ele>10.0</ele><time>2026-04-25T14:16:54.998Z</time></trkpt><trkpt lat="36.233915050976165" lon="-5.4367184341347645"><ele>9.333333333333334</ele><time>2026-04-25T14:16:55.998Z</time></trkpt><trkpt lat="36.23371649172459" lon="-5.436780391359288"><ele>8.666666666666666</ele><time>2026-04-25T14:16:56.998Z</time></trkpt><trkpt lat="36.233524000592624" lon="-5.436845833550823"><ele>8.0</ele><time>2026-04-25T14:16:57.998Z</time></trkpt><trkpt lat="36.233331001042274" lon="-5.436907539209975"><ele>8.0</ele><time>2026-04-25T14:16:58.998Z</time></trkpt><trkpt lat="36.23313938714876" lon="-5.436967329930316"><ele>8.0</ele><time>2026-04-25T14:16:59.998Z</time></trkpt><trkpt lat="36.23294193516876" lon="-5.437039258388228"><ele>8.0</ele><time>2026-04-25T14:17:00.998Z</time></trkpt><trkpt lat="36.23273893198291" lon="-5.437111613289983"><ele>9.666666666666666</ele><time>2026-04-25T14:17:01.998Z</time></trkpt><trkpt lat="36.2325378810029" lon="-5.437187076838262"><ele>11.333333333333332</ele><time>2026-04-25T14:17:02.998Z</time></trkpt><trkpt lat="36.232331675546774" lon="-5.437262409063487"><ele>13.0</ele><time>2026-04-25T14:17:03.998Z</time></trkpt><trkpt lat="36.23211877377515" lon="-5.437328475707062"><ele>13.0</ele><time>2026-04-25T14:17:05Z</time></trkpt><trkpt lat="36.231902303703905" lon="-5.437383771777585"><ele>13.0</ele><time>2026-04-25T14:17:06Z</time></trkpt><trkpt lat="36.23168482050151" lon="-5.437427098241435"><ele>13.0</ele><time>2026-04-25T14:17:07Z</time></trkpt><trkpt lat="36.231462013129025" lon="-5.437450137436574"><ele>11.0</ele><time>2026-04-25T14:17:08Z</time></trkpt><trkpt lat="36.23123761153119" lon="-5.437463022372517"><ele>9.0</ele><time>2026-04-25T14:17:09Z</time></trkpt><trkpt lat="36.23101533042434" lon="-5.4374729052706465"><ele>7.0</ele><time>2026-04-25T14:17:10Z</time></trkpt><trkpt lat="36.23079350965044" lon="-5.4374721514752675"><ele>6.0</ele><time>2026-04-25T14:17:11Z</time></trkpt><trkpt lat="36.23058326649959" lon="-5.4374741863416345"><ele>5.0</ele><time>2026-04-25T14:17:12Z</time></trkpt><trkpt lat="36.23037939616231" lon="-5.437487313082962"><ele>4.0</ele><time>2026-04-25T14:17:13Z</time></trkpt><trkpt lat="36.230170880412295" lon="-5.4374978141168375"><ele>4.0</ele><time>2026-04-25T14:17:14Z</time></trkpt><trkpt lat="36.22996600251009" lon="-5.437503012378538"><ele>4.0</ele><time>2026-04-25T14:17:15Z</time></trkpt><trkpt lat="36.229768640720444" lon="-5.437511133305344"><ele>4.0</ele><time>2026-04-25T14:17:16Z</time></trkpt><trkpt lat="36.229584563562796" lon="-5.437521117453341"><ele>4.0</ele><time>2026-04-25T14:17:17Z</time></trkpt><trkpt lat="36.229413176769604" lon="-5.437529716951057"><ele>4.0</ele><time>2026-04-25T14:17:18Z</time></trkpt><trkpt lat="36.22925032916198" lon="-5.437535963512693"><ele>4.0</ele><time>2026-04-25T14:17:19Z</time></trkpt><trkpt lat="36.229088348170166" lon="-5.437535500648831"><ele>4.0</ele><time>2026-04-25T14:17:20Z</time></trkpt><trkpt lat="36.22891846911842" lon="-5.437526906832025"><ele>4.0</ele><time>2026-04-25T14:17:21Z</time></trkpt><trkpt lat="36.228747854258636" lon="-5.437505051033667"><ele>4.0</ele><time>2026-04-25T14:17:22Z</time></trkpt><trkpt lat="36.228577571038485" lon="-5.437470876081657"><ele>4.0</ele><time>2026-04-25T14:17:23Z</time></trkpt><trkpt lat="36.22840350505364" lon="-5.437422773945701"><ele>4.0</ele><time>2026-04-25T14:17:24Z</time></trkpt><trkpt lat="36.22823484572827" lon="-5.437362546546019"><ele>4.0</ele><time>2026-04-25T14:17:25Z</time></trkpt><trkpt lat="36.22806549882988" lon="-5.437292786561604"><ele>4.0</ele><time>2026-04-25T14:17:26Z</time></trkpt><trkpt lat="36.2278919500587" lon="-5.437207255895121"><ele>4.0</ele><time>2026-04-25T14:17:27Z</time></trkpt><trkpt lat="36.22771825726401" lon="-5.437105249380484"><ele>4.0</ele><time>2026-04-25T14:17:28Z</time></trkpt><trkpt lat="36.22754730672174" lon="-5.4369889344306355"><ele>4.0</ele><time>2026-04-25T14:17:29Z</time></trkpt><trkpt lat="36.22738529172852" lon="-5.4368545264178545"><ele>4.0</ele><time>2026-04-25T14:17:30Z</time></trkpt><trkpt lat="36.22723030439674" lon="-5.436706262811499"><ele>4.0</ele><time>2026-04-25T14:17:31Z</time></trkpt><trkpt lat="36.22708789810253" lon="-5.43654466278429"><ele>4.333333333333333</ele><time>2026-04-25T14:17:32Z</time></trkpt><trkpt lat="36.226958025658526" lon="-5.436371473495398"><ele>4.666666666666667</ele><time>2026-04-25T14:17:33Z</time></trkpt><trkpt lat="36.226842146237814" lon="-5.4361882947450795"><ele>5.0</ele><time>2026-04-25T14:17:34Z</time></trkpt><trkpt lat="36.226732546194405" lon="-5.435995673576855"><ele>5.0</ele><time>2026-04-25T14:17:35Z</time></trkpt><trkpt lat="36.22663571783863" lon="-5.435797384838119"><ele>5.0</ele><time>2026-04-25T14:17:36Z</time></trkpt><trkpt lat="36.22655812977527" lon="-5.435595009272592"><ele>5.0</ele><time>2026-04-25T14:17:37Z</time></trkpt><trkpt lat="36.226491307581036" lon="-5.435394861451201"><ele>4.666666666666667</ele><time>2026-04-25T14:17:38Z</time></trkpt><trkpt lat="36.226435412175945" lon="-5.435195760226568"><ele>4.333333333333333</ele><time>2026-04-25T14:17:39Z</time></trkpt><trkpt lat="36.22638861422763" lon="-5.43499254731046"><ele>4.0</ele><time>2026-04-25T14:17:40Z</time></trkpt><trkpt lat="36.226352633250045" lon="-5.434785431979505"><ele>6.0</ele><time>2026-04-25T14:17:41Z</time></trkpt><trkpt lat="36.226324114300795" lon="-5.434576035024807"><ele>8.0</ele><time>2026-04-25T14:17:42Z</time></trkpt><trkpt lat="36.22630224042337" lon="-5.434375295990566"><ele>10.0</ele><time>2026-04-25T14:17:43Z</time></trkpt><trkpt lat="36.22629772175282" lon="-5.434167894028372"><ele>10.0</ele><time>2026-04-25T14:17:44Z</time></trkpt><trkpt lat="36.22630955763514" lon="-5.433961097047026"><ele>10.0</ele><time>2026-04-25T14:17:45Z</time></trkpt><trkpt lat="36.22633406424577" lon="-5.433756529359863"><ele>10.0</ele><time>2026-04-25T14:17:45.999Z</time></trkpt><trkpt lat="36.22636894812504" lon="-5.433554595647228"><ele>12.333333333333334</ele><time>2026-04-25T14:17:46.999Z</time></trkpt><trkpt lat="36.22640825471416" lon="-5.433354526635565"><ele>14.666666666666668</ele><time>2026-04-25T14:17:47.999Z</time></trkpt><trkpt lat="36.226459509938785" lon="-5.433152445644992"><ele>17.0</ele><time>2026-04-25T14:17:48.999Z</time></trkpt><trkpt lat="36.22651627398467" lon="-5.432957315105891"><ele>18.333333333333336</ele><time>2026-04-25T14:17:49.999Z</time></trkpt><trkpt lat="36.2265743420214" lon="-5.432763681937123"><ele>19.666666666666668</ele><time>2026-04-25T14:17:50.999Z</time></trkpt><trkpt lat="36.226634930941486" lon="-5.432580274912988"><ele>21.0</ele><time>2026-04-25T14:17:51.999Z</time></trkpt><trkpt lat="36.22668637050044" lon="-5.4324064827020475"><ele>21.0</ele><time>2026-04-25T14:17:52.999Z</time></trkpt><trkpt lat="36.22673205553876" lon="-5.4322403263323755"><ele>21.0</ele><time>2026-04-25T14:17:53.999Z</time></trkpt><trkpt lat="36.22677605495856" lon="-5.432087976523176"><ele>21.0</ele><time>2026-04-25T14:17:54.999Z</time></trkpt><trkpt lat="36.226824379377035" lon="-5.431927334850328"><ele>21.0</ele><time>2026-04-25T14:17:55.999Z</time></trkpt><trkpt lat="36.22687639888333" lon="-5.431756605021389"><ele>21.0</ele><time>2026-04-25T14:17:56.999Z</time></trkpt><trkpt lat="36.22691005189107" lon="-5.431590298558267"><ele>21.0</ele><time>2026-04-25T14:17:57.999Z</time></trkpt><trkpt lat="36.2269192836728" lon="-5.431435976661793"><ele>21.0</ele><time>2026-04-25T14:17:58.999Z</time></trkpt><trkpt lat="36.2269153069406" lon="-5.431288345605852"><ele>21.0</ele><time>2026-04-25T14:17:59.999Z</time></trkpt><trkpt lat="36.226904074484885" lon="-5.431147557267402"><ele>20.5</ele><time>2026-04-25T14:18:00.999Z</time></trkpt><trkpt lat="36.226885247184164" lon="-5.431016524568714"><ele>20.0</ele><time>2026-04-25T14:18:01.999Z</time></trkpt><trkpt lat="36.226867270828166" lon="-5.430864058469453"><ele>19.5</ele><time>2026-04-25T14:18:02.999Z</time></trkpt><trkpt lat="36.22688318648343" lon="-5.430713599064832"><ele>19.0</ele><time>2026-04-25T14:18:03.999Z</time></trkpt><trkpt lat="36.22691212836799" lon="-5.430570966880398"><ele>19.0</ele><time>2026-04-25T14:18:04.999Z</time></trkpt><trkpt lat="36.22703297543478" lon="-5.430451505014513"><ele>19.0</ele><time>2026-04-25T14:18:05.999Z</time></trkpt><trkpt lat="36.22713999551461" lon="-5.430331357452057"><ele>19.0</ele><time>2026-04-25T14:18:06.999Z</time></trkpt><trkpt lat="36.22724094621379" lon="-5.4301884112428835"><ele>20.666666666666664</ele><time>2026-04-25T14:18:07.999Z</time></trkpt><trkpt lat="36.227325336416065" lon="-5.430011106052852"><ele>22.333333333333332</ele><time>2026-04-25T14:18:08.999Z</time></trkpt><trkpt lat="36.22740516479251" lon="-5.4298178397529115"><ele>24.0</ele><time>2026-04-25T14:18:09.999Z</time></trkpt><trkpt lat="36.22741541971455" lon="-5.429580156281664"><ele>25.666666666666664</ele><time>2026-04-25T14:18:10.999Z</time></trkpt><trkpt lat="36.22742930012924" lon="-5.429346671272972"><ele>27.333333333333332</ele><time>2026-04-25T14:18:11.999Z</time></trkpt><trkpt lat="36.22743188945745" lon="-5.429103652862458"><ele>29.0</ele><time>2026-04-25T14:18:12.999Z</time></trkpt><trkpt lat="36.227426332610264" lon="-5.428856117377696"><ele>29.666666666666664</ele><time>2026-04-25T14:18:13.999Z</time></trkpt><trkpt lat="36.227412985993965" lon="-5.428601416673517"><ele>30.333333333333336</ele><time>2026-04-25T14:18:14.999Z</time></trkpt><trkpt lat="36.22738642961348" lon="-5.428364709109849"><ele>31.0</ele><time>2026-04-25T14:18:15.999Z</time></trkpt><trkpt lat="36.227348764363924" lon="-5.428156781989167"><ele>27.666666666666668</ele><time>2026-04-25T14:18:16.999Z</time></trkpt><trkpt lat="36.22730649206447" lon="-5.427964816647683"><ele>24.333333333333336</ele><time>2026-04-25T14:18:17.999Z</time></trkpt><trkpt lat="36.22726220584415" lon="-5.427770234278539"><ele>21.0</ele><time>2026-04-25T14:18:18.999Z</time></trkpt><trkpt lat="36.22721242861534" lon="-5.427579443060667"><ele>21.0</ele><time>2026-04-25T14:18:19.999Z</time></trkpt><trkpt lat="36.22715352175871" lon="-5.4273872537685826"><ele>21.0</ele><time>2026-04-25T14:18:20.999Z</time></trkpt><trkpt lat="36.22708569639943" lon="-5.427201419513499"><ele>21.0</ele><time>2026-04-25T14:18:21.999Z</time></trkpt><trkpt lat="36.2270141845429" lon="-5.427026514563517"><ele>21.666666666666668</ele><time>2026-04-25T14:18:22.999Z</time></trkpt><trkpt lat="36.22694108489512" lon="-5.426859034900473"><ele>22.333333333333336</ele><time>2026-04-25T14:18:23.999Z</time></trkpt><trkpt lat="36.22685558917381" lon="-5.426690958908065"><ele>23.0</ele><time>2026-04-25T14:18:24.999Z</time></trkpt><trkpt lat="36.22675828845008" lon="-5.426519524189961"><ele>23.0</ele><time>2026-04-25T14:18:25.999Z</time></trkpt><trkpt lat="36.22665638890682" lon="-5.426348680755506"><ele>23.0</ele><time>2026-04-25T14:18:26.999Z</time></trkpt><trkpt lat="36.226541960050476" lon="-5.426174148586277"><ele>23.0</ele><time>2026-04-25T14:18:27.999Z</time></trkpt><trkpt lat="36.226423757813116" lon="-5.425994980631175"><ele>24.666666666666668</ele><time>2026-04-25T14:18:28.999Z</time></trkpt><trkpt lat="36.226293305226775" lon="-5.425801623664517"><ele>26.333333333333336</ele><time>2026-04-25T14:18:29.999Z</time></trkpt><trkpt lat="36.22613629945582" lon="-5.425612600081507"><ele>28.0</ele><time>2026-04-25T14:18:30.999Z</time></trkpt><trkpt lat="36.22598561422642" lon="-5.425403398023401"><ele>30.0</ele><time>2026-04-25T14:18:31.999Z</time></trkpt><trkpt lat="36.225834788305946" lon="-5.425189630283494"><ele>32.0</ele><time>2026-04-25T14:18:32.999Z</time></trkpt><trkpt lat="36.22565955875276" lon="-5.424928389424394"><ele>35.0</ele><time>2026-04-25T14:18:33.999Z</time></trkpt><trkpt lat="36.22549447526047" lon="-5.4246634529137925"><ele>38.0</ele><time>2026-04-25T14:18:34.999Z</time></trkpt><trkpt lat="36.225365100808006" lon="-5.424417603543159"><ele>39.33333333333333</ele><time>2026-04-25T14:18:35.999Z</time></trkpt><trkpt lat="36.225239336879724" lon="-5.424189382208708"><ele>40.666666666666664</ele><time>2026-04-25T14:18:36.999Z</time></trkpt><trkpt lat="36.225134021222324" lon="-5.423970611310859"><ele>42.0</ele><time>2026-04-25T14:18:37.999Z</time></trkpt><trkpt lat="36.22503099458051" lon="-5.423747715156342"><ele>43.0</ele><time>2026-04-25T14:18:38.999Z</time></trkpt><trkpt lat="36.224932401412154" lon="-5.42352312469769"><ele>44.0</ele><time>2026-04-25T14:18:39.998Z</time></trkpt><trkpt lat="36.224841437083725" lon="-5.4232886116037795"><ele>45.0</ele><time>2026-04-25T14:18:40.998Z</time></trkpt><trkpt lat="36.22475558561174" lon="-5.42304745145487"><ele>43.0</ele><time>2026-04-25T14:18:41.998Z</time></trkpt><trkpt lat="36.224677851754805" lon="-5.422804530749975"><ele>41.0</ele><time>2026-04-25T14:18:42.998Z</time></trkpt><trkpt lat="36.22460401109826" lon="-5.422556256009177"><ele>39.0</ele><time>2026-04-25T14:18:43.998Z</time></trkpt><trkpt lat="36.22453634019865" lon="-5.4223083711452436"><ele>39.666666666666664</ele><time>2026-04-25T14:18:44.998Z</time></trkpt><trkpt lat="36.22447525262218" lon="-5.422062071258441"><ele>40.33333333333333</ele><time>2026-04-25T14:18:45.998Z</time></trkpt><trkpt lat="36.2244245011472" lon="-5.42182021733053"><ele>41.0</ele><time>2026-04-25T14:18:46.998Z</time></trkpt><trkpt lat="36.22437883145489" lon="-5.421588443855886"><ele>41.0</ele><time>2026-04-25T14:18:47.998Z</time></trkpt><trkpt lat="36.224326989291754" lon="-5.42136041652799"><ele>41.0</ele><time>2026-04-25T14:18:48.998Z</time></trkpt><trkpt lat="36.22426344101266" lon="-5.42113056598042"><ele>41.0</ele><time>2026-04-25T14:18:49.998Z</time></trkpt><trkpt lat="36.22418499270217" lon="-5.420898282655037"><ele>41.0</ele><time>2026-04-25T14:18:50.998Z</time></trkpt><trkpt lat="36.224099336319576" lon="-5.420657417215298"><ele>41.0</ele><time>2026-04-25T14:18:51.998Z</time></trkpt><trkpt lat="36.224012837113264" lon="-5.420412481751391"><ele>41.0</ele><time>2026-04-25T14:18:52.998Z</time></trkpt><trkpt lat="36.223923094955765" lon="-5.4201618054902205"><ele>42.0</ele><time>2026-04-25T14:18:53.998Z</time></trkpt><trkpt lat="36.22382734163305" lon="-5.419908992767119"><ele>43.0</ele><time>2026-04-25T14:18:54.998Z</time></trkpt><trkpt lat="36.22372870815391" lon="-5.419662335430369"><ele>44.0</ele><time>2026-04-25T14:18:55.998Z</time></trkpt><trkpt lat="36.22361807903869" lon="-5.419422109141646"><ele>44.0</ele><time>2026-04-25T14:18:56.998Z</time></trkpt><trkpt lat="36.22350055291934" lon="-5.419188533948637"><ele>44.0</ele><time>2026-04-25T14:18:57.998Z</time></trkpt><trkpt lat="36.22338150891" lon="-5.418966810352383"><ele>44.0</ele><time>2026-04-25T14:18:58.998Z</time></trkpt><trkpt lat="36.22325726108142" lon="-5.418753455161807"><ele>46.666666666666664</ele><time>2026-04-25T14:18:59.998Z</time></trkpt><trkpt lat="36.22313088840345" lon="-5.418546387767885"><ele>49.33333333333333</ele><time>2026-04-25T14:19:00.998Z</time></trkpt><trkpt lat="36.22300223840439" lon="-5.418346304154774"><ele>52.0</ele><time>2026-04-25T14:19:01.998Z</time></trkpt><trkpt lat="36.22286879931257" lon="-5.418152942585504"><ele>54.33333333333333</ele><time>2026-04-25T14:19:02.998Z</time></trkpt><trkpt lat="36.222734196766126" lon="-5.417967739921206"><ele>56.66666666666667</ele><time>2026-04-25T14:19:03.998Z</time></trkpt><trkpt lat="36.22259432364589" lon="-5.417789584995834"><ele>59.0</ele><time>2026-04-25T14:19:04.998Z</time></trkpt><trkpt lat="36.22244989056107" lon="-5.417617227378466"><ele>60.333333333333336</ele><time>2026-04-25T14:19:05.998Z</time></trkpt><trkpt lat="36.222299524393584" lon="-5.417456763401995"><ele>61.66666666666667</ele><time>2026-04-25T14:19:06.998Z</time></trkpt><trkpt lat="36.222140390154536" lon="-5.4173007466029395"><ele>63.0</ele><time>2026-04-25T14:19:07.998Z</time></trkpt><trkpt lat="36.22197800840631" lon="-5.417145791936474"><ele>65.66666666666667</ele><time>2026-04-25T14:19:08.998Z</time></trkpt><trkpt lat="36.22181016719152" lon="-5.416987496999252"><ele>68.33333333333334</ele><time>2026-04-25T14:19:09.998Z</time></trkpt><trkpt lat="36.221635922151386" lon="-5.41683386146255"><ele>71.0</ele><time>2026-04-25T14:19:11Z</time></trkpt><trkpt lat="36.221454294851526" lon="-5.416688372186438"><ele>71.0</ele><time>2026-04-25T14:19:12Z</time></trkpt><trkpt lat="36.221268843920306" lon="-5.416546711799762"><ele>71.0</ele><time>2026-04-25T14:19:13Z</time></trkpt><trkpt lat="36.221074422060646" lon="-5.416408769750158"><ele>71.0</ele><time>2026-04-25T14:19:14Z</time></trkpt><trkpt lat="36.220867511482346" lon="-5.41627738143544"><ele>71.5</ele><time>2026-04-25T14:19:15Z</time></trkpt><trkpt lat="36.22066043163886" lon="-5.416154872837885"><ele>72.0</ele><time>2026-04-25T14:19:16Z</time></trkpt><trkpt lat="36.220453944266744" lon="-5.416042680086374"><ele>72.0</ele><time>2026-04-25T14:19:17Z</time></trkpt><trkpt lat="36.22024111183855" lon="-5.415938535251544"><ele>72.0</ele><time>2026-04-25T14:19:18Z</time></trkpt><trkpt lat="36.22002148331126" lon="-5.415843374975206"><ele>70.5</ele><time>2026-04-25T14:19:19Z</time></trkpt><trkpt lat="36.219802058254494" lon="-5.415755689989278"><ele>69.0</ele><time>2026-04-25T14:19:20Z</time></trkpt><trkpt lat="36.219590771178055" lon="-5.4156813501670955"><ele>69.0</ele><time>2026-04-25T14:19:21Z</time></trkpt><trkpt lat="36.21938141888935" lon="-5.415612906670458"><ele>69.0</ele><time>2026-04-25T14:19:22Z</time></trkpt><trkpt lat="36.21917125405583" lon="-5.4155509284387735"><ele>69.0</ele><time>2026-04-25T14:19:23Z</time></trkpt><trkpt lat="36.21895998794013" lon="-5.415498623117473"><ele>68.66666666666667</ele><time>2026-04-25T14:19:24Z</time></trkpt><trkpt lat="36.21874107034705" lon="-5.415460892064564"><ele>68.33333333333334</ele><time>2026-04-25T14:19:25Z</time></trkpt><trkpt lat="36.21852181792648" lon="-5.4154208760608"><ele>68.0</ele><time>2026-04-25T14:19:26Z</time></trkpt><trkpt lat="36.218297208140484" lon="-5.415400206726651"><ele>66.33333333333334</ele><time>2026-04-25T14:19:27Z</time></trkpt><trkpt lat="36.21807555216105" lon="-5.415386880769027"><ele>64.66666666666667</ele><time>2026-04-25T14:19:28Z</time></trkpt><trkpt lat="36.21786011903513" lon="-5.41537725282502"><ele>63.0</ele><time>2026-04-25T14:19:29Z</time></trkpt><trkpt lat="36.217646131225024" lon="-5.415380126047945"><ele>63.0</ele><time>2026-04-25T14:19:30Z</time></trkpt><trkpt lat="36.21743622506495" lon="-5.415394301066461"><ele>63.0</ele><time>2026-04-25T14:19:31Z</time></trkpt><trkpt lat="36.21722909969479" lon="-5.415419039132907"><ele>63.0</ele><time>2026-04-25T14:19:32Z</time></trkpt><trkpt lat="36.21702317626478" lon="-5.4154562504225865"><ele>61.66666666666667</ele><time>2026-04-25T14:19:33Z</time></trkpt><trkpt lat="36.21681184981394" lon="-5.415498684280483"><ele>60.333333333333336</ele><time>2026-04-25T14:19:34Z</time></trkpt><trkpt lat="36.21659858318226" lon="-5.415541721826297"><ele>59.0</ele><time>2026-04-25T14:19:35Z</time></trkpt><trkpt lat="36.21637442010563" lon="-5.415592059154126"><ele>56.0</ele><time>2026-04-25T14:19:36Z</time></trkpt><trkpt lat="36.21614660040531" lon="-5.415641058296748"><ele>53.0</ele><time>2026-04-25T14:19:37Z</time></trkpt><trkpt lat="36.2159106177484" lon="-5.415691976281358"><ele>53.0</ele><time>2026-04-25T14:19:38Z</time></trkpt><trkpt lat="36.215666251705215" lon="-5.415743427064046"><ele>53.0</ele><time>2026-04-25T14:19:39Z</time></trkpt><trkpt lat="36.21541741663916" lon="-5.415800015255695"><ele>47.0</ele><time>2026-04-25T14:19:40Z</time></trkpt><trkpt lat="36.2151645623579" lon="-5.415853132501719"><ele>41.0</ele><time>2026-04-25T14:19:41Z</time></trkpt><trkpt lat="36.21491039130495" lon="-5.415903417666452"><ele>40.0</ele><time>2026-04-25T14:19:42Z</time></trkpt><trkpt lat="36.21467146915258" lon="-5.41595657252127"><ele>39.0</ele><time>2026-04-25T14:19:43Z</time></trkpt><trkpt lat="36.2144346841194" lon="-5.416010096959961"><ele>39.0</ele><time>2026-04-25T14:19:44Z</time></trkpt><trkpt lat="36.21419319166097" lon="-5.416060792669923"><ele>39.0</ele><time>2026-04-25T14:19:45Z</time></trkpt><trkpt lat="36.21396412412553" lon="-5.4161124929259685"><ele>38.5</ele><time>2026-04-25T14:19:46Z</time></trkpt><trkpt lat="36.21373387332736" lon="-5.416159442348669"><ele>38.0</ele><time>2026-04-25T14:19:47Z</time></trkpt><trkpt lat="36.213501989453356" lon="-5.416211291861762"><ele>38.0</ele><time>2026-04-25T14:19:48Z</time></trkpt><trkpt lat="36.21326967509055" lon="-5.416260869784188"><ele>38.0</ele><time>2026-04-25T14:19:48.999Z</time></trkpt><trkpt lat="36.21303501086001" lon="-5.416310951332385"><ele>37.0</ele><time>2026-04-25T14:19:49.999Z</time></trkpt><trkpt lat="36.21280013567862" lon="-5.41635859010134"><ele>36.0</ele><time>2026-04-25T14:19:50.999Z</time></trkpt><trkpt lat="36.212563308877655" lon="-5.416410503835205"><ele>36.0</ele><time>2026-04-25T14:19:51.999Z</time></trkpt><trkpt lat="36.212336125946536" lon="-5.416461005742853"><ele>36.0</ele><time>2026-04-25T14:19:52.999Z</time></trkpt><trkpt lat="36.21210595736344" lon="-5.416510967868211"><ele>35.5</ele><time>2026-04-25T14:19:53.999Z</time></trkpt><trkpt lat="36.21187081473515" lon="-5.416558783160357"><ele>35.0</ele><time>2026-04-25T14:19:54.999Z</time></trkpt><trkpt lat="36.21163045984115" lon="-5.416608235400238"><ele>33.5</ele><time>2026-04-25T14:19:55.999Z</time></trkpt><trkpt lat="36.211386809470625" lon="-5.416652214980905"><ele>32.0</ele><time>2026-04-25T14:19:56.999Z</time></trkpt><trkpt lat="36.211142521700395" lon="-5.416683097142281"><ele>32.0</ele><time>2026-04-25T14:19:57.999Z</time></trkpt><trkpt lat="36.21089951393284" lon="-5.416700335304091"><ele>32.0</ele><time>2026-04-25T14:19:58.999Z</time></trkpt><trkpt lat="36.21065920806241" lon="-5.416706647514286"><ele>28.5</ele><time>2026-04-25T14:19:59.999Z</time></trkpt><trkpt lat="36.2104182213572" lon="-5.416701846033053"><ele>25.0</ele><time>2026-04-25T14:20:00.999Z</time></trkpt><trkpt lat="36.21017961155132" lon="-5.416686275303396"><ele>25.0</ele><time>2026-04-25T14:20:01.999Z</time></trkpt><trkpt lat="36.20994040721665" lon="-5.416656108169613"><ele>25.0</ele><time>2026-04-25T14:20:02.999Z</time></trkpt><trkpt lat="36.2097041732819" lon="-5.416617836799768"><ele>22.0</ele><time>2026-04-25T14:20:03.999Z</time></trkpt><trkpt lat="36.209469455918246" lon="-5.416570870598537"><ele>19.0</ele><time>2026-04-25T14:20:04.999Z</time></trkpt><trkpt lat="36.20923409790647" lon="-5.416515511471283"><ele>19.0</ele><time>2026-04-25T14:20:05.999Z</time></trkpt><trkpt lat="36.20901875202705" lon="-5.416449626869719"><ele>19.0</ele><time>2026-04-25T14:20:06.999Z</time></trkpt><trkpt lat="36.20881934358302" lon="-5.416376981120885"><ele>19.0</ele><time>2026-04-25T14:20:07.999Z</time></trkpt><trkpt lat="36.20863775245483" lon="-5.416303882173912"><ele>19.0</ele><time>2026-04-25T14:20:08.999Z</time></trkpt><trkpt lat="36.208463871586524" lon="-5.41622871345759"><ele>19.0</ele><time>2026-04-25T14:20:09.999Z</time></trkpt><trkpt lat="36.208300909210976" lon="-5.416149335630731"><ele>19.0</ele><time>2026-04-25T14:20:10.999Z</time></trkpt><trkpt lat="36.20815158814777" lon="-5.416073445199674"><ele>19.0</ele><time>2026-04-25T14:20:11.999Z</time></trkpt><trkpt lat="36.20801047135438" lon="-5.416004942678544"><ele>19.0</ele><time>2026-04-25T14:20:12.999Z</time></trkpt><trkpt lat="36.207878685834885" lon="-5.415940565167993"><ele>19.0</ele><time>2026-04-25T14:20:13.999Z</time></trkpt><trkpt lat="36.20774493376548" lon="-5.415871305380327"><ele>19.0</ele><time>2026-04-25T14:20:14.999Z</time></trkpt><trkpt lat="36.20760652093913" lon="-5.415797165824999"><ele>19.0</ele><time>2026-04-25T14:20:15.999Z</time></trkpt><trkpt lat="36.20746973729512" lon="-5.415726438644041"><ele>19.0</ele><time>2026-04-25T14:20:16.999Z</time></trkpt><trkpt lat="36.20733765946192" lon="-5.41566263413448"><ele>19.0</ele><time>2026-04-25T14:20:17.999Z</time></trkpt><trkpt lat="36.20721627323828" lon="-5.415601939802697"><ele>19.0</ele><time>2026-04-25T14:20:18.999Z</time></trkpt><trkpt lat="36.20710364244267" lon="-5.41554381004136"><ele>19.0</ele><time>2026-04-25T14:20:19.999Z</time></trkpt><trkpt lat="36.20699124810844" lon="-5.415496234970514"><ele>19.0</ele><time>2026-04-25T14:20:20.999Z</time></trkpt><trkpt lat="36.206877980323576" lon="-5.41545884187082"><ele>19.0</ele><time>2026-04-25T14:20:21.999Z</time></trkpt><trkpt lat="36.206761855410065" lon="-5.415431356702564"><ele>19.0</ele><time>2026-04-25T14:20:22.999Z</time></trkpt><trkpt lat="36.20665261890795" lon="-5.415414545782796"><ele>19.0</ele><time>2026-04-25T14:20:23.999Z</time></trkpt><trkpt lat="36.20654244931427" lon="-5.415412408682263"><ele>19.0</ele><time>2026-04-25T14:20:24.999Z</time></trkpt><trkpt lat="36.20643532404278" lon="-5.415413474499493"><ele>19.0</ele><time>2026-04-25T14:20:25.999Z</time></trkpt><trkpt lat="36.20633304071018" lon="-5.415385004233823"><ele>19.0</ele><time>2026-04-25T14:20:26.999Z</time></trkpt><trkpt lat="36.20624184664692" lon="-5.41536750879873"><ele>19.0</ele><time>2026-04-25T14:20:27.999Z</time></trkpt><trkpt lat="36.20615867928241" lon="-5.41533267054092"><ele>18.4</ele><time>2026-04-25T14:20:28.999Z</time></trkpt><trkpt lat="36.20606950045865" lon="-5.415269394289954"><ele>17.799999999999997</ele><time>2026-04-25T14:20:29.999Z</time></trkpt><trkpt lat="36.205996687189234" lon="-5.415176592922391"><ele>17.200000000000003</ele><time>2026-04-25T14:20:30.999Z</time></trkpt><trkpt lat="36.205941714264114" lon="-5.415069472987021"><ele>16.6</ele><time>2026-04-25T14:20:31.999Z</time></trkpt><trkpt lat="36.20592018010184" lon="-5.414945090989276"><ele>16.0</ele><time>2026-04-25T14:20:32.999Z</time></trkpt><trkpt lat="36.20591601970999" lon="-5.414815716762907"><ele>16.0</ele><time>2026-04-25T14:20:33.999Z</time></trkpt><trkpt lat="36.205919320145014" lon="-5.414691972215332"><ele>16.0</ele><time>2026-04-25T14:20:34.999Z</time></trkpt><trkpt lat="36.205914204261425" lon="-5.41457959039504"><ele>16.0</ele><time>2026-04-25T14:20:35.999Z</time></trkpt><trkpt lat="36.20587815502586" lon="-5.414486006800036"><ele>16.0</ele><time>2026-04-25T14:20:36.999Z</time></trkpt><trkpt lat="36.20581165219442" lon="-5.4144256067261685"><ele>16.0</ele><time>2026-04-25T14:20:37.999Z</time></trkpt><trkpt lat="36.20572051364266" lon="-5.414394869132619"><ele>15.166666666666666</ele><time>2026-04-25T14:20:38.999Z</time></trkpt><trkpt lat="36.20562245202661" lon="-5.414395832712234"><ele>14.333333333333332</ele><time>2026-04-25T14:20:39.999Z</time></trkpt><trkpt lat="36.20555059605163" lon="-5.414354075690564"><ele>13.5</ele><time>2026-04-25T14:20:40.999Z</time></trkpt><trkpt lat="36.20546844412534" lon="-5.414306587094872"><ele>12.666666666666666</ele><time>2026-04-25T14:20:41.998Z</time></trkpt><trkpt lat="36.20538304824259" lon="-5.414256857928847"><ele>11.833333333333332</ele><time>2026-04-25T14:20:42.998Z</time></trkpt><trkpt lat="36.20531191227899" lon="-5.414195787218678"><ele>11.0</ele><time>2026-04-25T14:20:43.998Z</time></trkpt><trkpt lat="36.205228807154306" lon="-5.4141705467557975"><ele>11.0</ele><time>2026-04-25T14:20:44.998Z</time></trkpt><trkpt lat="36.20514425257878" lon="-5.414179702045995"><ele>11.0</ele><time>2026-04-25T14:20:45.998Z</time></trkpt><trkpt lat="36.2050573037088" lon="-5.414200515707472"><ele>11.0</ele><time>2026-04-25T14:20:46.998Z</time></trkpt><trkpt lat="36.2049822272692" lon="-5.4142017100249475"><ele>11.0</ele><time>2026-04-25T14:20:47.998Z</time></trkpt><trkpt lat="36.20490610136107" lon="-5.4141850665433555"><ele>11.0</ele><time>2026-04-25T14:20:48.998Z</time></trkpt><trkpt lat="36.20483751307721" lon="-5.414140504871084"><ele>11.0</ele><time>2026-04-25T14:20:49.998Z</time></trkpt><trkpt lat="36.204783679829944" lon="-5.414056457688211"><ele>10.8</ele><time>2026-04-25T14:20:50.998Z</time></trkpt><trkpt lat="36.204749698152206" lon="-5.413953333404967"><ele>10.600000000000001</ele><time>2026-04-25T14:20:51.998Z</time></trkpt><trkpt lat="36.20476475274497" lon="-5.413857048317651"><ele>10.4</ele><time>2026-04-25T14:20:52.998Z</time></trkpt><trkpt lat="36.20481708308032" lon="-5.413775004992144"><ele>10.2</ele><time>2026-04-25T14:20:53.998Z</time></trkpt><trkpt lat="36.20489677133041" lon="-5.413706546398356"><ele>10.0</ele><time>2026-04-25T14:20:54.998Z</time></trkpt><trkpt lat="36.204998748555525" lon="-5.413665004005076"><ele>10.0</ele><time>2026-04-25T14:20:55.998Z</time></trkpt><trkpt lat="36.2051076266379" lon="-5.413670303887608"><ele>10.0</ele><time>2026-04-25T14:20:56.998Z</time></trkpt><trkpt lat="36.20518535617306" lon="-5.413749726876051"><ele>10.0</ele><time>2026-04-25T14:20:57.998Z</time></trkpt><trkpt lat="36.20527808275791" lon="-5.413703685010785"><ele>10.0</ele><time>2026-04-25T14:20:58.998Z</time></trkpt><trkpt lat="36.205354602975014" lon="-5.413639698552358"><ele>10.0</ele><time>2026-04-25T14:20:59.998Z</time></trkpt><trkpt lat="36.20542891918249" lon="-5.413548103475986"><ele>10.0</ele><time>2026-04-25T14:21:00.998Z</time></trkpt><trkpt lat="36.20551080872807" lon="-5.413445294421849"><ele>10.0</ele><time>2026-04-25T14:21:01.998Z</time></trkpt><trkpt lat="36.205614581348335" lon="-5.4133104490333235"><ele>10.0</ele><time>2026-04-25T14:21:02.998Z</time></trkpt><trkpt lat="36.20570595929778" lon="-5.4132097940051"><ele>10.0</ele><time>2026-04-25T14:21:03.998Z</time></trkpt><trkpt lat="36.2058003929798" lon="-5.413098431903542"><ele>10.25</ele><time>2026-04-25T14:21:04.998Z</time></trkpt><trkpt lat="36.205881841058336" lon="-5.41300164148274"><ele>10.5</ele><time>2026-04-25T14:21:05.998Z</time></trkpt><trkpt lat="36.20596021105725" lon="-5.412891291187438"><ele>10.75</ele><time>2026-04-25T14:21:06.998Z</time></trkpt><trkpt lat="36.20603286030547" lon="-5.412754389009074"><ele>11.0</ele><time>2026-04-25T14:21:07.998Z</time></trkpt><trkpt lat="36.2061012312982" lon="-5.412595462960129"><ele>11.0</ele><time>2026-04-25T14:21:08.998Z</time></trkpt><trkpt lat="36.206168458873194" lon="-5.412410081609535"><ele>11.0</ele><time>2026-04-25T14:21:09.998Z</time></trkpt><trkpt lat="36.206238749631744" lon="-5.41222104583046"><ele>11.0</ele><time>2026-04-25T14:21:10.998Z</time></trkpt><trkpt lat="36.2062961352689" lon="-5.4120478516591035"><ele>10.666666666666666</ele><time>2026-04-25T14:21:11.998Z</time></trkpt><trkpt lat="36.206369873423306" lon="-5.411883763284279"><ele>10.333333333333334</ele><time>2026-04-25T14:21:12.998Z</time></trkpt><trkpt lat="36.20641924962282" lon="-5.411691760989323"><ele>10.0</ele><time>2026-04-25T14:21:13.998Z</time></trkpt><trkpt lat="36.2064819386032" lon="-5.41150811282506"><ele>10.333333333333334</ele><time>2026-04-25T14:21:14.998Z</time></trkpt><trkpt lat="36.206545511976344" lon="-5.4113168663966675"><ele>10.666666666666666</ele><time>2026-04-25T14:21:15.998Z</time></trkpt><trkpt lat="36.2066128236287" lon="-5.411122122741755"><ele>11.0</ele><time>2026-04-25T14:21:17Z</time></trkpt><trkpt lat="36.20666727067555" lon="-5.410922516612989"><ele>11.0</ele><time>2026-04-25T14:21:18Z</time></trkpt><trkpt lat="36.20671737162823" lon="-5.410711380777565"><ele>11.0</ele><time>2026-04-25T14:21:19Z</time></trkpt><trkpt lat="36.206760709994754" lon="-5.410494651404735"><ele>11.0</ele><time>2026-04-25T14:21:20Z</time></trkpt><trkpt lat="36.206804218468385" lon="-5.410265358662335"><ele>10.0</ele><time>2026-04-25T14:21:21Z</time></trkpt><trkpt lat="36.20684643923008" lon="-5.410031452987599"><ele>9.0</ele><time>2026-04-25T14:21:22Z</time></trkpt><trkpt lat="36.206888625025265" lon="-5.409791773958401"><ele>8.0</ele><time>2026-04-25T14:21:23Z</time></trkpt><trkpt lat="36.206931694808176" lon="-5.409545137824403"><ele>8.0</ele><time>2026-04-25T14:21:24Z</time></trkpt><trkpt lat="36.206979178275354" lon="-5.409285243144889"><ele>8.0</ele><time>2026-04-25T14:21:25Z</time></trkpt><trkpt lat="36.207031585838564" lon="-5.409013741683755"><ele>8.0</ele><time>2026-04-25T14:21:26Z</time></trkpt><trkpt lat="36.207091007593604" lon="-5.408736161451177"><ele>8.0</ele><time>2026-04-25T14:21:27Z</time></trkpt><trkpt lat="36.20714939573661" lon="-5.408453930247199"><ele>8.0</ele><time>2026-04-25T14:21:28Z</time></trkpt><trkpt lat="36.20719800238429" lon="-5.408182776968811"><ele>7.666666666666666</ele><time>2026-04-25T14:21:29Z</time></trkpt><trkpt lat="36.20724081817299" lon="-5.407912978940389"><ele>7.333333333333334</ele><time>2026-04-25T14:21:30Z</time></trkpt><trkpt lat="36.20728084814957" lon="-5.407641412979975"><ele>7.0</ele><time>2026-04-25T14:21:31Z</time></trkpt><trkpt lat="36.20732101379207" lon="-5.407374699858233"><ele>7.333333333333334</ele><time>2026-04-25T14:21:32Z</time></trkpt><trkpt lat="36.207364493291244" lon="-5.407107723189084"><ele>7.666666666666666</ele><time>2026-04-25T14:21:33Z</time></trkpt><trkpt lat="36.20740900365716" lon="-5.406845449013695"><ele>8.0</ele><time>2026-04-25T14:21:34Z</time></trkpt><trkpt lat="36.2074558826845" lon="-5.406587153193003"><ele>8.0</ele><time>2026-04-25T14:21:35Z</time></trkpt><trkpt lat="36.20750120915296" lon="-5.406334460558508"><ele>8.0</ele><time>2026-04-25T14:21:36Z</time></trkpt><trkpt lat="36.20754599133544" lon="-5.406084916841206"><ele>8.0</ele><time>2026-04-25T14:21:37Z</time></trkpt><trkpt lat="36.20758962450414" lon="-5.405835685964947"><ele>8.333333333333332</ele><time>2026-04-25T14:21:38Z</time></trkpt><trkpt lat="36.207632759323715" lon="-5.405585737286049"><ele>8.666666666666666</ele><time>2026-04-25T14:21:39Z</time></trkpt><trkpt lat="36.20768081123101" lon="-5.405335659260407"><ele>9.0</ele><time>2026-04-25T14:21:40Z</time></trkpt><trkpt lat="36.20773279670887" lon="-5.405082557952884"><ele>10.0</ele><time>2026-04-25T14:21:41Z</time></trkpt><trkpt lat="36.207777486668526" lon="-5.404812054867746"><ele>11.0</ele><time>2026-04-25T14:21:42Z</time></trkpt><trkpt lat="36.20780562926499" lon="-5.404530299863927"><ele>11.0</ele><time>2026-04-25T14:21:43Z</time></trkpt><trkpt lat="36.20782428917524" lon="-5.404233640994303"><ele>11.0</ele><time>2026-04-25T14:21:44Z</time></trkpt><trkpt lat="36.20781565565735" lon="-5.403949131097295"><ele>9.5</ele><time>2026-04-25T14:21:45Z</time></trkpt><trkpt lat="36.207792685127444" lon="-5.403664497854335"><ele>8.0</ele><time>2026-04-25T14:21:46Z</time></trkpt><trkpt lat="36.20776022751001" lon="-5.4033781958523805"><ele>8.0</ele><time>2026-04-25T14:21:47Z</time></trkpt><trkpt lat="36.207727997359285" lon="-5.403094954855836"><ele>8.0</ele><time>2026-04-25T14:21:48Z</time></trkpt><trkpt lat="36.20769376675616" lon="-5.402812430487439"><ele>8.5</ele><time>2026-04-25T14:21:49Z</time></trkpt><trkpt lat="36.20766275974143" lon="-5.402529027608223"><ele>9.0</ele><time>2026-04-25T14:21:50Z</time></trkpt><trkpt lat="36.20763482663206" lon="-5.402240379730665"><ele>9.5</ele><time>2026-04-25T14:21:51Z</time></trkpt><trkpt lat="36.20760874820894" lon="-5.401947169074223"><ele>10.0</ele><time>2026-04-25T14:21:52Z</time></trkpt><trkpt lat="36.20758420648885" lon="-5.401654493303635"><ele>10.0</ele><time>2026-04-25T14:21:53Z</time></trkpt><trkpt lat="36.207558932714655" lon="-5.401361323990381"><ele>10.0</ele><time>2026-04-25T14:21:53.999Z</time></trkpt><trkpt lat="36.20753330824331" lon="-5.401066587399042"><ele>11.0</ele><time>2026-04-25T14:21:54.999Z</time></trkpt><trkpt lat="36.207499773095336" lon="-5.40077187969491"><ele>12.0</ele><time>2026-04-25T14:21:55.999Z</time></trkpt><trkpt lat="36.20746415797155" lon="-5.400478733044652"><ele>12.0</ele><time>2026-04-25T14:21:56.999Z</time></trkpt><trkpt lat="36.20743210383713" lon="-5.400179072206249"><ele>12.0</ele><time>2026-04-25T14:21:57.999Z</time></trkpt><trkpt lat="36.207393652375096" lon="-5.399885103168727"><ele>12.5</ele><time>2026-04-25T14:21:58.999Z</time></trkpt><trkpt lat="36.207361313339376" lon="-5.399593300571363"><ele>13.0</ele><time>2026-04-25T14:21:59.999Z</time></trkpt><trkpt lat="36.20732990850502" lon="-5.399309526090279"><ele>12.5</ele><time>2026-04-25T14:22:00.999Z</time></trkpt><trkpt lat="36.207302121144075" lon="-5.399033657385279"><ele>12.0</ele><time>2026-04-25T14:22:01.999Z</time></trkpt><trkpt lat="36.20727355422211" lon="-5.398755937039775"><ele>14.0</ele><time>2026-04-25T14:22:02.999Z</time></trkpt><trkpt lat="36.207245497542786" lon="-5.398478409672247"><ele>16.0</ele><time>2026-04-25T14:22:03.999Z</time></trkpt><trkpt lat="36.207215209526396" lon="-5.398200242449508"><ele>16.333333333333332</ele><time>2026-04-25T14:22:04.999Z</time></trkpt><trkpt lat="36.20718555194215" lon="-5.397927968296994"><ele>16.666666666666668</ele><time>2026-04-25T14:22:05.999Z</time></trkpt><trkpt lat="36.20716161718614" lon="-5.397650886551413"><ele>17.0</ele><time>2026-04-25T14:22:06.999Z</time></trkpt><trkpt lat="36.20713709210262" lon="-5.397370836520991"><ele>17.666666666666668</ele><time>2026-04-25T14:22:07.999Z</time></trkpt><trkpt lat="36.20710981648601" lon="-5.397089564346024"><ele>18.333333333333332</ele><time>2026-04-25T14:22:08.999Z</time></trkpt><trkpt lat="36.207087460986735" lon="-5.396818565530762"><ele>19.0</ele><time>2026-04-25T14:22:09.999Z</time></trkpt><trkpt lat="36.20705945498916" lon="-5.396556626602416"><ele>19.333333333333332</ele><time>2026-04-25T14:22:10.999Z</time></trkpt><trkpt lat="36.2070377842935" lon="-5.39631794334657"><ele>19.666666666666668</ele><time>2026-04-25T14:22:11.999Z</time></trkpt><trkpt lat="36.20702051086038" lon="-5.396101757237619"><ele>20.0</ele><time>2026-04-25T14:22:12.999Z</time></trkpt><trkpt lat="36.20699868536221" lon="-5.395899548072988"><ele>20.0</ele><time>2026-04-25T14:22:13.999Z</time></trkpt><trkpt lat="36.20697522610681" lon="-5.395688923552784"><ele>20.0</ele><time>2026-04-25T14:22:14.999Z</time></trkpt><trkpt lat="36.20695560446524" lon="-5.395478869572988"><ele>20.0</ele><time>2026-04-25T14:22:15.999Z</time></trkpt><trkpt lat="36.206939602154314" lon="-5.3952706526587715"><ele>20.333333333333336</ele><time>2026-04-25T14:22:16.999Z</time></trkpt><trkpt lat="36.20692222783967" lon="-5.395068683940891"><ele>20.666666666666668</ele><time>2026-04-25T14:22:17.999Z</time></trkpt><trkpt lat="36.206906358401234" lon="-5.394859254637805"><ele>21.0</ele><time>2026-04-25T14:22:18.999Z</time></trkpt><trkpt lat="36.2068973653761" lon="-5.394649474773074"><ele>21.666666666666668</ele><time>2026-04-25T14:22:19.999Z</time></trkpt><trkpt lat="36.20689957131942" lon="-5.394435551101826"><ele>22.333333333333336</ele><time>2026-04-25T14:22:20.999Z</time></trkpt><trkpt lat="36.20690891816602" lon="-5.394220282580165"><ele>23.0</ele><time>2026-04-25T14:22:21.999Z</time></trkpt><trkpt lat="36.206933500916705" lon="-5.39399805499071"><ele>23.666666666666668</ele><time>2026-04-25T14:22:22.999Z</time></trkpt><trkpt lat="36.206960115220696" lon="-5.393781652842036"><ele>24.333333333333336</ele><time>2026-04-25T14:22:23.999Z</time></trkpt><trkpt lat="36.20698554017916" lon="-5.3935629923349575"><ele>25.0</ele><time>2026-04-25T14:22:24.999Z</time></trkpt><trkpt lat="36.20701192238216" lon="-5.393341176909709"><ele>25.0</ele><time>2026-04-25T14:22:25.999Z</time></trkpt><trkpt lat="36.20704132667313" lon="-5.393125135294301"><ele>25.0</ele><time>2026-04-25T14:22:26.999Z</time></trkpt><trkpt lat="36.20707583532473" lon="-5.392909148498544"><ele>25.0</ele><time>2026-04-25T14:22:27.999Z</time></trkpt><trkpt lat="36.2071059946281" lon="-5.392694052953808"><ele>25.0</ele><time>2026-04-25T14:22:28.999Z</time></trkpt><trkpt lat="36.20713539848835" lon="-5.392484396212206"><ele>25.0</ele><time>2026-04-25T14:22:29.999Z</time></trkpt><trkpt lat="36.20716432475032" lon="-5.392275927603741"><ele>25.0</ele><time>2026-04-25T14:22:30.999Z</time></trkpt><trkpt lat="36.20719404315643" lon="-5.392074461487096"><ele>26.0</ele><time>2026-04-25T14:22:31.999Z</time></trkpt><trkpt lat="36.207225043958836" lon="-5.3918759685699795"><ele>27.0</ele><time>2026-04-25T14:22:32.999Z</time></trkpt><trkpt lat="36.2072544456695" lon="-5.391676839789823"><ele>28.0</ele><time>2026-04-25T14:22:33.999Z</time></trkpt><trkpt lat="36.20728388635153" lon="-5.391477074745605"><ele>29.0</ele><time>2026-04-25T14:22:34.999Z</time></trkpt><trkpt lat="36.20731355193907" lon="-5.391268106449754"><ele>30.0</ele><time>2026-04-25T14:22:35.999Z</time></trkpt><trkpt lat="36.20734415285014" lon="-5.391044614051681"><ele>31.0</ele><time>2026-04-25T14:22:36.999Z</time></trkpt><trkpt lat="36.207375920537075" lon="-5.390816261358423"><ele>34.66666666666667</ele><time>2026-04-25T14:22:37.999Z</time></trkpt><trkpt lat="36.207405981931345" lon="-5.390593395227265"><ele>38.333333333333336</ele><time>2026-04-25T14:22:38.999Z</time></trkpt><trkpt lat="36.20743403556401" lon="-5.390370111965423"><ele>42.0</ele><time>2026-04-25T14:22:39.999Z</time></trkpt><trkpt lat="36.2074552055245" lon="-5.3901490819568565"><ele>42.333333333333336</ele><time>2026-04-25T14:22:40.999Z</time></trkpt><trkpt lat="36.207474066430976" lon="-5.389934233192371"><ele>42.66666666666667</ele><time>2026-04-25T14:22:41.999Z</time></trkpt><trkpt lat="36.2074911798582" lon="-5.3897135911055996"><ele>43.0</ele><time>2026-04-25T14:22:42.999Z</time></trkpt><trkpt lat="36.207497903161496" lon="-5.389493139195969"><ele>43.0</ele><time>2026-04-25T14:22:43.999Z</time></trkpt><trkpt lat="36.20753634453557" lon="-5.389278074533461"><ele>43.0</ele><time>2026-04-25T14:22:44.999Z</time></trkpt><trkpt lat="36.20749693980712" lon="-5.389043709758616"><ele>43.0</ele><time>2026-04-25T14:22:45.999Z</time></trkpt><trkpt lat="36.20748276770756" lon="-5.388808927418991"><ele>44.66666666666667</ele><time>2026-04-25T14:22:46.999Z</time></trkpt><trkpt lat="36.20745893190557" lon="-5.388564315726385"><ele>46.333333333333336</ele><time>2026-04-25T14:22:47.998Z</time></trkpt><trkpt lat="36.20742578637012" lon="-5.38831817259781"><ele>48.0</ele><time>2026-04-25T14:22:48.998Z</time></trkpt><trkpt lat="36.20738682938534" lon="-5.3880697479293325"><ele>50.33333333333333</ele><time>2026-04-25T14:22:49.998Z</time></trkpt><trkpt lat="36.20733524592362" lon="-5.387826741399262"><ele>52.666666666666664</ele><time>2026-04-25T14:22:50.998Z</time></trkpt><trkpt lat="36.20726786898085" lon="-5.387587512455302"><ele>55.0</ele><time>2026-04-25T14:22:51.998Z</time></trkpt><trkpt lat="36.20718396423686" lon="-5.387353500684919"><ele>56.33333333333333</ele><time>2026-04-25T14:22:52.998Z</time></trkpt><trkpt lat="36.20707886472323" lon="-5.387129073588306"><ele>57.66666666666667</ele><time>2026-04-25T14:22:53.998Z</time></trkpt><trkpt lat="36.20696044701665" lon="-5.386916913266956"><ele>59.0</ele><time>2026-04-25T14:22:54.998Z</time></trkpt><trkpt lat="36.20683689709977" lon="-5.386710867687806"><ele>59.0</ele><time>2026-04-25T14:22:55.998Z</time></trkpt><trkpt lat="36.20671250988336" lon="-5.386510927980091"><ele>59.0</ele><time>2026-04-25T14:22:56.998Z</time></trkpt><trkpt lat="36.20657914146832" lon="-5.386317922667773"><ele>59.0</ele><time>2026-04-25T14:22:57.998Z</time></trkpt><trkpt lat="36.20644667198903" lon="-5.386125487830974"><ele>62.66666666666667</ele><time>2026-04-25T14:22:58.998Z</time></trkpt><trkpt lat="36.20631096138707" lon="-5.385934843878844"><ele>66.33333333333333</ele><time>2026-04-25T14:22:59.998Z</time></trkpt><trkpt lat="36.20617415492514" lon="-5.385743160079377"><ele>70.0</ele><time>2026-04-25T14:23:00.998Z</time></trkpt><trkpt lat="36.20603546703571" lon="-5.3855519175407025"><ele>69.0</ele><time>2026-04-25T14:23:01.998Z</time></trkpt><trkpt lat="36.205898303335886" lon="-5.385380679238481"><ele>68.0</ele><time>2026-04-25T14:23:02.998Z</time></trkpt><trkpt lat="36.20576876551391" lon="-5.385225752262665"><ele>67.0</ele><time>2026-04-25T14:23:03.998Z</time></trkpt><trkpt lat="36.20562625084998" lon="-5.385072029511724"><ele>67.0</ele><time>2026-04-25T14:23:04.998Z</time></trkpt><trkpt lat="36.205477889278825" lon="-5.384923527914574"><ele>67.0</ele><time>2026-04-25T14:23:05.998Z</time></trkpt><trkpt lat="36.20532248799686" lon="-5.384783200680213"><ele>67.0</ele><time>2026-04-25T14:23:06.998Z</time></trkpt><trkpt lat="36.20516134676211" lon="-5.384656201254301"><ele>66.33333333333333</ele><time>2026-04-25T14:23:07.998Z</time></trkpt><trkpt lat="36.20499447344443" lon="-5.384542140282246"><ele>65.66666666666667</ele><time>2026-04-25T14:23:08.998Z</time></trkpt><trkpt lat="36.20481451295755" lon="-5.384443690640165"><ele>65.0</ele><time>2026-04-25T14:23:09.998Z</time></trkpt><trkpt lat="36.204618865171334" lon="-5.384365715608746"><ele>65.0</ele><time>2026-04-25T14:23:10.998Z</time></trkpt><trkpt lat="36.20441530805067" lon="-5.384307557125973"><ele>65.0</ele><time>2026-04-25T14:23:11.998Z</time></trkpt><trkpt lat="36.204207578168585" lon="-5.384250221166719"><ele>65.0</ele><time>2026-04-25T14:23:12.998Z</time></trkpt><trkpt lat="36.20399813677841" lon="-5.384188089738035"><ele>60.0</ele><time>2026-04-25T14:23:13.998Z</time></trkpt><trkpt lat="36.20377901363252" lon="-5.38412505126865"><ele>55.0</ele><time>2026-04-25T14:23:14.998Z</time></trkpt><trkpt lat="36.2035575196358" lon="-5.38406110400527"><ele>55.0</ele><time>2026-04-25T14:23:15.998Z</time></trkpt><trkpt lat="36.20333125137768" lon="-5.383992204989604"><ele>55.0</ele><time>2026-04-25T14:23:16.998Z</time></trkpt><trkpt lat="36.20310259213888" lon="-5.383924143834193"><ele>54.5</ele><time>2026-04-25T14:23:17.998Z</time></trkpt><trkpt lat="36.20287666479193" lon="-5.383858831615605"><ele>54.0</ele><time>2026-04-25T14:23:18.998Z</time></trkpt><trkpt lat="36.20265355035568" lon="-5.383794092761346"><ele>54.0</ele><time>2026-04-25T14:23:19.998Z</time></trkpt><trkpt lat="36.202433063446996" lon="-5.383733824062938"><ele>54.0</ele><time>2026-04-25T14:23:20.998Z</time></trkpt><trkpt lat="36.20221177756387" lon="-5.383674613554572"><ele>50.5</ele><time>2026-04-25T14:23:21.998Z</time></trkpt><trkpt lat="36.201992013234324" lon="-5.383620519381405"><ele>47.0</ele><time>2026-04-25T14:23:23Z</time></trkpt><trkpt lat="36.20176329025611" lon="-5.383567003403585"><ele>47.0</ele><time>2026-04-25T14:23:24Z</time></trkpt><trkpt lat="36.20153060308196" lon="-5.383507384766921"><ele>47.0</ele><time>2026-04-25T14:23:25Z</time></trkpt><trkpt lat="36.201300288054206" lon="-5.3834441908985715"><ele>43.33333333333333</ele><time>2026-04-25T14:23:26Z</time></trkpt><trkpt lat="36.201082275702746" lon="-5.383381866756317"><ele>39.666666666666664</ele><time>2026-04-25T14:23:27Z</time></trkpt><trkpt lat="36.20088182857207" lon="-5.383327165789546"><ele>36.0</ele><time>2026-04-25T14:23:28Z</time></trkpt><trkpt lat="36.20069537581985" lon="-5.383275406261565"><ele>35.0</ele><time>2026-04-25T14:23:29Z</time></trkpt><trkpt lat="36.20051787883182" lon="-5.383226561508925"><ele>34.0</ele><time>2026-04-25T14:23:30Z</time></trkpt><trkpt lat="36.20034067353795" lon="-5.383173110785601"><ele>33.0</ele><time>2026-04-25T14:23:31Z</time></trkpt><trkpt lat="36.20016183862573" lon="-5.383126041376617"><ele>33.0</ele><time>2026-04-25T14:23:32Z</time></trkpt><trkpt lat="36.19997505217432" lon="-5.383077765458579"><ele>33.0</ele><time>2026-04-25T14:23:33Z</time></trkpt><trkpt lat="36.19979091254492" lon="-5.383024433107046"><ele>33.0</ele><time>2026-04-25T14:23:34Z</time></trkpt><trkpt lat="36.199601407526046" lon="-5.382969028797115"><ele>31.333333333333336</ele><time>2026-04-25T14:23:35Z</time></trkpt><trkpt lat="36.199414213964815" lon="-5.382912908219939"><ele>29.666666666666668</ele><time>2026-04-25T14:23:36Z</time></trkpt><trkpt lat="36.1992235286138" lon="-5.382857573507459"><ele>28.0</ele><time>2026-04-25T14:23:37Z</time></trkpt><trkpt lat="36.19903545813841" lon="-5.382802406409991"><ele>25.666666666666668</ele><time>2026-04-25T14:23:38Z</time></trkpt><trkpt lat="36.198848507366016" lon="-5.382743464744794"><ele>23.333333333333336</ele><time>2026-04-25T14:23:39Z</time></trkpt><trkpt lat="36.19866456536194" lon="-5.382686231532383"><ele>21.0</ele><time>2026-04-25T14:23:40Z</time></trkpt><trkpt lat="36.19848200954859" lon="-5.382637849918209"><ele>21.0</ele><time>2026-04-25T14:23:41Z</time></trkpt><trkpt lat="36.19829564405985" lon="-5.382603360904713"><ele>21.0</ele><time>2026-04-25T14:23:42Z</time></trkpt><trkpt lat="36.19810090412202" lon="-5.382586898176553"><ele>21.0</ele><time>2026-04-25T14:23:43Z</time></trkpt><trkpt lat="36.197901310155224" lon="-5.382587435707623"><ele>19.333333333333332</ele><time>2026-04-25T14:23:44Z</time></trkpt><trkpt lat="36.19769617853817" lon="-5.38261164647353"><ele>17.666666666666664</ele><time>2026-04-25T14:23:45Z</time></trkpt><trkpt lat="36.19749265493062" lon="-5.382653041650495"><ele>16.0</ele><time>2026-04-25T14:23:46Z</time></trkpt><trkpt lat="36.19728784502671" lon="-5.38271710899238"><ele>15.333333333333332</ele><time>2026-04-25T14:23:47Z</time></trkpt><trkpt lat="36.19708125503324" lon="-5.382799884476999"><ele>14.666666666666668</ele><time>2026-04-25T14:23:48Z</time></trkpt><trkpt lat="36.19686872911529" lon="-5.382891098509477"><ele>14.0</ele><time>2026-04-25T14:23:49Z</time></trkpt><trkpt lat="36.19664208371325" lon="-5.382996326264675"><ele>14.0</ele><time>2026-04-25T14:23:50Z</time></trkpt><trkpt lat="36.19640251812941" lon="-5.383107853762814"><ele>14.0</ele><time>2026-04-25T14:23:51Z</time></trkpt><trkpt lat="36.19616111615946" lon="-5.383216166870277"><ele>14.0</ele><time>2026-04-25T14:23:52Z</time></trkpt><trkpt lat="36.19592691352699" lon="-5.383321783079855"><ele>14.0</ele><time>2026-04-25T14:23:53Z</time></trkpt><trkpt lat="36.195697023428856" lon="-5.383427539549386"><ele>14.0</ele><time>2026-04-25T14:23:54Z</time></trkpt><trkpt lat="36.19546348440561" lon="-5.383535507673714"><ele>14.0</ele><time>2026-04-25T14:23:55Z</time></trkpt><trkpt lat="36.195228605925074" lon="-5.383643215806592"><ele>14.0</ele><time>2026-04-25T14:23:56Z</time></trkpt><trkpt lat="36.19499178964301" lon="-5.38374828617327"><ele>14.0</ele><time>2026-04-25T14:23:56.999Z</time></trkpt><trkpt lat="36.19475410494697" lon="-5.383855993316011"><ele>12.0</ele><time>2026-04-25T14:23:57.999Z</time></trkpt><trkpt lat="36.19452094811032" lon="-5.383960410445582"><ele>10.0</ele><time>2026-04-25T14:23:58.999Z</time></trkpt><trkpt lat="36.194287408320015" lon="-5.384064476470417"><ele>10.0</ele><time>2026-04-25T14:23:59.999Z</time></trkpt><trkpt lat="36.19405639513037" lon="-5.384170894369348"><ele>10.0</ele><time>2026-04-25T14:24:00.999Z</time></trkpt><trkpt lat="36.19382504972021" lon="-5.384276558127501"><ele>8.5</ele><time>2026-04-25T14:24:01.999Z</time></trkpt><trkpt lat="36.1935989810314" lon="-5.384375442912395"><ele>7.0</ele><time>2026-04-25T14:24:02.999Z</time></trkpt><trkpt lat="36.193370172093964" lon="-5.384471798458341"><ele>7.0</ele><time>2026-04-25T14:24:03.999Z</time></trkpt><trkpt lat="36.19314328222348" lon="-5.3845596687962"><ele>7.0</ele><time>2026-04-25T14:24:04.999Z</time></trkpt><trkpt lat="36.192918584324005" lon="-5.384650782909355"><ele>7.0</ele><time>2026-04-25T14:24:05.999Z</time></trkpt><trkpt lat="36.1926994856056" lon="-5.384742263624856"><ele>7.0</ele><time>2026-04-25T14:24:06.999Z</time></trkpt><trkpt lat="36.19249888810399" lon="-5.384830689400757"><ele>7.0</ele><time>2026-04-25T14:24:07.999Z</time></trkpt><trkpt lat="36.19231417202932" lon="-5.384913308768903"><ele>7.0</ele><time>2026-04-25T14:24:08.999Z</time></trkpt><trkpt lat="36.1921435654041" lon="-5.384990229553059"><ele>7.0</ele><time>2026-04-25T14:24:09.999Z</time></trkpt><trkpt lat="36.19198678441969" lon="-5.385060394341385"><ele>7.0</ele><time>2026-04-25T14:24:10.999Z</time></trkpt><trkpt lat="36.19185976535285" lon="-5.385117873859604"><ele>7.0</ele><time>2026-04-25T14:24:11.999Z</time></trkpt><trkpt lat="36.191757028951145" lon="-5.385161017961924"><ele>6.999999999999999</ele><time>2026-04-25T14:24:12.999Z</time></trkpt><trkpt lat="36.19166910051585" lon="-5.385213063632118"><ele>6.999999999999999</ele><time>2026-04-25T14:24:13.999Z</time></trkpt><trkpt lat="36.19158008668996" lon="-5.385282168412275"><ele>7.0</ele><time>2026-04-25T14:24:14.999Z</time></trkpt><trkpt lat="36.19149258192838" lon="-5.385354831762984"><ele>7.0</ele><time>2026-04-25T14:24:15.999Z</time></trkpt><trkpt lat="36.191397117612816" lon="-5.385410057517983"><ele>7.0</ele><time>2026-04-25T14:24:16.999Z</time></trkpt><trkpt lat="36.1912899548296" lon="-5.385434494388534"><ele>7.0</ele><time>2026-04-25T14:24:17.999Z</time></trkpt><trkpt lat="36.19117498003228" lon="-5.385440786682218"><ele>7.0</ele><time>2026-04-25T14:24:18.999Z</time></trkpt><trkpt lat="36.19105794993844" lon="-5.385448157184517"><ele>7.0</ele><time>2026-04-25T14:24:19.999Z</time></trkpt><trkpt lat="36.1909390937651" lon="-5.385470892794341"><ele>7.333333333333334</ele><time>2026-04-25T14:24:20.999Z</time></trkpt><trkpt lat="36.19080768469359" lon="-5.385527419481724"><ele>7.666666666666666</ele><time>2026-04-25T14:24:21.999Z</time></trkpt><trkpt lat="36.19066204707488" lon="-5.385596857540236"><ele>8.0</ele><time>2026-04-25T14:24:22.999Z</time></trkpt><trkpt lat="36.1905064941142" lon="-5.385663564695729"><ele>7.0</ele><time>2026-04-25T14:24:23.999Z</time></trkpt><trkpt lat="36.190337230943406" lon="-5.385727116792521"><ele>6.0</ele><time>2026-04-25T14:24:24.999Z</time></trkpt><trkpt lat="36.190159431507404" lon="-5.385799152357999"><ele>5.0</ele><time>2026-04-25T14:24:25.999Z</time></trkpt><trkpt lat="36.1899783785143" lon="-5.385864411617832"><ele>5.666666666666667</ele><time>2026-04-25T14:24:26.999Z</time></trkpt><trkpt lat="36.18980039558727" lon="-5.385923204806123"><ele>6.333333333333334</ele><time>2026-04-25T14:24:27.999Z</time></trkpt><trkpt lat="36.18961090832255" lon="-5.38595449328543"><ele>7.0</ele><time>2026-04-25T14:24:28.999Z</time></trkpt><trkpt lat="36.18939885001747" lon="-5.3859657980997016"><ele>7.0</ele><time>2026-04-25T14:24:29.999Z</time></trkpt><trkpt lat="36.18917923905698" lon="-5.385951316880195"><ele>7.0</ele><time>2026-04-25T14:24:30.999Z</time></trkpt><trkpt lat="36.188949417758614" lon="-5.385899937819839"><ele>7.0</ele><time>2026-04-25T14:24:31.999Z</time></trkpt><trkpt lat="36.18873058642179" lon="-5.38583834556587"><ele>7.0</ele><time>2026-04-25T14:24:32.999Z</time></trkpt><trkpt lat="36.18853173973287" lon="-5.385758328660322"><ele>7.0</ele><time>2026-04-25T14:24:33.999Z</time></trkpt><trkpt lat="36.18834419033259" lon="-5.385657169427112"><ele>7.0</ele><time>2026-04-25T14:24:34.999Z</time></trkpt><trkpt lat="36.188173381140096" lon="-5.38553467058269"><ele>7.0</ele><time>2026-04-25T14:24:35.999Z</time></trkpt><trkpt lat="36.188007743932765" lon="-5.385392555845473"><ele>7.0</ele><time>2026-04-25T14:24:36.999Z</time></trkpt><trkpt lat="36.18784296502804" lon="-5.385246634918707"><ele>7.0</ele><time>2026-04-25T14:24:37.999Z</time></trkpt><trkpt lat="36.18767936326506" lon="-5.3851035980773245"><ele>7.0</ele><time>2026-04-25T14:24:38.999Z</time></trkpt><trkpt lat="36.18751577634876" lon="-5.384956131909419"><ele>7.0</ele><time>2026-04-25T14:24:39.999Z</time></trkpt><trkpt lat="36.18735043980802" lon="-5.384806428347654"><ele>7.333333333333334</ele><time>2026-04-25T14:24:40.999Z</time></trkpt><trkpt lat="36.18718623586156" lon="-5.384658257144097"><ele>7.666666666666666</ele><time>2026-04-25T14:24:41.999Z</time></trkpt><trkpt lat="36.18702303761076" lon="-5.384511143777155"><ele>8.0</ele><time>2026-04-25T14:24:42.999Z</time></trkpt><trkpt lat="36.186860338649566" lon="-5.384366005845371"><ele>8.0</ele><time>2026-04-25T14:24:43.999Z</time></trkpt><trkpt lat="36.18670197729346" lon="-5.384225790678081"><ele>8.0</ele><time>2026-04-25T14:24:44.999Z</time></trkpt><trkpt lat="36.18654976793674" lon="-5.384083455128836"><ele>8.0</ele><time>2026-04-25T14:24:45.999Z</time></trkpt><trkpt lat="36.186393195983705" lon="-5.383941048601889"><ele>7.666666666666666</ele><time>2026-04-25T14:24:46.999Z</time></trkpt><trkpt lat="36.18623373542402" lon="-5.383790646570276"><ele>7.333333333333334</ele><time>2026-04-25T14:24:47.999Z</time></trkpt><trkpt lat="36.186073182008634" lon="-5.383639251304605"><ele>7.0</ele><time>2026-04-25T14:24:48.999Z</time></trkpt><trkpt lat="36.18590960905353" lon="-5.383489221137583"><ele>7.0</ele><time>2026-04-25T14:24:49.999Z</time></trkpt><trkpt lat="36.1857415945495" lon="-5.383340171836264"><ele>7.0</ele><time>2026-04-25T14:24:50.999Z</time></trkpt><trkpt lat="36.185574953299145" lon="-5.383189323939973"><ele>7.0</ele><time>2026-04-25T14:24:51.999Z</time></trkpt><trkpt lat="36.18540345552812" lon="-5.383037278320202"><ele>8.333333333333334</ele><time>2026-04-25T14:24:52.999Z</time></trkpt><trkpt lat="36.18522725748908" lon="-5.382885344434992"><ele>9.666666666666666</ele><time>2026-04-25T14:24:53.998Z</time></trkpt><trkpt lat="36.18505198343661" lon="-5.382734102846103"><ele>11.0</ele><time>2026-04-25T14:24:54.998Z</time></trkpt><trkpt lat="36.184881980571085" lon="-5.3825890389300355"><ele>10.333333333333332</ele><time>2026-04-25T14:24:55.998Z</time></trkpt><trkpt lat="36.18470710235505" lon="-5.3824448012385195"><ele>9.666666666666666</ele><time>2026-04-25T14:24:56.998Z</time></trkpt><trkpt lat="36.18452959328342" lon="-5.382305807257177"><ele>9.0</ele><time>2026-04-25T14:24:57.998Z</time></trkpt><trkpt lat="36.1843450030218" lon="-5.382176317358847"><ele>9.0</ele><time>2026-04-25T14:24:58.998Z</time></trkpt><trkpt lat="36.18415778188615" lon="-5.38205449201706"><ele>9.0</ele><time>2026-04-25T14:24:59.998Z</time></trkpt><trkpt lat="36.18398385862776" lon="-5.381949822357369"><ele>9.0</ele><time>2026-04-25T14:25:00.998Z</time></trkpt><trkpt lat="36.18382068212038" lon="-5.38185230237875"><ele>7.333333333333333</ele><time>2026-04-25T14:25:01.998Z</time></trkpt><trkpt lat="36.183663456683554" lon="-5.38176153592615"><ele>5.666666666666666</ele><time>2026-04-25T14:25:02.998Z</time></trkpt><trkpt lat="36.183516238935084" lon="-5.381679958881109"><ele>4.0</ele><time>2026-04-25T14:25:03.998Z</time></trkpt><trkpt lat="36.183378828746676" lon="-5.381605793117127"><ele>4.0</ele><time>2026-04-25T14:25:04.998Z</time></trkpt><trkpt lat="36.18324826102777" lon="-5.381543867853466"><ele>4.0</ele><time>2026-04-25T14:25:05.998Z</time></trkpt><trkpt lat="36.183120121925" lon="-5.381448979487052"><ele>4.0</ele><time>2026-04-25T14:25:06.998Z</time></trkpt><trkpt lat="36.183002512352736" lon="-5.381389528697752"><ele>4.0</ele><time>2026-04-25T14:25:07.998Z</time></trkpt><trkpt lat="36.182895454590216" lon="-5.381333942181802"><ele>3.333333333333333</ele><time>2026-04-25T14:25:08.998Z</time></trkpt><trkpt lat="36.182804858187104" lon="-5.3812873469636076"><ele>2.6666666666666665</ele><time>2026-04-25T14:25:09.998Z</time></trkpt><trkpt lat="36.18273041285101" lon="-5.381250782020074"><ele>2.0</ele><time>2026-04-25T14:25:10.998Z</time></trkpt><trkpt lat="36.182665243024616" lon="-5.381233875226632"><ele>1.3333333333333333</ele><time>2026-04-25T14:25:11.998Z</time></trkpt><trkpt lat="36.182599141027865" lon="-5.381227906631373"><ele>0.6666666666666666</ele><time>2026-04-25T14:25:12.998Z</time></trkpt><trkpt lat="36.18249439565551" lon="-5.381229975261449"><ele>0.0</ele><time>2026-04-25T14:25:14.998Z</time></trkpt><trkpt lat="36.182393015676205" lon="-5.381236314007351"><ele>0.0</ele><time>2026-04-25T14:25:17.998Z</time></trkpt><trkpt lat="36.18231349787734" lon="-5.381241508436893"><ele>0.0</ele><time>2026-04-25T14:25:18.998Z</time></trkpt><trkpt lat="36.18222722083153" lon="-5.381235968111778"><ele>0.0</ele><time>2026-04-25T14:25:19.998Z</time></trkpt><trkpt lat="36.18213621968977" lon="-5.381204783166197"><ele>0.0</ele><time>2026-04-25T14:25:20.998Z</time></trkpt><trkpt lat="36.18204163652005" lon="-5.38113892436928"><ele>0.0</ele><time>2026-04-25T14:25:21.998Z</time></trkpt><trkpt lat="36.181965389574366" lon="-5.3810253538128325"><ele>0.0</ele><time>2026-04-25T14:25:22.998Z</time></trkpt><trkpt lat="36.181900451998615" lon="-5.380906001391154"><ele>0.0</ele><time>2026-04-25T14:25:23.998Z</time></trkpt><trkpt lat="36.18181049922366" lon="-5.3808048232140475"><ele>0.0</ele><time>2026-04-25T14:25:24.998Z</time></trkpt><trkpt lat="36.18172232701004" lon="-5.380707832844338"><ele>0.0</ele><time>2026-04-25T14:25:25.998Z</time></trkpt><trkpt lat="36.181609485482326" lon="-5.380632550164833"><ele>2.0</ele><time>2026-04-25T14:25:26.998Z</time></trkpt><trkpt lat="36.1814831719081" lon="-5.380557833138461"><ele>4.0</ele><time>2026-04-25T14:25:27.998Z</time></trkpt><trkpt lat="36.18135754923948" lon="-5.380479348732816"><ele>6.0</ele><time>2026-04-25T14:25:29Z</time></trkpt><trkpt lat="36.18120536146299" lon="-5.380380526457294"><ele>6.333333333333334</ele><time>2026-04-25T14:25:30Z</time></trkpt><trkpt lat="36.181055428734986" lon="-5.380278774844999"><ele>6.666666666666667</ele><time>2026-04-25T14:25:31Z</time></trkpt><trkpt lat="36.1808955526255" lon="-5.380166963972321"><ele>7.0</ele><time>2026-04-25T14:25:32Z</time></trkpt><trkpt lat="36.18072992501593" lon="-5.380052438202728"><ele>7.666666666666667</ele><time>2026-04-25T14:25:33Z</time></trkpt><trkpt lat="36.18055959605083" lon="-5.379939593508153"><ele>8.333333333333334</ele><time>2026-04-25T14:25:34Z</time></trkpt><trkpt lat="36.18039083143798" lon="-5.3798316985332555"><ele>9.0</ele><time>2026-04-25T14:25:35Z</time></trkpt><trkpt lat="36.18023710163119" lon="-5.379726520938725"><ele>9.666666666666666</ele><time>2026-04-25T14:25:36Z</time></trkpt><trkpt lat="36.180104320534596" lon="-5.379627108595403"><ele>10.333333333333332</ele><time>2026-04-25T14:25:37Z</time></trkpt><trkpt lat="36.17996884315444" lon="-5.379533771777223"><ele>11.0</ele><time>2026-04-25T14:25:38Z</time></trkpt><trkpt lat="36.17982907675446" lon="-5.379444100542047"><ele>12.0</ele><time>2026-04-25T14:25:39Z</time></trkpt><trkpt lat="36.179698699144346" lon="-5.379349335215389"><ele>13.0</ele><time>2026-04-25T14:25:40Z</time></trkpt><trkpt lat="36.1795752420183" lon="-5.379247852559027"><ele>14.0</ele><time>2026-04-25T14:25:41Z</time></trkpt><trkpt lat="36.17947093548091" lon="-5.3791388660864765"><ele>15.0</ele><time>2026-04-25T14:25:42Z</time></trkpt><trkpt lat="36.17936692864991" lon="-5.379031023960899"><ele>15.0</ele><time>2026-04-25T14:25:43Z</time></trkpt><trkpt lat="36.17926692919964" lon="-5.378925222010652"><ele>15.0</ele><time>2026-04-25T14:25:44Z</time></trkpt><trkpt lat="36.17918169938436" lon="-5.378837810369525"><ele>15.0</ele><time>2026-04-25T14:25:45Z</time></trkpt><trkpt lat="36.17910546519435" lon="-5.378761577203688"><ele>15.0</ele><time>2026-04-25T14:25:46Z</time></trkpt><trkpt lat="36.17903291409427" lon="-5.378689992613281"><ele>15.0</ele><time>2026-04-25T14:25:47Z</time></trkpt><trkpt lat="36.17894785922627" lon="-5.37859993482589"><ele>15.0</ele><time>2026-04-25T14:25:48Z</time></trkpt><trkpt lat="36.178863807325186" lon="-5.37850772957011"><ele>15.0</ele><time>2026-04-25T14:25:49Z</time></trkpt><trkpt lat="36.178769812426665" lon="-5.37842032423965"><ele>15.0</ele><time>2026-04-25T14:25:50Z</time></trkpt><trkpt lat="36.17868130338765" lon="-5.378323088927103"><ele>15.0</ele><time>2026-04-25T14:25:51Z</time></trkpt><trkpt lat="36.17858192111459" lon="-5.3782338149602795"><ele>15.0</ele><time>2026-04-25T14:25:52Z</time></trkpt><trkpt lat="36.17848221525425" lon="-5.378135950328087"><ele>15.0</ele><time>2026-04-25T14:25:53Z</time></trkpt><trkpt lat="36.17838095849142" lon="-5.378033012943118"><ele>15.0</ele><time>2026-04-25T14:25:54Z</time></trkpt><trkpt lat="36.1782794800863" lon="-5.377937911352853"><ele>15.0</ele><time>2026-04-25T14:25:55Z</time></trkpt><trkpt lat="36.17818103497855" lon="-5.377849558940198"><ele>15.0</ele><time>2026-04-25T14:25:56Z</time></trkpt><trkpt lat="36.17809336953359" lon="-5.3777638273466275"><ele>15.0</ele><time>2026-04-25T14:25:57Z</time></trkpt><trkpt lat="36.178021898835105" lon="-5.377667805993232"><ele>15.0</ele><time>2026-04-25T14:25:58Z</time></trkpt><trkpt lat="36.177954721827625" lon="-5.377579231440789"><ele>15.0</ele><time>2026-04-25T14:25:59Z</time></trkpt><trkpt lat="36.17789704608702" lon="-5.377488882889981"><ele>15.0</ele><time>2026-04-25T14:26:00Z</time></trkpt><trkpt lat="36.17784502049705" lon="-5.377402348381333"><ele>15.0</ele><time>2026-04-25T14:26:01Z</time></trkpt><trkpt lat="36.1778007136954" lon="-5.377309320250675"><ele>15.0</ele><time>2026-04-25T14:26:02Z</time></trkpt><trkpt lat="36.177751237511316" lon="-5.377223307230921"><ele>15.0</ele><time>2026-04-25T14:26:03Z</time></trkpt><trkpt lat="36.17770651803509" lon="-5.377139438381806"><ele>15.0</ele><time>2026-04-25T14:26:04Z</time></trkpt><trkpt lat="36.17765796584009" lon="-5.377051835719937"><ele>15.0</ele><time>2026-04-25T14:26:05Z</time></trkpt><trkpt lat="36.177617774007196" lon="-5.376972763721819"><ele>15.0</ele><time>2026-04-25T14:26:06Z</time></trkpt><trkpt lat="36.17757816360613" lon="-5.376897986049749"><ele>15.0</ele><time>2026-04-25T14:26:07Z</time></trkpt><trkpt lat="36.17753410539875" lon="-5.376817697653994"><ele>15.0</ele><time>2026-04-25T14:26:07.999Z</time></trkpt><trkpt lat="36.17748999387675" lon="-5.376734992696285"><ele>15.0</ele><time>2026-04-25T14:26:08.999Z</time></trkpt><trkpt lat="36.177442457194815" lon="-5.376651890801942"><ele>15.0</ele><time>2026-04-25T14:26:09.999Z</time></trkpt><trkpt lat="36.177393517663745" lon="-5.37656946923267"><ele>15.0</ele><time>2026-04-25T14:26:10.999Z</time></trkpt><trkpt lat="36.17733219886517" lon="-5.376480236033375"><ele>15.0</ele><time>2026-04-25T14:26:11.999Z</time></trkpt><trkpt lat="36.17726379261976" lon="-5.376386897214351"><ele>15.2</ele><time>2026-04-25T14:26:12.999Z</time></trkpt><trkpt lat="36.17718875994426" lon="-5.376292492714426"><ele>15.4</ele><time>2026-04-25T14:26:13.999Z</time></trkpt><trkpt lat="36.177112738986146" lon="-5.376204191322655"><ele>15.600000000000001</ele><time>2026-04-25T14:26:14.999Z</time></trkpt><trkpt lat="36.177030807564975" lon="-5.376130609719737"><ele>15.8</ele><time>2026-04-25T14:26:15.999Z</time></trkpt><trkpt lat="36.176943629638174" lon="-5.376030190918271"><ele>16.0</ele><time>2026-04-25T14:26:16.999Z</time></trkpt><trkpt lat="36.17684670890667" lon="-5.3759196885704394"><ele>16.0</ele><time>2026-04-25T14:26:17.999Z</time></trkpt><trkpt lat="36.17672927389269" lon="-5.375786339711148"><ele>16.0</ele><time>2026-04-25T14:26:18.999Z</time></trkpt><trkpt lat="36.17662803981859" lon="-5.3756654652817915"><ele>16.0</ele><time>2026-04-25T14:26:19.999Z</time></trkpt><trkpt lat="36.176556981357386" lon="-5.375564997924502"><ele>16.0</ele><time>2026-04-25T14:26:20.999Z</time></trkpt><trkpt lat="36.1764834681938" lon="-5.3754811865272"><ele>15.4</ele><time>2026-04-25T14:26:21.999Z</time></trkpt><trkpt lat="36.17641512439862" lon="-5.375409436947469"><ele>14.8</ele><time>2026-04-25T14:26:22.999Z</time></trkpt><trkpt lat="36.1763464668999" lon="-5.375333988529552"><ele>14.200000000000001</ele><time>2026-04-25T14:26:23.999Z</time></trkpt><trkpt lat="36.17627147505326" lon="-5.3752434483183675"><ele>13.600000000000001</ele><time>2026-04-25T14:26:24.999Z</time></trkpt><trkpt lat="36.17619649361689" lon="-5.375150506850013"><ele>13.0</ele><time>2026-04-25T14:26:25.999Z</time></trkpt><trkpt lat="36.17611960508132" lon="-5.37505731893156"><ele>13.0</ele><time>2026-04-25T14:26:26.999Z</time></trkpt><trkpt lat="36.176041988194" lon="-5.374964956633239"><ele>13.0</ele><time>2026-04-25T14:26:27.999Z</time></trkpt><trkpt lat="36.17596506608617" lon="-5.374873710228327"><ele>13.0</ele><time>2026-04-25T14:26:28.999Z</time></trkpt><trkpt lat="36.175890982314264" lon="-5.374782057254994"><ele>13.0</ele><time>2026-04-25T14:26:29.999Z</time></trkpt><trkpt lat="36.17581312454214" lon="-5.374694500751107"><ele>13.0</ele><time>2026-04-25T14:26:30.999Z</time></trkpt><trkpt lat="36.17573208588275" lon="-5.374610739846354"><ele>12.8</ele><time>2026-04-25T14:26:31.999Z</time></trkpt><trkpt lat="36.17565317370862" lon="-5.374525710019062"><ele>12.600000000000001</ele><time>2026-04-25T14:26:32.999Z</time></trkpt><trkpt lat="36.175568285626554" lon="-5.374443770613338"><ele>12.399999999999999</ele><time>2026-04-25T14:26:33.999Z</time></trkpt><trkpt lat="36.17547994532323" lon="-5.374369362618774"><ele>12.2</ele><time>2026-04-25T14:26:34.999Z</time></trkpt><trkpt lat="36.17539169748482" lon="-5.374295096745668"><ele>12.0</ele><time>2026-04-25T14:26:35.999Z</time></trkpt><trkpt lat="36.175303984773834" lon="-5.374230445482951"><ele>12.0</ele><time>2026-04-25T14:26:36.999Z</time></trkpt><trkpt lat="36.17522100056542" lon="-5.374172621319738"><ele>12.0</ele><time>2026-04-25T14:26:37.999Z</time></trkpt><trkpt lat="36.175139871001306" lon="-5.374112018995443"><ele>12.0</ele><time>2026-04-25T14:26:38.999Z</time></trkpt><trkpt lat="36.1750604294626" lon="-5.374054871080361"><ele>12.0</ele><time>2026-04-25T14:26:39.999Z</time></trkpt><trkpt lat="36.174976946193155" lon="-5.373997406014604"><ele>12.0</ele><time>2026-04-25T14:26:40.999Z</time></trkpt><trkpt lat="36.1748986083593" lon="-5.373944565010824"><ele>11.833333333333334</ele><time>2026-04-25T14:26:41.999Z</time></trkpt><trkpt lat="36.17482784120957" lon="-5.373885968207115"><ele>11.666666666666666</ele><time>2026-04-25T14:26:42.999Z</time></trkpt><trkpt lat="36.17475366934392" lon="-5.3738397847685375"><ele>11.5</ele><time>2026-04-25T14:26:43.999Z</time></trkpt><trkpt lat="36.174677098615845" lon="-5.3737830903299"><ele>11.333333333333332</ele><time>2026-04-25T14:26:44.999Z</time></trkpt><trkpt lat="36.17459827470902" lon="-5.373739702128746"><ele>11.166666666666666</ele><time>2026-04-25T14:26:45.999Z</time></trkpt><trkpt lat="36.17451561051791" lon="-5.373686774257353"><ele>11.0</ele><time>2026-04-25T14:26:46.999Z</time></trkpt><trkpt lat="36.17445054431938" lon="-5.373639119595636"><ele>11.0</ele><time>2026-04-25T14:26:47.999Z</time></trkpt><trkpt lat="36.17438410997304" lon="-5.373600006170796"><ele>11.0</ele><time>2026-04-25T14:26:48.999Z</time></trkpt><trkpt lat="36.174316348276484" lon="-5.373563721735611"><ele>11.0</ele><time>2026-04-25T14:26:49.999Z</time></trkpt><trkpt lat="36.17425599961019" lon="-5.373520800846714"><ele>11.0</ele><time>2026-04-25T14:26:50.999Z</time></trkpt><trkpt lat="36.174191700181794" lon="-5.373482575947011"><ele>11.0</ele><time>2026-04-25T14:26:51.999Z</time></trkpt><trkpt lat="36.174128121011" lon="-5.373438275386371"><ele>11.0</ele><time>2026-04-25T14:26:52.999Z</time></trkpt><trkpt lat="36.174065170398194" lon="-5.373391776071608"><ele>11.0</ele><time>2026-04-25T14:26:53.999Z</time></trkpt><trkpt lat="36.17400000752589" lon="-5.373344806770462"><ele>10.600000000000001</ele><time>2026-04-25T14:26:54.999Z</time></trkpt><trkpt lat="36.173928621961466" lon="-5.373291039567841"><ele>10.200000000000001</ele><time>2026-04-25T14:26:55.999Z</time></trkpt><trkpt lat="36.17385489103517" lon="-5.373225265131183"><ele>9.8</ele><time>2026-04-25T14:26:56.999Z</time></trkpt><trkpt lat="36.17376254846242" lon="-5.373153801743695"><ele>9.4</ele><time>2026-04-25T14:26:57.999Z</time></trkpt><trkpt lat="36.17367461192189" lon="-5.373080160224894"><ele>9.0</ele><time>2026-04-25T14:26:58.999Z</time></trkpt><trkpt lat="36.17359172095819" lon="-5.373016220843154"><ele>9.0</ele><time>2026-04-25T14:26:59.999Z</time></trkpt><trkpt lat="36.17351525180951" lon="-5.372950689754932"><ele>9.0</ele><time>2026-04-25T14:27:00.999Z</time></trkpt><trkpt lat="36.17344021570517" lon="-5.372882619981446"><ele>9.0</ele><time>2026-04-25T14:27:01.999Z</time></trkpt><trkpt lat="36.17337050911937" lon="-5.372821338770902"><ele>9.0</ele><time>2026-04-25T14:27:02.999Z</time></trkpt><trkpt lat="36.1732978276641" lon="-5.372760703017746"><ele>9.0</ele><time>2026-04-25T14:27:03.998Z</time></trkpt><trkpt lat="36.1732373346116" lon="-5.372708657659706"><ele>9.0</ele><time>2026-04-25T14:27:04.998Z</time></trkpt><trkpt lat="36.173173195223704" lon="-5.372661234792976"><ele>8.833333333333334</ele><time>2026-04-25T14:27:05.998Z</time></trkpt><trkpt lat="36.17311219179787" lon="-5.372604924072134"><ele>8.666666666666666</ele><time>2026-04-25T14:27:06.998Z</time></trkpt><trkpt lat="36.17305386490663" lon="-5.372550518361085"><ele>8.5</ele><time>2026-04-25T14:27:07.998Z</time></trkpt><trkpt lat="36.17298888820979" lon="-5.372498092232302"><ele>8.333333333333332</ele><time>2026-04-25T14:27:08.998Z</time></trkpt><trkpt lat="36.17292085701529" lon="-5.372441634876372"><ele>8.166666666666666</ele><time>2026-04-25T14:27:09.998Z</time></trkpt><trkpt lat="36.17283683018992" lon="-5.372374442572919"><ele>8.0</ele><time>2026-04-25T14:27:10.998Z</time></trkpt><trkpt lat="36.172744518493616" lon="-5.372298854055004"><ele>8.0</ele><time>2026-04-25T14:27:11.998Z</time></trkpt><trkpt lat="36.17265561512545" lon="-5.372223135342327"><ele>8.0</ele><time>2026-04-25T14:27:12.998Z</time></trkpt><trkpt lat="36.17256758645477" lon="-5.372143945387898"><ele>8.0</ele><time>2026-04-25T14:27:13.998Z</time></trkpt><trkpt lat="36.1724758910906" lon="-5.3720635638868925"><ele>8.0</ele><time>2026-04-25T14:27:14.998Z</time></trkpt><trkpt lat="36.172386146571505" lon="-5.371986617184626"><ele>8.0</ele><time>2026-04-25T14:27:15.998Z</time></trkpt><trkpt lat="36.172303275683454" lon="-5.371915441479189"><ele>7.6000000000000005</ele><time>2026-04-25T14:27:16.998Z</time></trkpt><trkpt lat="36.17222167168855" lon="-5.371844291996598"><ele>7.200000000000001</ele><time>2026-04-25T14:27:17.998Z</time></trkpt><trkpt lat="36.17214143911443" lon="-5.371775407943443"><ele>6.8</ele><time>2026-04-25T14:27:18.998Z</time></trkpt><trkpt lat="36.17206568090101" lon="-5.371707736947739"><ele>6.4</ele><time>2026-04-25T14:27:19.998Z</time></trkpt><trkpt lat="36.17198895907908" lon="-5.371644484896986"><ele>6.0</ele><time>2026-04-25T14:27:20.998Z</time></trkpt><trkpt lat="36.171906631133716" lon="-5.3715830978105945"><ele>6.0</ele><time>2026-04-25T14:27:21.998Z</time></trkpt><trkpt lat="36.171834271960584" lon="-5.371533716115781"><ele>6.0</ele><time>2026-04-25T14:27:22.998Z</time></trkpt><trkpt lat="36.171766539866404" lon="-5.371473746890613"><ele>6.0</ele><time>2026-04-25T14:27:23.998Z</time></trkpt><trkpt lat="36.171686754775976" lon="-5.371437611059417"><ele>6.0</ele><time>2026-04-25T14:27:24.998Z</time></trkpt><trkpt lat="36.171596200837435" lon="-5.371396065577852"><ele>6.0</ele><time>2026-04-25T14:27:25.998Z</time></trkpt><trkpt lat="36.171506584640596" lon="-5.371349613634945"><ele>6.0</ele><time>2026-04-25T14:27:26.998Z</time></trkpt><trkpt lat="36.17142188333932" lon="-5.371303167566423"><ele>5.8</ele><time>2026-04-25T14:27:27.998Z</time></trkpt><trkpt lat="36.17133379848129" lon="-5.371263174931085"><ele>5.6</ele><time>2026-04-25T14:27:28.998Z</time></trkpt><trkpt lat="36.17124837148046" lon="-5.371227733171066"><ele>5.4</ele><time>2026-04-25T14:27:29.998Z</time></trkpt><trkpt lat="36.171175526312794" lon="-5.371203244250021"><ele>5.2</ele><time>2026-04-25T14:27:30.998Z</time></trkpt><trkpt lat="36.17110852962967" lon="-5.371173631994194"><ele>5.0</ele><time>2026-04-25T14:27:31.998Z</time></trkpt><trkpt lat="36.17099199530518" lon="-5.371124647232963"><ele>5.0</ele><time>2026-04-25T14:27:33.998Z</time></trkpt><trkpt lat="36.1709270809223" lon="-5.371102139118484"><ele>5.0</ele><time>2026-04-25T14:27:35Z</time></trkpt><trkpt lat="36.170852649613465" lon="-5.3710763544200715"><ele>5.0</ele><time>2026-04-25T14:27:36Z</time></trkpt><trkpt lat="36.170776398757525" lon="-5.371047351989504"><ele>5.0</ele><time>2026-04-25T14:27:37Z</time></trkpt><trkpt lat="36.17069175863449" lon="-5.371014440904884"><ele>5.0</ele><time>2026-04-25T14:27:38Z</time></trkpt><trkpt lat="36.170591021515705" lon="-5.370982781021955"><ele>5.0</ele><time>2026-04-25T14:27:39Z</time></trkpt><trkpt lat="36.17048029305076" lon="-5.370960337257379"><ele>5.2</ele><time>2026-04-25T14:27:40Z</time></trkpt><trkpt lat="36.17037240348009" lon="-5.370940034765156"><ele>5.4</ele><time>2026-04-25T14:27:41Z</time></trkpt><trkpt lat="36.17026924564556" lon="-5.370907645688333"><ele>5.6</ele><time>2026-04-25T14:27:42Z</time></trkpt><trkpt lat="36.17016733460006" lon="-5.3708689411782355"><ele>5.8</ele><time>2026-04-25T14:27:43Z</time></trkpt><trkpt lat="36.17006258964409" lon="-5.370825421428923"><ele>6.0</ele><time>2026-04-25T14:27:44Z</time></trkpt><trkpt lat="36.1699521409557" lon="-5.37076346516771"><ele>6.6</ele><time>2026-04-25T14:27:45Z</time></trkpt><trkpt lat="36.16985660990513" lon="-5.370698587982925"><ele>7.199999999999999</ele><time>2026-04-25T14:27:46Z</time></trkpt><trkpt lat="36.1697719994852" lon="-5.370609768147015"><ele>7.800000000000001</ele><time>2026-04-25T14:27:47Z</time></trkpt><trkpt lat="36.169685492129375" lon="-5.370523097474531"><ele>8.4</ele><time>2026-04-25T14:27:48Z</time></trkpt><trkpt lat="36.169598377217675" lon="-5.370429981104258"><ele>9.0</ele><time>2026-04-25T14:27:49Z</time></trkpt><trkpt lat="36.1695065634221" lon="-5.370341515616855"><ele>9.0</ele><time>2026-04-25T14:27:50Z</time></trkpt><trkpt lat="36.16941398174578" lon="-5.370257241609379"><ele>9.0</ele><time>2026-04-25T14:27:51Z</time></trkpt><trkpt lat="36.169322851200626" lon="-5.370176098298829"><ele>9.0</ele><time>2026-04-25T14:27:52Z</time></trkpt><trkpt lat="36.16923120466563" lon="-5.370091083704692"><ele>9.0</ele><time>2026-04-25T14:27:53Z</time></trkpt><trkpt lat="36.16913780779892" lon="-5.370002591397554"><ele>9.0</ele><time>2026-04-25T14:27:54Z</time></trkpt><trkpt lat="36.16904051560162" lon="-5.369915184812087"><ele>9.0</ele><time>2026-04-25T14:27:55Z</time></trkpt><trkpt lat="36.16894469165929" lon="-5.369825103947357"><ele>9.0</ele><time>2026-04-25T14:27:56Z</time></trkpt><trkpt lat="36.16885118479465" lon="-5.369736787592818"><ele>9.0</ele><time>2026-04-25T14:27:57Z</time></trkpt><trkpt lat="36.16877662405558" lon="-5.369638365682089"><ele>8.2</ele><time>2026-04-25T14:27:58Z</time></trkpt><trkpt lat="36.16871535416738" lon="-5.369531834369391"><ele>7.4</ele><time>2026-04-25T14:27:59Z</time></trkpt><trkpt lat="36.16865826247618" lon="-5.369424188540077"><ele>6.6</ele><time>2026-04-25T14:28:00Z</time></trkpt><trkpt lat="36.16860481934981" lon="-5.36932303560626"><ele>5.8</ele><time>2026-04-25T14:28:01Z</time></trkpt><trkpt lat="36.16855500659778" lon="-5.369221697844513"><ele>5.0</ele><time>2026-04-25T14:28:02Z</time></trkpt><trkpt lat="36.16850417607632" lon="-5.369120143120029"><ele>5.0</ele><time>2026-04-25T14:28:03Z</time></trkpt><trkpt lat="36.16845357055987" lon="-5.3690234423580545"><ele>5.0</ele><time>2026-04-25T14:28:04Z</time></trkpt><trkpt lat="36.16839578475092" lon="-5.368932547317758"><ele>5.0</ele><time>2026-04-25T14:28:05Z</time></trkpt><trkpt lat="36.168328630119525" lon="-5.36885595208874"><ele>5.0</ele><time>2026-04-25T14:28:06Z</time></trkpt><trkpt lat="36.168266552605765" lon="-5.368793988341176"><ele>5.0</ele><time>2026-04-25T14:28:07Z</time></trkpt><trkpt lat="36.16820701332829" lon="-5.368748643988809"><ele>5.0</ele><time>2026-04-25T14:28:08Z</time></trkpt><trkpt lat="36.16811999948013" lon="-5.368663258444403"><ele>4.2</ele><time>2026-04-25T14:28:10Z</time></trkpt><trkpt lat="36.16810076670344" lon="-5.368497082380897"><ele>3.4</ele><time>2026-04-25T14:28:12Z</time></trkpt><trkpt lat="36.16810967098447" lon="-5.368391871565731"><ele>2.6</ele><time>2026-04-25T14:28:13Z</time></trkpt><trkpt lat="36.16811138278213" lon="-5.368281285802278"><ele>1.8</ele><time>2026-04-25T14:28:14Z</time></trkpt><trkpt lat="36.16810222078957" lon="-5.368162012105552"><ele>1.0</ele><time>2026-04-25T14:28:14.999Z</time></trkpt><trkpt lat="36.168091935066606" lon="-5.368036045251317"><ele>1.5</ele><time>2026-04-25T14:28:15.999Z</time></trkpt><trkpt lat="36.168069421405846" lon="-5.3679050311447645"><ele>2.0</ele><time>2026-04-25T14:28:16.999Z</time></trkpt><trkpt lat="36.16803312663265" lon="-5.367767047045792"><ele>2.5</ele><time>2026-04-25T14:28:17.999Z</time></trkpt><trkpt lat="36.16798599281292" lon="-5.36762698997674"><ele>3.0</ele><time>2026-04-25T14:28:18.999Z</time></trkpt><trkpt lat="36.167932234337876" lon="-5.367493293636665"><ele>3.0</ele><time>2026-04-25T14:28:19.999Z</time></trkpt><trkpt lat="36.16787870959868" lon="-5.3673607122464215"><ele>3.0</ele><time>2026-04-25T14:28:20.999Z</time></trkpt><trkpt lat="36.167825230363555" lon="-5.367221689612577"><ele>3.0</ele><time>2026-04-25T14:28:21.999Z</time></trkpt><trkpt lat="36.16777597435975" lon="-5.367074935007611"><ele>3.0</ele><time>2026-04-25T14:28:22.999Z</time></trkpt><trkpt lat="36.167727139207244" lon="-5.36693728341759"><ele>3.0</ele><time>2026-04-25T14:28:23.999Z</time></trkpt><trkpt lat="36.167681196427274" lon="-5.3668173882838195"><ele>3.0</ele><time>2026-04-25T14:28:24.999Z</time></trkpt><trkpt lat="36.16764018894512" lon="-5.36671030448898"><ele>3.0</ele><time>2026-04-25T14:28:25.999Z</time></trkpt><trkpt lat="36.16760075493325" lon="-5.3666079620990494"><ele>3.0</ele><time>2026-04-25T14:28:26.999Z</time></trkpt><trkpt lat="36.16756402091884" lon="-5.366501691276518"><ele>3.0</ele><time>2026-04-25T14:28:27.999Z</time></trkpt><trkpt lat="36.167522309114446" lon="-5.366380502133297"><ele>3.0</ele><time>2026-04-25T14:28:28.999Z</time></trkpt><trkpt lat="36.167475698699214" lon="-5.366251896335188"><ele>3.0</ele><time>2026-04-25T14:28:29.999Z</time></trkpt><trkpt lat="36.167426507859986" lon="-5.366120128883148"><ele>3.0</ele><time>2026-04-25T14:28:30.999Z</time></trkpt><trkpt lat="36.16737828408231" lon="-5.365982450449941"><ele>3.0</ele><time>2026-04-25T14:28:31.999Z</time></trkpt><trkpt lat="36.16733088105842" lon="-5.365847555702327"><ele>3.25</ele><time>2026-04-25T14:28:32.999Z</time></trkpt><trkpt lat="36.1672810991474" lon="-5.365715648210973"><ele>3.5</ele><time>2026-04-25T14:28:33.999Z</time></trkpt><trkpt lat="36.167231630426315" lon="-5.365587102002165"><ele>3.75</ele><time>2026-04-25T14:28:34.999Z</time></trkpt><trkpt lat="36.167181435182165" lon="-5.365451347735377"><ele>4.0</ele><time>2026-04-25T14:28:35.999Z</time></trkpt><trkpt lat="36.167131516967274" lon="-5.365319470985092"><ele>3.6</ele><time>2026-04-25T14:28:36.999Z</time></trkpt><trkpt lat="36.167085653925255" lon="-5.365199146172171"><ele>3.2</ele><time>2026-04-25T14:28:37.999Z</time></trkpt><trkpt lat="36.16704260987455" lon="-5.3650927800891495"><ele>2.8000000000000003</ele><time>2026-04-25T14:28:38.999Z</time></trkpt><trkpt lat="36.16699768126913" lon="-5.364997538157285"><ele>2.4000000000000004</ele><time>2026-04-25T14:28:39.999Z</time></trkpt><trkpt lat="36.16694750476638" lon="-5.36491568822136"><ele>2.0</ele><time>2026-04-25T14:28:40.999Z</time></trkpt><trkpt lat="36.166890428659656" lon="-5.364847172754353"><ele>1.9999999999999998</ele><time>2026-04-25T14:28:41.999Z</time></trkpt><trkpt lat="36.166824285008424" lon="-5.364782321814487"><ele>2.0</ele><time>2026-04-25T14:28:42.999Z</time></trkpt><trkpt lat="36.16676786443834" lon="-5.364715321789507"><ele>2.0</ele><time>2026-04-25T14:28:43.999Z</time></trkpt><trkpt lat="36.16672860643729" lon="-5.364649297175971"><ele>2.0</ele><time>2026-04-25T14:28:44.999Z</time></trkpt><trkpt lat="36.16670024837762" lon="-5.364566815568039"><ele>1.9999999999999998</ele><time>2026-04-25T14:28:45.999Z</time></trkpt><trkpt lat="36.16668417617985" lon="-5.364462125417518"><ele>2.0</ele><time>2026-04-25T14:28:46.999Z</time></trkpt><trkpt lat="36.16667154207425" lon="-5.364350853292264"><ele>2.2</ele><time>2026-04-25T14:28:47.999Z</time></trkpt><trkpt lat="36.16665133275936" lon="-5.364247892635464"><ele>2.4000000000000004</ele><time>2026-04-25T14:28:48.999Z</time></trkpt><trkpt lat="36.16661805188314" lon="-5.364140961310939"><ele>2.5999999999999996</ele><time>2026-04-25T14:28:49.999Z</time></trkpt><trkpt lat="36.16657101034172" lon="-5.364024014825504"><ele>2.8</ele><time>2026-04-25T14:28:50.999Z</time></trkpt><trkpt lat="36.166511699792444" lon="-5.363897727867114"><ele>3.0</ele><time>2026-04-25T14:28:51.999Z</time></trkpt><trkpt lat="36.16644814720663" lon="-5.363770281511335"><ele>3.0</ele><time>2026-04-25T14:28:52.999Z</time></trkpt><trkpt lat="36.166386909627974" lon="-5.363662512104068"><ele>3.0</ele><time>2026-04-25T14:28:53.999Z</time></trkpt><trkpt lat="36.16633497633471" lon="-5.363551401035427"><ele>3.0</ele><time>2026-04-25T14:28:54.999Z</time></trkpt><trkpt lat="36.166282175121715" lon="-5.36343192035974"><ele>3.0</ele><time>2026-04-25T14:28:55.999Z</time></trkpt><trkpt lat="36.16622856338727" lon="-5.363310312793422"><ele>3.0</ele><time>2026-04-25T14:28:56.999Z</time></trkpt><trkpt lat="36.1661668236307" lon="-5.363194565826223"><ele>3.0</ele><time>2026-04-25T14:28:57.999Z</time></trkpt><trkpt lat="36.16610169252104" lon="-5.363079808708421"><ele>3.0</ele><time>2026-04-25T14:28:58.999Z</time></trkpt><trkpt lat="36.16604762402236" lon="-5.362967851310245"><ele>3.0</ele><time>2026-04-25T14:28:59.999Z</time></trkpt><trkpt lat="36.16598509186495" lon="-5.3628376154603385"><ele>3.0</ele><time>2026-04-25T14:29:00.999Z</time></trkpt><trkpt lat="36.1659145641169" lon="-5.3627103465785675"><ele>3.0</ele><time>2026-04-25T14:29:01.999Z</time></trkpt><trkpt lat="36.16584170771799" lon="-5.362592141753072"><ele>3.0</ele><time>2026-04-25T14:29:02.999Z</time></trkpt><trkpt lat="36.16577015807177" lon="-5.362478368495487"><ele>3.0</ele><time>2026-04-25T14:29:03.999Z</time></trkpt><trkpt lat="36.16570654588324" lon="-5.362374917835753"><ele>3.0</ele><time>2026-04-25T14:29:04.999Z</time></trkpt><trkpt lat="36.16564702375502" lon="-5.362280608850493"><ele>3.0</ele><time>2026-04-25T14:29:05.999Z</time></trkpt><trkpt lat="36.16559447037548" lon="-5.362196881733332"><ele>3.2</ele><time>2026-04-25T14:29:06.999Z</time></trkpt><trkpt lat="36.16553599678997" lon="-5.362097874036646"><ele>3.4</ele><time>2026-04-25T14:29:07.999Z</time></trkpt><trkpt lat="36.16547582265238" lon="-5.361989999985825"><ele>3.6000000000000005</ele><time>2026-04-25T14:29:08.999Z</time></trkpt><trkpt lat="36.16541639420538" lon="-5.3618734239876975"><ele>3.8000000000000003</ele><time>2026-04-25T14:29:09.998Z</time></trkpt><trkpt lat="36.16533680902814" lon="-5.361773206699674"><ele>4.0</ele><time>2026-04-25T14:29:10.998Z</time></trkpt><trkpt lat="36.165281926865816" lon="-5.361651729691978"><ele>4.0</ele><time>2026-04-25T14:29:11.998Z</time></trkpt><trkpt lat="36.16520958669367" lon="-5.361547320229907"><ele>4.0</ele><time>2026-04-25T14:29:12.998Z</time></trkpt><trkpt lat="36.16513916580269" lon="-5.361436740841326"><ele>4.0</ele><time>2026-04-25T14:29:13.998Z</time></trkpt><trkpt lat="36.16507872973665" lon="-5.361334223774992"><ele>4.0</ele><time>2026-04-25T14:29:14.998Z</time></trkpt><trkpt lat="36.16501951429764" lon="-5.361248729695561"><ele>4.0</ele><time>2026-04-25T14:29:15.998Z</time></trkpt><trkpt lat="36.16495771613335" lon="-5.361174330376808"><ele>3.8000000000000003</ele><time>2026-04-25T14:29:16.998Z</time></trkpt><trkpt lat="36.164876911840466" lon="-5.361108480206423"><ele>3.6000000000000005</ele><time>2026-04-25T14:29:17.998Z</time></trkpt><trkpt lat="36.16477809243074" lon="-5.361041419065914"><ele>3.4</ele><time>2026-04-25T14:29:18.998Z</time></trkpt><trkpt lat="36.164674585887624" lon="-5.360975839432677"><ele>3.2</ele><time>2026-04-25T14:29:19.998Z</time></trkpt><trkpt lat="36.16462607291366" lon="-5.3608446220010455"><ele>3.0</ele><time>2026-04-25T14:29:20.998Z</time></trkpt><trkpt lat="36.16458639530436" lon="-5.360702140079384"><ele>3.0</ele><time>2026-04-25T14:29:21.998Z</time></trkpt><trkpt lat="36.16457190778955" lon="-5.3605370217496455"><ele>3.0</ele><time>2026-04-25T14:29:22.998Z</time></trkpt><trkpt lat="36.16456576078145" lon="-5.360361895145775"><ele>3.0</ele><time>2026-04-25T14:29:23.998Z</time></trkpt><trkpt lat="36.164537295789856" lon="-5.36018798938564"><ele>3.0</ele><time>2026-04-25T14:29:24.998Z</time></trkpt><trkpt lat="36.16445006241829" lon="-5.360037180981832"><ele>3.25</ele><time>2026-04-25T14:29:25.998Z</time></trkpt><trkpt lat="36.16437769279166" lon="-5.35988495735222"><ele>3.5</ele><time>2026-04-25T14:29:26.998Z</time></trkpt><trkpt lat="36.16428100953324" lon="-5.359756377645589"><ele>3.75</ele><time>2026-04-25T14:29:27.998Z</time></trkpt><trkpt lat="36.16418488335335" lon="-5.35962915048967"><ele>4.0</ele><time>2026-04-25T14:29:28.998Z</time></trkpt><trkpt lat="36.16409543769664" lon="-5.359498982938315"><ele>3.25</ele><time>2026-04-25T14:29:29.998Z</time></trkpt><trkpt lat="36.16401058000664" lon="-5.359364389717498"><ele>2.5</ele><time>2026-04-25T14:29:30.998Z</time></trkpt><trkpt lat="36.163928744195374" lon="-5.359231492120551"><ele>1.75</ele><time>2026-04-25T14:29:31.998Z</time></trkpt><trkpt lat="36.16383814175017" lon="-5.359094373731075"><ele>1.0</ele><time>2026-04-25T14:29:32.998Z</time></trkpt><trkpt lat="36.16373980729792" lon="-5.358952953971557"><ele>2.3333333333333335</ele><time>2026-04-25T14:29:33.998Z</time></trkpt><trkpt lat="36.16364078464041" lon="-5.358813652641989"><ele>3.666666666666667</ele><time>2026-04-25T14:29:34.998Z</time></trkpt><trkpt lat="36.16353840509003" lon="-5.358670621188703"><ele>5.0</ele><time>2026-04-25T14:29:35.998Z</time></trkpt><trkpt lat="36.16343516620495" lon="-5.358531421078947"><ele>5.0</ele><time>2026-04-25T14:29:36.998Z</time></trkpt><trkpt lat="36.163334228166576" lon="-5.358389209267575"><ele>5.0</ele><time>2026-04-25T14:29:37.998Z</time></trkpt><trkpt lat="36.163236910705216" lon="-5.358245426524373"><ele>5.0</ele><time>2026-04-25T14:29:38.998Z</time></trkpt><trkpt lat="36.16313905146448" lon="-5.358101667375919"><ele>5.25</ele><time>2026-04-25T14:29:39.998Z</time></trkpt><trkpt lat="36.16304804875085" lon="-5.357971869118741"><ele>5.5</ele><time>2026-04-25T14:29:41Z</time></trkpt><trkpt lat="36.16296202271583" lon="-5.357852907744854"><ele>5.75</ele><time>2026-04-25T14:29:42Z</time></trkpt><trkpt lat="36.16288004412582" lon="-5.357742846840013"><ele>6.0</ele><time>2026-04-25T14:29:43Z</time></trkpt><trkpt lat="36.162794163536795" lon="-5.357634723085586"><ele>6.0</ele><time>2026-04-25T14:29:44Z</time></trkpt><trkpt lat="36.16270028118462" lon="-5.3575348568417995"><ele>6.0</ele><time>2026-04-25T14:29:45Z</time></trkpt><trkpt lat="36.16258982357037" lon="-5.357455229061174"><ele>6.0</ele><time>2026-04-25T14:29:46Z</time></trkpt><trkpt lat="36.162482425547246" lon="-5.357402174317703"><ele>6.0</ele><time>2026-04-25T14:29:47Z</time></trkpt><trkpt lat="36.16238904845145" lon="-5.357346616138104"><ele>5.6</ele><time>2026-04-25T14:29:48Z</time></trkpt><trkpt lat="36.16231105315778" lon="-5.357282100106531"><ele>5.199999999999999</ele><time>2026-04-25T14:29:49Z</time></trkpt><trkpt lat="36.16224487304473" lon="-5.357196649891249"><ele>4.800000000000001</ele><time>2026-04-25T14:29:50Z</time></trkpt><trkpt lat="36.162191695899985" lon="-5.357098182800772"><ele>4.4</ele><time>2026-04-25T14:29:51Z</time></trkpt><trkpt lat="36.162140540969276" lon="-5.3569898551751125"><ele>4.0</ele><time>2026-04-25T14:29:52Z</time></trkpt><trkpt lat="36.1620894698379" lon="-5.3568813548069985"><ele>3.8000000000000003</ele><time>2026-04-25T14:29:53Z</time></trkpt><trkpt lat="36.1620215604923" lon="-5.356769655426617"><ele>3.6000000000000005</ele><time>2026-04-25T14:29:54Z</time></trkpt><trkpt lat="36.1619376291171" lon="-5.356668950191638"><ele>3.4</ele><time>2026-04-25T14:29:55Z</time></trkpt><trkpt lat="36.16185250350118" lon="-5.356583077533178"><ele>3.2</ele><time>2026-04-25T14:29:56Z</time></trkpt><trkpt lat="36.161776098915844" lon="-5.356491832915022"><ele>3.0</ele><time>2026-04-25T14:29:57Z</time></trkpt><trkpt lat="36.16170046808947" lon="-5.3564070144792115"><ele>2.8</ele><time>2026-04-25T14:29:58Z</time></trkpt><trkpt lat="36.16162294096355" lon="-5.356329501376422"><ele>2.5999999999999996</ele><time>2026-04-25T14:29:59Z</time></trkpt><trkpt lat="36.1615479751179" lon="-5.356247614121378"><ele>2.4000000000000004</ele><time>2026-04-25T14:30:00Z</time></trkpt><trkpt lat="36.1614707957784" lon="-5.356165917649887"><ele>2.2</ele><time>2026-04-25T14:30:00.999Z</time></trkpt><trkpt lat="36.16138902999239" lon="-5.356077356412539"><ele>2.0</ele><time>2026-04-25T14:30:01.999Z</time></trkpt><trkpt lat="36.16129890897834" lon="-5.3559908502539475"><ele>2.0</ele><time>2026-04-25T14:30:02.999Z</time></trkpt><trkpt lat="36.161209763340864" lon="-5.3559028353061535"><ele>2.0</ele><time>2026-04-25T14:30:03.999Z</time></trkpt><trkpt lat="36.161121301044766" lon="-5.3558135244140574"><ele>2.0</ele><time>2026-04-25T14:30:04.999Z</time></trkpt><trkpt lat="36.16102941446394" lon="-5.355730110755661"><ele>2.0</ele><time>2026-04-25T14:30:05.999Z</time></trkpt><trkpt lat="36.16093671976433" lon="-5.355640658941582"><ele>2.0</ele><time>2026-04-25T14:30:06.999Z</time></trkpt><trkpt lat="36.16084523795989" lon="-5.3555527149694555"><ele>2.0</ele><time>2026-04-25T14:30:07.999Z</time></trkpt><trkpt lat="36.160749656202604" lon="-5.35546791507486"><ele>2.0</ele><time>2026-04-25T14:30:08.999Z</time></trkpt><trkpt lat="36.16065461697477" lon="-5.355383604220246"><ele>2.0</ele><time>2026-04-25T14:30:09.999Z</time></trkpt><trkpt lat="36.16056229944058" lon="-5.35529611425992"><ele>2.0</ele><time>2026-04-25T14:30:10.999Z</time></trkpt><trkpt lat="36.160465643974234" lon="-5.355211567307527"><ele>2.0</ele><time>2026-04-25T14:30:11.999Z</time></trkpt><trkpt lat="36.160370023593934" lon="-5.355133588834712"><ele>2.0</ele><time>2026-04-25T14:30:12.999Z</time></trkpt><trkpt lat="36.16027501262821" lon="-5.355048866503484"><ele>2.0</ele><time>2026-04-25T14:30:13.999Z</time></trkpt><trkpt lat="36.16018549589707" lon="-5.354965812576216"><ele>2.0</ele><time>2026-04-25T14:30:14.999Z</time></trkpt><trkpt lat="36.16008403772255" lon="-5.354872339950506"><ele>2.0</ele><time>2026-04-25T14:30:15.999Z</time></trkpt><trkpt lat="36.15997938108827" lon="-5.354772105854501"><ele>2.0</ele><time>2026-04-25T14:30:16.999Z</time></trkpt><trkpt lat="36.15987244194703" lon="-5.35467364110656"><ele>2.0</ele><time>2026-04-25T14:30:17.999Z</time></trkpt><trkpt lat="36.15977855513853" lon="-5.354575760779074"><ele>2.2</ele><time>2026-04-25T14:30:18.999Z</time></trkpt><trkpt lat="36.159688288198716" lon="-5.354492969382544"><ele>2.4000000000000004</ele><time>2026-04-25T14:30:19.999Z</time></trkpt><trkpt lat="36.15960933635701" lon="-5.354409686055933"><ele>2.5999999999999996</ele><time>2026-04-25T14:30:20.999Z</time></trkpt><trkpt lat="36.15953427504469" lon="-5.354341315710503"><ele>2.8</ele><time>2026-04-25T14:30:21.999Z</time></trkpt><trkpt lat="36.159461229318595" lon="-5.354277262166017"><ele>3.0</ele><time>2026-04-25T14:30:22.999Z</time></trkpt><trkpt lat="36.15939016665767" lon="-5.35421396227641"><ele>3.0</ele><time>2026-04-25T14:30:23.999Z</time></trkpt><trkpt lat="36.15931923830613" lon="-5.354147724625559"><ele>3.0</ele><time>2026-04-25T14:30:24.999Z</time></trkpt><trkpt lat="36.15924698290932" lon="-5.354083965239361"><ele>3.0</ele><time>2026-04-25T14:30:25.999Z</time></trkpt><trkpt lat="36.159188092983825" lon="-5.35403413094563"><ele>3.0</ele><time>2026-04-25T14:30:26.999Z</time></trkpt><trkpt lat="36.15913190495095" lon="-5.353984917161122"><ele>3.0</ele><time>2026-04-25T14:30:27.999Z</time></trkpt><trkpt lat="36.15906898708512" lon="-5.353941648225734"><ele>3.0</ele><time>2026-04-25T14:30:28.999Z</time></trkpt><trkpt lat="36.15900903932304" lon="-5.353875895130252"><ele>3.8</ele><time>2026-04-25T14:30:29.999Z</time></trkpt><trkpt lat="36.15894761137482" lon="-5.35382473800833"><ele>4.6</ele><time>2026-04-25T14:30:30.999Z</time></trkpt><trkpt lat="36.158860244391974" lon="-5.3537469951873105"><ele>5.3999999999999995</ele><time>2026-04-25T14:30:32.999Z</time></trkpt><trkpt lat="36.158765156750675" lon="-5.353678782775209"><ele>6.199999999999999</ele><time>2026-04-25T14:30:34.999Z</time></trkpt><trkpt lat="36.158706678379055" lon="-5.353648991033979"><ele>7.0</ele><time>2026-04-25T14:30:35.999Z</time></trkpt><trkpt lat="36.15859103844594" lon="-5.353633221878078"><ele>7.0</ele><time>2026-04-25T14:30:37.999Z</time></trkpt><trkpt lat="36.158470059861536" lon="-5.353616389227745"><ele>6.999999999999999</ele><time>2026-04-25T14:30:39.999Z</time></trkpt><trkpt lat="36.15839258435148" lon="-5.353506045991318"><ele>6.999999999999999</ele><time>2026-04-25T14:30:41.999Z</time></trkpt><trkpt lat="36.158309796052464" lon="-5.3533818107032545"><ele>7.0</ele><time>2026-04-25T14:30:43.999Z</time></trkpt><trkpt lat="36.15826000264911" lon="-5.353329166716178"><ele>7.0</ele><time>2026-04-25T14:30:44.999Z</time></trkpt><trkpt lat="36.15820845346522" lon="-5.353284147606463"><ele>6.0</ele><time>2026-04-25T14:30:45.999Z</time></trkpt><trkpt lat="36.15811394029715" lon="-5.353215776910346"><ele>4.999999999999999</ele><time>2026-04-25T14:30:47.999Z</time></trkpt><trkpt lat="36.15804833286433" lon="-5.3531899772694675"><ele>4.0</ele><time>2026-04-25T14:30:48.999Z</time></trkpt><trkpt lat="36.157929754217996" lon="-5.353135602371843"><ele>3.0</ele><time>2026-04-25T14:30:50.999Z</time></trkpt><trkpt lat="36.157870364038736" lon="-5.353105922060208"><ele>2.0</ele><time>2026-04-25T14:30:51.999Z</time></trkpt><trkpt lat="36.15776201113943" lon="-5.353052507617286"><ele>2.333333333333333</ele><time>2026-04-25T14:30:53.999Z</time></trkpt><trkpt lat="36.15766147894937" lon="-5.3529978173820805"><ele>2.6666666666666665</ele><time>2026-04-25T14:30:55.999Z</time></trkpt><trkpt lat="36.157579188918994" lon="-5.352946449985296"><ele>3.0</ele><time>2026-04-25T14:30:57.999Z</time></trkpt><trkpt lat="36.15749699443583" lon="-5.352910845759076"><ele>3.333333333333333</ele><time>2026-04-25T14:30:59.999Z</time></trkpt><trkpt lat="36.15743399691062" lon="-5.3528722580957115"><ele>3.6666666666666665</ele><time>2026-04-25T14:31:01.999Z</time></trkpt><trkpt lat="36.15735794203571" lon="-5.352830501320493"><ele>4.0</ele><time>2026-04-25T14:31:03.999Z</time></trkpt><trkpt lat="36.157292975171515" lon="-5.352787251026786"><ele>4.0</ele><time>2026-04-25T14:31:05.999Z</time></trkpt><trkpt lat="36.15722513070614" lon="-5.352741786900433"><ele>3.9999999999999996</ele><time>2026-04-25T14:31:07.998Z</time></trkpt><trkpt lat="36.157162779937764" lon="-5.352699104754488"><ele>4.0</ele><time>2026-04-25T14:31:09.998Z</time></trkpt><trkpt lat="36.1571065784638" lon="-5.352660130232174"><ele>4.0</ele><time>2026-04-25T14:31:18.998Z</time></trkpt><trkpt lat="36.157051758555454" lon="-5.352611304486656"><ele>3.9999999999999996</ele><time>2026-04-25T14:31:20.998Z</time></trkpt><trkpt lat="36.15699402342748" lon="-5.352562756905711"><ele>4.0</ele><time>2026-04-25T14:31:22.998Z</time></trkpt><trkpt lat="36.15694112651876" lon="-5.352486078520873"><ele>4.0</ele><time>2026-04-25T14:31:40.998Z</time></trkpt><trkpt lat="36.156861537816354" lon="-5.352410847919148"><ele>3.9999999999999996</ele><time>2026-04-25T14:31:42.998Z</time></trkpt><trkpt lat="36.15678563389041" lon="-5.352327166878499"><ele>4.0</ele><time>2026-04-25T14:31:44.998Z</time></trkpt><trkpt lat="36.15673315494389" lon="-5.352282037231213"><ele>4.0</ele><time>2026-04-25T14:31:47.997Z</time></trkpt><trkpt lat="36.156683931036376" lon="-5.352207000318238"><ele>4.0</ele><time>2026-04-25T14:31:51.997Z</time></trkpt><trkpt lat="36.15663624348408" lon="-5.3521175266054435"><ele>3.9999999999999996</ele><time>2026-04-25T14:31:53.997Z</time></trkpt><trkpt lat="36.156590235596596" lon="-5.352054102943826"><ele>4.0</ele><time>2026-04-25T14:31:54.997Z</time></trkpt><trkpt lat="36.15653844414252" lon="-5.3519806685033355"><ele>3.8000000000000003</ele><time>2026-04-25T14:31:55.997Z</time></trkpt><trkpt lat="36.15645215135046" lon="-5.351888904060323"><ele>3.6000000000000005</ele><time>2026-04-25T14:31:57.998Z</time></trkpt><trkpt lat="36.15635281322334" lon="-5.351809211076822"><ele>3.4</ele><time>2026-04-25T14:31:59.998Z</time></trkpt><trkpt lat="36.156282007715674" lon="-5.351762475948289"><ele>3.2</ele><time>2026-04-25T14:32:01.998Z</time></trkpt><trkpt lat="36.15621275107515" lon="-5.351824550688806"><ele>3.0</ele><time>2026-04-25T14:32:03.998Z</time></trkpt><trkpt lat="36.156153459938274" lon="-5.351852808457322"><ele>3.0</ele><time>2026-04-25T14:32:06.998Z</time></trkpt><trkpt lat="36.15605402149164" lon="-5.351887328791541"><ele>3.0</ele><time>2026-04-25T14:32:09.998Z</time></trkpt><trkpt lat="36.15599554435659" lon="-5.351947993109806"><ele>3.0</ele><time>2026-04-25T14:32:12.998Z</time></trkpt><trkpt lat="36.15608106916751" lon="-5.351893188699377"><ele>3.0</ele><time>2026-04-25T14:38:44Z</time></trkpt><trkpt lat="36.156184748223744" lon="-5.351836414037317"><ele>3.0</ele><time>2026-04-25T14:38:46Z</time></trkpt><trkpt lat="36.156277284628175" lon="-5.351807561468616"><ele>3.0</ele><time>2026-04-25T14:38:48Z</time></trkpt><trkpt lat="36.15638237224081" lon="-5.351784829612671"><ele>3.0</ele><time>2026-04-25T14:38:50Z</time></trkpt><trkpt lat="36.15648020892713" lon="-5.351763742924372"><ele>3.0</ele><time>2026-04-25T14:38:52Z</time></trkpt><trkpt lat="36.156286407146574" lon="-5.351633066626207"><ele>3.0</ele><time>2026-04-25T14:38:53Z</time></trkpt><trkpt lat="36.15655534518647" lon="-5.351656974092269"><ele>4.4</ele><time>2026-04-25T14:38:54Z</time></trkpt><trkpt lat="36.15653846596598" lon="-5.3517662901805645"><ele>5.8</ele><time>2026-04-25T14:38:55Z</time></trkpt><trkpt lat="36.156578558071544" lon="-5.351874359548567"><ele>7.2</ele><time>2026-04-25T14:38:56Z</time></trkpt><trkpt lat="36.15663318524387" lon="-5.351973852919197"><ele>8.6</ele><time>2026-04-25T14:38:57Z</time></trkpt><trkpt lat="36.15672133631453" lon="-5.352058605364977"><ele>10.0</ele><time>2026-04-25T14:38:58Z</time></trkpt><trkpt lat="36.15678869462435" lon="-5.352163319563927"><ele>9.0</ele><time>2026-04-25T14:38:59Z</time></trkpt><trkpt lat="36.156863803949115" lon="-5.352257687334282"><ele>8.0</ele><time>2026-04-25T14:39:00Z</time></trkpt><trkpt lat="36.156933123418995" lon="-5.3523364424929785"><ele>7.0</ele><time>2026-04-25T14:39:01Z</time></trkpt><trkpt lat="36.15699149071839" lon="-5.352395506576403"><ele>6.0</ele><time>2026-04-25T14:39:02Z</time></trkpt><trkpt lat="36.157055770371294" lon="-5.352448290541741"><ele>5.0</ele><time>2026-04-25T14:39:03Z</time></trkpt><trkpt lat="36.157126792692466" lon="-5.352509912074821"><ele>4.0</ele><time>2026-04-25T14:39:04Z</time></trkpt><trkpt lat="36.15720808780568" lon="-5.352577226073069"><ele>4.0</ele><time>2026-04-25T14:39:05Z</time></trkpt><trkpt lat="36.1572908663779" lon="-5.352638986949137"><ele>4.0</ele><time>2026-04-25T14:39:06Z</time></trkpt><trkpt lat="36.157376556554624" lon="-5.352695303226198"><ele>4.0</ele><time>2026-04-25T14:39:07Z</time></trkpt><trkpt lat="36.157459335439626" lon="-5.352745920934477"><ele>4.0</ele><time>2026-04-25T14:39:08Z</time></trkpt><trkpt lat="36.157541916674624" lon="-5.352796860905058"><ele>4.0</ele><time>2026-04-25T14:39:09Z</time></trkpt><trkpt lat="36.157623905871176" lon="-5.352843965132606"><ele>3.6666666666666665</ele><time>2026-04-25T14:39:10Z</time></trkpt><trkpt lat="36.15770794036771" lon="-5.352885424683792"><ele>3.333333333333333</ele><time>2026-04-25T14:39:11Z</time></trkpt><trkpt lat="36.157788421885634" lon="-5.352925351717783"><ele>3.0</ele><time>2026-04-25T14:39:12Z</time></trkpt><trkpt lat="36.157861782512086" lon="-5.352964311283858"><ele>2.6666666666666665</ele><time>2026-04-25T14:39:13Z</time></trkpt><trkpt lat="36.157937105373506" lon="-5.3530019120354435"><ele>2.333333333333333</ele><time>2026-04-25T14:39:14Z</time></trkpt><trkpt lat="36.15799700951828" lon="-5.353034129467621"><ele>2.0</ele><time>2026-04-25T14:39:15Z</time></trkpt><trkpt lat="36.158100588525194" lon="-5.353071161973325"><ele>1.9999999999999998</ele><time>2026-04-25T14:39:17Z</time></trkpt><trkpt lat="36.1581700225009" lon="-5.353116878410965"><ele>2.0</ele><time>2026-04-25T14:39:18Z</time></trkpt><trkpt lat="36.15824175024189" lon="-5.353166631679514"><ele>2.0</ele><time>2026-04-25T14:39:19Z</time></trkpt><trkpt lat="36.15831908727634" lon="-5.353206033194692"><ele>2.0</ele><time>2026-04-25T14:39:20Z</time></trkpt><trkpt lat="36.158393093435166" lon="-5.353236450008084"><ele>1.9999999999999998</ele><time>2026-04-25T14:39:21Z</time></trkpt><trkpt lat="36.15846016528434" lon="-5.353254315272857"><ele>2.0</ele><time>2026-04-25T14:39:22Z</time></trkpt><trkpt lat="36.158573686894286" lon="-5.353253822276935"><ele>2.833333333333333</ele><time>2026-04-25T14:39:24Z</time></trkpt><trkpt lat="36.158674009554076" lon="-5.353294732321252"><ele>3.666666666666667</ele><time>2026-04-25T14:39:26Z</time></trkpt><trkpt lat="36.158762497589095" lon="-5.353408350837468"><ele>4.5</ele><time>2026-04-25T14:39:28Z</time></trkpt><trkpt lat="36.158781890766484" lon="-5.353496123935171"><ele>5.333333333333334</ele><time>2026-04-25T14:39:29Z</time></trkpt><trkpt lat="36.15884400309409" lon="-5.353536153308688"><ele>6.166666666666667</ele><time>2026-04-25T14:39:30Z</time></trkpt><trkpt lat="36.15889622512558" lon="-5.353589308708191"><ele>7.0</ele><time>2026-04-25T14:39:31Z</time></trkpt><trkpt lat="36.15895796852159" lon="-5.353644240099543"><ele>7.000000000000001</ele><time>2026-04-25T14:39:32Z</time></trkpt><trkpt lat="36.159021770910606" lon="-5.353699134486685"><ele>7.0</ele><time>2026-04-25T14:39:33Z</time></trkpt><trkpt lat="36.15908854007133" lon="-5.353756401591447"><ele>7.0</ele><time>2026-04-25T14:39:34Z</time></trkpt><trkpt lat="36.15915705802468" lon="-5.353825628103315"><ele>7.0</ele><time>2026-04-25T14:39:35Z</time></trkpt><trkpt lat="36.15922249062968" lon="-5.353888878789998"><ele>7.000000000000001</ele><time>2026-04-25T14:39:36Z</time></trkpt><trkpt lat="36.159307615833484" lon="-5.3539496124340635"><ele>7.0</ele><time>2026-04-25T14:39:37Z</time></trkpt><trkpt lat="36.15938512381813" lon="-5.354016685619202"><ele>6.199999999999999</ele><time>2026-04-25T14:39:38Z</time></trkpt><trkpt lat="36.15945403490863" lon="-5.3540854754463965"><ele>5.3999999999999995</ele><time>2026-04-25T14:39:39Z</time></trkpt><trkpt lat="36.159529412717546" lon="-5.354162580235315"><ele>4.6</ele><time>2026-04-25T14:39:40Z</time></trkpt><trkpt lat="36.15959906906185" lon="-5.3542296593626535"><ele>3.8</ele><time>2026-04-25T14:39:41Z</time></trkpt><trkpt lat="36.1596753026217" lon="-5.354297774942278"><ele>3.0</ele><time>2026-04-25T14:39:42Z</time></trkpt><trkpt lat="36.15975143868507" lon="-5.3543691516041445"><ele>3.0</ele><time>2026-04-25T14:39:43Z</time></trkpt><trkpt lat="36.15982990935448" lon="-5.354436870764398"><ele>3.0</ele><time>2026-04-25T14:39:44Z</time></trkpt><trkpt lat="36.15991048482043" lon="-5.354510427544617"><ele>3.0</ele><time>2026-04-25T14:39:45Z</time></trkpt><trkpt lat="36.15999362724701" lon="-5.3545840323350085"><ele>3.0</ele><time>2026-04-25T14:39:46Z</time></trkpt><trkpt lat="36.160076598894584" lon="-5.354659408877496"><ele>3.0</ele><time>2026-04-25T14:39:47Z</time></trkpt><trkpt lat="36.160161808343474" lon="-5.354740958935611"><ele>2.8</ele><time>2026-04-25T14:39:48Z</time></trkpt><trkpt lat="36.1602493981343" lon="-5.354839850529759"><ele>2.5999999999999996</ele><time>2026-04-25T14:39:49Z</time></trkpt><trkpt lat="36.160363434706056" lon="-5.354914197478033"><ele>2.4000000000000004</ele><time>2026-04-25T14:39:50Z</time></trkpt><trkpt lat="36.160442537323235" lon="-5.354996128451272"><ele>2.2</ele><time>2026-04-25T14:39:51Z</time></trkpt><trkpt lat="36.1605124890429" lon="-5.355056985980151"><ele>2.0</ele><time>2026-04-25T14:39:52Z</time></trkpt><trkpt lat="36.16057929970174" lon="-5.355137098197427"><ele>2.0</ele><time>2026-04-25T14:39:54Z</time></trkpt><trkpt lat="36.16063500838498" lon="-5.355188794302368"><ele>2.0</ele><time>2026-04-25T14:40:03Z</time></trkpt><trkpt lat="36.1607056173537" lon="-5.355254448893785"><ele>2.0</ele><time>2026-04-25T14:40:18.998Z</time></trkpt><trkpt lat="36.16082142828386" lon="-5.355338051090043"><ele>2.0</ele><time>2026-04-25T14:40:20.998Z</time></trkpt><trkpt lat="36.16092247516903" lon="-5.355431627215554"><ele>2.0</ele><time>2026-04-25T14:40:21.998Z</time></trkpt><trkpt lat="36.16106613572796" lon="-5.355593881841953"><ele>2.0</ele><time>2026-04-25T14:40:22.998Z</time></trkpt><trkpt lat="36.16121847083601" lon="-5.3557455624788615"><ele>2.0</ele><time>2026-04-25T14:40:23.998Z</time></trkpt><trkpt lat="36.16135617015331" lon="-5.355881839476363"><ele>2.0</ele><time>2026-04-25T14:40:24.998Z</time></trkpt><trkpt lat="36.16148073460621" lon="-5.356005694900285"><ele>2.25</ele><time>2026-04-25T14:40:25.999Z</time></trkpt><trkpt lat="36.16159806505771" lon="-5.356123644508863"><ele>2.5</ele><time>2026-04-25T14:40:26.999Z</time></trkpt><trkpt lat="36.16170313897972" lon="-5.356233835042753"><ele>2.75</ele><time>2026-04-25T14:40:27.999Z</time></trkpt><trkpt lat="36.16179898520908" lon="-5.356336700037502"><ele>3.0</ele><time>2026-04-25T14:40:28.999Z</time></trkpt><trkpt lat="36.161896015668745" lon="-5.356420941406736"><ele>3.0</ele><time>2026-04-25T14:40:29.999Z</time></trkpt><trkpt lat="36.1619733373571" lon="-5.356520004642037"><ele>3.0</ele><time>2026-04-25T14:40:30.999Z</time></trkpt><trkpt lat="36.162047796337376" lon="-5.356598502555937"><ele>3.0</ele><time>2026-04-25T14:40:31.999Z</time></trkpt><trkpt lat="36.16210388325241" lon="-5.356688965910264"><ele>3.0</ele><time>2026-04-25T14:40:32.999Z</time></trkpt><trkpt lat="36.162186075746625" lon="-5.356734545472735"><ele>3.0</ele><time>2026-04-25T14:40:33.999Z</time></trkpt><trkpt lat="36.16226261521827" lon="-5.356805280849857"><ele>3.3333333333333335</ele><time>2026-04-25T14:40:34.999Z</time></trkpt><trkpt lat="36.16237521714371" lon="-5.356800206112454"><ele>3.666666666666667</ele><time>2026-04-25T14:40:35.999Z</time></trkpt><trkpt lat="36.16246174342557" lon="-5.356828041866381"><ele>4.0</ele><time>2026-04-25T14:40:36.999Z</time></trkpt><trkpt lat="36.16252855401559" lon="-5.35686772174377"><ele>4.333333333333334</ele><time>2026-04-25T14:40:37.999Z</time></trkpt><trkpt lat="36.162579700499954" lon="-5.356927049213869"><ele>4.666666666666667</ele><time>2026-04-25T14:40:38.999Z</time></trkpt><trkpt lat="36.16262385874987" lon="-5.356998835201039"><ele>5.0</ele><time>2026-04-25T14:40:39.999Z</time></trkpt><trkpt lat="36.162665727093135" lon="-5.357083005948785"><ele>5.0</ele><time>2026-04-25T14:40:40.999Z</time></trkpt><trkpt lat="36.16270270420005" lon="-5.357169437109839"><ele>5.0</ele><time>2026-04-25T14:40:41.999Z</time></trkpt><trkpt lat="36.16271414456008" lon="-5.357274511554671"><ele>5.0</ele><time>2026-04-25T14:40:42.999Z</time></trkpt><trkpt lat="36.16276164422331" lon="-5.357356484386051"><ele>5.0</ele><time>2026-04-25T14:40:43.999Z</time></trkpt><trkpt lat="36.162797081136894" lon="-5.357432309290452"><ele>5.0</ele><time>2026-04-25T14:40:44.999Z</time></trkpt><trkpt lat="36.16283431625303" lon="-5.357499191865581"><ele>5.0</ele><time>2026-04-25T14:40:45.999Z</time></trkpt><trkpt lat="36.16291345350505" lon="-5.357611909796343"><ele>5.0</ele><time>2026-04-25T14:40:47.999Z</time></trkpt><trkpt lat="36.16295182111618" lon="-5.357676172780326"><ele>5.0</ele><time>2026-04-25T14:40:48.999Z</time></trkpt><trkpt lat="36.162990120168395" lon="-5.357746543921036"><ele>5.0</ele><time>2026-04-25T14:40:49.999Z</time></trkpt><trkpt lat="36.16302774126424" lon="-5.3578128832080765"><ele>5.0</ele><time>2026-04-25T14:40:50.999Z</time></trkpt><trkpt lat="36.163111942937725" lon="-5.357923253938668"><ele>5.0</ele><time>2026-04-25T14:40:52.999Z</time></trkpt><trkpt lat="36.16315523011008" lon="-5.357987917416899"><ele>5.0</ele><time>2026-04-25T14:40:53.999Z</time></trkpt><trkpt lat="36.1632048376366" lon="-5.3580577202064585"><ele>5.0</ele><time>2026-04-25T14:40:54.999Z</time></trkpt><trkpt lat="36.163256070279" lon="-5.358132487043725"><ele>5.0</ele><time>2026-04-25T14:40:55.999Z</time></trkpt><trkpt lat="36.16330783593151" lon="-5.358210872539583"><ele>5.0</ele><time>2026-04-25T14:40:56.999Z</time></trkpt><trkpt lat="36.163363092376585" lon="-5.358293091327229"><ele>5.0</ele><time>2026-04-25T14:40:57.999Z</time></trkpt><trkpt lat="36.16342240749375" lon="-5.35837272562986"><ele>5.0</ele><time>2026-04-25T14:40:58.999Z</time></trkpt><trkpt lat="36.16348018573132" lon="-5.358456795406545"><ele>5.0</ele><time>2026-04-25T14:40:59.999Z</time></trkpt><trkpt lat="36.16353903844035" lon="-5.358538215655307"><ele>5.0</ele><time>2026-04-25T14:41:00.999Z</time></trkpt><trkpt lat="36.16359513333626" lon="-5.358621617375658"><ele>5.0</ele><time>2026-04-25T14:41:01.999Z</time></trkpt><trkpt lat="36.163649039086835" lon="-5.358695711897294"><ele>5.0</ele><time>2026-04-25T14:41:02.999Z</time></trkpt><trkpt lat="36.163703083628604" lon="-5.358771111003963"><ele>5.0</ele><time>2026-04-25T14:41:03.999Z</time></trkpt><trkpt lat="36.16375785176828" lon="-5.358848268413516"><ele>5.0</ele><time>2026-04-25T14:41:04.999Z</time></trkpt><trkpt lat="36.163814996833956" lon="-5.358932976469795"><ele>5.0</ele><time>2026-04-25T14:41:05.999Z</time></trkpt><trkpt lat="36.16388127269233" lon="-5.3590285523947525"><ele>4.8</ele><time>2026-04-25T14:41:07Z</time></trkpt><trkpt lat="36.16395043184724" lon="-5.3591255311013395"><ele>4.6</ele><time>2026-04-25T14:41:08Z</time></trkpt><trkpt lat="36.164015914133124" lon="-5.359219974112414"><ele>4.4</ele><time>2026-04-25T14:41:09Z</time></trkpt><trkpt lat="36.16407311319423" lon="-5.359316860711473"><ele>4.2</ele><time>2026-04-25T14:41:10Z</time></trkpt><trkpt lat="36.16413073087023" lon="-5.359401857591836"><ele>4.0</ele><time>2026-04-25T14:41:11Z</time></trkpt><trkpt lat="36.16418611673751" lon="-5.359492612684246"><ele>4.0</ele><time>2026-04-25T14:41:12Z</time></trkpt><trkpt lat="36.16424733334465" lon="-5.359594211600152"><ele>4.0</ele><time>2026-04-25T14:41:13Z</time></trkpt><trkpt lat="36.16430723039947" lon="-5.3596984861180905"><ele>4.0</ele><time>2026-04-25T14:41:14Z</time></trkpt><trkpt lat="36.16436683155945" lon="-5.359793116084959"><ele>4.0</ele><time>2026-04-25T14:41:15Z</time></trkpt><trkpt lat="36.16442847108066" lon="-5.359885021525686"><ele>4.0</ele><time>2026-04-25T14:41:16Z</time></trkpt><trkpt lat="36.16448981651166" lon="-5.359983237216114"><ele>3.9999999999999996</ele><time>2026-04-25T14:41:17Z</time></trkpt><trkpt lat="36.16453401446118" lon="-5.360067674560335"><ele>4.0</ele><time>2026-04-25T14:41:18Z</time></trkpt><trkpt lat="36.16457332015331" lon="-5.360158970619334"><ele>4.0</ele><time>2026-04-25T14:41:19Z</time></trkpt><trkpt lat="36.16462347379167" lon="-5.360214636555519"><ele>4.0</ele><time>2026-04-25T14:41:20Z</time></trkpt><trkpt lat="36.164663824558644" lon="-5.360278378735976"><ele>3.9999999999999996</ele><time>2026-04-25T14:41:21Z</time></trkpt><trkpt lat="36.16474366564995" lon="-5.360390943663912"><ele>4.0</ele><time>2026-04-25T14:41:23Z</time></trkpt><trkpt lat="36.16480672834531" lon="-5.360442424033869"><ele>4.0</ele><time>2026-04-25T14:41:24Z</time></trkpt><trkpt lat="36.16486369844215" lon="-5.36052474665777"><ele>4.0</ele><time>2026-04-25T14:41:26Z</time></trkpt><trkpt lat="36.16491835985697" lon="-5.360571896682619"><ele>4.0</ele><time>2026-04-25T14:41:27Z</time></trkpt><trkpt lat="36.164960025023085" lon="-5.360719270280296"><ele>4.0</ele><time>2026-04-25T14:41:29Z</time></trkpt><trkpt lat="36.16498598513449" lon="-5.360806941792002"><ele>4.0</ele><time>2026-04-25T14:41:30Z</time></trkpt><trkpt lat="36.1650057532881" lon="-5.360921513097353"><ele>4.0</ele><time>2026-04-25T14:41:31Z</time></trkpt><trkpt lat="36.16501749344528" lon="-5.3610379358549265"><ele>4.0</ele><time>2026-04-25T14:41:32Z</time></trkpt><trkpt lat="36.165046878625446" lon="-5.361160558672124"><ele>4.0</ele><time>2026-04-25T14:41:33Z</time></trkpt><trkpt lat="36.165099300311184" lon="-5.36129391513829"><ele>4.0</ele><time>2026-04-25T14:41:34Z</time></trkpt><trkpt lat="36.16517095647042" lon="-5.361424972386459"><ele>4.0</ele><time>2026-04-25T14:41:35Z</time></trkpt><trkpt lat="36.16524931832404" lon="-5.361547440944674"><ele>4.0</ele><time>2026-04-25T14:41:36Z</time></trkpt><trkpt lat="36.165327623245936" lon="-5.361666586144197"><ele>4.0</ele><time>2026-04-25T14:41:37Z</time></trkpt><trkpt lat="36.16540402712555" lon="-5.361790399104249"><ele>4.0</ele><time>2026-04-25T14:41:38Z</time></trkpt><trkpt lat="36.16547703365602" lon="-5.361911994514968"><ele>4.0</ele><time>2026-04-25T14:41:39Z</time></trkpt><trkpt lat="36.165559472720915" lon="-5.362033055461944"><ele>4.0</ele><time>2026-04-25T14:41:40Z</time></trkpt><trkpt lat="36.16564339085792" lon="-5.362164705447368"><ele>4.0</ele><time>2026-04-25T14:41:41Z</time></trkpt><trkpt lat="36.165730235886386" lon="-5.362304663652449"><ele>4.0</ele><time>2026-04-25T14:41:42Z</time></trkpt><trkpt lat="36.1658166456102" lon="-5.362443762614989"><ele>4.0</ele><time>2026-04-25T14:41:43Z</time></trkpt><trkpt lat="36.16590171097287" lon="-5.36258170675346"><ele>3.75</ele><time>2026-04-25T14:41:44Z</time></trkpt><trkpt lat="36.165981969892954" lon="-5.362714592532299"><ele>3.5</ele><time>2026-04-25T14:41:45Z</time></trkpt><trkpt lat="36.16605646444738" lon="-5.362846813684734"><ele>3.25</ele><time>2026-04-25T14:41:46Z</time></trkpt><trkpt lat="36.166129295588505" lon="-5.362983871939928"><ele>3.0</ele><time>2026-04-25T14:41:47Z</time></trkpt><trkpt lat="36.166204800471675" lon="-5.36313078002116"><ele>3.0</ele><time>2026-04-25T14:41:48Z</time></trkpt><trkpt lat="36.16628377685944" lon="-5.363287187236742"><ele>3.0</ele><time>2026-04-25T14:41:49Z</time></trkpt><trkpt lat="36.16635281954652" lon="-5.363436895733131"><ele>3.0</ele><time>2026-04-25T14:41:50Z</time></trkpt><trkpt lat="36.1664104973436" lon="-5.3635566523986915"><ele>3.0</ele><time>2026-04-25T14:41:51Z</time></trkpt><trkpt lat="36.16646508060137" lon="-5.363677081472054"><ele>3.0</ele><time>2026-04-25T14:41:52Z</time></trkpt><trkpt lat="36.16652710632436" lon="-5.363797729912057"><ele>3.0</ele><time>2026-04-25T14:41:53Z</time></trkpt><trkpt lat="36.16658572578101" lon="-5.363924988552064"><ele>3.0</ele><time>2026-04-25T14:41:54Z</time></trkpt><trkpt lat="36.166638325848886" lon="-5.364032370510865"><ele>3.0</ele><time>2026-04-25T14:41:55Z</time></trkpt><trkpt lat="36.16668339653203" lon="-5.364103879686311"><ele>3.0</ele><time>2026-04-25T14:41:56Z</time></trkpt><trkpt lat="36.16672283533449" lon="-5.364177341946517"><ele>3.0</ele><time>2026-04-25T14:41:57Z</time></trkpt><trkpt lat="36.16677611351058" lon="-5.364234193873421"><ele>3.0</ele><time>2026-04-25T14:41:58Z</time></trkpt><trkpt lat="36.166834429967935" lon="-5.364266214428719"><ele>3.0</ele><time>2026-04-25T14:41:59Z</time></trkpt><trkpt lat="36.16690453996962" lon="-5.364309299117624"><ele>3.0</ele><time>2026-04-25T14:42:00Z</time></trkpt><trkpt lat="36.16700662599497" lon="-5.364369821393536"><ele>3.0</ele><time>2026-04-25T14:42:02Z</time></trkpt><trkpt lat="36.16705501151616" lon="-5.364531606979099"><ele>3.0</ele><time>2026-04-25T14:42:04Z</time></trkpt><trkpt lat="36.167055471013896" lon="-5.3646562581066775"><ele>3.0</ele><time>2026-04-25T14:42:05Z</time></trkpt><trkpt lat="36.16703991409415" lon="-5.36479233209378"><ele>3.0</ele><time>2026-04-25T14:42:06Z</time></trkpt><trkpt lat="36.16704453204782" lon="-5.364880015825155"><ele>3.0</ele><time>2026-04-25T14:42:07Z</time></trkpt><trkpt lat="36.167112562199875" lon="-5.365074512213619"><ele>2.75</ele><time>2026-04-25T14:42:09Z</time></trkpt><trkpt lat="36.16715713150415" lon="-5.365213869815571"><ele>2.5</ele><time>2026-04-25T14:42:10Z</time></trkpt><trkpt lat="36.16721449514121" lon="-5.365361339609769"><ele>2.25</ele><time>2026-04-25T14:42:11Z</time></trkpt><trkpt lat="36.16726763565503" lon="-5.36550034503639"><ele>2.0</ele><time>2026-04-25T14:42:12Z</time></trkpt><trkpt lat="36.16731597670214" lon="-5.365638105224623"><ele>2.25</ele><time>2026-04-25T14:42:13Z</time></trkpt><trkpt lat="36.16736931995349" lon="-5.365779230483508"><ele>2.5</ele><time>2026-04-25T14:42:14Z</time></trkpt><trkpt lat="36.16742143986989" lon="-5.365922686903319"><ele>2.75</ele><time>2026-04-25T14:42:15Z</time></trkpt><trkpt lat="36.16747729755689" lon="-5.366070791044937"><ele>3.0</ele><time>2026-04-25T14:42:16Z</time></trkpt><trkpt lat="36.16753300708799" lon="-5.366223177152699"><ele>3.0</ele><time>2026-04-25T14:42:16.999Z</time></trkpt><trkpt lat="36.167588824357516" lon="-5.366383084837911"><ele>3.0</ele><time>2026-04-25T14:42:17.999Z</time></trkpt><trkpt lat="36.1676575399466" lon="-5.3665645920870935"><ele>3.0</ele><time>2026-04-25T14:42:18.999Z</time></trkpt><trkpt lat="36.167732788263" lon="-5.366766051238745"><ele>3.0</ele><time>2026-04-25T14:42:19.999Z</time></trkpt><trkpt lat="36.167798716418226" lon="-5.366941466946065"><ele>3.0</ele><time>2026-04-25T14:42:20.999Z</time></trkpt><trkpt lat="36.167864477607225" lon="-5.367104781568202"><ele>3.0</ele><time>2026-04-25T14:42:21.999Z</time></trkpt><trkpt lat="36.16791891927012" lon="-5.367258724066782"><ele>3.0</ele><time>2026-04-25T14:42:23Z</time></trkpt><trkpt lat="36.16796749382247" lon="-5.367400084650794"><ele>3.0</ele><time>2026-04-25T14:42:24Z</time></trkpt><trkpt lat="36.16801369181681" lon="-5.36753085260307"><ele>3.0</ele><time>2026-04-25T14:42:25Z</time></trkpt><trkpt lat="36.168051201715585" lon="-5.367647802358567"><ele>3.0</ele><time>2026-04-25T14:42:26Z</time></trkpt><trkpt lat="36.16809193896133" lon="-5.367754872666846"><ele>3.0</ele><time>2026-04-25T14:42:27Z</time></trkpt><trkpt lat="36.16812902041472" lon="-5.367853250640463"><ele>3.0</ele><time>2026-04-25T14:42:28Z</time></trkpt><trkpt lat="36.1681653189607" lon="-5.3679467730957695"><ele>3.5</ele><time>2026-04-25T14:42:29Z</time></trkpt><trkpt lat="36.16819913412126" lon="-5.368040856464697"><ele>4.0</ele><time>2026-04-25T14:42:30Z</time></trkpt><trkpt lat="36.16823396528066" lon="-5.36813253111799"><ele>4.5</ele><time>2026-04-25T14:42:31Z</time></trkpt><trkpt lat="36.168274066648536" lon="-5.368227715375762"><ele>5.0</ele><time>2026-04-25T14:42:32Z</time></trkpt><trkpt lat="36.16831448051145" lon="-5.368314446965772"><ele>5.5</ele><time>2026-04-25T14:42:33Z</time></trkpt><trkpt lat="36.16836744765129" lon="-5.368404986410797"><ele>6.0</ele><time>2026-04-25T14:42:34Z</time></trkpt><trkpt lat="36.16841791014211" lon="-5.368489784031126"><ele>6.0</ele><time>2026-04-25T14:42:35Z</time></trkpt><trkpt lat="36.16845046971538" lon="-5.3685831047590264"><ele>6.0</ele><time>2026-04-25T14:42:36Z</time></trkpt><trkpt lat="36.16846610675406" lon="-5.3687010085319695"><ele>6.0</ele><time>2026-04-25T14:42:37Z</time></trkpt><trkpt lat="36.16849510561042" lon="-5.368833722354116"><ele>6.0</ele><time>2026-04-25T14:42:38Z</time></trkpt><trkpt lat="36.16854151670614" lon="-5.3689648104503105"><ele>6.0</ele><time>2026-04-25T14:42:39Z</time></trkpt><trkpt lat="36.16859495959229" lon="-5.369090979230949"><ele>5.75</ele><time>2026-04-25T14:42:40Z</time></trkpt><trkpt lat="36.16864761252595" lon="-5.369220416310163"><ele>5.5</ele><time>2026-04-25T14:42:41Z</time></trkpt><trkpt lat="36.168698774332626" lon="-5.369343465855669"><ele>5.25</ele><time>2026-04-25T14:42:42Z</time></trkpt><trkpt lat="36.168756254402425" lon="-5.369457918701219"><ele>5.0</ele><time>2026-04-25T14:42:43Z</time></trkpt><trkpt lat="36.16882338585366" lon="-5.369573015693002"><ele>5.0</ele><time>2026-04-25T14:42:44Z</time></trkpt><trkpt lat="36.168898740760135" lon="-5.369664491232605"><ele>5.0</ele><time>2026-04-25T14:42:45Z</time></trkpt><trkpt lat="36.16897082322912" lon="-5.369746235116517"><ele>5.0</ele><time>2026-04-25T14:42:46Z</time></trkpt><trkpt lat="36.16904334444767" lon="-5.369821102334263"><ele>5.0</ele><time>2026-04-25T14:42:47Z</time></trkpt><trkpt lat="36.169122927057465" lon="-5.369899466763233"><ele>5.0</ele><time>2026-04-25T14:42:48Z</time></trkpt><trkpt lat="36.169203844393465" lon="-5.369974333136703"><ele>5.8</ele><time>2026-04-25T14:42:49Z</time></trkpt><trkpt lat="36.1692786467944" lon="-5.3700394715318085"><ele>6.6</ele><time>2026-04-25T14:42:50Z</time></trkpt><trkpt lat="36.16935041453542" lon="-5.370099230494824"><ele>7.4</ele><time>2026-04-25T14:42:51Z</time></trkpt><trkpt lat="36.16942514873417" lon="-5.370163757540635"><ele>8.2</ele><time>2026-04-25T14:42:52Z</time></trkpt><trkpt lat="36.169501082888395" lon="-5.370230824946719"><ele>9.0</ele><time>2026-04-25T14:42:53Z</time></trkpt><trkpt lat="36.1695805181459" lon="-5.370301459861673"><ele>9.0</ele><time>2026-04-25T14:42:54Z</time></trkpt><trkpt lat="36.16966959536417" lon="-5.370379984032725"><ele>9.0</ele><time>2026-04-25T14:42:55Z</time></trkpt><trkpt lat="36.16975884112578" lon="-5.370465564063791"><ele>9.0</ele><time>2026-04-25T14:42:56Z</time></trkpt><trkpt lat="36.16985103184124" lon="-5.370553000344376"><ele>9.0</ele><time>2026-04-25T14:42:57Z</time></trkpt><trkpt lat="36.169945283432156" lon="-5.370629498600029"><ele>8.4</ele><time>2026-04-25T14:42:58Z</time></trkpt><trkpt lat="36.17003628688977" lon="-5.37068733188863"><ele>7.800000000000001</ele><time>2026-04-25T14:42:59Z</time></trkpt><trkpt lat="36.17012090997154" lon="-5.370739975223882"><ele>7.199999999999999</ele><time>2026-04-25T14:43:00Z</time></trkpt><trkpt lat="36.17020759180919" lon="-5.370780362500068"><ele>6.6</ele><time>2026-04-25T14:43:01Z</time></trkpt><trkpt lat="36.17028792408838" lon="-5.370809638595519"><ele>6.0</ele><time>2026-04-25T14:43:02Z</time></trkpt><trkpt lat="36.170379467909534" lon="-5.3708434908230185"><ele>6.0</ele><time>2026-04-25T14:43:03Z</time></trkpt><trkpt lat="36.17048478279043" lon="-5.3708790610927215"><ele>6.0</ele><time>2026-04-25T14:43:04Z</time></trkpt><trkpt lat="36.17059923637639" lon="-5.3709147236954475"><ele>6.0</ele><time>2026-04-25T14:43:05Z</time></trkpt><trkpt lat="36.17070086928556" lon="-5.370959224986445"><ele>6.0</ele><time>2026-04-25T14:43:06Z</time></trkpt><trkpt lat="36.17080026821086" lon="-5.371004531776285"><ele>6.0</ele><time>2026-04-25T14:43:07Z</time></trkpt><trkpt lat="36.170905769197574" lon="-5.371047512263951"><ele>5.8</ele><time>2026-04-25T14:43:08Z</time></trkpt><trkpt lat="36.17101848698235" lon="-5.371089903102916"><ele>5.6</ele><time>2026-04-25T14:43:09Z</time></trkpt><trkpt lat="36.17113114908819" lon="-5.3711333348256"><ele>5.4</ele><time>2026-04-25T14:43:10Z</time></trkpt><trkpt lat="36.171234065255625" lon="-5.371177706472954"><ele>5.2</ele><time>2026-04-25T14:43:11Z</time></trkpt><trkpt lat="36.17133015235054" lon="-5.37121941357685"><ele>5.0</ele><time>2026-04-25T14:43:12Z</time></trkpt><trkpt lat="36.17141646680187" lon="-5.3712550378052475"><ele>5.0</ele><time>2026-04-25T14:43:13Z</time></trkpt><trkpt lat="36.17149211244888" lon="-5.37129209078501"><ele>5.0</ele><time>2026-04-25T14:43:14Z</time></trkpt><trkpt lat="36.17156878057325" lon="-5.371327891141177"><ele>5.0</ele><time>2026-04-25T14:43:15Z</time></trkpt><trkpt lat="36.17164836087384" lon="-5.371371127887531"><ele>5.0</ele><time>2026-04-25T14:43:16Z</time></trkpt><trkpt lat="36.171721858621346" lon="-5.371417393002635"><ele>5.0</ele><time>2026-04-25T14:43:17Z</time></trkpt><trkpt lat="36.171789396461804" lon="-5.371455742607734"><ele>5.0</ele><time>2026-04-25T14:43:18Z</time></trkpt><trkpt lat="36.171863473050486" lon="-5.371512192181107"><ele>5.333333333333334</ele><time>2026-04-25T14:43:19Z</time></trkpt><trkpt lat="36.17195986015783" lon="-5.371592154836522"><ele>5.666666666666667</ele><time>2026-04-25T14:43:20Z</time></trkpt><trkpt lat="36.17209363487863" lon="-5.3717008139041384"><ele>6.0</ele><time>2026-04-25T14:43:21Z</time></trkpt><trkpt lat="36.17225900555277" lon="-5.371824530962321"><ele>6.333333333333334</ele><time>2026-04-25T14:43:22Z</time></trkpt><trkpt lat="36.17241622430802" lon="-5.3719612477057215"><ele>6.666666666666667</ele><time>2026-04-25T14:43:23Z</time></trkpt><trkpt lat="36.17254488838498" lon="-5.372069289075235"><ele>7.0</ele><time>2026-04-25T14:43:24Z</time></trkpt><trkpt lat="36.17264699872651" lon="-5.372146526343888"><ele>7.166666666666667</ele><time>2026-04-25T14:43:25Z</time></trkpt><trkpt lat="36.172736102045924" lon="-5.372213935189174"><ele>7.333333333333334</ele><time>2026-04-25T14:43:26Z</time></trkpt><trkpt lat="36.17281156020435" lon="-5.372278084121776"><ele>7.5</ele><time>2026-04-25T14:43:27Z</time></trkpt><trkpt lat="36.17287562598551" lon="-5.372333234111313"><ele>7.666666666666666</ele><time>2026-04-25T14:43:28Z</time></trkpt><trkpt lat="36.172934714945434" lon="-5.372380368000314"><ele>7.833333333333333</ele><time>2026-04-25T14:43:29Z</time></trkpt><trkpt lat="36.1730016493447" lon="-5.372440566424372"><ele>8.0</ele><time>2026-04-25T14:43:30Z</time></trkpt><trkpt lat="36.173076586741274" lon="-5.372511817906317"><ele>8.0</ele><time>2026-04-25T14:43:31Z</time></trkpt><trkpt lat="36.17316290169177" lon="-5.372582474575575"><ele>8.0</ele><time>2026-04-25T14:43:32Z</time></trkpt><trkpt lat="36.17328357206692" lon="-5.372683505231754"><ele>8.0</ele><time>2026-04-25T14:43:33Z</time></trkpt><trkpt lat="36.17341545411922" lon="-5.372799935185044"><ele>8.0</ele><time>2026-04-25T14:43:34Z</time></trkpt><trkpt lat="36.173555388609316" lon="-5.372918401928306"><ele>8.200000000000001</ele><time>2026-04-25T14:43:35Z</time></trkpt><trkpt lat="36.173669383855284" lon="-5.373002524107267"><ele>8.4</ele><time>2026-04-25T14:43:36Z</time></trkpt><trkpt lat="36.173761127197444" lon="-5.3730729579019485"><ele>8.600000000000001</ele><time>2026-04-25T14:43:37Z</time></trkpt><trkpt lat="36.173841433664826" lon="-5.37314390078744"><ele>8.8</ele><time>2026-04-25T14:43:38Z</time></trkpt><trkpt lat="36.17392709916115" lon="-5.373208748592784"><ele>9.0</ele><time>2026-04-25T14:43:39Z</time></trkpt><trkpt lat="36.174010910560064" lon="-5.373275329883066"><ele>9.333333333333334</ele><time>2026-04-25T14:43:40Z</time></trkpt><trkpt lat="36.17409811002655" lon="-5.373344564320024"><ele>9.666666666666666</ele><time>2026-04-25T14:43:41.001Z</time></trkpt><trkpt lat="36.174173543263834" lon="-5.373402408749066"><ele>10.0</ele><time>2026-04-25T14:43:42.001Z</time></trkpt><trkpt lat="36.174252427042305" lon="-5.373459230355454"><ele>10.333333333333332</ele><time>2026-04-25T14:43:44.001Z</time></trkpt><trkpt lat="36.17432983484654" lon="-5.373509761401999"><ele>10.666666666666666</ele><time>2026-04-25T14:43:46.001Z</time></trkpt><trkpt lat="36.17438644721204" lon="-5.373546394470299"><ele>11.0</ele><time>2026-04-25T14:43:47.001Z</time></trkpt><trkpt lat="36.174451116558764" lon="-5.37359101319806"><ele>11.0</ele><time>2026-04-25T14:43:48.001Z</time></trkpt><trkpt lat="36.174526967003516" lon="-5.3736422969337125"><ele>11.0</ele><time>2026-04-25T14:43:49.001Z</time></trkpt><trkpt lat="36.17461074545853" lon="-5.3737011535348955"><ele>11.0</ele><time>2026-04-25T14:43:50.001Z</time></trkpt><trkpt lat="36.17469746615227" lon="-5.373761456309576"><ele>11.0</ele><time>2026-04-25T14:43:51.001Z</time></trkpt><trkpt lat="36.17478266333478" lon="-5.373820125682832"><ele>11.0</ele><time>2026-04-25T14:43:52.001Z</time></trkpt><trkpt lat="36.17486457419618" lon="-5.37387834572873"><ele>11.166666666666666</ele><time>2026-04-25T14:43:53.001Z</time></trkpt><trkpt lat="36.17494542268551" lon="-5.3739320010267395"><ele>11.333333333333332</ele><time>2026-04-25T14:43:54.001Z</time></trkpt><trkpt lat="36.17502655648517" lon="-5.373987410976658"><ele>11.5</ele><time>2026-04-25T14:43:55.001Z</time></trkpt><trkpt lat="36.17509569379865" lon="-5.37403846172884"><ele>11.666666666666666</ele><time>2026-04-25T14:43:56.001Z</time></trkpt><trkpt lat="36.1751566966087" lon="-5.374084272918322"><ele>11.833333333333334</ele><time>2026-04-25T14:43:57.001Z</time></trkpt><trkpt lat="36.1752142369837" lon="-5.374123367889667"><ele>12.0</ele><time>2026-04-25T14:43:58.001Z</time></trkpt><trkpt lat="36.17527426915019" lon="-5.374162531116745"><ele>12.0</ele><time>2026-04-25T14:43:59.001Z</time></trkpt><trkpt lat="36.17539663101587" lon="-5.374244580709746"><ele>12.0</ele><time>2026-04-25T14:44:01.001Z</time></trkpt><trkpt lat="36.175480498948886" lon="-5.374297651663953"><ele>12.0</ele><time>2026-04-25T14:44:02.001Z</time></trkpt><trkpt lat="36.175570767091685" lon="-5.374366123071005"><ele>12.0</ele><time>2026-04-25T14:44:03.001Z</time></trkpt><trkpt lat="36.175664195051176" lon="-5.374453787482615"><ele>12.0</ele><time>2026-04-25T14:44:04.001Z</time></trkpt><trkpt lat="36.17577260001794" lon="-5.374564353684231"><ele>12.0</ele><time>2026-04-25T14:44:05.001Z</time></trkpt><trkpt lat="36.17586602802425" lon="-5.374677402521651"><ele>12.0</ele><time>2026-04-25T14:44:06.001Z</time></trkpt><trkpt lat="36.17594711600739" lon="-5.374773965887058"><ele>12.0</ele><time>2026-04-25T14:44:07.001Z</time></trkpt><trkpt lat="36.17602450076736" lon="-5.374858782153236"><ele>12.2</ele><time>2026-04-25T14:44:08.001Z</time></trkpt><trkpt lat="36.1760940603183" lon="-5.374938963443766"><ele>12.399999999999999</ele><time>2026-04-25T14:44:09.001Z</time></trkpt><trkpt lat="36.176153367117486" lon="-5.375020218543689"><ele>12.600000000000001</ele><time>2026-04-25T14:44:10.001Z</time></trkpt><trkpt lat="36.1762245308297" lon="-5.375107977226413"><ele>12.8</ele><time>2026-04-25T14:44:11.001Z</time></trkpt><trkpt lat="36.17630100158736" lon="-5.375203303975918"><ele>13.0</ele><time>2026-04-25T14:44:12.001Z</time></trkpt><trkpt lat="36.17638471184546" lon="-5.375302395489797"><ele>13.0</ele><time>2026-04-25T14:44:13.001Z</time></trkpt><trkpt lat="36.17647238230243" lon="-5.375410858629062"><ele>13.0</ele><time>2026-04-25T14:44:14.001Z</time></trkpt><trkpt lat="36.17656285459677" lon="-5.37551553486643"><ele>13.0</ele><time>2026-04-25T14:44:15.001Z</time></trkpt><trkpt lat="36.17665272163841" lon="-5.375616230101327"><ele>13.0</ele><time>2026-04-25T14:44:16.001Z</time></trkpt><trkpt lat="36.17673956358312" lon="-5.375719157268021"><ele>13.600000000000001</ele><time>2026-04-25T14:44:17.001Z</time></trkpt><trkpt lat="36.17682470595167" lon="-5.375819743972077"><ele>14.200000000000001</ele><time>2026-04-25T14:44:18.001Z</time></trkpt><trkpt lat="36.17690175157911" lon="-5.375914577328484"><ele>14.8</ele><time>2026-04-25T14:44:19.001Z</time></trkpt><trkpt lat="36.17697325357019" lon="-5.376002728645495"><ele>15.4</ele><time>2026-04-25T14:44:20.001Z</time></trkpt><trkpt lat="36.17705002371072" lon="-5.376082173668827"><ele>16.0</ele><time>2026-04-25T14:44:21.001Z</time></trkpt><trkpt lat="36.177121011382205" lon="-5.376157897196141"><ele>16.0</ele><time>2026-04-25T14:44:22.001Z</time></trkpt><trkpt lat="36.17718080139784" lon="-5.376229910486568"><ele>16.0</ele><time>2026-04-25T14:44:23.001Z</time></trkpt><trkpt lat="36.1772357071926" lon="-5.376294705827667"><ele>16.0</ele><time>2026-04-25T14:44:24.001Z</time></trkpt><trkpt lat="36.17728420793849" lon="-5.376352341179747"><ele>16.0</ele><time>2026-04-25T14:44:25.001Z</time></trkpt><trkpt lat="36.17736616366924" lon="-5.3764592821718935"><ele>16.0</ele><time>2026-04-25T14:44:27.001Z</time></trkpt><trkpt lat="36.17743806750745" lon="-5.376575492868157"><ele>16.166666666666664</ele><time>2026-04-25T14:44:29.001Z</time></trkpt><trkpt lat="36.17747876284799" lon="-5.3766369714599165"><ele>16.333333333333332</ele><time>2026-04-25T14:44:30.001Z</time></trkpt><trkpt lat="36.17751664258138" lon="-5.376703185773362"><ele>16.5</ele><time>2026-04-25T14:44:31.001Z</time></trkpt><trkpt lat="36.17755428307524" lon="-5.376771754082822"><ele>16.666666666666668</ele><time>2026-04-25T14:44:32.001Z</time></trkpt><trkpt lat="36.17759596358076" lon="-5.376847821463309"><ele>16.833333333333336</ele><time>2026-04-25T14:44:33.001Z</time></trkpt><trkpt lat="36.17763696541456" lon="-5.3769247189313125"><ele>17.0</ele><time>2026-04-25T14:44:34.001Z</time></trkpt><trkpt lat="36.177705482778784" lon="-5.3770416189919406"><ele>17.0</ele><time>2026-04-25T14:44:36.001Z</time></trkpt><trkpt lat="36.17776534597096" lon="-5.377157710607075"><ele>17.0</ele><time>2026-04-25T14:44:38.001Z</time></trkpt><trkpt lat="36.17782824548189" lon="-5.3772776401179945"><ele>17.0</ele><time>2026-04-25T14:44:40.001Z</time></trkpt><trkpt lat="36.1778652306643" lon="-5.3773494229365495"><ele>17.0</ele><time>2026-04-25T14:44:41.001Z</time></trkpt><trkpt lat="36.17791572498581" lon="-5.377438183428949"><ele>17.0</ele><time>2026-04-25T14:44:42.001Z</time></trkpt><trkpt lat="36.17796559450549" lon="-5.377518950891763"><ele>16.833333333333336</ele><time>2026-04-25T14:44:43.001Z</time></trkpt><trkpt lat="36.17801811380771" lon="-5.377603117814051"><ele>16.666666666666668</ele><time>2026-04-25T14:44:44.001Z</time></trkpt><trkpt lat="36.17806665336306" lon="-5.377686327776589"><ele>16.5</ele><time>2026-04-25T14:44:45.001Z</time></trkpt><trkpt lat="36.178124904729515" lon="-5.37775677885745"><ele>16.333333333333332</ele><time>2026-04-25T14:44:46.001Z</time></trkpt><trkpt lat="36.178188089570455" lon="-5.37782880921581"><ele>16.166666666666664</ele><time>2026-04-25T14:44:47.001Z</time></trkpt><trkpt lat="36.178263432623964" lon="-5.377882364663968"><ele>16.0</ele><time>2026-04-25T14:44:48.001Z</time></trkpt><trkpt lat="36.17834560167851" lon="-5.377947642545325"><ele>15.8</ele><time>2026-04-25T14:44:49.001Z</time></trkpt><trkpt lat="36.17843043867453" lon="-5.378021418632503"><ele>15.600000000000001</ele><time>2026-04-25T14:44:50.001Z</time></trkpt><trkpt lat="36.17852725663099" lon="-5.378088133702087"><ele>15.4</ele><time>2026-04-25T14:44:51.001Z</time></trkpt><trkpt lat="36.1785721329956" lon="-5.378186106637845"><ele>15.2</ele><time>2026-04-25T14:44:52.001Z</time></trkpt><trkpt lat="36.17865391561632" lon="-5.37827992464845"><ele>15.0</ele><time>2026-04-25T14:44:53.001Z</time></trkpt><trkpt lat="36.17874624177461" lon="-5.378352070521998"><ele>15.0</ele><time>2026-04-25T14:44:54.001Z</time></trkpt><trkpt lat="36.17882099123699" lon="-5.378432864002695"><ele>15.0</ele><time>2026-04-25T14:44:55.001Z</time></trkpt><trkpt lat="36.17889287605257" lon="-5.3785038522385085"><ele>15.0</ele><time>2026-04-25T14:44:56.001Z</time></trkpt><trkpt lat="36.178964081214446" lon="-5.378567348386653"><ele>15.0</ele><time>2026-04-25T14:44:57.001Z</time></trkpt><trkpt lat="36.1790331073625" lon="-5.378639292760871"><ele>15.0</ele><time>2026-04-25T14:44:58.001Z</time></trkpt><trkpt lat="36.17910370032017" lon="-5.378704333191281"><ele>15.0</ele><time>2026-04-25T14:44:59.001Z</time></trkpt><trkpt lat="36.1791796171444" lon="-5.378774573294202"><ele>15.0</ele><time>2026-04-25T14:45:00.001Z</time></trkpt><trkpt lat="36.17925228981912" lon="-5.378848872399786"><ele>15.0</ele><time>2026-04-25T14:45:01.001Z</time></trkpt><trkpt lat="36.17932699441423" lon="-5.378919955200126"><ele>15.0</ele><time>2026-04-25T14:45:02.001Z</time></trkpt><trkpt lat="36.179405398196636" lon="-5.378997188754194"><ele>15.0</ele><time>2026-04-25T14:45:03.001Z</time></trkpt><trkpt lat="36.17948736621035" lon="-5.3790818921485055"><ele>15.0</ele><time>2026-04-25T14:45:04.001Z</time></trkpt><trkpt lat="36.179573704424705" lon="-5.379171760400796"><ele>15.0</ele><time>2026-04-25T14:45:05.001Z</time></trkpt><trkpt lat="36.17966741087215" lon="-5.379257813720663"><ele>15.0</ele><time>2026-04-25T14:45:06.001Z</time></trkpt><trkpt lat="36.17976637109655" lon="-5.379336154256038"><ele>15.0</ele><time>2026-04-25T14:45:07.001Z</time></trkpt><trkpt lat="36.17987051367904" lon="-5.3794225608943815"><ele>14.0</ele><time>2026-04-25T14:45:08.001Z</time></trkpt><trkpt lat="36.179985497766175" lon="-5.379504629660401"><ele>13.0</ele><time>2026-04-25T14:45:09.001Z</time></trkpt><trkpt lat="36.180101212148585" lon="-5.379576364810665"><ele>12.0</ele><time>2026-04-25T14:45:10.001Z</time></trkpt><trkpt lat="36.18022485649598" lon="-5.379645469315779"><ele>11.0</ele><time>2026-04-25T14:45:11.001Z</time></trkpt><trkpt lat="36.180352209790435" lon="-5.379716274119349"><ele>10.333333333333332</ele><time>2026-04-25T14:45:12.001Z</time></trkpt><trkpt lat="36.18048241578387" lon="-5.379788342620029"><ele>9.666666666666666</ele><time>2026-04-25T14:45:13.001Z</time></trkpt><trkpt lat="36.18062517944368" lon="-5.379866434480555"><ele>9.0</ele><time>2026-04-25T14:45:14.001Z</time></trkpt><trkpt lat="36.18076579895436" lon="-5.379943769586599"><ele>8.5</ele><time>2026-04-25T14:45:15.001Z</time></trkpt><trkpt lat="36.18090843452677" lon="-5.380025304079102"><ele>8.0</ele><time>2026-04-25T14:45:16.001Z</time></trkpt><trkpt lat="36.18104565891706" lon="-5.380098337043051"><ele>7.5</ele><time>2026-04-25T14:45:17.001Z</time></trkpt><trkpt lat="36.18116888193386" lon="-5.380172752479233"><ele>7.0</ele><time>2026-04-25T14:45:18.001Z</time></trkpt><trkpt lat="36.181295302122315" lon="-5.3802361646819445"><ele>7.0</ele><time>2026-04-25T14:45:19.001Z</time></trkpt><trkpt lat="36.18141875983682" lon="-5.380304054175729"><ele>7.0</ele><time>2026-04-25T14:45:20.001Z</time></trkpt><trkpt lat="36.18153503336202" lon="-5.380368745578089"><ele>7.0</ele><time>2026-04-25T14:45:21.001Z</time></trkpt><trkpt lat="36.181624802172585" lon="-5.380422643346376"><ele>7.0</ele><time>2026-04-25T14:45:22.001Z</time></trkpt><trkpt lat="36.18171022789139" lon="-5.380469642873939"><ele>6.0</ele><time>2026-04-25T14:45:23.001Z</time></trkpt><trkpt lat="36.1817861521294" lon="-5.380504415812206"><ele>4.999999999999999</ele><time>2026-04-25T14:45:24.001Z</time></trkpt><trkpt lat="36.18190964825027" lon="-5.380534061858313"><ele>4.0</ele><time>2026-04-25T14:45:26.001Z</time></trkpt><trkpt lat="36.18202623468692" lon="-5.380537973255538"><ele>3.0</ele><time>2026-04-25T14:45:28.001Z</time></trkpt><trkpt lat="36.18209702310149" lon="-5.380536549137059"><ele>2.0</ele><time>2026-04-25T14:45:29.001Z</time></trkpt><trkpt lat="36.182170405971824" lon="-5.380531012150182"><ele>1.6</ele><time>2026-04-25T14:45:30.001Z</time></trkpt><trkpt lat="36.18225088852462" lon="-5.380527152723397"><ele>1.2000000000000002</ele><time>2026-04-25T14:45:31.001Z</time></trkpt><trkpt lat="36.18232791767215" lon="-5.380534174135635"><ele>0.8</ele><time>2026-04-25T14:45:32.001Z</time></trkpt><trkpt lat="36.182419050930136" lon="-5.380592319548467"><ele>0.4</ele><time>2026-04-25T14:45:33.001Z</time></trkpt><trkpt lat="36.182501731011946" lon="-5.380655873938965"><ele>0.0</ele><time>2026-04-25T14:45:34.001Z</time></trkpt><trkpt lat="36.182575632586655" lon="-5.3807516774266055"><ele>0.0</ele><time>2026-04-25T14:45:35.001Z</time></trkpt><trkpt lat="36.18260463313422" lon="-5.380874590392155"><ele>0.0</ele><time>2026-04-25T14:45:36.001Z</time></trkpt><trkpt lat="36.18268572039725" lon="-5.380957952029362"><ele>0.0</ele><time>2026-04-25T14:45:37.001Z</time></trkpt><trkpt lat="36.182755589323136" lon="-5.381053841370836"><ele>0.0</ele><time>2026-04-25T14:45:38.001Z</time></trkpt><trkpt lat="36.18285735113543" lon="-5.381129082334091"><ele>0.0</ele><time>2026-04-25T14:45:39.001Z</time></trkpt><trkpt lat="36.18298254294695" lon="-5.381203061249044"><ele>0.0</ele><time>2026-04-25T14:45:40.001Z</time></trkpt><trkpt lat="36.18311641266036" lon="-5.381279391126023"><ele>0.0</ele><time>2026-04-25T14:45:41.001Z</time></trkpt><trkpt lat="36.18326504365006" lon="-5.381361576004112"><ele>0.0</ele><time>2026-04-25T14:45:42.001Z</time></trkpt><trkpt lat="36.18343309562376" lon="-5.381460289235407"><ele>1.3333333333333333</ele><time>2026-04-25T14:45:43.001Z</time></trkpt><trkpt lat="36.18361397085236" lon="-5.3815671278777595"><ele>2.6666666666666665</ele><time>2026-04-25T14:45:44.001Z</time></trkpt><trkpt lat="36.183791990631406" lon="-5.381677117312399"><ele>4.0</ele><time>2026-04-25T14:45:45.001Z</time></trkpt><trkpt lat="36.18394442184257" lon="-5.38177505700712"><ele>5.666666666666666</ele><time>2026-04-25T14:45:46.001Z</time></trkpt><trkpt lat="36.1840971306462" lon="-5.381865775838721"><ele>7.333333333333333</ele><time>2026-04-25T14:45:47.001Z</time></trkpt><trkpt lat="36.18426566610383" lon="-5.381951776980978"><ele>9.0</ele><time>2026-04-25T14:45:48.001Z</time></trkpt><trkpt lat="36.18445211660003" lon="-5.382035770710291"><ele>9.0</ele><time>2026-04-25T14:45:49.001Z</time></trkpt><trkpt lat="36.18460035217363" lon="-5.382169056359627"><ele>9.0</ele><time>2026-04-25T14:45:50.001Z</time></trkpt><trkpt lat="36.18477822720065" lon="-5.382319665518266"><ele>9.0</ele><time>2026-04-25T14:45:51.001Z</time></trkpt><trkpt lat="36.18497024993222" lon="-5.382476730412285"><ele>9.666666666666666</ele><time>2026-04-25T14:45:52.001Z</time></trkpt><trkpt lat="36.185158602015704" lon="-5.382631791725304"><ele>10.333333333333332</ele><time>2026-04-25T14:45:53.001Z</time></trkpt><trkpt lat="36.18532399736679" lon="-5.382780993128569"><ele>11.0</ele><time>2026-04-25T14:45:54.001Z</time></trkpt><trkpt lat="36.18550232856387" lon="-5.3829490841538785"><ele>9.0</ele><time>2026-04-25T14:45:55.001Z</time></trkpt><trkpt lat="36.1856941932306" lon="-5.383118148665096"><ele>7.0</ele><time>2026-04-25T14:45:56.001Z</time></trkpt><trkpt lat="36.185877799720316" lon="-5.383261672546451"><ele>7.0</ele><time>2026-04-25T14:45:57.001Z</time></trkpt><trkpt lat="36.18605504372194" lon="-5.383432406918323"><ele>7.0</ele><time>2026-04-25T14:45:58.001Z</time></trkpt><trkpt lat="36.186243865727064" lon="-5.383600303004594"><ele>7.0</ele><time>2026-04-25T14:45:59.001Z</time></trkpt><trkpt lat="36.186436422529866" lon="-5.383775007275736"><ele>7.0</ele><time>2026-04-25T14:46:00.001Z</time></trkpt><trkpt lat="36.186623731930624" lon="-5.383955515969567"><ele>7.5</ele><time>2026-04-25T14:46:01.001Z</time></trkpt><trkpt lat="36.186816711330295" lon="-5.384125835591953"><ele>8.0</ele><time>2026-04-25T14:46:02.001Z</time></trkpt><trkpt lat="36.18700818904553" lon="-5.384290326012397"><ele>8.0</ele><time>2026-04-25T14:46:03.001Z</time></trkpt><trkpt lat="36.18719649822053" lon="-5.384458492405233"><ele>8.0</ele><time>2026-04-25T14:46:04.001Z</time></trkpt><trkpt lat="36.18738138542522" lon="-5.384622957350014"><ele>7.5</ele><time>2026-04-25T14:46:05.001Z</time></trkpt><trkpt lat="36.18756210267084" lon="-5.3847895670246055"><ele>7.0</ele><time>2026-04-25T14:46:06.001Z</time></trkpt><trkpt lat="36.187745660081255" lon="-5.3849535217407425"><ele>7.0</ele><time>2026-04-25T14:46:07.001Z</time></trkpt><trkpt lat="36.18793081276179" lon="-5.385118845008826"><ele>7.0</ele><time>2026-04-25T14:46:08.001Z</time></trkpt><trkpt lat="36.18811351509951" lon="-5.385281469143579"><ele>7.0</ele><time>2026-04-25T14:46:09.001Z</time></trkpt><trkpt lat="36.18829670102804" lon="-5.385437105896679"><ele>7.0</ele><time>2026-04-25T14:46:10.001Z</time></trkpt><trkpt lat="36.188479024727215" lon="-5.385586675140985"><ele>7.0</ele><time>2026-04-25T14:46:11.001Z</time></trkpt><trkpt lat="36.188668186213334" lon="-5.385707355926979"><ele>7.0</ele><time>2026-04-25T14:46:12.001Z</time></trkpt><trkpt lat="36.188873946066984" lon="-5.385793216878648"><ele>7.0</ele><time>2026-04-25T14:46:13.001Z</time></trkpt><trkpt lat="36.18909108637129" lon="-5.385816785775413"><ele>7.0</ele><time>2026-04-25T14:46:14.001Z</time></trkpt><trkpt lat="36.189308041969575" lon="-5.385818865237778"><ele>7.0</ele><time>2026-04-25T14:46:15.001Z</time></trkpt><trkpt lat="36.18952651769661" lon="-5.3858080670045405"><ele>7.0</ele><time>2026-04-25T14:46:16.001Z</time></trkpt><trkpt lat="36.18972450600459" lon="-5.38578663850134"><ele>7.0</ele><time>2026-04-25T14:46:17.001Z</time></trkpt><trkpt lat="36.18990625846594" lon="-5.385731136798412"><ele>6.333333333333334</ele><time>2026-04-25T14:46:18.001Z</time></trkpt><trkpt lat="36.19008449158966" lon="-5.385666993430749"><ele>5.666666666666667</ele><time>2026-04-25T14:46:19.001Z</time></trkpt><trkpt lat="36.19026208442632" lon="-5.3856005282062664"><ele>5.0</ele><time>2026-04-25T14:46:20.001Z</time></trkpt><trkpt lat="36.19042428451267" lon="-5.385536276407873"><ele>5.666666666666667</ele><time>2026-04-25T14:46:21.001Z</time></trkpt><trkpt lat="36.19057753442896" lon="-5.385477659835041"><ele>6.333333333333334</ele><time>2026-04-25T14:46:22.001Z</time></trkpt><trkpt lat="36.190722216943875" lon="-5.385426060656833"><ele>7.0</ele><time>2026-04-25T14:46:23.001Z</time></trkpt><trkpt lat="36.19085478694629" lon="-5.385370679821884"><ele>7.0</ele><time>2026-04-25T14:46:24.001Z</time></trkpt><trkpt lat="36.190973022627865" lon="-5.385317784752159"><ele>6.999999999999999</ele><time>2026-04-25T14:46:25.001Z</time></trkpt><trkpt lat="36.191077901613106" lon="-5.385266262428059"><ele>6.999999999999999</ele><time>2026-04-25T14:46:26.001Z</time></trkpt><trkpt lat="36.191155029452894" lon="-5.385207205141651"><ele>7.0</ele><time>2026-04-25T14:46:27.001Z</time></trkpt><trkpt lat="36.1912156193353" lon="-5.385128284593127"><ele>7.0</ele><time>2026-04-25T14:46:28.002Z</time></trkpt><trkpt lat="36.19125700683805" lon="-5.385007399046274"><ele>7.0</ele><time>2026-04-25T14:46:29.002Z</time></trkpt><trkpt lat="36.191336653121326" lon="-5.3849375954716905"><ele>6.999999999999999</ele><time>2026-04-25T14:46:30.002Z</time></trkpt><trkpt lat="36.19143568489908" lon="-5.384934245347598"><ele>6.999999999999999</ele><time>2026-04-25T14:46:31.002Z</time></trkpt><trkpt lat="36.19153866763609" lon="-5.384955915096979"><ele>7.0</ele><time>2026-04-25T14:46:32.002Z</time></trkpt><trkpt lat="36.19165004109262" lon="-5.3849993459546734"><ele>7.0</ele><time>2026-04-25T14:46:33.002Z</time></trkpt><trkpt lat="36.191784759612695" lon="-5.3849883478763765"><ele>7.0</ele><time>2026-04-25T14:46:34.002Z</time></trkpt><trkpt lat="36.19194062541472" lon="-5.384912968302615"><ele>7.0</ele><time>2026-04-25T14:46:35.002Z</time></trkpt><trkpt lat="36.192103107532816" lon="-5.384855054156937"><ele>7.0</ele><time>2026-04-25T14:46:36.002Z</time></trkpt><trkpt lat="36.19226496199398" lon="-5.384779057739302"><ele>7.0</ele><time>2026-04-25T14:46:37.002Z</time></trkpt><trkpt lat="36.19241946850732" lon="-5.384721386139933"><ele>7.0</ele><time>2026-04-25T14:46:38.002Z</time></trkpt><trkpt lat="36.192573587739616" lon="-5.3846624590889185"><ele>7.0</ele><time>2026-04-25T14:46:39.002Z</time></trkpt><trkpt lat="36.19272594015352" lon="-5.384600887609552"><ele>7.0</ele><time>2026-04-25T14:46:40.001Z</time></trkpt><trkpt lat="36.19288102765194" lon="-5.3845416271804085"><ele>7.0</ele><time>2026-04-25T14:46:41.001Z</time></trkpt><trkpt lat="36.193043141407614" lon="-5.384477109934967"><ele>7.0</ele><time>2026-04-25T14:46:42.001Z</time></trkpt><trkpt lat="36.1932142180194" lon="-5.384404806141185"><ele>7.0</ele><time>2026-04-25T14:46:43.001Z</time></trkpt><trkpt lat="36.193388654787704" lon="-5.384329349545504"><ele>7.0</ele><time>2026-04-25T14:46:44.001Z</time></trkpt><trkpt lat="36.19357257002119" lon="-5.384253906165415"><ele>7.0</ele><time>2026-04-25T14:46:45.001Z</time></trkpt><trkpt lat="36.19376016817264" lon="-5.384176198725246"><ele>7.0</ele><time>2026-04-25T14:46:46.001Z</time></trkpt><trkpt lat="36.193953250962956" lon="-5.38409291150323"><ele>7.0</ele><time>2026-04-25T14:46:47.001Z</time></trkpt><trkpt lat="36.194142793765394" lon="-5.384007093407959"><ele>7.0</ele><time>2026-04-25T14:46:48.001Z</time></trkpt><trkpt lat="36.19432778426772" lon="-5.383922664359125"><ele>8.0</ele><time>2026-04-25T14:46:49.001Z</time></trkpt><trkpt lat="36.19450943078686" lon="-5.383840320516955"><ele>9.0</ele><time>2026-04-25T14:46:50.001Z</time></trkpt><trkpt lat="36.19469173266235" lon="-5.383758704626833"><ele>10.0</ele><time>2026-04-25T14:46:51.001Z</time></trkpt><trkpt lat="36.19487840212577" lon="-5.383670985983978"><ele>11.333333333333334</ele><time>2026-04-25T14:46:52.001Z</time></trkpt><trkpt lat="36.19507194993302" lon="-5.383583391892406"><ele>12.666666666666668</ele><time>2026-04-25T14:46:53.001Z</time></trkpt><trkpt lat="36.195270584401506" lon="-5.383492363959274"><ele>14.0</ele><time>2026-04-25T14:46:54.001Z</time></trkpt><trkpt lat="36.19547995129876" lon="-5.3833979979796"><ele>14.0</ele><time>2026-04-25T14:46:55.001Z</time></trkpt><trkpt lat="36.19569452599351" lon="-5.383296563032078"><ele>14.0</ele><time>2026-04-25T14:46:56.001Z</time></trkpt><trkpt lat="36.19590145486714" lon="-5.383204358893315"><ele>14.0</ele><time>2026-04-25T14:46:57.001Z</time></trkpt><trkpt lat="36.19610993766528" lon="-5.383111318992957"><ele>14.0</ele><time>2026-04-25T14:46:58.001Z</time></trkpt><trkpt lat="36.19631781546164" lon="-5.383017693392128"><ele>14.0</ele><time>2026-04-25T14:46:59.001Z</time></trkpt><trkpt lat="36.19652696687557" lon="-5.382922627689669"><ele>14.0</ele><time>2026-04-25T14:47:00.001Z</time></trkpt><trkpt lat="36.196739125541306" lon="-5.382826504564436"><ele>14.0</ele><time>2026-04-25T14:47:01.001Z</time></trkpt><trkpt lat="36.196957774479586" lon="-5.382729602696212"><ele>14.0</ele><time>2026-04-25T14:47:02.001Z</time></trkpt><trkpt lat="36.19718609838876" lon="-5.382637671989701"><ele>14.0</ele><time>2026-04-25T14:47:03.001Z</time></trkpt><trkpt lat="36.197426796349134" lon="-5.382560289430777"><ele>15.0</ele><time>2026-04-25T14:47:04.001Z</time></trkpt><trkpt lat="36.19766534570514" lon="-5.382493360588085"><ele>16.0</ele><time>2026-04-25T14:47:05.001Z</time></trkpt><trkpt lat="36.19791225383734" lon="-5.3824592840262495"><ele>16.0</ele><time>2026-04-25T14:47:06.001Z</time></trkpt><trkpt lat="36.19815253671409" lon="-5.382448538563457"><ele>16.0</ele><time>2026-04-25T14:47:07.001Z</time></trkpt><trkpt lat="36.19838860692738" lon="-5.382474000867093"><ele>18.5</ele><time>2026-04-25T14:47:08.001Z</time></trkpt><trkpt lat="36.19861909174446" lon="-5.382522174225784"><ele>21.0</ele><time>2026-04-25T14:47:09.001Z</time></trkpt><trkpt lat="36.19884200706357" lon="-5.382585693680781"><ele>24.5</ele><time>2026-04-25T14:47:10.001Z</time></trkpt><trkpt lat="36.19906990272898" lon="-5.382651024992818"><ele>28.0</ele><time>2026-04-25T14:47:11.001Z</time></trkpt><trkpt lat="36.199297259340604" lon="-5.38271502872041"><ele>28.0</ele><time>2026-04-25T14:47:12.001Z</time></trkpt><trkpt lat="36.19953388267894" lon="-5.382779365982179"><ele>28.0</ele><time>2026-04-25T14:47:13.001Z</time></trkpt><trkpt lat="36.19976984516182" lon="-5.38285160754022"><ele>30.5</ele><time>2026-04-25T14:47:14.001Z</time></trkpt><trkpt lat="36.20001432894319" lon="-5.3829242072690615"><ele>33.0</ele><time>2026-04-25T14:47:15.001Z</time></trkpt><trkpt lat="36.200263491071986" lon="-5.382995761809783"><ele>33.0</ele><time>2026-04-25T14:47:16.001Z</time></trkpt><trkpt lat="36.20051334891847" lon="-5.383067925164498"><ele>33.0</ele><time>2026-04-25T14:47:17.001Z</time></trkpt><trkpt lat="36.20076631866585" lon="-5.383139828921604"><ele>34.5</ele><time>2026-04-25T14:47:18.001Z</time></trkpt><trkpt lat="36.201011362092174" lon="-5.383212712051264"><ele>36.0</ele><time>2026-04-25T14:47:19.001Z</time></trkpt><trkpt lat="36.201247460551535" lon="-5.383281698288212"><ele>36.0</ele><time>2026-04-25T14:47:20.001Z</time></trkpt><trkpt lat="36.201471654824125" lon="-5.383347167128797"><ele>36.0</ele><time>2026-04-25T14:47:21.001Z</time></trkpt><trkpt lat="36.20168985017084" lon="-5.383409487959432"><ele>39.666666666666664</ele><time>2026-04-25T14:47:22.001Z</time></trkpt><trkpt lat="36.20190778235077" lon="-5.383467260542859"><ele>43.33333333333333</ele><time>2026-04-25T14:47:23.001Z</time></trkpt><trkpt lat="36.202123888955654" lon="-5.3835239251018265"><ele>47.0</ele><time>2026-04-25T14:47:24.001Z</time></trkpt><trkpt lat="36.20233975080931" lon="-5.383583980985962"><ele>49.33333333333333</ele><time>2026-04-25T14:47:25.001Z</time></trkpt><trkpt lat="36.20255165446615" lon="-5.383644193542215"><ele>51.666666666666664</ele><time>2026-04-25T14:47:26.001Z</time></trkpt><trkpt lat="36.202752305703726" lon="-5.383700568505248"><ele>54.0</ele><time>2026-04-25T14:47:27.001Z</time></trkpt><trkpt lat="36.20293755640305" lon="-5.3837529194799485"><ele>54.0</ele><time>2026-04-25T14:47:28.001Z</time></trkpt><trkpt lat="36.20310315116655" lon="-5.383799143908347"><ele>54.0</ele><time>2026-04-25T14:47:29.001Z</time></trkpt><trkpt lat="36.203264726302024" lon="-5.383844609874002"><ele>54.0</ele><time>2026-04-25T14:47:30.001Z</time></trkpt><trkpt lat="36.20342574488264" lon="-5.383893763545907"><ele>54.25</ele><time>2026-04-25T14:47:31.001Z</time></trkpt><trkpt lat="36.20358033446019" lon="-5.3839366129475"><ele>54.5</ele><time>2026-04-25T14:47:32.001Z</time></trkpt><trkpt lat="36.20372478609882" lon="-5.3839810998384"><ele>54.75</ele><time>2026-04-25T14:47:33.001Z</time></trkpt><trkpt lat="36.20386118058236" lon="-5.384022985826173"><ele>55.0</ele><time>2026-04-25T14:47:34.001Z</time></trkpt><trkpt lat="36.203984814388264" lon="-5.3840568118507495"><ele>57.5</ele><time>2026-04-25T14:47:35.001Z</time></trkpt><trkpt lat="36.20409937686554" lon="-5.384089552710869"><ele>60.0</ele><time>2026-04-25T14:47:36.001Z</time></trkpt><trkpt lat="36.20420910442599" lon="-5.384129696544182"><ele>62.5</ele><time>2026-04-25T14:47:37.001Z</time></trkpt><trkpt lat="36.20431922970728" lon="-5.384144316920953"><ele>65.0</ele><time>2026-04-25T14:47:38.001Z</time></trkpt><trkpt lat="36.20443196770989" lon="-5.3841787920358035"><ele>65.0</ele><time>2026-04-25T14:47:39.001Z</time></trkpt><trkpt lat="36.204542406151724" lon="-5.384211057785258"><ele>65.0</ele><time>2026-04-25T14:47:40.001Z</time></trkpt><trkpt lat="36.20465245833102" lon="-5.384236539533731"><ele>65.0</ele><time>2026-04-25T14:47:41.001Z</time></trkpt><trkpt lat="36.20475777993121" lon="-5.384261529215259"><ele>65.0</ele><time>2026-04-25T14:47:42.001Z</time></trkpt><trkpt lat="36.20486225352311" lon="-5.384289331453733"><ele>65.0</ele><time>2026-04-25T14:47:43.001Z</time></trkpt><trkpt lat="36.204972072079315" lon="-5.384321212242105"><ele>63.8</ele><time>2026-04-25T14:47:44.001Z</time></trkpt><trkpt lat="36.205081460229145" lon="-5.384350117755639"><ele>62.6</ele><time>2026-04-25T14:47:45.001Z</time></trkpt><trkpt lat="36.20519085239982" lon="-5.38437872574911"><ele>61.400000000000006</ele><time>2026-04-25T14:47:46.001Z</time></trkpt><trkpt lat="36.20529845988842" lon="-5.384389420287226"><ele>60.2</ele><time>2026-04-25T14:47:47.001Z</time></trkpt><trkpt lat="36.20540863248984" lon="-5.384415891013712"><ele>59.0</ele><time>2026-04-25T14:47:48.001Z</time></trkpt><trkpt lat="36.20552657706759" lon="-5.384410597146089"><ele>59.0</ele><time>2026-04-25T14:47:49.001Z</time></trkpt><trkpt lat="36.20564616540088" lon="-5.384402068834819"><ele>59.0</ele><time>2026-04-25T14:47:50.001Z</time></trkpt><trkpt lat="36.20576607171543" lon="-5.384383569892413"><ele>59.0</ele><time>2026-04-25T14:47:51.001Z</time></trkpt><trkpt lat="36.205888186682294" lon="-5.384363035754006"><ele>59.0</ele><time>2026-04-25T14:47:52.001Z</time></trkpt><trkpt lat="36.206011908385534" lon="-5.384339784363148"><ele>59.25</ele><time>2026-04-25T14:47:53.001Z</time></trkpt><trkpt lat="36.20613683720967" lon="-5.384316425501913"><ele>59.5</ele><time>2026-04-25T14:47:54.001Z</time></trkpt><trkpt lat="36.206261839353516" lon="-5.384296688171042"><ele>59.75</ele><time>2026-04-25T14:47:55.001Z</time></trkpt><trkpt lat="36.206386718388934" lon="-5.384291279620358"><ele>60.0</ele><time>2026-04-25T14:47:56.001Z</time></trkpt><trkpt lat="36.206509948467506" lon="-5.384309244505491"><ele>61.25</ele><time>2026-04-25T14:47:57.001Z</time></trkpt><trkpt lat="36.20661768223516" lon="-5.384373704574038"><ele>62.5</ele><time>2026-04-25T14:47:58.001Z</time></trkpt><trkpt lat="36.206714733335915" lon="-5.38445304366163"><ele>63.75</ele><time>2026-04-25T14:47:59.001Z</time></trkpt><trkpt lat="36.206815286390736" lon="-5.38454260384666"><ele>65.0</ele><time>2026-04-25T14:48:00.001Z</time></trkpt><trkpt lat="36.20688766508517" lon="-5.384664440729793"><ele>64.5</ele><time>2026-04-25T14:48:01.001Z</time></trkpt><trkpt lat="36.20694865019558" lon="-5.38480409412893"><ele>64.0</ele><time>2026-04-25T14:48:02.001Z</time></trkpt><trkpt lat="36.20698286473363" lon="-5.3849587065295035"><ele>63.5</ele><time>2026-04-25T14:48:03.001Z</time></trkpt><trkpt lat="36.2070383277538" lon="-5.3850892437169575"><ele>63.0</ele><time>2026-04-25T14:48:04.001Z</time></trkpt><trkpt lat="36.207072059473084" lon="-5.385238454142578"><ele>63.0</ele><time>2026-04-25T14:48:05.001Z</time></trkpt><trkpt lat="36.207111936137814" lon="-5.385391142005846"><ele>63.0</ele><time>2026-04-25T14:48:06.001Z</time></trkpt><trkpt lat="36.20715004855752" lon="-5.385541950348755"><ele>63.0</ele><time>2026-04-25T14:48:07.001Z</time></trkpt><trkpt lat="36.207188474399835" lon="-5.38568540379064"><ele>63.0</ele><time>2026-04-25T14:48:08.001Z</time></trkpt><trkpt lat="36.207228069404586" lon="-5.385817576189814"><ele>62.599999999999994</ele><time>2026-04-25T14:48:09.001Z</time></trkpt><trkpt lat="36.2072661647004" lon="-5.385940883009515"><ele>62.199999999999996</ele><time>2026-04-25T14:48:10.001Z</time></trkpt><trkpt lat="36.20730588568771" lon="-5.38606372160328"><ele>61.8</ele><time>2026-04-25T14:48:11.001Z</time></trkpt><trkpt lat="36.20734539990063" lon="-5.386183791186494"><ele>61.4</ele><time>2026-04-25T14:48:12.001Z</time></trkpt><trkpt lat="36.20738498856122" lon="-5.386308071340925"><ele>61.0</ele><time>2026-04-25T14:48:13.001Z</time></trkpt><trkpt lat="36.207427916247035" lon="-5.386441656837144"><ele>60.75</ele><time>2026-04-25T14:48:14.001Z</time></trkpt><trkpt lat="36.20747300518857" lon="-5.38657451865295"><ele>60.5</ele><time>2026-04-25T14:48:15.001Z</time></trkpt><trkpt lat="36.20752024211078" lon="-5.386705184488428"><ele>60.25</ele><time>2026-04-25T14:48:16.001Z</time></trkpt><trkpt lat="36.20756954740609" lon="-5.386833785611682"><ele>60.0</ele><time>2026-04-25T14:48:17.001Z</time></trkpt><trkpt lat="36.207617833317" lon="-5.386969328080706"><ele>60.0</ele><time>2026-04-25T14:48:18.001Z</time></trkpt><trkpt lat="36.2076711092187" lon="-5.387112151990889"><ele>60.0</ele><time>2026-04-25T14:48:19.001Z</time></trkpt><trkpt lat="36.207723664637626" lon="-5.387258353431837"><ele>60.0</ele><time>2026-04-25T14:48:20.001Z</time></trkpt><trkpt lat="36.20777737198988" lon="-5.387406870234259"><ele>60.0</ele><time>2026-04-25T14:48:21.001Z</time></trkpt><trkpt lat="36.20782879973559" lon="-5.387569644994592"><ele>58.75</ele><time>2026-04-25T14:48:22.001Z</time></trkpt><trkpt lat="36.20786932915729" lon="-5.387737590892278"><ele>57.5</ele><time>2026-04-25T14:48:23.001Z</time></trkpt><trkpt lat="36.20789597130977" lon="-5.387919016980734"><ele>56.25</ele><time>2026-04-25T14:48:24.001Z</time></trkpt><trkpt lat="36.20791636892691" lon="-5.38811007928218"><ele>55.0</ele><time>2026-04-25T14:48:25.001Z</time></trkpt><trkpt lat="36.20791904724971" lon="-5.3882958970626555"><ele>52.666666666666664</ele><time>2026-04-25T14:48:26.001Z</time></trkpt><trkpt lat="36.2079092578176" lon="-5.388488662592956"><ele>50.33333333333333</ele><time>2026-04-25T14:48:27.001Z</time></trkpt><trkpt lat="36.20789407855799" lon="-5.388680235588575"><ele>48.0</ele><time>2026-04-25T14:48:28.001Z</time></trkpt><trkpt lat="36.20787355020102" lon="-5.388874521548392"><ele>46.333333333333336</ele><time>2026-04-25T14:48:29.001Z</time></trkpt><trkpt lat="36.207846983321616" lon="-5.389070499746831"><ele>44.66666666666667</ele><time>2026-04-25T14:48:30.001Z</time></trkpt><trkpt lat="36.20781145988009" lon="-5.389272515941796"><ele>43.0</ele><time>2026-04-25T14:48:31.001Z</time></trkpt><trkpt lat="36.20777903664282" lon="-5.389476353013844"><ele>43.0</ele><time>2026-04-25T14:48:32.001Z</time></trkpt><trkpt lat="36.20774618910826" lon="-5.389688091641879"><ele>43.0</ele><time>2026-04-25T14:48:33.001Z</time></trkpt><trkpt lat="36.20771118233688" lon="-5.389899186187274"><ele>43.0</ele><time>2026-04-25T14:48:34.001Z</time></trkpt><trkpt lat="36.2076731899584" lon="-5.390113329679347"><ele>43.0</ele><time>2026-04-25T14:48:35.001Z</time></trkpt><trkpt lat="36.207638031808216" lon="-5.390324028692457"><ele>43.0</ele><time>2026-04-25T14:48:36.001Z</time></trkpt><trkpt lat="36.20760685087072" lon="-5.390527612331983"><ele>43.0</ele><time>2026-04-25T14:48:37.001Z</time></trkpt><trkpt lat="36.20757637706101" lon="-5.390727084965775"><ele>42.66666666666667</ele><time>2026-04-25T14:48:38.001Z</time></trkpt><trkpt lat="36.20754922401984" lon="-5.390930796984272"><ele>42.333333333333336</ele><time>2026-04-25T14:48:39.001Z</time></trkpt><trkpt lat="36.2075196784969" lon="-5.391143806105045"><ele>42.0</ele><time>2026-04-25T14:48:40.001Z</time></trkpt><trkpt lat="36.207489856773556" lon="-5.391368204040212"><ele>40.666666666666664</ele><time>2026-04-25T14:48:41.001Z</time></trkpt><trkpt lat="36.207454825578814" lon="-5.391604154772602"><ele>39.33333333333333</ele><time>2026-04-25T14:48:42.001Z</time></trkpt><trkpt lat="36.207414165813056" lon="-5.391865692479363"><ele>38.0</ele><time>2026-04-25T14:48:43.001Z</time></trkpt><trkpt lat="36.207375725944104" lon="-5.3921341173438755"><ele>38.33333333333333</ele><time>2026-04-25T14:48:44.001Z</time></trkpt><trkpt lat="36.20733440819822" lon="-5.392396295519094"><ele>38.666666666666664</ele><time>2026-04-25T14:48:45.001Z</time></trkpt><trkpt lat="36.207292177382705" lon="-5.392653273201975"><ele>39.0</ele><time>2026-04-25T14:48:46.001Z</time></trkpt><trkpt lat="36.207257135850384" lon="-5.392899930304427"><ele>34.333333333333336</ele><time>2026-04-25T14:48:47.001Z</time></trkpt><trkpt lat="36.20722389407196" lon="-5.393153201547874"><ele>29.666666666666668</ele><time>2026-04-25T14:48:48.001Z</time></trkpt><trkpt lat="36.20718801686162" lon="-5.393407258597013"><ele>25.0</ele><time>2026-04-25T14:48:49.001Z</time></trkpt><trkpt lat="36.20714811258296" lon="-5.393662990045623"><ele>24.333333333333336</ele><time>2026-04-25T14:48:50.001Z</time></trkpt><trkpt lat="36.20710670373867" lon="-5.393916548606166"><ele>23.666666666666668</ele><time>2026-04-25T14:48:51.001Z</time></trkpt><trkpt lat="36.207068686661806" lon="-5.394168846825159"><ele>23.0</ele><time>2026-04-25T14:48:52.001Z</time></trkpt><trkpt lat="36.20704076846916" lon="-5.394423750125524"><ele>22.333333333333336</ele><time>2026-04-25T14:48:53.001Z</time></trkpt><trkpt lat="36.20703507118639" lon="-5.3946768293819"><ele>21.666666666666668</ele><time>2026-04-25T14:48:54.001Z</time></trkpt><trkpt lat="36.207056962885495" lon="-5.394928167103734"><ele>21.0</ele><time>2026-04-25T14:48:55.001Z</time></trkpt><trkpt lat="36.20709742927852" lon="-5.395182543447246"><ele>21.0</ele><time>2026-04-25T14:48:56.001Z</time></trkpt><trkpt lat="36.2071395089308" lon="-5.3954459794024725"><ele>21.0</ele><time>2026-04-25T14:48:57.001Z</time></trkpt><trkpt lat="36.20716861756016" lon="-5.3957188148909045"><ele>21.0</ele><time>2026-04-25T14:48:58.001Z</time></trkpt><trkpt lat="36.20719755732513" lon="-5.395988197546229"><ele>20.666666666666668</ele><time>2026-04-25T14:48:59.001Z</time></trkpt><trkpt lat="36.20722616870992" lon="-5.39625486214844"><ele>20.333333333333336</ele><time>2026-04-25T14:49:00.001Z</time></trkpt><trkpt lat="36.20725394962502" lon="-5.396527317654395"><ele>20.0</ele><time>2026-04-25T14:49:01.001Z</time></trkpt><trkpt lat="36.20728509401816" lon="-5.396800828745257"><ele>20.0</ele><time>2026-04-25T14:49:02.001Z</time></trkpt><trkpt lat="36.20731672441126" lon="-5.397068990517539"><ele>20.0</ele><time>2026-04-25T14:49:03.001Z</time></trkpt><trkpt lat="36.207347009044895" lon="-5.397330281217068"><ele>20.0</ele><time>2026-04-25T14:49:04.001Z</time></trkpt><trkpt lat="36.20737541136793" lon="-5.397588728744579"><ele>20.0</ele><time>2026-04-25T14:49:05.001Z</time></trkpt><trkpt lat="36.207399753275915" lon="-5.397844244236621"><ele>20.0</ele><time>2026-04-25T14:49:06.001Z</time></trkpt><trkpt lat="36.207420354892626" lon="-5.39810102242051"><ele>20.0</ele><time>2026-04-25T14:49:07.001Z</time></trkpt><trkpt lat="36.2074384774536" lon="-5.3983598359197105"><ele>18.666666666666668</ele><time>2026-04-25T14:49:08.001Z</time></trkpt><trkpt lat="36.20746354454128" lon="-5.398624843304007"><ele>17.333333333333332</ele><time>2026-04-25T14:49:09.001Z</time></trkpt><trkpt lat="36.20748758755281" lon="-5.398891896441835"><ele>16.0</ele><time>2026-04-25T14:49:10.001Z</time></trkpt><trkpt lat="36.2075106156417" lon="-5.399160966353697"><ele>15.0</ele><time>2026-04-25T14:49:11.001Z</time></trkpt><trkpt lat="36.207532646968524" lon="-5.399429174376221"><ele>14.0</ele><time>2026-04-25T14:49:12.001Z</time></trkpt><trkpt lat="36.207556228596005" lon="-5.399697049177654"><ele>13.0</ele><time>2026-04-25T14:49:13.001Z</time></trkpt><trkpt lat="36.20758206609042" lon="-5.399963091082371"><ele>12.666666666666666</ele><time>2026-04-25T14:49:14.001Z</time></trkpt><trkpt lat="36.2076050975947" lon="-5.400233258724836"><ele>12.333333333333332</ele><time>2026-04-25T14:49:15.001Z</time></trkpt><trkpt lat="36.207626689579605" lon="-5.400502280400572"><ele>12.0</ele><time>2026-04-25T14:49:16.001Z</time></trkpt><trkpt lat="36.20764622112505" lon="-5.400769234162488"><ele>12.0</ele><time>2026-04-25T14:49:17.001Z</time></trkpt><trkpt lat="36.20766695575661" lon="-5.401066128059098"><ele>12.0</ele><time>2026-04-25T14:49:18.001Z</time></trkpt><trkpt lat="36.20769007837127" lon="-5.4013339159441385"><ele>11.0</ele><time>2026-04-25T14:49:19.001Z</time></trkpt><trkpt lat="36.20771703482187" lon="-5.40161377646139"><ele>10.0</ele><time>2026-04-25T14:49:20.001Z</time></trkpt><trkpt lat="36.20774312684566" lon="-5.401894233654186"><ele>9.5</ele><time>2026-04-25T14:49:21.001Z</time></trkpt><trkpt lat="36.20776914443859" lon="-5.402173953185611"><ele>9.0</ele><time>2026-04-25T14:49:22.001Z</time></trkpt><trkpt lat="36.20779318040475" lon="-5.402458540181751"><ele>9.0</ele><time>2026-04-25T14:49:23.001Z</time></trkpt><trkpt lat="36.20782030328313" lon="-5.402746492266989"><ele>9.0</ele><time>2026-04-25T14:49:24.001Z</time></trkpt><trkpt lat="36.20784745818862" lon="-5.403040052669311"><ele>8.5</ele><time>2026-04-25T14:49:25.001Z</time></trkpt><trkpt lat="36.20787578300438" lon="-5.403329874382772"><ele>8.0</ele><time>2026-04-25T14:49:26.001Z</time></trkpt><trkpt lat="36.20790349942168" lon="-5.403620852576652"><ele>9.5</ele><time>2026-04-25T14:49:27.001Z</time></trkpt><trkpt lat="36.207926160273516" lon="-5.403903410810083"><ele>11.0</ele><time>2026-04-25T14:49:28.001Z</time></trkpt><trkpt lat="36.20794377179672" lon="-5.4041801439151"><ele>11.0</ele><time>2026-04-25T14:49:29.001Z</time></trkpt><trkpt lat="36.20795536625463" lon="-5.404450250937697"><ele>11.0</ele><time>2026-04-25T14:49:30.001Z</time></trkpt><trkpt lat="36.20795016206785" lon="-5.404713350909691"><ele>11.0</ele><time>2026-04-25T14:49:31.001Z</time></trkpt><trkpt lat="36.20790615270719" lon="-5.404967310957385"><ele>11.333333333333332</ele><time>2026-04-25T14:49:32.001Z</time></trkpt><trkpt lat="36.207845446789136" lon="-5.405219609816772"><ele>11.666666666666666</ele><time>2026-04-25T14:49:33.001Z</time></trkpt><trkpt lat="36.20779008098067" lon="-5.405477205500577"><ele>12.0</ele><time>2026-04-25T14:49:34.001Z</time></trkpt><trkpt lat="36.20774520578166" lon="-5.4057120730703465"><ele>11.0</ele><time>2026-04-25T14:49:35.001Z</time></trkpt><trkpt lat="36.20770886910568" lon="-5.405930522075489"><ele>10.0</ele><time>2026-04-25T14:49:36.001Z</time></trkpt><trkpt lat="36.20767447708789" lon="-5.40613818044636"><ele>9.0</ele><time>2026-04-25T14:49:37.001Z</time></trkpt><trkpt lat="36.20764098343023" lon="-5.406352306709243"><ele>8.666666666666666</ele><time>2026-04-25T14:49:38.001Z</time></trkpt><trkpt lat="36.20760220325536" lon="-5.406573298096938"><ele>8.333333333333332</ele><time>2026-04-25T14:49:39.001Z</time></trkpt><trkpt lat="36.20757092152161" lon="-5.406803384717386"><ele>8.0</ele><time>2026-04-25T14:49:40.001Z</time></trkpt><trkpt lat="36.20752443107814" lon="-5.407030837117119"><ele>8.666666666666666</ele><time>2026-04-25T14:49:41.001Z</time></trkpt><trkpt lat="36.20747944004796" lon="-5.407268259971569"><ele>9.333333333333334</ele><time>2026-04-25T14:49:42.001Z</time></trkpt><trkpt lat="36.20743349323024" lon="-5.407507449035714"><ele>10.0</ele><time>2026-04-25T14:49:43.001Z</time></trkpt><trkpt lat="36.20738915894813" lon="-5.407753696177813"><ele>10.333333333333334</ele><time>2026-04-25T14:49:44.001Z</time></trkpt><trkpt lat="36.20734419253517" lon="-5.408003083679748"><ele>10.666666666666666</ele><time>2026-04-25T14:49:45.001Z</time></trkpt><trkpt lat="36.20730061251514" lon="-5.408259016933966"><ele>11.0</ele><time>2026-04-25T14:49:46Z</time></trkpt><trkpt lat="36.20725377991324" lon="-5.408509025201702"><ele>10.0</ele><time>2026-04-25T14:49:47Z</time></trkpt><trkpt lat="36.207208904439135" lon="-5.408762339934029"><ele>9.0</ele><time>2026-04-25T14:49:48Z</time></trkpt><trkpt lat="36.20716208106938" lon="-5.4090109318079636"><ele>8.0</ele><time>2026-04-25T14:49:49Z</time></trkpt><trkpt lat="36.207118121389826" lon="-5.409256217650454"><ele>8.0</ele><time>2026-04-25T14:49:50Z</time></trkpt><trkpt lat="36.2070774956109" lon="-5.4095003305879805"><ele>8.0</ele><time>2026-04-25T14:49:51Z</time></trkpt><trkpt lat="36.20703223513772" lon="-5.409734875408798"><ele>8.0</ele><time>2026-04-25T14:49:52Z</time></trkpt><trkpt lat="36.206987679809714" lon="-5.409966953631077"><ele>8.0</ele><time>2026-04-25T14:49:53Z</time></trkpt><trkpt lat="36.206947074919476" lon="-5.410197246345598"><ele>8.0</ele><time>2026-04-25T14:49:54Z</time></trkpt><trkpt lat="36.20690025902793" lon="-5.410431587171195"><ele>8.0</ele><time>2026-04-25T14:49:55Z</time></trkpt><trkpt lat="36.20684812559855" lon="-5.410667252717888"><ele>9.0</ele><time>2026-04-25T14:49:56Z</time></trkpt><trkpt lat="36.2067913301651" lon="-5.410906484551613"><ele>10.0</ele><time>2026-04-25T14:49:57Z</time></trkpt><trkpt lat="36.20673019441554" lon="-5.411146486771736"><ele>11.0</ele><time>2026-04-25T14:49:58Z</time></trkpt><trkpt lat="36.206661707982185" lon="-5.41138902181387"><ele>10.666666666666666</ele><time>2026-04-25T14:49:59Z</time></trkpt><trkpt lat="36.206588195939986" lon="-5.411631798552092"><ele>10.333333333333334</ele><time>2026-04-25T14:50:00Z</time></trkpt><trkpt lat="36.20651105040387" lon="-5.411879360210797"><ele>10.0</ele><time>2026-04-25T14:50:01Z</time></trkpt><trkpt lat="36.20642876493695" lon="-5.412126377204769"><ele>10.333333333333334</ele><time>2026-04-25T14:50:02Z</time></trkpt><trkpt lat="36.2063494769554" lon="-5.412377942479579"><ele>10.666666666666666</ele><time>2026-04-25T14:50:03Z</time></trkpt><trkpt lat="36.206264499793136" lon="-5.412632669308366"><ele>11.0</ele><time>2026-04-25T14:50:04Z</time></trkpt><trkpt lat="36.20618040617906" lon="-5.412890630456624"><ele>11.5</ele><time>2026-04-25T14:50:05Z</time></trkpt><trkpt lat="36.20610078297397" lon="-5.4131494445529125"><ele>12.0</ele><time>2026-04-25T14:50:06Z</time></trkpt><trkpt lat="36.206015838007225" lon="-5.413409686496396"><ele>12.0</ele><time>2026-04-25T14:50:07Z</time></trkpt><trkpt lat="36.205926079450556" lon="-5.413668580600491"><ele>12.0</ele><time>2026-04-25T14:50:08Z</time></trkpt><trkpt lat="36.20582713938566" lon="-5.41391524482746"><ele>12.0</ele><time>2026-04-25T14:50:09Z</time></trkpt><trkpt lat="36.20573731549829" lon="-5.414184193043793"><ele>12.0</ele><time>2026-04-25T14:50:10Z</time></trkpt><trkpt lat="36.20564040234327" lon="-5.414441302675671"><ele>11.5</ele><time>2026-04-25T14:50:11Z</time></trkpt><trkpt lat="36.20555181091426" lon="-5.414699119012912"><ele>11.0</ele><time>2026-04-25T14:50:12Z</time></trkpt><trkpt lat="36.20544733630704" lon="-5.414956480720768"><ele>11.0</ele><time>2026-04-25T14:50:13Z</time></trkpt><trkpt lat="36.205351214840206" lon="-5.4151993844896005"><ele>11.0</ele><time>2026-04-25T14:50:14Z</time></trkpt><trkpt lat="36.20525662688301" lon="-5.415439950605209"><ele>11.0</ele><time>2026-04-25T14:50:15Z</time></trkpt><trkpt lat="36.205155726629165" lon="-5.415673844643835"><ele>10.666666666666666</ele><time>2026-04-25T14:50:16Z</time></trkpt><trkpt lat="36.20504841260043" lon="-5.415911257474871"><ele>10.333333333333334</ele><time>2026-04-25T14:50:17Z</time></trkpt><trkpt lat="36.20493042361267" lon="-5.416140975787204"><ele>10.0</ele><time>2026-04-25T14:50:18Z</time></trkpt><trkpt lat="36.20480434114518" lon="-5.416367457245567"><ele>10.0</ele><time>2026-04-25T14:50:19Z</time></trkpt><trkpt lat="36.20467253046323" lon="-5.416599774995951"><ele>10.0</ele><time>2026-04-25T14:50:20Z</time></trkpt><trkpt lat="36.20454235455823" lon="-5.416833741909988"><ele>10.0</ele><time>2026-04-25T14:50:21Z</time></trkpt><trkpt lat="36.20441695643503" lon="-5.41707533583605"><ele>10.0</ele><time>2026-04-25T14:50:22Z</time></trkpt><trkpt lat="36.204295359096825" lon="-5.417320391721968"><ele>11.0</ele><time>2026-04-25T14:50:23Z</time></trkpt><trkpt lat="36.20418279663071" lon="-5.417574310740939"><ele>12.0</ele><time>2026-04-25T14:50:24Z</time></trkpt><trkpt lat="36.2040859522482" lon="-5.41782927473659"><ele>12.0</ele><time>2026-04-25T14:50:25Z</time></trkpt><trkpt lat="36.20400092684952" lon="-5.418089112430616"><ele>12.0</ele><time>2026-04-25T14:50:26Z</time></trkpt><trkpt lat="36.20392903792242" lon="-5.418349269894884"><ele>12.0</ele><time>2026-04-25T14:50:27Z</time></trkpt><trkpt lat="36.20386735936519" lon="-5.41861264953567"><ele>14.333333333333332</ele><time>2026-04-25T14:50:28Z</time></trkpt><trkpt lat="36.203821541105484" lon="-5.418871364190488"><ele>16.666666666666664</ele><time>2026-04-25T14:50:29Z</time></trkpt><trkpt lat="36.203793003463616" lon="-5.419128644851043"><ele>19.0</ele><time>2026-04-25T14:50:30Z</time></trkpt><trkpt lat="36.203778353278175" lon="-5.419382835297381"><ele>19.0</ele><time>2026-04-25T14:50:31Z</time></trkpt><trkpt lat="36.2037687924565" lon="-5.419635713508289"><ele>19.0</ele><time>2026-04-25T14:50:32Z</time></trkpt><trkpt lat="36.20375715077243" lon="-5.41988920962425"><ele>19.0</ele><time>2026-04-25T14:50:33Z</time></trkpt><trkpt lat="36.20373943123435" lon="-5.420144194322443"><ele>16.333333333333332</ele><time>2026-04-25T14:50:34Z</time></trkpt><trkpt lat="36.2037161980781" lon="-5.420402696282705"><ele>13.666666666666666</ele><time>2026-04-25T14:50:35Z</time></trkpt><trkpt lat="36.203687020302965" lon="-5.4206643017377685"><ele>11.0</ele><time>2026-04-25T14:50:36Z</time></trkpt><trkpt lat="36.20365147424246" lon="-5.420933046056093"><ele>10.0</ele><time>2026-04-25T14:50:37Z</time></trkpt><trkpt lat="36.20360358182719" lon="-5.421201963521654"><ele>9.0</ele><time>2026-04-25T14:50:38Z</time></trkpt><trkpt lat="36.203545000280734" lon="-5.421467427929897"><ele>8.0</ele><time>2026-04-25T14:50:39Z</time></trkpt><trkpt lat="36.203477669733005" lon="-5.421723400901844"><ele>8.0</ele><time>2026-04-25T14:50:40.001Z</time></trkpt><trkpt lat="36.203398276636975" lon="-5.421967282429655"><ele>8.0</ele><time>2026-04-25T14:50:41.001Z</time></trkpt><trkpt lat="36.2033048203279" lon="-5.422204029765739"><ele>8.0</ele><time>2026-04-25T14:50:42.001Z</time></trkpt><trkpt lat="36.20319842825226" lon="-5.42243814851577"><ele>8.333333333333332</ele><time>2026-04-25T14:50:43.001Z</time></trkpt><trkpt lat="36.20307923017748" lon="-5.422665541753233"><ele>8.666666666666666</ele><time>2026-04-25T14:50:44.001Z</time></trkpt><trkpt lat="36.202940348367115" lon="-5.422882804317019"><ele>9.0</ele><time>2026-04-25T14:50:45.001Z</time></trkpt><trkpt lat="36.20279475723494" lon="-5.42309627650466"><ele>9.0</ele><time>2026-04-25T14:50:46.001Z</time></trkpt><trkpt lat="36.20264115233601" lon="-5.423310902243601"><ele>9.0</ele><time>2026-04-25T14:50:47.001Z</time></trkpt><trkpt lat="36.20247611486127" lon="-5.423526561021726"><ele>6.5</ele><time>2026-04-25T14:50:48.001Z</time></trkpt><trkpt lat="36.20230449866573" lon="-5.423733763163147"><ele>4.0</ele><time>2026-04-25T14:50:49.001Z</time></trkpt><trkpt lat="36.20213135413614" lon="-5.423926358268476"><ele>3.5</ele><time>2026-04-25T14:50:50.001Z</time></trkpt><trkpt lat="36.201956793420074" lon="-5.424111492379215"><ele>3.0</ele><time>2026-04-25T14:50:51.001Z</time></trkpt><trkpt lat="36.20178438539323" lon="-5.424282898869237"><ele>3.0</ele><time>2026-04-25T14:50:52.001Z</time></trkpt><trkpt lat="36.20160960888867" lon="-5.424479087836519"><ele>3.0</ele><time>2026-04-25T14:50:53.001Z</time></trkpt><trkpt lat="36.20143339964258" lon="-5.424668509740022"><ele>5.5</ele><time>2026-04-25T14:50:54Z</time></trkpt><trkpt lat="36.20125613788611" lon="-5.424855396080764"><ele>8.0</ele><time>2026-04-25T14:50:55Z</time></trkpt><trkpt lat="36.20107639638367" lon="-5.4250452226193335"><ele>8.0</ele><time>2026-04-25T14:50:56Z</time></trkpt><trkpt lat="36.20089495934659" lon="-5.425239892384208"><ele>8.0</ele><time>2026-04-25T14:50:57Z</time></trkpt><trkpt lat="36.200710635720355" lon="-5.425432666917748"><ele>7.0</ele><time>2026-04-25T14:50:58Z</time></trkpt><trkpt lat="36.20052677992293" lon="-5.425626573818247"><ele>6.0</ele><time>2026-04-25T14:50:59Z</time></trkpt><trkpt lat="36.20033681152238" lon="-5.4258226425951355"><ele>6.0</ele><time>2026-04-25T14:51:00Z</time></trkpt><trkpt lat="36.200145222303206" lon="-5.42601882803324"><ele>6.0</ele><time>2026-04-25T14:51:01Z</time></trkpt><trkpt lat="36.1999511947045" lon="-5.426212707814927"><ele>6.0</ele><time>2026-04-25T14:51:02Z</time></trkpt><trkpt lat="36.199764537738695" lon="-5.426400965256777"><ele>6.0</ele><time>2026-04-25T14:51:03Z</time></trkpt><trkpt lat="36.19957617200467" lon="-5.426588730051842"><ele>6.0</ele><time>2026-04-25T14:51:04Z</time></trkpt><trkpt lat="36.199383667092185" lon="-5.426773201380682"><ele>6.0</ele><time>2026-04-25T14:51:05Z</time></trkpt><trkpt lat="36.199188352936" lon="-5.426954979845583"><ele>6.0</ele><time>2026-04-25T14:51:06Z</time></trkpt><trkpt lat="36.19899082239478" lon="-5.427140318477523"><ele>6.0</ele><time>2026-04-25T14:51:07Z</time></trkpt><trkpt lat="36.19878978344522" lon="-5.4273229682362825"><ele>5.5</ele><time>2026-04-25T14:51:08Z</time></trkpt><trkpt lat="36.19859205164708" lon="-5.427494542599709"><ele>5.0</ele><time>2026-04-25T14:51:09Z</time></trkpt><trkpt lat="36.198395165898" lon="-5.427664127371025"><ele>5.0</ele><time>2026-04-25T14:51:10Z</time></trkpt><trkpt lat="36.19819491242872" lon="-5.427833025703827"><ele>5.0</ele><time>2026-04-25T14:51:11Z</time></trkpt><trkpt lat="36.197993518104" lon="-5.428003287577227"><ele>7.0</ele><time>2026-04-25T14:51:12Z</time></trkpt><trkpt lat="36.197785162927524" lon="-5.4281713562053024"><ele>9.0</ele><time>2026-04-25T14:51:13Z</time></trkpt><trkpt lat="36.197569651432" lon="-5.428338778568955"><ele>9.0</ele><time>2026-04-25T14:51:14Z</time></trkpt><trkpt lat="36.19734820238293" lon="-5.4285086070311435"><ele>9.0</ele><time>2026-04-25T14:51:15Z</time></trkpt><trkpt lat="36.19711647144964" lon="-5.428682005458629"><ele>11.0</ele><time>2026-04-25T14:51:16Z</time></trkpt><trkpt lat="36.19688235525627" lon="-5.428859445755981"><ele>13.0</ele><time>2026-04-25T14:51:17Z</time></trkpt><trkpt lat="36.196642648945435" lon="-5.429040074737662"><ele>11.5</ele><time>2026-04-25T14:51:18Z</time></trkpt><trkpt lat="36.19640150888008" lon="-5.429224101499448"><ele>10.0</ele><time>2026-04-25T14:51:19Z</time></trkpt><trkpt lat="36.19615955590361" lon="-5.429408919109612"><ele>10.0</ele><time>2026-04-25T14:51:20Z</time></trkpt><trkpt lat="36.195920109118404" lon="-5.429589067115234"><ele>10.0</ele><time>2026-04-25T14:51:21Z</time></trkpt><trkpt lat="36.19569339387417" lon="-5.429757303769223"><ele>10.0</ele><time>2026-04-25T14:51:22Z</time></trkpt><trkpt lat="36.195472140991185" lon="-5.429923516767493"><ele>10.0</ele><time>2026-04-25T14:51:23Z</time></trkpt><trkpt lat="36.19525251021136" lon="-5.430091818798898"><ele>10.0</ele><time>2026-04-25T14:51:24Z</time></trkpt><trkpt lat="36.19503356636497" lon="-5.430263155671437"><ele>10.0</ele><time>2026-04-25T14:51:25Z</time></trkpt><trkpt lat="36.19481303992173" lon="-5.430427258207092"><ele>9.0</ele><time>2026-04-25T14:51:26Z</time></trkpt><trkpt lat="36.1945925630743" lon="-5.430590814166986"><ele>8.0</ele><time>2026-04-25T14:51:27Z</time></trkpt><trkpt lat="36.19437425270473" lon="-5.430752819023921"><ele>8.0</ele><time>2026-04-25T14:51:28Z</time></trkpt><trkpt lat="36.19415538635503" lon="-5.430916217747003"><ele>8.0</ele><time>2026-04-25T14:51:29Z</time></trkpt><trkpt lat="36.193935331981784" lon="-5.431080886275819"><ele>9.0</ele><time>2026-04-25T14:51:30Z</time></trkpt><trkpt lat="36.19371742174541" lon="-5.431251641006788"><ele>10.0</ele><time>2026-04-25T14:51:31Z</time></trkpt><trkpt lat="36.19350693931104" lon="-5.431418199562111"><ele>10.0</ele><time>2026-04-25T14:51:32Z</time></trkpt><trkpt lat="36.19330670728351" lon="-5.4315793682802775"><ele>10.0</ele><time>2026-04-25T14:51:33Z</time></trkpt><trkpt lat="36.193120079481204" lon="-5.431735536139637"><ele>9.666666666666668</ele><time>2026-04-25T14:51:34Z</time></trkpt><trkpt lat="36.19294652739633" lon="-5.431883512592461"><ele>9.333333333333334</ele><time>2026-04-25T14:51:35Z</time></trkpt><trkpt lat="36.19277705348837" lon="-5.4320274038068215"><ele>9.0</ele><time>2026-04-25T14:51:36Z</time></trkpt><trkpt lat="36.19260244842993" lon="-5.432178809944132"><ele>9.0</ele><time>2026-04-25T14:51:37Z</time></trkpt><trkpt lat="36.19242652757244" lon="-5.432336998411756"><ele>9.0</ele><time>2026-04-25T14:51:38Z</time></trkpt><trkpt lat="36.19224894109446" lon="-5.432496937291942"><ele>9.0</ele><time>2026-04-25T14:51:39Z</time></trkpt><trkpt lat="36.19206925748095" lon="-5.432659436978531"><ele>9.0</ele><time>2026-04-25T14:51:40Z</time></trkpt><trkpt lat="36.191886047302575" lon="-5.432820381160404"><ele>9.0</ele><time>2026-04-25T14:51:41Z</time></trkpt><trkpt lat="36.19170216384252" lon="-5.432982396191778"><ele>9.0</ele><time>2026-04-25T14:51:42Z</time></trkpt><trkpt lat="36.19152454952822" lon="-5.433140033535568"><ele>9.0</ele><time>2026-04-25T14:51:43Z</time></trkpt><trkpt lat="36.1913461909264" lon="-5.4333012714992215"><ele>9.0</ele><time>2026-04-25T14:51:44Z</time></trkpt><trkpt lat="36.19117029517836" lon="-5.4334734372829185"><ele>8.5</ele><time>2026-04-25T14:51:45Z</time></trkpt><trkpt lat="36.190981373157115" lon="-5.433645928668927"><ele>8.0</ele><time>2026-04-25T14:51:46Z</time></trkpt><trkpt lat="36.190787916947514" lon="-5.4338052605973814"><ele>6.5</ele><time>2026-04-25T14:51:47Z</time></trkpt><trkpt lat="36.19059015504666" lon="-5.433977988556483"><ele>5.0</ele><time>2026-04-25T14:51:48Z</time></trkpt><trkpt lat="36.19038912400856" lon="-5.4341570314501455"><ele>5.0</ele><time>2026-04-25T14:51:49Z</time></trkpt><trkpt lat="36.19018323784481" lon="-5.434341440222686"><ele>5.0</ele><time>2026-04-25T14:51:50Z</time></trkpt><trkpt lat="36.189971316574834" lon="-5.434526268339045"><ele>6.0</ele><time>2026-04-25T14:51:51Z</time></trkpt><trkpt lat="36.189758454262034" lon="-5.434714885392077"><ele>7.0</ele><time>2026-04-25T14:51:52Z</time></trkpt><trkpt lat="36.18954610202234" lon="-5.434908415071939"><ele>7.0</ele><time>2026-04-25T14:51:53Z</time></trkpt><trkpt lat="36.18932980740203" lon="-5.435102549230315"><ele>7.0</ele><time>2026-04-25T14:51:54Z</time></trkpt><trkpt lat="36.189113920722605" lon="-5.43529230926441"><ele>8.0</ele><time>2026-04-25T14:51:55Z</time></trkpt><trkpt lat="36.18890349146012" lon="-5.435480626727087"><ele>9.0</ele><time>2026-04-25T14:51:56Z</time></trkpt><trkpt lat="36.188694440463614" lon="-5.435670440840638"><ele>9.0</ele><time>2026-04-25T14:51:57Z</time></trkpt><trkpt lat="36.18848245811314" lon="-5.435857169836395"><ele>9.0</ele><time>2026-04-25T14:51:58Z</time></trkpt><trkpt lat="36.18826894621068" lon="-5.436038875302825"><ele>9.0</ele><time>2026-04-25T14:51:59Z</time></trkpt><trkpt lat="36.18805959380405" lon="-5.436226441533881"><ele>9.0</ele><time>2026-04-25T14:52:00Z</time></trkpt><trkpt lat="36.187856573970606" lon="-5.436419637795386"><ele>9.0</ele><time>2026-04-25T14:52:01Z</time></trkpt><trkpt lat="36.187654641847786" lon="-5.43659916976266"><ele>9.0</ele><time>2026-04-25T14:52:02Z</time></trkpt><trkpt lat="36.18745706663499" lon="-5.43677039813888"><ele>8.0</ele><time>2026-04-25T14:52:03Z</time></trkpt><trkpt lat="36.18726650674409" lon="-5.436942945508119"><ele>7.0</ele><time>2026-04-25T14:52:04Z</time></trkpt><trkpt lat="36.18707753274155" lon="-5.4371114910477685"><ele>8.5</ele><time>2026-04-25T14:52:05Z</time></trkpt><trkpt lat="36.1868855898726" lon="-5.4372773425088115"><ele>10.0</ele><time>2026-04-25T14:52:06Z</time></trkpt><trkpt lat="36.18669233514454" lon="-5.437448171250159"><ele>9.5</ele><time>2026-04-25T14:52:07Z</time></trkpt><trkpt lat="36.18649891099248" lon="-5.437623794285966"><ele>9.0</ele><time>2026-04-25T14:52:08Z</time></trkpt><trkpt lat="36.186304091199474" lon="-5.437788798108412"><ele>9.0</ele><time>2026-04-25T14:52:09Z</time></trkpt><trkpt lat="36.18611134622695" lon="-5.437972308049127"><ele>9.0</ele><time>2026-04-25T14:52:10Z</time></trkpt><trkpt lat="36.1859240204552" lon="-5.438141862425393"><ele>9.0</ele><time>2026-04-25T14:52:11Z</time></trkpt><trkpt lat="36.18573328663095" lon="-5.438306986740145"><ele>9.0</ele><time>2026-04-25T14:52:12Z</time></trkpt><trkpt lat="36.18555109268422" lon="-5.4384687480154215"><ele>8.666666666666666</ele><time>2026-04-25T14:52:13Z</time></trkpt><trkpt lat="36.18537309278478" lon="-5.438631632146061"><ele>8.333333333333332</ele><time>2026-04-25T14:52:14Z</time></trkpt><trkpt lat="36.18519516801442" lon="-5.438783232257054"><ele>8.0</ele><time>2026-04-25T14:52:15Z</time></trkpt><trkpt lat="36.18502010611896" lon="-5.438934312811531"><ele>7.666666666666666</ele><time>2026-04-25T14:52:16Z</time></trkpt><trkpt lat="36.18484433606622" lon="-5.439091578473628"><ele>7.333333333333334</ele><time>2026-04-25T14:52:17Z</time></trkpt><trkpt lat="36.184664543393275" lon="-5.439246810915437"><ele>7.0</ele><time>2026-04-25T14:52:18Z</time></trkpt><trkpt lat="36.18448646514078" lon="-5.439405790479111"><ele>7.0</ele><time>2026-04-25T14:52:19Z</time></trkpt><trkpt lat="36.184301148763694" lon="-5.439564663482747"><ele>7.0</ele><time>2026-04-25T14:52:20Z</time></trkpt><trkpt lat="36.18411452719968" lon="-5.439751285189604"><ele>5.0</ele><time>2026-04-25T14:52:21Z</time></trkpt><trkpt lat="36.18393628776839" lon="-5.439969063064003"><ele>3.0</ele><time>2026-04-25T14:52:22Z</time></trkpt><trkpt lat="36.18377357189094" lon="-5.440218952341254"><ele>4.5</ele><time>2026-04-25T14:52:23Z</time></trkpt><trkpt lat="36.18362130464115" lon="-5.440492780401991"><ele>6.0</ele><time>2026-04-25T14:52:24Z</time></trkpt><trkpt lat="36.183475186185774" lon="-5.440767740619681"><ele>6.0</ele><time>2026-04-25T14:52:25Z</time></trkpt><trkpt lat="36.18332848899147" lon="-5.441025125442229"><ele>6.0</ele><time>2026-04-25T14:52:26Z</time></trkpt><trkpt lat="36.183186048353505" lon="-5.4412682236817025"><ele>5.5</ele><time>2026-04-25T14:52:27Z</time></trkpt><trkpt lat="36.183046349613136" lon="-5.441503316564967"><ele>5.0</ele><time>2026-04-25T14:52:28Z</time></trkpt><trkpt lat="36.18290349035944" lon="-5.441742666967539"><ele>5.0</ele><time>2026-04-25T14:52:29Z</time></trkpt><trkpt lat="36.18275689731336" lon="-5.441983782725813"><ele>5.0</ele><time>2026-04-25T14:52:30Z</time></trkpt><trkpt lat="36.18261238801824" lon="-5.442216952615207"><ele>5.0</ele><time>2026-04-25T14:52:31Z</time></trkpt><trkpt lat="36.182468352154224" lon="-5.442448454482129"><ele>5.0</ele><time>2026-04-25T14:52:32Z</time></trkpt><trkpt lat="36.1823307787269" lon="-5.442671083103675"><ele>5.0</ele><time>2026-04-25T14:52:33Z</time></trkpt><trkpt lat="36.18218983359394" lon="-5.442900315784601"><ele>5.0</ele><time>2026-04-25T14:52:34Z</time></trkpt><trkpt lat="36.182050257156" lon="-5.443128822206728"><ele>5.0</ele><time>2026-04-25T14:52:35Z</time></trkpt><trkpt lat="36.18190905099968" lon="-5.443352390080698"><ele>5.0</ele><time>2026-04-25T14:52:36Z</time></trkpt><trkpt lat="36.18177050623737" lon="-5.443583143083491"><ele>5.0</ele><time>2026-04-25T14:52:37Z</time></trkpt><trkpt lat="36.181629971949725" lon="-5.4438155693411705"><ele>5.0</ele><time>2026-04-25T14:52:38Z</time></trkpt><trkpt lat="36.181486413557835" lon="-5.44405076531727"><ele>5.0</ele><time>2026-04-25T14:52:39Z</time></trkpt><trkpt lat="36.18133955638276" lon="-5.4442845134400235"><ele>5.0</ele><time>2026-04-25T14:52:40Z</time></trkpt><trkpt lat="36.1811922583776" lon="-5.4445217112664865"><ele>5.0</ele><time>2026-04-25T14:52:41Z</time></trkpt><trkpt lat="36.18104779609169" lon="-5.4447625906527195"><ele>5.0</ele><time>2026-04-25T14:52:42Z</time></trkpt><trkpt lat="36.18090166678199" lon="-5.4450001700559705"><ele>5.0</ele><time>2026-04-25T14:52:43Z</time></trkpt><trkpt lat="36.18075441809244" lon="-5.445242695305399"><ele>5.0</ele><time>2026-04-25T14:52:44Z</time></trkpt><trkpt lat="36.180606556346454" lon="-5.445488115818551"><ele>4.5</ele><time>2026-04-25T14:52:45Z</time></trkpt><trkpt lat="36.180462363305324" lon="-5.4457313782202075"><ele>4.0</ele><time>2026-04-25T14:52:46Z</time></trkpt><trkpt lat="36.180315284987486" lon="-5.445971279474773"><ele>4.0</ele><time>2026-04-25T14:52:47Z</time></trkpt><trkpt lat="36.18016900369447" lon="-5.446207645269793"><ele>4.0</ele><time>2026-04-25T14:52:48Z</time></trkpt><trkpt lat="36.18002530855743" lon="-5.446438591597464"><ele>3.5</ele><time>2026-04-25T14:52:49Z</time></trkpt><trkpt lat="36.17988732676565" lon="-5.446664058218656"><ele>3.0</ele><time>2026-04-25T14:52:50Z</time></trkpt><trkpt lat="36.17974870905557" lon="-5.446892995581694"><ele>2.6666666666666665</ele><time>2026-04-25T14:52:51Z</time></trkpt><trkpt lat="36.179616416138536" lon="-5.4471148894533385"><ele>2.333333333333333</ele><time>2026-04-25T14:52:52Z</time></trkpt><trkpt lat="36.179496199023816" lon="-5.447325044796356"><ele>2.0</ele><time>2026-04-25T14:52:53Z</time></trkpt><trkpt lat="36.17938402310153" lon="-5.447519156134937"><ele>2.0</ele><time>2026-04-25T14:52:54Z</time></trkpt><trkpt lat="36.17927745485627" lon="-5.447702202397101"><ele>2.0</ele><time>2026-04-25T14:52:55Z</time></trkpt><trkpt lat="36.17917695467535" lon="-5.447873460145366"><ele>2.0</ele><time>2026-04-25T14:52:56Z</time></trkpt><trkpt lat="36.17908597698841" lon="-5.4480378449192886"><ele>1.6666666666666665</ele><time>2026-04-25T14:52:57Z</time></trkpt><trkpt lat="36.17899351910782" lon="-5.448208424731146"><ele>1.3333333333333333</ele><time>2026-04-25T14:52:58Z</time></trkpt><trkpt lat="36.178897650683936" lon="-5.448394848795074"><ele>1.0</ele><time>2026-04-25T14:52:59Z</time></trkpt><trkpt lat="36.17880388375717" lon="-5.448571791998493"><ele>1.0</ele><time>2026-04-25T14:53:00Z</time></trkpt><trkpt lat="36.178707923188604" lon="-5.4487575236353445"><ele>1.0</ele><time>2026-04-25T14:53:01Z</time></trkpt><trkpt lat="36.1786131520579" lon="-5.4489531719913415"><ele>1.0</ele><time>2026-04-25T14:53:02Z</time></trkpt><trkpt lat="36.178525127269545" lon="-5.449145315541067"><ele>1.0</ele><time>2026-04-25T14:53:03Z</time></trkpt><trkpt lat="36.17842965613763" lon="-5.449320658499504"><ele>1.0</ele><time>2026-04-25T14:53:04Z</time></trkpt><trkpt lat="36.17832672175173" lon="-5.44949274356589"><ele>1.0</ele><time>2026-04-25T14:53:05Z</time></trkpt><trkpt lat="36.17822319024441" lon="-5.449666292259023"><ele>1.0</ele><time>2026-04-25T14:53:06Z</time></trkpt><trkpt lat="36.17811565640962" lon="-5.449845993847533"><ele>1.0</ele><time>2026-04-25T14:53:07Z</time></trkpt><trkpt lat="36.178009130452224" lon="-5.450027715882989"><ele>1.0</ele><time>2026-04-25T14:53:08Z</time></trkpt><trkpt lat="36.17790445950624" lon="-5.450199159488447"><ele>1.0</ele><time>2026-04-25T14:53:09Z</time></trkpt><trkpt lat="36.17781006981872" lon="-5.450356974696037"><ele>1.0</ele><time>2026-04-25T14:53:10Z</time></trkpt><trkpt lat="36.177719906440885" lon="-5.450505772163755"><ele>1.0</ele><time>2026-04-25T14:53:11Z</time></trkpt><trkpt lat="36.177630043579924" lon="-5.450652781646256"><ele>1.5</ele><time>2026-04-25T14:53:12Z</time></trkpt><trkpt lat="36.17754423552283" lon="-5.450795526140481"><ele>2.0</ele><time>2026-04-25T14:53:13Z</time></trkpt><trkpt lat="36.177464692569" lon="-5.4509313156607035"><ele>2.5</ele><time>2026-04-25T14:53:14Z</time></trkpt><trkpt lat="36.177391683615745" lon="-5.451060888889734"><ele>3.0</ele><time>2026-04-25T14:53:15Z</time></trkpt><trkpt lat="36.177323778674406" lon="-5.451183668455593"><ele>3.2</ele><time>2026-04-25T14:53:16Z</time></trkpt><trkpt lat="36.177265770198396" lon="-5.451290352130253"><ele>3.4</ele><time>2026-04-25T14:53:17Z</time></trkpt><trkpt lat="36.17721558918952" lon="-5.451387032148036"><ele>3.6000000000000005</ele><time>2026-04-25T14:53:18Z</time></trkpt><trkpt lat="36.177178243631325" lon="-5.451470469496073"><ele>3.8000000000000003</ele><time>2026-04-25T14:53:19Z</time></trkpt><trkpt lat="36.17714960711706" lon="-5.451600748898285"><ele>4.0</ele><time>2026-04-25T14:53:21Z</time></trkpt><trkpt lat="36.177079792738034" lon="-5.451582479479468"><ele>4.2</ele><time>2026-04-25T14:53:22Z</time></trkpt><trkpt lat="36.1771376554767" lon="-5.4517171301737415"><ele>4.4</ele><time>2026-04-25T14:53:24Z</time></trkpt><trkpt lat="36.17714464045777" lon="-5.451807183732805"><ele>4.6</ele><time>2026-04-25T14:55:11.001Z</time></trkpt><trkpt lat="36.17706319525867" lon="-5.45179826531011"><ele>4.8</ele><time>2026-04-25T14:55:26Z</time></trkpt><trkpt lat="36.17711042932884" lon="-5.451898961036791"><ele>5.0</ele><time>2026-04-25T14:55:53Z</time></trkpt><trkpt lat="36.17705873028228" lon="-5.451805313508829"><ele>5.0</ele><time>2026-04-25T14:56:01Z</time></trkpt><trkpt lat="36.177142576925846" lon="-5.451894668130945"><ele>5.0</ele><time>2026-04-25T14:56:06Z</time></trkpt><trkpt lat="36.177056425521464" lon="-5.451808858743188"><ele>5.0</ele><time>2026-04-25T14:56:08Z</time></trkpt><trkpt lat="36.1771330304654" lon="-5.451881485248445"><ele>5.0</ele><time>2026-04-25T14:56:12Z</time></trkpt><trkpt lat="36.177061792396124" lon="-5.451800638785526"><ele>5.0</ele><time>2026-04-25T14:56:17Z</time></trkpt><trkpt lat="36.17714156813123" lon="-5.4518033394459176"><ele>5.0</ele><time>2026-04-25T14:56:32Z</time></trkpt><trkpt lat="36.17711067951021" lon="-5.451702783001403"><ele>5.0</ele><time>2026-04-25T14:56:52Z</time></trkpt><trkpt lat="36.1771477399549" lon="-5.451779268562574"><ele>5.0</ele><time>2026-04-25T15:01:10.001Z</time></trkpt><trkpt lat="36.17708300717975" lon="-5.451764745985058"><ele>5.0</ele><time>2026-04-25T15:03:10.999Z</time></trkpt><trkpt lat="36.17718924824279" lon="-5.451805676173362"><ele>5.0</ele><time>2026-04-25T15:03:13.999Z</time></trkpt><trkpt lat="36.17713015400483" lon="-5.451752865109541"><ele>5.0</ele><time>2026-04-25T15:03:25Z</time></trkpt><trkpt lat="36.17719354849644" lon="-5.451794747185835"><ele>5.0</ele><time>2026-04-25T15:05:47Z</time></trkpt><trkpt lat="36.177100836219964" lon="-5.451733903192814"><ele>5.0</ele><time>2026-04-25T15:06:02.999Z</time></trkpt><trkpt lat="36.17716637341089" lon="-5.451785568829404"><ele>5.0</ele><time>2026-04-25T15:06:03.999Z</time></trkpt><trkpt lat="36.17709323828643" lon="-5.451748566265412"><ele>5.0</ele><time>2026-04-25T15:06:57.999Z</time></trkpt><trkpt lat="36.17717302595318" lon="-5.4518121977620675"><ele>5.0</ele><time>2026-04-25T15:06:58.999Z</time></trkpt><trkpt lat="36.17709961483809" lon="-5.451736647927427"><ele>5.0</ele><time>2026-04-25T15:07:19.999Z</time></trkpt><trkpt lat="36.17714271154219" lon="-5.451802835948655"><ele>5.0</ele><time>2026-04-25T15:07:23.998Z</time></trkpt><trkpt lat="36.17723671994639" lon="-5.451841771366385"><ele>5.0</ele><time>2026-04-25T15:08:45.999Z</time></trkpt><trkpt lat="36.17709226465943" lon="-5.451749083465923"><ele>5.0</ele><time>2026-04-25T15:08:50.999Z</time></trkpt><trkpt lat="36.177185236607066" lon="-5.451799097068693"><ele>5.0</ele><time>2026-04-25T15:09:09.999Z</time></trkpt><trkpt lat="36.177105663654764" lon="-5.451724586798112"><ele>5.0</ele><time>2026-04-25T15:09:12.999Z</time></trkpt><trkpt lat="36.177166058160644" lon="-5.451798607486493"><ele>5.0</ele><time>2026-04-25T15:09:37.998Z</time></trkpt><trkpt lat="36.17707558705595" lon="-5.451777299923651"><ele>5.0</ele><time>2026-04-25T15:09:55.999Z</time></trkpt><trkpt lat="36.17716895692486" lon="-5.45182058506301"><ele>5.0</ele><time>2026-04-25T15:10:03.999Z</time></trkpt><trkpt lat="36.17710953347466" lon="-5.451779421008022"><ele>5.0</ele><time>2026-04-25T15:10:14.999Z</time></trkpt><trkpt lat="36.1771795428391" lon="-5.451788030979842"><ele>5.0</ele><time>2026-04-25T15:12:03.999Z</time></trkpt><trkpt lat="36.17709955922148" lon="-5.451791114493125"><ele>5.0</ele><time>2026-04-25T15:13:25.999Z</time></trkpt><trkpt lat="36.17711185769918" lon="-5.451712532354487"><ele>5.0</ele><time>2026-04-25T15:13:49.999Z</time></trkpt><trkpt lat="36.1771690214035" lon="-5.45166146304339"><ele>5.0</ele><time>2026-04-25T15:13:56.999Z</time></trkpt><trkpt lat="36.177079774170046" lon="-5.451582509383782"><ele>5.0</ele><time>2026-04-25T15:14:13.999Z</time></trkpt><trkpt lat="36.17718445134219" lon="-5.451703607669374"><ele>5.0</ele><time>2026-04-25T15:14:18.999Z</time></trkpt><trkpt lat="36.17707336577426" lon="-5.4515928134047575"><ele>5.0</ele><time>2026-04-25T15:14:23Z</time></trkpt><trkpt lat="36.17718643049663" lon="-5.451708254704673"><ele>5.0</ele><time>2026-04-25T15:14:31Z</time></trkpt><trkpt lat="36.17714204937351" lon="-5.451782631718035"><ele>5.0</ele><time>2026-04-25T15:16:50Z</time></trkpt><trkpt lat="36.17707186700392" lon="-5.451834830236975"><ele>5.0</ele><time>2026-04-25T15:18:40.001Z</time></trkpt><trkpt lat="36.177026671799105" lon="-5.451670878762924"><ele>5.0</ele><time>2026-04-25T15:19:44Z</time></trkpt><trkpt lat="36.17699171134824" lon="-5.451742097271451"><ele>5.0</ele><time>2026-04-25T15:27:52.999Z</time></trkpt><trkpt lat="36.176953473415935" lon="-5.451813819872328"><ele>5.0</ele><time>2026-04-25T15:28:10.999Z</time></trkpt><trkpt lat="36.17689285037374" lon="-5.451899296949917"><ele>5.0</ele><time>2026-04-25T15:28:12.999Z</time></trkpt><trkpt lat="36.17680666631945" lon="-5.451955022056724"><ele>5.0</ele><time>2026-04-25T15:28:14.999Z</time></trkpt><trkpt lat="36.17674594458585" lon="-5.4520526107633955"><ele>5.0</ele><time>2026-04-25T15:28:16.999Z</time></trkpt><trkpt lat="36.176696898739394" lon="-5.452128920836268"><ele>5.0</ele><time>2026-04-25T15:28:17.999Z</time></trkpt><trkpt lat="36.17664700552259" lon="-5.452206549368421"><ele>4.6</ele><time>2026-04-25T15:28:18.999Z</time></trkpt><trkpt lat="36.176590947758946" lon="-5.452289663420278"><ele>4.2</ele><time>2026-04-25T15:28:19.999Z</time></trkpt><trkpt lat="36.17652462343404" lon="-5.452385208642277"><ele>3.8</ele><time>2026-04-25T15:28:20.999Z</time></trkpt><trkpt lat="36.176449427832424" lon="-5.452491793407404"><ele>3.4</ele><time>2026-04-25T15:28:21.999Z</time></trkpt><trkpt lat="36.1763538120061" lon="-5.4525868305144805"><ele>3.0</ele><time>2026-04-25T15:28:22.999Z</time></trkpt><trkpt lat="36.17627600789821" lon="-5.452715127010827"><ele>2.75</ele><time>2026-04-25T15:28:23.999Z</time></trkpt><trkpt lat="36.17618973499108" lon="-5.4528438664055665"><ele>2.5</ele><time>2026-04-25T15:28:24.999Z</time></trkpt><trkpt lat="36.176107816174856" lon="-5.452964910317029"><ele>2.25</ele><time>2026-04-25T15:28:25.999Z</time></trkpt><trkpt lat="36.176029849421596" lon="-5.45308819383396"><ele>2.0</ele><time>2026-04-25T15:28:26.999Z</time></trkpt><trkpt lat="36.17595710834262" lon="-5.4532077601721065"><ele>2.0</ele><time>2026-04-25T15:28:28.001Z</time></trkpt><trkpt lat="36.17589200819845" lon="-5.453317362576839"><ele>2.0</ele><time>2026-04-25T15:28:29.001Z</time></trkpt><trkpt lat="36.175823416331994" lon="-5.453436126320511"><ele>2.0</ele><time>2026-04-25T15:28:30.001Z</time></trkpt><trkpt lat="36.17574536117774" lon="-5.4535684137921345"><ele>2.0</ele><time>2026-04-25T15:28:31.001Z</time></trkpt><trkpt lat="36.175659291115075" lon="-5.4537087709903584"><ele>3.0</ele><time>2026-04-25T15:28:32.001Z</time></trkpt><trkpt lat="36.17556833137785" lon="-5.453858114966732"><ele>4.0</ele><time>2026-04-25T15:28:33.001Z</time></trkpt><trkpt lat="36.1754746717318" lon="-5.454011988668862"><ele>5.0</ele><time>2026-04-25T15:28:34.001Z</time></trkpt><trkpt lat="36.17537163256335" lon="-5.454162983546849"><ele>5.0</ele><time>2026-04-25T15:28:35.001Z</time></trkpt><trkpt lat="36.17526311328524" lon="-5.454313203264022"><ele>5.0</ele><time>2026-04-25T15:28:36.001Z</time></trkpt><trkpt lat="36.175142844322195" lon="-5.454452063301811"><ele>5.0</ele><time>2026-04-25T15:28:37.001Z</time></trkpt><trkpt lat="36.17501573914744" lon="-5.454572728774544"><ele>4.0</ele><time>2026-04-25T15:28:38.001Z</time></trkpt><trkpt lat="36.174878673057265" lon="-5.454701513300244"><ele>3.0</ele><time>2026-04-25T15:28:39.001Z</time></trkpt><trkpt lat="36.1747268862183" lon="-5.454816263314669"><ele>2.0</ele><time>2026-04-25T15:28:40.001Z</time></trkpt><trkpt lat="36.174569755626024" lon="-5.4549240388786115"><ele>2.0</ele><time>2026-04-25T15:28:41.001Z</time></trkpt><trkpt lat="36.174397988060214" lon="-5.455023066500247"><ele>2.0</ele><time>2026-04-25T15:28:42.001Z</time></trkpt><trkpt lat="36.174220330760406" lon="-5.455104627667965"><ele>2.0</ele><time>2026-04-25T15:28:43Z</time></trkpt><trkpt lat="36.17404496037256" lon="-5.455179406496359"><ele>2.0</ele><time>2026-04-25T15:28:44Z</time></trkpt><trkpt lat="36.17386710386016" lon="-5.455248070803577"><ele>2.0</ele><time>2026-04-25T15:28:45Z</time></trkpt><trkpt lat="36.17369273999851" lon="-5.455310303950741"><ele>2.0</ele><time>2026-04-25T15:28:46Z</time></trkpt><trkpt lat="36.173523501607875" lon="-5.455371972345688"><ele>2.0</ele><time>2026-04-25T15:28:47Z</time></trkpt><trkpt lat="36.17336880005145" lon="-5.455433897248749"><ele>2.0</ele><time>2026-04-25T15:28:48Z</time></trkpt><trkpt lat="36.173217763516206" lon="-5.455490832527472"><ele>2.0</ele><time>2026-04-25T15:28:49Z</time></trkpt><trkpt lat="36.17307830314292" lon="-5.455568500937863"><ele>2.6666666666666665</ele><time>2026-04-25T15:28:50Z</time></trkpt><trkpt lat="36.17292475070217" lon="-5.455597524003042"><ele>3.333333333333333</ele><time>2026-04-25T15:28:51Z</time></trkpt><trkpt lat="36.172781211333096" lon="-5.455656831314693"><ele>4.0</ele><time>2026-04-25T15:28:52Z</time></trkpt><trkpt lat="36.172627227682476" lon="-5.455714338416354"><ele>4.0</ele><time>2026-04-25T15:28:53Z</time></trkpt><trkpt lat="36.17247045726188" lon="-5.455772688947113"><ele>4.0</ele><time>2026-04-25T15:28:54Z</time></trkpt><trkpt lat="36.17230897724559" lon="-5.455831253187695"><ele>4.0</ele><time>2026-04-25T15:28:55Z</time></trkpt><trkpt lat="36.17213862948391" lon="-5.455891672076456"><ele>4.333333333333333</ele><time>2026-04-25T15:28:56Z</time></trkpt><trkpt lat="36.17197026154334" lon="-5.455958939491925"><ele>4.666666666666667</ele><time>2026-04-25T15:28:57Z</time></trkpt><trkpt lat="36.17179540524095" lon="-5.456020925454687"><ele>5.0</ele><time>2026-04-25T15:28:58Z</time></trkpt><trkpt lat="36.17161512936535" lon="-5.456090965528712"><ele>4.666666666666667</ele><time>2026-04-25T15:28:59Z</time></trkpt><trkpt lat="36.17143988240186" lon="-5.456161613792919"><ele>4.333333333333333</ele><time>2026-04-25T15:29:00Z</time></trkpt><trkpt lat="36.171278859862426" lon="-5.456216360780601"><ele>4.0</ele><time>2026-04-25T15:29:01Z</time></trkpt><trkpt lat="36.1711137342864" lon="-5.456277272685385"><ele>4.0</ele><time>2026-04-25T15:29:02Z</time></trkpt><trkpt lat="36.170946765533024" lon="-5.456340450869175"><ele>4.0</ele><time>2026-04-25T15:29:03Z</time></trkpt><trkpt lat="36.17077035268562" lon="-5.456392841838824"><ele>4.0</ele><time>2026-04-25T15:29:04Z</time></trkpt><trkpt lat="36.17059061553718" lon="-5.456453382248309"><ele>3.6666666666666665</ele><time>2026-04-25T15:29:05Z</time></trkpt><trkpt lat="36.17040311190878" lon="-5.456513537209813"><ele>3.333333333333333</ele><time>2026-04-25T15:29:06Z</time></trkpt><trkpt lat="36.17022661217895" lon="-5.456567683337002"><ele>3.0</ele><time>2026-04-25T15:29:07Z</time></trkpt><trkpt lat="36.170013722853696" lon="-5.456641687732736"><ele>3.0</ele><time>2026-04-25T15:29:08Z</time></trkpt><trkpt lat="36.169811708130574" lon="-5.456698263278774"><ele>3.0</ele><time>2026-04-25T15:29:09Z</time></trkpt><trkpt lat="36.16959022218136" lon="-5.456762606340649"><ele>3.0</ele><time>2026-04-25T15:29:10Z</time></trkpt><trkpt lat="36.16935639737065" lon="-5.456826275076142"><ele>3.0</ele><time>2026-04-25T15:29:11Z</time></trkpt><trkpt lat="36.16911847165567" lon="-5.4568850117404"><ele>3.0</ele><time>2026-04-25T15:29:12Z</time></trkpt><trkpt lat="36.16890212826009" lon="-5.456933787906411"><ele>2.6666666666666665</ele><time>2026-04-25T15:29:13Z</time></trkpt><trkpt lat="36.16869419766733" lon="-5.456979147424737"><ele>2.333333333333333</ele><time>2026-04-25T15:29:14Z</time></trkpt><trkpt lat="36.16848970572654" lon="-5.457040752532938"><ele>2.0</ele><time>2026-04-25T15:29:15Z</time></trkpt><trkpt lat="36.16829553258857" lon="-5.457099827439707"><ele>2.0</ele><time>2026-04-25T15:29:16Z</time></trkpt><trkpt lat="36.168096561407275" lon="-5.457161189898151"><ele>2.0</ele><time>2026-04-25T15:29:17Z</time></trkpt><trkpt lat="36.16789975047091" lon="-5.4572300219050485"><ele>2.0</ele><time>2026-04-25T15:29:18Z</time></trkpt><trkpt lat="36.16770802398788" lon="-5.457298217951222"><ele>2.0</ele><time>2026-04-25T15:29:19Z</time></trkpt><trkpt lat="36.167516728738725" lon="-5.457366335501303"><ele>2.0</ele><time>2026-04-25T15:29:20Z</time></trkpt><trkpt lat="36.16732989671737" lon="-5.457438259578117"><ele>2.0</ele><time>2026-04-25T15:29:21Z</time></trkpt><trkpt lat="36.167138869778924" lon="-5.457515763544607"><ele>2.0</ele><time>2026-04-25T15:29:22Z</time></trkpt><trkpt lat="36.16693618677689" lon="-5.45760214013498"><ele>2.0</ele><time>2026-04-25T15:29:23Z</time></trkpt><trkpt lat="36.16672586578976" lon="-5.4576922600302185"><ele>2.0</ele><time>2026-04-25T15:29:24Z</time></trkpt><trkpt lat="36.1665108641534" lon="-5.457786468997167"><ele>2.0</ele><time>2026-04-25T15:29:25Z</time></trkpt><trkpt lat="36.16627764127437" lon="-5.457897414884691"><ele>2.0</ele><time>2026-04-25T15:29:26Z</time></trkpt><trkpt lat="36.16600830078192" lon="-5.458043582642823"><ele>2.0</ele><time>2026-04-25T15:29:27Z</time></trkpt><trkpt lat="36.16570263492083" lon="-5.458187593654328"><ele>2.0</ele><time>2026-04-25T15:29:28Z</time></trkpt><trkpt lat="36.165404080847864" lon="-5.45830232642159"><ele>2.0</ele><time>2026-04-25T15:29:28.999Z</time></trkpt><trkpt lat="36.16514003812379" lon="-5.4584054399454"><ele>2.0</ele><time>2026-04-25T15:29:29.999Z</time></trkpt><trkpt lat="36.164912153302616" lon="-5.458499754551622"><ele>1.6666666666666665</ele><time>2026-04-25T15:29:30.999Z</time></trkpt><trkpt lat="36.164712139882596" lon="-5.458584929497865"><ele>1.3333333333333333</ele><time>2026-04-25T15:29:31.999Z</time></trkpt><trkpt lat="36.16452333208972" lon="-5.458663584992071"><ele>1.0</ele><time>2026-04-25T15:29:32.999Z</time></trkpt><trkpt lat="36.16433072892263" lon="-5.458745122088426"><ele>1.0</ele><time>2026-04-25T15:29:33.999Z</time></trkpt><trkpt lat="36.16412564207778" lon="-5.458833680417113"><ele>1.0</ele><time>2026-04-25T15:29:34.999Z</time></trkpt><trkpt lat="36.163922335027024" lon="-5.458920216483037"><ele>1.0</ele><time>2026-04-25T15:29:35.999Z</time></trkpt><trkpt lat="36.16373839216098" lon="-5.458997208878928"><ele>1.0</ele><time>2026-04-25T15:29:36.999Z</time></trkpt><trkpt lat="36.163553701616244" lon="-5.459066804159988"><ele>1.0</ele><time>2026-04-25T15:29:37.999Z</time></trkpt><trkpt lat="36.16337102032468" lon="-5.459129582900958"><ele>1.0</ele><time>2026-04-25T15:29:38.999Z</time></trkpt><trkpt lat="36.16318240760646" lon="-5.459184731098153"><ele>1.3333333333333333</ele><time>2026-04-25T15:29:39.999Z</time></trkpt><trkpt lat="36.162993789992356" lon="-5.459246970883873"><ele>1.6666666666666665</ele><time>2026-04-25T15:29:40.999Z</time></trkpt><trkpt lat="36.16280475451598" lon="-5.459307313073249"><ele>2.0</ele><time>2026-04-25T15:29:41.999Z</time></trkpt><trkpt lat="36.16260913257033" lon="-5.459367676241334"><ele>2.0</ele><time>2026-04-25T15:29:42.999Z</time></trkpt><trkpt lat="36.162417783997086" lon="-5.459424160856609"><ele>2.0</ele><time>2026-04-25T15:29:43.999Z</time></trkpt><trkpt lat="36.1622365630118" lon="-5.459481428121629"><ele>2.0</ele><time>2026-04-25T15:29:44.999Z</time></trkpt><trkpt lat="36.162055083159665" lon="-5.459536537859482"><ele>2.333333333333333</ele><time>2026-04-25T15:29:45.999Z</time></trkpt><trkpt lat="36.161878638086854" lon="-5.459582333856712"><ele>2.6666666666666665</ele><time>2026-04-25T15:29:46.999Z</time></trkpt><trkpt lat="36.16169976878647" lon="-5.459624595369588"><ele>3.0</ele><time>2026-04-25T15:29:47.999Z</time></trkpt><trkpt lat="36.1615201067354" lon="-5.45965580342242"><ele>5.666666666666666</ele><time>2026-04-25T15:29:48.999Z</time></trkpt><trkpt lat="36.16133565478208" lon="-5.4596793256158325"><ele>8.333333333333332</ele><time>2026-04-25T15:29:49.999Z</time></trkpt><trkpt lat="36.16115177045117" lon="-5.459689770168088"><ele>11.0</ele><time>2026-04-25T15:29:50.999Z</time></trkpt><trkpt lat="36.160965295654705" lon="-5.459694311400753"><ele>11.0</ele><time>2026-04-25T15:29:51.999Z</time></trkpt><trkpt lat="36.16078014693725" lon="-5.459684934817188"><ele>11.0</ele><time>2026-04-25T15:29:52.999Z</time></trkpt><trkpt lat="36.1605973707817" lon="-5.45966847405923"><ele>11.0</ele><time>2026-04-25T15:29:53.999Z</time></trkpt><trkpt lat="36.160423731279906" lon="-5.459630941633459"><ele>11.333333333333332</ele><time>2026-04-25T15:29:54.999Z</time></trkpt><trkpt lat="36.16025194750691" lon="-5.459582107428238"><ele>11.666666666666666</ele><time>2026-04-25T15:29:55.999Z</time></trkpt><trkpt lat="36.16007760437175" lon="-5.459523051579946"><ele>12.0</ele><time>2026-04-25T15:29:56.999Z</time></trkpt><trkpt lat="36.15990588717985" lon="-5.459446540029045"><ele>12.666666666666668</ele><time>2026-04-25T15:29:57.999Z</time></trkpt><trkpt lat="36.15973984005292" lon="-5.459345568636705"><ele>13.333333333333334</ele><time>2026-04-25T15:29:58.999Z</time></trkpt><trkpt lat="36.15957227539475" lon="-5.459242254179359"><ele>14.0</ele><time>2026-04-25T15:29:59.999Z</time></trkpt><trkpt lat="36.159408981588" lon="-5.459133092136121"><ele>14.0</ele><time>2026-04-25T15:30:00.999Z</time></trkpt><trkpt lat="36.15923903395139" lon="-5.459020350460433"><ele>14.0</ele><time>2026-04-25T15:30:01.999Z</time></trkpt><trkpt lat="36.15907141140402" lon="-5.458899537067871"><ele>14.0</ele><time>2026-04-25T15:30:02.999Z</time></trkpt><trkpt lat="36.15891306158543" lon="-5.458773015694657"><ele>14.666666666666668</ele><time>2026-04-25T15:30:03.999Z</time></trkpt><trkpt lat="36.15876114634336" lon="-5.458636962150026"><ele>15.333333333333332</ele><time>2026-04-25T15:30:04.999Z</time></trkpt><trkpt lat="36.1586159388882" lon="-5.458496169229144"><ele>16.0</ele><time>2026-04-25T15:30:05.999Z</time></trkpt><trkpt lat="36.15847167514102" lon="-5.458349834258649"><ele>16.0</ele><time>2026-04-25T15:30:06.999Z</time></trkpt><trkpt lat="36.15833080207174" lon="-5.458206055051526"><ele>16.0</ele><time>2026-04-25T15:30:07.999Z</time></trkpt><trkpt lat="36.158190485157434" lon="-5.458057002115342"><ele>16.0</ele><time>2026-04-25T15:30:08.999Z</time></trkpt><trkpt lat="36.15805338899244" lon="-5.457896329689021"><ele>18.0</ele><time>2026-04-25T15:30:09.999Z</time></trkpt><trkpt lat="36.157917069672" lon="-5.4577334237973565"><ele>20.0</ele><time>2026-04-25T15:30:10.999Z</time></trkpt><trkpt lat="36.157775729899356" lon="-5.45756878389877"><ele>22.0</ele><time>2026-04-25T15:30:11.999Z</time></trkpt><trkpt lat="36.15764222439117" lon="-5.457409286546552"><ele>22.0</ele><time>2026-04-25T15:30:12.999Z</time></trkpt><trkpt lat="36.1575287270364" lon="-5.457259994359264"><ele>22.0</ele><time>2026-04-25T15:30:13.999Z</time></trkpt><trkpt lat="36.15741454208793" lon="-5.457110941513449"><ele>22.0</ele><time>2026-04-25T15:30:14.999Z</time></trkpt><trkpt lat="36.15731020117289" lon="-5.456977237499996"><ele>24.0</ele><time>2026-04-25T15:30:15.999Z</time></trkpt><trkpt lat="36.157218617291605" lon="-5.456859288038547"><ele>26.0</ele><time>2026-04-25T15:30:16.999Z</time></trkpt><trkpt lat="36.15713371546455" lon="-5.456752859790107"><ele>28.0</ele><time>2026-04-25T15:30:17.999Z</time></trkpt><trkpt lat="36.15705441092184" lon="-5.456656145023477"><ele>30.0</ele><time>2026-04-25T15:30:18.999Z</time></trkpt><trkpt lat="36.156979813532544" lon="-5.456573196969995"><ele>30.0</ele><time>2026-04-25T15:30:19.999Z</time></trkpt><trkpt lat="36.156900244881236" lon="-5.456518747560921"><ele>30.0</ele><time>2026-04-25T15:30:20.999Z</time></trkpt><trkpt lat="36.15683841013115" lon="-5.456384973281268"><ele>30.0</ele><time>2026-04-25T15:30:21.999Z</time></trkpt><trkpt lat="36.15677323587172" lon="-5.45631607412693"><ele>30.0</ele><time>2026-04-25T15:30:22.999Z</time></trkpt><trkpt lat="36.15673037306981" lon="-5.456258649678913"><ele>30.0</ele><time>2026-04-25T15:30:23.999Z</time></trkpt><trkpt lat="36.15668686618836" lon="-5.456201761694321"><ele>30.0</ele><time>2026-04-25T15:30:24.999Z</time></trkpt><trkpt lat="36.15660606324626" lon="-5.456097286594603"><ele>29.666666666666668</ele><time>2026-04-25T15:30:26.999Z</time></trkpt><trkpt lat="36.156559313650305" lon="-5.456038558400683"><ele>29.333333333333336</ele><time>2026-04-25T15:30:27.999Z</time></trkpt><trkpt lat="36.15650459877661" lon="-5.455970534268657"><ele>29.0</ele><time>2026-04-25T15:30:28.999Z</time></trkpt><trkpt lat="36.15644903045548" lon="-5.455896499629548"><ele>28.666666666666668</ele><time>2026-04-25T15:30:29.999Z</time></trkpt><trkpt lat="36.15639576551965" lon="-5.455829996931503"><ele>28.333333333333336</ele><time>2026-04-25T15:30:30.999Z</time></trkpt><trkpt lat="36.15633037790441" lon="-5.455755391544468"><ele>28.0</ele><time>2026-04-25T15:30:31.999Z</time></trkpt><trkpt lat="36.156257732724" lon="-5.455667344800261"><ele>28.0</ele><time>2026-04-25T15:30:32.999Z</time></trkpt><trkpt lat="36.15618132733113" lon="-5.455569915999931"><ele>28.0</ele><time>2026-04-25T15:30:34Z</time></trkpt><trkpt lat="36.15609528132739" lon="-5.455454158052886"><ele>28.0</ele><time>2026-04-25T15:30:35Z</time></trkpt><trkpt lat="36.155996709068184" lon="-5.4553315956117"><ele>28.0</ele><time>2026-04-25T15:30:36Z</time></trkpt><trkpt lat="36.15590015764555" lon="-5.455214217147855"><ele>28.0</ele><time>2026-04-25T15:30:37Z</time></trkpt><trkpt lat="36.155786973411495" lon="-5.455108114583212"><ele>28.0</ele><time>2026-04-25T15:30:38Z</time></trkpt><trkpt lat="36.15566466972005" lon="-5.455020321124294"><ele>28.0</ele><time>2026-04-25T15:30:39Z</time></trkpt><trkpt lat="36.15553655067238" lon="-5.454941896020712"><ele>28.0</ele><time>2026-04-25T15:30:40Z</time></trkpt><trkpt lat="36.15540291774007" lon="-5.454871727597864"><ele>28.0</ele><time>2026-04-25T15:30:41Z</time></trkpt><trkpt lat="36.15526111430396" lon="-5.454815962124645"><ele>28.0</ele><time>2026-04-25T15:30:42Z</time></trkpt><trkpt lat="36.15512332259029" lon="-5.454769993485646"><ele>28.0</ele><time>2026-04-25T15:30:43Z</time></trkpt><trkpt lat="36.15496728826768" lon="-5.454747991781703"><ele>28.0</ele><time>2026-04-25T15:30:44Z</time></trkpt><trkpt lat="36.15482941268222" lon="-5.4547224631061555"><ele>28.75</ele><time>2026-04-25T15:30:45Z</time></trkpt><trkpt lat="36.154690924232945" lon="-5.454703280547589"><ele>29.5</ele><time>2026-04-25T15:30:46Z</time></trkpt><trkpt lat="36.1545525342557" lon="-5.4546952616124305"><ele>30.25</ele><time>2026-04-25T15:30:47Z</time></trkpt><trkpt lat="36.154419676473985" lon="-5.454693057680094"><ele>31.0</ele><time>2026-04-25T15:30:48Z</time></trkpt><trkpt lat="36.154278529340665" lon="-5.4546978204081515"><ele>31.0</ele><time>2026-04-25T15:30:49Z</time></trkpt><trkpt lat="36.15412793274339" lon="-5.454701734976094"><ele>31.0</ele><time>2026-04-25T15:30:50Z</time></trkpt><trkpt lat="36.15397127098308" lon="-5.454708687105323"><ele>31.0</ele><time>2026-04-25T15:30:51Z</time></trkpt><trkpt lat="36.15381422589269" lon="-5.454711029152455"><ele>31.5</ele><time>2026-04-25T15:30:52Z</time></trkpt><trkpt lat="36.15366516694515" lon="-5.454718428810326"><ele>32.0</ele><time>2026-04-25T15:30:53Z</time></trkpt><trkpt lat="36.15352107202022" lon="-5.45472197352099"><ele>32.5</ele><time>2026-04-25T15:30:54Z</time></trkpt><trkpt lat="36.15337843998031" lon="-5.4547272825502695"><ele>33.0</ele><time>2026-04-25T15:30:55Z</time></trkpt><trkpt lat="36.153226338630894" lon="-5.454731930198804"><ele>33.25</ele><time>2026-04-25T15:30:56Z</time></trkpt><trkpt lat="36.15307988015525" lon="-5.454739307612776"><ele>33.5</ele><time>2026-04-25T15:30:57Z</time></trkpt><trkpt lat="36.15293900706071" lon="-5.4547471132041"><ele>33.75</ele><time>2026-04-25T15:30:58Z</time></trkpt><trkpt lat="36.152799070584585" lon="-5.454751861415852"><ele>34.0</ele><time>2026-04-25T15:30:59Z</time></trkpt><trkpt lat="36.152662438670156" lon="-5.4547589342461595"><ele>34.0</ele><time>2026-04-25T15:31:00Z</time></trkpt><trkpt lat="36.15252380684583" lon="-5.4547617679899885"><ele>34.0</ele><time>2026-04-25T15:31:01Z</time></trkpt><trkpt lat="36.15238226150444" lon="-5.4547677806010295"><ele>34.0</ele><time>2026-04-25T15:31:02Z</time></trkpt><trkpt lat="36.152234261746" lon="-5.454776302622096"><ele>34.0</ele><time>2026-04-25T15:31:03Z</time></trkpt><trkpt lat="36.15208115733158" lon="-5.454783005098852"><ele>34.25</ele><time>2026-04-25T15:31:04Z</time></trkpt><trkpt lat="36.15192782856515" lon="-5.454787040122812"><ele>34.5</ele><time>2026-04-25T15:31:05Z</time></trkpt><trkpt lat="36.15178033165131" lon="-5.454793433911897"><ele>34.75</ele><time>2026-04-25T15:31:05.999Z</time></trkpt><trkpt lat="36.151640744141346" lon="-5.454800326558693"><ele>35.0</ele><time>2026-04-25T15:31:06.999Z</time></trkpt><trkpt lat="36.151501546075714" lon="-5.454805695193742"><ele>35.25</ele><time>2026-04-25T15:31:07.999Z</time></trkpt><trkpt lat="36.15136712627519" lon="-5.454805699758452"><ele>35.5</ele><time>2026-04-25T15:31:08.999Z</time></trkpt><trkpt lat="36.15124111676918" lon="-5.454812813746231"><ele>35.75</ele><time>2026-04-25T15:31:09.999Z</time></trkpt><trkpt lat="36.15111105071639" lon="-5.454816919123981"><ele>36.0</ele><time>2026-04-25T15:31:10.999Z</time></trkpt><trkpt lat="36.150988697333844" lon="-5.454821729947918"><ele>36.0</ele><time>2026-04-25T15:31:11.999Z</time></trkpt><trkpt lat="36.150856526161576" lon="-5.454828106457869"><ele>36.0</ele><time>2026-04-25T15:31:12.999Z</time></trkpt><trkpt lat="36.15072289426837" lon="-5.454832738485103"><ele>36.0</ele><time>2026-04-25T15:31:13.999Z</time></trkpt><trkpt lat="36.15059434172425" lon="-5.454835825273583"><ele>36.0</ele><time>2026-04-25T15:31:14.999Z</time></trkpt><trkpt lat="36.150451983790774" lon="-5.45484624862361"><ele>35.75</ele><time>2026-04-25T15:31:15.999Z</time></trkpt><trkpt lat="36.150312098771245" lon="-5.4548502245328585"><ele>35.5</ele><time>2026-04-25T15:31:16.999Z</time></trkpt><trkpt lat="36.15017540154308" lon="-5.454858230964477"><ele>35.25</ele><time>2026-04-25T15:31:17.999Z</time></trkpt><trkpt lat="36.15003853860968" lon="-5.454863824280905"><ele>35.0</ele><time>2026-04-25T15:31:18.999Z</time></trkpt><trkpt lat="36.149902407159786" lon="-5.454869522721738"><ele>35.0</ele><time>2026-04-25T15:31:19.999Z</time></trkpt><trkpt lat="36.149768492524665" lon="-5.454874328527194"><ele>35.0</ele><time>2026-04-25T15:31:20.999Z</time></trkpt><trkpt lat="36.14963956131308" lon="-5.454879588285272"><ele>35.0</ele><time>2026-04-25T15:31:21.999Z</time></trkpt><trkpt lat="36.149513843460355" lon="-5.454880097879277"><ele>35.0</ele><time>2026-04-25T15:31:22.999Z</time></trkpt><trkpt lat="36.14939820096811" lon="-5.454876535850907"><ele>35.0</ele><time>2026-04-25T15:31:23.999Z</time></trkpt><trkpt lat="36.14929215214837" lon="-5.454865327213754"><ele>35.0</ele><time>2026-04-25T15:31:24.999Z</time></trkpt><trkpt lat="36.149183928166906" lon="-5.454857964734892"><ele>35.0</ele><time>2026-04-25T15:31:25.999Z</time></trkpt><trkpt lat="36.14908944834572" lon="-5.454838054966543"><ele>35.0</ele><time>2026-04-25T15:31:26.999Z</time></trkpt><trkpt lat="36.1489928584588" lon="-5.454817197551669"><ele>35.0</ele><time>2026-04-25T15:31:27.999Z</time></trkpt><trkpt lat="36.148896329138566" lon="-5.454799169679596"><ele>35.25</ele><time>2026-04-25T15:31:28.999Z</time></trkpt><trkpt lat="36.14878430277757" lon="-5.454750190080818"><ele>35.5</ele><time>2026-04-25T15:31:29.999Z</time></trkpt><trkpt lat="36.14867118708777" lon="-5.454707844935476"><ele>35.75</ele><time>2026-04-25T15:31:30.999Z</time></trkpt><trkpt lat="36.14856972454802" lon="-5.454668189428495"><ele>36.0</ele><time>2026-04-25T15:31:31.999Z</time></trkpt><trkpt lat="36.14845872296495" lon="-5.454612591518151"><ele>36.0</ele><time>2026-04-25T15:31:32.999Z</time></trkpt><trkpt lat="36.148340254555336" lon="-5.4545489784576855"><ele>36.0</ele><time>2026-04-25T15:31:33.999Z</time></trkpt><trkpt lat="36.14822481338121" lon="-5.4544908038413125"><ele>36.0</ele><time>2026-04-25T15:31:34.999Z</time></trkpt><trkpt lat="36.14811156027218" lon="-5.454430352404601"><ele>36.0</ele><time>2026-04-25T15:31:35.999Z</time></trkpt><trkpt lat="36.14800170907894" lon="-5.454369481075208"><ele>37.25</ele><time>2026-04-25T15:31:36.999Z</time></trkpt><trkpt lat="36.14788517253125" lon="-5.454309217864939"><ele>38.5</ele><time>2026-04-25T15:31:37.999Z</time></trkpt><trkpt lat="36.147776601892375" lon="-5.454254795907419"><ele>39.75</ele><time>2026-04-25T15:31:38.999Z</time></trkpt><trkpt lat="36.147666215308796" lon="-5.454190482719653"><ele>41.0</ele><time>2026-04-25T15:31:39.999Z</time></trkpt><trkpt lat="36.14755240065776" lon="-5.454126261831988"><ele>41.0</ele><time>2026-04-25T15:31:40.999Z</time></trkpt><trkpt lat="36.14743373366375" lon="-5.454062096253185"><ele>41.0</ele><time>2026-04-25T15:31:41.999Z</time></trkpt><trkpt lat="36.14730471068815" lon="-5.4539962677605756"><ele>41.0</ele><time>2026-04-25T15:31:42.999Z</time></trkpt><trkpt lat="36.14717692011723" lon="-5.453924643183036"><ele>41.0</ele><time>2026-04-25T15:31:43.999Z</time></trkpt><trkpt lat="36.14704560290874" lon="-5.453854770048669"><ele>41.666666666666664</ele><time>2026-04-25T15:31:44.999Z</time></trkpt><trkpt lat="36.14691392381581" lon="-5.453784547287565"><ele>42.333333333333336</ele><time>2026-04-25T15:31:45.999Z</time></trkpt><trkpt lat="36.14677630392098" lon="-5.453713706746113"><ele>43.0</ele><time>2026-04-25T15:31:46.999Z</time></trkpt><trkpt lat="36.146624818619706" lon="-5.453644067067471"><ele>43.333333333333336</ele><time>2026-04-25T15:31:47.999Z</time></trkpt><trkpt lat="36.14645536905674" lon="-5.453580436166233"><ele>43.666666666666664</ele><time>2026-04-25T15:31:48.999Z</time></trkpt><trkpt lat="36.146276312116896" lon="-5.453533615542839"><ele>44.0</ele><time>2026-04-25T15:31:49.999Z</time></trkpt><trkpt lat="36.146079359987276" lon="-5.4535141220415735"><ele>44.0</ele><time>2026-04-25T15:31:50.999Z</time></trkpt><trkpt lat="36.14588383068003" lon="-5.453521864583623"><ele>44.0</ele><time>2026-04-25T15:31:51.999Z</time></trkpt><trkpt lat="36.14566866144055" lon="-5.453549160277766"><ele>44.0</ele><time>2026-04-25T15:31:52.999Z</time></trkpt><trkpt lat="36.14547046191775" lon="-5.45361974097063"><ele>42.666666666666664</ele><time>2026-04-25T15:31:53.999Z</time></trkpt><trkpt lat="36.14529520225803" lon="-5.453714963902647"><ele>41.333333333333336</ele><time>2026-04-25T15:31:54.999Z</time></trkpt><trkpt lat="36.145134621518324" lon="-5.453834530536784"><ele>40.0</ele><time>2026-04-25T15:31:55.999Z</time></trkpt><trkpt lat="36.14498791861768" lon="-5.453983129093438"><ele>36.66666666666667</ele><time>2026-04-25T15:31:56.999Z</time></trkpt><trkpt lat="36.14486014825476" lon="-5.454154807324144"><ele>33.333333333333336</ele><time>2026-04-25T15:31:57.999Z</time></trkpt><trkpt lat="36.144754495886396" lon="-5.45433396303498"><ele>30.0</ele><time>2026-04-25T15:31:58.999Z</time></trkpt><trkpt lat="36.14465969012557" lon="-5.454520333135923"><ele>30.666666666666664</ele><time>2026-04-25T15:31:59.999Z</time></trkpt><trkpt lat="36.14458056578436" lon="-5.4547204375066185"><ele>31.333333333333332</ele><time>2026-04-25T15:32:00.999Z</time></trkpt><trkpt lat="36.14450671126726" lon="-5.454922775570431"><ele>32.0</ele><time>2026-04-25T15:32:01.999Z</time></trkpt><trkpt lat="36.14442953022561" lon="-5.455133460689971"><ele>32.0</ele><time>2026-04-25T15:32:02.999Z</time></trkpt><trkpt lat="36.14435169137279" lon="-5.455348025767605"><ele>32.0</ele><time>2026-04-25T15:32:03.999Z</time></trkpt><trkpt lat="36.144274691297184" lon="-5.45556575975762"><ele>32.0</ele><time>2026-04-25T15:32:04.999Z</time></trkpt><trkpt lat="36.14419308005927" lon="-5.455783934479444"><ele>31.666666666666664</ele><time>2026-04-25T15:32:05.999Z</time></trkpt><trkpt lat="36.14411227137184" lon="-5.456002344685206"><ele>31.333333333333336</ele><time>2026-04-25T15:32:06.999Z</time></trkpt><trkpt lat="36.14403395884207" lon="-5.456222315878382"><ele>31.0</ele><time>2026-04-25T15:32:07.999Z</time></trkpt><trkpt lat="36.14395558476979" lon="-5.456443760865828"><ele>31.0</ele><time>2026-04-25T15:32:08.999Z</time></trkpt><trkpt lat="36.14387093638486" lon="-5.456670126846699"><ele>31.0</ele><time>2026-04-25T15:32:09.999Z</time></trkpt><trkpt lat="36.14379032945856" lon="-5.456891767497465"><ele>31.0</ele><time>2026-04-25T15:32:10.999Z</time></trkpt><trkpt lat="36.143711246493424" lon="-5.457106021127777"><ele>32.66666666666667</ele><time>2026-04-25T15:32:11.999Z</time></trkpt><trkpt lat="36.143634710610456" lon="-5.457321051448618"><ele>34.333333333333336</ele><time>2026-04-25T15:32:12.999Z</time></trkpt><trkpt lat="36.14355517100842" lon="-5.457538153620952"><ele>36.0</ele><time>2026-04-25T15:32:13.999Z</time></trkpt><trkpt lat="36.1434750688423" lon="-5.457756697916461"><ele>38.666666666666664</ele><time>2026-04-25T15:32:14.999Z</time></trkpt><trkpt lat="36.143394824696244" lon="-5.457975249633066"><ele>41.33333333333333</ele><time>2026-04-25T15:32:15.998Z</time></trkpt><trkpt lat="36.14332044129895" lon="-5.458191494692615"><ele>44.0</ele><time>2026-04-25T15:32:16.998Z</time></trkpt><trkpt lat="36.14324276722981" lon="-5.458399271231551"><ele>43.33333333333333</ele><time>2026-04-25T15:32:17.998Z</time></trkpt><trkpt lat="36.143162139436996" lon="-5.458603078683102"><ele>42.666666666666664</ele><time>2026-04-25T15:32:18.998Z</time></trkpt><trkpt lat="36.14307569773765" lon="-5.458804520285181"><ele>42.0</ele><time>2026-04-25T15:32:19.998Z</time></trkpt><trkpt lat="36.14297643309842" lon="-5.458998858279151"><ele>42.0</ele><time>2026-04-25T15:32:20.998Z</time></trkpt><trkpt lat="36.14288534786355" lon="-5.459185827916532"><ele>42.0</ele><time>2026-04-25T15:32:21.998Z</time></trkpt><trkpt lat="36.142780885477144" lon="-5.45936901087229"><ele>42.0</ele><time>2026-04-25T15:32:22.998Z</time></trkpt><trkpt lat="36.14267177718027" lon="-5.459543487848331"><ele>40.666666666666664</ele><time>2026-04-25T15:32:23.998Z</time></trkpt><trkpt lat="36.14254791475018" lon="-5.459704051266303"><ele>39.33333333333333</ele><time>2026-04-25T15:32:24.998Z</time></trkpt><trkpt lat="36.14241472872211" lon="-5.4598539244499396"><ele>38.0</ele><time>2026-04-25T15:32:25.998Z</time></trkpt><trkpt lat="36.14227827657236" lon="-5.459983146099849"><ele>38.0</ele><time>2026-04-25T15:32:26.998Z</time></trkpt><trkpt lat="36.142133305657545" lon="-5.460109679800887"><ele>38.0</ele><time>2026-04-25T15:32:27.998Z</time></trkpt><trkpt lat="36.14198517364476" lon="-5.4602251411743055"><ele>38.0</ele><time>2026-04-25T15:32:28.998Z</time></trkpt><trkpt lat="36.14182327945479" lon="-5.460327714554634"><ele>38.0</ele><time>2026-04-25T15:32:29.998Z</time></trkpt><trkpt lat="36.14165197369357" lon="-5.4604207165048955"><ele>38.0</ele><time>2026-04-25T15:32:30.998Z</time></trkpt><trkpt lat="36.141478683282266" lon="-5.460482653383091"><ele>38.0</ele><time>2026-04-25T15:32:31.998Z</time></trkpt><trkpt lat="36.141294544164786" lon="-5.46053552778072"><ele>40.0</ele><time>2026-04-25T15:32:32.998Z</time></trkpt><trkpt lat="36.141107115366374" lon="-5.460583463739561"><ele>42.0</ele><time>2026-04-25T15:32:33.998Z</time></trkpt><trkpt lat="36.14091325815322" lon="-5.460618819412013"><ele>44.0</ele><time>2026-04-25T15:32:34.998Z</time></trkpt><trkpt lat="36.14070928398461" lon="-5.460628628959621"><ele>45.0</ele><time>2026-04-25T15:32:35.998Z</time></trkpt><trkpt lat="36.14050854924335" lon="-5.4606193129319305"><ele>46.0</ele><time>2026-04-25T15:32:36.998Z</time></trkpt><trkpt lat="36.140319556450784" lon="-5.460594935055957"><ele>47.0</ele><time>2026-04-25T15:32:37.998Z</time></trkpt><trkpt lat="36.14012455825307" lon="-5.460563699203653"><ele>47.0</ele><time>2026-04-25T15:32:38.998Z</time></trkpt><trkpt lat="36.13992630999356" lon="-5.460522569752902"><ele>47.0</ele><time>2026-04-25T15:32:39.999Z</time></trkpt><trkpt lat="36.13972066962397" lon="-5.460478088647694"><ele>47.0</ele><time>2026-04-25T15:32:40.999Z</time></trkpt><trkpt lat="36.139524335712025" lon="-5.460438597974812"><ele>46.33333333333333</ele><time>2026-04-25T15:32:41.999Z</time></trkpt><trkpt lat="36.139321159851356" lon="-5.46039200606947"><ele>45.666666666666664</ele><time>2026-04-25T15:32:42.999Z</time></trkpt><trkpt lat="36.139125322682794" lon="-5.460345764408022"><ele>45.0</ele><time>2026-04-25T15:32:44Z</time></trkpt><trkpt lat="36.13892943635112" lon="-5.460302128960339"><ele>45.0</ele><time>2026-04-25T15:32:45Z</time></trkpt><trkpt lat="36.13873309159277" lon="-5.460261384641423"><ele>45.0</ele><time>2026-04-25T15:32:46Z</time></trkpt><trkpt lat="36.138536987646" lon="-5.460215639664912"><ele>45.0</ele><time>2026-04-25T15:32:47Z</time></trkpt><trkpt lat="36.13831812042221" lon="-5.460141403497634"><ele>47.0</ele><time>2026-04-25T15:32:48Z</time></trkpt><trkpt lat="36.13811680221425" lon="-5.460102901034137"><ele>49.0</ele><time>2026-04-25T15:32:49Z</time></trkpt><trkpt lat="36.13792921667441" lon="-5.460072276012277"><ele>51.0</ele><time>2026-04-25T15:32:50Z</time></trkpt><trkpt lat="36.137722287295155" lon="-5.460042522957859"><ele>51.0</ele><time>2026-04-25T15:32:51Z</time></trkpt><trkpt lat="36.13752725975404" lon="-5.460019376464286"><ele>51.0</ele><time>2026-04-25T15:32:52Z</time></trkpt><trkpt lat="36.13734126998737" lon="-5.460015990038479"><ele>51.0</ele><time>2026-04-25T15:32:53Z</time></trkpt><trkpt lat="36.137156554396746" lon="-5.460015644160582"><ele>48.0</ele><time>2026-04-25T15:32:54Z</time></trkpt><trkpt lat="36.136979961070516" lon="-5.460048608417618"><ele>45.0</ele><time>2026-04-25T15:32:55Z</time></trkpt><trkpt lat="36.13679135801649" lon="-5.460072851623423"><ele>42.0</ele><time>2026-04-25T15:32:56Z</time></trkpt><trkpt lat="36.13661187061009" lon="-5.4601094407942785"><ele>42.333333333333336</ele><time>2026-04-25T15:32:57Z</time></trkpt><trkpt lat="36.13642490898261" lon="-5.460156746092569"><ele>42.66666666666667</ele><time>2026-04-25T15:32:58Z</time></trkpt><trkpt lat="36.13623877020045" lon="-5.460216724038353"><ele>43.0</ele><time>2026-04-25T15:32:59Z</time></trkpt><trkpt lat="36.13604939754583" lon="-5.460287871124294"><ele>43.0</ele><time>2026-04-25T15:33:00Z</time></trkpt><trkpt lat="36.1358623722159" lon="-5.460372889504206"><ele>43.0</ele><time>2026-04-25T15:33:01Z</time></trkpt><trkpt lat="36.13566202286893" lon="-5.460476720650644"><ele>43.0</ele><time>2026-04-25T15:33:02Z</time></trkpt><trkpt lat="36.13548365527096" lon="-5.460594004300752"><ele>41.0</ele><time>2026-04-25T15:33:03Z</time></trkpt><trkpt lat="36.135303291152965" lon="-5.460721943728506"><ele>39.0</ele><time>2026-04-25T15:33:04Z</time></trkpt><trkpt lat="36.135122038161185" lon="-5.460864062441252"><ele>37.0</ele><time>2026-04-25T15:33:05Z</time></trkpt><trkpt lat="36.134962669590955" lon="-5.461008398600236"><ele>37.333333333333336</ele><time>2026-04-25T15:33:06Z</time></trkpt><trkpt lat="36.13480190856395" lon="-5.461167285681255"><ele>37.666666666666664</ele><time>2026-04-25T15:33:07Z</time></trkpt><trkpt lat="36.134648387369445" lon="-5.461334830217767"><ele>38.0</ele><time>2026-04-25T15:33:08Z</time></trkpt><trkpt lat="36.134488275099606" lon="-5.461513186542782"><ele>35.33333333333333</ele><time>2026-04-25T15:33:09Z</time></trkpt><trkpt lat="36.13432992717158" lon="-5.4617021372873"><ele>32.666666666666664</ele><time>2026-04-25T15:33:10Z</time></trkpt><trkpt lat="36.13417157204935" lon="-5.46189549049787"><ele>30.0</ele><time>2026-04-25T15:33:11Z</time></trkpt><trkpt lat="36.134014286093446" lon="-5.46209344950124"><ele>27.0</ele><time>2026-04-25T15:33:12Z</time></trkpt><trkpt lat="36.13385736168711" lon="-5.4622974814610235"><ele>24.0</ele><time>2026-04-25T15:33:12.999Z</time></trkpt><trkpt lat="36.13370123987419" lon="-5.462506544616672"><ele>24.0</ele><time>2026-04-25T15:33:13.999Z</time></trkpt><trkpt lat="36.13354064266533" lon="-5.462718881788984"><ele>24.0</ele><time>2026-04-25T15:33:14.999Z</time></trkpt><trkpt lat="36.1333769694417" lon="-5.4629300832933385"><ele>21.0</ele><time>2026-04-25T15:33:15.999Z</time></trkpt><trkpt lat="36.13320994831625" lon="-5.4631449140664055"><ele>18.0</ele><time>2026-04-25T15:33:16.999Z</time></trkpt><trkpt lat="36.133032205167176" lon="-5.463350379037164"><ele>18.0</ele><time>2026-04-25T15:33:17.999Z</time></trkpt><trkpt lat="36.13285225395982" lon="-5.463537992229836"><ele>18.0</ele><time>2026-04-25T15:33:18.999Z</time></trkpt><trkpt lat="36.13267244416694" lon="-5.46370654680645"><ele>18.0</ele><time>2026-04-25T15:33:19.999Z</time></trkpt><trkpt lat="36.13248335414047" lon="-5.463861170331156"><ele>18.0</ele><time>2026-04-25T15:33:20.999Z</time></trkpt><trkpt lat="36.13228860055723" lon="-5.464003878173208"><ele>18.0</ele><time>2026-04-25T15:33:21.999Z</time></trkpt><trkpt lat="36.1320848046859" lon="-5.464126775813275"><ele>18.0</ele><time>2026-04-25T15:33:22.999Z</time></trkpt><trkpt lat="36.13187617403182" lon="-5.464222889227079"><ele>18.0</ele><time>2026-04-25T15:33:23.999Z</time></trkpt><trkpt lat="36.131663016438296" lon="-5.4642916902043694"><ele>17.0</ele><time>2026-04-25T15:33:24.999Z</time></trkpt><trkpt lat="36.131453684329195" lon="-5.464334230428601"><ele>16.0</ele><time>2026-04-25T15:33:25.999Z</time></trkpt><trkpt lat="36.131243768475755" lon="-5.464354990734565"><ele>15.0</ele><time>2026-04-25T15:33:26.999Z</time></trkpt><trkpt lat="36.1310336181239" lon="-5.464360713124899"><ele>15.0</ele><time>2026-04-25T15:33:27.999Z</time></trkpt><trkpt lat="36.13082480614885" lon="-5.464352893503809"><ele>15.0</ele><time>2026-04-25T15:33:28.999Z</time></trkpt><trkpt lat="36.13061069736999" lon="-5.464337502721193"><ele>15.0</ele><time>2026-04-25T15:33:29.999Z</time></trkpt><trkpt lat="36.130393699991195" lon="-5.464312035615064"><ele>17.0</ele><time>2026-04-25T15:33:30.999Z</time></trkpt><trkpt lat="36.130170370641586" lon="-5.464277241055941"><ele>19.0</ele><time>2026-04-25T15:33:31.999Z</time></trkpt><trkpt lat="36.12993486951357" lon="-5.464232071121062"><ele>24.0</ele><time>2026-04-25T15:33:32.999Z</time></trkpt><trkpt lat="36.12969003721911" lon="-5.464174380450485"><ele>29.0</ele><time>2026-04-25T15:33:33.999Z</time></trkpt><trkpt lat="36.129450324035126" lon="-5.464106971748917"><ele>29.0</ele><time>2026-04-25T15:33:34.999Z</time></trkpt><trkpt lat="36.1292145493075" lon="-5.4640386634265505"><ele>29.0</ele><time>2026-04-25T15:33:35.999Z</time></trkpt><trkpt lat="36.12898224394607" lon="-5.463970273448059"><ele>34.0</ele><time>2026-04-25T15:33:36.999Z</time></trkpt><trkpt lat="36.12876094503258" lon="-5.463908601909069"><ele>39.0</ele><time>2026-04-25T15:33:37.999Z</time></trkpt><trkpt lat="36.1285396785358" lon="-5.463853930092663"><ele>39.0</ele><time>2026-04-25T15:33:38.999Z</time></trkpt><trkpt lat="36.12831960843719" lon="-5.463799678373687"><ele>39.0</ele><time>2026-04-25T15:33:39.999Z</time></trkpt><trkpt lat="36.12809761690207" lon="-5.463742543933764"><ele>34.5</ele><time>2026-04-25T15:33:40.999Z</time></trkpt><trkpt lat="36.12787482488186" lon="-5.463684866897186"><ele>30.0</ele><time>2026-04-25T15:33:41.999Z</time></trkpt><trkpt lat="36.12765503830501" lon="-5.463621554374915"><ele>30.0</ele><time>2026-04-25T15:33:42.999Z</time></trkpt><trkpt lat="36.127427695630445" lon="-5.463561504980753"><ele>30.0</ele><time>2026-04-25T15:33:43.999Z</time></trkpt><trkpt lat="36.127197728215975" lon="-5.46350134374782"><ele>33.0</ele><time>2026-04-25T15:33:44.999Z</time></trkpt><trkpt lat="36.12696272572789" lon="-5.463440486084984"><ele>36.0</ele><time>2026-04-25T15:33:45.999Z</time></trkpt><trkpt lat="36.126731637627536" lon="-5.463371976911619"><ele>35.5</ele><time>2026-04-25T15:33:46.999Z</time></trkpt><trkpt lat="36.12650197628142" lon="-5.463294334636375"><ele>35.0</ele><time>2026-04-25T15:33:47.999Z</time></trkpt><trkpt lat="36.12628335665417" lon="-5.463199856909728"><ele>35.0</ele><time>2026-04-25T15:33:48.999Z</time></trkpt><trkpt lat="36.126070270688295" lon="-5.463089105060806"><ele>35.0</ele><time>2026-04-25T15:33:49.999Z</time></trkpt><trkpt lat="36.125850230602786" lon="-5.463014098573802"><ele>35.5</ele><time>2026-04-25T15:33:50.999Z</time></trkpt><trkpt lat="36.12567457175317" lon="-5.46281096509509"><ele>36.0</ele><time>2026-04-25T15:33:51.999Z</time></trkpt><trkpt lat="36.12549467794947" lon="-5.462639699098714"><ele>36.0</ele><time>2026-04-25T15:33:52.999Z</time></trkpt><trkpt lat="36.12532420916999" lon="-5.462458904271302"><ele>36.0</ele><time>2026-04-25T15:33:53.999Z</time></trkpt><trkpt lat="36.12514754143253" lon="-5.462274269971492"><ele>35.5</ele><time>2026-04-25T15:33:54.999Z</time></trkpt><trkpt lat="36.124975247051246" lon="-5.462089879477026"><ele>35.0</ele><time>2026-04-25T15:33:55.999Z</time></trkpt><trkpt lat="36.124797809721784" lon="-5.4619062005963395"><ele>39.5</ele><time>2026-04-25T15:33:56.999Z</time></trkpt><trkpt lat="36.124614102172835" lon="-5.461729263120276"><ele>44.0</ele><time>2026-04-25T15:33:57.999Z</time></trkpt><trkpt lat="36.124430925211925" lon="-5.461562568991344"><ele>44.0</ele><time>2026-04-25T15:33:58.999Z</time></trkpt><trkpt lat="36.12425171034152" lon="-5.4614049635541075"><ele>44.0</ele><time>2026-04-25T15:33:59.999Z</time></trkpt><trkpt lat="36.12406300632556" lon="-5.461262116831949"><ele>44.0</ele><time>2026-04-25T15:34:00.999Z</time></trkpt><trkpt lat="36.1238662976488" lon="-5.461137719360656"><ele>45.5</ele><time>2026-04-25T15:34:01.999Z</time></trkpt><trkpt lat="36.12365862335902" lon="-5.461029822841625"><ele>47.0</ele><time>2026-04-25T15:34:02.999Z</time></trkpt><trkpt lat="36.12344585030172" lon="-5.46094094272523"><ele>46.5</ele><time>2026-04-25T15:34:03.999Z</time></trkpt><trkpt lat="36.12322402794129" lon="-5.460878591538879"><ele>46.0</ele><time>2026-04-25T15:34:04.999Z</time></trkpt><trkpt lat="36.12299519053809" lon="-5.460843763401786"><ele>46.0</ele><time>2026-04-25T15:34:05.999Z</time></trkpt><trkpt lat="36.122765023553946" lon="-5.460833290476021"><ele>46.0</ele><time>2026-04-25T15:34:06.999Z</time></trkpt><trkpt lat="36.12254084473227" lon="-5.460834514056248"><ele>44.333333333333336</ele><time>2026-04-25T15:34:07.999Z</time></trkpt><trkpt lat="36.122327569181884" lon="-5.460842277651519"><ele>42.666666666666664</ele><time>2026-04-25T15:34:08.999Z</time></trkpt><trkpt lat="36.12212146133139" lon="-5.460855601296824"><ele>41.0</ele><time>2026-04-25T15:34:09.999Z</time></trkpt><trkpt lat="36.121911464064326" lon="-5.4608773338801315"><ele>41.0</ele><time>2026-04-25T15:34:10.999Z</time></trkpt><trkpt lat="36.121702681650724" lon="-5.460896969132494"><ele>41.0</ele><time>2026-04-25T15:34:11.999Z</time></trkpt><trkpt lat="36.12148965407068" lon="-5.460915091463463"><ele>41.0</ele><time>2026-04-25T15:34:12.999Z</time></trkpt><trkpt lat="36.12127310924592" lon="-5.460940481582441"><ele>37.5</ele><time>2026-04-25T15:34:13.999Z</time></trkpt><trkpt lat="36.121054244983824" lon="-5.4609362483545905"><ele>34.0</ele><time>2026-04-25T15:34:14.999Z</time></trkpt><trkpt lat="36.120820987500096" lon="-5.460953758582879"><ele>38.5</ele><time>2026-04-25T15:34:15.999Z</time></trkpt><trkpt lat="36.12057924887285" lon="-5.460978243754703"><ele>43.0</ele><time>2026-04-25T15:34:16.999Z</time></trkpt><trkpt lat="36.120347936905965" lon="-5.461000992295778"><ele>43.0</ele><time>2026-04-25T15:34:17.999Z</time></trkpt><trkpt lat="36.12012678435607" lon="-5.461023589110819"><ele>43.0</ele><time>2026-04-25T15:34:18.999Z</time></trkpt><trkpt lat="36.119913999650024" lon="-5.461044869349765"><ele>43.0</ele><time>2026-04-25T15:34:19.999Z</time></trkpt><trkpt lat="36.11969355793917" lon="-5.461064155574983"><ele>44.0</ele><time>2026-04-25T15:34:20.999Z</time></trkpt><trkpt lat="36.1194774218706" lon="-5.461092281208842"><ele>45.0</ele><time>2026-04-25T15:34:21.999Z</time></trkpt><trkpt lat="36.11926931175282" lon="-5.461117040020418"><ele>46.0</ele><time>2026-04-25T15:34:22.999Z</time></trkpt><trkpt lat="36.11906522898058" lon="-5.4611384999811765"><ele>48.0</ele><time>2026-04-25T15:34:23.999Z</time></trkpt><trkpt lat="36.118858707393635" lon="-5.461161797324387"><ele>50.0</ele><time>2026-04-25T15:34:24.999Z</time></trkpt><trkpt lat="36.118650392230826" lon="-5.46118338124257"><ele>52.0</ele><time>2026-04-25T15:34:25.999Z</time></trkpt><trkpt lat="36.11843871187343" lon="-5.461190821244354"><ele>52.666666666666664</ele><time>2026-04-25T15:34:26.999Z</time></trkpt><trkpt lat="36.118230106221574" lon="-5.461191567914347"><ele>53.33333333333333</ele><time>2026-04-25T15:34:27.999Z</time></trkpt><trkpt lat="36.118028054223295" lon="-5.461179044462126"><ele>54.0</ele><time>2026-04-25T15:34:28.999Z</time></trkpt><trkpt lat="36.11782094990665" lon="-5.461161466349947"><ele>54.0</ele><time>2026-04-25T15:34:29.999Z</time></trkpt><trkpt lat="36.11762253543913" lon="-5.461124712327411"><ele>54.0</ele><time>2026-04-25T15:34:30.998Z</time></trkpt><trkpt lat="36.11741070032147" lon="-5.461072999501635"><ele>54.0</ele><time>2026-04-25T15:34:31.998Z</time></trkpt><trkpt lat="36.11720139750771" lon="-5.46099881020792"><ele>53.33333333333333</ele><time>2026-04-25T15:34:32.998Z</time></trkpt><trkpt lat="36.116993857438" lon="-5.460908331022441"><ele>52.666666666666664</ele><time>2026-04-25T15:34:33.998Z</time></trkpt><trkpt lat="36.116791658220365" lon="-5.460794103044707"><ele>52.0</ele><time>2026-04-25T15:34:34.998Z</time></trkpt><trkpt lat="36.11660055473542" lon="-5.460657149313424"><ele>50.666666666666664</ele><time>2026-04-25T15:34:35.998Z</time></trkpt><trkpt lat="36.11642614203166" lon="-5.460473064947669"><ele>49.33333333333333</ele><time>2026-04-25T15:34:36.998Z</time></trkpt><trkpt lat="36.116272736625554" lon="-5.460320594300714"><ele>48.0</ele><time>2026-04-25T15:34:37.998Z</time></trkpt><trkpt lat="36.116139681279904" lon="-5.460175700890851"><ele>48.0</ele><time>2026-04-25T15:34:38.998Z</time></trkpt><trkpt lat="36.11602330611089" lon="-5.460030778372217"><ele>48.0</ele><time>2026-04-25T15:34:39.998Z</time></trkpt><trkpt lat="36.11591325188075" lon="-5.459889867712946"><ele>48.0</ele><time>2026-04-25T15:34:40.998Z</time></trkpt><trkpt lat="36.115807677029686" lon="-5.459746847685112"><ele>47.0</ele><time>2026-04-25T15:34:41.998Z</time></trkpt><trkpt lat="36.115706692798156" lon="-5.459601178989044"><ele>46.0</ele><time>2026-04-25T15:34:42.998Z</time></trkpt><trkpt lat="36.115606650456755" lon="-5.459459649528379"><ele>45.0</ele><time>2026-04-25T15:34:43.998Z</time></trkpt><trkpt lat="36.115513118969716" lon="-5.459310849155024"><ele>45.0</ele><time>2026-04-25T15:34:44.998Z</time></trkpt><trkpt lat="36.11542972180993" lon="-5.45916700648562"><ele>45.0</ele><time>2026-04-25T15:34:45.999Z</time></trkpt><trkpt lat="36.11535021049904" lon="-5.459027462360943"><ele>45.0</ele><time>2026-04-25T15:34:46.999Z</time></trkpt><trkpt lat="36.11527002203409" lon="-5.4588855980649145"><ele>45.0</ele><time>2026-04-25T15:34:47.999Z</time></trkpt><trkpt lat="36.11519071620343" lon="-5.458743283867485"><ele>44.5</ele><time>2026-04-25T15:34:48.999Z</time></trkpt><trkpt lat="36.11511315569185" lon="-5.458601254741065"><ele>44.0</ele><time>2026-04-25T15:34:49.999Z</time></trkpt><trkpt lat="36.11503624122656" lon="-5.458461186059769"><ele>43.5</ele><time>2026-04-25T15:34:50.999Z</time></trkpt><trkpt lat="36.11495756860872" lon="-5.458321226431094"><ele>43.0</ele><time>2026-04-25T15:34:51.999Z</time></trkpt><trkpt lat="36.114886465462966" lon="-5.458187554810468"><ele>41.5</ele><time>2026-04-25T15:34:52.999Z</time></trkpt><trkpt lat="36.11481101832227" lon="-5.458058292711204"><ele>40.0</ele><time>2026-04-25T15:34:53.999Z</time></trkpt><trkpt lat="36.11473842347991" lon="-5.457935786317191"><ele>38.5</ele><time>2026-04-25T15:34:54.999Z</time></trkpt><trkpt lat="36.11466974906891" lon="-5.457815879479237"><ele>37.0</ele><time>2026-04-25T15:34:55.999Z</time></trkpt><trkpt lat="36.1146035623733" lon="-5.457699058940421"><ele>36.800000000000004</ele><time>2026-04-25T15:34:56.999Z</time></trkpt><trkpt lat="36.11453887947852" lon="-5.45758617882987"><ele>36.6</ele><time>2026-04-25T15:34:57.999Z</time></trkpt><trkpt lat="36.11447553783443" lon="-5.457486710305885"><ele>36.400000000000006</ele><time>2026-04-25T15:34:58.999Z</time></trkpt><trkpt lat="36.11441161536701" lon="-5.4573895037435545"><ele>36.2</ele><time>2026-04-25T15:34:59.999Z</time></trkpt><trkpt lat="36.114347315804" lon="-5.457297014040454"><ele>36.0</ele><time>2026-04-25T15:35:00.999Z</time></trkpt><trkpt lat="36.1142915645476" lon="-5.457208842284026"><ele>36.0</ele><time>2026-04-25T15:35:01.999Z</time></trkpt><trkpt lat="36.11423878785686" lon="-5.4571220788642"><ele>36.0</ele><time>2026-04-25T15:35:02.999Z</time></trkpt><trkpt lat="36.11418302399687" lon="-5.457036334289354"><ele>36.0</ele><time>2026-04-25T15:35:03.999Z</time></trkpt><trkpt lat="36.1141248231625" lon="-5.456939142086442"><ele>36.0</ele><time>2026-04-25T15:35:04.999Z</time></trkpt><trkpt lat="36.11407245318084" lon="-5.456848179430419"><ele>36.0</ele><time>2026-04-25T15:35:05.999Z</time></trkpt><trkpt lat="36.11401602217055" lon="-5.456753353462464"><ele>35.2</ele><time>2026-04-25T15:35:06.999Z</time></trkpt><trkpt lat="36.11396236865" lon="-5.456654485730186"><ele>34.400000000000006</ele><time>2026-04-25T15:35:07.999Z</time></trkpt><trkpt lat="36.11390682292443" lon="-5.456550011079026"><ele>33.6</ele><time>2026-04-25T15:35:08.999Z</time></trkpt><trkpt lat="36.113841268438094" lon="-5.456441709063494"><ele>32.800000000000004</ele><time>2026-04-25T15:35:09.999Z</time></trkpt><trkpt lat="36.113770056921915" lon="-5.456344832674014"><ele>32.0</ele><time>2026-04-25T15:35:10.999Z</time></trkpt><trkpt lat="36.113691668037795" lon="-5.456268903070625"><ele>31.400000000000002</ele><time>2026-04-25T15:35:11.999Z</time></trkpt><trkpt lat="36.11360605646179" lon="-5.456211273219087"><ele>30.800000000000004</ele><time>2026-04-25T15:35:12.999Z</time></trkpt><trkpt lat="36.11351094699828" lon="-5.456201786687619"><ele>30.2</ele><time>2026-04-25T15:35:13.999Z</time></trkpt><trkpt lat="36.11342919381374" lon="-5.456166781791555"><ele>29.6</ele><time>2026-04-25T15:35:14.999Z</time></trkpt><trkpt lat="36.11334013708208" lon="-5.4561638628141145"><ele>29.0</ele><time>2026-04-25T15:35:15.999Z</time></trkpt><trkpt lat="36.11325414413558" lon="-5.456175803391334"><ele>28.799999999999997</ele><time>2026-04-25T15:35:16.999Z</time></trkpt><trkpt lat="36.11316951846085" lon="-5.456200462788541"><ele>28.599999999999998</ele><time>2026-04-25T15:35:17.999Z</time></trkpt><trkpt lat="36.11308650088213" lon="-5.456239312294158"><ele>28.4</ele><time>2026-04-25T15:35:18.999Z</time></trkpt><trkpt lat="36.1129851436591" lon="-5.456272594380972"><ele>28.2</ele><time>2026-04-25T15:35:19.999Z</time></trkpt><trkpt lat="36.112900052263576" lon="-5.456336411683852"><ele>28.0</ele><time>2026-04-25T15:35:20.999Z</time></trkpt><trkpt lat="36.11282512185177" lon="-5.456440062666813"><ele>28.0</ele><time>2026-04-25T15:35:21.999Z</time></trkpt><trkpt lat="36.11273385918275" lon="-5.456521971042994"><ele>27.999999999999996</ele><time>2026-04-25T15:35:22.999Z</time></trkpt><trkpt lat="36.112643281934574" lon="-5.456602051522236"><ele>27.999999999999996</ele><time>2026-04-25T15:35:23.999Z</time></trkpt><trkpt lat="36.112551285600446" lon="-5.456677785705882"><ele>28.0</ele><time>2026-04-25T15:35:24.999Z</time></trkpt><trkpt lat="36.11246715974759" lon="-5.456748742664833"><ele>28.0</ele><time>2026-04-25T15:35:25.999Z</time></trkpt><trkpt lat="36.11237820877974" lon="-5.456837014108568"><ele>29.25</ele><time>2026-04-25T15:35:26.999Z</time></trkpt><trkpt lat="36.112242820948204" lon="-5.456949443696738"><ele>30.5</ele><time>2026-04-25T15:35:27.999Z</time></trkpt><trkpt lat="36.11213526026816" lon="-5.457052852515938"><ele>31.75</ele><time>2026-04-25T15:35:28.999Z</time></trkpt><trkpt lat="36.112047800457816" lon="-5.457145794736457"><ele>33.0</ele><time>2026-04-25T15:35:29.999Z</time></trkpt><trkpt lat="36.111954972536914" lon="-5.457232652891813"><ele>33.75</ele><time>2026-04-25T15:35:30.999Z</time></trkpt><trkpt lat="36.111847435777925" lon="-5.4573125210321916"><ele>34.5</ele><time>2026-04-25T15:35:31.999Z</time></trkpt><trkpt lat="36.11173292230877" lon="-5.457380953493161"><ele>35.25</ele><time>2026-04-25T15:35:32.999Z</time></trkpt><trkpt lat="36.11162437028979" lon="-5.4574491868603845"><ele>36.0</ele><time>2026-04-25T15:35:33.999Z</time></trkpt><trkpt lat="36.11151843739286" lon="-5.457508485635655"><ele>36.6</ele><time>2026-04-25T15:35:34.999Z</time></trkpt><trkpt lat="36.11141209019046" lon="-5.457556694420988"><ele>37.2</ele><time>2026-04-25T15:35:35.999Z</time></trkpt><trkpt lat="36.111308651533875" lon="-5.457602696037668"><ele>37.8</ele><time>2026-04-25T15:35:36.999Z</time></trkpt><trkpt lat="36.111202672997386" lon="-5.4576467181059"><ele>38.4</ele><time>2026-04-25T15:35:37.999Z</time></trkpt><trkpt lat="36.11109549829718" lon="-5.4576839522099005"><ele>39.0</ele><time>2026-04-25T15:35:38.999Z</time></trkpt><trkpt lat="36.1109976601269" lon="-5.457725874718833"><ele>39.0</ele><time>2026-04-25T15:35:39.999Z</time></trkpt><trkpt lat="36.11091783931909" lon="-5.4577717082570265"><ele>39.0</ele><time>2026-04-25T15:35:40.999Z</time></trkpt><trkpt lat="36.110848378810886" lon="-5.457808831909916"><ele>39.0</ele><time>2026-04-25T15:35:41.999Z</time></trkpt><trkpt lat="36.11077719729671" lon="-5.457844900243416"><ele>39.0</ele><time>2026-04-25T15:35:43.999Z</time></trkpt><trkpt lat="36.110712008944304" lon="-5.457868180286959"><ele>39.0</ele><time>2026-04-25T15:36:05.999Z</time></trkpt><trkpt lat="36.1106053935103" lon="-5.457907385171342"><ele>39.0</ele><time>2026-04-25T15:40:34.999Z</time></trkpt><trkpt lat="36.11046788473379" lon="-5.457946596694047"><ele>39.0</ele><time>2026-04-25T15:40:36.999Z</time></trkpt><trkpt lat="36.11040057229729" lon="-5.457989082838048"><ele>39.0</ele><time>2026-04-25T15:40:37.999Z</time></trkpt><trkpt lat="36.110324215315536" lon="-5.458039717199088"><ele>39.0</ele><time>2026-04-25T15:40:38.999Z</time></trkpt><trkpt lat="36.1102399522536" lon="-5.458058351960137"><ele>39.0</ele><time>2026-04-25T15:40:39.999Z</time></trkpt><trkpt lat="36.110157502368644" lon="-5.458041882101624"><ele>39.0</ele><time>2026-04-25T15:40:40.999Z</time></trkpt><trkpt lat="36.110060226746675" lon="-5.457992755655"><ele>39.0</ele><time>2026-04-25T15:40:41.999Z</time></trkpt><trkpt lat="36.109961272853006" lon="-5.457932404360862"><ele>37.666666666666664</ele><time>2026-04-25T15:40:42.999Z</time></trkpt><trkpt lat="36.10985916763122" lon="-5.458169140742383"><ele>36.33333333333333</ele><time>2026-04-25T15:40:43.999Z</time></trkpt><trkpt lat="36.109742312613406" lon="-5.458218680249047"><ele>35.0</ele><time>2026-04-25T15:40:44.999Z</time></trkpt><trkpt lat="36.10962100092375" lon="-5.458274705611393"><ele>35.0</ele><time>2026-04-25T15:40:45.999Z</time></trkpt><trkpt lat="36.109497248640594" lon="-5.4583397706620636"><ele>35.0</ele><time>2026-04-25T15:40:46.999Z</time></trkpt><trkpt lat="36.10936860169111" lon="-5.4584089660926205"><ele>35.0</ele><time>2026-04-25T15:40:47.999Z</time></trkpt><trkpt lat="36.109254980621444" lon="-5.458479079755103"><ele>35.0</ele><time>2026-04-25T15:40:48.999Z</time></trkpt><trkpt lat="36.10914393000219" lon="-5.458553473427958"><ele>34.25</ele><time>2026-04-25T15:40:49.999Z</time></trkpt><trkpt lat="36.10902686097895" lon="-5.458630515436343"><ele>33.5</ele><time>2026-04-25T15:40:50.999Z</time></trkpt><trkpt lat="36.10890571373726" lon="-5.4587100331629355"><ele>32.75</ele><time>2026-04-25T15:40:51.999Z</time></trkpt><trkpt lat="36.10877554303517" lon="-5.45879523796677"><ele>32.0</ele><time>2026-04-25T15:40:52.999Z</time></trkpt><trkpt lat="36.10864482393446" lon="-5.458877275042943"><ele>32.0</ele><time>2026-04-25T15:40:53.999Z</time></trkpt><trkpt lat="36.108516851098024" lon="-5.458955785014129"><ele>32.0</ele><time>2026-04-25T15:40:54.999Z</time></trkpt><trkpt lat="36.10838867280387" lon="-5.459037402082152"><ele>32.0</ele><time>2026-04-25T15:40:55.999Z</time></trkpt><trkpt lat="36.10824328745561" lon="-5.459132467917942"><ele>31.333333333333332</ele><time>2026-04-25T15:40:56.999Z</time></trkpt><trkpt lat="36.10809039787868" lon="-5.459230662439283"><ele>30.666666666666664</ele><time>2026-04-25T15:40:57.999Z</time></trkpt><trkpt lat="36.1079281694535" lon="-5.459340326919828"><ele>30.0</ele><time>2026-04-25T15:40:58.999Z</time></trkpt><trkpt lat="36.10776904694994" lon="-5.459458852457442"><ele>30.0</ele><time>2026-04-25T15:40:59.999Z</time></trkpt><trkpt lat="36.10761487010804" lon="-5.459583579025732"><ele>30.0</ele><time>2026-04-25T15:41:00.999Z</time></trkpt><trkpt lat="36.107485319049" lon="-5.459693810441816"><ele>30.0</ele><time>2026-04-25T15:41:01.999Z</time></trkpt><trkpt lat="36.10737167464384" lon="-5.459799880620596"><ele>31.25</ele><time>2026-04-25T15:41:02.999Z</time></trkpt><trkpt lat="36.10726405126512" lon="-5.459902446242822"><ele>32.5</ele><time>2026-04-25T15:41:04.001Z</time></trkpt><trkpt lat="36.10715132360307" lon="-5.460010576789332"><ele>33.75</ele><time>2026-04-25T15:41:05.001Z</time></trkpt><trkpt lat="36.10704351770189" lon="-5.46012002344757"><ele>35.0</ele><time>2026-04-25T15:41:06.001Z</time></trkpt><trkpt lat="36.10696344857563" lon="-5.460227733576767"><ele>35.0</ele><time>2026-04-25T15:41:07.001Z</time></trkpt><trkpt lat="36.106871909353906" lon="-5.460337183591223"><ele>35.0</ele><time>2026-04-25T15:41:08.001Z</time></trkpt><trkpt lat="36.106782120173584" lon="-5.460443904525839"><ele>35.0</ele><time>2026-04-25T15:41:09.001Z</time></trkpt><trkpt lat="36.106708694131136" lon="-5.4605364949353135"><ele>35.0</ele><time>2026-04-25T15:41:10.001Z</time></trkpt><trkpt lat="36.10663481064483" lon="-5.4606261552700905"><ele>35.166666666666664</ele><time>2026-04-25T15:41:11.001Z</time></trkpt><trkpt lat="36.10657179548195" lon="-5.460710394614042"><ele>35.33333333333333</ele><time>2026-04-25T15:41:12.001Z</time></trkpt><trkpt lat="36.106509613468006" lon="-5.460794727508615"><ele>35.5</ele><time>2026-04-25T15:41:13.001Z</time></trkpt><trkpt lat="36.10645162401947" lon="-5.46087213175691"><ele>35.666666666666664</ele><time>2026-04-25T15:41:14.001Z</time></trkpt><trkpt lat="36.10639681174973" lon="-5.460938613891845"><ele>35.833333333333336</ele><time>2026-04-25T15:41:15.001Z</time></trkpt><trkpt lat="36.106347442810396" lon="-5.461000150690988"><ele>36.0</ele><time>2026-04-25T15:41:16.001Z</time></trkpt><trkpt lat="36.10629904826676" lon="-5.46105468348017"><ele>36.0</ele><time>2026-04-25T15:41:17.001Z</time></trkpt><trkpt lat="36.10621907720893" lon="-5.461179042282853"><ele>36.0</ele><time>2026-04-25T15:41:19Z</time></trkpt><trkpt lat="36.10618204081685" lon="-5.461260216807602"><ele>36.0</ele><time>2026-04-25T15:41:20Z</time></trkpt><trkpt lat="36.10615176884536" lon="-5.4613407482132645"><ele>36.0</ele><time>2026-04-25T15:41:21Z</time></trkpt><trkpt lat="36.10610609246747" lon="-5.461415782022866"><ele>36.0</ele><time>2026-04-25T15:41:22Z</time></trkpt><trkpt lat="36.10603413290914" lon="-5.461478601333733"><ele>36.0</ele><time>2026-04-25T15:41:23Z</time></trkpt><trkpt lat="36.1059513400571" lon="-5.461549436257874"><ele>38.0</ele><time>2026-04-25T15:41:24Z</time></trkpt><trkpt lat="36.10586517743667" lon="-5.4616310742617005"><ele>40.0</ele><time>2026-04-25T15:41:25Z</time></trkpt><trkpt lat="36.10577353395468" lon="-5.461730001325594"><ele>42.0</ele><time>2026-04-25T15:41:26Z</time></trkpt><trkpt lat="36.10566315253614" lon="-5.461856729205042"><ele>44.0</ele><time>2026-04-25T15:41:27Z</time></trkpt><trkpt lat="36.10553119804501" lon="-5.461987855302898"><ele>44.33333333333333</ele><time>2026-04-25T15:41:28Z</time></trkpt><trkpt lat="36.10538611612485" lon="-5.462120873409787"><ele>44.666666666666664</ele><time>2026-04-25T15:41:29Z</time></trkpt><trkpt lat="36.10524228365118" lon="-5.462286783379135"><ele>45.0</ele><time>2026-04-25T15:41:30Z</time></trkpt><trkpt lat="36.10507475278817" lon="-5.462432034682522"><ele>49.0</ele><time>2026-04-25T15:41:31Z</time></trkpt><trkpt lat="36.104892131853525" lon="-5.462589514428045"><ele>53.0</ele><time>2026-04-25T15:41:32Z</time></trkpt><trkpt lat="36.104702402416585" lon="-5.462754001661673"><ele>53.0</ele><time>2026-04-25T15:41:33Z</time></trkpt><trkpt lat="36.10452089753187" lon="-5.4629100047066395"><ele>53.0</ele><time>2026-04-25T15:41:34Z</time></trkpt><trkpt lat="36.10434404833892" lon="-5.463044707783231"><ele>53.0</ele><time>2026-04-25T15:41:35Z</time></trkpt><trkpt lat="36.10413963610822" lon="-5.4631287832542395"><ele>50.5</ele><time>2026-04-25T15:41:36Z</time></trkpt><trkpt lat="36.103931585298184" lon="-5.4632223434567"><ele>48.0</ele><time>2026-04-25T15:41:37Z</time></trkpt><trkpt lat="36.10371589698846" lon="-5.463332375990177"><ele>48.0</ele><time>2026-04-25T15:41:38Z</time></trkpt><trkpt lat="36.10348435372516" lon="-5.463433124873338"><ele>48.0</ele><time>2026-04-25T15:41:39Z</time></trkpt><trkpt lat="36.10325779203511" lon="-5.46351074872502"><ele>49.33333333333333</ele><time>2026-04-25T15:41:40Z</time></trkpt><trkpt lat="36.10306941108349" lon="-5.463614498289921"><ele>50.666666666666664</ele><time>2026-04-25T15:41:41Z</time></trkpt><trkpt lat="36.10287544060122" lon="-5.463699407595807"><ele>52.0</ele><time>2026-04-25T15:41:42Z</time></trkpt><trkpt lat="36.102683157026924" lon="-5.463783578522298"><ele>52.0</ele><time>2026-04-25T15:41:43Z</time></trkpt><trkpt lat="36.10248841956283" lon="-5.4638622308188545"><ele>52.0</ele><time>2026-04-25T15:41:44Z</time></trkpt><trkpt lat="36.10229151731932" lon="-5.463927535701752"><ele>52.0</ele><time>2026-04-25T15:41:45Z</time></trkpt><trkpt lat="36.10209640763591" lon="-5.463972675419659"><ele>55.0</ele><time>2026-04-25T15:41:46Z</time></trkpt><trkpt lat="36.101917539231735" lon="-5.464086015985228"><ele>58.0</ele><time>2026-04-25T15:41:47Z</time></trkpt><trkpt lat="36.10174031573776" lon="-5.464211656249108"><ele>61.0</ele><time>2026-04-25T15:41:48Z</time></trkpt><trkpt lat="36.10155682139594" lon="-5.464342081849394"><ele>62.0</ele><time>2026-04-25T15:41:49Z</time></trkpt><trkpt lat="36.101375412596546" lon="-5.464473938604927"><ele>63.0</ele><time>2026-04-25T15:41:50Z</time></trkpt><trkpt lat="36.10119592989792" lon="-5.464607252273078"><ele>64.0</ele><time>2026-04-25T15:41:51Z</time></trkpt><trkpt lat="36.10102106559301" lon="-5.464740064677191"><ele>64.0</ele><time>2026-04-25T15:41:52Z</time></trkpt><trkpt lat="36.10085345802446" lon="-5.464881422444286"><ele>64.0</ele><time>2026-04-25T15:41:53Z</time></trkpt><trkpt lat="36.100687181933026" lon="-5.465035073275661"><ele>64.0</ele><time>2026-04-25T15:41:54Z</time></trkpt><trkpt lat="36.10052871830699" lon="-5.465207224202297"><ele>66.0</ele><time>2026-04-25T15:41:55Z</time></trkpt><trkpt lat="36.1003824538225" lon="-5.465401163278468"><ele>68.0</ele><time>2026-04-25T15:41:56Z</time></trkpt><trkpt lat="36.10025105856075" lon="-5.46561643545105"><ele>70.0</ele><time>2026-04-25T15:41:57Z</time></trkpt><trkpt lat="36.10013201695099" lon="-5.46584480129051"><ele>70.0</ele><time>2026-04-25T15:41:58Z</time></trkpt><trkpt lat="36.10002204285791" lon="-5.466079172712572"><ele>70.0</ele><time>2026-04-25T15:41:59Z</time></trkpt><trkpt lat="36.099915984140566" lon="-5.466317604802046"><ele>70.0</ele><time>2026-04-25T15:42:00Z</time></trkpt><trkpt lat="36.09981616988875" lon="-5.4665370417057"><ele>73.0</ele><time>2026-04-25T15:42:01Z</time></trkpt><trkpt lat="36.099691876028324" lon="-5.4667252717062835"><ele>76.0</ele><time>2026-04-25T15:42:02Z</time></trkpt><trkpt lat="36.09955596404003" lon="-5.46690319638063"><ele>79.0</ele><time>2026-04-25T15:42:03Z</time></trkpt><trkpt lat="36.099381233769634" lon="-5.467058445898337"><ele>78.5</ele><time>2026-04-25T15:42:04Z</time></trkpt><trkpt lat="36.09918824580087" lon="-5.467192254687024"><ele>78.0</ele><time>2026-04-25T15:42:05Z</time></trkpt><trkpt lat="36.09897441005748" lon="-5.467311908306526"><ele>80.33333333333333</ele><time>2026-04-25T15:42:05.999Z</time></trkpt><trkpt lat="36.09877824888259" lon="-5.467462970079837"><ele>82.66666666666666</ele><time>2026-04-25T15:42:06.999Z</time></trkpt><trkpt lat="36.098598222635474" lon="-5.467587709103497"><ele>85.0</ele><time>2026-04-25T15:42:07.999Z</time></trkpt><trkpt lat="36.09845891941682" lon="-5.467754673267585"><ele>84.66666666666666</ele><time>2026-04-25T15:42:08.999Z</time></trkpt><trkpt lat="36.098335614338815" lon="-5.467950040167011"><ele>84.33333333333333</ele><time>2026-04-25T15:42:09.999Z</time></trkpt><trkpt lat="36.09824405004968" lon="-5.468166939801135"><ele>84.0</ele><time>2026-04-25T15:42:10.999Z</time></trkpt><trkpt lat="36.09816959134953" lon="-5.468380219435412"><ele>87.0</ele><time>2026-04-25T15:42:11.999Z</time></trkpt><trkpt lat="36.09809064475747" lon="-5.4685871507121195"><ele>90.0</ele><time>2026-04-25T15:42:12.999Z</time></trkpt><trkpt lat="36.09800249767372" lon="-5.468798740939596"><ele>93.0</ele><time>2026-04-25T15:42:13.999Z</time></trkpt><trkpt lat="36.09789368560781" lon="-5.469009461571895"><ele>93.0</ele><time>2026-04-25T15:42:14.999Z</time></trkpt><trkpt lat="36.09775651438206" lon="-5.469206108013442"><ele>93.0</ele><time>2026-04-25T15:42:15.999Z</time></trkpt><trkpt lat="36.09759677688684" lon="-5.469393631731072"><ele>93.0</ele><time>2026-04-25T15:42:16.999Z</time></trkpt><trkpt lat="36.0974281318469" lon="-5.469570096446533"><ele>95.33333333333334</ele><time>2026-04-25T15:42:17.999Z</time></trkpt><trkpt lat="36.097271948119136" lon="-5.469744734886726"><ele>97.66666666666667</ele><time>2026-04-25T15:42:18.999Z</time></trkpt><trkpt lat="36.09712279494955" lon="-5.469915092641242"><ele>100.0</ele><time>2026-04-25T15:42:19.999Z</time></trkpt><trkpt lat="36.09697569866298" lon="-5.470088871236578"><ele>100.0</ele><time>2026-04-25T15:42:20.999Z</time></trkpt><trkpt lat="36.096826807462485" lon="-5.470266072948485"><ele>100.0</ele><time>2026-04-25T15:42:21.999Z</time></trkpt><trkpt lat="36.09667870122221" lon="-5.470457946076906"><ele>100.0</ele><time>2026-04-25T15:42:22.999Z</time></trkpt><trkpt lat="36.096532675472936" lon="-5.470667678869967"><ele>103.5</ele><time>2026-04-25T15:42:23.999Z</time></trkpt><trkpt lat="36.09638981337292" lon="-5.470890432414937"><ele>107.0</ele><time>2026-04-25T15:42:24.999Z</time></trkpt><trkpt lat="36.09625370095397" lon="-5.47111249851174"><ele>106.0</ele><time>2026-04-25T15:42:25.999Z</time></trkpt><trkpt lat="36.09612175221035" lon="-5.4713357869124195"><ele>105.0</ele><time>2026-04-25T15:42:26.999Z</time></trkpt><trkpt lat="36.0959857903797" lon="-5.471552171448869"><ele>104.0</ele><time>2026-04-25T15:42:27.999Z</time></trkpt><trkpt lat="36.09584077343995" lon="-5.471757794306826"><ele>106.0</ele><time>2026-04-25T15:42:28.999Z</time></trkpt><trkpt lat="36.09568691285544" lon="-5.471944522828328"><ele>108.0</ele><time>2026-04-25T15:42:29.999Z</time></trkpt><trkpt lat="36.095513655106835" lon="-5.47211374730032"><ele>110.0</ele><time>2026-04-25T15:42:30.999Z</time></trkpt><trkpt lat="36.09532421367343" lon="-5.472257742720854"><ele>110.0</ele><time>2026-04-25T15:42:31.999Z</time></trkpt><trkpt lat="36.095127750347075" lon="-5.472381156063941"><ele>110.0</ele><time>2026-04-25T15:42:32.999Z</time></trkpt><trkpt lat="36.09493885280384" lon="-5.47250860590922"><ele>110.0</ele><time>2026-04-25T15:42:33.999Z</time></trkpt><trkpt lat="36.094760441396524" lon="-5.472623896196268"><ele>112.33333333333333</ele><time>2026-04-25T15:42:34.999Z</time></trkpt><trkpt lat="36.094588884449934" lon="-5.472748637067706"><ele>114.66666666666666</ele><time>2026-04-25T15:42:35.999Z</time></trkpt><trkpt lat="36.09442183834129" lon="-5.472896441099606"><ele>117.0</ele><time>2026-04-25T15:42:36.999Z</time></trkpt><trkpt lat="36.0942715974472" lon="-5.473086534823586"><ele>117.0</ele><time>2026-04-25T15:42:37.999Z</time></trkpt><trkpt lat="36.094136574972815" lon="-5.4732885216825515"><ele>117.0</ele><time>2026-04-25T15:42:38.999Z</time></trkpt><trkpt lat="36.094028799596835" lon="-5.473518732923366"><ele>117.0</ele><time>2026-04-25T15:42:39.999Z</time></trkpt><trkpt lat="36.09393843531842" lon="-5.473760721852042"><ele>120.0</ele><time>2026-04-25T15:42:40.999Z</time></trkpt><trkpt lat="36.09387039118079" lon="-5.474015779109721"><ele>123.0</ele><time>2026-04-25T15:42:41.999Z</time></trkpt><trkpt lat="36.09382905621344" lon="-5.474279071445597"><ele>126.0</ele><time>2026-04-25T15:42:42.999Z</time></trkpt><trkpt lat="36.0938076226352" lon="-5.474557629209245"><ele>128.5</ele><time>2026-04-25T15:42:43.999Z</time></trkpt><trkpt lat="36.093793033439084" lon="-5.474847121235122"><ele>131.0</ele><time>2026-04-25T15:42:44.999Z</time></trkpt><trkpt lat="36.09377684005562" lon="-5.475136792250757"><ele>131.0</ele><time>2026-04-25T15:42:45.999Z</time></trkpt><trkpt lat="36.093747406550335" lon="-5.475433591825136"><ele>131.0</ele><time>2026-04-25T15:42:46.999Z</time></trkpt><trkpt lat="36.09370331881577" lon="-5.475734181799398"><ele>131.5</ele><time>2026-04-25T15:42:47.999Z</time></trkpt><trkpt lat="36.09364520944368" lon="-5.476042408603368"><ele>132.0</ele><time>2026-04-25T15:42:48.999Z</time></trkpt><trkpt lat="36.093560374899695" lon="-5.476338437937351"><ele>132.5</ele><time>2026-04-25T15:42:49.999Z</time></trkpt><trkpt lat="36.0934749956994" lon="-5.476633394976493"><ele>133.0</ele><time>2026-04-25T15:42:50.999Z</time></trkpt><trkpt lat="36.09339290580517" lon="-5.476905842822464"><ele>133.0</ele><time>2026-04-25T15:42:51.999Z</time></trkpt><trkpt lat="36.09332374367834" lon="-5.477153553193305"><ele>133.0</ele><time>2026-04-25T15:42:52.999Z</time></trkpt><trkpt lat="36.09326819190118" lon="-5.4774103107341805"><ele>133.0</ele><time>2026-04-25T15:42:53.999Z</time></trkpt><trkpt lat="36.09322484676532" lon="-5.477683933595211"><ele>137.33333333333334</ele><time>2026-04-25T15:42:54.999Z</time></trkpt><trkpt lat="36.09319806993478" lon="-5.477961029557859"><ele>141.66666666666666</ele><time>2026-04-25T15:42:55.999Z</time></trkpt><trkpt lat="36.0931887008467" lon="-5.478228624263749"><ele>146.0</ele><time>2026-04-25T15:42:56.999Z</time></trkpt><trkpt lat="36.09317785077815" lon="-5.478471603851311"><ele>146.0</ele><time>2026-04-25T15:42:57.999Z</time></trkpt><trkpt lat="36.09315951362444" lon="-5.478697298543963"><ele>146.0</ele><time>2026-04-25T15:42:58.999Z</time></trkpt><trkpt lat="36.093111788897936" lon="-5.478929524206938"><ele>146.0</ele><time>2026-04-25T15:42:59.999Z</time></trkpt><trkpt lat="36.09303487673716" lon="-5.479152708211992"><ele>145.33333333333331</ele><time>2026-04-25T15:43:00.999Z</time></trkpt><trkpt lat="36.09293441119477" lon="-5.47935619603969"><ele>144.66666666666666</ele><time>2026-04-25T15:43:01.999Z</time></trkpt><trkpt lat="36.09279248032388" lon="-5.479527790475695"><ele>144.0</ele><time>2026-04-25T15:43:02.999Z</time></trkpt><trkpt lat="36.09262898542591" lon="-5.479687313570612"><ele>144.0</ele><time>2026-04-25T15:43:03.999Z</time></trkpt><trkpt lat="36.09243822660998" lon="-5.479818982445219"><ele>144.0</ele><time>2026-04-25T15:43:04.999Z</time></trkpt><trkpt lat="36.0922318875236" lon="-5.479915538696697"><ele>144.0</ele><time>2026-04-25T15:43:05.999Z</time></trkpt><trkpt lat="36.09200631576446" lon="-5.479979191224664"><ele>145.33333333333334</ele><time>2026-04-25T15:43:06.999Z</time></trkpt><trkpt lat="36.09178384955338" lon="-5.480025621322834"><ele>146.66666666666669</ele><time>2026-04-25T15:43:07.999Z</time></trkpt><trkpt lat="36.091579721900935" lon="-5.480078414524217"><ele>148.0</ele><time>2026-04-25T15:43:08.999Z</time></trkpt><trkpt lat="36.09139046095608" lon="-5.480144103005568"><ele>148.0</ele><time>2026-04-25T15:43:10Z</time></trkpt><trkpt lat="36.09120769659079" lon="-5.48024531743663"><ele>148.0</ele><time>2026-04-25T15:43:11Z</time></trkpt><trkpt lat="36.09102874510424" lon="-5.480362919830913"><ele>148.0</ele><time>2026-04-25T15:43:12Z</time></trkpt><trkpt lat="36.09087090332609" lon="-5.480514292171355"><ele>146.66666666666669</ele><time>2026-04-25T15:43:13Z</time></trkpt><trkpt lat="36.09073180080419" lon="-5.480682938584395"><ele>145.33333333333334</ele><time>2026-04-25T15:43:14Z</time></trkpt><trkpt lat="36.09059665783397" lon="-5.480862419491086"><ele>144.0</ele><time>2026-04-25T15:43:15Z</time></trkpt><trkpt lat="36.090475343376156" lon="-5.481060745303163"><ele>146.0</ele><time>2026-04-25T15:43:16Z</time></trkpt><trkpt lat="36.090360012998424" lon="-5.481266987649591"><ele>148.0</ele><time>2026-04-25T15:43:17Z</time></trkpt><trkpt lat="36.090243297080214" lon="-5.481473575383552"><ele>150.0</ele><time>2026-04-25T15:43:18Z</time></trkpt><trkpt lat="36.090110102483656" lon="-5.481683140550302"><ele>150.0</ele><time>2026-04-25T15:43:19Z</time></trkpt><trkpt lat="36.08997598169892" lon="-5.481898325970145"><ele>150.0</ele><time>2026-04-25T15:43:20Z</time></trkpt><trkpt lat="36.08984466728965" lon="-5.482118276993915"><ele>150.0</ele><time>2026-04-25T15:43:21Z</time></trkpt><trkpt lat="36.08972442892121" lon="-5.482342861692483"><ele>148.5</ele><time>2026-04-25T15:43:22Z</time></trkpt><trkpt lat="36.0896042231067" lon="-5.4825778632216045"><ele>147.0</ele><time>2026-04-25T15:43:23Z</time></trkpt><trkpt lat="36.08949383374461" lon="-5.482823801362935"><ele>152.0</ele><time>2026-04-25T15:43:24Z</time></trkpt><trkpt lat="36.089392937741145" lon="-5.483078025671796"><ele>157.0</ele><time>2026-04-25T15:43:25Z</time></trkpt><trkpt lat="36.089303670568306" lon="-5.483345149346517"><ele>157.0</ele><time>2026-04-25T15:43:26Z</time></trkpt><trkpt lat="36.089225502965505" lon="-5.483610883325867"><ele>157.0</ele><time>2026-04-25T15:43:27Z</time></trkpt><trkpt lat="36.089157090340926" lon="-5.483870269012603"><ele>157.0</ele><time>2026-04-25T15:43:28Z</time></trkpt><trkpt lat="36.08909838871451" lon="-5.484120799870534"><ele>156.33333333333334</ele><time>2026-04-25T15:43:29Z</time></trkpt><trkpt lat="36.08904271276882" lon="-5.484373186390754"><ele>155.66666666666666</ele><time>2026-04-25T15:43:30Z</time></trkpt><trkpt lat="36.08898604076017" lon="-5.484623502719737"><ele>155.0</ele><time>2026-04-25T15:43:31Z</time></trkpt><trkpt lat="36.088922859839904" lon="-5.484884942044696"><ele>155.0</ele><time>2026-04-25T15:43:32Z</time></trkpt><trkpt lat="36.08885342090885" lon="-5.485152776950557"><ele>155.0</ele><time>2026-04-25T15:43:33Z</time></trkpt><trkpt lat="36.088770117888934" lon="-5.485415738921304"><ele>160.0</ele><time>2026-04-25T15:43:34Z</time></trkpt><trkpt lat="36.08866827373116" lon="-5.485680182523236"><ele>165.0</ele><time>2026-04-25T15:43:35Z</time></trkpt><trkpt lat="36.08854598191518" lon="-5.485943600668309"><ele>165.0</ele><time>2026-04-25T15:43:36Z</time></trkpt><trkpt lat="36.0884160483286" lon="-5.486222260951117"><ele>165.0</ele><time>2026-04-25T15:43:37Z</time></trkpt><trkpt lat="36.08828602787471" lon="-5.486507732000208"><ele>160.0</ele><time>2026-04-25T15:43:38Z</time></trkpt><trkpt lat="36.088176894125496" lon="-5.486800497130918"><ele>155.0</ele><time>2026-04-25T15:43:39Z</time></trkpt><trkpt lat="36.08809110417543" lon="-5.4870830395506935"><ele>159.0</ele><time>2026-04-25T15:43:40Z</time></trkpt><trkpt lat="36.08802677290522" lon="-5.487354403635987"><ele>163.0</ele><time>2026-04-25T15:43:41Z</time></trkpt><trkpt lat="36.08796627049437" lon="-5.4876128598777365"><ele>167.0</ele><time>2026-04-25T15:43:42Z</time></trkpt><trkpt lat="36.087895648616126" lon="-5.487872105693432"><ele>169.66666666666666</ele><time>2026-04-25T15:43:43Z</time></trkpt><trkpt lat="36.08782903391775" lon="-5.488129924915659"><ele>172.33333333333334</ele><time>2026-04-25T15:43:44Z</time></trkpt><trkpt lat="36.087767574487216" lon="-5.488391060987327"><ele>175.0</ele><time>2026-04-25T15:43:45Z</time></trkpt><trkpt lat="36.087712968578465" lon="-5.4886442202617935"><ele>176.0</ele><time>2026-04-25T15:43:46Z</time></trkpt><trkpt lat="36.08766659497103" lon="-5.488895963976707"><ele>177.0</ele><time>2026-04-25T15:43:47Z</time></trkpt><trkpt lat="36.08762544829758" lon="-5.489152913796502"><ele>178.0</ele><time>2026-04-25T15:43:48Z</time></trkpt><trkpt lat="36.08758747613819" lon="-5.4894149537982075"><ele>179.33333333333334</ele><time>2026-04-25T15:43:49Z</time></trkpt><trkpt lat="36.087549111985304" lon="-5.489673540867664"><ele>180.66666666666666</ele><time>2026-04-25T15:43:50Z</time></trkpt><trkpt lat="36.08751199501154" lon="-5.489936494130322"><ele>182.0</ele><time>2026-04-25T15:43:51Z</time></trkpt><trkpt lat="36.08747074114111" lon="-5.490197419543821"><ele>183.66666666666666</ele><time>2026-04-25T15:43:52Z</time></trkpt><trkpt lat="36.08743028986614" lon="-5.490454982309215"><ele>185.33333333333334</ele><time>2026-04-25T15:43:53Z</time></trkpt><trkpt lat="36.08738712664784" lon="-5.490709349237428"><ele>187.0</ele><time>2026-04-25T15:43:54Z</time></trkpt><trkpt lat="36.08733581843326" lon="-5.490956685416622"><ele>186.66666666666669</ele><time>2026-04-25T15:43:55Z</time></trkpt><trkpt lat="36.08726949193199" lon="-5.491199850011554"><ele>186.33333333333334</ele><time>2026-04-25T15:43:56Z</time></trkpt><trkpt lat="36.08717332489735" lon="-5.491432283821911"><ele>186.0</ele><time>2026-04-25T15:43:57Z</time></trkpt><trkpt lat="36.08704879869145" lon="-5.491653864616005"><ele>186.0</ele><time>2026-04-25T15:43:58Z</time></trkpt><trkpt lat="36.08690314935948" lon="-5.491865894419364"><ele>186.0</ele><time>2026-04-25T15:43:59Z</time></trkpt><trkpt lat="36.08674846250359" lon="-5.492068957344327"><ele>185.66666666666666</ele><time>2026-04-25T15:44:00Z</time></trkpt><trkpt lat="36.08659632926713" lon="-5.49226327696695"><ele>185.33333333333331</ele><time>2026-04-25T15:44:01Z</time></trkpt><trkpt lat="36.086443800299136" lon="-5.492455845232458"><ele>185.0</ele><time>2026-04-25T15:44:02Z</time></trkpt><trkpt lat="36.086302616092695" lon="-5.49266606521467"><ele>185.0</ele><time>2026-04-25T15:44:02.999Z</time></trkpt><trkpt lat="36.08616550022602" lon="-5.49289029422111"><ele>185.0</ele><time>2026-04-25T15:44:03.999Z</time></trkpt><trkpt lat="36.08604227639503" lon="-5.493127094023538"><ele>187.33333333333331</ele><time>2026-04-25T15:44:04.999Z</time></trkpt><trkpt lat="36.08594078940253" lon="-5.493378445662875"><ele>189.66666666666666</ele><time>2026-04-25T15:44:05.999Z</time></trkpt><trkpt lat="36.08584755017306" lon="-5.493624721790883"><ele>192.0</ele><time>2026-04-25T15:44:06.999Z</time></trkpt><trkpt lat="36.08575669027719" lon="-5.493860228993279"><ele>192.0</ele><time>2026-04-25T15:44:07.999Z</time></trkpt><trkpt lat="36.085659736585946" lon="-5.494087440658275"><ele>192.0</ele><time>2026-04-25T15:44:08.999Z</time></trkpt><trkpt lat="36.08555850354649" lon="-5.494312497089113"><ele>192.0</ele><time>2026-04-25T15:44:09.999Z</time></trkpt><trkpt lat="36.085451163461904" lon="-5.494525775411571"><ele>196.33333333333331</ele><time>2026-04-25T15:44:10.999Z</time></trkpt><trkpt lat="36.08534141718911" lon="-5.49472490961128"><ele>200.66666666666666</ele><time>2026-04-25T15:44:11.999Z</time></trkpt><trkpt lat="36.08523133907054" lon="-5.494911914985679"><ele>205.0</ele><time>2026-04-25T15:44:12.999Z</time></trkpt><trkpt lat="36.08512227016549" lon="-5.495077935288262"><ele>205.0</ele><time>2026-04-25T15:44:13.999Z</time></trkpt><trkpt lat="36.085009973196705" lon="-5.4952443298145885"><ele>205.0</ele><time>2026-04-25T15:44:14.999Z</time></trkpt><trkpt lat="36.084903332284725" lon="-5.495406755900563"><ele>205.0</ele><time>2026-04-25T15:44:15.999Z</time></trkpt><trkpt lat="36.08479505357359" lon="-5.495578336746293"><ele>205.33333333333331</ele><time>2026-04-25T15:44:16.999Z</time></trkpt><trkpt lat="36.08468431818839" lon="-5.4957748922716565"><ele>205.66666666666669</ele><time>2026-04-25T15:44:17.999Z</time></trkpt><trkpt lat="36.08456352692603" lon="-5.495954128693649"><ele>206.0</ele><time>2026-04-25T15:44:18.999Z</time></trkpt><trkpt lat="36.08444079261313" lon="-5.496144732216504"><ele>206.33333333333334</ele><time>2026-04-25T15:44:19.999Z</time></trkpt><trkpt lat="36.08431560084773" lon="-5.496335449024801"><ele>206.66666666666669</ele><time>2026-04-25T15:44:20.999Z</time></trkpt><trkpt lat="36.084192144118866" lon="-5.496532163949432"><ele>207.0</ele><time>2026-04-25T15:44:21.999Z</time></trkpt><trkpt lat="36.08407725625184" lon="-5.496712412823524"><ele>207.0</ele><time>2026-04-25T15:44:22.999Z</time></trkpt><trkpt lat="36.08396798279291" lon="-5.496898712860449"><ele>207.0</ele><time>2026-04-25T15:44:23.999Z</time></trkpt><trkpt lat="36.0838727773131" lon="-5.4970919549205615"><ele>207.0</ele><time>2026-04-25T15:44:24.999Z</time></trkpt><trkpt lat="36.08379732341769" lon="-5.497296242597422"><ele>210.66666666666669</ele><time>2026-04-25T15:44:25.999Z</time></trkpt><trkpt lat="36.08374005956085" lon="-5.497503613052632"><ele>214.33333333333334</ele><time>2026-04-25T15:44:26.999Z</time></trkpt><trkpt lat="36.0837112572705" lon="-5.497727926534081"><ele>218.0</ele><time>2026-04-25T15:44:27.999Z</time></trkpt><trkpt lat="36.08365899802394" lon="-5.4979576771740915"><ele>219.0</ele><time>2026-04-25T15:44:28.999Z</time></trkpt><trkpt lat="36.08362033471782" lon="-5.498201103096188"><ele>220.0</ele><time>2026-04-25T15:44:29.999Z</time></trkpt><trkpt lat="36.08357942112337" lon="-5.498447972469677"><ele>221.0</ele><time>2026-04-25T15:44:30.999Z</time></trkpt><trkpt lat="36.08353709033271" lon="-5.498699731961471"><ele>223.33333333333334</ele><time>2026-04-25T15:44:31.999Z</time></trkpt><trkpt lat="36.08349366060244" lon="-5.498964964970836"><ele>225.66666666666669</ele><time>2026-04-25T15:44:32.999Z</time></trkpt><trkpt lat="36.08345183162037" lon="-5.499242897909543"><ele>228.0</ele><time>2026-04-25T15:44:33.999Z</time></trkpt><trkpt lat="36.083404282309075" lon="-5.499531604501087"><ele>231.0</ele><time>2026-04-25T15:44:34.999Z</time></trkpt><trkpt lat="36.08335406741084" lon="-5.499832501713019"><ele>234.0</ele><time>2026-04-25T15:44:35.999Z</time></trkpt><trkpt lat="36.083299808468865" lon="-5.500141969918051"><ele>233.0</ele><time>2026-04-25T15:44:36.999Z</time></trkpt><trkpt lat="36.08322920855351" lon="-5.500453564881696"><ele>232.0</ele><time>2026-04-25T15:44:37.999Z</time></trkpt><trkpt lat="36.08315646654942" lon="-5.500776359984591"><ele>232.0</ele><time>2026-04-25T15:44:38.999Z</time></trkpt><trkpt lat="36.08308031792074" lon="-5.501099457171044"><ele>232.0</ele><time>2026-04-25T15:44:39.999Z</time></trkpt><trkpt lat="36.08299699308875" lon="-5.5014062360266385"><ele>236.5</ele><time>2026-04-25T15:44:40.999Z</time></trkpt><trkpt lat="36.082915191240666" lon="-5.5017005145530895"><ele>241.0</ele><time>2026-04-25T15:44:41.999Z</time></trkpt><trkpt lat="36.08284029087801" lon="-5.50197330090369"><ele>244.66666666666666</ele><time>2026-04-25T15:44:42.999Z</time></trkpt><trkpt lat="36.082763671054" lon="-5.5022328086117644"><ele>248.33333333333331</ele><time>2026-04-25T15:44:43.999Z</time></trkpt><trkpt lat="36.08268931272275" lon="-5.5024841585333"><ele>252.0</ele><time>2026-04-25T15:44:44.999Z</time></trkpt><trkpt lat="36.082612747006564" lon="-5.502726643950363"><ele>251.33333333333331</ele><time>2026-04-25T15:44:45.999Z</time></trkpt><trkpt lat="36.082536770261434" lon="-5.502958944979074"><ele>250.66666666666666</ele><time>2026-04-25T15:44:46.999Z</time></trkpt><trkpt lat="36.08247118962398" lon="-5.503177000272924"><ele>250.0</ele><time>2026-04-25T15:44:47.999Z</time></trkpt><trkpt lat="36.082412956740754" lon="-5.503403163284192"><ele>250.0</ele><time>2026-04-25T15:44:48.999Z</time></trkpt><trkpt lat="36.08235468455907" lon="-5.503636934257433"><ele>250.0</ele><time>2026-04-25T15:44:49.999Z</time></trkpt><trkpt lat="36.082288757365134" lon="-5.503864114436623"><ele>250.0</ele><time>2026-04-25T15:44:50.999Z</time></trkpt><trkpt lat="36.082222065726555" lon="-5.5040870973328895"><ele>252.0</ele><time>2026-04-25T15:44:51.999Z</time></trkpt><trkpt lat="36.082152491410326" lon="-5.5043022540773405"><ele>254.0</ele><time>2026-04-25T15:44:52.999Z</time></trkpt><trkpt lat="36.08208078061559" lon="-5.504516665733284"><ele>256.0</ele><time>2026-04-25T15:44:53.999Z</time></trkpt><trkpt lat="36.08200027246344" lon="-5.504726757454847"><ele>258.3333333333333</ele><time>2026-04-25T15:44:54.999Z</time></trkpt><trkpt lat="36.08190855371285" lon="-5.504934374906318"><ele>260.6666666666667</ele><time>2026-04-25T15:44:55.999Z</time></trkpt><trkpt lat="36.08179525453574" lon="-5.505139321659995"><ele>263.0</ele><time>2026-04-25T15:44:56.999Z</time></trkpt><trkpt lat="36.081668992936265" lon="-5.505339222914832"><ele>264.33333333333337</ele><time>2026-04-25T15:44:57.999Z</time></trkpt><trkpt lat="36.08152369580336" lon="-5.505534831436481"><ele>265.6666666666667</ele><time>2026-04-25T15:44:58.999Z</time></trkpt><trkpt lat="36.08135724764537" lon="-5.505720754143104"><ele>267.0</ele><time>2026-04-25T15:44:59.999Z</time></trkpt><trkpt lat="36.08116438020807" lon="-5.505885723905762"><ele>267.0</ele><time>2026-04-25T15:45:00.999Z</time></trkpt><trkpt lat="36.080951808344054" lon="-5.506044644431182"><ele>267.0</ele><time>2026-04-25T15:45:01.999Z</time></trkpt><trkpt lat="36.080721485493704" lon="-5.506222748122925"><ele>271.5</ele><time>2026-04-25T15:45:02.999Z</time></trkpt><trkpt lat="36.080445946320324" lon="-5.506342736086127"><ele>276.0</ele><time>2026-04-25T15:45:03.999Z</time></trkpt><trkpt lat="36.08015398956753" lon="-5.50641604339886"><ele>276.5</ele><time>2026-04-25T15:45:04.999Z</time></trkpt><trkpt lat="36.079852345748414" lon="-5.506428113921175"><ele>277.0</ele><time>2026-04-25T15:45:05.999Z</time></trkpt><trkpt lat="36.07955689474255" lon="-5.506460647444489"><ele>277.0</ele><time>2026-04-25T15:45:06.999Z</time></trkpt><trkpt lat="36.07928206741358" lon="-5.506464538185317"><ele>277.0</ele><time>2026-04-25T15:45:07.999Z</time></trkpt><trkpt lat="36.07902273359448" lon="-5.506466037064123"><ele>279.5</ele><time>2026-04-25T15:45:08.999Z</time></trkpt><trkpt lat="36.078775637877975" lon="-5.5064698551884375"><ele>282.0</ele><time>2026-04-25T15:45:09.998Z</time></trkpt><trkpt lat="36.07854324208464" lon="-5.506474711881819"><ele>282.0</ele><time>2026-04-25T15:45:10.998Z</time></trkpt><trkpt lat="36.07831775719617" lon="-5.506489617234841"><ele>282.0</ele><time>2026-04-25T15:45:11.998Z</time></trkpt><trkpt lat="36.078095884507285" lon="-5.50654541691982"><ele>281.0</ele><time>2026-04-25T15:45:12.998Z</time></trkpt><trkpt lat="36.077897864896855" lon="-5.506619514148376"><ele>280.0</ele><time>2026-04-25T15:45:13.998Z</time></trkpt><trkpt lat="36.07772318175088" lon="-5.506737211728811"><ele>279.0</ele><time>2026-04-25T15:45:14.998Z</time></trkpt><trkpt lat="36.077560714775124" lon="-5.5068814306340625"><ele>279.3333333333333</ele><time>2026-04-25T15:45:16Z</time></trkpt><trkpt lat="36.07741942663502" lon="-5.5070562587979754"><ele>279.66666666666663</ele><time>2026-04-25T15:45:17Z</time></trkpt><trkpt lat="36.07730788432629" lon="-5.507260826756834"><ele>280.0</ele><time>2026-04-25T15:45:18Z</time></trkpt><trkpt lat="36.077206276104334" lon="-5.507476393754977"><ele>280.0</ele><time>2026-04-25T15:45:19Z</time></trkpt><trkpt lat="36.07713200405435" lon="-5.507721448714388"><ele>280.0</ele><time>2026-04-25T15:45:20Z</time></trkpt><trkpt lat="36.07707178240216" lon="-5.507974346335281"><ele>280.0</ele><time>2026-04-25T15:45:21Z</time></trkpt><trkpt lat="36.077013498151004" lon="-5.508229318861365"><ele>283.3333333333333</ele><time>2026-04-25T15:45:22Z</time></trkpt><trkpt lat="36.076940552200405" lon="-5.508485698912288"><ele>286.6666666666667</ele><time>2026-04-25T15:45:23Z</time></trkpt><trkpt lat="36.07684585377734" lon="-5.508740790884311"><ele>290.0</ele><time>2026-04-25T15:45:24Z</time></trkpt><trkpt lat="36.07672617853087" lon="-5.508981368286689"><ele>292.5</ele><time>2026-04-25T15:45:25Z</time></trkpt><trkpt lat="36.07658273321799" lon="-5.509196130626247"><ele>295.0</ele><time>2026-04-25T15:45:26Z</time></trkpt><trkpt lat="36.07640101201283" lon="-5.509370891911212"><ele>295.0</ele><time>2026-04-25T15:45:27Z</time></trkpt><trkpt lat="36.076198850725916" lon="-5.509522177266291"><ele>295.0</ele><time>2026-04-25T15:45:28Z</time></trkpt><trkpt lat="36.07597544833259" lon="-5.50966470807683"><ele>298.5</ele><time>2026-04-25T15:45:29Z</time></trkpt><trkpt lat="36.07575036728004" lon="-5.509821965879116"><ele>302.0</ele><time>2026-04-25T15:45:30Z</time></trkpt><trkpt lat="36.0755210970669" lon="-5.509981727997184"><ele>302.0</ele><time>2026-04-25T15:45:31Z</time></trkpt><trkpt lat="36.075287518646746" lon="-5.510143081583242"><ele>302.0</ele><time>2026-04-25T15:45:32Z</time></trkpt><trkpt lat="36.07505132694298" lon="-5.510302233597555"><ele>306.5</ele><time>2026-04-25T15:45:33Z</time></trkpt><trkpt lat="36.07481508164732" lon="-5.51045889094267"><ele>311.0</ele><time>2026-04-25T15:45:34Z</time></trkpt><trkpt lat="36.074584274346755" lon="-5.510618656728578"><ele>311.0</ele><time>2026-04-25T15:45:35Z</time></trkpt><trkpt lat="36.074356875028414" lon="-5.510775618040245"><ele>311.0</ele><time>2026-04-25T15:45:36Z</time></trkpt><trkpt lat="36.07413072375333" lon="-5.51092664689279"><ele>312.5</ele><time>2026-04-25T15:45:37Z</time></trkpt><trkpt lat="36.07391128122127" lon="-5.511085983847397"><ele>314.0</ele><time>2026-04-25T15:45:38Z</time></trkpt><trkpt lat="36.07370382980544" lon="-5.51125805545642"><ele>316.5</ele><time>2026-04-25T15:45:39Z</time></trkpt><trkpt lat="36.073505431264195" lon="-5.511442704797077"><ele>319.0</ele><time>2026-04-25T15:45:40Z</time></trkpt><trkpt lat="36.07333159096832" lon="-5.511650195776994"><ele>323.0</ele><time>2026-04-25T15:45:41Z</time></trkpt><trkpt lat="36.07318116481131" lon="-5.511886978960054"><ele>327.0</ele><time>2026-04-25T15:45:42Z</time></trkpt><trkpt lat="36.07303368399922" lon="-5.512134887383246"><ele>327.0</ele><time>2026-04-25T15:45:43Z</time></trkpt><trkpt lat="36.072896636809666" lon="-5.512297209775931"><ele>327.0</ele><time>2026-04-25T15:45:44Z</time></trkpt><trkpt lat="36.072804914109085" lon="-5.512557710211892"><ele>327.0</ele><time>2026-04-25T15:45:45Z</time></trkpt><trkpt lat="36.072714698736874" lon="-5.5128196644937155"><ele>326.0</ele><time>2026-04-25T15:45:46Z</time></trkpt><trkpt lat="36.07265619610296" lon="-5.513099446901404"><ele>325.0</ele><time>2026-04-25T15:45:47Z</time></trkpt><trkpt lat="36.07259185066553" lon="-5.513374281405358"><ele>325.0</ele><time>2026-04-25T15:45:48Z</time></trkpt><trkpt lat="36.07251687350362" lon="-5.513653804601546"><ele>325.0</ele><time>2026-04-25T15:45:49Z</time></trkpt><trkpt lat="36.072445162237614" lon="-5.5139415602793065"><ele>318.0</ele><time>2026-04-25T15:45:50Z</time></trkpt><trkpt lat="36.07236820797513" lon="-5.514230106041798"><ele>311.0</ele><time>2026-04-25T15:45:51Z</time></trkpt><trkpt lat="36.0722895763478" lon="-5.514526383528864"><ele>309.5</ele><time>2026-04-25T15:45:52Z</time></trkpt><trkpt lat="36.07220972059574" lon="-5.5148204395014835"><ele>308.0</ele><time>2026-04-25T15:45:53Z</time></trkpt><trkpt lat="36.072132267119386" lon="-5.515109278204137"><ele>308.5</ele><time>2026-04-25T15:45:54Z</time></trkpt><trkpt lat="36.072057449907405" lon="-5.515406227566107"><ele>309.0</ele><time>2026-04-25T15:45:55Z</time></trkpt><trkpt lat="36.071978590820514" lon="-5.515699282032149"><ele>309.0</ele><time>2026-04-25T15:45:56Z</time></trkpt><trkpt lat="36.07190186348384" lon="-5.51598792412516"><ele>309.0</ele><time>2026-04-25T15:45:57Z</time></trkpt><trkpt lat="36.07182722592753" lon="-5.51627636568954"><ele>309.0</ele><time>2026-04-25T15:45:58Z</time></trkpt><trkpt lat="36.07174846418518" lon="-5.516558410208311"><ele>309.0</ele><time>2026-04-25T15:45:59Z</time></trkpt><trkpt lat="36.07166866423424" lon="-5.516840244557784"><ele>302.5</ele><time>2026-04-25T15:46:00Z</time></trkpt><trkpt lat="36.071591276531805" lon="-5.517120465517204"><ele>296.0</ele><time>2026-04-25T15:46:01Z</time></trkpt><trkpt lat="36.071515124229805" lon="-5.5174045567033465"><ele>296.0</ele><time>2026-04-25T15:46:02Z</time></trkpt><trkpt lat="36.07143973448754" lon="-5.5176953596328415"><ele>296.0</ele><time>2026-04-25T15:46:03Z</time></trkpt><trkpt lat="36.07136323574868" lon="-5.517987632013466"><ele>294.5</ele><time>2026-04-25T15:46:04Z</time></trkpt><trkpt lat="36.07128445675448" lon="-5.518278869219234"><ele>293.0</ele><time>2026-04-25T15:46:05Z</time></trkpt><trkpt lat="36.07121017900056" lon="-5.51857013087163"><ele>293.0</ele><time>2026-04-25T15:46:06Z</time></trkpt><trkpt lat="36.07113727228071" lon="-5.518867884732048"><ele>293.0</ele><time>2026-04-25T15:46:06.999Z</time></trkpt><trkpt lat="36.07105988341093" lon="-5.519165066973882"><ele>293.0</ele><time>2026-04-25T15:46:07.999Z</time></trkpt><trkpt lat="36.07097934016764" lon="-5.519466462643444"><ele>293.0</ele><time>2026-04-25T15:46:08.999Z</time></trkpt><trkpt lat="36.070900423917244" lon="-5.519767939007663"><ele>293.0</ele><time>2026-04-25T15:46:09.999Z</time></trkpt><trkpt lat="36.070820050152086" lon="-5.520061482483081"><ele>293.0</ele><time>2026-04-25T15:46:10.999Z</time></trkpt><trkpt lat="36.070742723466715" lon="-5.520351501964687"><ele>289.0</ele><time>2026-04-25T15:46:11.999Z</time></trkpt><trkpt lat="36.070662281186735" lon="-5.52063858913733"><ele>285.0</ele><time>2026-04-25T15:46:12.999Z</time></trkpt><trkpt lat="36.0705852677546" lon="-5.520921858922964"><ele>285.0</ele><time>2026-04-25T15:46:13.999Z</time></trkpt><trkpt lat="36.07050268040598" lon="-5.521206195224926"><ele>285.0</ele><time>2026-04-25T15:46:14.999Z</time></trkpt><trkpt lat="36.07040534536413" lon="-5.521480962676094"><ele>283.5</ele><time>2026-04-25T15:46:15.999Z</time></trkpt><trkpt lat="36.07028190321651" lon="-5.521736282267375"><ele>282.0</ele><time>2026-04-25T15:46:16.999Z</time></trkpt><trkpt lat="36.070133144563705" lon="-5.521974839796106"><ele>283.0</ele><time>2026-04-25T15:46:17.999Z</time></trkpt><trkpt lat="36.06997250329445" lon="-5.522191751240436"><ele>284.0</ele><time>2026-04-25T15:46:18.999Z</time></trkpt><trkpt lat="36.0698237629254" lon="-5.522391919203938"><ele>282.33333333333337</ele><time>2026-04-25T15:46:19.999Z</time></trkpt><trkpt lat="36.06969210521839" lon="-5.522597705387435"><ele>280.6666666666667</ele><time>2026-04-25T15:46:20.999Z</time></trkpt><trkpt lat="36.069584677822036" lon="-5.522821112360578"><ele>279.0</ele><time>2026-04-25T15:46:21.999Z</time></trkpt><trkpt lat="36.069500825185706" lon="-5.5230713686382"><ele>279.0</ele><time>2026-04-25T15:46:22.999Z</time></trkpt><trkpt lat="36.06945378978268" lon="-5.523348509825964"><ele>279.0</ele><time>2026-04-25T15:46:23.999Z</time></trkpt><trkpt lat="36.06943030795304" lon="-5.523627066021311"><ele>279.5</ele><time>2026-04-25T15:46:24.999Z</time></trkpt><trkpt lat="36.069411018778766" lon="-5.523907023025163"><ele>280.0</ele><time>2026-04-25T15:46:25.999Z</time></trkpt><trkpt lat="36.069381061522286" lon="-5.524185589386594"><ele>280.0</ele><time>2026-04-25T15:46:26.999Z</time></trkpt><trkpt lat="36.069335745965965" lon="-5.5244633499898095"><ele>280.0</ele><time>2026-04-25T15:46:27.999Z</time></trkpt><trkpt lat="36.069273598002866" lon="-5.524732293077015"><ele>278.3333333333333</ele><time>2026-04-25T15:46:28.999Z</time></trkpt><trkpt lat="36.069194677666864" lon="-5.524985235521148"><ele>276.6666666666667</ele><time>2026-04-25T15:46:29.999Z</time></trkpt><trkpt lat="36.06911056898821" lon="-5.525239521972788"><ele>275.0</ele><time>2026-04-25T15:46:30.999Z</time></trkpt><trkpt lat="36.069029596119655" lon="-5.5255010012856"><ele>271.5</ele><time>2026-04-25T15:46:31.999Z</time></trkpt><trkpt lat="36.06895831883686" lon="-5.525773133473072"><ele>268.0</ele><time>2026-04-25T15:46:32.999Z</time></trkpt><trkpt lat="36.068906257183556" lon="-5.526051854969156"><ele>269.5</ele><time>2026-04-25T15:46:33.999Z</time></trkpt><trkpt lat="36.068879189175625" lon="-5.52633853606664"><ele>271.0</ele><time>2026-04-25T15:46:34.999Z</time></trkpt><trkpt lat="36.068883604318366" lon="-5.526622243294427"><ele>271.0</ele><time>2026-04-25T15:46:35.999Z</time></trkpt><trkpt lat="36.068899522671636" lon="-5.5269005368026045"><ele>271.0</ele><time>2026-04-25T15:46:36.999Z</time></trkpt><trkpt lat="36.068939310737434" lon="-5.527165278644204"><ele>271.0</ele><time>2026-04-25T15:46:37.999Z</time></trkpt><trkpt lat="36.068992370216606" lon="-5.527413640425572"><ele>271.0</ele><time>2026-04-25T15:46:38.999Z</time></trkpt><trkpt lat="36.0690581200246" lon="-5.527641439198828"><ele>271.0</ele><time>2026-04-25T15:46:39.999Z</time></trkpt><trkpt lat="36.0691334108193" lon="-5.527846132697419"><ele>271.0</ele><time>2026-04-25T15:46:40.999Z</time></trkpt><trkpt lat="36.06921359094085" lon="-5.5280306515219495"><ele>272.66666666666663</ele><time>2026-04-25T15:46:41.999Z</time></trkpt><trkpt lat="36.06929657674386" lon="-5.528196751835014"><ele>274.3333333333333</ele><time>2026-04-25T15:46:42.999Z</time></trkpt><trkpt lat="36.069383313865686" lon="-5.528349253315892"><ele>276.0</ele><time>2026-04-25T15:46:43.999Z</time></trkpt><trkpt lat="36.069466129875444" lon="-5.528505883971371"><ele>276.0</ele><time>2026-04-25T15:46:44.999Z</time></trkpt><trkpt lat="36.0695355027864" lon="-5.528671360829943"><ele>276.0</ele><time>2026-04-25T15:46:45.999Z</time></trkpt><trkpt lat="36.06958938333274" lon="-5.528852294397901"><ele>276.0</ele><time>2026-04-25T15:46:46.999Z</time></trkpt><trkpt lat="36.06961737499901" lon="-5.52904048351103"><ele>274.3333333333333</ele><time>2026-04-25T15:46:47.999Z</time></trkpt><trkpt lat="36.069623643626215" lon="-5.52923904763509"><ele>272.66666666666663</ele><time>2026-04-25T15:46:48.999Z</time></trkpt><trkpt lat="36.069613855268535" lon="-5.529432143062834"><ele>271.0</ele><time>2026-04-25T15:46:49.999Z</time></trkpt><trkpt lat="36.06958314535535" lon="-5.529609076366787"><ele>270.25</ele><time>2026-04-25T15:46:50.999Z</time></trkpt><trkpt lat="36.06953535000214" lon="-5.529777423832434"><ele>269.5</ele><time>2026-04-25T15:46:51.999Z</time></trkpt><trkpt lat="36.06946896292354" lon="-5.5299320317128"><ele>268.75</ele><time>2026-04-25T15:46:52.999Z</time></trkpt><trkpt lat="36.06938873930004" lon="-5.530076664663833"><ele>268.0</ele><time>2026-04-25T15:46:53.999Z</time></trkpt><trkpt lat="36.06929095560014" lon="-5.530205534904924"><ele>268.0</ele><time>2026-04-25T15:46:54.999Z</time></trkpt><trkpt lat="36.06918840076062" lon="-5.530323305819684"><ele>268.0</ele><time>2026-04-25T15:46:55.999Z</time></trkpt><trkpt lat="36.06905926608256" lon="-5.530425170835949"><ele>268.0</ele><time>2026-04-25T15:46:56.999Z</time></trkpt><trkpt lat="36.06891131661888" lon="-5.530513797812796"><ele>268.3333333333333</ele><time>2026-04-25T15:46:57.999Z</time></trkpt><trkpt lat="36.0687541531837" lon="-5.5305728892308545"><ele>268.6666666666667</ele><time>2026-04-25T15:46:58.999Z</time></trkpt><trkpt lat="36.06859785569514" lon="-5.530606478291969"><ele>269.0</ele><time>2026-04-25T15:46:59.999Z</time></trkpt><trkpt lat="36.06845393741015" lon="-5.530620857501397"><ele>269.0</ele><time>2026-04-25T15:47:00.999Z</time></trkpt><trkpt lat="36.06832125739417" lon="-5.530636444595606"><ele>269.0</ele><time>2026-04-25T15:47:01.999Z</time></trkpt><trkpt lat="36.06820046612463" lon="-5.530672134034945"><ele>269.0</ele><time>2026-04-25T15:47:02.999Z</time></trkpt><trkpt lat="36.06807715205772" lon="-5.530682580458559"><ele>269.0</ele><time>2026-04-25T15:47:03.999Z</time></trkpt><trkpt lat="36.06796446509803" lon="-5.530713229975673"><ele>268.75</ele><time>2026-04-25T15:47:04.999Z</time></trkpt><trkpt lat="36.06785597549619" lon="-5.530753684777635"><ele>268.5</ele><time>2026-04-25T15:47:05.999Z</time></trkpt><trkpt lat="36.06774189760927" lon="-5.530816113591963"><ele>268.25</ele><time>2026-04-25T15:47:06.999Z</time></trkpt><trkpt lat="36.067613002753696" lon="-5.530887809729215"><ele>268.0</ele><time>2026-04-25T15:47:07.999Z</time></trkpt><trkpt lat="36.06747735833961" lon="-5.53098407299208"><ele>267.66666666666663</ele><time>2026-04-25T15:47:08.999Z</time></trkpt><trkpt lat="36.06733162299484" lon="-5.531099348805354"><ele>267.3333333333333</ele><time>2026-04-25T15:47:09.999Z</time></trkpt><trkpt lat="36.06717588538102" lon="-5.531229541158525"><ele>267.0</ele><time>2026-04-25T15:47:10.999Z</time></trkpt><trkpt lat="36.06702404805296" lon="-5.531361766189433"><ele>267.0</ele><time>2026-04-25T15:47:11.998Z</time></trkpt><trkpt lat="36.06686997195805" lon="-5.531490227122869"><ele>267.0</ele><time>2026-04-25T15:47:12.998Z</time></trkpt><trkpt lat="36.06672593998549" lon="-5.531615421021278"><ele>267.0</ele><time>2026-04-25T15:47:13.998Z</time></trkpt><trkpt lat="36.0665904736586" lon="-5.531730551042264"><ele>265.0</ele><time>2026-04-25T15:47:14.998Z</time></trkpt><trkpt lat="36.06645419605296" lon="-5.531846188049408"><ele>263.0</ele><time>2026-04-25T15:47:15.998Z</time></trkpt><trkpt lat="36.06632796363944" lon="-5.531953714202464"><ele>261.0</ele><time>2026-04-25T15:47:16.998Z</time></trkpt><trkpt lat="36.066212106407285" lon="-5.532055458587398"><ele>262.75</ele><time>2026-04-25T15:47:17.998Z</time></trkpt><trkpt lat="36.066104390312795" lon="-5.532154057071855"><ele>264.5</ele><time>2026-04-25T15:47:18.998Z</time></trkpt><trkpt lat="36.065993184757104" lon="-5.532246137623377"><ele>266.25</ele><time>2026-04-25T15:47:19.998Z</time></trkpt><trkpt lat="36.065879568495845" lon="-5.532340617567356"><ele>268.0</ele><time>2026-04-25T15:47:20.998Z</time></trkpt><trkpt lat="36.06576779635287" lon="-5.532427090708589"><ele>268.3333333333333</ele><time>2026-04-25T15:47:22Z</time></trkpt><trkpt lat="36.06565725390444" lon="-5.532543440657721"><ele>268.6666666666667</ele><time>2026-04-25T15:47:23Z</time></trkpt><trkpt lat="36.06551259422704" lon="-5.532627506073606"><ele>269.0</ele><time>2026-04-25T15:47:24Z</time></trkpt><trkpt lat="36.06533001197504" lon="-5.532675127007431"><ele>269.0</ele><time>2026-04-25T15:47:25Z</time></trkpt><trkpt lat="36.06515476780363" lon="-5.532741344763454"><ele>269.0</ele><time>2026-04-25T15:47:26Z</time></trkpt><trkpt lat="36.06498722163868" lon="-5.532780303932128"><ele>269.0</ele><time>2026-04-25T15:47:27Z</time></trkpt><trkpt lat="36.064819455669024" lon="-5.532828795893645"><ele>271.6666666666667</ele><time>2026-04-25T15:47:28Z</time></trkpt><trkpt lat="36.0646385557129" lon="-5.532917226672844"><ele>274.3333333333333</ele><time>2026-04-25T15:47:29Z</time></trkpt><trkpt lat="36.06446741202058" lon="-5.5330553703951395"><ele>277.0</ele><time>2026-04-25T15:47:30Z</time></trkpt><trkpt lat="36.06431375369386" lon="-5.5332332107254905"><ele>277.0</ele><time>2026-04-25T15:47:31Z</time></trkpt><trkpt lat="36.064194578250024" lon="-5.533446895490466"><ele>277.0</ele><time>2026-04-25T15:47:32Z</time></trkpt><trkpt lat="36.06411047614493" lon="-5.53369585864776"><ele>277.0</ele><time>2026-04-25T15:47:33Z</time></trkpt><trkpt lat="36.0640367024409" lon="-5.5339663014735505"><ele>275.5</ele><time>2026-04-25T15:47:34Z</time></trkpt><trkpt lat="36.06394885288929" lon="-5.534236277759557"><ele>274.0</ele><time>2026-04-25T15:47:35Z</time></trkpt><trkpt lat="36.06386928958743" lon="-5.5344959247874"><ele>278.3333333333333</ele><time>2026-04-25T15:47:36Z</time></trkpt><trkpt lat="36.06374894561866" lon="-5.534724051806077"><ele>282.6666666666667</ele><time>2026-04-25T15:47:37Z</time></trkpt><trkpt lat="36.06359287199099" lon="-5.534928643558515"><ele>287.0</ele><time>2026-04-25T15:47:38Z</time></trkpt><trkpt lat="36.06341589137101" lon="-5.535116026947715"><ele>288.5</ele><time>2026-04-25T15:47:39Z</time></trkpt><trkpt lat="36.063242597179546" lon="-5.535322782172955"><ele>290.0</ele><time>2026-04-25T15:47:40Z</time></trkpt><trkpt lat="36.06308218940347" lon="-5.5355656063229315"><ele>290.0</ele><time>2026-04-25T15:47:41Z</time></trkpt><trkpt lat="36.06294066178911" lon="-5.535844531125407"><ele>290.0</ele><time>2026-04-25T15:47:42Z</time></trkpt><trkpt lat="36.06281433732152" lon="-5.536142408480909"><ele>294.5</ele><time>2026-04-25T15:47:43Z</time></trkpt><trkpt lat="36.06269149453147" lon="-5.536440465391392"><ele>299.0</ele><time>2026-04-25T15:47:44Z</time></trkpt><trkpt lat="36.06256664351467" lon="-5.536731522317947"><ele>300.5</ele><time>2026-04-25T15:47:45Z</time></trkpt><trkpt lat="36.06244640345337" lon="-5.53699103971842"><ele>302.0</ele><time>2026-04-25T15:47:46Z</time></trkpt><trkpt lat="36.06232116476299" lon="-5.537202030390324"><ele>302.0</ele><time>2026-04-25T15:47:47Z</time></trkpt><trkpt lat="36.06216307761909" lon="-5.537391892834637"><ele>302.0</ele><time>2026-04-25T15:47:48Z</time></trkpt><trkpt lat="36.06196317263397" lon="-5.537538071545001"><ele>302.0</ele><time>2026-04-25T15:47:49Z</time></trkpt><trkpt lat="36.06174532455194" lon="-5.537638686835587"><ele>302.0</ele><time>2026-04-25T15:47:50Z</time></trkpt><trkpt lat="36.06152292400754" lon="-5.537699296233609"><ele>300.6666666666667</ele><time>2026-04-25T15:47:51Z</time></trkpt><trkpt lat="36.061326212066255" lon="-5.537785304329448"><ele>299.3333333333333</ele><time>2026-04-25T15:47:52Z</time></trkpt><trkpt lat="36.06114705395745" lon="-5.5378991531411685"><ele>298.0</ele><time>2026-04-25T15:47:53Z</time></trkpt><trkpt lat="36.06097430770213" lon="-5.538078404617856"><ele>304.5</ele><time>2026-04-25T15:47:54Z</time></trkpt><trkpt lat="36.06080294929538" lon="-5.538288218635342"><ele>311.0</ele><time>2026-04-25T15:47:55Z</time></trkpt><trkpt lat="36.060615527837484" lon="-5.5384721380734"><ele>311.0</ele><time>2026-04-25T15:47:56Z</time></trkpt><trkpt lat="36.060435062656495" lon="-5.538639412172382"><ele>311.0</ele><time>2026-04-25T15:47:57Z</time></trkpt><trkpt lat="36.06023553294102" lon="-5.538767651190982"><ele>311.0</ele><time>2026-04-25T15:47:58Z</time></trkpt><trkpt lat="36.06005189264565" lon="-5.538919099026972"><ele>311.0</ele><time>2026-04-25T15:47:59Z</time></trkpt><trkpt lat="36.05987091278516" lon="-5.539066721883247"><ele>311.0</ele><time>2026-04-25T15:48:00Z</time></trkpt><trkpt lat="36.059711733039606" lon="-5.539244040160321"><ele>311.0</ele><time>2026-04-25T15:48:01Z</time></trkpt><trkpt lat="36.059569389725105" lon="-5.539447738090999"><ele>311.0</ele><time>2026-04-25T15:48:02Z</time></trkpt><trkpt lat="36.05945266079195" lon="-5.5396799610231975"><ele>311.0</ele><time>2026-04-25T15:48:03Z</time></trkpt><trkpt lat="36.05934005434556" lon="-5.539939292183081"><ele>310.0</ele><time>2026-04-25T15:48:04Z</time></trkpt><trkpt lat="36.059211146215375" lon="-5.540200568289716"><ele>309.0</ele><time>2026-04-25T15:48:05Z</time></trkpt><trkpt lat="36.05909787331646" lon="-5.54048206505326"><ele>309.0</ele><time>2026-04-25T15:48:06Z</time></trkpt><trkpt lat="36.058980645228324" lon="-5.540753672342601"><ele>309.0</ele><time>2026-04-25T15:48:07Z</time></trkpt><trkpt lat="36.058858751751515" lon="-5.5410280063809845"><ele>315.0</ele><time>2026-04-25T15:48:08Z</time></trkpt><trkpt lat="36.058755526861624" lon="-5.541309333130308"><ele>321.0</ele><time>2026-04-25T15:48:09Z</time></trkpt><trkpt lat="36.05863740009378" lon="-5.541582288624813"><ele>321.0</ele><time>2026-04-25T15:48:10Z</time></trkpt><trkpt lat="36.058503263632026" lon="-5.541852670035376"><ele>321.0</ele><time>2026-04-25T15:48:11Z</time></trkpt><trkpt lat="36.05839042305967" lon="-5.542120470955482"><ele>320.0</ele><time>2026-04-25T15:48:12Z</time></trkpt><trkpt lat="36.05828652099263" lon="-5.542365916018892"><ele>319.0</ele><time>2026-04-25T15:48:13Z</time></trkpt><trkpt lat="36.0581938991236" lon="-5.542586244762761"><ele>318.0</ele><time>2026-04-25T15:48:14Z</time></trkpt><trkpt lat="36.05811442483417" lon="-5.542798853879549"><ele>317.0</ele><time>2026-04-25T15:48:15Z</time></trkpt><trkpt lat="36.05806225933087" lon="-5.543015831316979"><ele>316.0</ele><time>2026-04-25T15:48:16Z</time></trkpt><trkpt lat="36.0580481864275" lon="-5.543260476518295"><ele>315.0</ele><time>2026-04-25T15:48:16.999Z</time></trkpt><trkpt lat="36.058064080300795" lon="-5.543522129262078"><ele>313.0</ele><time>2026-04-25T15:48:17.999Z</time></trkpt><trkpt lat="36.05811140891199" lon="-5.54378543631633"><ele>311.0</ele><time>2026-04-25T15:48:18.999Z</time></trkpt><trkpt lat="36.05816171586432" lon="-5.544041443885982"><ele>309.0</ele><time>2026-04-25T15:48:19.999Z</time></trkpt><trkpt lat="36.05819235883786" lon="-5.544280679188217"><ele>309.0</ele><time>2026-04-25T15:48:20.999Z</time></trkpt><trkpt lat="36.05818571169943" lon="-5.544522568690122"><ele>309.0</ele><time>2026-04-25T15:48:21.999Z</time></trkpt><trkpt lat="36.05813475693264" lon="-5.544772471463363"><ele>309.0</ele><time>2026-04-25T15:48:22.999Z</time></trkpt><trkpt lat="36.05805561806727" lon="-5.5450098500337175"><ele>309.3333333333333</ele><time>2026-04-25T15:48:23.999Z</time></trkpt><trkpt lat="36.057961519357455" lon="-5.545234344340384"><ele>309.66666666666663</ele><time>2026-04-25T15:48:24.999Z</time></trkpt><trkpt lat="36.05787239102754" lon="-5.5454467912325365"><ele>310.0</ele><time>2026-04-25T15:48:25.999Z</time></trkpt><trkpt lat="36.0577873269842" lon="-5.5456587416266965"><ele>312.66666666666663</ele><time>2026-04-25T15:48:26.999Z</time></trkpt><trkpt lat="36.05769982376675" lon="-5.545874642352188"><ele>315.3333333333333</ele><time>2026-04-25T15:48:27.999Z</time></trkpt><trkpt lat="36.05764607257377" lon="-5.546109156173591"><ele>318.0</ele><time>2026-04-25T15:48:28.999Z</time></trkpt><trkpt lat="36.05758514415612" lon="-5.546338989208873"><ele>320.3333333333333</ele><time>2026-04-25T15:48:29.999Z</time></trkpt><trkpt lat="36.057526008699305" lon="-5.546576879663615"><ele>322.66666666666663</ele><time>2026-04-25T15:48:30.999Z</time></trkpt><trkpt lat="36.05747149508007" lon="-5.546810618004301"><ele>325.0</ele><time>2026-04-25T15:48:31.999Z</time></trkpt><trkpt lat="36.05741868736845" lon="-5.5470334327123005"><ele>320.66666666666663</ele><time>2026-04-25T15:48:32.999Z</time></trkpt><trkpt lat="36.05736819364911" lon="-5.547246436640004"><ele>316.3333333333333</ele><time>2026-04-25T15:48:33.999Z</time></trkpt><trkpt lat="36.05729701810633" lon="-5.547453209741024"><ele>312.0</ele><time>2026-04-25T15:48:34.999Z</time></trkpt><trkpt lat="36.0572028259439" lon="-5.5476294497947"><ele>312.0</ele><time>2026-04-25T15:48:35.999Z</time></trkpt><trkpt lat="36.057084007399645" lon="-5.547771641785916"><ele>312.0</ele><time>2026-04-25T15:48:36.999Z</time></trkpt><trkpt lat="36.05694036459595" lon="-5.547887583034975"><ele>312.0</ele><time>2026-04-25T15:48:37.999Z</time></trkpt><trkpt lat="36.05677370229597" lon="-5.547977268600456"><ele>311.6666666666667</ele><time>2026-04-25T15:48:38.999Z</time></trkpt><trkpt lat="36.056592968146745" lon="-5.5480471199128045"><ele>311.33333333333337</ele><time>2026-04-25T15:48:39.999Z</time></trkpt><trkpt lat="36.056409671859676" lon="-5.548119784875411"><ele>311.0</ele><time>2026-04-25T15:48:40.999Z</time></trkpt><trkpt lat="36.05622485902357" lon="-5.548215817675742"><ele>311.0</ele><time>2026-04-25T15:48:41.999Z</time></trkpt><trkpt lat="36.05604854348389" lon="-5.548344042055912"><ele>311.0</ele><time>2026-04-25T15:48:42.999Z</time></trkpt><trkpt lat="36.055875022379446" lon="-5.54849804916765"><ele>311.0</ele><time>2026-04-25T15:48:43.999Z</time></trkpt><trkpt lat="36.055718359295184" lon="-5.548673720431182"><ele>309.33333333333337</ele><time>2026-04-25T15:48:44.999Z</time></trkpt><trkpt lat="36.055588913022746" lon="-5.548844165730289"><ele>307.6666666666667</ele><time>2026-04-25T15:48:45.999Z</time></trkpt><trkpt lat="36.05547455884724" lon="-5.5490128304063235"><ele>306.0</ele><time>2026-04-25T15:48:46.999Z</time></trkpt><trkpt lat="36.055370990588045" lon="-5.549169864906069"><ele>306.0</ele><time>2026-04-25T15:48:47.999Z</time></trkpt><trkpt lat="36.05526399256944" lon="-5.549301744279885"><ele>306.0</ele><time>2026-04-25T15:48:48.999Z</time></trkpt><trkpt lat="36.05514582245438" lon="-5.54941973597566"><ele>306.0</ele><time>2026-04-25T15:48:49.999Z</time></trkpt><trkpt lat="36.055000847699205" lon="-5.5495050350839"><ele>306.3333333333333</ele><time>2026-04-25T15:48:50.999Z</time></trkpt><trkpt lat="36.05485277927311" lon="-5.549620163710117"><ele>306.66666666666663</ele><time>2026-04-25T15:48:51.999Z</time></trkpt><trkpt lat="36.05471311499407" lon="-5.549755417341752"><ele>307.0</ele><time>2026-04-25T15:48:52.999Z</time></trkpt><trkpt lat="36.054584130977595" lon="-5.54991324798215"><ele>307.0</ele><time>2026-04-25T15:48:53.999Z</time></trkpt><trkpt lat="36.05446647060218" lon="-5.550070098880465"><ele>307.0</ele><time>2026-04-25T15:48:54.999Z</time></trkpt><trkpt lat="36.05436392796472" lon="-5.550213255603631"><ele>307.0</ele><time>2026-04-25T15:48:55.999Z</time></trkpt><trkpt lat="36.05427896882035" lon="-5.5503591026194945"><ele>308.25</ele><time>2026-04-25T15:48:56.999Z</time></trkpt><trkpt lat="36.05422985042572" lon="-5.5505256182666525"><ele>309.5</ele><time>2026-04-25T15:48:57.999Z</time></trkpt><trkpt lat="36.0541993637164" lon="-5.550703070017913"><ele>310.75</ele><time>2026-04-25T15:48:58.999Z</time></trkpt><trkpt lat="36.05419442157466" lon="-5.550891375085126"><ele>312.0</ele><time>2026-04-25T15:48:59.999Z</time></trkpt><trkpt lat="36.054198905875026" lon="-5.551087655325026"><ele>311.6666666666667</ele><time>2026-04-25T15:49:00.999Z</time></trkpt><trkpt lat="36.05419365358919" lon="-5.551276587477655"><ele>311.33333333333337</ele><time>2026-04-25T15:49:01.999Z</time></trkpt><trkpt lat="36.05418478618189" lon="-5.551464033358545"><ele>311.0</ele><time>2026-04-25T15:49:02.999Z</time></trkpt><trkpt lat="36.05417321597438" lon="-5.55164924916209"><ele>311.0</ele><time>2026-04-25T15:49:03.999Z</time></trkpt><trkpt lat="36.05416267835771" lon="-5.551836575346505"><ele>311.0</ele><time>2026-04-25T15:49:04.999Z</time></trkpt><trkpt lat="36.05414788769071" lon="-5.552027503946507"><ele>311.0</ele><time>2026-04-25T15:49:05.999Z</time></trkpt><trkpt lat="36.05411853521405" lon="-5.552224877913973"><ele>303.0</ele><time>2026-04-25T15:49:06.999Z</time></trkpt><trkpt lat="36.054051972131234" lon="-5.5524019331564745"><ele>295.0</ele><time>2026-04-25T15:49:07.999Z</time></trkpt><trkpt lat="36.053956433254605" lon="-5.552560407228691"><ele>287.0</ele><time>2026-04-25T15:49:08.999Z</time></trkpt><trkpt lat="36.0538411465417" lon="-5.5526952260941425"><ele>287.0</ele><time>2026-04-25T15:49:09.999Z</time></trkpt><trkpt lat="36.05371570996067" lon="-5.552817697094949"><ele>287.0</ele><time>2026-04-25T15:49:10.999Z</time></trkpt><trkpt lat="36.053604844766205" lon="-5.552948659739151"><ele>287.0</ele><time>2026-04-25T15:49:11.999Z</time></trkpt><trkpt lat="36.05351848055683" lon="-5.5531071901920175"><ele>291.6666666666667</ele><time>2026-04-25T15:49:12.999Z</time></trkpt><trkpt lat="36.05346852627633" lon="-5.553285585292027"><ele>296.3333333333333</ele><time>2026-04-25T15:49:13.999Z</time></trkpt><trkpt lat="36.05341659596263" lon="-5.553465806859189"><ele>301.0</ele><time>2026-04-25T15:49:14.999Z</time></trkpt><trkpt lat="36.05334502413198" lon="-5.553620171921305"><ele>300.0</ele><time>2026-04-25T15:49:15.999Z</time></trkpt><trkpt lat="36.05324426000928" lon="-5.553744770051799"><ele>299.0</ele><time>2026-04-25T15:49:16.999Z</time></trkpt><trkpt lat="36.05311919108228" lon="-5.553836487757493"><ele>298.0</ele><time>2026-04-25T15:49:17.999Z</time></trkpt><trkpt lat="36.05297342374976" lon="-5.553898130229725"><ele>297.0</ele><time>2026-04-25T15:49:18.998Z</time></trkpt><trkpt lat="36.052825809838424" lon="-5.553937258093774"><ele>297.0</ele><time>2026-04-25T15:49:19.998Z</time></trkpt><trkpt lat="36.05268456289169" lon="-5.553978498592346"><ele>297.0</ele><time>2026-04-25T15:49:20.998Z</time></trkpt><trkpt lat="36.05255373137197" lon="-5.554041403092413"><ele>297.0</ele><time>2026-04-25T15:49:21.998Z</time></trkpt><trkpt lat="36.0524312064711" lon="-5.55410549630926"><ele>297.0</ele><time>2026-04-25T15:49:22.998Z</time></trkpt><trkpt lat="36.05231163261367" lon="-5.554179166393232"><ele>293.75</ele><time>2026-04-25T15:49:23.998Z</time></trkpt><trkpt lat="36.05221677656289" lon="-5.554294878053927"><ele>290.5</ele><time>2026-04-25T15:49:24.998Z</time></trkpt><trkpt lat="36.05211127418646" lon="-5.5543818184307545"><ele>287.25</ele><time>2026-04-25T15:49:25.998Z</time></trkpt><trkpt lat="36.052009625092154" lon="-5.554454438542604"><ele>284.0</ele><time>2026-04-25T15:49:26.998Z</time></trkpt><trkpt lat="36.0519039024084" lon="-5.554503887852977"><ele>284.0</ele><time>2026-04-25T15:49:28Z</time></trkpt><trkpt lat="36.05179233002053" lon="-5.554523597484152"><ele>284.0</ele><time>2026-04-25T15:49:29Z</time></trkpt><trkpt lat="36.05167328453379" lon="-5.554529576582403"><ele>284.0</ele><time>2026-04-25T15:49:30Z</time></trkpt><trkpt lat="36.051552352170745" lon="-5.554512401033955"><ele>284.0</ele><time>2026-04-25T15:49:31Z</time></trkpt><trkpt lat="36.051438083965145" lon="-5.554464644261209"><ele>283.0</ele><time>2026-04-25T15:49:32Z</time></trkpt><trkpt lat="36.05133158103248" lon="-5.554400505049265"><ele>282.0</ele><time>2026-04-25T15:49:33Z</time></trkpt><trkpt lat="36.051235801158334" lon="-5.554334240963817"><ele>281.0</ele><time>2026-04-25T15:49:34Z</time></trkpt><trkpt lat="36.051147771582585" lon="-5.554268553042094"><ele>280.0</ele><time>2026-04-25T15:49:35Z</time></trkpt><trkpt lat="36.051048889699715" lon="-5.554229569928169"><ele>279.0</ele><time>2026-04-25T15:49:36Z</time></trkpt><trkpt lat="36.050959630246496" lon="-5.554182155782298"><ele>279.0</ele><time>2026-04-25T15:49:37Z</time></trkpt><trkpt lat="36.050850235858576" lon="-5.554147143459861"><ele>279.0</ele><time>2026-04-25T15:49:38Z</time></trkpt><trkpt lat="36.05072924050868" lon="-5.55412375189086"><ele>279.0</ele><time>2026-04-25T15:49:39Z</time></trkpt><trkpt lat="36.05058910067391" lon="-5.554158715993534"><ele>279.0</ele><time>2026-04-25T15:49:40Z</time></trkpt><trkpt lat="36.050447124634694" lon="-5.5542345906044055"><ele>281.0</ele><time>2026-04-25T15:49:41Z</time></trkpt><trkpt lat="36.0503133741581" lon="-5.554340769707625"><ele>283.0</ele><time>2026-04-25T15:49:42Z</time></trkpt><trkpt lat="36.0502073623491" lon="-5.5545032311606874"><ele>285.0</ele><time>2026-04-25T15:49:43Z</time></trkpt><trkpt lat="36.050088377185475" lon="-5.554645177357896"><ele>285.0</ele><time>2026-04-25T15:49:44Z</time></trkpt><trkpt lat="36.04999841856832" lon="-5.554794266495065"><ele>285.0</ele><time>2026-04-25T15:49:45Z</time></trkpt><trkpt lat="36.049898708813046" lon="-5.554923646066577"><ele>285.0</ele><time>2026-04-25T15:49:46Z</time></trkpt><trkpt lat="36.04978383910569" lon="-5.55502776564763"><ele>285.0</ele><time>2026-04-25T15:49:47Z</time></trkpt><trkpt lat="36.04966188805889" lon="-5.5551127793458175"><ele>280.25</ele><time>2026-04-25T15:49:48Z</time></trkpt><trkpt lat="36.04952918015067" lon="-5.555172918862276"><ele>275.5</ele><time>2026-04-25T15:49:49Z</time></trkpt><trkpt lat="36.04939953186598" lon="-5.555209523070239"><ele>270.75</ele><time>2026-04-25T15:49:50Z</time></trkpt><trkpt lat="36.04927865095755" lon="-5.555266456473262"><ele>266.0</ele><time>2026-04-25T15:49:51Z</time></trkpt><trkpt lat="36.049155103527085" lon="-5.55529178640018"><ele>265.0</ele><time>2026-04-25T15:49:52Z</time></trkpt><trkpt lat="36.04904174564074" lon="-5.555344379225562"><ele>264.0</ele><time>2026-04-25T15:49:53Z</time></trkpt><trkpt lat="36.04892792495295" lon="-5.5554042070722165"><ele>263.0</ele><time>2026-04-25T15:49:54Z</time></trkpt><trkpt lat="36.048826984466565" lon="-5.555519694679921"><ele>262.0</ele><time>2026-04-25T15:49:55Z</time></trkpt><trkpt lat="36.04871574252351" lon="-5.555643600917393"><ele>262.0</ele><time>2026-04-25T15:49:56Z</time></trkpt><trkpt lat="36.04863774728069" lon="-5.555819376887978"><ele>262.0</ele><time>2026-04-25T15:49:57Z</time></trkpt><trkpt lat="36.04856209368563" lon="-5.55601677998751"><ele>262.0</ele><time>2026-04-25T15:49:58Z</time></trkpt><trkpt lat="36.04848069750817" lon="-5.556207733398074"><ele>264.0</ele><time>2026-04-25T15:49:59Z</time></trkpt><trkpt lat="36.048388831115744" lon="-5.5563749110357925"><ele>266.0</ele><time>2026-04-25T15:50:00Z</time></trkpt><trkpt lat="36.04827938716333" lon="-5.556516300745959"><ele>268.0</ele><time>2026-04-25T15:50:01Z</time></trkpt><trkpt lat="36.04815752605219" lon="-5.55663679183663"><ele>263.3333333333333</ele><time>2026-04-25T15:50:02Z</time></trkpt><trkpt lat="36.048025894656156" lon="-5.556747999183456"><ele>258.6666666666667</ele><time>2026-04-25T15:50:03Z</time></trkpt><trkpt lat="36.04789581341496" lon="-5.556848250982459"><ele>254.0</ele><time>2026-04-25T15:50:04Z</time></trkpt><trkpt lat="36.047770113297915" lon="-5.556942259514125"><ele>254.0</ele><time>2026-04-25T15:50:05Z</time></trkpt><trkpt lat="36.047649397307616" lon="-5.557032357420181"><ele>254.0</ele><time>2026-04-25T15:50:06Z</time></trkpt><trkpt lat="36.04752834166233" lon="-5.557118443512007"><ele>254.0</ele><time>2026-04-25T15:50:07Z</time></trkpt><trkpt lat="36.047402491949626" lon="-5.557182775608604"><ele>254.0</ele><time>2026-04-25T15:50:08Z</time></trkpt><trkpt lat="36.04727103169801" lon="-5.557213515310518"><ele>253.25</ele><time>2026-04-25T15:50:09Z</time></trkpt><trkpt lat="36.04713694572953" lon="-5.557213268528306"><ele>252.5</ele><time>2026-04-25T15:50:10Z</time></trkpt><trkpt lat="36.0470133023173" lon="-5.557190183303127"><ele>251.75</ele><time>2026-04-25T15:50:11Z</time></trkpt><trkpt lat="36.0469033592805" lon="-5.557195399839715"><ele>251.0</ele><time>2026-04-25T15:50:12Z</time></trkpt><trkpt lat="36.04679891692682" lon="-5.5572147509012"><ele>251.0</ele><time>2026-04-25T15:50:13Z</time></trkpt><trkpt lat="36.046689769706845" lon="-5.557236759144274"><ele>251.0</ele><time>2026-04-25T15:50:14Z</time></trkpt><trkpt lat="36.04659030365088" lon="-5.557302842789947"><ele>251.0</ele><time>2026-04-25T15:50:14.999Z</time></trkpt><trkpt lat="36.04650106743562" lon="-5.55740144844267"><ele>251.0</ele><time>2026-04-25T15:50:15.999Z</time></trkpt><trkpt lat="36.046424352233856" lon="-5.557528671344925"><ele>246.5</ele><time>2026-04-25T15:50:16.999Z</time></trkpt><trkpt lat="36.046362210501876" lon="-5.557671604655482"><ele>242.0</ele><time>2026-04-25T15:50:17.999Z</time></trkpt><trkpt lat="36.04632031001313" lon="-5.557830835263981"><ele>237.5</ele><time>2026-04-25T15:50:18.999Z</time></trkpt><trkpt lat="36.046297132063245" lon="-5.558000653295855"><ele>233.0</ele><time>2026-04-25T15:50:19.999Z</time></trkpt><trkpt lat="36.04628229375397" lon="-5.558176270996062"><ele>232.66666666666669</ele><time>2026-04-25T15:50:20.999Z</time></trkpt><trkpt lat="36.046275284150944" lon="-5.558375714129124"><ele>232.33333333333331</ele><time>2026-04-25T15:50:21.999Z</time></trkpt><trkpt lat="36.046256251504154" lon="-5.55860087345003"><ele>232.0</ele><time>2026-04-25T15:50:22.999Z</time></trkpt><trkpt lat="36.046238589950725" lon="-5.558845803599832"><ele>231.0</ele><time>2026-04-25T15:50:23.999Z</time></trkpt><trkpt lat="36.04622099489164" lon="-5.559078202999997"><ele>230.0</ele><time>2026-04-25T15:50:24.999Z</time></trkpt><trkpt lat="36.04620673836786" lon="-5.559286114531208"><ele>229.0</ele><time>2026-04-25T15:50:25.999Z</time></trkpt><trkpt lat="36.046191944688076" lon="-5.5594732728144685"><ele>228.75</ele><time>2026-04-25T15:50:26.999Z</time></trkpt><trkpt lat="36.04617675196313" lon="-5.559656987801873"><ele>228.5</ele><time>2026-04-25T15:50:27.999Z</time></trkpt><trkpt lat="36.0461491956829" lon="-5.559833397143603"><ele>228.25</ele><time>2026-04-25T15:50:28.999Z</time></trkpt><trkpt lat="36.04609398946835" lon="-5.559991787625275"><ele>228.0</ele><time>2026-04-25T15:50:29.999Z</time></trkpt><trkpt lat="36.04601370792938" lon="-5.560134315275524"><ele>228.0</ele><time>2026-04-25T15:50:30.999Z</time></trkpt><trkpt lat="36.04591815094258" lon="-5.560265229560542"><ele>228.0</ele><time>2026-04-25T15:50:31.999Z</time></trkpt><trkpt lat="36.04581684625471" lon="-5.5603735539609715"><ele>228.0</ele><time>2026-04-25T15:50:32.999Z</time></trkpt><trkpt lat="36.04570143161927" lon="-5.5604676641022515"><ele>228.0</ele><time>2026-04-25T15:50:33.999Z</time></trkpt><trkpt lat="36.045574647631504" lon="-5.560548959158323"><ele>228.0</ele><time>2026-04-25T15:50:34.999Z</time></trkpt><trkpt lat="36.045442615511256" lon="-5.560607113247645"><ele>228.0</ele><time>2026-04-25T15:50:35.999Z</time></trkpt><trkpt lat="36.04530780384848" lon="-5.560640149942205"><ele>228.0</ele><time>2026-04-25T15:50:36.999Z</time></trkpt><trkpt lat="36.0451736364571" lon="-5.56065016442458"><ele>228.0</ele><time>2026-04-25T15:50:37.999Z</time></trkpt><trkpt lat="36.045044784101115" lon="-5.560640387946933"><ele>228.5</ele><time>2026-04-25T15:50:38.999Z</time></trkpt><trkpt lat="36.04491719342236" lon="-5.560643059861657"><ele>229.0</ele><time>2026-04-25T15:50:39.999Z</time></trkpt><trkpt lat="36.0447941358782" lon="-5.56062941059313"><ele>229.5</ele><time>2026-04-25T15:50:40.999Z</time></trkpt><trkpt lat="36.04467151279266" lon="-5.56061539631618"><ele>230.0</ele><time>2026-04-25T15:50:41.999Z</time></trkpt><trkpt lat="36.044542918794214" lon="-5.560599508381633"><ele>230.0</ele><time>2026-04-25T15:50:42.999Z</time></trkpt><trkpt lat="36.04440601118982" lon="-5.560582593298596"><ele>230.0</ele><time>2026-04-25T15:50:43.999Z</time></trkpt><trkpt lat="36.04425799751606" lon="-5.560563475387667"><ele>230.0</ele><time>2026-04-25T15:50:44.999Z</time></trkpt><trkpt lat="36.04409332540922" lon="-5.560541071629667"><ele>228.0</ele><time>2026-04-25T15:50:45.999Z</time></trkpt><trkpt lat="36.04390899731791" lon="-5.560515993667576"><ele>226.0</ele><time>2026-04-25T15:50:46.999Z</time></trkpt><trkpt lat="36.04372523516876" lon="-5.560478640623994"><ele>224.0</ele><time>2026-04-25T15:50:47.999Z</time></trkpt><trkpt lat="36.04355311993052" lon="-5.560472103408127"><ele>224.0</ele><time>2026-04-25T15:50:48.999Z</time></trkpt><trkpt lat="36.04339598648716" lon="-5.560464277655477"><ele>224.0</ele><time>2026-04-25T15:50:49.999Z</time></trkpt><trkpt lat="36.04324553725629" lon="-5.560472796605292"><ele>224.0</ele><time>2026-04-25T15:50:50.999Z</time></trkpt><trkpt lat="36.04310254081477" lon="-5.56050213251693"><ele>219.33333333333334</ele><time>2026-04-25T15:50:51.999Z</time></trkpt><trkpt lat="36.04296315731238" lon="-5.560550034816194"><ele>214.66666666666669</ele><time>2026-04-25T15:50:52.999Z</time></trkpt><trkpt lat="36.04281987349339" lon="-5.56061218377592"><ele>210.0</ele><time>2026-04-25T15:50:53.999Z</time></trkpt><trkpt lat="36.04266923075093" lon="-5.560680359097106"><ele>210.0</ele><time>2026-04-25T15:50:54.999Z</time></trkpt><trkpt lat="36.04251511775902" lon="-5.560746984948893"><ele>210.0</ele><time>2026-04-25T15:50:55.999Z</time></trkpt><trkpt lat="36.04236614393327" lon="-5.560803696533411"><ele>210.0</ele><time>2026-04-25T15:50:56.999Z</time></trkpt><trkpt lat="36.042231166084306" lon="-5.560857136940235"><ele>207.25</ele><time>2026-04-25T15:50:57.999Z</time></trkpt><trkpt lat="36.04210619826167" lon="-5.5609081125661115"><ele>204.5</ele><time>2026-04-25T15:50:58.999Z</time></trkpt><trkpt lat="36.04198641024676" lon="-5.560957917289739"><ele>201.75</ele><time>2026-04-25T15:50:59.999Z</time></trkpt><trkpt lat="36.04186830985153" lon="-5.561006138133597"><ele>199.0</ele><time>2026-04-25T15:51:00.999Z</time></trkpt><trkpt lat="36.04174589643547" lon="-5.561060440791764"><ele>197.0</ele><time>2026-04-25T15:51:01.999Z</time></trkpt><trkpt lat="36.04162088935004" lon="-5.561132600965589"><ele>195.0</ele><time>2026-04-25T15:51:02.999Z</time></trkpt><trkpt lat="36.041498093335335" lon="-5.561229247531737"><ele>193.0</ele><time>2026-04-25T15:51:03.999Z</time></trkpt><trkpt lat="36.04138778182742" lon="-5.56134418819963"><ele>191.0</ele><time>2026-04-25T15:51:04.999Z</time></trkpt><trkpt lat="36.041287363767815" lon="-5.561495681769326"><ele>191.0</ele><time>2026-04-25T15:51:05.999Z</time></trkpt><trkpt lat="36.04120520322681" lon="-5.561661626978815"><ele>191.0</ele><time>2026-04-25T15:51:06.999Z</time></trkpt><trkpt lat="36.04113614560489" lon="-5.56183960016833"><ele>191.0</ele><time>2026-04-25T15:51:07.999Z</time></trkpt><trkpt lat="36.04109158842748" lon="-5.56203510072976"><ele>192.0</ele><time>2026-04-25T15:51:08.999Z</time></trkpt><trkpt lat="36.04105329566447" lon="-5.562230237305857"><ele>193.0</ele><time>2026-04-25T15:51:09.999Z</time></trkpt><trkpt lat="36.041008792014125" lon="-5.5624254567090565"><ele>194.0</ele><time>2026-04-25T15:51:10.999Z</time></trkpt><trkpt lat="36.0409618129872" lon="-5.562607479668094"><ele>194.0</ele><time>2026-04-25T15:51:11.999Z</time></trkpt><trkpt lat="36.040912162235905" lon="-5.562788140238134"><ele>194.0</ele><time>2026-04-25T15:51:12.999Z</time></trkpt><trkpt lat="36.040853743342" lon="-5.562983880937319"><ele>194.0</ele><time>2026-04-25T15:51:13.999Z</time></trkpt><trkpt lat="36.04078772855966" lon="-5.563192380687522"><ele>188.33333333333334</ele><time>2026-04-25T15:51:14.998Z</time></trkpt><trkpt lat="36.04072102464489" lon="-5.5633876572138306"><ele>182.66666666666669</ele><time>2026-04-25T15:51:15.998Z</time></trkpt><trkpt lat="36.04065057058302" lon="-5.563572173401004"><ele>177.0</ele><time>2026-04-25T15:51:16.998Z</time></trkpt><trkpt lat="36.04057771687731" lon="-5.563752004437998"><ele>177.0</ele><time>2026-04-25T15:51:17.998Z</time></trkpt><trkpt lat="36.04050149459494" lon="-5.56392962458626"><ele>177.0</ele><time>2026-04-25T15:51:18.998Z</time></trkpt><trkpt lat="36.040425161409146" lon="-5.564099769442113"><ele>177.0</ele><time>2026-04-25T15:51:19.998Z</time></trkpt><trkpt lat="36.0403520510079" lon="-5.564266631360621"><ele>177.0</ele><time>2026-04-25T15:51:20.998Z</time></trkpt><trkpt lat="36.04029454590432" lon="-5.564432464887426"><ele>177.0</ele><time>2026-04-25T15:51:21.998Z</time></trkpt><trkpt lat="36.04025802211662" lon="-5.564607557289247"><ele>177.0</ele><time>2026-04-25T15:51:22.998Z</time></trkpt><trkpt lat="36.040238287180145" lon="-5.564784526183842"><ele>177.0</ele><time>2026-04-25T15:51:23.998Z</time></trkpt><trkpt lat="36.04023584141699" lon="-5.564961150511361"><ele>176.0</ele><time>2026-04-25T15:51:24.998Z</time></trkpt><trkpt lat="36.040251457643315" lon="-5.565134383600916"><ele>175.0</ele><time>2026-04-25T15:51:25.998Z</time></trkpt><trkpt lat="36.040282040991784" lon="-5.565306180045433"><ele>174.0</ele><time>2026-04-25T15:51:26.998Z</time></trkpt><trkpt lat="36.04033953789189" lon="-5.565472074858721"><ele>173.0</ele><time>2026-04-25T15:51:27.998Z</time></trkpt><trkpt lat="36.04041538919929" lon="-5.565618630502199"><ele>171.75</ele><time>2026-04-25T15:51:28.998Z</time></trkpt><trkpt lat="36.04050790764023" lon="-5.56575338096035"><ele>170.5</ele><time>2026-04-25T15:51:29.998Z</time></trkpt><trkpt lat="36.04061271561878" lon="-5.565866097444485"><ele>169.25</ele><time>2026-04-25T15:51:30.998Z</time></trkpt><trkpt lat="36.04070858912621" lon="-5.565971243669464"><ele>168.0</ele><time>2026-04-25T15:51:31.998Z</time></trkpt><trkpt lat="36.04080072437437" lon="-5.566078040872163"><ele>168.0</ele><time>2026-04-25T15:51:32.998Z</time></trkpt><trkpt lat="36.0408843831851" lon="-5.566192021107591"><ele>168.0</ele><time>2026-04-25T15:51:34Z</time></trkpt><trkpt lat="36.04095387085096" lon="-5.566330690218463"><ele>168.0</ele><time>2026-04-25T15:51:35Z</time></trkpt><trkpt lat="36.041033609478916" lon="-5.56647827091816"><ele>168.0</ele><time>2026-04-25T15:51:36Z</time></trkpt><trkpt lat="36.04110077069389" lon="-5.566662387943734"><ele>163.0</ele><time>2026-04-25T15:51:37Z</time></trkpt><trkpt lat="36.04118399808589" lon="-5.566804393137022"><ele>158.0</ele><time>2026-04-25T15:51:38Z</time></trkpt><trkpt lat="36.04121638897433" lon="-5.566994368936671"><ele>153.0</ele><time>2026-04-25T15:51:39Z</time></trkpt><trkpt lat="36.041236411981224" lon="-5.567196536882939"><ele>152.75</ele><time>2026-04-25T15:51:40Z</time></trkpt><trkpt lat="36.04121038725804" lon="-5.567380489702197"><ele>152.5</ele><time>2026-04-25T15:51:41Z</time></trkpt><trkpt lat="36.04118608845482" lon="-5.567555812660165"><ele>152.25</ele><time>2026-04-25T15:51:42Z</time></trkpt><trkpt lat="36.04115770025465" lon="-5.5677274282084905"><ele>152.0</ele><time>2026-04-25T15:51:43Z</time></trkpt><trkpt lat="36.04113011956252" lon="-5.5678999421383635"><ele>152.0</ele><time>2026-04-25T15:51:44Z</time></trkpt><trkpt lat="36.041078630486524" lon="-5.568084962817344"><ele>152.0</ele><time>2026-04-25T15:51:45Z</time></trkpt><trkpt lat="36.041003089827306" lon="-5.568267183339982"><ele>152.0</ele><time>2026-04-25T15:51:46Z</time></trkpt><trkpt lat="36.04089240677244" lon="-5.568441910136599"><ele>150.33333333333331</ele><time>2026-04-25T15:51:47Z</time></trkpt><trkpt lat="36.04075748416544" lon="-5.568605789510018"><ele>148.66666666666666</ele><time>2026-04-25T15:51:48Z</time></trkpt><trkpt lat="36.040601973720385" lon="-5.56876565195636"><ele>147.0</ele><time>2026-04-25T15:51:49Z</time></trkpt><trkpt lat="36.04044352100991" lon="-5.568909136102308"><ele>150.33333333333334</ele><time>2026-04-25T15:51:50Z</time></trkpt><trkpt lat="36.04028278469042" lon="-5.569019343821643"><ele>153.66666666666669</ele><time>2026-04-25T15:51:51Z</time></trkpt><trkpt lat="36.04011868784434" lon="-5.5690975914195775"><ele>157.0</ele><time>2026-04-25T15:51:52Z</time></trkpt><trkpt lat="36.03994687644278" lon="-5.569142153216632"><ele>157.0</ele><time>2026-04-25T15:51:53Z</time></trkpt><trkpt lat="36.039761879998" lon="-5.569162772396172"><ele>157.0</ele><time>2026-04-25T15:51:54Z</time></trkpt><trkpt lat="36.0395827368981" lon="-5.569166629915559"><ele>157.0</ele><time>2026-04-25T15:51:55Z</time></trkpt><trkpt lat="36.039418082205316" lon="-5.569169601804871"><ele>157.0</ele><time>2026-04-25T15:51:56Z</time></trkpt><trkpt lat="36.03926379186585" lon="-5.569171638540755"><ele>157.0</ele><time>2026-04-25T15:51:57Z</time></trkpt><trkpt lat="36.03910803966659" lon="-5.5692184247795975"><ele>157.0</ele><time>2026-04-25T15:51:58Z</time></trkpt><trkpt lat="36.03893936909505" lon="-5.56924131191204"><ele>154.66666666666669</ele><time>2026-04-25T15:51:59Z</time></trkpt><trkpt lat="36.03877126450474" lon="-5.569301688223222"><ele>152.33333333333334</ele><time>2026-04-25T15:52:00Z</time></trkpt><trkpt lat="36.0385990548138" lon="-5.569401815294196"><ele>150.0</ele><time>2026-04-25T15:52:01Z</time></trkpt><trkpt lat="36.0384306434391" lon="-5.569508627838158"><ele>151.0</ele><time>2026-04-25T15:52:02Z</time></trkpt><trkpt lat="36.038279351611614" lon="-5.569641163715176"><ele>152.0</ele><time>2026-04-25T15:52:03Z</time></trkpt><trkpt lat="36.03813741901608" lon="-5.569786426668692"><ele>153.0</ele><time>2026-04-25T15:52:04Z</time></trkpt><trkpt lat="36.038004652640836" lon="-5.569944866721492"><ele>153.0</ele><time>2026-04-25T15:52:05Z</time></trkpt><trkpt lat="36.03787250179466" lon="-5.570101081589223"><ele>153.0</ele><time>2026-04-25T15:52:06Z</time></trkpt><trkpt lat="36.037735582852726" lon="-5.570255938888466"><ele>153.0</ele><time>2026-04-25T15:52:07Z</time></trkpt><trkpt lat="36.03760280638079" lon="-5.570397213318602"><ele>153.5</ele><time>2026-04-25T15:52:08Z</time></trkpt><trkpt lat="36.037483445310116" lon="-5.570526534947643"><ele>154.0</ele><time>2026-04-25T15:52:09Z</time></trkpt><trkpt lat="36.03737835764017" lon="-5.57064704386636"><ele>154.5</ele><time>2026-04-25T15:52:10Z</time></trkpt><trkpt lat="36.03727662293141" lon="-5.570763236768672"><ele>155.0</ele><time>2026-04-25T15:52:11Z</time></trkpt><trkpt lat="36.03716879268978" lon="-5.570883382017502"><ele>155.0</ele><time>2026-04-25T15:52:12Z</time></trkpt><trkpt lat="36.03705660414745" lon="-5.571008066194346"><ele>155.0</ele><time>2026-04-25T15:52:13Z</time></trkpt><trkpt lat="36.03694805785641" lon="-5.571135577069367"><ele>155.0</ele><time>2026-04-25T15:52:14Z</time></trkpt><trkpt lat="36.03683894316925" lon="-5.571260722155293"><ele>155.0</ele><time>2026-04-25T15:52:15Z</time></trkpt><trkpt lat="36.036722095470815" lon="-5.571383399953391"><ele>158.0</ele><time>2026-04-25T15:52:16Z</time></trkpt><trkpt lat="36.03659659187284" lon="-5.571501696025508"><ele>161.0</ele><time>2026-04-25T15:52:17Z</time></trkpt><trkpt lat="36.03646595605666" lon="-5.571607909191451"><ele>164.0</ele><time>2026-04-25T15:52:18Z</time></trkpt><trkpt lat="36.03631793424974" lon="-5.571699633497038"><ele>164.0</ele><time>2026-04-25T15:52:19Z</time></trkpt><trkpt lat="36.03616436895217" lon="-5.571770862036167"><ele>164.0</ele><time>2026-04-25T15:52:19.999Z</time></trkpt><trkpt lat="36.0360037989223" lon="-5.571819462333303"><ele>164.0</ele><time>2026-04-25T15:52:20.999Z</time></trkpt><trkpt lat="36.0358606711948" lon="-5.571852667150572"><ele>166.25</ele><time>2026-04-25T15:52:21.999Z</time></trkpt><trkpt lat="36.035723872785226" lon="-5.571873753227642"><ele>168.5</ele><time>2026-04-25T15:52:22.999Z</time></trkpt><trkpt lat="36.03558873633675" lon="-5.571920216760191"><ele>170.75</ele><time>2026-04-25T15:52:23.999Z</time></trkpt><trkpt lat="36.03544173343566" lon="-5.571939473693886"><ele>173.0</ele><time>2026-04-25T15:52:24.999Z</time></trkpt><trkpt lat="36.03530338737242" lon="-5.572005109296771"><ele>173.33333333333331</ele><time>2026-04-25T15:52:25.999Z</time></trkpt><trkpt lat="36.03517487604912" lon="-5.572102773588595"><ele>173.66666666666666</ele><time>2026-04-25T15:52:26.999Z</time></trkpt><trkpt lat="36.03505756872715" lon="-5.572221851645009"><ele>174.0</ele><time>2026-04-25T15:52:27.999Z</time></trkpt><trkpt lat="36.03495269564512" lon="-5.572360327564639"><ele>174.33333333333334</ele><time>2026-04-25T15:52:28.999Z</time></trkpt><trkpt lat="36.03486490832805" lon="-5.572525203191756"><ele>174.66666666666669</ele><time>2026-04-25T15:52:29.999Z</time></trkpt><trkpt lat="36.0347884503146" lon="-5.572703738209264"><ele>175.0</ele><time>2026-04-25T15:52:30.999Z</time></trkpt><trkpt lat="36.03472179385475" lon="-5.572898815597663"><ele>175.0</ele><time>2026-04-25T15:52:31.999Z</time></trkpt><trkpt lat="36.0346545048936" lon="-5.573106155917639"><ele>175.0</ele><time>2026-04-25T15:52:32.999Z</time></trkpt><trkpt lat="36.03458843277624" lon="-5.5733118731022495"><ele>175.0</ele><time>2026-04-25T15:52:33.999Z</time></trkpt><trkpt lat="36.03451779144483" lon="-5.573519724533171"><ele>173.33333333333334</ele><time>2026-04-25T15:52:34.999Z</time></trkpt><trkpt lat="36.03444545526844" lon="-5.573738679827966"><ele>171.66666666666666</ele><time>2026-04-25T15:52:35.999Z</time></trkpt><trkpt lat="36.03437694795809" lon="-5.5739457078124"><ele>170.0</ele><time>2026-04-25T15:52:36.999Z</time></trkpt><trkpt lat="36.034317698634844" lon="-5.57413406339966"><ele>170.0</ele><time>2026-04-25T15:52:37.999Z</time></trkpt><trkpt lat="36.034259099883634" lon="-5.574307913838375"><ele>170.0</ele><time>2026-04-25T15:52:38.999Z</time></trkpt><trkpt lat="36.03419188131481" lon="-5.574474372394189"><ele>170.0</ele><time>2026-04-25T15:52:39.999Z</time></trkpt><trkpt lat="36.03411320374661" lon="-5.5746376025323"><ele>169.33333333333331</ele><time>2026-04-25T15:52:40.999Z</time></trkpt><trkpt lat="36.034024437211016" lon="-5.574795859197832"><ele>168.66666666666666</ele><time>2026-04-25T15:52:41.999Z</time></trkpt><trkpt lat="36.033918037741806" lon="-5.574960122708363"><ele>168.0</ele><time>2026-04-25T15:52:42.999Z</time></trkpt><trkpt lat="36.033796952494264" lon="-5.575106323107787"><ele>168.0</ele><time>2026-04-25T15:52:43.999Z</time></trkpt><trkpt lat="36.03365850219846" lon="-5.57524871490811"><ele>168.0</ele><time>2026-04-25T15:52:44.999Z</time></trkpt><trkpt lat="36.03352033178021" lon="-5.575383589077221"><ele>168.0</ele><time>2026-04-25T15:52:45.999Z</time></trkpt><trkpt lat="36.033382375095556" lon="-5.57551345372409"><ele>162.33333333333334</ele><time>2026-04-25T15:52:46.999Z</time></trkpt><trkpt lat="36.03324492886357" lon="-5.575650470602017"><ele>156.66666666666669</ele><time>2026-04-25T15:52:47.999Z</time></trkpt><trkpt lat="36.03310332164806" lon="-5.57579600302801"><ele>151.0</ele><time>2026-04-25T15:52:48.999Z</time></trkpt><trkpt lat="36.032973887065125" lon="-5.5759549749874875"><ele>151.0</ele><time>2026-04-25T15:52:49.999Z</time></trkpt><trkpt lat="36.03286875984369" lon="-5.576116356234819"><ele>151.0</ele><time>2026-04-25T15:52:50.999Z</time></trkpt><trkpt lat="36.03278139609235" lon="-5.576289500647519"><ele>151.0</ele><time>2026-04-25T15:52:51.999Z</time></trkpt><trkpt lat="36.032699007196115" lon="-5.576482736863172"><ele>153.0</ele><time>2026-04-25T15:52:52.999Z</time></trkpt><trkpt lat="36.032630312176025" lon="-5.57669840000858"><ele>155.0</ele><time>2026-04-25T15:52:53.999Z</time></trkpt><trkpt lat="36.0325714992759" lon="-5.5769267580551505"><ele>157.0</ele><time>2026-04-25T15:52:54.999Z</time></trkpt><trkpt lat="36.03252387314484" lon="-5.5771640425455695"><ele>157.33333333333334</ele><time>2026-04-25T15:52:55.999Z</time></trkpt><trkpt lat="36.032484656974155" lon="-5.57741027030953"><ele>157.66666666666666</ele><time>2026-04-25T15:52:56.999Z</time></trkpt><trkpt lat="36.03244405036723" lon="-5.5776685296609765"><ele>158.0</ele><time>2026-04-25T15:52:57.999Z</time></trkpt><trkpt lat="36.032400970523426" lon="-5.577919896691845"><ele>149.66666666666666</ele><time>2026-04-25T15:52:58.999Z</time></trkpt><trkpt lat="36.03235997169278" lon="-5.578160117969299"><ele>141.33333333333334</ele><time>2026-04-25T15:52:59.999Z</time></trkpt><trkpt lat="36.032317390798255" lon="-5.578398650878211"><ele>133.0</ele><time>2026-04-25T15:53:00.999Z</time></trkpt><trkpt lat="36.032271395328735" lon="-5.57862901511882"><ele>134.66666666666669</ele><time>2026-04-25T15:53:01.999Z</time></trkpt><trkpt lat="36.032220356704556" lon="-5.5788469202172175"><ele>136.33333333333334</ele><time>2026-04-25T15:53:02.999Z</time></trkpt><trkpt lat="36.03216418800603" lon="-5.579068214337838"><ele>138.0</ele><time>2026-04-25T15:53:03.999Z</time></trkpt><trkpt lat="36.032099822026645" lon="-5.579286478002246"><ele>138.0</ele><time>2026-04-25T15:53:04.999Z</time></trkpt><trkpt lat="36.03203139142606" lon="-5.57950890186656"><ele>138.0</ele><time>2026-04-25T15:53:05.999Z</time></trkpt><trkpt lat="36.03195605639947" lon="-5.579730223976605"><ele>138.0</ele><time>2026-04-25T15:53:06.999Z</time></trkpt><trkpt lat="36.03188045714713" lon="-5.579960048658152"><ele>138.33333333333334</ele><time>2026-04-25T15:53:07.999Z</time></trkpt><trkpt lat="36.03180790956134" lon="-5.58017933633602"><ele>138.66666666666669</ele><time>2026-04-25T15:53:08.999Z</time></trkpt><trkpt lat="36.0317382943056" lon="-5.5803877401168736"><ele>139.0</ele><time>2026-04-25T15:53:09.999Z</time></trkpt><trkpt lat="36.03167151064964" lon="-5.580592471962657"><ele>133.0</ele><time>2026-04-25T15:53:10.999Z</time></trkpt><trkpt lat="36.03160273776199" lon="-5.580794176916981"><ele>127.0</ele><time>2026-04-25T15:53:11.999Z</time></trkpt><trkpt lat="36.03152875602738" lon="-5.580992908554739"><ele>121.0</ele><time>2026-04-25T15:53:12.999Z</time></trkpt><trkpt lat="36.03144900493274" lon="-5.581179484293576"><ele>123.33333333333334</ele><time>2026-04-25T15:53:13.999Z</time></trkpt><trkpt lat="36.03136607354628" lon="-5.581359282136462"><ele>125.66666666666666</ele><time>2026-04-25T15:53:14.999Z</time></trkpt><trkpt lat="36.03128622324534" lon="-5.581530253334367"><ele>128.0</ele><time>2026-04-25T15:53:15.999Z</time></trkpt><trkpt lat="36.03119785532421" lon="-5.5816995370435984"><ele>128.0</ele><time>2026-04-25T15:53:16.999Z</time></trkpt><trkpt lat="36.031103406653955" lon="-5.581866654919435"><ele>128.0</ele><time>2026-04-25T15:53:17.999Z</time></trkpt><trkpt lat="36.03100762854977" lon="-5.582027121030932"><ele>128.0</ele><time>2026-04-25T15:53:18.999Z</time></trkpt><trkpt lat="36.030903203441184" lon="-5.5821959483879215"><ele>123.66666666666666</ele><time>2026-04-25T15:53:19.998Z</time></trkpt><trkpt lat="36.0307971152767" lon="-5.582369478721746"><ele>119.33333333333334</ele><time>2026-04-25T15:53:20.998Z</time></trkpt><trkpt lat="36.03068628658726" lon="-5.582549722382762"><ele>115.0</ele><time>2026-04-25T15:53:21.998Z</time></trkpt><trkpt lat="36.03057075865551" lon="-5.5827317664570275"><ele>116.66666666666667</ele><time>2026-04-25T15:53:22.998Z</time></trkpt><trkpt lat="36.030448316203895" lon="-5.582912812607082"><ele>118.33333333333334</ele><time>2026-04-25T15:53:23.998Z</time></trkpt><trkpt lat="36.03032216124262" lon="-5.583090377348666"><ele>120.0</ele><time>2026-04-25T15:53:24.998Z</time></trkpt><trkpt lat="36.03019527109124" lon="-5.583249400032231"><ele>120.0</ele><time>2026-04-25T15:53:25.998Z</time></trkpt><trkpt lat="36.030061160674606" lon="-5.5833984678443205"><ele>120.0</ele><time>2026-04-25T15:53:26.998Z</time></trkpt><trkpt lat="36.02994016126556" lon="-5.5835419161643"><ele>120.0</ele><time>2026-04-25T15:53:27.998Z</time></trkpt><trkpt lat="36.02981802654335" lon="-5.583683450978333"><ele>119.0</ele><time>2026-04-25T15:53:28.998Z</time></trkpt><trkpt lat="36.02969974583397" lon="-5.583812502911029"><ele>118.0</ele><time>2026-04-25T15:53:29.998Z</time></trkpt><trkpt lat="36.02957947043573" lon="-5.58394993285987"><ele>117.0</ele><time>2026-04-25T15:53:30.998Z</time></trkpt><trkpt lat="36.02944913593324" lon="-5.584100431401531"><ele>117.0</ele><time>2026-04-25T15:53:31.998Z</time></trkpt><trkpt lat="36.029312021299376" lon="-5.58425503004952"><ele>117.0</ele><time>2026-04-25T15:53:32.998Z</time></trkpt><trkpt lat="36.02917338518773" lon="-5.584406116934225"><ele>117.0</ele><time>2026-04-25T15:53:33.998Z</time></trkpt><trkpt lat="36.029041038234816" lon="-5.584556380967947"><ele>114.66666666666666</ele><time>2026-04-25T15:53:34.998Z</time></trkpt><trkpt lat="36.02891379846371" lon="-5.584700845528757"><ele>112.33333333333333</ele><time>2026-04-25T15:53:35.998Z</time></trkpt><trkpt lat="36.028786072320834" lon="-5.58484355643428"><ele>110.0</ele><time>2026-04-25T15:53:36.998Z</time></trkpt><trkpt lat="36.02866310879973" lon="-5.584991216216691"><ele>110.0</ele><time>2026-04-25T15:53:37.998Z</time></trkpt><trkpt lat="36.02854758368149" lon="-5.585135590450032"><ele>110.0</ele><time>2026-04-25T15:53:38.998Z</time></trkpt><trkpt lat="36.02843748278202" lon="-5.585276644306392"><ele>110.0</ele><time>2026-04-25T15:53:40Z</time></trkpt><trkpt lat="36.02832759848753" lon="-5.5854195768534325"><ele>109.25</ele><time>2026-04-25T15:53:41Z</time></trkpt><trkpt lat="36.028231281920846" lon="-5.5855598388338095"><ele>108.5</ele><time>2026-04-25T15:53:42Z</time></trkpt><trkpt lat="36.02813042187103" lon="-5.585693811517879"><ele>107.75</ele><time>2026-04-25T15:53:43Z</time></trkpt><trkpt lat="36.028036493729154" lon="-5.585824986813069"><ele>107.0</ele><time>2026-04-25T15:53:44Z</time></trkpt><trkpt lat="36.02794699324331" lon="-5.585958969241687"><ele>107.0</ele><time>2026-04-25T15:53:45Z</time></trkpt><trkpt lat="36.02784360549162" lon="-5.586096634243011"><ele>107.0</ele><time>2026-04-25T15:53:46Z</time></trkpt><trkpt lat="36.027740012989575" lon="-5.586234795452983"><ele>107.0</ele><time>2026-04-25T15:53:47Z</time></trkpt><trkpt lat="36.027647380181165" lon="-5.58636861593139"><ele>107.0</ele><time>2026-04-25T15:53:48Z</time></trkpt><trkpt lat="36.027552513198614" lon="-5.586502584501967"><ele>104.66666666666666</ele><time>2026-04-25T15:53:49Z</time></trkpt><trkpt lat="36.027445092842825" lon="-5.586643564625453"><ele>102.33333333333334</ele><time>2026-04-25T15:53:50Z</time></trkpt><trkpt lat="36.02733797457399" lon="-5.586791074391396"><ele>100.0</ele><time>2026-04-25T15:53:51Z</time></trkpt><trkpt lat="36.02723207634275" lon="-5.58694396122391"><ele>100.66666666666667</ele><time>2026-04-25T15:53:52Z</time></trkpt><trkpt lat="36.02712670064616" lon="-5.587096871909398"><ele>101.33333333333334</ele><time>2026-04-25T15:53:53Z</time></trkpt><trkpt lat="36.027028867409335" lon="-5.587252084428733"><ele>102.0</ele><time>2026-04-25T15:53:54Z</time></trkpt><trkpt lat="36.026929520402106" lon="-5.587427655590104"><ele>102.0</ele><time>2026-04-25T15:53:55Z</time></trkpt><trkpt lat="36.026837338886125" lon="-5.58760032600979"><ele>102.0</ele><time>2026-04-25T15:53:56Z</time></trkpt><trkpt lat="36.02674513257341" lon="-5.587776204091175"><ele>102.0</ele><time>2026-04-25T15:53:57Z</time></trkpt><trkpt lat="36.026648027403574" lon="-5.587957306499008"><ele>99.0</ele><time>2026-04-25T15:53:58Z</time></trkpt><trkpt lat="36.02655188903583" lon="-5.58815022594868"><ele>96.0</ele><time>2026-04-25T15:53:59Z</time></trkpt><trkpt lat="36.02646405375198" lon="-5.588337306452175"><ele>93.0</ele><time>2026-04-25T15:54:00Z</time></trkpt><trkpt lat="36.0263803956925" lon="-5.588519876504327"><ele>92.0</ele><time>2026-04-25T15:54:01Z</time></trkpt><trkpt lat="36.026301373642546" lon="-5.588693595630344"><ele>91.0</ele><time>2026-04-25T15:54:02Z</time></trkpt><trkpt lat="36.02622279602879" lon="-5.588862771051212"><ele>90.0</ele><time>2026-04-25T15:54:03Z</time></trkpt><trkpt lat="36.026142289453766" lon="-5.589028550569334"><ele>90.0</ele><time>2026-04-25T15:54:04Z</time></trkpt><trkpt lat="36.02605810421357" lon="-5.589203540785162"><ele>90.0</ele><time>2026-04-25T15:54:05Z</time></trkpt><trkpt lat="36.025975134868496" lon="-5.589382269582951"><ele>90.0</ele><time>2026-04-25T15:54:06Z</time></trkpt><trkpt lat="36.02589689875857" lon="-5.589546310287587"><ele>87.66666666666667</ele><time>2026-04-25T15:54:07Z</time></trkpt><trkpt lat="36.02581407310887" lon="-5.589718183569995"><ele>85.33333333333334</ele><time>2026-04-25T15:54:08Z</time></trkpt><trkpt lat="36.025727052960825" lon="-5.589907646980537"><ele>83.0</ele><time>2026-04-25T15:54:09Z</time></trkpt><trkpt lat="36.025634288584946" lon="-5.59010099352213"><ele>83.0</ele><time>2026-04-25T15:54:10Z</time></trkpt><trkpt lat="36.02553882620326" lon="-5.590297771617427"><ele>83.0</ele><time>2026-04-25T15:54:11Z</time></trkpt><trkpt lat="36.02544144027746" lon="-5.590505052472738"><ele>83.0</ele><time>2026-04-25T15:54:12Z</time></trkpt><trkpt lat="36.02534380585082" lon="-5.590699798271398"><ele>81.33333333333334</ele><time>2026-04-25T15:54:13Z</time></trkpt><trkpt lat="36.025250168366235" lon="-5.590893219250583"><ele>79.66666666666667</ele><time>2026-04-25T15:54:14Z</time></trkpt><trkpt lat="36.02515874964251" lon="-5.591092585405753"><ele>78.0</ele><time>2026-04-25T15:54:15Z</time></trkpt><trkpt lat="36.02507645399792" lon="-5.591273977635676"><ele>77.0</ele><time>2026-04-25T15:54:16Z</time></trkpt><trkpt lat="36.02499834023957" lon="-5.591448831186142"><ele>76.0</ele><time>2026-04-25T15:54:17Z</time></trkpt><trkpt lat="36.0249058804334" lon="-5.591628666508284"><ele>75.0</ele><time>2026-04-25T15:54:18Z</time></trkpt><trkpt lat="36.024827911289535" lon="-5.591800456410662"><ele>76.66666666666667</ele><time>2026-04-25T15:54:19Z</time></trkpt><trkpt lat="36.02474360339872" lon="-5.591973171919149"><ele>78.33333333333334</ele><time>2026-04-25T15:54:20Z</time></trkpt><trkpt lat="36.024664541542535" lon="-5.592150363153851"><ele>80.0</ele><time>2026-04-25T15:54:21Z</time></trkpt><trkpt lat="36.02457633402342" lon="-5.592336015356469"><ele>80.0</ele><time>2026-04-25T15:54:22Z</time></trkpt><trkpt lat="36.0244832779079" lon="-5.592531225582834"><ele>80.0</ele><time>2026-04-25T15:54:22.999Z</time></trkpt><trkpt lat="36.02438830587649" lon="-5.592731517322109"><ele>80.0</ele><time>2026-04-25T15:54:23.999Z</time></trkpt><trkpt lat="36.02429799629064" lon="-5.592933232039604"><ele>78.33333333333334</ele><time>2026-04-25T15:54:24.999Z</time></trkpt><trkpt lat="36.0242277831918" lon="-5.593155593381636"><ele>76.66666666666667</ele><time>2026-04-25T15:54:25.999Z</time></trkpt><trkpt lat="36.02415005747623" lon="-5.5933724991531655"><ele>75.0</ele><time>2026-04-25T15:54:26.999Z</time></trkpt><trkpt lat="36.024079130869595" lon="-5.59360525850977"><ele>79.0</ele><time>2026-04-25T15:54:27.999Z</time></trkpt><trkpt lat="36.023993568491285" lon="-5.593826666270597"><ele>83.0</ele><time>2026-04-25T15:54:28.999Z</time></trkpt><trkpt lat="36.023924490030915" lon="-5.594058547439378"><ele>87.0</ele><time>2026-04-25T15:54:29.999Z</time></trkpt><trkpt lat="36.02386041835814" lon="-5.594272135931911"><ele>87.0</ele><time>2026-04-25T15:54:30.999Z</time></trkpt><trkpt lat="36.02380400491482" lon="-5.59447383539226"><ele>87.0</ele><time>2026-04-25T15:54:31.999Z</time></trkpt><trkpt lat="36.0237480976842" lon="-5.59466747574635"><ele>87.0</ele><time>2026-04-25T15:54:32.999Z</time></trkpt><trkpt lat="36.02369264826674" lon="-5.594852636556744"><ele>84.66666666666667</ele><time>2026-04-25T15:54:33.999Z</time></trkpt><trkpt lat="36.023641683542095" lon="-5.595036682030203"><ele>82.33333333333334</ele><time>2026-04-25T15:54:34.999Z</time></trkpt><trkpt lat="36.02359363360528" lon="-5.595215915208191"><ele>80.0</ele><time>2026-04-25T15:54:35.999Z</time></trkpt><trkpt lat="36.0235486552662" lon="-5.595391931512204"><ele>79.5</ele><time>2026-04-25T15:54:36.999Z</time></trkpt><trkpt lat="36.02350275539868" lon="-5.595556649944277"><ele>79.0</ele><time>2026-04-25T15:54:37.999Z</time></trkpt><trkpt lat="36.023460506321406" lon="-5.595711638523859"><ele>78.5</ele><time>2026-04-25T15:54:38.999Z</time></trkpt><trkpt lat="36.02341476138257" lon="-5.595882129063031"><ele>78.0</ele><time>2026-04-25T15:54:39.999Z</time></trkpt><trkpt lat="36.023367257089255" lon="-5.59605924753383"><ele>77.0</ele><time>2026-04-25T15:54:40.999Z</time></trkpt><trkpt lat="36.02331546122543" lon="-5.5962476984541665"><ele>76.0</ele><time>2026-04-25T15:54:41.999Z</time></trkpt><trkpt lat="36.023273510284504" lon="-5.596429226345798"><ele>75.0</ele><time>2026-04-25T15:54:42.999Z</time></trkpt><trkpt lat="36.02324583473099" lon="-5.596594653946496"><ele>74.75</ele><time>2026-04-25T15:54:43.999Z</time></trkpt><trkpt lat="36.02323058772263" lon="-5.596765178017536"><ele>74.5</ele><time>2026-04-25T15:54:44.999Z</time></trkpt><trkpt lat="36.02323492057807" lon="-5.596940423921553"><ele>74.25</ele><time>2026-04-25T15:54:45.999Z</time></trkpt><trkpt lat="36.023251837948024" lon="-5.597112956419067"><ele>74.0</ele><time>2026-04-25T15:54:46.999Z</time></trkpt><trkpt lat="36.02327377731702" lon="-5.597283683947919"><ele>73.0</ele><time>2026-04-25T15:54:47.999Z</time></trkpt><trkpt lat="36.023301828537456" lon="-5.597458593792614"><ele>72.0</ele><time>2026-04-25T15:54:48.999Z</time></trkpt><trkpt lat="36.02334450316192" lon="-5.597629812274213"><ele>71.0</ele><time>2026-04-25T15:54:49.999Z</time></trkpt><trkpt lat="36.02339388038721" lon="-5.59779400764077"><ele>70.0</ele><time>2026-04-25T15:54:50.999Z</time></trkpt><trkpt lat="36.02345245968793" lon="-5.59795442152316"><ele>69.33333333333333</ele><time>2026-04-25T15:54:51.999Z</time></trkpt><trkpt lat="36.02352055269739" lon="-5.598114508055673"><ele>68.66666666666667</ele><time>2026-04-25T15:54:52.999Z</time></trkpt><trkpt lat="36.02356484929764" lon="-5.598291082067403"><ele>68.0</ele><time>2026-04-25T15:54:53.999Z</time></trkpt><trkpt lat="36.02372444793234" lon="-5.598455343541474"><ele>68.0</ele><time>2026-04-25T15:54:54.999Z</time></trkpt><trkpt lat="36.023857459940096" lon="-5.59862322641792"><ele>68.0</ele><time>2026-04-25T15:54:55.999Z</time></trkpt><trkpt lat="36.02402721310618" lon="-5.598780037197626"><ele>68.0</ele><time>2026-04-25T15:54:56.999Z</time></trkpt><trkpt lat="36.024215748109114" lon="-5.598928510965146"><ele>66.5</ele><time>2026-04-25T15:54:57.999Z</time></trkpt><trkpt lat="36.024436458638846" lon="-5.59908296867607"><ele>65.0</ele><time>2026-04-25T15:54:58.999Z</time></trkpt><trkpt lat="36.02466705892356" lon="-5.599247191215896"><ele>65.0</ele><time>2026-04-25T15:54:59.999Z</time></trkpt><trkpt lat="36.024873449315365" lon="-5.599402806779255"><ele>65.0</ele><time>2026-04-25T15:55:00.999Z</time></trkpt><trkpt lat="36.02507315061104" lon="-5.599551914492455"><ele>61.5</ele><time>2026-04-25T15:55:01.999Z</time></trkpt><trkpt lat="36.025265227985315" lon="-5.599695965629338"><ele>58.0</ele><time>2026-04-25T15:55:02.999Z</time></trkpt><trkpt lat="36.02545438397861" lon="-5.599846391971726"><ele>58.0</ele><time>2026-04-25T15:55:03.999Z</time></trkpt><trkpt lat="36.02563689683736" lon="-5.600015255712198"><ele>58.0</ele><time>2026-04-25T15:55:04.999Z</time></trkpt><trkpt lat="36.02580196042088" lon="-5.600203497292219"><ele>54.0</ele><time>2026-04-25T15:55:05.999Z</time></trkpt><trkpt lat="36.02594698301335" lon="-5.600411547252639"><ele>50.0</ele><time>2026-04-25T15:55:06.999Z</time></trkpt><trkpt lat="36.02607766101493" lon="-5.600635638811526"><ele>46.0</ele><time>2026-04-25T15:55:07.999Z</time></trkpt><trkpt lat="36.026184737584046" lon="-5.600875430146891"><ele>46.0</ele><time>2026-04-25T15:55:08.999Z</time></trkpt><trkpt lat="36.026269865975465" lon="-5.601125407264408"><ele>46.0</ele><time>2026-04-25T15:55:09.999Z</time></trkpt><trkpt lat="36.026338336221244" lon="-5.601372483127574"><ele>46.0</ele><time>2026-04-25T15:55:10.999Z</time></trkpt><trkpt lat="36.02638807628623" lon="-5.6016128218334655"><ele>43.0</ele><time>2026-04-25T15:55:11.999Z</time></trkpt><trkpt lat="36.02641774794238" lon="-5.601860173136526"><ele>40.0</ele><time>2026-04-25T15:55:12.999Z</time></trkpt><trkpt lat="36.026430685322985" lon="-5.602118062229812"><ele>37.0</ele><time>2026-04-25T15:55:13.999Z</time></trkpt><trkpt lat="36.026438852696145" lon="-5.6023844261984905"><ele>35.333333333333336</ele><time>2026-04-25T15:55:14.999Z</time></trkpt><trkpt lat="36.02645023406575" lon="-5.602650460567504"><ele>33.666666666666664</ele><time>2026-04-25T15:55:15.999Z</time></trkpt><trkpt lat="36.02645936787375" lon="-5.602914822590538"><ele>32.0</ele><time>2026-04-25T15:55:16.999Z</time></trkpt><trkpt lat="36.0264714835978" lon="-5.60318342558013"><ele>32.0</ele><time>2026-04-25T15:55:17.999Z</time></trkpt><trkpt lat="36.02648759818715" lon="-5.603447097781225"><ele>32.0</ele><time>2026-04-25T15:55:18.999Z</time></trkpt><trkpt lat="36.02650968985495" lon="-5.603707219667903"><ele>32.0</ele><time>2026-04-25T15:55:19.999Z</time></trkpt><trkpt lat="36.02653825641537" lon="-5.603960619494378"><ele>32.33333333333333</ele><time>2026-04-25T15:55:20.999Z</time></trkpt><trkpt lat="36.026578999970205" lon="-5.604216441638197"><ele>32.666666666666664</ele><time>2026-04-25T15:55:21.998Z</time></trkpt><trkpt lat="36.02662799810438" lon="-5.604479236759482"><ele>33.0</ele><time>2026-04-25T15:55:22.998Z</time></trkpt><trkpt lat="36.02669110516698" lon="-5.6047513917324805"><ele>21.5</ele><time>2026-04-25T15:55:23.998Z</time></trkpt><trkpt lat="36.02676364013729" lon="-5.605031486018523"><ele>10.0</ele><time>2026-04-25T15:55:24.998Z</time></trkpt><trkpt lat="36.02684495090637" lon="-5.605322884376587"><ele>8.5</ele><time>2026-04-25T15:55:25.998Z</time></trkpt><trkpt lat="36.02692764906278" lon="-5.60561653960472"><ele>7.0</ele><time>2026-04-25T15:55:26.998Z</time></trkpt><trkpt lat="36.027007315042795" lon="-5.605907057201094"><ele>5.5</ele><time>2026-04-25T15:55:27.998Z</time></trkpt><trkpt lat="36.027085019911276" lon="-5.606200174117186"><ele>4.0</ele><time>2026-04-25T15:55:28.998Z</time></trkpt><trkpt lat="36.02716474497769" lon="-5.606492361898538"><ele>4.0</ele><time>2026-04-25T15:55:29.998Z</time></trkpt><trkpt lat="36.02724307112959" lon="-5.6067790897888425"><ele>4.0</ele><time>2026-04-25T15:55:30.998Z</time></trkpt><trkpt lat="36.02732018803062" lon="-5.607060911567583"><ele>3.5</ele><time>2026-04-25T15:55:31.998Z</time></trkpt><trkpt lat="36.02740195791823" lon="-5.607348038053569"><ele>3.0</ele><time>2026-04-25T15:55:32.998Z</time></trkpt><trkpt lat="36.02747964483543" lon="-5.607634141011557"><ele>3.5</ele><time>2026-04-25T15:55:33.998Z</time></trkpt><trkpt lat="36.02755565891532" lon="-5.607915748798954"><ele>4.0</ele><time>2026-04-25T15:55:34.998Z</time></trkpt><trkpt lat="36.02763459770902" lon="-5.608194876205055"><ele>4.0</ele><time>2026-04-25T15:55:35.998Z</time></trkpt><trkpt lat="36.02771449415832" lon="-5.608469703624881"><ele>4.0</ele><time>2026-04-25T15:55:36.998Z</time></trkpt><trkpt lat="36.027797905525496" lon="-5.608735559776296"><ele>4.333333333333333</ele><time>2026-04-25T15:55:37.998Z</time></trkpt><trkpt lat="36.027882277021" lon="-5.6089833471146635"><ele>4.666666666666667</ele><time>2026-04-25T15:55:38.998Z</time></trkpt><trkpt lat="36.02796634561883" lon="-5.609218383063121"><ele>5.0</ele><time>2026-04-25T15:55:39.998Z</time></trkpt><trkpt lat="36.02805389042586" lon="-5.609438890213762"><ele>5.0</ele><time>2026-04-25T15:55:40.998Z</time></trkpt><trkpt lat="36.02814218104661" lon="-5.609646656279524"><ele>5.0</ele><time>2026-04-25T15:55:41.998Z</time></trkpt><trkpt lat="36.02822464578245" lon="-5.609838429756539"><ele>5.0</ele><time>2026-04-25T15:55:42.998Z</time></trkpt><trkpt lat="36.02831107113593" lon="-5.610019556093976"><ele>5.0</ele><time>2026-04-25T15:55:43.998Z</time></trkpt><trkpt lat="36.02840511440001" lon="-5.6101773019252175"><ele>5.0</ele><time>2026-04-25T15:55:44.998Z</time></trkpt><trkpt lat="36.02849072390853" lon="-5.610324787064673"><ele>5.0</ele><time>2026-04-25T15:55:46Z</time></trkpt><trkpt lat="36.02857189661243" lon="-5.610460285860748"><ele>5.0</ele><time>2026-04-25T15:55:47Z</time></trkpt><trkpt lat="36.02864075557539" lon="-5.610577183386446"><ele>4.666666666666667</ele><time>2026-04-25T15:55:48Z</time></trkpt><trkpt lat="36.02872843912478" lon="-5.610698745704357"><ele>4.333333333333333</ele><time>2026-04-25T15:55:49Z</time></trkpt><trkpt lat="36.02883781727763" lon="-5.610854730548201"><ele>4.0</ele><time>2026-04-25T15:55:50Z</time></trkpt><trkpt lat="36.02897331579938" lon="-5.611039930581324"><ele>4.0</ele><time>2026-04-25T15:55:51Z</time></trkpt><trkpt lat="36.02912406419839" lon="-5.611246236208629"><ele>4.0</ele><time>2026-04-25T15:55:52Z</time></trkpt><trkpt lat="36.02927016889662" lon="-5.611447187238171"><ele>4.0</ele><time>2026-04-25T15:55:53Z</time></trkpt><trkpt lat="36.0294208050664" lon="-5.6116518669987085"><ele>3.5</ele><time>2026-04-25T15:55:54Z</time></trkpt><trkpt lat="36.0295799803674" lon="-5.611860428648416"><ele>3.0</ele><time>2026-04-25T15:55:55Z</time></trkpt><trkpt lat="36.029752792639755" lon="-5.6120694499340225"><ele>2.5</ele><time>2026-04-25T15:55:56Z</time></trkpt><trkpt lat="36.029934071604" lon="-5.612289413236068"><ele>2.0</ele><time>2026-04-25T15:55:57Z</time></trkpt><trkpt lat="36.030128203856435" lon="-5.612523130257997"><ele>2.0</ele><time>2026-04-25T15:55:58Z</time></trkpt><trkpt lat="36.03032323637947" lon="-5.612755573340955"><ele>2.0</ele><time>2026-04-25T15:55:59Z</time></trkpt><trkpt lat="36.030515207002914" lon="-5.612981201993352"><ele>1.5</ele><time>2026-04-25T15:56:00Z</time></trkpt><trkpt lat="36.030703412480804" lon="-5.61319742336944"><ele>1.0</ele><time>2026-04-25T15:56:01Z</time></trkpt><trkpt lat="36.03089561979448" lon="-5.613409621574755"><ele>1.0</ele><time>2026-04-25T15:56:02Z</time></trkpt><trkpt lat="36.03108587614261" lon="-5.61362433212099"><ele>1.0</ele><time>2026-04-25T15:56:03Z</time></trkpt><trkpt lat="36.03127976157196" lon="-5.613844047207523"><ele>1.0</ele><time>2026-04-25T15:56:04Z</time></trkpt><trkpt lat="36.031480541272614" lon="-5.614070432149669"><ele>1.0</ele><time>2026-04-25T15:56:05Z</time></trkpt><trkpt lat="36.031687661386336" lon="-5.614296443974435"><ele>1.5</ele><time>2026-04-25T15:56:06Z</time></trkpt><trkpt lat="36.03189432617394" lon="-5.614526296763298"><ele>2.0</ele><time>2026-04-25T15:56:07Z</time></trkpt><trkpt lat="36.03209778219998" lon="-5.614755289113712"><ele>2.0</ele><time>2026-04-25T15:56:08Z</time></trkpt><trkpt lat="36.03229477021406" lon="-5.614977382042353"><ele>2.0</ele><time>2026-04-25T15:56:09Z</time></trkpt><trkpt lat="36.03249285145676" lon="-5.615199632839912"><ele>2.5</ele><time>2026-04-25T15:56:10Z</time></trkpt><trkpt lat="36.032688942113296" lon="-5.615418306163203"><ele>3.0</ele><time>2026-04-25T15:56:11Z</time></trkpt><trkpt lat="36.03288280577554" lon="-5.615636677285091"><ele>3.0</ele><time>2026-04-25T15:56:12Z</time></trkpt><trkpt lat="36.03308126862241" lon="-5.615854602750626"><ele>3.0</ele><time>2026-04-25T15:56:13Z</time></trkpt><trkpt lat="36.03327583939624" lon="-5.61607559180098"><ele>3.5</ele><time>2026-04-25T15:56:14Z</time></trkpt><trkpt lat="36.03346895664923" lon="-5.616291989970881"><ele>4.0</ele><time>2026-04-25T15:56:15Z</time></trkpt><trkpt lat="36.033655909232024" lon="-5.6165003604616"><ele>4.0</ele><time>2026-04-25T15:56:16Z</time></trkpt><trkpt lat="36.033834783761364" lon="-5.616695960326641"><ele>4.0</ele><time>2026-04-25T15:56:17Z</time></trkpt><trkpt lat="36.0340022949828" lon="-5.616883009859749"><ele>3.333333333333333</ele><time>2026-04-25T15:56:18Z</time></trkpt><trkpt lat="36.03416805737081" lon="-5.6170683282887675"><ele>2.6666666666666665</ele><time>2026-04-25T15:56:19Z</time></trkpt><trkpt lat="36.03433397380665" lon="-5.617254503799633"><ele>2.0</ele><time>2026-04-25T15:56:20Z</time></trkpt><trkpt lat="36.03449962826058" lon="-5.617442893217147"><ele>2.0</ele><time>2026-04-25T15:56:21Z</time></trkpt><trkpt lat="36.034662712649904" lon="-5.617625505774544"><ele>2.0</ele><time>2026-04-25T15:56:22Z</time></trkpt><trkpt lat="36.034825575771066" lon="-5.6178086263316915"><ele>2.0</ele><time>2026-04-25T15:56:23Z</time></trkpt><trkpt lat="36.03498899452921" lon="-5.61798846541231"><ele>2.333333333333333</ele><time>2026-04-25T15:56:24Z</time></trkpt><trkpt lat="36.035151795296116" lon="-5.618167455828777"><ele>2.6666666666666665</ele><time>2026-04-25T15:56:25Z</time></trkpt><trkpt lat="36.035314704756054" lon="-5.618353195809062"><ele>3.0</ele><time>2026-04-25T15:56:26Z</time></trkpt><trkpt lat="36.035474697509365" lon="-5.6185414169252"><ele>2.3333333333333335</ele><time>2026-04-25T15:56:27Z</time></trkpt><trkpt lat="36.03563204450496" lon="-5.6187184114878415"><ele>1.6666666666666665</ele><time>2026-04-25T15:56:28Z</time></trkpt><trkpt lat="36.035790388877174" lon="-5.6188921725949355"><ele>1.0</ele><time>2026-04-25T15:56:28.999Z</time></trkpt><trkpt lat="36.035951663750396" lon="-5.619068161430453"><ele>1.0</ele><time>2026-04-25T15:56:29.999Z</time></trkpt><trkpt lat="36.03611174720308" lon="-5.619249426734205"><ele>1.0</ele><time>2026-04-25T15:56:30.999Z</time></trkpt><trkpt lat="36.036277611096544" lon="-5.61943486235677"><ele>1.0</ele><time>2026-04-25T15:56:31.999Z</time></trkpt><trkpt lat="36.03644572175673" lon="-5.619621801573958"><ele>2.0</ele><time>2026-04-25T15:56:32.999Z</time></trkpt><trkpt lat="36.0366147839234" lon="-5.619811161796889"><ele>3.0</ele><time>2026-04-25T15:56:33.999Z</time></trkpt><trkpt lat="36.03678312090099" lon="-5.620000491121415"><ele>3.0</ele><time>2026-04-25T15:56:34.999Z</time></trkpt><trkpt lat="36.03695350034669" lon="-5.620191087887472"><ele>3.0</ele><time>2026-04-25T15:56:35.999Z</time></trkpt><trkpt lat="36.03712154112724" lon="-5.620375929567435"><ele>2.5</ele><time>2026-04-25T15:56:36.999Z</time></trkpt><trkpt lat="36.037290388595274" lon="-5.620566291640898"><ele>2.0</ele><time>2026-04-25T15:56:37.999Z</time></trkpt><trkpt lat="36.03746120683934" lon="-5.620746224753211"><ele>3.0</ele><time>2026-04-25T15:56:38.999Z</time></trkpt><trkpt lat="36.03764621300366" lon="-5.620924215981721"><ele>4.0</ele><time>2026-04-25T15:56:39.999Z</time></trkpt><trkpt lat="36.037849295009266" lon="-5.621092153144345"><ele>3.5</ele><time>2026-04-25T15:56:40.999Z</time></trkpt><trkpt lat="36.038067951075526" lon="-5.621246167786859"><ele>3.0</ele><time>2026-04-25T15:56:41.999Z</time></trkpt><trkpt lat="36.03828750391852" lon="-5.621400525827872"><ele>3.0</ele><time>2026-04-25T15:56:42.999Z</time></trkpt><trkpt lat="36.03850422380393" lon="-5.621557772537766"><ele>3.0</ele><time>2026-04-25T15:56:43.999Z</time></trkpt><trkpt lat="36.038717605366216" lon="-5.621713256265622"><ele>3.0</ele><time>2026-04-25T15:56:44.999Z</time></trkpt><trkpt lat="36.03891723220731" lon="-5.621861926464525"><ele>3.0</ele><time>2026-04-25T15:56:45.999Z</time></trkpt><trkpt lat="36.03910491800857" lon="-5.622004321683424"><ele>2.6666666666666665</ele><time>2026-04-25T15:56:46.999Z</time></trkpt><trkpt lat="36.03927806014456" lon="-5.62214863104441"><ele>2.333333333333333</ele><time>2026-04-25T15:56:47.999Z</time></trkpt><trkpt lat="36.03944130564778" lon="-5.622306433149928"><ele>2.0</ele><time>2026-04-25T15:56:48.999Z</time></trkpt><trkpt lat="36.03959413460008" lon="-5.622485641366601"><ele>2.0</ele><time>2026-04-25T15:56:49.999Z</time></trkpt><trkpt lat="36.03974141406692" lon="-5.62268080482267"><ele>2.0</ele><time>2026-04-25T15:56:50.999Z</time></trkpt><trkpt lat="36.039863179908" lon="-5.62289004489586"><ele>2.0</ele><time>2026-04-25T15:56:51.999Z</time></trkpt><trkpt lat="36.0399838307475" lon="-5.6230923994790345"><ele>1.3333333333333333</ele><time>2026-04-25T15:56:52.999Z</time></trkpt><trkpt lat="36.040098993200445" lon="-5.623289480132612"><ele>0.6666666666666666</ele><time>2026-04-25T15:56:53.999Z</time></trkpt><trkpt lat="36.040224000126486" lon="-5.623496829789804"><ele>0.0</ele><time>2026-04-25T15:56:54.999Z</time></trkpt><trkpt lat="36.04034113627526" lon="-5.623696427121658"><ele>0.0</ele><time>2026-04-25T15:56:55.999Z</time></trkpt><trkpt lat="36.040444436446954" lon="-5.623882259541121"><ele>0.0</ele><time>2026-04-25T15:56:56.999Z</time></trkpt><trkpt lat="36.04054379341201" lon="-5.624054890270171"><ele>0.0</ele><time>2026-04-25T15:56:57.999Z</time></trkpt><trkpt lat="36.04064267656813" lon="-5.62421978895061"><ele>0.0</ele><time>2026-04-25T15:56:58.999Z</time></trkpt><trkpt lat="36.040742207282726" lon="-5.624389658261935"><ele>0.0</ele><time>2026-04-25T15:56:59.999Z</time></trkpt><trkpt lat="36.04084174831666" lon="-5.624569581295894"><ele>0.0</ele><time>2026-04-25T15:57:00.999Z</time></trkpt><trkpt lat="36.04093903487468" lon="-5.6247409826473405"><ele>0.6666666666666666</ele><time>2026-04-25T15:57:01.999Z</time></trkpt><trkpt lat="36.04103699918771" lon="-5.6249067502353585"><ele>1.3333333333333333</ele><time>2026-04-25T15:57:02.999Z</time></trkpt><trkpt lat="36.04114045537535" lon="-5.625080258361259"><ele>2.0</ele><time>2026-04-25T15:57:03.999Z</time></trkpt><trkpt lat="36.04123915493646" lon="-5.625255151865902"><ele>2.333333333333333</ele><time>2026-04-25T15:57:04.999Z</time></trkpt><trkpt lat="36.04133750276666" lon="-5.62542852823186"><ele>2.6666666666666665</ele><time>2026-04-25T15:57:05.999Z</time></trkpt><trkpt lat="36.04143652735018" lon="-5.62560088850582"><ele>3.0</ele><time>2026-04-25T15:57:06.999Z</time></trkpt><trkpt lat="36.04154095324618" lon="-5.625776197737983"><ele>2.6666666666666665</ele><time>2026-04-25T15:57:07.999Z</time></trkpt><trkpt lat="36.04163960010308" lon="-5.625950561212605"><ele>2.333333333333333</ele><time>2026-04-25T15:57:08.999Z</time></trkpt><trkpt lat="36.041735500406865" lon="-5.626117696564807"><ele>2.0</ele><time>2026-04-25T15:57:09.999Z</time></trkpt><trkpt lat="36.041834376171316" lon="-5.626281968073988"><ele>2.0</ele><time>2026-04-25T15:57:10.999Z</time></trkpt><trkpt lat="36.041929622409086" lon="-5.626440407839158"><ele>2.0</ele><time>2026-04-25T15:57:11.999Z</time></trkpt><trkpt lat="36.04201948283287" lon="-5.62659779813766"><ele>2.0</ele><time>2026-04-25T15:57:12.999Z</time></trkpt><trkpt lat="36.04210338249781" lon="-5.626746020950398"><ele>2.0</ele><time>2026-04-25T15:57:13.999Z</time></trkpt><trkpt lat="36.0421848203012" lon="-5.626885505078403"><ele>2.0</ele><time>2026-04-25T15:57:14.999Z</time></trkpt><trkpt lat="36.04226935417693" lon="-5.627031837876351"><ele>2.0</ele><time>2026-04-25T15:57:15.999Z</time></trkpt><trkpt lat="36.04235868304632" lon="-5.62718249802213"><ele>2.0</ele><time>2026-04-25T15:57:16.999Z</time></trkpt><trkpt lat="36.04244390120321" lon="-5.627332232664015"><ele>2.25</ele><time>2026-04-25T15:57:17.999Z</time></trkpt><trkpt lat="36.04252743727786" lon="-5.627478353615022"><ele>2.5</ele><time>2026-04-25T15:57:18.999Z</time></trkpt><trkpt lat="36.0426143045902" lon="-5.627627300589768"><ele>2.75</ele><time>2026-04-25T15:57:19.999Z</time></trkpt><trkpt lat="36.04269873282614" lon="-5.627775927525869"><ele>3.0</ele><time>2026-04-25T15:57:20.999Z</time></trkpt><trkpt lat="36.04278427909083" lon="-5.627925981073148"><ele>3.0</ele><time>2026-04-25T15:57:21.999Z</time></trkpt><trkpt lat="36.04287005551033" lon="-5.62808108235131"><ele>3.0</ele><time>2026-04-25T15:57:22.999Z</time></trkpt><trkpt lat="36.04295800962767" lon="-5.628254598183764"><ele>3.0</ele><time>2026-04-25T15:57:23.999Z</time></trkpt><trkpt lat="36.04304343012767" lon="-5.628433878554425"><ele>3.0</ele><time>2026-04-25T15:57:24.999Z</time></trkpt><trkpt lat="36.043122719435004" lon="-5.628610977705355"><ele>3.0</ele><time>2026-04-25T15:57:25.999Z</time></trkpt><trkpt lat="36.04319598604526" lon="-5.62879691727492"><ele>3.0</ele><time>2026-04-25T15:57:26.999Z</time></trkpt><trkpt lat="36.04326157447894" lon="-5.62898922390534"><ele>2.3333333333333335</ele><time>2026-04-25T15:57:27.998Z</time></trkpt><trkpt lat="36.043322832744444" lon="-5.629185244907756"><ele>1.6666666666666665</ele><time>2026-04-25T15:57:28.998Z</time></trkpt><trkpt lat="36.043379881300375" lon="-5.629376276745565"><ele>1.0</ele><time>2026-04-25T15:57:29.998Z</time></trkpt><trkpt lat="36.0434387824749" lon="-5.629564602073385"><ele>1.0</ele><time>2026-04-25T15:57:30.998Z</time></trkpt><trkpt lat="36.043501603704435" lon="-5.62976627428427"><ele>1.0</ele><time>2026-04-25T15:57:31.998Z</time></trkpt><trkpt lat="36.04355398888934" lon="-5.629974635969216"><ele>1.0</ele><time>2026-04-25T15:57:32.998Z</time></trkpt><trkpt lat="36.04360326465901" lon="-5.630161259238444"><ele>1.3333333333333333</ele><time>2026-04-25T15:57:33.998Z</time></trkpt><trkpt lat="36.043658827459964" lon="-5.630340386006197"><ele>1.6666666666666665</ele><time>2026-04-25T15:57:34.998Z</time></trkpt><trkpt lat="36.04371793704339" lon="-5.630520999026588"><ele>2.0</ele><time>2026-04-25T15:57:35.998Z</time></trkpt><trkpt lat="36.04377951365007" lon="-5.630704458242936"><ele>2.0</ele><time>2026-04-25T15:57:36.998Z</time></trkpt><trkpt lat="36.04384065493016" lon="-5.6308863636417055"><ele>2.0</ele><time>2026-04-25T15:57:37.998Z</time></trkpt><trkpt lat="36.04390262937644" lon="-5.631070452392641"><ele>2.0</ele><time>2026-04-25T15:57:38.998Z</time></trkpt><trkpt lat="36.04396801106316" lon="-5.631251707281334"><ele>2.0</ele><time>2026-04-25T15:57:39.998Z</time></trkpt><trkpt lat="36.04402961980831" lon="-5.631431583399154"><ele>2.0</ele><time>2026-04-25T15:57:40.998Z</time></trkpt><trkpt lat="36.04409551804126" lon="-5.631613260843059"><ele>2.0</ele><time>2026-04-25T15:57:41.998Z</time></trkpt><trkpt lat="36.04416064872258" lon="-5.631784742800633"><ele>2.0</ele><time>2026-04-25T15:57:42.998Z</time></trkpt><trkpt lat="36.04422486798463" lon="-5.631952629512574"><ele>2.0</ele><time>2026-04-25T15:57:43.998Z</time></trkpt><trkpt lat="36.04428340719707" lon="-5.632106983498035"><ele>2.0</ele><time>2026-04-25T15:57:44.998Z</time></trkpt><trkpt lat="36.04434247755371" lon="-5.6322573555423805"><ele>2.0</ele><time>2026-04-25T15:57:45.998Z</time></trkpt><trkpt lat="36.0444034548303" lon="-5.632415294050049"><ele>2.5</ele><time>2026-04-25T15:57:46.998Z</time></trkpt><trkpt lat="36.0444668163278" lon="-5.632581308793891"><ele>3.0</ele><time>2026-04-25T15:57:47.998Z</time></trkpt><trkpt lat="36.044528904305295" lon="-5.632743339630938"><ele>3.5</ele><time>2026-04-25T15:57:48.998Z</time></trkpt><trkpt lat="36.04459159069902" lon="-5.632910430171813"><ele>4.0</ele><time>2026-04-25T15:57:49.998Z</time></trkpt><trkpt lat="36.04465558057953" lon="-5.63308641701611"><ele>4.0</ele><time>2026-04-25T15:57:50.998Z</time></trkpt><trkpt lat="36.044723873096046" lon="-5.633272714417363"><ele>4.0</ele><time>2026-04-25T15:57:52Z</time></trkpt><trkpt lat="36.044799798147906" lon="-5.633456218149596"><ele>4.0</ele><time>2026-04-25T15:57:53Z</time></trkpt><trkpt lat="36.044869755170566" lon="-5.633629577361323"><ele>4.25</ele><time>2026-04-25T15:57:54Z</time></trkpt><trkpt lat="36.044938342711276" lon="-5.633791493624614"><ele>4.5</ele><time>2026-04-25T15:57:55Z</time></trkpt><trkpt lat="36.045004815794314" lon="-5.633945126154037"><ele>4.75</ele><time>2026-04-25T15:57:56Z</time></trkpt><trkpt lat="36.045079608336266" lon="-5.634102701224618"><ele>5.0</ele><time>2026-04-25T15:57:57Z</time></trkpt><trkpt lat="36.04516351181967" lon="-5.634274608625339"><ele>5.333333333333334</ele><time>2026-04-25T15:57:58Z</time></trkpt><trkpt lat="36.04525681266866" lon="-5.634449994190732"><ele>5.666666666666667</ele><time>2026-04-25T15:57:59Z</time></trkpt><trkpt lat="36.045363372476366" lon="-5.634618399539184"><ele>6.0</ele><time>2026-04-25T15:58:00Z</time></trkpt><trkpt lat="36.045471870454115" lon="-5.63479408897339"><ele>6.0</ele><time>2026-04-25T15:58:01Z</time></trkpt><trkpt lat="36.0455808810196" lon="-5.634966903738404"><ele>6.0</ele><time>2026-04-25T15:58:02Z</time></trkpt><trkpt lat="36.045686406394005" lon="-5.635135010833896"><ele>6.0</ele><time>2026-04-25T15:58:03Z</time></trkpt><trkpt lat="36.04579775675749" lon="-5.635311815186185"><ele>5.666666666666667</ele><time>2026-04-25T15:58:04Z</time></trkpt><trkpt lat="36.04590716983682" lon="-5.635484894937303"><ele>5.333333333333334</ele><time>2026-04-25T15:58:05Z</time></trkpt><trkpt lat="36.046019987159625" lon="-5.635660664362214"><ele>5.0</ele><time>2026-04-25T15:58:06Z</time></trkpt><trkpt lat="36.04613184803323" lon="-5.635833607089166"><ele>5.0</ele><time>2026-04-25T15:58:07Z</time></trkpt><trkpt lat="36.04624217824192" lon="-5.636003280336379"><ele>5.0</ele><time>2026-04-25T15:58:08Z</time></trkpt><trkpt lat="36.04635194473027" lon="-5.6361722213657846"><ele>5.0</ele><time>2026-04-25T15:58:09Z</time></trkpt><trkpt lat="36.04646144189947" lon="-5.636336177255729"><ele>5.0</ele><time>2026-04-25T15:58:10Z</time></trkpt><trkpt lat="36.04657333262233" lon="-5.6365082940478555"><ele>5.0</ele><time>2026-04-25T15:58:11Z</time></trkpt><trkpt lat="36.046685390690406" lon="-5.636693046078076"><ele>5.0</ele><time>2026-04-25T15:58:12Z</time></trkpt><trkpt lat="36.04679850143809" lon="-5.636877699770993"><ele>4.0</ele><time>2026-04-25T15:58:13Z</time></trkpt><trkpt lat="36.04693014440202" lon="-5.637089699382303"><ele>3.0</ele><time>2026-04-25T15:58:14Z</time></trkpt><trkpt lat="36.04707602607011" lon="-5.637321359410878"><ele>3.0</ele><time>2026-04-25T15:58:15Z</time></trkpt><trkpt lat="36.04720072251838" lon="-5.637525519753272"><ele>3.0</ele><time>2026-04-25T15:58:16Z</time></trkpt><trkpt lat="36.04731508798013" lon="-5.63771006009708"><ele>3.0</ele><time>2026-04-25T15:58:17Z</time></trkpt><trkpt lat="36.047424761392556" lon="-5.637883561083973"><ele>2.6666666666666665</ele><time>2026-04-25T15:58:18Z</time></trkpt><trkpt lat="36.04753548883282" lon="-5.638049705207578"><ele>2.333333333333333</ele><time>2026-04-25T15:58:19Z</time></trkpt><trkpt lat="36.047645270195176" lon="-5.638217602510463"><ele>2.0</ele><time>2026-04-25T15:58:20Z</time></trkpt><trkpt lat="36.047749311071996" lon="-5.638380523839594"><ele>2.0</ele><time>2026-04-25T15:58:21Z</time></trkpt><trkpt lat="36.04785090457555" lon="-5.638540891338263"><ele>2.0</ele><time>2026-04-25T15:58:22Z</time></trkpt><trkpt lat="36.04794823561922" lon="-5.638689607395768"><ele>2.0</ele><time>2026-04-25T15:58:23Z</time></trkpt><trkpt lat="36.0480491925892" lon="-5.63884596313641"><ele>2.5</ele><time>2026-04-25T15:58:24Z</time></trkpt><trkpt lat="36.048137208128736" lon="-5.638982192648332"><ele>3.0</ele><time>2026-04-25T15:58:25Z</time></trkpt><trkpt lat="36.048228161584156" lon="-5.639122955481996"><ele>3.5</ele><time>2026-04-25T15:58:26Z</time></trkpt><trkpt lat="36.04831027576313" lon="-5.639254922439394"><ele>4.0</ele><time>2026-04-25T15:58:27Z</time></trkpt><trkpt lat="36.04838903741951" lon="-5.639383672651503"><ele>4.25</ele><time>2026-04-25T15:58:27.999Z</time></trkpt><trkpt lat="36.048467091464076" lon="-5.63950408015344"><ele>4.5</ele><time>2026-04-25T15:58:28.999Z</time></trkpt><trkpt lat="36.048545493194055" lon="-5.639622360166004"><ele>4.75</ele><time>2026-04-25T15:58:29.999Z</time></trkpt><trkpt lat="36.04862062249769" lon="-5.639739418769372"><ele>5.0</ele><time>2026-04-25T15:58:30.999Z</time></trkpt><trkpt lat="36.048689927483046" lon="-5.63985081732542"><ele>5.0</ele><time>2026-04-25T15:58:31.999Z</time></trkpt><trkpt lat="36.04875844178289" lon="-5.639961468503384"><ele>5.0</ele><time>2026-04-25T15:58:32.999Z</time></trkpt><trkpt lat="36.04882406088639" lon="-5.640067958322768"><ele>5.0</ele><time>2026-04-25T15:58:33.999Z</time></trkpt><trkpt lat="36.04889876162725" lon="-5.640183976002799"><ele>5.0</ele><time>2026-04-25T15:58:34.999Z</time></trkpt><trkpt lat="36.048967231333386" lon="-5.640294692318566"><ele>5.0</ele><time>2026-04-25T15:58:35.999Z</time></trkpt><trkpt lat="36.04904728215105" lon="-5.640408373697854"><ele>5.0</ele><time>2026-04-25T15:58:36.999Z</time></trkpt><trkpt lat="36.049138771937216" lon="-5.640546402422089"><ele>5.0</ele><time>2026-04-25T15:58:37.999Z</time></trkpt><trkpt lat="36.049232155022565" lon="-5.640701074478065"><ele>5.0</ele><time>2026-04-25T15:58:38.999Z</time></trkpt><trkpt lat="36.04933679402768" lon="-5.640876779328599"><ele>5.0</ele><time>2026-04-25T15:58:39.999Z</time></trkpt><trkpt lat="36.049456428742666" lon="-5.64106883032976"><ele>5.0</ele><time>2026-04-25T15:58:40.999Z</time></trkpt><trkpt lat="36.04957863156429" lon="-5.64125386776167"><ele>5.0</ele><time>2026-04-25T15:58:41.999Z</time></trkpt><trkpt lat="36.049700392099616" lon="-5.641432022414529"><ele>5.0</ele><time>2026-04-25T15:58:42.999Z</time></trkpt><trkpt lat="36.04984185736625" lon="-5.641652548723512"><ele>5.0</ele><time>2026-04-25T15:58:43.999Z</time></trkpt><trkpt lat="36.04996936521191" lon="-5.641851821415401"><ele>5.0</ele><time>2026-04-25T15:58:44.999Z</time></trkpt><trkpt lat="36.050101815922424" lon="-5.642075412317889"><ele>5.0</ele><time>2026-04-25T15:58:45.999Z</time></trkpt><trkpt lat="36.0502304779406" lon="-5.642281219578142"><ele>5.0</ele><time>2026-04-25T15:58:46.999Z</time></trkpt><trkpt lat="36.05034157288509" lon="-5.642460042908859"><ele>5.0</ele><time>2026-04-25T15:58:47.999Z</time></trkpt><trkpt lat="36.05044773468267" lon="-5.642619363673254"><ele>5.0</ele><time>2026-04-25T15:58:48.999Z</time></trkpt><trkpt lat="36.05054774131281" lon="-5.642772680692419"><ele>5.0</ele><time>2026-04-25T15:58:49.999Z</time></trkpt><trkpt lat="36.0506513547749" lon="-5.642927192479291"><ele>5.0</ele><time>2026-04-25T15:58:50.999Z</time></trkpt><trkpt lat="36.050757220204154" lon="-5.643089906371454"><ele>6.333333333333334</ele><time>2026-04-25T15:58:51.999Z</time></trkpt><trkpt lat="36.05086518313201" lon="-5.643263179895454"><ele>7.666666666666667</ele><time>2026-04-25T15:58:52.999Z</time></trkpt><trkpt lat="36.05096946101613" lon="-5.6434293615360644"><ele>9.0</ele><time>2026-04-25T15:58:53.999Z</time></trkpt><trkpt lat="36.051074783578045" lon="-5.643592426158981"><ele>9.0</ele><time>2026-04-25T15:58:54.999Z</time></trkpt><trkpt lat="36.0511854642205" lon="-5.643765768566711"><ele>9.0</ele><time>2026-04-25T15:58:55.999Z</time></trkpt><trkpt lat="36.05129441397179" lon="-5.643938407343245"><ele>9.0</ele><time>2026-04-25T15:58:56.999Z</time></trkpt><trkpt lat="36.05139557956516" lon="-5.644092127804528"><ele>9.0</ele><time>2026-04-25T15:58:57.999Z</time></trkpt><trkpt lat="36.05149774394024" lon="-5.6442517932451395"><ele>9.0</ele><time>2026-04-25T15:58:58.999Z</time></trkpt><trkpt lat="36.05159972502184" lon="-5.644411132781168"><ele>9.0</ele><time>2026-04-25T15:58:59.999Z</time></trkpt><trkpt lat="36.051696265054225" lon="-5.644564203675662"><ele>9.666666666666666</ele><time>2026-04-25T15:59:00.999Z</time></trkpt><trkpt lat="36.05180141192711" lon="-5.644731672243357"><ele>10.333333333333332</ele><time>2026-04-25T15:59:01.999Z</time></trkpt><trkpt lat="36.05190263039681" lon="-5.644890411061898"><ele>11.0</ele><time>2026-04-25T15:59:02.999Z</time></trkpt><trkpt lat="36.05200861654291" lon="-5.64505276596194"><ele>11.0</ele><time>2026-04-25T15:59:03.999Z</time></trkpt><trkpt lat="36.05211031802874" lon="-5.645212527663301"><ele>11.0</ele><time>2026-04-25T15:59:04.999Z</time></trkpt><trkpt lat="36.05221496372198" lon="-5.645382630962409"><ele>11.0</ele><time>2026-04-25T15:59:05.999Z</time></trkpt><trkpt lat="36.052320857943954" lon="-5.645554302140563"><ele>11.666666666666666</ele><time>2026-04-25T15:59:06.999Z</time></trkpt><trkpt lat="36.0524284289986" lon="-5.6457242668843"><ele>12.333333333333332</ele><time>2026-04-25T15:59:07.999Z</time></trkpt><trkpt lat="36.0525386348758" lon="-5.645899777451735"><ele>13.0</ele><time>2026-04-25T15:59:08.999Z</time></trkpt><trkpt lat="36.052646326633074" lon="-5.646065013520812"><ele>13.666666666666666</ele><time>2026-04-25T15:59:09.999Z</time></trkpt><trkpt lat="36.05275664823973" lon="-5.6462382061567284"><ele>14.333333333333332</ele><time>2026-04-25T15:59:10.999Z</time></trkpt><trkpt lat="36.052866570073164" lon="-5.646409829982632"><ele>15.0</ele><time>2026-04-25T15:59:11.999Z</time></trkpt><trkpt lat="36.0529748598252" lon="-5.646583626783496"><ele>15.0</ele><time>2026-04-25T15:59:12.999Z</time></trkpt><trkpt lat="36.053089958445995" lon="-5.646765029143183"><ele>15.0</ele><time>2026-04-25T15:59:13.999Z</time></trkpt><trkpt lat="36.05320446376495" lon="-5.646940808011528"><ele>15.0</ele><time>2026-04-25T15:59:14.999Z</time></trkpt><trkpt lat="36.05331827259376" lon="-5.6471138285397675"><ele>14.333333333333332</ele><time>2026-04-25T15:59:15.999Z</time></trkpt><trkpt lat="36.05342468078418" lon="-5.647285799874634"><ele>13.666666666666666</ele><time>2026-04-25T15:59:16.999Z</time></trkpt><trkpt lat="36.05353158048014" lon="-5.647452660706535"><ele>13.0</ele><time>2026-04-25T15:59:17.999Z</time></trkpt><trkpt lat="36.053633710244824" lon="-5.647614698930679"><ele>13.0</ele><time>2026-04-25T15:59:18.999Z</time></trkpt><trkpt lat="36.05373909718044" lon="-5.6477762469121995"><ele>13.0</ele><time>2026-04-25T15:59:19.999Z</time></trkpt><trkpt lat="36.05383914599324" lon="-5.647937385289236"><ele>13.0</ele><time>2026-04-25T15:59:20.999Z</time></trkpt><trkpt lat="36.05394050208989" lon="-5.6480994512380045"><ele>12.666666666666666</ele><time>2026-04-25T15:59:21.999Z</time></trkpt><trkpt lat="36.054040821438235" lon="-5.648258570957661"><ele>12.333333333333332</ele><time>2026-04-25T15:59:22.999Z</time></trkpt><trkpt lat="36.05414023949398" lon="-5.648412206991714"><ele>12.0</ele><time>2026-04-25T15:59:23.999Z</time></trkpt><trkpt lat="36.05423405837241" lon="-5.648562863621385"><ele>13.0</ele><time>2026-04-25T15:59:24.999Z</time></trkpt><trkpt lat="36.05432570624978" lon="-5.648709385708666"><ele>14.0</ele><time>2026-04-25T15:59:25.999Z</time></trkpt><trkpt lat="36.05442059263865" lon="-5.6488581938818"><ele>15.0</ele><time>2026-04-25T15:59:26.999Z</time></trkpt><trkpt lat="36.05451839483165" lon="-5.64900202714067"><ele>15.0</ele><time>2026-04-25T15:59:27.999Z</time></trkpt><trkpt lat="36.05461187501725" lon="-5.649145866262537"><ele>15.0</ele><time>2026-04-25T15:59:28.998Z</time></trkpt><trkpt lat="36.05470401982619" lon="-5.649286117817265"><ele>15.0</ele><time>2026-04-25T15:59:29.998Z</time></trkpt><trkpt lat="36.05479092442819" lon="-5.649431896339525"><ele>15.0</ele><time>2026-04-25T15:59:30.998Z</time></trkpt><trkpt lat="36.0548823156089" lon="-5.649576038189267"><ele>14.666666666666668</ele><time>2026-04-25T15:59:31.998Z</time></trkpt><trkpt lat="36.05497678309238" lon="-5.64972425884763"><ele>14.333333333333334</ele><time>2026-04-25T15:59:32.998Z</time></trkpt><trkpt lat="36.055073567255896" lon="-5.649878774937415"><ele>14.0</ele><time>2026-04-25T15:59:33.998Z</time></trkpt><trkpt lat="36.05517584439562" lon="-5.650035722721602"><ele>14.0</ele><time>2026-04-25T15:59:34.998Z</time></trkpt><trkpt lat="36.05527560205996" lon="-5.650195752811019"><ele>14.0</ele><time>2026-04-25T15:59:35.998Z</time></trkpt><trkpt lat="36.055376467522215" lon="-5.6503472081328265"><ele>14.0</ele><time>2026-04-25T15:59:36.998Z</time></trkpt><trkpt lat="36.055479745532466" lon="-5.650508513913919"><ele>13.666666666666668</ele><time>2026-04-25T15:59:37.998Z</time></trkpt><trkpt lat="36.05558128105739" lon="-5.6506709901290835"><ele>13.333333333333332</ele><time>2026-04-25T15:59:38.998Z</time></trkpt><trkpt lat="36.05568044106559" lon="-5.65083165334125"><ele>13.0</ele><time>2026-04-25T15:59:39.998Z</time></trkpt><trkpt lat="36.05577552661812" lon="-5.6509888468503755"><ele>13.333333333333332</ele><time>2026-04-25T15:59:40.998Z</time></trkpt><trkpt lat="36.055867814927105" lon="-5.651155070537934"><ele>13.666666666666668</ele><time>2026-04-25T15:59:41.998Z</time></trkpt><trkpt lat="36.055952903672335" lon="-5.651327243911556"><ele>14.0</ele><time>2026-04-25T15:59:42.998Z</time></trkpt><trkpt lat="36.05603194091506" lon="-5.651497889673535"><ele>14.0</ele><time>2026-04-25T15:59:43.998Z</time></trkpt><trkpt lat="36.056101129499986" lon="-5.651678125841244"><ele>14.0</ele><time>2026-04-25T15:59:44.998Z</time></trkpt><trkpt lat="36.05616062375115" lon="-5.651868792412985"><ele>14.0</ele><time>2026-04-25T15:59:45.998Z</time></trkpt><trkpt lat="36.05620538172714" lon="-5.652063966127714"><ele>15.0</ele><time>2026-04-25T15:59:46.998Z</time></trkpt><trkpt lat="36.05624739217986" lon="-5.652275714779398"><ele>16.0</ele><time>2026-04-25T15:59:47.998Z</time></trkpt><trkpt lat="36.05627786581597" lon="-5.65248499016971"><ele>17.0</ele><time>2026-04-25T15:59:48.998Z</time></trkpt><trkpt lat="36.05630045045988" lon="-5.652694303206345"><ele>16.666666666666668</ele><time>2026-04-25T15:59:49.998Z</time></trkpt><trkpt lat="36.056319128013584" lon="-5.652904816028885"><ele>16.333333333333332</ele><time>2026-04-25T15:59:50.998Z</time></trkpt><trkpt lat="36.05631981771763" lon="-5.653129641238896"><ele>16.0</ele><time>2026-04-25T15:59:51.998Z</time></trkpt><trkpt lat="36.056330433271015" lon="-5.6533562840360485"><ele>16.0</ele><time>2026-04-25T15:59:52.998Z</time></trkpt><trkpt lat="36.05633963817361" lon="-5.653577236278689"><ele>16.0</ele><time>2026-04-25T15:59:53.998Z</time></trkpt><trkpt lat="36.05634526094856" lon="-5.6538058693395685"><ele>16.0</ele><time>2026-04-25T15:59:54.998Z</time></trkpt><trkpt lat="36.056350701550976" lon="-5.6540378688712725"><ele>16.0</ele><time>2026-04-25T15:59:55.998Z</time></trkpt><trkpt lat="36.056356521740376" lon="-5.654280597704018"><ele>16.0</ele><time>2026-04-25T15:59:56.998Z</time></trkpt><trkpt lat="36.05636571807408" lon="-5.654509893560984"><ele>16.0</ele><time>2026-04-25T15:59:58Z</time></trkpt><trkpt lat="36.05637143405461" lon="-5.654737630164737"><ele>16.333333333333332</ele><time>2026-04-25T15:59:59Z</time></trkpt><trkpt lat="36.0563743876205" lon="-5.654963645372825"><ele>16.666666666666668</ele><time>2026-04-25T16:00:00Z</time></trkpt><trkpt lat="36.056380669143024" lon="-5.655188461413945"><ele>17.0</ele><time>2026-04-25T16:00:01Z</time></trkpt><trkpt lat="36.056387125776496" lon="-5.6554198714207375"><ele>17.666666666666668</ele><time>2026-04-25T16:00:02Z</time></trkpt><trkpt lat="36.056394370190226" lon="-5.655657634367387"><ele>18.333333333333332</ele><time>2026-04-25T16:00:03Z</time></trkpt><trkpt lat="36.05640120773666" lon="-5.655899351055653"><ele>19.0</ele><time>2026-04-25T16:00:04Z</time></trkpt><trkpt lat="36.05640803542155" lon="-5.656142398313771"><ele>19.0</ele><time>2026-04-25T16:00:05Z</time></trkpt><trkpt lat="36.056417835741605" lon="-5.656386007522853"><ele>19.0</ele><time>2026-04-25T16:00:06Z</time></trkpt><trkpt lat="36.056422648875945" lon="-5.656628980830889"><ele>19.0</ele><time>2026-04-25T16:00:07Z</time></trkpt><trkpt lat="36.056428488174326" lon="-5.6568625839427105"><ele>17.333333333333332</ele><time>2026-04-25T16:00:08Z</time></trkpt><trkpt lat="36.05643513544991" lon="-5.657092920988026"><ele>15.666666666666668</ele><time>2026-04-25T16:00:09Z</time></trkpt><trkpt lat="36.056441646116355" lon="-5.657324437420459"><ele>14.0</ele><time>2026-04-25T16:00:10Z</time></trkpt><trkpt lat="36.0564463412155" lon="-5.657551437316695"><ele>14.0</ele><time>2026-04-25T16:00:11Z</time></trkpt><trkpt lat="36.05645018403344" lon="-5.657780100677698"><ele>14.0</ele><time>2026-04-25T16:00:12Z</time></trkpt><trkpt lat="36.056456910611935" lon="-5.658007085126457"><ele>14.0</ele><time>2026-04-25T16:00:13Z</time></trkpt><trkpt lat="36.05646265992574" lon="-5.6582336534159"><ele>12.666666666666668</ele><time>2026-04-25T16:00:14Z</time></trkpt><trkpt lat="36.05646739034333" lon="-5.658465752434702"><ele>11.333333333333334</ele><time>2026-04-25T16:00:15Z</time></trkpt><trkpt lat="36.05647349119055" lon="-5.658689758919629"><ele>10.0</ele><time>2026-04-25T16:00:16Z</time></trkpt><trkpt lat="36.0564794240902" lon="-5.658925052399403"><ele>9.0</ele><time>2026-04-25T16:00:17Z</time></trkpt><trkpt lat="36.05648633919615" lon="-5.659152127690824"><ele>8.0</ele><time>2026-04-25T16:00:18Z</time></trkpt><trkpt lat="36.05649380206435" lon="-5.65937862481605"><ele>7.0</ele><time>2026-04-25T16:00:19Z</time></trkpt><trkpt lat="36.056501505667875" lon="-5.659610411847821"><ele>6.0</ele><time>2026-04-25T16:00:20Z</time></trkpt><trkpt lat="36.056513621869364" lon="-5.659829298973209"><ele>5.0</ele><time>2026-04-25T16:00:21Z</time></trkpt><trkpt lat="36.056526722933455" lon="-5.66006302640619"><ele>4.0</ele><time>2026-04-25T16:00:22Z</time></trkpt><trkpt lat="36.056550991590356" lon="-5.660293100123123"><ele>3.6666666666666665</ele><time>2026-04-25T16:00:23Z</time></trkpt><trkpt lat="36.056590346407454" lon="-5.660521863749546"><ele>3.333333333333333</ele><time>2026-04-25T16:00:24Z</time></trkpt><trkpt lat="36.056639524002875" lon="-5.660744883023269"><ele>3.0</ele><time>2026-04-25T16:00:25Z</time></trkpt><trkpt lat="36.056689242408545" lon="-5.660961081776049"><ele>7.333333333333333</ele><time>2026-04-25T16:00:26Z</time></trkpt><trkpt lat="36.05673376849226" lon="-5.661184708879344"><ele>11.666666666666666</ele><time>2026-04-25T16:00:27Z</time></trkpt><trkpt lat="36.05678227672593" lon="-5.661412171738904"><ele>16.0</ele><time>2026-04-25T16:00:28Z</time></trkpt><trkpt lat="36.056826534888216" lon="-5.661628872691829"><ele>16.0</ele><time>2026-04-25T16:00:29Z</time></trkpt><trkpt lat="36.05687150325989" lon="-5.661844585473638"><ele>16.0</ele><time>2026-04-25T16:00:30Z</time></trkpt><trkpt lat="36.056912672095905" lon="-5.662048095688942"><ele>16.0</ele><time>2026-04-25T16:00:31Z</time></trkpt><trkpt lat="36.056957015854884" lon="-5.662248373664047"><ele>14.666666666666666</ele><time>2026-04-25T16:00:32Z</time></trkpt><trkpt lat="36.05700337105682" lon="-5.662436812093382"><ele>13.333333333333332</ele><time>2026-04-25T16:00:33Z</time></trkpt><trkpt lat="36.057050775460254" lon="-5.662632892086503"><ele>12.0</ele><time>2026-04-25T16:00:34Z</time></trkpt><trkpt lat="36.05710217028153" lon="-5.662822928336342"><ele>11.666666666666666</ele><time>2026-04-25T16:00:35Z</time></trkpt><trkpt lat="36.057154169581864" lon="-5.663007785920475"><ele>11.333333333333332</ele><time>2026-04-25T16:00:35.999Z</time></trkpt><trkpt lat="36.05721098319825" lon="-5.663176623380317"><ele>11.0</ele><time>2026-04-25T16:00:36.999Z</time></trkpt><trkpt lat="36.057274060888496" lon="-5.663346529521989"><ele>11.0</ele><time>2026-04-25T16:00:37.999Z</time></trkpt><trkpt lat="36.05734929231194" lon="-5.663514766884481"><ele>11.0</ele><time>2026-04-25T16:00:38.999Z</time></trkpt><trkpt lat="36.057427212962146" lon="-5.663685305983868"><ele>11.0</ele><time>2026-04-25T16:00:39.999Z</time></trkpt><trkpt lat="36.05751315123117" lon="-5.663867157266694"><ele>12.0</ele><time>2026-04-25T16:00:40.999Z</time></trkpt><trkpt lat="36.05760729346054" lon="-5.664041324461587"><ele>13.0</ele><time>2026-04-25T16:00:41.999Z</time></trkpt><trkpt lat="36.05770076242602" lon="-5.664215097516993"><ele>14.0</ele><time>2026-04-25T16:00:42.999Z</time></trkpt><trkpt lat="36.05780122550558" lon="-5.664378436075857"><ele>14.0</ele><time>2026-04-25T16:00:43.999Z</time></trkpt><trkpt lat="36.057895109558714" lon="-5.6645424631403545"><ele>14.0</ele><time>2026-04-25T16:00:44.999Z</time></trkpt><trkpt lat="36.057989291368756" lon="-5.66471756093713"><ele>14.0</ele><time>2026-04-25T16:00:45.999Z</time></trkpt><trkpt lat="36.058082248089065" lon="-5.664889058602723"><ele>14.0</ele><time>2026-04-25T16:00:46.999Z</time></trkpt><trkpt lat="36.05817846770745" lon="-5.665057769009082"><ele>14.0</ele><time>2026-04-25T16:00:47.999Z</time></trkpt><trkpt lat="36.05827575485379" lon="-5.665224477155178"><ele>14.0</ele><time>2026-04-25T16:00:48.999Z</time></trkpt><trkpt lat="36.058375993707095" lon="-5.665396227191457"><ele>15.0</ele><time>2026-04-25T16:00:49.999Z</time></trkpt><trkpt lat="36.05847830631482" lon="-5.6655727720911235"><ele>16.0</ele><time>2026-04-25T16:00:50.999Z</time></trkpt><trkpt lat="36.05858554386611" lon="-5.665751763047444"><ele>17.0</ele><time>2026-04-25T16:00:51.999Z</time></trkpt><trkpt lat="36.05868432599646" lon="-5.665934872531983"><ele>16.333333333333336</ele><time>2026-04-25T16:00:52.999Z</time></trkpt><trkpt lat="36.05878862838923" lon="-5.666120716502879"><ele>15.666666666666668</ele><time>2026-04-25T16:00:53.999Z</time></trkpt><trkpt lat="36.058900230648845" lon="-5.6663070236624336"><ele>15.0</ele><time>2026-04-25T16:00:54.999Z</time></trkpt><trkpt lat="36.05900444940288" lon="-5.666493641336455"><ele>15.0</ele><time>2026-04-25T16:00:55.999Z</time></trkpt><trkpt lat="36.05910822701078" lon="-5.666679261903208"><ele>15.0</ele><time>2026-04-25T16:00:56.999Z</time></trkpt><trkpt lat="36.05921516484587" lon="-5.666863098474126"><ele>15.0</ele><time>2026-04-25T16:00:57.999Z</time></trkpt><trkpt lat="36.0593234704173" lon="-5.667046898773733"><ele>14.666666666666668</ele><time>2026-04-25T16:00:58.999Z</time></trkpt><trkpt lat="36.05943208956944" lon="-5.667233228316738"><ele>14.333333333333334</ele><time>2026-04-25T16:00:59.999Z</time></trkpt><trkpt lat="36.05954329509965" lon="-5.667424573277197"><ele>14.0</ele><time>2026-04-25T16:01:00.999Z</time></trkpt><trkpt lat="36.05965238840821" lon="-5.667616968745417"><ele>13.333333333333334</ele><time>2026-04-25T16:01:01.999Z</time></trkpt><trkpt lat="36.05975421439635" lon="-5.667810154231118"><ele>12.666666666666668</ele><time>2026-04-25T16:01:02.999Z</time></trkpt><trkpt lat="36.059859536716274" lon="-5.668001456714644"><ele>12.0</ele><time>2026-04-25T16:01:03.999Z</time></trkpt><trkpt lat="36.059967132000104" lon="-5.668191195409385"><ele>13.333333333333332</ele><time>2026-04-25T16:01:04.999Z</time></trkpt><trkpt lat="36.06007853087395" lon="-5.6683834256353895"><ele>14.666666666666666</ele><time>2026-04-25T16:01:05.999Z</time></trkpt><trkpt lat="36.060182482700725" lon="-5.668569187783688"><ele>16.0</ele><time>2026-04-25T16:01:06.999Z</time></trkpt><trkpt lat="36.06029251405984" lon="-5.668749871603291"><ele>16.0</ele><time>2026-04-25T16:01:07.999Z</time></trkpt><trkpt lat="36.06040465014555" lon="-5.668937349579628"><ele>16.0</ele><time>2026-04-25T16:01:08.999Z</time></trkpt><trkpt lat="36.060510392606666" lon="-5.669130481873607"><ele>16.0</ele><time>2026-04-25T16:01:09.999Z</time></trkpt><trkpt lat="36.060610901295284" lon="-5.669322888507481"><ele>16.0</ele><time>2026-04-25T16:01:10.999Z</time></trkpt><trkpt lat="36.06072124502629" lon="-5.669512247508289"><ele>16.0</ele><time>2026-04-25T16:01:11.999Z</time></trkpt><trkpt lat="36.060829911812" lon="-5.669702430720681"><ele>16.0</ele><time>2026-04-25T16:01:12.999Z</time></trkpt><trkpt lat="36.06094056865097" lon="-5.669892912238105"><ele>16.0</ele><time>2026-04-25T16:01:13.999Z</time></trkpt><trkpt lat="36.06105148502212" lon="-5.67007993899764"><ele>16.0</ele><time>2026-04-25T16:01:14.999Z</time></trkpt><trkpt lat="36.061157891710764" lon="-5.670260661879048"><ele>16.0</ele><time>2026-04-25T16:01:15.999Z</time></trkpt><trkpt lat="36.06126739701152" lon="-5.670434987031553"><ele>16.0</ele><time>2026-04-25T16:01:16.999Z</time></trkpt><trkpt lat="36.061387265564164" lon="-5.670611224328894"><ele>16.0</ele><time>2026-04-25T16:01:17.999Z</time></trkpt><trkpt lat="36.061512925755" lon="-5.670795764976766"><ele>16.0</ele><time>2026-04-25T16:01:18.999Z</time></trkpt><trkpt lat="36.061642411809096" lon="-5.670978843793209"><ele>16.0</ele><time>2026-04-25T16:01:19.999Z</time></trkpt><trkpt lat="36.06177188331343" lon="-5.671162019746128"><ele>16.0</ele><time>2026-04-25T16:01:20.999Z</time></trkpt><trkpt lat="36.061903143640926" lon="-5.671344609449185"><ele>16.0</ele><time>2026-04-25T16:01:21.999Z</time></trkpt><trkpt lat="36.06203488542149" lon="-5.67152640079871"><ele>16.0</ele><time>2026-04-25T16:01:22.999Z</time></trkpt><trkpt lat="36.0621671393025" lon="-5.67170585708681"><ele>16.0</ele><time>2026-04-25T16:01:23.999Z</time></trkpt><trkpt lat="36.062301907411495" lon="-5.671881545071044"><ele>16.0</ele><time>2026-04-25T16:01:24.999Z</time></trkpt><trkpt lat="36.0624360966554" lon="-5.67205426594147"><ele>16.0</ele><time>2026-04-25T16:01:25.999Z</time></trkpt><trkpt lat="36.062563946437386" lon="-5.672224718436838"><ele>16.0</ele><time>2026-04-25T16:01:26.999Z</time></trkpt><trkpt lat="36.06268745247383" lon="-5.672396482166624"><ele>16.0</ele><time>2026-04-25T16:01:27.999Z</time></trkpt><trkpt lat="36.06281201664691" lon="-5.672561194158878"><ele>16.0</ele><time>2026-04-25T16:01:28.999Z</time></trkpt><trkpt lat="36.06293853504509" lon="-5.672726294232299"><ele>16.0</ele><time>2026-04-25T16:01:29.999Z</time></trkpt><trkpt lat="36.063060095016326" lon="-5.672888660784659"><ele>16.0</ele><time>2026-04-25T16:01:30.999Z</time></trkpt><trkpt lat="36.06318302292063" lon="-5.673049019302751"><ele>15.666666666666666</ele><time>2026-04-25T16:01:31.999Z</time></trkpt><trkpt lat="36.063301803681114" lon="-5.673207188650332"><ele>15.333333333333332</ele><time>2026-04-25T16:01:32.999Z</time></trkpt><trkpt lat="36.063421022330274" lon="-5.673371176043609"><ele>15.0</ele><time>2026-04-25T16:01:33.999Z</time></trkpt><trkpt lat="36.063535572755924" lon="-5.673532193384884"><ele>14.666666666666668</ele><time>2026-04-25T16:01:34.999Z</time></trkpt><trkpt lat="36.06365245358691" lon="-5.6736904060622"><ele>14.333333333333334</ele><time>2026-04-25T16:01:35.999Z</time></trkpt><trkpt lat="36.06376814647596" lon="-5.673842976248822"><ele>14.0</ele><time>2026-04-25T16:01:36.999Z</time></trkpt><trkpt lat="36.063888954073725" lon="-5.6739992650651745"><ele>14.0</ele><time>2026-04-25T16:01:37.999Z</time></trkpt><trkpt lat="36.06400899769127" lon="-5.6741581154543255"><ele>14.0</ele><time>2026-04-25T16:01:38.998Z</time></trkpt><trkpt lat="36.06412689749213" lon="-5.674315386847535"><ele>14.0</ele><time>2026-04-25T16:01:39.998Z</time></trkpt><trkpt lat="36.06424292491248" lon="-5.674472775352111"><ele>14.0</ele><time>2026-04-25T16:01:40.998Z</time></trkpt><trkpt lat="36.06435524132168" lon="-5.674631542593052"><ele>14.0</ele><time>2026-04-25T16:01:41.998Z</time></trkpt><trkpt lat="36.06446981641064" lon="-5.67478497430189"><ele>14.0</ele><time>2026-04-25T16:01:42.998Z</time></trkpt><trkpt lat="36.064581405493044" lon="-5.674940546589766"><ele>14.0</ele><time>2026-04-25T16:01:43.998Z</time></trkpt><trkpt lat="36.06469884881192" lon="-5.6751009513744775"><ele>14.0</ele><time>2026-04-25T16:01:44.998Z</time></trkpt><trkpt lat="36.06481979402421" lon="-5.675260203155525"><ele>14.0</ele><time>2026-04-25T16:01:45.998Z</time></trkpt><trkpt lat="36.064937553081315" lon="-5.6754208078790285"><ele>14.666666666666668</ele><time>2026-04-25T16:01:46.998Z</time></trkpt><trkpt lat="36.0650509582716" lon="-5.675574293632677"><ele>15.333333333333332</ele><time>2026-04-25T16:01:47.998Z</time></trkpt><trkpt lat="36.065170442891734" lon="-5.675722745185852"><ele>16.0</ele><time>2026-04-25T16:01:48.998Z</time></trkpt><trkpt lat="36.0652835483013" lon="-5.675872444094912"><ele>16.0</ele><time>2026-04-25T16:01:49.998Z</time></trkpt><trkpt lat="36.065397933115506" lon="-5.676024431830619"><ele>16.0</ele><time>2026-04-25T16:01:50.998Z</time></trkpt><trkpt lat="36.065510885666164" lon="-5.6761802456078945"><ele>16.0</ele><time>2026-04-25T16:01:51.998Z</time></trkpt><trkpt lat="36.06562275382481" lon="-5.676338082403279"><ele>16.333333333333332</ele><time>2026-04-25T16:01:52.998Z</time></trkpt><trkpt lat="36.06573415123703" lon="-5.67648864588656"><ele>16.666666666666668</ele><time>2026-04-25T16:01:53.998Z</time></trkpt><trkpt lat="36.06584234741216" lon="-5.676641114012257"><ele>17.0</ele><time>2026-04-25T16:01:54.998Z</time></trkpt><trkpt lat="36.06594900274449" lon="-5.676786828756278"><ele>17.0</ele><time>2026-04-25T16:01:55.998Z</time></trkpt><trkpt lat="36.06604555835624" lon="-5.676930210268022"><ele>17.0</ele><time>2026-04-25T16:01:56.998Z</time></trkpt><trkpt lat="36.06612967464622" lon="-5.6770706474200034"><ele>17.0</ele><time>2026-04-25T16:01:57.998Z</time></trkpt><trkpt lat="36.066234698236165" lon="-5.677185064576819"><ele>17.0</ele><time>2026-04-25T16:01:58.998Z</time></trkpt><trkpt lat="36.06632316409427" lon="-5.6773052013287195"><ele>17.0</ele><time>2026-04-25T16:01:59.998Z</time></trkpt><trkpt lat="36.066450791287245" lon="-5.677463939220196"><ele>17.0</ele><time>2026-04-25T16:02:00.998Z</time></trkpt><trkpt lat="36.06654291500735" lon="-5.677583768437099"><ele>17.0</ele><time>2026-04-25T16:02:01.998Z</time></trkpt><trkpt lat="36.066636074579584" lon="-5.67770859575135"><ele>16.25</ele><time>2026-04-25T16:02:02.998Z</time></trkpt><trkpt lat="36.066729536662514" lon="-5.677835658457015"><ele>15.5</ele><time>2026-04-25T16:02:04Z</time></trkpt><trkpt lat="36.066823446042584" lon="-5.6779578381303715"><ele>14.75</ele><time>2026-04-25T16:02:05Z</time></trkpt><trkpt lat="36.0669145074796" lon="-5.678073198686"><ele>14.0</ele><time>2026-04-25T16:02:06Z</time></trkpt><trkpt lat="36.066993471378225" lon="-5.678186400639162"><ele>14.0</ele><time>2026-04-25T16:02:07Z</time></trkpt><trkpt lat="36.067073690816365" lon="-5.678297018613004"><ele>14.0</ele><time>2026-04-25T16:02:08Z</time></trkpt><trkpt lat="36.067158322353926" lon="-5.678408645112548"><ele>14.0</ele><time>2026-04-25T16:02:09Z</time></trkpt><trkpt lat="36.06723736830575" lon="-5.6785161719188135"><ele>14.0</ele><time>2026-04-25T16:02:10Z</time></trkpt><trkpt lat="36.06731765465122" lon="-5.67862423078692"><ele>14.0</ele><time>2026-04-25T16:02:11Z</time></trkpt><trkpt lat="36.067400343924064" lon="-5.6787356428253855"><ele>14.0</ele><time>2026-04-25T16:02:12Z</time></trkpt><trkpt lat="36.06748738524022" lon="-5.678852855318307"><ele>14.0</ele><time>2026-04-25T16:02:13Z</time></trkpt><trkpt lat="36.067577366641366" lon="-5.678973459061679"><ele>14.0</ele><time>2026-04-25T16:02:14Z</time></trkpt><trkpt lat="36.067668262188214" lon="-5.679097199919217"><ele>14.0</ele><time>2026-04-25T16:02:15Z</time></trkpt><trkpt lat="36.067762462459925" lon="-5.679222189832937"><ele>14.0</ele><time>2026-04-25T16:02:16Z</time></trkpt><trkpt lat="36.067850537461204" lon="-5.679348786376917"><ele>14.0</ele><time>2026-04-25T16:02:17Z</time></trkpt><trkpt lat="36.06794133643304" lon="-5.679473377457209"><ele>14.0</ele><time>2026-04-25T16:02:18Z</time></trkpt><trkpt lat="36.068034592986564" lon="-5.67959385405706"><ele>14.0</ele><time>2026-04-25T16:02:19Z</time></trkpt><trkpt lat="36.06813030260976" lon="-5.679718882112377"><ele>14.0</ele><time>2026-04-25T16:02:20Z</time></trkpt><trkpt lat="36.06822498403567" lon="-5.679845391423559"><ele>14.0</ele><time>2026-04-25T16:02:21Z</time></trkpt><trkpt lat="36.06832499406833" lon="-5.679981985004314"><ele>14.0</ele><time>2026-04-25T16:02:22Z</time></trkpt><trkpt lat="36.06843815602491" lon="-5.6801377935116415"><ele>13.0</ele><time>2026-04-25T16:02:23Z</time></trkpt><trkpt lat="36.06854680529139" lon="-5.680285644558739"><ele>12.0</ele><time>2026-04-25T16:02:24Z</time></trkpt><trkpt lat="36.068643189310464" lon="-5.680427523211926"><ele>11.0</ele><time>2026-04-25T16:02:25Z</time></trkpt><trkpt lat="36.06873887736678" lon="-5.680583397698409"><ele>11.0</ele><time>2026-04-25T16:02:26Z</time></trkpt><trkpt lat="36.068830694465696" lon="-5.68073970025484"><ele>11.0</ele><time>2026-04-25T16:02:27Z</time></trkpt><trkpt lat="36.068927711309385" lon="-5.680909136262191"><ele>11.0</ele><time>2026-04-25T16:02:28Z</time></trkpt><trkpt lat="36.06902146365861" lon="-5.681067347461819"><ele>11.0</ele><time>2026-04-25T16:02:29Z</time></trkpt><trkpt lat="36.069113907302714" lon="-5.681231026718399"><ele>11.0</ele><time>2026-04-25T16:02:30Z</time></trkpt><trkpt lat="36.0692069761459" lon="-5.681404031753023"><ele>11.0</ele><time>2026-04-25T16:02:31Z</time></trkpt><trkpt lat="36.06930701206836" lon="-5.681578050080872"><ele>11.0</ele><time>2026-04-25T16:02:32Z</time></trkpt><trkpt lat="36.06940263947588" lon="-5.681746629078834"><ele>11.0</ele><time>2026-04-25T16:02:33Z</time></trkpt><trkpt lat="36.06950018161631" lon="-5.681917648702961"><ele>11.0</ele><time>2026-04-25T16:02:34Z</time></trkpt><trkpt lat="36.0695976227691" lon="-5.682097712382382"><ele>10.333333333333332</ele><time>2026-04-25T16:02:35Z</time></trkpt><trkpt lat="36.069691314070454" lon="-5.682266522017193"><ele>9.666666666666666</ele><time>2026-04-25T16:02:36Z</time></trkpt><trkpt lat="36.069784460832324" lon="-5.682435836194383"><ele>9.0</ele><time>2026-04-25T16:02:37Z</time></trkpt><trkpt lat="36.06987936866355" lon="-5.682603710326534"><ele>9.333333333333334</ele><time>2026-04-25T16:02:38Z</time></trkpt><trkpt lat="36.0699738105834" lon="-5.682768384116656"><ele>9.666666666666668</ele><time>2026-04-25T16:02:39Z</time></trkpt><trkpt lat="36.070067086648436" lon="-5.6829310420913774"><ele>10.0</ele><time>2026-04-25T16:02:40Z</time></trkpt><trkpt lat="36.07016107104235" lon="-5.683092073164224"><ele>10.0</ele><time>2026-04-25T16:02:41Z</time></trkpt><trkpt lat="36.07025828121299" lon="-5.683265572095425"><ele>10.0</ele><time>2026-04-25T16:02:42Z</time></trkpt><trkpt lat="36.07034845086788" lon="-5.683426262589895"><ele>10.0</ele><time>2026-04-25T16:02:42.999Z</time></trkpt><trkpt lat="36.0704388718873" lon="-5.683590693449462"><ele>9.333333333333334</ele><time>2026-04-25T16:02:43.999Z</time></trkpt><trkpt lat="36.07052959113074" lon="-5.68374908216736"><ele>8.666666666666666</ele><time>2026-04-25T16:02:44.999Z</time></trkpt><trkpt lat="36.07062730348882" lon="-5.683911376819873"><ele>8.0</ele><time>2026-04-25T16:02:45.999Z</time></trkpt><trkpt lat="36.07073440503127" lon="-5.6840786157086916"><ele>8.0</ele><time>2026-04-25T16:02:46.999Z</time></trkpt><trkpt lat="36.070849501757735" lon="-5.684227222278591"><ele>8.0</ele><time>2026-04-25T16:02:47.999Z</time></trkpt><trkpt lat="36.070970589359185" lon="-5.6843782949966"><ele>8.0</ele><time>2026-04-25T16:02:48.999Z</time></trkpt><trkpt lat="36.07109548109782" lon="-5.684511200360862"><ele>8.0</ele><time>2026-04-25T16:02:49.999Z</time></trkpt><trkpt lat="36.07122563903626" lon="-5.6846409363863115"><ele>8.0</ele><time>2026-04-25T16:02:50.999Z</time></trkpt><trkpt lat="36.071360347237366" lon="-5.684764679697866"><ele>8.0</ele><time>2026-04-25T16:02:51.999Z</time></trkpt><trkpt lat="36.07149194047551" lon="-5.684884958082883"><ele>7.666666666666666</ele><time>2026-04-25T16:02:52.999Z</time></trkpt><trkpt lat="36.07161905867622" lon="-5.6850033446717"><ele>7.333333333333334</ele><time>2026-04-25T16:02:53.999Z</time></trkpt><trkpt lat="36.071744875027214" lon="-5.685125074428077"><ele>7.0</ele><time>2026-04-25T16:02:54.999Z</time></trkpt><trkpt lat="36.071870196976185" lon="-5.6852349522764145"><ele>6.0</ele><time>2026-04-25T16:02:55.999Z</time></trkpt><trkpt lat="36.071997842214685" lon="-5.685347351394159"><ele>5.0</ele><time>2026-04-25T16:02:56.999Z</time></trkpt><trkpt lat="36.07212068742649" lon="-5.685461752046122"><ele>4.0</ele><time>2026-04-25T16:02:57.999Z</time></trkpt><trkpt lat="36.07225124340936" lon="-5.685584776878638"><ele>4.0</ele><time>2026-04-25T16:02:58.999Z</time></trkpt><trkpt lat="36.07237524776898" lon="-5.685694618222255"><ele>4.0</ele><time>2026-04-25T16:02:59.999Z</time></trkpt><trkpt lat="36.07249789848178" lon="-5.685809953354866"><ele>4.0</ele><time>2026-04-25T16:03:00.999Z</time></trkpt><trkpt lat="36.072621484589284" lon="-5.685919414985858"><ele>5.0</ele><time>2026-04-25T16:03:01.999Z</time></trkpt><trkpt lat="36.07274558522671" lon="-5.686032122089993"><ele>6.0</ele><time>2026-04-25T16:03:02.999Z</time></trkpt><trkpt lat="36.0728710885661" lon="-5.686147698748068"><ele>7.0</ele><time>2026-04-25T16:03:03.999Z</time></trkpt><trkpt lat="36.073001089709486" lon="-5.686262701295721"><ele>7.0</ele><time>2026-04-25T16:03:04.999Z</time></trkpt><trkpt lat="36.07313961457298" lon="-5.686384688862994"><ele>7.0</ele><time>2026-04-25T16:03:05.999Z</time></trkpt><trkpt lat="36.0732826463711" lon="-5.6865132633883375"><ele>7.0</ele><time>2026-04-25T16:03:06.999Z</time></trkpt><trkpt lat="36.073423925668386" lon="-5.6866389673648365"><ele>7.0</ele><time>2026-04-25T16:03:07.999Z</time></trkpt><trkpt lat="36.07356468853418" lon="-5.686770862726327"><ele>7.0</ele><time>2026-04-25T16:03:08.999Z</time></trkpt><trkpt lat="36.073702958079075" lon="-5.6868980483185485"><ele>7.0</ele><time>2026-04-25T16:03:09.999Z</time></trkpt><trkpt lat="36.073832187380916" lon="-5.6870166617408415"><ele>7.0</ele><time>2026-04-25T16:03:10.999Z</time></trkpt><trkpt lat="36.07396196380829" lon="-5.687143027921147"><ele>7.0</ele><time>2026-04-25T16:03:11.999Z</time></trkpt><trkpt lat="36.074100663798895" lon="-5.687259370720792"><ele>7.0</ele><time>2026-04-25T16:03:12.999Z</time></trkpt><trkpt lat="36.07423521646377" lon="-5.687377245707778"><ele>7.666666666666667</ele><time>2026-04-25T16:03:13.999Z</time></trkpt><trkpt lat="36.074370270014704" lon="-5.687497555076431"><ele>8.333333333333334</ele><time>2026-04-25T16:03:14.999Z</time></trkpt><trkpt lat="36.07450418607958" lon="-5.687626040522815"><ele>9.0</ele><time>2026-04-25T16:03:15.999Z</time></trkpt><trkpt lat="36.07463290288385" lon="-5.687750059078559"><ele>8.333333333333334</ele><time>2026-04-25T16:03:16.999Z</time></trkpt><trkpt lat="36.07476658746006" lon="-5.687873919836928"><ele>7.666666666666667</ele><time>2026-04-25T16:03:17.999Z</time></trkpt><trkpt lat="36.07489629882731" lon="-5.687988642791497"><ele>7.0</ele><time>2026-04-25T16:03:18.999Z</time></trkpt><trkpt lat="36.0750300048218" lon="-5.688109188459313"><ele>7.0</ele><time>2026-04-25T16:03:19.999Z</time></trkpt><trkpt lat="36.07516462303031" lon="-5.688227181914564"><ele>7.0</ele><time>2026-04-25T16:03:20.999Z</time></trkpt><trkpt lat="36.07530413236226" lon="-5.688353356188235"><ele>7.0</ele><time>2026-04-25T16:03:21.999Z</time></trkpt><trkpt lat="36.07544549156995" lon="-5.688480513894651"><ele>7.0</ele><time>2026-04-25T16:03:22.999Z</time></trkpt><trkpt lat="36.075593463513535" lon="-5.68861535336816"><ele>7.0</ele><time>2026-04-25T16:03:23.999Z</time></trkpt><trkpt lat="36.07574037205967" lon="-5.688750490269874"><ele>7.0</ele><time>2026-04-25T16:03:24.999Z</time></trkpt><trkpt lat="36.07589613153734" lon="-5.6888925706467415"><ele>7.0</ele><time>2026-04-25T16:03:25.999Z</time></trkpt><trkpt lat="36.0760449862546" lon="-5.689031485531272"><ele>7.0</ele><time>2026-04-25T16:03:26.999Z</time></trkpt><trkpt lat="36.07619907254667" lon="-5.689171651005769"><ele>7.0</ele><time>2026-04-25T16:03:27.999Z</time></trkpt><trkpt lat="36.07635672536508" lon="-5.689313493564476"><ele>6.0</ele><time>2026-04-25T16:03:28.999Z</time></trkpt><trkpt lat="36.07651110985695" lon="-5.68944825948784"><ele>5.0</ele><time>2026-04-25T16:03:29.999Z</time></trkpt><trkpt lat="36.076663499268555" lon="-5.689576906187499"><ele>4.0</ele><time>2026-04-25T16:03:30.999Z</time></trkpt><trkpt lat="36.07682209115638" lon="-5.689699856990836"><ele>4.0</ele><time>2026-04-25T16:03:31.999Z</time></trkpt><trkpt lat="36.07698778959388" lon="-5.689806855271322"><ele>4.0</ele><time>2026-04-25T16:03:32.999Z</time></trkpt><trkpt lat="36.07715956300359" lon="-5.689901516385651"><ele>4.0</ele><time>2026-04-25T16:03:33.999Z</time></trkpt><trkpt lat="36.077340202306964" lon="-5.689986096341578"><ele>4.333333333333333</ele><time>2026-04-25T16:03:34.999Z</time></trkpt><trkpt lat="36.07752819900225" lon="-5.69006290776267"><ele>4.666666666666667</ele><time>2026-04-25T16:03:35.999Z</time></trkpt><trkpt lat="36.07771543103515" lon="-5.690131625244008"><ele>5.0</ele><time>2026-04-25T16:03:36.999Z</time></trkpt><trkpt lat="36.07790468631193" lon="-5.690196139600138"><ele>5.0</ele><time>2026-04-25T16:03:37.999Z</time></trkpt><trkpt lat="36.07809110274853" lon="-5.690257389399123"><ele>5.0</ele><time>2026-04-25T16:03:38.999Z</time></trkpt><trkpt lat="36.07827274761817" lon="-5.690316097469034"><ele>5.0</ele><time>2026-04-25T16:03:39.999Z</time></trkpt><trkpt lat="36.078455421405096" lon="-5.690379273655944"><ele>4.0</ele><time>2026-04-25T16:03:40.999Z</time></trkpt><trkpt lat="36.07864284790114" lon="-5.690444456454699"><ele>3.0</ele><time>2026-04-25T16:03:41.999Z</time></trkpt><trkpt lat="36.07882898737653" lon="-5.690502875295686"><ele>2.0</ele><time>2026-04-25T16:03:42.999Z</time></trkpt><trkpt lat="36.07901445840065" lon="-5.690563864986432"><ele>2.6666666666666665</ele><time>2026-04-25T16:03:43.999Z</time></trkpt><trkpt lat="36.07920126677414" lon="-5.690628456633912"><ele>3.333333333333333</ele><time>2026-04-25T16:03:44.999Z</time></trkpt><trkpt lat="36.07939025738525" lon="-5.690693609099213"><ele>4.0</ele><time>2026-04-25T16:03:45.999Z</time></trkpt><trkpt lat="36.079582198890755" lon="-5.690759944428559"><ele>4.0</ele><time>2026-04-25T16:03:46.999Z</time></trkpt><trkpt lat="36.07976782359741" lon="-5.690819935611985"><ele>4.0</ele><time>2026-04-25T16:03:47.998Z</time></trkpt><trkpt lat="36.079950722853525" lon="-5.690884587389931"><ele>4.0</ele><time>2026-04-25T16:03:48.998Z</time></trkpt><trkpt lat="36.0801439671131" lon="-5.690947571555082"><ele>4.0</ele><time>2026-04-25T16:03:49.998Z</time></trkpt><trkpt lat="36.08033662936275" lon="-5.691012078312998"><ele>4.0</ele><time>2026-04-25T16:03:50.998Z</time></trkpt><trkpt lat="36.08052734434477" lon="-5.691077281291925"><ele>4.0</ele><time>2026-04-25T16:03:51.998Z</time></trkpt><trkpt lat="36.080712739983824" lon="-5.69114182179626"><ele>4.0</ele><time>2026-04-25T16:03:52.998Z</time></trkpt><trkpt lat="36.080899501168865" lon="-5.691205414374866"><ele>4.0</ele><time>2026-04-25T16:03:53.998Z</time></trkpt><trkpt lat="36.08107947984872" lon="-5.691269589325491"><ele>4.0</ele><time>2026-04-25T16:03:54.998Z</time></trkpt><trkpt lat="36.08126083274415" lon="-5.691336173789925"><ele>4.0</ele><time>2026-04-25T16:03:55.998Z</time></trkpt><trkpt lat="36.08143807504382" lon="-5.691406659630113"><ele>4.0</ele><time>2026-04-25T16:03:56.998Z</time></trkpt><trkpt lat="36.081613411567034" lon="-5.691476843671015"><ele>4.0</ele><time>2026-04-25T16:03:57.998Z</time></trkpt><trkpt lat="36.081793314821795" lon="-5.691544033390268"><ele>5.666666666666666</ele><time>2026-04-25T16:03:58.998Z</time></trkpt><trkpt lat="36.08197835111295" lon="-5.691598924001798"><ele>7.333333333333333</ele><time>2026-04-25T16:03:59.998Z</time></trkpt><trkpt lat="36.082159576680745" lon="-5.691647230761893"><ele>9.0</ele><time>2026-04-25T16:04:00.998Z</time></trkpt><trkpt lat="36.08234558705975" lon="-5.6916882794699"><ele>9.666666666666666</ele><time>2026-04-25T16:04:01.998Z</time></trkpt><trkpt lat="36.082532246227935" lon="-5.691725432989728"><ele>10.333333333333332</ele><time>2026-04-25T16:04:02.998Z</time></trkpt><trkpt lat="36.082724880218215" lon="-5.691761809116104"><ele>11.0</ele><time>2026-04-25T16:04:03.998Z</time></trkpt><trkpt lat="36.08291765676432" lon="-5.691793035030809"><ele>11.0</ele><time>2026-04-25T16:04:04.998Z</time></trkpt><trkpt lat="36.0831107501148" lon="-5.691820995361218"><ele>11.0</ele><time>2026-04-25T16:04:05.998Z</time></trkpt><trkpt lat="36.08330425542782" lon="-5.691847938575498"><ele>11.0</ele><time>2026-04-25T16:04:06.998Z</time></trkpt><trkpt lat="36.08349902122977" lon="-5.691875736869247"><ele>10.333333333333332</ele><time>2026-04-25T16:04:07.998Z</time></trkpt><trkpt lat="36.08369574892548" lon="-5.691906617520013"><ele>9.666666666666666</ele><time>2026-04-25T16:04:08.998Z</time></trkpt><trkpt lat="36.0838927117299" lon="-5.69193692067242"><ele>9.0</ele><time>2026-04-25T16:04:10Z</time></trkpt><trkpt lat="36.08408964929921" lon="-5.691965283436751"><ele>8.333333333333334</ele><time>2026-04-25T16:04:11Z</time></trkpt><trkpt lat="36.084293804079614" lon="-5.69198599777856"><ele>7.666666666666667</ele><time>2026-04-25T16:04:12Z</time></trkpt><trkpt lat="36.084494750443675" lon="-5.692000474091927"><ele>7.0</ele><time>2026-04-25T16:04:13Z</time></trkpt><trkpt lat="36.08469589720978" lon="-5.692001851326214"><ele>7.0</ele><time>2026-04-25T16:04:14Z</time></trkpt><trkpt lat="36.08490594108006" lon="-5.691994843204976"><ele>7.0</ele><time>2026-04-25T16:04:15Z</time></trkpt><trkpt lat="36.08512364513442" lon="-5.691983937920647"><ele>7.0</ele><time>2026-04-25T16:04:16Z</time></trkpt><trkpt lat="36.08534698219552" lon="-5.691978344358834"><ele>7.5</ele><time>2026-04-25T16:04:17Z</time></trkpt><trkpt lat="36.08557367758114" lon="-5.691966493517175"><ele>8.0</ele><time>2026-04-25T16:04:18Z</time></trkpt><trkpt lat="36.085805318276414" lon="-5.691951325520326"><ele>8.0</ele><time>2026-04-25T16:04:19Z</time></trkpt><trkpt lat="36.086035524655706" lon="-5.691937449284339"><ele>8.0</ele><time>2026-04-25T16:04:20Z</time></trkpt><trkpt lat="36.08626853912818" lon="-5.691928674751682"><ele>8.0</ele><time>2026-04-25T16:04:21Z</time></trkpt><trkpt lat="36.08650621198511" lon="-5.691931022765818"><ele>8.0</ele><time>2026-04-25T16:04:22Z</time></trkpt><trkpt lat="36.08674353242374" lon="-5.691953099064956"><ele>8.0</ele><time>2026-04-25T16:04:23Z</time></trkpt><trkpt lat="36.08698492171865" lon="-5.691991860627979"><ele>8.0</ele><time>2026-04-25T16:04:24Z</time></trkpt><trkpt lat="36.08722054835047" lon="-5.692049659023781"><ele>9.0</ele><time>2026-04-25T16:04:25Z</time></trkpt><trkpt lat="36.08746148418971" lon="-5.692130170189788"><ele>10.0</ele><time>2026-04-25T16:04:26Z</time></trkpt><trkpt lat="36.087695697455715" lon="-5.692234329939775"><ele>10.0</ele><time>2026-04-25T16:04:27Z</time></trkpt><trkpt lat="36.08793038121059" lon="-5.692360538288825"><ele>10.0</ele><time>2026-04-25T16:04:28Z</time></trkpt><trkpt lat="36.08815508866805" lon="-5.692508611442737"><ele>9.0</ele><time>2026-04-25T16:04:29Z</time></trkpt><trkpt lat="36.088374745932576" lon="-5.6926758383675224"><ele>8.0</ele><time>2026-04-25T16:04:30Z</time></trkpt><trkpt lat="36.088581120424" lon="-5.692859678332275"><ele>8.0</ele><time>2026-04-25T16:04:31Z</time></trkpt><trkpt lat="36.088781284034816" lon="-5.693064267715237"><ele>8.0</ele><time>2026-04-25T16:04:32Z</time></trkpt><trkpt lat="36.08896796930294" lon="-5.693288361226619"><ele>9.0</ele><time>2026-04-25T16:04:33Z</time></trkpt><trkpt lat="36.08914851320221" lon="-5.693533978187252"><ele>10.0</ele><time>2026-04-25T16:04:34Z</time></trkpt><trkpt lat="36.08931982018788" lon="-5.693801851607075"><ele>10.0</ele><time>2026-04-25T16:04:35Z</time></trkpt><trkpt lat="36.089487727917486" lon="-5.694072825923191"><ele>10.0</ele><time>2026-04-25T16:04:36Z</time></trkpt><trkpt lat="36.08965963176275" lon="-5.694342566178346"><ele>10.0</ele><time>2026-04-25T16:04:37Z</time></trkpt><trkpt lat="36.08984666141731" lon="-5.69460131721724"><ele>10.0</ele><time>2026-04-25T16:04:38Z</time></trkpt><trkpt lat="36.09004308406688" lon="-5.694830746437658"><ele>12.0</ele><time>2026-04-25T16:04:39Z</time></trkpt><trkpt lat="36.090254878621245" lon="-5.695038887844146"><ele>14.0</ele><time>2026-04-25T16:04:40Z</time></trkpt><trkpt lat="36.09047801531184" lon="-5.695232119125375"><ele>15.5</ele><time>2026-04-25T16:04:41Z</time></trkpt><trkpt lat="36.09071782623321" lon="-5.6954065980037445"><ele>17.0</ele><time>2026-04-25T16:04:42Z</time></trkpt><trkpt lat="36.09096213956186" lon="-5.695556509451561"><ele>17.0</ele><time>2026-04-25T16:04:43Z</time></trkpt><trkpt lat="36.091213633548215" lon="-5.695696897138702"><ele>17.0</ele><time>2026-04-25T16:04:44Z</time></trkpt><trkpt lat="36.09146805670703" lon="-5.695820332950044"><ele>20.0</ele><time>2026-04-25T16:04:45Z</time></trkpt><trkpt lat="36.09172015358548" lon="-5.695938797586139"><ele>23.0</ele><time>2026-04-25T16:04:46Z</time></trkpt><trkpt lat="36.09196550187726" lon="-5.696054955956815"><ele>18.5</ele><time>2026-04-25T16:04:47Z</time></trkpt><trkpt lat="36.09219843817442" lon="-5.696168177067357"><ele>14.0</ele><time>2026-04-25T16:04:48Z</time></trkpt><trkpt lat="36.0924356028411" lon="-5.696296858327607"><ele>14.0</ele><time>2026-04-25T16:04:49Z</time></trkpt><trkpt lat="36.09266854693609" lon="-5.696447713807209"><ele>14.0</ele><time>2026-04-25T16:04:50Z</time></trkpt><trkpt lat="36.09289810666046" lon="-5.696624069600827"><ele>14.0</ele><time>2026-04-25T16:04:51Z</time></trkpt><trkpt lat="36.093113426470126" lon="-5.696816325940723"><ele>14.0</ele><time>2026-04-25T16:04:52Z</time></trkpt><trkpt lat="36.09332578397166" lon="-5.69701720256749"><ele>13.0</ele><time>2026-04-25T16:04:53Z</time></trkpt><trkpt lat="36.093531507570205" lon="-5.697215675451458"><ele>12.0</ele><time>2026-04-25T16:04:53.999Z</time></trkpt><trkpt lat="36.09372670775832" lon="-5.697406173635047"><ele>12.0</ele><time>2026-04-25T16:04:54.999Z</time></trkpt><trkpt lat="36.0939205155223" lon="-5.697598473726765"><ele>12.0</ele><time>2026-04-25T16:04:55.999Z</time></trkpt><trkpt lat="36.094106809010434" lon="-5.697783722180063"><ele>12.5</ele><time>2026-04-25T16:04:56.999Z</time></trkpt><trkpt lat="36.09429108234339" lon="-5.697964790631929"><ele>13.0</ele><time>2026-04-25T16:04:57.999Z</time></trkpt><trkpt lat="36.09447425374708" lon="-5.698142512386693"><ele>13.0</ele><time>2026-04-25T16:04:58.999Z</time></trkpt><trkpt lat="36.09466496315581" lon="-5.69831266290365"><ele>13.0</ele><time>2026-04-25T16:04:59.999Z</time></trkpt><trkpt lat="36.094863564655995" lon="-5.698464107999029"><ele>13.5</ele><time>2026-04-25T16:05:00.999Z</time></trkpt><trkpt lat="36.09508096929132" lon="-5.698586825742989"><ele>14.0</ele><time>2026-04-25T16:05:01.999Z</time></trkpt><trkpt lat="36.09530716835243" lon="-5.698675878577029"><ele>14.0</ele><time>2026-04-25T16:05:02.999Z</time></trkpt><trkpt lat="36.09553698127743" lon="-5.698760578109559"><ele>14.0</ele><time>2026-04-25T16:05:03.999Z</time></trkpt><trkpt lat="36.09576360527154" lon="-5.698847510747122"><ele>14.5</ele><time>2026-04-25T16:05:04.999Z</time></trkpt><trkpt lat="36.095988486196326" lon="-5.698932977898849"><ele>15.0</ele><time>2026-04-25T16:05:05.999Z</time></trkpt><trkpt lat="36.096210232266024" lon="-5.699015801916035"><ele>15.0</ele><time>2026-04-25T16:05:06.999Z</time></trkpt><trkpt lat="36.09643062585691" lon="-5.699101819404163"><ele>15.0</ele><time>2026-04-25T16:05:07.999Z</time></trkpt><trkpt lat="36.09664542000974" lon="-5.699187667773401"><ele>15.333333333333332</ele><time>2026-04-25T16:05:08.999Z</time></trkpt><trkpt lat="36.096851174401074" lon="-5.699287700694442"><ele>15.666666666666666</ele><time>2026-04-25T16:05:09.999Z</time></trkpt><trkpt lat="36.09705242103307" lon="-5.699418903474919"><ele>16.0</ele><time>2026-04-25T16:05:10.999Z</time></trkpt><trkpt lat="36.09724906122637" lon="-5.699586054077792"><ele>16.5</ele><time>2026-04-25T16:05:11.999Z</time></trkpt><trkpt lat="36.097427650751655" lon="-5.699789987520972"><ele>17.0</ele><time>2026-04-25T16:05:12.999Z</time></trkpt><trkpt lat="36.097604127618254" lon="-5.700002271686252"><ele>17.0</ele><time>2026-04-25T16:05:13.999Z</time></trkpt><trkpt lat="36.097775877061586" lon="-5.700224880269512"><ele>17.0</ele><time>2026-04-25T16:05:14.999Z</time></trkpt><trkpt lat="36.09795869669514" lon="-5.700436094905964"><ele>16.5</ele><time>2026-04-25T16:05:15.999Z</time></trkpt><trkpt lat="36.098143546336914" lon="-5.700646135232027"><ele>16.0</ele><time>2026-04-25T16:05:16.999Z</time></trkpt><trkpt lat="36.09832230888406" lon="-5.700855940586356"><ele>15.5</ele><time>2026-04-25T16:05:17.999Z</time></trkpt><trkpt lat="36.09849632967447" lon="-5.701061203041498"><ele>15.0</ele><time>2026-04-25T16:05:18.999Z</time></trkpt><trkpt lat="36.09866985677787" lon="-5.701265911139043"><ele>17.0</ele><time>2026-04-25T16:05:19.999Z</time></trkpt><trkpt lat="36.09884024382258" lon="-5.701464246555157"><ele>19.0</ele><time>2026-04-25T16:05:20.999Z</time></trkpt><trkpt lat="36.09901215588463" lon="-5.701657431312004"><ele>19.0</ele><time>2026-04-25T16:05:21.999Z</time></trkpt><trkpt lat="36.09917680395579" lon="-5.701843984716586"><ele>19.0</ele><time>2026-04-25T16:05:22.999Z</time></trkpt><trkpt lat="36.09935021368268" lon="-5.702022412519039"><ele>19.0</ele><time>2026-04-25T16:05:23.999Z</time></trkpt><trkpt lat="36.099518309435986" lon="-5.702188650119436"><ele>19.0</ele><time>2026-04-25T16:05:24.999Z</time></trkpt><trkpt lat="36.099679309378395" lon="-5.702342116521289"><ele>19.0</ele><time>2026-04-25T16:05:25.999Z</time></trkpt><trkpt lat="36.09984972183316" lon="-5.7025039760162075"><ele>19.0</ele><time>2026-04-25T16:05:26.999Z</time></trkpt><trkpt lat="36.10001991050252" lon="-5.702662684442553"><ele>20.0</ele><time>2026-04-25T16:05:27.999Z</time></trkpt><trkpt lat="36.10018758152484" lon="-5.702826494543167"><ele>21.0</ele><time>2026-04-25T16:05:28.999Z</time></trkpt><trkpt lat="36.100351212656044" lon="-5.703002332983502"><ele>22.0</ele><time>2026-04-25T16:05:29.999Z</time></trkpt><trkpt lat="36.10051081406392" lon="-5.7031858715696595"><ele>22.0</ele><time>2026-04-25T16:05:30.999Z</time></trkpt><trkpt lat="36.10066456629736" lon="-5.703394495902092"><ele>22.0</ele><time>2026-04-25T16:05:31.999Z</time></trkpt><trkpt lat="36.100806865440106" lon="-5.703618600718472"><ele>22.0</ele><time>2026-04-25T16:05:32.999Z</time></trkpt><trkpt lat="36.10094488446882" lon="-5.703851758317196"><ele>22.0</ele><time>2026-04-25T16:05:33.999Z</time></trkpt><trkpt lat="36.10108629264047" lon="-5.704082013110425"><ele>22.0</ele><time>2026-04-25T16:05:34.999Z</time></trkpt><trkpt lat="36.101223132501765" lon="-5.704307736450115"><ele>22.0</ele><time>2026-04-25T16:05:35.999Z</time></trkpt><trkpt lat="36.10135624106684" lon="-5.704523945981802"><ele>22.0</ele><time>2026-04-25T16:05:36.999Z</time></trkpt><trkpt lat="36.10149561713865" lon="-5.7047356312959545"><ele>22.333333333333332</ele><time>2026-04-25T16:05:37.999Z</time></trkpt><trkpt lat="36.101630930927776" lon="-5.70494500057088"><ele>22.666666666666668</ele><time>2026-04-25T16:05:38.999Z</time></trkpt><trkpt lat="36.10176696047587" lon="-5.705162149357413"><ele>23.0</ele><time>2026-04-25T16:05:39.999Z</time></trkpt><trkpt lat="36.10189726468236" lon="-5.705375699554102"><ele>24.0</ele><time>2026-04-25T16:05:40.999Z</time></trkpt><trkpt lat="36.10202437300255" lon="-5.705578558094908"><ele>25.0</ele><time>2026-04-25T16:05:41.999Z</time></trkpt><trkpt lat="36.10216632213571" lon="-5.705774641423311"><ele>26.0</ele><time>2026-04-25T16:05:42.999Z</time></trkpt><trkpt lat="36.10231626346746" lon="-5.705961062038829"><ele>25.666666666666664</ele><time>2026-04-25T16:05:43.999Z</time></trkpt><trkpt lat="36.102474641475425" lon="-5.706136913547933"><ele>25.333333333333336</ele><time>2026-04-25T16:05:44.999Z</time></trkpt><trkpt lat="36.10264974475684" lon="-5.706286364676446"><ele>25.0</ele><time>2026-04-25T16:05:45.999Z</time></trkpt><trkpt lat="36.10283788480526" lon="-5.706409597487863"><ele>25.0</ele><time>2026-04-25T16:05:46.999Z</time></trkpt><trkpt lat="36.10303601065502" lon="-5.7065103274584805"><ele>25.0</ele><time>2026-04-25T16:05:47.999Z</time></trkpt><trkpt lat="36.10323554837922" lon="-5.70660272350135"><ele>25.0</ele><time>2026-04-25T16:05:48.999Z</time></trkpt><trkpt lat="36.103436588395105" lon="-5.706704857361418"><ele>25.0</ele><time>2026-04-25T16:05:49.999Z</time></trkpt><trkpt lat="36.10363441206988" lon="-5.706809050454612"><ele>25.0</ele><time>2026-04-25T16:05:50.999Z</time></trkpt><trkpt lat="36.103831226794746" lon="-5.706905999487334"><ele>25.0</ele><time>2026-04-25T16:05:51.999Z</time></trkpt><trkpt lat="36.10403029137841" lon="-5.707007662353127"><ele>23.666666666666668</ele><time>2026-04-25T16:05:52.999Z</time></trkpt><trkpt lat="36.10422126740877" lon="-5.707107854939431"><ele>22.333333333333336</ele><time>2026-04-25T16:05:53.999Z</time></trkpt><trkpt lat="36.10441776342465" lon="-5.707207540531848"><ele>21.0</ele><time>2026-04-25T16:05:54.999Z</time></trkpt><trkpt lat="36.10461269149327" lon="-5.707308398076399"><ele>21.0</ele><time>2026-04-25T16:05:55.999Z</time></trkpt><trkpt lat="36.10480539278217" lon="-5.707407474736068"><ele>21.0</ele><time>2026-04-25T16:05:56.999Z</time></trkpt><trkpt lat="36.10500006349158" lon="-5.707503288140247"><ele>21.0</ele><time>2026-04-25T16:05:57.999Z</time></trkpt><trkpt lat="36.10519474723847" lon="-5.707601467500233"><ele>21.333333333333332</ele><time>2026-04-25T16:05:58.998Z</time></trkpt><trkpt lat="36.10539160077954" lon="-5.70770247876435"><ele>21.666666666666664</ele><time>2026-04-25T16:05:59.998Z</time></trkpt><trkpt lat="36.105588886441396" lon="-5.707804595317408"><ele>22.0</ele><time>2026-04-25T16:06:00.998Z</time></trkpt><trkpt lat="36.10578711679728" lon="-5.707904752934606"><ele>23.0</ele><time>2026-04-25T16:06:01.998Z</time></trkpt><trkpt lat="36.10598426756552" lon="-5.707999779150102"><ele>24.0</ele><time>2026-04-25T16:06:02.998Z</time></trkpt><trkpt lat="36.10618241278684" lon="-5.7080966667511825"><ele>25.0</ele><time>2026-04-25T16:06:03.998Z</time></trkpt><trkpt lat="36.10638478382294" lon="-5.708189836639709"><ele>24.333333333333336</ele><time>2026-04-25T16:06:04.998Z</time></trkpt><trkpt lat="36.106579880318314" lon="-5.708288644709867"><ele>23.666666666666668</ele><time>2026-04-25T16:06:05.998Z</time></trkpt><trkpt lat="36.10678177739145" lon="-5.708390150000418"><ele>23.0</ele><time>2026-04-25T16:06:06.998Z</time></trkpt><trkpt lat="36.106983060360186" lon="-5.708484135638867"><ele>23.666666666666668</ele><time>2026-04-25T16:06:07.998Z</time></trkpt><trkpt lat="36.10719110143325" lon="-5.708585676521533"><ele>24.333333333333336</ele><time>2026-04-25T16:06:08.998Z</time></trkpt><trkpt lat="36.10739563703457" lon="-5.708686500025601"><ele>25.0</ele><time>2026-04-25T16:06:09.998Z</time></trkpt><trkpt lat="36.1075966502937" lon="-5.708786889330253"><ele>25.0</ele><time>2026-04-25T16:06:10.998Z</time></trkpt><trkpt lat="36.10779514037362" lon="-5.708889225156965"><ele>25.0</ele><time>2026-04-25T16:06:11.998Z</time></trkpt><trkpt lat="36.10799398252873" lon="-5.7089892416233825"><ele>25.0</ele><time>2026-04-25T16:06:12.998Z</time></trkpt><trkpt lat="36.10819136444388" lon="-5.709090368787974"><ele>26.0</ele><time>2026-04-25T16:06:13.998Z</time></trkpt><trkpt lat="36.10837867033789" lon="-5.709183454805011"><ele>27.0</ele><time>2026-04-25T16:06:14.998Z</time></trkpt><trkpt lat="36.10856650707532" lon="-5.7092848944230035"><ele>28.0</ele><time>2026-04-25T16:06:16Z</time></trkpt><trkpt lat="36.10873982850694" lon="-5.709369936200473"><ele>28.0</ele><time>2026-04-25T16:06:17Z</time></trkpt><trkpt lat="36.10891322472521" lon="-5.709453341858557"><ele>28.0</ele><time>2026-04-25T16:06:18Z</time></trkpt><trkpt lat="36.10909018614068" lon="-5.709524602241747"><ele>28.0</ele><time>2026-04-25T16:06:19Z</time></trkpt><trkpt lat="36.10927167065878" lon="-5.709579622975251"><ele>27.0</ele><time>2026-04-25T16:06:20Z</time></trkpt><trkpt lat="36.109462980767574" lon="-5.709592442145642"><ele>26.0</ele><time>2026-04-25T16:06:21Z</time></trkpt><trkpt lat="36.10965599104897" lon="-5.709607235538997"><ele>25.0</ele><time>2026-04-25T16:06:22Z</time></trkpt><trkpt lat="36.1098377976773" lon="-5.709636490994435"><ele>25.0</ele><time>2026-04-25T16:06:23Z</time></trkpt><trkpt lat="36.110019569413986" lon="-5.709638243059981"><ele>25.0</ele><time>2026-04-25T16:06:24Z</time></trkpt><trkpt lat="36.110189441448455" lon="-5.709645067668023"><ele>25.0</ele><time>2026-04-25T16:06:25Z</time></trkpt><trkpt lat="36.11034420146222" lon="-5.709650194665241"><ele>25.0</ele><time>2026-04-25T16:06:26Z</time></trkpt><trkpt lat="36.1104937232117" lon="-5.709654758409988"><ele>25.0</ele><time>2026-04-25T16:06:27Z</time></trkpt><trkpt lat="36.11065016283675" lon="-5.709658871739835"><ele>25.0</ele><time>2026-04-25T16:06:28Z</time></trkpt><trkpt lat="36.110802267844356" lon="-5.709664887562591"><ele>27.0</ele><time>2026-04-25T16:06:29Z</time></trkpt><trkpt lat="36.110958778212634" lon="-5.70967247533658"><ele>29.0</ele><time>2026-04-25T16:06:30Z</time></trkpt><trkpt lat="36.11111751458997" lon="-5.709679941829332"><ele>31.0</ele><time>2026-04-25T16:06:31Z</time></trkpt><trkpt lat="36.111278344145674" lon="-5.709686259777334"><ele>31.0</ele><time>2026-04-25T16:06:32Z</time></trkpt><trkpt lat="36.111448281916644" lon="-5.709695333003568"><ele>31.0</ele><time>2026-04-25T16:06:33Z</time></trkpt><trkpt lat="36.1116190082018" lon="-5.709700511296235"><ele>31.0</ele><time>2026-04-25T16:06:34Z</time></trkpt><trkpt lat="36.11179214846915" lon="-5.709706070770184"><ele>31.333333333333336</ele><time>2026-04-25T16:06:35Z</time></trkpt><trkpt lat="36.11196561962248" lon="-5.709713981464294"><ele>31.666666666666664</ele><time>2026-04-25T16:06:36Z</time></trkpt><trkpt lat="36.112139113679575" lon="-5.709725039381221"><ele>32.0</ele><time>2026-04-25T16:06:37Z</time></trkpt><trkpt lat="36.112312881744494" lon="-5.709732748401115"><ele>32.33333333333333</ele><time>2026-04-25T16:06:38Z</time></trkpt><trkpt lat="36.11248585156146" lon="-5.7097401904252765"><ele>32.666666666666664</ele><time>2026-04-25T16:06:39Z</time></trkpt><trkpt lat="36.11266031239933" lon="-5.709744044438629"><ele>33.0</ele><time>2026-04-25T16:06:40Z</time></trkpt><trkpt lat="36.11282805298305" lon="-5.70974686981847"><ele>33.0</ele><time>2026-04-25T16:06:41Z</time></trkpt><trkpt lat="36.11299898103189" lon="-5.709745423317374"><ele>33.0</ele><time>2026-04-25T16:06:42Z</time></trkpt><trkpt lat="36.113169682266516" lon="-5.709735462235963"><ele>33.0</ele><time>2026-04-25T16:06:43Z</time></trkpt><trkpt lat="36.11334035107372" lon="-5.709719551110278"><ele>33.333333333333336</ele><time>2026-04-25T16:06:44Z</time></trkpt><trkpt lat="36.1135041596272" lon="-5.709693360045847"><ele>33.66666666666667</ele><time>2026-04-25T16:06:45Z</time></trkpt><trkpt lat="36.11367364633983" lon="-5.7096605795158135"><ele>34.0</ele><time>2026-04-25T16:06:46Z</time></trkpt><trkpt lat="36.11383878708274" lon="-5.709617041154794"><ele>34.0</ele><time>2026-04-25T16:06:47Z</time></trkpt><trkpt lat="36.114002603426634" lon="-5.709573063041452"><ele>34.0</ele><time>2026-04-25T16:06:48Z</time></trkpt><trkpt lat="36.11416533878626" lon="-5.709518712142292"><ele>34.0</ele><time>2026-04-25T16:06:49Z</time></trkpt><trkpt lat="36.11432427884676" lon="-5.709436083728259"><ele>33.333333333333336</ele><time>2026-04-25T16:06:50Z</time></trkpt><trkpt lat="36.11449166110644" lon="-5.7093819972560045"><ele>32.666666666666664</ele><time>2026-04-25T16:06:51Z</time></trkpt><trkpt lat="36.11465103406988" lon="-5.7093022017069375"><ele>32.0</ele><time>2026-04-25T16:06:52Z</time></trkpt><trkpt lat="36.11480792679918" lon="-5.709208127437961"><ele>33.0</ele><time>2026-04-25T16:06:53Z</time></trkpt><trkpt lat="36.11496488583969" lon="-5.709122099169804"><ele>34.0</ele><time>2026-04-25T16:06:54Z</time></trkpt><trkpt lat="36.11512415969583" lon="-5.709030205018509"><ele>35.0</ele><time>2026-04-25T16:06:54.999Z</time></trkpt><trkpt lat="36.115284177623636" lon="-5.708934088230724"><ele>35.0</ele><time>2026-04-25T16:06:55.999Z</time></trkpt><trkpt lat="36.115453620835765" lon="-5.708840302828073"><ele>35.0</ele><time>2026-04-25T16:06:56.999Z</time></trkpt><trkpt lat="36.1156165499319" lon="-5.708741772835957"><ele>35.0</ele><time>2026-04-25T16:06:57.999Z</time></trkpt><trkpt lat="36.11577472062636" lon="-5.708646550142731"><ele>35.33333333333333</ele><time>2026-04-25T16:06:58.999Z</time></trkpt><trkpt lat="36.11594560822496" lon="-5.7085522448202495"><ele>35.666666666666664</ele><time>2026-04-25T16:06:59.999Z</time></trkpt><trkpt lat="36.1161399924121" lon="-5.70843606551144"><ele>36.0</ele><time>2026-04-25T16:07:00.999Z</time></trkpt><trkpt lat="36.11635036207585" lon="-5.708315986249688"><ele>36.0</ele><time>2026-04-25T16:07:01.999Z</time></trkpt><trkpt lat="36.1165693504116" lon="-5.708168178179793"><ele>36.0</ele><time>2026-04-25T16:07:02.999Z</time></trkpt><trkpt lat="36.11680764542473" lon="-5.708030575153736"><ele>36.5</ele><time>2026-04-25T16:07:03.999Z</time></trkpt><trkpt lat="36.11705771425468" lon="-5.7078839204368785"><ele>37.0</ele><time>2026-04-25T16:07:04.999Z</time></trkpt><trkpt lat="36.11731903102455" lon="-5.7077292020929695"><ele>39.5</ele><time>2026-04-25T16:07:05.999Z</time></trkpt><trkpt lat="36.11757157769662" lon="-5.707594197434464"><ele>42.0</ele><time>2026-04-25T16:07:06.999Z</time></trkpt><trkpt lat="36.1178117251673" lon="-5.707449444358966"><ele>42.0</ele><time>2026-04-25T16:07:07.999Z</time></trkpt><trkpt lat="36.118050679498324" lon="-5.707317978130217"><ele>42.0</ele><time>2026-04-25T16:07:08.999Z</time></trkpt><trkpt lat="36.11829089312221" lon="-5.7071938706309595"><ele>45.5</ele><time>2026-04-25T16:07:09.999Z</time></trkpt><trkpt lat="36.118531465559236" lon="-5.707090528238366"><ele>49.0</ele><time>2026-04-25T16:07:10.999Z</time></trkpt><trkpt lat="36.11877544561042" lon="-5.707009628966303"><ele>49.0</ele><time>2026-04-25T16:07:11.999Z</time></trkpt><trkpt lat="36.11902436046197" lon="-5.7069438094542235"><ele>49.0</ele><time>2026-04-25T16:07:12.999Z</time></trkpt><trkpt lat="36.119275852425154" lon="-5.706894267556503"><ele>48.0</ele><time>2026-04-25T16:07:13.999Z</time></trkpt><trkpt lat="36.119522978857354" lon="-5.706867900093341"><ele>47.0</ele><time>2026-04-25T16:07:14.999Z</time></trkpt><trkpt lat="36.11978481353635" lon="-5.706848404329195"><ele>47.5</ele><time>2026-04-25T16:07:15.999Z</time></trkpt><trkpt lat="36.12005065958462" lon="-5.706846014979869"><ele>48.0</ele><time>2026-04-25T16:07:16.999Z</time></trkpt><trkpt lat="36.12031774637386" lon="-5.706868876589404"><ele>48.0</ele><time>2026-04-25T16:07:17.999Z</time></trkpt><trkpt lat="36.120590915314004" lon="-5.706904693052655"><ele>48.0</ele><time>2026-04-25T16:07:18.999Z</time></trkpt><trkpt lat="36.12085500462614" lon="-5.7069706904362185"><ele>53.0</ele><time>2026-04-25T16:07:19.999Z</time></trkpt><trkpt lat="36.121125644953054" lon="-5.707058032350198"><ele>58.0</ele><time>2026-04-25T16:07:20.999Z</time></trkpt><trkpt lat="36.12139156164475" lon="-5.70715972074335"><ele>58.5</ele><time>2026-04-25T16:07:21.999Z</time></trkpt><trkpt lat="36.12165191870651" lon="-5.707277519368424"><ele>59.0</ele><time>2026-04-25T16:07:22.999Z</time></trkpt><trkpt lat="36.121902762355184" lon="-5.7074173784465465"><ele>59.0</ele><time>2026-04-25T16:07:23.999Z</time></trkpt><trkpt lat="36.12214782206642" lon="-5.707573771685228"><ele>59.0</ele><time>2026-04-25T16:07:24.999Z</time></trkpt><trkpt lat="36.12238742723757" lon="-5.707737634440373"><ele>62.0</ele><time>2026-04-25T16:07:25.999Z</time></trkpt><trkpt lat="36.12261993018663" lon="-5.707899821814332"><ele>65.0</ele><time>2026-04-25T16:07:26.999Z</time></trkpt><trkpt lat="36.122848105049336" lon="-5.708043230020785"><ele>65.0</ele><time>2026-04-25T16:07:27.999Z</time></trkpt><trkpt lat="36.12306397188467" lon="-5.708164026072274"><ele>65.0</ele><time>2026-04-25T16:07:28.999Z</time></trkpt><trkpt lat="36.123295928244964" lon="-5.708274138047523"><ele>64.5</ele><time>2026-04-25T16:07:29.999Z</time></trkpt><trkpt lat="36.123538952508156" lon="-5.708367361413262"><ele>64.0</ele><time>2026-04-25T16:07:30.999Z</time></trkpt><trkpt lat="36.12378853905942" lon="-5.708450790415952"><ele>64.0</ele><time>2026-04-25T16:07:31.999Z</time></trkpt><trkpt lat="36.124042030970514" lon="-5.708512803774499"><ele>64.0</ele><time>2026-04-25T16:07:32.999Z</time></trkpt><trkpt lat="36.124298663194324" lon="-5.708555567454046"><ele>62.5</ele><time>2026-04-25T16:07:33.999Z</time></trkpt><trkpt lat="36.12454979965898" lon="-5.708578631443934"><ele>61.0</ele><time>2026-04-25T16:07:34.999Z</time></trkpt><trkpt lat="36.12480517477589" lon="-5.708585622512916"><ele>60.5</ele><time>2026-04-25T16:07:35.999Z</time></trkpt><trkpt lat="36.12506088628624" lon="-5.708580708239015"><ele>60.0</ele><time>2026-04-25T16:07:36.999Z</time></trkpt><trkpt lat="36.12531680591542" lon="-5.708569679956359"><ele>60.0</ele><time>2026-04-25T16:07:37.999Z</time></trkpt><trkpt lat="36.12557203251899" lon="-5.708558145310701"><ele>60.0</ele><time>2026-04-25T16:07:38.999Z</time></trkpt><trkpt lat="36.125828999899454" lon="-5.708547971854997"><ele>62.0</ele><time>2026-04-25T16:07:39.999Z</time></trkpt><trkpt lat="36.12608364672789" lon="-5.708535758259098"><ele>64.0</ele><time>2026-04-25T16:07:40.999Z</time></trkpt><trkpt lat="36.126340592131086" lon="-5.708524489446"><ele>66.5</ele><time>2026-04-25T16:07:41.999Z</time></trkpt><trkpt lat="36.126590733039436" lon="-5.708514671103329"><ele>69.0</ele><time>2026-04-25T16:07:42.999Z</time></trkpt><trkpt lat="36.12683998139046" lon="-5.708506824137452"><ele>69.0</ele><time>2026-04-25T16:07:43.999Z</time></trkpt><trkpt lat="36.12709264641323" lon="-5.708507727688357"><ele>69.0</ele><time>2026-04-25T16:07:44.999Z</time></trkpt><trkpt lat="36.127339762786974" lon="-5.708532531156391"><ele>73.0</ele><time>2026-04-25T16:07:45.999Z</time></trkpt><trkpt lat="36.12758830179158" lon="-5.708578216741123"><ele>77.0</ele><time>2026-04-25T16:07:46.999Z</time></trkpt><trkpt lat="36.12783040162046" lon="-5.708642260998062"><ele>77.0</ele><time>2026-04-25T16:07:47.999Z</time></trkpt><trkpt lat="36.128078409595915" lon="-5.708697519290854"><ele>77.0</ele><time>2026-04-25T16:07:48.999Z</time></trkpt><trkpt lat="36.12832932506206" lon="-5.708737785013121"><ele>74.5</ele><time>2026-04-25T16:07:49.999Z</time></trkpt><trkpt lat="36.128587950867335" lon="-5.708757587616131"><ele>72.0</ele><time>2026-04-25T16:07:50.999Z</time></trkpt><trkpt lat="36.12885159294014" lon="-5.708766836084541"><ele>73.5</ele><time>2026-04-25T16:07:51.999Z</time></trkpt><trkpt lat="36.12911848945332" lon="-5.708766669407396"><ele>75.0</ele><time>2026-04-25T16:07:52.999Z</time></trkpt><trkpt lat="36.12939416165263" lon="-5.7087557399200035"><ele>75.0</ele><time>2026-04-25T16:07:53.999Z</time></trkpt><trkpt lat="36.129667269634886" lon="-5.708742384577801"><ele>75.0</ele><time>2026-04-25T16:07:54.999Z</time></trkpt><trkpt lat="36.1299424337377" lon="-5.708726611886195"><ele>75.5</ele><time>2026-04-25T16:07:55.999Z</time></trkpt><trkpt lat="36.130212949263495" lon="-5.708713088688116"><ele>76.0</ele><time>2026-04-25T16:07:56.999Z</time></trkpt><trkpt lat="36.13048129732958" lon="-5.7087036334050945"><ele>78.5</ele><time>2026-04-25T16:07:57.999Z</time></trkpt><trkpt lat="36.13074839459816" lon="-5.708693118110053"><ele>81.0</ele><time>2026-04-25T16:07:58.999Z</time></trkpt><trkpt lat="36.13101557743295" lon="-5.708680211824221"><ele>81.0</ele><time>2026-04-25T16:07:59.999Z</time></trkpt><trkpt lat="36.13127957142632" lon="-5.7086714117488215"><ele>81.0</ele><time>2026-04-25T16:08:00.999Z</time></trkpt><trkpt lat="36.131540051556456" lon="-5.708671579472265"><ele>83.0</ele><time>2026-04-25T16:08:01.999Z</time></trkpt><trkpt lat="36.13179990923037" lon="-5.708680467789975"><ele>85.0</ele><time>2026-04-25T16:08:02.999Z</time></trkpt><trkpt lat="36.13205653334415" lon="-5.708710379769487"><ele>85.0</ele><time>2026-04-25T16:08:03.999Z</time></trkpt><trkpt lat="36.13230821529641" lon="-5.7087571588574795"><ele>85.0</ele><time>2026-04-25T16:08:04.999Z</time></trkpt><trkpt lat="36.132561995190834" lon="-5.708807874308069"><ele>86.5</ele><time>2026-04-25T16:08:05.998Z</time></trkpt><trkpt lat="36.132813824450594" lon="-5.708853665010245"><ele>88.0</ele><time>2026-04-25T16:08:06.998Z</time></trkpt><trkpt lat="36.13306336356328" lon="-5.708896963622041"><ele>87.5</ele><time>2026-04-25T16:08:07.998Z</time></trkpt><trkpt lat="36.13330146991784" lon="-5.708938600752407"><ele>87.0</ele><time>2026-04-25T16:08:08.998Z</time></trkpt><trkpt lat="36.1335262955861" lon="-5.708982901094565"><ele>87.0</ele><time>2026-04-25T16:08:09.998Z</time></trkpt><trkpt lat="36.13375232689559" lon="-5.709021027262715"><ele>87.0</ele><time>2026-04-25T16:08:10.998Z</time></trkpt><trkpt lat="36.133983002899285" lon="-5.709069205688245"><ele>83.0</ele><time>2026-04-25T16:08:11.998Z</time></trkpt><trkpt lat="36.134217973913266" lon="-5.709126120948092"><ele>79.0</ele><time>2026-04-25T16:08:12.998Z</time></trkpt><trkpt lat="36.134447820801945" lon="-5.709207126479082"><ele>79.0</ele><time>2026-04-25T16:08:13.998Z</time></trkpt><trkpt lat="36.134677129619526" lon="-5.709313456184583"><ele>79.0</ele><time>2026-04-25T16:08:14.998Z</time></trkpt><trkpt lat="36.1348964297852" lon="-5.709449694583942"><ele>77.0</ele><time>2026-04-25T16:08:15.998Z</time></trkpt><trkpt lat="36.135104779147404" lon="-5.709617503681327"><ele>75.0</ele><time>2026-04-25T16:08:16.998Z</time></trkpt><trkpt lat="36.13529705630011" lon="-5.709808608303031"><ele>75.0</ele><time>2026-04-25T16:08:17.998Z</time></trkpt><trkpt lat="36.13548462131351" lon="-5.7100226179764135"><ele>75.0</ele><time>2026-04-25T16:08:18.998Z</time></trkpt><trkpt lat="36.13566560529184" lon="-5.710246827651366"><ele>71.0</ele><time>2026-04-25T16:08:19.998Z</time></trkpt><trkpt lat="36.13584724085041" lon="-5.710476948263163"><ele>67.0</ele><time>2026-04-25T16:08:21Z</time></trkpt><trkpt lat="36.13604083111082" lon="-5.710702040000043"><ele>67.0</ele><time>2026-04-25T16:08:22Z</time></trkpt><trkpt lat="36.136245405178094" lon="-5.710905767064943"><ele>67.0</ele><time>2026-04-25T16:08:23Z</time></trkpt><trkpt lat="36.13646737715079" lon="-5.711089771471155"><ele>63.5</ele><time>2026-04-25T16:08:24Z</time></trkpt><trkpt lat="36.136701807603195" lon="-5.711255637010897"><ele>60.0</ele><time>2026-04-25T16:08:25Z</time></trkpt><trkpt lat="36.13694471779004" lon="-5.711404808856016"><ele>60.0</ele><time>2026-04-25T16:08:26Z</time></trkpt><trkpt lat="36.137192623058084" lon="-5.7115434489385795"><ele>60.0</ele><time>2026-04-25T16:08:27Z</time></trkpt><trkpt lat="36.13744372864861" lon="-5.711673780387058"><ele>60.0</ele><time>2026-04-25T16:08:28Z</time></trkpt><trkpt lat="36.13769322663904" lon="-5.711805966197301"><ele>60.0</ele><time>2026-04-25T16:08:29Z</time></trkpt><trkpt lat="36.13794405283798" lon="-5.711943390559474"><ele>60.0</ele><time>2026-04-25T16:08:30Z</time></trkpt><trkpt lat="36.13818858220281" lon="-5.712081855534471"><ele>60.0</ele><time>2026-04-25T16:08:31Z</time></trkpt><trkpt lat="36.13843776813683" lon="-5.712220778492567"><ele>56.5</ele><time>2026-04-25T16:08:32Z</time></trkpt><trkpt lat="36.13868407598571" lon="-5.712360414159813"><ele>53.0</ele><time>2026-04-25T16:08:33Z</time></trkpt><trkpt lat="36.13892899400881" lon="-5.7124988757138"><ele>51.5</ele><time>2026-04-25T16:08:34Z</time></trkpt><trkpt lat="36.13917156265579" lon="-5.7126361070842115"><ele>50.0</ele><time>2026-04-25T16:08:35Z</time></trkpt><trkpt lat="36.13941632900273" lon="-5.712772135999346"><ele>50.0</ele><time>2026-04-25T16:08:36Z</time></trkpt><trkpt lat="36.1396605261807" lon="-5.712908301964377"><ele>50.0</ele><time>2026-04-25T16:08:37Z</time></trkpt><trkpt lat="36.13990089008463" lon="-5.713042090650844"><ele>47.0</ele><time>2026-04-25T16:08:38Z</time></trkpt><trkpt lat="36.14014880005026" lon="-5.713179104084574"><ele>44.0</ele><time>2026-04-25T16:08:39Z</time></trkpt><trkpt lat="36.140400182803184" lon="-5.713313040017004"><ele>44.0</ele><time>2026-04-25T16:08:40Z</time></trkpt><trkpt lat="36.14065146597876" lon="-5.713452826681432"><ele>44.0</ele><time>2026-04-25T16:08:41Z</time></trkpt><trkpt lat="36.140906763555236" lon="-5.713595297352945"><ele>42.5</ele><time>2026-04-25T16:08:42Z</time></trkpt><trkpt lat="36.14115989245101" lon="-5.713737906241075"><ele>41.0</ele><time>2026-04-25T16:08:43Z</time></trkpt><trkpt lat="36.14141242769188" lon="-5.713879284841285"><ele>39.0</ele><time>2026-04-25T16:08:44Z</time></trkpt><trkpt lat="36.14166220406767" lon="-5.7140142703189065"><ele>37.0</ele><time>2026-04-25T16:08:45Z</time></trkpt><trkpt lat="36.14191424847631" lon="-5.714149818022652"><ele>37.0</ele><time>2026-04-25T16:08:46Z</time></trkpt><trkpt lat="36.14216033096106" lon="-5.714285374852041"><ele>37.0</ele><time>2026-04-25T16:08:47Z</time></trkpt><trkpt lat="36.142405380951516" lon="-5.714420948850799"><ele>39.5</ele><time>2026-04-25T16:08:48Z</time></trkpt><trkpt lat="36.142652769339904" lon="-5.7145584679772155"><ele>42.0</ele><time>2026-04-25T16:08:49Z</time></trkpt><trkpt lat="36.14289987496912" lon="-5.714691417013075"><ele>42.0</ele><time>2026-04-25T16:08:50Z</time></trkpt><trkpt lat="36.14314110022663" lon="-5.714826736190492"><ele>42.0</ele><time>2026-04-25T16:08:51Z</time></trkpt><trkpt lat="36.143391361315985" lon="-5.714959460720894"><ele>39.5</ele><time>2026-04-25T16:08:52Z</time></trkpt><trkpt lat="36.1436348615596" lon="-5.7150935462207775"><ele>37.0</ele><time>2026-04-25T16:08:53Z</time></trkpt><trkpt lat="36.14387985639082" lon="-5.715230050770629"><ele>35.5</ele><time>2026-04-25T16:08:54Z</time></trkpt><trkpt lat="36.1441233566551" lon="-5.71536485639761"><ele>34.0</ele><time>2026-04-25T16:08:55Z</time></trkpt><trkpt lat="36.14436375291752" lon="-5.715495666287908"><ele>34.0</ele><time>2026-04-25T16:08:56Z</time></trkpt><trkpt lat="36.14460145840394" lon="-5.715623787534347"><ele>34.0</ele><time>2026-04-25T16:08:57Z</time></trkpt><trkpt lat="36.14483832514349" lon="-5.715751324936325"><ele>34.5</ele><time>2026-04-25T16:08:58Z</time></trkpt><trkpt lat="36.14506900413036" lon="-5.715879114762824"><ele>35.0</ele><time>2026-04-25T16:08:59Z</time></trkpt><trkpt lat="36.145297144862226" lon="-5.716002418757658"><ele>35.5</ele><time>2026-04-25T16:09:00Z</time></trkpt><trkpt lat="36.14552393216253" lon="-5.716118353366704"><ele>36.0</ele><time>2026-04-25T16:09:01Z</time></trkpt><trkpt lat="36.14574861143432" lon="-5.716230852958929"><ele>37.0</ele><time>2026-04-25T16:09:02Z</time></trkpt><trkpt lat="36.14597146678397" lon="-5.7163390897331645"><ele>38.0</ele><time>2026-04-25T16:09:03Z</time></trkpt><trkpt lat="36.146186305490595" lon="-5.716447796159612"><ele>38.0</ele><time>2026-04-25T16:09:04Z</time></trkpt><trkpt lat="36.14639342868566" lon="-5.71655362246252"><ele>38.0</ele><time>2026-04-25T16:09:05Z</time></trkpt><trkpt lat="36.14659575463349" lon="-5.716662149247113"><ele>38.0</ele><time>2026-04-25T16:09:05.999Z</time></trkpt><trkpt lat="36.146799988422146" lon="-5.716772924420135"><ele>37.666666666666664</ele><time>2026-04-25T16:09:06.999Z</time></trkpt><trkpt lat="36.14700321483454" lon="-5.716882394905766"><ele>37.333333333333336</ele><time>2026-04-25T16:09:07.999Z</time></trkpt><trkpt lat="36.14720665668387" lon="-5.71699299096703"><ele>37.0</ele><time>2026-04-25T16:09:08.999Z</time></trkpt><trkpt lat="36.14741187355916" lon="-5.717106309690115"><ele>38.0</ele><time>2026-04-25T16:09:09.999Z</time></trkpt><trkpt lat="36.147620048843415" lon="-5.717223942614777"><ele>39.0</ele><time>2026-04-25T16:09:10.999Z</time></trkpt><trkpt lat="36.147832426166474" lon="-5.717345972662062"><ele>39.0</ele><time>2026-04-25T16:09:11.999Z</time></trkpt><trkpt lat="36.14804072686819" lon="-5.7174798913302105"><ele>39.0</ele><time>2026-04-25T16:09:12.999Z</time></trkpt><trkpt lat="36.148239832903926" lon="-5.717626921004023"><ele>39.5</ele><time>2026-04-25T16:09:13.999Z</time></trkpt><trkpt lat="36.148434541117076" lon="-5.717785858489847"><ele>40.0</ele><time>2026-04-25T16:09:14.999Z</time></trkpt><trkpt lat="36.14862840124298" lon="-5.717958688499067"><ele>40.0</ele><time>2026-04-25T16:09:15.999Z</time></trkpt><trkpt lat="36.14881892559573" lon="-5.718145791702522"><ele>40.0</ele><time>2026-04-25T16:09:16.999Z</time></trkpt><trkpt lat="36.14900587328222" lon="-5.718344740492542"><ele>38.5</ele><time>2026-04-25T16:09:17.999Z</time></trkpt><trkpt lat="36.149187219787734" lon="-5.718557719737977"><ele>37.0</ele><time>2026-04-25T16:09:18.999Z</time></trkpt><trkpt lat="36.14935728890474" lon="-5.71878490037084"><ele>37.0</ele><time>2026-04-25T16:09:19.999Z</time></trkpt><trkpt lat="36.14951529087573" lon="-5.719019624523496"><ele>37.0</ele><time>2026-04-25T16:09:20.999Z</time></trkpt><trkpt lat="36.14964973782623" lon="-5.719251537405738"><ele>36.5</ele><time>2026-04-25T16:09:21.999Z</time></trkpt><trkpt lat="36.14977620204072" lon="-5.719487168342665"><ele>36.0</ele><time>2026-04-25T16:09:22.999Z</time></trkpt><trkpt lat="36.14990544324201" lon="-5.719726722240284"><ele>34.5</ele><time>2026-04-25T16:09:23.999Z</time></trkpt><trkpt lat="36.15003500507282" lon="-5.7199636355707915"><ele>33.0</ele><time>2026-04-25T16:09:24.999Z</time></trkpt><trkpt lat="36.15016758972781" lon="-5.720198250199351"><ele>34.0</ele><time>2026-04-25T16:09:25.999Z</time></trkpt><trkpt lat="36.15030336668505" lon="-5.720438455652732"><ele>35.0</ele><time>2026-04-25T16:09:26.999Z</time></trkpt><trkpt lat="36.15044027682598" lon="-5.720678109264489"><ele>35.0</ele><time>2026-04-25T16:09:27.999Z</time></trkpt><trkpt lat="36.150577516947884" lon="-5.720916240889131"><ele>35.0</ele><time>2026-04-25T16:09:28.999Z</time></trkpt><trkpt lat="36.15071163020875" lon="-5.721158623077799"><ele>36.0</ele><time>2026-04-25T16:09:29.999Z</time></trkpt><trkpt lat="36.15084246451365" lon="-5.721405995630194"><ele>37.0</ele><time>2026-04-25T16:09:30.999Z</time></trkpt><trkpt lat="36.150981409531965" lon="-5.721652417902617"><ele>38.5</ele><time>2026-04-25T16:09:31.999Z</time></trkpt><trkpt lat="36.15112580230359" lon="-5.7219065722199005"><ele>40.0</ele><time>2026-04-25T16:09:32.999Z</time></trkpt><trkpt lat="36.15126972285633" lon="-5.722159074928747"><ele>40.0</ele><time>2026-04-25T16:09:33.999Z</time></trkpt><trkpt lat="36.15141915118765" lon="-5.722415040990716"><ele>40.0</ele><time>2026-04-25T16:09:34.999Z</time></trkpt><trkpt lat="36.15156269791961" lon="-5.722676845947911"><ele>39.0</ele><time>2026-04-25T16:09:35.999Z</time></trkpt><trkpt lat="36.15170813196905" lon="-5.722935828089415"><ele>38.0</ele><time>2026-04-25T16:09:36.999Z</time></trkpt><trkpt lat="36.151857231311396" lon="-5.723197760143754"><ele>38.0</ele><time>2026-04-25T16:09:37.999Z</time></trkpt><trkpt lat="36.15200423794744" lon="-5.723459038056309"><ele>38.0</ele><time>2026-04-25T16:09:38.999Z</time></trkpt><trkpt lat="36.15215325651766" lon="-5.723722397595026"><ele>38.0</ele><time>2026-04-25T16:09:39.999Z</time></trkpt><trkpt lat="36.15230198270503" lon="-5.72398508955568"><ele>38.0</ele><time>2026-04-25T16:09:40.999Z</time></trkpt><trkpt lat="36.15244966870716" lon="-5.724251015141972"><ele>37.5</ele><time>2026-04-25T16:09:41.999Z</time></trkpt><trkpt lat="36.1526005153634" lon="-5.724518540673421"><ele>37.0</ele><time>2026-04-25T16:09:42.999Z</time></trkpt><trkpt lat="36.152750730781065" lon="-5.724790305488266"><ele>37.0</ele><time>2026-04-25T16:09:43.999Z</time></trkpt><trkpt lat="36.15290433281846" lon="-5.725062710575957"><ele>37.0</ele><time>2026-04-25T16:09:44.999Z</time></trkpt><trkpt lat="36.15306043638944" lon="-5.725336082687284"><ele>36.0</ele><time>2026-04-25T16:09:45.999Z</time></trkpt><trkpt lat="36.15321683016221" lon="-5.725607792690052"><ele>35.0</ele><time>2026-04-25T16:09:46.999Z</time></trkpt><trkpt lat="36.15337388594389" lon="-5.725884399197848"><ele>35.5</ele><time>2026-04-25T16:09:47.999Z</time></trkpt><trkpt lat="36.15352811866785" lon="-5.726157942036257"><ele>36.0</ele><time>2026-04-25T16:09:48.999Z</time></trkpt><trkpt lat="36.15368245541641" lon="-5.726430342282675"><ele>36.0</ele><time>2026-04-25T16:09:49.999Z</time></trkpt><trkpt lat="36.15383046031821" lon="-5.726701370932697"><ele>36.0</ele><time>2026-04-25T16:09:50.999Z</time></trkpt><trkpt lat="36.15398009309737" lon="-5.726969315768677"><ele>35.0</ele><time>2026-04-25T16:09:51.999Z</time></trkpt><trkpt lat="36.154130307923374" lon="-5.727232844087695"><ele>34.0</ele><time>2026-04-25T16:09:52.999Z</time></trkpt><trkpt lat="36.15428165226977" lon="-5.727494653737983"><ele>33.0</ele><time>2026-04-25T16:09:53.999Z</time></trkpt><trkpt lat="36.15443024473101" lon="-5.7277570631926364"><ele>32.0</ele><time>2026-04-25T16:09:54.999Z</time></trkpt><trkpt lat="36.154574566041475" lon="-5.728017145029769"><ele>32.0</ele><time>2026-04-25T16:09:55.999Z</time></trkpt><trkpt lat="36.154717102328725" lon="-5.728277807415419"><ele>32.0</ele><time>2026-04-25T16:09:56.999Z</time></trkpt><trkpt lat="36.15486294999578" lon="-5.7285297118071"><ele>33.0</ele><time>2026-04-25T16:09:57.999Z</time></trkpt><trkpt lat="36.15501141994486" lon="-5.72878623991556"><ele>34.0</ele><time>2026-04-25T16:09:58.999Z</time></trkpt><trkpt lat="36.15515427094219" lon="-5.729040018449817"><ele>34.0</ele><time>2026-04-25T16:09:59.999Z</time></trkpt><trkpt lat="36.15529619071289" lon="-5.729297468078963"><ele>34.0</ele><time>2026-04-25T16:10:00.999Z</time></trkpt><trkpt lat="36.15544079926733" lon="-5.7295586629469435"><ele>34.0</ele><time>2026-04-25T16:10:01.999Z</time></trkpt><trkpt lat="36.155584408532924" lon="-5.729814902579071"><ele>34.0</ele><time>2026-04-25T16:10:02.999Z</time></trkpt><trkpt lat="36.15572926211083" lon="-5.730071085560496"><ele>36.0</ele><time>2026-04-25T16:10:03.999Z</time></trkpt><trkpt lat="36.15587186582773" lon="-5.730315887819423"><ele>38.0</ele><time>2026-04-25T16:10:04.999Z</time></trkpt><trkpt lat="36.15601335624491" lon="-5.730556789503514"><ele>38.0</ele><time>2026-04-25T16:10:05.999Z</time></trkpt><trkpt lat="36.156159012842494" lon="-5.73079244244895"><ele>38.0</ele><time>2026-04-25T16:10:06.999Z</time></trkpt><trkpt lat="36.1563155665804" lon="-5.73101617209627"><ele>39.0</ele><time>2026-04-25T16:10:07.999Z</time></trkpt><trkpt lat="36.15649349570527" lon="-5.731216767419136"><ele>40.0</ele><time>2026-04-25T16:10:08.999Z</time></trkpt><trkpt lat="36.15667357057893" lon="-5.731404939131559"><ele>41.0</ele><time>2026-04-25T16:10:09.999Z</time></trkpt><trkpt lat="36.156854625085664" lon="-5.731595257590364"><ele>42.0</ele><time>2026-04-25T16:10:10.999Z</time></trkpt><trkpt lat="36.15704347162519" lon="-5.731789401570361"><ele>42.0</ele><time>2026-04-25T16:10:11.998Z</time></trkpt><trkpt lat="36.157235435200946" lon="-5.731987376228558"><ele>42.0</ele><time>2026-04-25T16:10:12.998Z</time></trkpt><trkpt lat="36.15742748431731" lon="-5.732190699467162"><ele>43.0</ele><time>2026-04-25T16:10:13.998Z</time></trkpt><trkpt lat="36.15762141071184" lon="-5.732396532416694"><ele>44.0</ele><time>2026-04-25T16:10:14.998Z</time></trkpt><trkpt lat="36.15782277536525" lon="-5.732600574678346"><ele>45.0</ele><time>2026-04-25T16:10:15.998Z</time></trkpt><trkpt lat="36.158031156219195" lon="-5.732793178972793"><ele>46.0</ele><time>2026-04-25T16:10:16.998Z</time></trkpt><trkpt lat="36.15825080821129" lon="-5.732971880876207"><ele>46.5</ele><time>2026-04-25T16:10:17.998Z</time></trkpt><trkpt lat="36.158483720297994" lon="-5.733126868732201"><ele>47.0</ele><time>2026-04-25T16:10:18.998Z</time></trkpt><trkpt lat="36.1587193187765" lon="-5.733273106289939"><ele>47.0</ele><time>2026-04-25T16:10:19.998Z</time></trkpt><trkpt lat="36.1589513841984" lon="-5.733417089411835"><ele>47.0</ele><time>2026-04-25T16:10:20.998Z</time></trkpt><trkpt lat="36.15916676282923" lon="-5.733556856516211"><ele>43.0</ele><time>2026-04-25T16:10:21.998Z</time></trkpt><trkpt lat="36.15937891493664" lon="-5.733694940304046"><ele>39.0</ele><time>2026-04-25T16:10:22.998Z</time></trkpt><trkpt lat="36.15960404953941" lon="-5.733837644208597"><ele>39.0</ele><time>2026-04-25T16:10:23.998Z</time></trkpt><trkpt lat="36.159836848779825" lon="-5.733986696707507"><ele>39.0</ele><time>2026-04-25T16:10:24.998Z</time></trkpt><trkpt lat="36.16007753648249" lon="-5.734139024911283"><ele>37.0</ele><time>2026-04-25T16:10:25.998Z</time></trkpt><trkpt lat="36.1603264085313" lon="-5.734300508090363"><ele>35.0</ele><time>2026-04-25T16:10:27Z</time></trkpt><trkpt lat="36.16060060668628" lon="-5.734476184485907"><ele>34.0</ele><time>2026-04-25T16:10:28Z</time></trkpt><trkpt lat="36.16087860457143" lon="-5.734656733917709"><ele>33.0</ele><time>2026-04-25T16:10:29Z</time></trkpt><trkpt lat="36.16115278421094" lon="-5.734832032774192"><ele>33.0</ele><time>2026-04-25T16:10:30Z</time></trkpt><trkpt lat="36.16141860286346" lon="-5.734998821961993"><ele>33.0</ele><time>2026-04-25T16:10:31Z</time></trkpt><trkpt lat="36.16167229756014" lon="-5.735165023845824"><ele>32.5</ele><time>2026-04-25T16:10:32Z</time></trkpt><trkpt lat="36.161924553475856" lon="-5.735330390663795"><ele>32.0</ele><time>2026-04-25T16:10:33Z</time></trkpt><trkpt lat="36.16217078117132" lon="-5.73548935674503"><ele>31.0</ele><time>2026-04-25T16:10:34Z</time></trkpt><trkpt lat="36.16241065944078" lon="-5.735647043184792"><ele>30.0</ele><time>2026-04-25T16:10:35Z</time></trkpt><trkpt lat="36.16264865225807" lon="-5.7358016241541705"><ele>30.0</ele><time>2026-04-25T16:10:36Z</time></trkpt><trkpt lat="36.16289059512981" lon="-5.735954350033765"><ele>30.0</ele><time>2026-04-25T16:10:37Z</time></trkpt><trkpt lat="36.16313261638938" lon="-5.736106012190734"><ele>32.5</ele><time>2026-04-25T16:10:38Z</time></trkpt><trkpt lat="36.16337483919764" lon="-5.7362576642930785"><ele>35.0</ele><time>2026-04-25T16:10:39Z</time></trkpt><trkpt lat="36.163618077011535" lon="-5.73641073828273"><ele>35.0</ele><time>2026-04-25T16:10:40Z</time></trkpt><trkpt lat="36.163866322984866" lon="-5.736558453446551"><ele>35.0</ele><time>2026-04-25T16:10:41Z</time></trkpt><trkpt lat="36.164118454232856" lon="-5.736708800708683"><ele>35.0</ele><time>2026-04-25T16:10:42Z</time></trkpt><trkpt lat="36.16435474510758" lon="-5.7368881326485175"><ele>35.0</ele><time>2026-04-25T16:10:43Z</time></trkpt><trkpt lat="36.16459930923554" lon="-5.7370481801813265"><ele>35.0</ele><time>2026-04-25T16:10:44Z</time></trkpt><trkpt lat="36.16484602008762" lon="-5.737209929854659"><ele>35.0</ele><time>2026-04-25T16:10:45Z</time></trkpt><trkpt lat="36.16508323164489" lon="-5.737364964941152"><ele>33.5</ele><time>2026-04-25T16:10:46Z</time></trkpt><trkpt lat="36.16530756064686" lon="-5.7375201574931"><ele>32.0</ele><time>2026-04-25T16:10:47Z</time></trkpt><trkpt lat="36.16551897207214" lon="-5.737666306800396"><ele>30.5</ele><time>2026-04-25T16:10:48Z</time></trkpt><trkpt lat="36.16573215272566" lon="-5.737830540298374"><ele>29.0</ele><time>2026-04-25T16:10:49Z</time></trkpt><trkpt lat="36.165938682922196" lon="-5.738005569345275"><ele>29.0</ele><time>2026-04-25T16:10:50Z</time></trkpt><trkpt lat="36.166145248363236" lon="-5.738183850145363"><ele>29.0</ele><time>2026-04-25T16:10:51Z</time></trkpt><trkpt lat="36.1663538715833" lon="-5.738366736520105"><ele>28.0</ele><time>2026-04-25T16:10:52Z</time></trkpt><trkpt lat="36.16656366887088" lon="-5.738555896621525"><ele>27.0</ele><time>2026-04-25T16:10:53Z</time></trkpt><trkpt lat="36.16677990150416" lon="-5.738744881591525"><ele>27.0</ele><time>2026-04-25T16:10:54Z</time></trkpt><trkpt lat="36.16699840211576" lon="-5.7389344621581975"><ele>27.0</ele><time>2026-04-25T16:10:55Z</time></trkpt><trkpt lat="36.167219951207436" lon="-5.739128029985003"><ele>26.5</ele><time>2026-04-25T16:10:56Z</time></trkpt><trkpt lat="36.16744262792988" lon="-5.739319768494816"><ele>26.0</ele><time>2026-04-25T16:10:57Z</time></trkpt><trkpt lat="36.167663439053335" lon="-5.739512760780116"><ele>26.0</ele><time>2026-04-25T16:10:58Z</time></trkpt><trkpt lat="36.167879497074125" lon="-5.739698668016542"><ele>26.0</ele><time>2026-04-25T16:10:59Z</time></trkpt><trkpt lat="36.16809557379209" lon="-5.739881111565903"><ele>25.5</ele><time>2026-04-25T16:11:00Z</time></trkpt><trkpt lat="36.1683075662515" lon="-5.740068873895602"><ele>25.0</ele><time>2026-04-25T16:11:01Z</time></trkpt><trkpt lat="36.168521353359104" lon="-5.74025620030806"><ele>26.0</ele><time>2026-04-25T16:11:02Z</time></trkpt><trkpt lat="36.1687353143558" lon="-5.740438992724232"><ele>27.0</ele><time>2026-04-25T16:11:03Z</time></trkpt><trkpt lat="36.168944278581264" lon="-5.740618248387153"><ele>26.5</ele><time>2026-04-25T16:11:04Z</time></trkpt><trkpt lat="36.16915344474298" lon="-5.740799632983151"><ele>26.0</ele><time>2026-04-25T16:11:05Z</time></trkpt><trkpt lat="36.169357017070055" lon="-5.740982784082441"><ele>26.5</ele><time>2026-04-25T16:11:06Z</time></trkpt><trkpt lat="36.1695615482132" lon="-5.7411615467746575"><ele>27.0</ele><time>2026-04-25T16:11:07Z</time></trkpt><trkpt lat="36.169765143230954" lon="-5.741337031928552"><ele>25.5</ele><time>2026-04-25T16:11:08Z</time></trkpt><trkpt lat="36.1699688668582" lon="-5.741513836562455"><ele>24.0</ele><time>2026-04-25T16:11:09Z</time></trkpt><trkpt lat="36.17016863441087" lon="-5.741681943677882"><ele>24.0</ele><time>2026-04-25T16:11:10Z</time></trkpt><trkpt lat="36.17036737783457" lon="-5.7418541136139405"><ele>24.0</ele><time>2026-04-25T16:11:11Z</time></trkpt><trkpt lat="36.17056402521246" lon="-5.742021011291531"><ele>22.0</ele><time>2026-04-25T16:11:12Z</time></trkpt><trkpt lat="36.17076150829188" lon="-5.7421918161163354"><ele>20.0</ele><time>2026-04-25T16:11:13Z</time></trkpt><trkpt lat="36.17096036710248" lon="-5.742365437018169"><ele>20.0</ele><time>2026-04-25T16:11:14Z</time></trkpt><trkpt lat="36.17116045745953" lon="-5.742538401001834"><ele>20.0</ele><time>2026-04-25T16:11:15Z</time></trkpt><trkpt lat="36.1713637390358" lon="-5.7427133675321835"><ele>21.0</ele><time>2026-04-25T16:11:16Z</time></trkpt><trkpt lat="36.17156563239833" lon="-5.742890397620301"><ele>22.0</ele><time>2026-04-25T16:11:17Z</time></trkpt><trkpt lat="36.17176798025097" lon="-5.743065741850717"><ele>22.0</ele><time>2026-04-25T16:11:18Z</time></trkpt><trkpt lat="36.17196255198622" lon="-5.743236528119027"><ele>22.0</ele><time>2026-04-25T16:11:18.999Z</time></trkpt><trkpt lat="36.172162961508064" lon="-5.743408473244264"><ele>19.5</ele><time>2026-04-25T16:11:19.999Z</time></trkpt><trkpt lat="36.17236055962714" lon="-5.743581806082792"><ele>17.0</ele><time>2026-04-25T16:11:20.999Z</time></trkpt><trkpt lat="36.1725673205017" lon="-5.743760109175021"><ele>17.0</ele><time>2026-04-25T16:11:21.999Z</time></trkpt><trkpt lat="36.172772695590595" lon="-5.743936371672066"><ele>17.0</ele><time>2026-04-25T16:11:22.999Z</time></trkpt><trkpt lat="36.17298020368281" lon="-5.744115870281884"><ele>16.5</ele><time>2026-04-25T16:11:23.999Z</time></trkpt><trkpt lat="36.17319142247794" lon="-5.744295755552697"><ele>16.0</ele><time>2026-04-25T16:11:24.999Z</time></trkpt><trkpt lat="36.173402505593195" lon="-5.744477455143812"><ele>15.5</ele><time>2026-04-25T16:11:25.999Z</time></trkpt><trkpt lat="36.17361448460844" lon="-5.744660291916197"><ele>15.0</ele><time>2026-04-25T16:11:26.999Z</time></trkpt><trkpt lat="36.17382585430649" lon="-5.744845929826659"><ele>15.5</ele><time>2026-04-25T16:11:27.999Z</time></trkpt><trkpt lat="36.17403198418723" lon="-5.74502911615822"><ele>16.0</ele><time>2026-04-25T16:11:28.999Z</time></trkpt><trkpt lat="36.17424437740772" lon="-5.745208875720644"><ele>15.0</ele><time>2026-04-25T16:11:29.999Z</time></trkpt><trkpt lat="36.17445576443994" lon="-5.745391524899524"><ele>14.0</ele><time>2026-04-25T16:11:30.999Z</time></trkpt><trkpt lat="36.174665632922334" lon="-5.745574603895216"><ele>14.5</ele><time>2026-04-25T16:11:31.999Z</time></trkpt><trkpt lat="36.17487711854165" lon="-5.74575638875953"><ele>15.0</ele><time>2026-04-25T16:11:32.999Z</time></trkpt><trkpt lat="36.17508562414084" lon="-5.745935816752598"><ele>14.5</ele><time>2026-04-25T16:11:33.999Z</time></trkpt><trkpt lat="36.17529307710689" lon="-5.746113705548075"><ele>14.0</ele><time>2026-04-25T16:11:34.999Z</time></trkpt><trkpt lat="36.17550065442763" lon="-5.746295742787034"><ele>13.5</ele><time>2026-04-25T16:11:35.999Z</time></trkpt><trkpt lat="36.17570345433969" lon="-5.746470417459289"><ele>13.0</ele><time>2026-04-25T16:11:36.999Z</time></trkpt><trkpt lat="36.17589544725886" lon="-5.7466363686365405"><ele>13.0</ele><time>2026-04-25T16:11:37.999Z</time></trkpt><trkpt lat="36.17608258798167" lon="-5.7467972245771906"><ele>13.0</ele><time>2026-04-25T16:11:38.999Z</time></trkpt><trkpt lat="36.176264077407595" lon="-5.746957520946487"><ele>13.0</ele><time>2026-04-25T16:11:39.999Z</time></trkpt><trkpt lat="36.176448583833164" lon="-5.747123466119482"><ele>13.0</ele><time>2026-04-25T16:11:40.999Z</time></trkpt><trkpt lat="36.17665747933817" lon="-5.747294605933796"><ele>13.0</ele><time>2026-04-25T16:11:41.999Z</time></trkpt><trkpt lat="36.17687235681074" lon="-5.747486118945726"><ele>13.0</ele><time>2026-04-25T16:11:42.999Z</time></trkpt><trkpt lat="36.177099638056085" lon="-5.747688659165191"><ele>13.0</ele><time>2026-04-25T16:11:43.999Z</time></trkpt><trkpt lat="36.177330674779014" lon="-5.74790090013947"><ele>13.0</ele><time>2026-04-25T16:11:44.999Z</time></trkpt><trkpt lat="36.17757151069284" lon="-5.74809330889687"><ele>12.5</ele><time>2026-04-25T16:11:45.999Z</time></trkpt><trkpt lat="36.17781898082336" lon="-5.74830754612448"><ele>12.0</ele><time>2026-04-25T16:11:46.999Z</time></trkpt><trkpt lat="36.17806225651211" lon="-5.748538686895746"><ele>12.0</ele><time>2026-04-25T16:11:47.999Z</time></trkpt><trkpt lat="36.178320796204865" lon="-5.748745876527751"><ele>12.0</ele><time>2026-04-25T16:11:48.999Z</time></trkpt><trkpt lat="36.178572606361534" lon="-5.74895078387567"><ele>12.0</ele><time>2026-04-25T16:11:49.999Z</time></trkpt><trkpt lat="36.17881907415526" lon="-5.749161145333124"><ele>12.0</ele><time>2026-04-25T16:11:50.999Z</time></trkpt><trkpt lat="36.17906355836527" lon="-5.7493729392867206"><ele>12.0</ele><time>2026-04-25T16:11:51.999Z</time></trkpt><trkpt lat="36.17930648689189" lon="-5.749583959117796"><ele>12.0</ele><time>2026-04-25T16:11:52.999Z</time></trkpt><trkpt lat="36.179548219513435" lon="-5.7497967371133205"><ele>12.0</ele><time>2026-04-25T16:11:53.999Z</time></trkpt><trkpt lat="36.179786882434975" lon="-5.7500088706884736"><ele>12.0</ele><time>2026-04-25T16:11:54.999Z</time></trkpt><trkpt lat="36.18002238675703" lon="-5.7502114268399245"><ele>13.0</ele><time>2026-04-25T16:11:55.999Z</time></trkpt><trkpt lat="36.18025326485303" lon="-5.750407187324436"><ele>14.0</ele><time>2026-04-25T16:11:56.999Z</time></trkpt><trkpt lat="36.18048143209712" lon="-5.750601713875104"><ele>13.5</ele><time>2026-04-25T16:11:57.999Z</time></trkpt><trkpt lat="36.18070451819833" lon="-5.7507921764628644"><ele>13.0</ele><time>2026-04-25T16:11:58.999Z</time></trkpt><trkpt lat="36.18091866672845" lon="-5.75098390442043"><ele>15.0</ele><time>2026-04-25T16:11:59.999Z</time></trkpt><trkpt lat="36.181135088652276" lon="-5.751177445068562"><ele>17.0</ele><time>2026-04-25T16:12:00.999Z</time></trkpt><trkpt lat="36.181355658718296" lon="-5.751364148732749"><ele>17.5</ele><time>2026-04-25T16:12:01.999Z</time></trkpt><trkpt lat="36.181572578384646" lon="-5.751550886576712"><ele>18.0</ele><time>2026-04-25T16:12:02.999Z</time></trkpt><trkpt lat="36.181789661660495" lon="-5.75173655208238"><ele>18.5</ele><time>2026-04-25T16:12:03.999Z</time></trkpt><trkpt lat="36.182005624290234" lon="-5.7519236924833805"><ele>19.0</ele><time>2026-04-25T16:12:04.999Z</time></trkpt><trkpt lat="36.18222063320077" lon="-5.752108607886028"><ele>17.0</ele><time>2026-04-25T16:12:05.999Z</time></trkpt><trkpt lat="36.182431919915636" lon="-5.752295176367477"><ele>15.0</ele><time>2026-04-25T16:12:06.999Z</time></trkpt><trkpt lat="36.18264895323949" lon="-5.752480969795557"><ele>15.0</ele><time>2026-04-25T16:12:07.999Z</time></trkpt><trkpt lat="36.18286452101821" lon="-5.752665665439998"><ele>15.0</ele><time>2026-04-25T16:12:08.999Z</time></trkpt><trkpt lat="36.18307576280097" lon="-5.7528452914174855"><ele>14.5</ele><time>2026-04-25T16:12:09.999Z</time></trkpt><trkpt lat="36.183281829809424" lon="-5.753022913188995"><ele>14.0</ele><time>2026-04-25T16:12:10.999Z</time></trkpt><trkpt lat="36.183492960356475" lon="-5.7532053525320235"><ele>14.0</ele><time>2026-04-25T16:12:11.999Z</time></trkpt><trkpt lat="36.18369567547319" lon="-5.753390964447414"><ele>14.0</ele><time>2026-04-25T16:12:12.999Z</time></trkpt><trkpt lat="36.183895641749956" lon="-5.753579994841916"><ele>15.5</ele><time>2026-04-25T16:12:13.999Z</time></trkpt><trkpt lat="36.18408892590354" lon="-5.753775812133365"><ele>17.0</ele><time>2026-04-25T16:12:14.999Z</time></trkpt><trkpt lat="36.18427218182745" lon="-5.753998872077051"><ele>17.0</ele><time>2026-04-25T16:12:15.999Z</time></trkpt><trkpt lat="36.18445035739826" lon="-5.7542440456983615"><ele>17.0</ele><time>2026-04-25T16:12:16.999Z</time></trkpt><trkpt lat="36.18461477193855" lon="-5.75450026028549"><ele>17.5</ele><time>2026-04-25T16:12:17.999Z</time></trkpt><trkpt lat="36.18476596802033" lon="-5.754762452456331"><ele>18.0</ele><time>2026-04-25T16:12:18.999Z</time></trkpt><trkpt lat="36.184902972249944" lon="-5.7550190210979055"><ele>19.0</ele><time>2026-04-25T16:12:19.999Z</time></trkpt><trkpt lat="36.18503268388576" lon="-5.7552759588206746"><ele>20.0</ele><time>2026-04-25T16:12:20.999Z</time></trkpt><trkpt lat="36.18515275240942" lon="-5.7555388861146835"><ele>20.0</ele><time>2026-04-25T16:12:21.998Z</time></trkpt><trkpt lat="36.1852632890065" lon="-5.755806914171071"><ele>20.0</ele><time>2026-04-25T16:12:22.998Z</time></trkpt><trkpt lat="36.18536859176834" lon="-5.756072508287697"><ele>22.0</ele><time>2026-04-25T16:12:23.998Z</time></trkpt><trkpt lat="36.18547244039439" lon="-5.75633807803234"><ele>24.0</ele><time>2026-04-25T16:12:24.998Z</time></trkpt><trkpt lat="36.18558426256969" lon="-5.756617416965834"><ele>18.5</ele><time>2026-04-25T16:12:25.998Z</time></trkpt><trkpt lat="36.18569816783741" lon="-5.756900305418724"><ele>13.0</ele><time>2026-04-25T16:12:26.998Z</time></trkpt><trkpt lat="36.18581209172584" lon="-5.757181801770472"><ele>13.0</ele><time>2026-04-25T16:12:27.998Z</time></trkpt><trkpt lat="36.185916737831725" lon="-5.757454269317486"><ele>13.0</ele><time>2026-04-25T16:12:28.998Z</time></trkpt><trkpt lat="36.18602336767262" lon="-5.757728588074211"><ele>13.0</ele><time>2026-04-25T16:12:29.998Z</time></trkpt><trkpt lat="36.18612613196223" lon="-5.758006674268648"><ele>13.0</ele><time>2026-04-25T16:12:30.998Z</time></trkpt><trkpt lat="36.18622490088807" lon="-5.758279942224147"><ele>12.0</ele><time>2026-04-25T16:12:31.998Z</time></trkpt><trkpt lat="36.18632542789929" lon="-5.75855349215691"><ele>11.0</ele><time>2026-04-25T16:12:33Z</time></trkpt><trkpt lat="36.18642965869831" lon="-5.758824967020923"><ele>11.0</ele><time>2026-04-25T16:12:34Z</time></trkpt><trkpt lat="36.186533784367036" lon="-5.759081896923061"><ele>11.0</ele><time>2026-04-25T16:12:35Z</time></trkpt><trkpt lat="36.18664248781012" lon="-5.7593330856303915"><ele>10.5</ele><time>2026-04-25T16:12:36Z</time></trkpt><trkpt lat="36.18675349627873" lon="-5.759582886296554"><ele>10.0</ele><time>2026-04-25T16:12:37Z</time></trkpt><trkpt lat="36.186873524644405" lon="-5.759836802926028"><ele>10.0</ele><time>2026-04-25T16:12:38Z</time></trkpt><trkpt lat="36.1870116657275" lon="-5.760087761127639"><ele>10.0</ele><time>2026-04-25T16:12:39Z</time></trkpt><trkpt lat="36.187171283099154" lon="-5.760323607245323"><ele>9.0</ele><time>2026-04-25T16:12:40Z</time></trkpt><trkpt lat="36.18735187922207" lon="-5.7605520663305425"><ele>8.0</ele><time>2026-04-25T16:12:41Z</time></trkpt><trkpt lat="36.187547532695916" lon="-5.760788507847182"><ele>8.0</ele><time>2026-04-25T16:12:42Z</time></trkpt><trkpt lat="36.18774542188645" lon="-5.76102836511644"><ele>8.0</ele><time>2026-04-25T16:12:43Z</time></trkpt><trkpt lat="36.18794513469795" lon="-5.761276015692877"><ele>9.0</ele><time>2026-04-25T16:12:44Z</time></trkpt><trkpt lat="36.18815545688058" lon="-5.7615390983122055"><ele>10.0</ele><time>2026-04-25T16:12:45Z</time></trkpt><trkpt lat="36.18836834713722" lon="-5.76180831464186"><ele>10.5</ele><time>2026-04-25T16:12:46Z</time></trkpt><trkpt lat="36.18858934985105" lon="-5.762087077016293"><ele>11.0</ele><time>2026-04-25T16:12:47Z</time></trkpt><trkpt lat="36.188810275192196" lon="-5.7623677006242655"><ele>10.5</ele><time>2026-04-25T16:12:48Z</time></trkpt><trkpt lat="36.189034453077696" lon="-5.762649398795143"><ele>10.0</ele><time>2026-04-25T16:12:49Z</time></trkpt><trkpt lat="36.18925634541115" lon="-5.762927482246039"><ele>10.0</ele><time>2026-04-25T16:12:50Z</time></trkpt><trkpt lat="36.189472802843014" lon="-5.763199553119299"><ele>10.0</ele><time>2026-04-25T16:12:51Z</time></trkpt><trkpt lat="36.189687856018864" lon="-5.763467692550207"><ele>10.5</ele><time>2026-04-25T16:12:52Z</time></trkpt><trkpt lat="36.189901296439835" lon="-5.763732742326418"><ele>11.0</ele><time>2026-04-25T16:12:53Z</time></trkpt><trkpt lat="36.19011539209717" lon="-5.7639964596759965"><ele>11.0</ele><time>2026-04-25T16:12:54Z</time></trkpt><trkpt lat="36.1903247966384" lon="-5.764259218436687"><ele>11.0</ele><time>2026-04-25T16:12:55Z</time></trkpt><trkpt lat="36.190544867699245" lon="-5.764533624597149"><ele>10.5</ele><time>2026-04-25T16:12:56Z</time></trkpt><trkpt lat="36.19077384723091" lon="-5.764816443668161"><ele>10.0</ele><time>2026-04-25T16:12:57Z</time></trkpt><trkpt lat="36.190994658144234" lon="-5.765095993134871"><ele>10.0</ele><time>2026-04-25T16:12:58Z</time></trkpt><trkpt lat="36.19121281165011" lon="-5.765370984151259"><ele>10.0</ele><time>2026-04-25T16:12:59Z</time></trkpt><trkpt lat="36.191431782305756" lon="-5.765646557578384"><ele>10.5</ele><time>2026-04-25T16:13:00Z</time></trkpt><trkpt lat="36.191650286844414" lon="-5.765917131580236"><ele>11.0</ele><time>2026-04-25T16:13:01Z</time></trkpt><trkpt lat="36.19186505384235" lon="-5.766186270837593"><ele>11.0</ele><time>2026-04-25T16:13:02Z</time></trkpt><trkpt lat="36.19208484013142" lon="-5.766455588802421"><ele>11.0</ele><time>2026-04-25T16:13:03Z</time></trkpt><trkpt lat="36.19230198193289" lon="-5.76671841162464"><ele>10.0</ele><time>2026-04-25T16:13:04Z</time></trkpt><trkpt lat="36.192518931143894" lon="-5.766987191112584"><ele>9.0</ele><time>2026-04-25T16:13:05Z</time></trkpt><trkpt lat="36.192729824109776" lon="-5.767249095370484"><ele>9.0</ele><time>2026-04-25T16:13:06Z</time></trkpt><trkpt lat="36.19293554632124" lon="-5.767511771863682"><ele>9.0</ele><time>2026-04-25T16:13:07Z</time></trkpt><trkpt lat="36.19314476281666" lon="-5.767773412777509"><ele>8.5</ele><time>2026-04-25T16:13:08Z</time></trkpt><trkpt lat="36.19335173611945" lon="-5.76803019165063"><ele>8.0</ele><time>2026-04-25T16:13:09Z</time></trkpt><trkpt lat="36.19355929606222" lon="-5.76828475728666"><ele>7.0</ele><time>2026-04-25T16:13:10Z</time></trkpt><trkpt lat="36.19376615484006" lon="-5.768544698033455"><ele>6.0</ele><time>2026-04-25T16:13:11Z</time></trkpt><trkpt lat="36.19397371822064" lon="-5.768801763632717"><ele>6.5</ele><time>2026-04-25T16:13:12Z</time></trkpt><trkpt lat="36.194183651928114" lon="-5.769062254913118"><ele>7.0</ele><time>2026-04-25T16:13:13Z</time></trkpt><trkpt lat="36.194389530594535" lon="-5.769327570154233"><ele>7.0</ele><time>2026-04-25T16:13:14Z</time></trkpt><trkpt lat="36.19460682836376" lon="-5.769590530739653"><ele>7.0</ele><time>2026-04-25T16:13:15Z</time></trkpt><trkpt lat="36.19482210208007" lon="-5.769855500993552"><ele>7.0</ele><time>2026-04-25T16:13:16Z</time></trkpt><trkpt lat="36.19503083533721" lon="-5.770118330836315"><ele>7.0</ele><time>2026-04-25T16:13:17Z</time></trkpt><trkpt lat="36.19523962840967" lon="-5.770381684999615"><ele>7.5</ele><time>2026-04-25T16:13:18Z</time></trkpt><trkpt lat="36.1954477762221" lon="-5.770642382121076"><ele>8.0</ele><time>2026-04-25T16:13:18.999Z</time></trkpt><trkpt lat="36.19565580548361" lon="-5.770904078951773"><ele>8.5</ele><time>2026-04-25T16:13:19.999Z</time></trkpt><trkpt lat="36.1958600199838" lon="-5.771157733384606"><ele>9.0</ele><time>2026-04-25T16:13:20.999Z</time></trkpt><trkpt lat="36.19606656625641" lon="-5.771412136233669"><ele>9.0</ele><time>2026-04-25T16:13:21.999Z</time></trkpt><trkpt lat="36.19627752835731" lon="-5.771670544747039"><ele>9.0</ele><time>2026-04-25T16:13:22.999Z</time></trkpt><trkpt lat="36.19648207926535" lon="-5.771928299227834"><ele>9.0</ele><time>2026-04-25T16:13:23.999Z</time></trkpt><trkpt lat="36.19668767276758" lon="-5.77218015744782"><ele>9.0</ele><time>2026-04-25T16:13:24.999Z</time></trkpt><trkpt lat="36.1968871509796" lon="-5.772428812666342"><ele>9.0</ele><time>2026-04-25T16:13:25.999Z</time></trkpt><trkpt lat="36.19708671398646" lon="-5.7726823033194385"><ele>9.0</ele><time>2026-04-25T16:13:26.999Z</time></trkpt><trkpt lat="36.19728757487049" lon="-5.772933190328913"><ele>8.5</ele><time>2026-04-25T16:13:27.999Z</time></trkpt><trkpt lat="36.19748178243153" lon="-5.773182532957945"><ele>8.0</ele><time>2026-04-25T16:13:28.999Z</time></trkpt><trkpt lat="36.19768077968785" lon="-5.773433843599164"><ele>8.0</ele><time>2026-04-25T16:13:29.999Z</time></trkpt><trkpt lat="36.19787932111803" lon="-5.7736813639274835"><ele>8.0</ele><time>2026-04-25T16:13:30.999Z</time></trkpt><trkpt lat="36.19807561142882" lon="-5.77392740486575"><ele>7.5</ele><time>2026-04-25T16:13:31.999Z</time></trkpt><trkpt lat="36.19827072501049" lon="-5.774174496416445"><ele>7.0</ele><time>2026-04-25T16:13:32.999Z</time></trkpt><trkpt lat="36.19846569784353" lon="-5.774417840610006"><ele>6.5</ele><time>2026-04-25T16:13:33.999Z</time></trkpt><trkpt lat="36.19865702373498" lon="-5.774659784525475"><ele>6.0</ele><time>2026-04-25T16:13:34.999Z</time></trkpt><trkpt lat="36.19885534568442" lon="-5.77490209827604"><ele>6.0</ele><time>2026-04-25T16:13:35.999Z</time></trkpt><trkpt lat="36.19905241692247" lon="-5.775147295292128"><ele>6.0</ele><time>2026-04-25T16:13:36.999Z</time></trkpt><trkpt lat="36.19924971816159" lon="-5.775393509541532"><ele>8.0</ele><time>2026-04-25T16:13:37.999Z</time></trkpt><trkpt lat="36.19944018204374" lon="-5.775636108354511"><ele>10.0</ele><time>2026-04-25T16:13:38.999Z</time></trkpt><trkpt lat="36.19963248772389" lon="-5.775879852416876"><ele>11.0</ele><time>2026-04-25T16:13:39.999Z</time></trkpt><trkpt lat="36.19982342711012" lon="-5.776120535562571"><ele>12.0</ele><time>2026-04-25T16:13:40.999Z</time></trkpt><trkpt lat="36.20001689895528" lon="-5.776359931391937"><ele>13.0</ele><time>2026-04-25T16:13:41.999Z</time></trkpt><trkpt lat="36.20021025967771" lon="-5.7765958728482385"><ele>14.0</ele><time>2026-04-25T16:13:42.999Z</time></trkpt><trkpt lat="36.20040135158355" lon="-5.776834070951248"><ele>13.5</ele><time>2026-04-25T16:13:43.999Z</time></trkpt><trkpt lat="36.20059450348155" lon="-5.777072742917383"><ele>13.0</ele><time>2026-04-25T16:13:44.999Z</time></trkpt><trkpt lat="36.20078668210864" lon="-5.77730927084773"><ele>14.0</ele><time>2026-04-25T16:13:45.999Z</time></trkpt><trkpt lat="36.200979421951935" lon="-5.777546970176355"><ele>15.0</ele><time>2026-04-25T16:13:46.999Z</time></trkpt><trkpt lat="36.20117114154989" lon="-5.777785822285809"><ele>15.5</ele><time>2026-04-25T16:13:47.999Z</time></trkpt><trkpt lat="36.20135774035933" lon="-5.77802033373968"><ele>16.0</ele><time>2026-04-25T16:13:48.999Z</time></trkpt><trkpt lat="36.201546369618086" lon="-5.778258357418477"><ele>17.0</ele><time>2026-04-25T16:13:49.999Z</time></trkpt><trkpt lat="36.201732179348284" lon="-5.778494034412554"><ele>18.0</ele><time>2026-04-25T16:13:50.999Z</time></trkpt><trkpt lat="36.20191840917395" lon="-5.7787267364325805"><ele>19.0</ele><time>2026-04-25T16:13:51.999Z</time></trkpt><trkpt lat="36.202106718732175" lon="-5.778955397000099"><ele>20.0</ele><time>2026-04-25T16:13:52.999Z</time></trkpt><trkpt lat="36.20228406037551" lon="-5.779178696786562"><ele>18.0</ele><time>2026-04-25T16:13:53.999Z</time></trkpt><trkpt lat="36.202462262311876" lon="-5.779401854835951"><ele>16.0</ele><time>2026-04-25T16:13:54.999Z</time></trkpt><trkpt lat="36.20264129027232" lon="-5.779626806934388"><ele>16.0</ele><time>2026-04-25T16:13:55.999Z</time></trkpt><trkpt lat="36.20282451212122" lon="-5.77985455686007"><ele>16.0</ele><time>2026-04-25T16:13:56.999Z</time></trkpt><trkpt lat="36.203006352473466" lon="-5.780082609758219"><ele>14.0</ele><time>2026-04-25T16:13:57.999Z</time></trkpt><trkpt lat="36.203190992698445" lon="-5.780306395510067"><ele>12.0</ele><time>2026-04-25T16:13:58.999Z</time></trkpt><trkpt lat="36.203374638435214" lon="-5.780531213199743"><ele>12.0</ele><time>2026-04-25T16:13:59.999Z</time></trkpt><trkpt lat="36.203557522325625" lon="-5.78075921892793"><ele>12.0</ele><time>2026-04-25T16:14:00.999Z</time></trkpt><trkpt lat="36.20374124763523" lon="-5.780988892328907"><ele>12.5</ele><time>2026-04-25T16:14:01.999Z</time></trkpt><trkpt lat="36.20392525771904" lon="-5.781221122342713"><ele>13.0</ele><time>2026-04-25T16:14:02.999Z</time></trkpt><trkpt lat="36.204110244309334" lon="-5.78145045604178"><ele>13.0</ele><time>2026-04-25T16:14:03.999Z</time></trkpt><trkpt lat="36.20429030521512" lon="-5.781680487429783"><ele>13.0</ele><time>2026-04-25T16:14:04.999Z</time></trkpt><trkpt lat="36.20446967821473" lon="-5.78190259188355"><ele>12.5</ele><time>2026-04-25T16:14:05.999Z</time></trkpt><trkpt lat="36.204649349266575" lon="-5.782125372058706"><ele>12.0</ele><time>2026-04-25T16:14:06.999Z</time></trkpt><trkpt lat="36.204833021797526" lon="-5.782351827714782"><ele>13.5</ele><time>2026-04-25T16:14:07.999Z</time></trkpt><trkpt lat="36.20501247194533" lon="-5.7825766821817925"><ele>15.0</ele><time>2026-04-25T16:14:08.999Z</time></trkpt><trkpt lat="36.20519945648428" lon="-5.782807218824209"><ele>15.0</ele><time>2026-04-25T16:14:09.999Z</time></trkpt><trkpt lat="36.205375839142164" lon="-5.783027714859353"><ele>15.0</ele><time>2026-04-25T16:14:10.999Z</time></trkpt><trkpt lat="36.20555082935081" lon="-5.783245400471088"><ele>15.0</ele><time>2026-04-25T16:14:11.999Z</time></trkpt><trkpt lat="36.205720744345925" lon="-5.783457946366868"><ele>15.0</ele><time>2026-04-25T16:14:12.999Z</time></trkpt><trkpt lat="36.20589051325953" lon="-5.783669258037715"><ele>16.0</ele><time>2026-04-25T16:14:13.999Z</time></trkpt><trkpt lat="36.20606624483963" lon="-5.783884244029237"><ele>17.0</ele><time>2026-04-25T16:14:14.999Z</time></trkpt><trkpt lat="36.20623700449735" lon="-5.784098895254338"><ele>17.0</ele><time>2026-04-25T16:14:15.999Z</time></trkpt><trkpt lat="36.20641241783711" lon="-5.784318979979855"><ele>17.0</ele><time>2026-04-25T16:14:16.999Z</time></trkpt><trkpt lat="36.20658185994159" lon="-5.784536555318292"><ele>18.0</ele><time>2026-04-25T16:14:17.999Z</time></trkpt><trkpt lat="36.2067588888204" lon="-5.784755521577244"><ele>19.0</ele><time>2026-04-25T16:14:18.999Z</time></trkpt><trkpt lat="36.20693867222671" lon="-5.784980612148175"><ele>18.5</ele><time>2026-04-25T16:14:19.999Z</time></trkpt><trkpt lat="36.2071185522736" lon="-5.78520215862443"><ele>18.0</ele><time>2026-04-25T16:14:20.999Z</time></trkpt><trkpt lat="36.20729900062234" lon="-5.785427266075243"><ele>18.5</ele><time>2026-04-25T16:14:21.999Z</time></trkpt><trkpt lat="36.20747675931291" lon="-5.785651958726291"><ele>19.0</ele><time>2026-04-25T16:14:22.998Z</time></trkpt><trkpt lat="36.20766084035019" lon="-5.785876379003326"><ele>19.0</ele><time>2026-04-25T16:14:23.998Z</time></trkpt><trkpt lat="36.20784903026747" lon="-5.786105463368505"><ele>19.0</ele><time>2026-04-25T16:14:24.998Z</time></trkpt><trkpt lat="36.208035127703305" lon="-5.786335795801392"><ele>19.5</ele><time>2026-04-25T16:14:25.998Z</time></trkpt><trkpt lat="36.208225484384414" lon="-5.786568558026567"><ele>20.0</ele><time>2026-04-25T16:14:26.998Z</time></trkpt><trkpt lat="36.208417339185885" lon="-5.786806804253797"><ele>19.0</ele><time>2026-04-25T16:14:27.998Z</time></trkpt><trkpt lat="36.208607480202154" lon="-5.787050877530058"><ele>18.0</ele><time>2026-04-25T16:14:28.998Z</time></trkpt><trkpt lat="36.20879750752839" lon="-5.787287588526085"><ele>18.0</ele><time>2026-04-25T16:14:29.998Z</time></trkpt><trkpt lat="36.20899062442433" lon="-5.787523874772593"><ele>18.0</ele><time>2026-04-25T16:14:30.998Z</time></trkpt><trkpt lat="36.20918374450609" lon="-5.7877596067293515"><ele>17.5</ele><time>2026-04-25T16:14:31.998Z</time></trkpt><trkpt lat="36.20937650262073" lon="-5.787999398337965"><ele>17.0</ele><time>2026-04-25T16:14:32.998Z</time></trkpt><trkpt lat="36.20956854825617" lon="-5.788233679944059"><ele>17.0</ele><time>2026-04-25T16:14:33.998Z</time></trkpt><trkpt lat="36.20975606305736" lon="-5.788465749988409"><ele>17.0</ele><time>2026-04-25T16:14:34.998Z</time></trkpt><trkpt lat="36.20994434801463" lon="-5.788693217026458"><ele>18.5</ele><time>2026-04-25T16:14:35.998Z</time></trkpt><trkpt lat="36.210134715873885" lon="-5.788918711995286"><ele>20.0</ele><time>2026-04-25T16:14:36.998Z</time></trkpt><trkpt lat="36.210319323706095" lon="-5.789136899253449"><ele>21.0</ele><time>2026-04-25T16:14:37.998Z</time></trkpt><trkpt lat="36.21050075837613" lon="-5.789357231422226"><ele>22.0</ele><time>2026-04-25T16:14:39Z</time></trkpt><trkpt lat="36.210680172798426" lon="-5.789575133448855"><ele>22.0</ele><time>2026-04-25T16:14:40Z</time></trkpt><trkpt lat="36.21085871582356" lon="-5.789787710508787"><ele>22.0</ele><time>2026-04-25T16:14:41Z</time></trkpt><trkpt lat="36.211022640218495" lon="-5.789986003816029"><ele>22.333333333333332</ele><time>2026-04-25T16:14:42Z</time></trkpt><trkpt lat="36.211181120895205" lon="-5.790177682477022"><ele>22.666666666666668</ele><time>2026-04-25T16:14:43Z</time></trkpt><trkpt lat="36.21134578231079" lon="-5.79037091139134"><ele>23.0</ele><time>2026-04-25T16:14:44Z</time></trkpt><trkpt lat="36.211515046118116" lon="-5.7905635607816865"><ele>23.0</ele><time>2026-04-25T16:14:45Z</time></trkpt><trkpt lat="36.2116898165274" lon="-5.790758723467744"><ele>23.0</ele><time>2026-04-25T16:14:46Z</time></trkpt><trkpt lat="36.21186674909022" lon="-5.7909607419740246"><ele>23.5</ele><time>2026-04-25T16:14:47Z</time></trkpt><trkpt lat="36.21204720934686" lon="-5.791159612946574"><ele>24.0</ele><time>2026-04-25T16:14:48Z</time></trkpt><trkpt lat="36.212238471778214" lon="-5.791353809239076"><ele>22.5</ele><time>2026-04-25T16:14:49Z</time></trkpt><trkpt lat="36.21243409776252" lon="-5.791537337377393"><ele>21.0</ele><time>2026-04-25T16:14:50Z</time></trkpt><trkpt lat="36.21263177174707" lon="-5.791719376652261"><ele>22.5</ele><time>2026-04-25T16:14:51Z</time></trkpt><trkpt lat="36.212833399601195" lon="-5.791902115052995"><ele>24.0</ele><time>2026-04-25T16:14:52Z</time></trkpt><trkpt lat="36.21303497217086" lon="-5.792085810478582"><ele>23.0</ele><time>2026-04-25T16:14:53Z</time></trkpt><trkpt lat="36.21323265922391" lon="-5.7922776002384895"><ele>22.0</ele><time>2026-04-25T16:14:54Z</time></trkpt><trkpt lat="36.21342784178991" lon="-5.792471361791713"><ele>24.5</ele><time>2026-04-25T16:14:55Z</time></trkpt><trkpt lat="36.213648477095575" lon="-5.792684771650369"><ele>27.0</ele><time>2026-04-25T16:14:56Z</time></trkpt><trkpt lat="36.21384413653183" lon="-5.792857989080946"><ele>27.0</ele><time>2026-04-25T16:14:57Z</time></trkpt><trkpt lat="36.214060369218984" lon="-5.793043217408982"><ele>27.0</ele><time>2026-04-25T16:14:58Z</time></trkpt><trkpt lat="36.21429464123574" lon="-5.793230916393157"><ele>27.0</ele><time>2026-04-25T16:14:59Z</time></trkpt><trkpt lat="36.21449330389373" lon="-5.793419717371488"><ele>27.0</ele><time>2026-04-25T16:15:00Z</time></trkpt><trkpt lat="36.214692788045696" lon="-5.7936079098283"><ele>28.5</ele><time>2026-04-25T16:15:01Z</time></trkpt><trkpt lat="36.214905021264784" lon="-5.79379186071177"><ele>30.0</ele><time>2026-04-25T16:15:02Z</time></trkpt><trkpt lat="36.215114851706225" lon="-5.793976077845185"><ele>30.0</ele><time>2026-04-25T16:15:03Z</time></trkpt><trkpt lat="36.215309321305696" lon="-5.79414828415918"><ele>30.0</ele><time>2026-04-25T16:15:04Z</time></trkpt><trkpt lat="36.21549450558173" lon="-5.794311183861913"><ele>29.666666666666664</ele><time>2026-04-25T16:15:05Z</time></trkpt><trkpt lat="36.21567315226258" lon="-5.794473619479357"><ele>29.333333333333332</ele><time>2026-04-25T16:15:06Z</time></trkpt><trkpt lat="36.215842866338825" lon="-5.794648091620299"><ele>29.0</ele><time>2026-04-25T16:15:07Z</time></trkpt><trkpt lat="36.21599649056277" lon="-5.79484219804588"><ele>29.0</ele><time>2026-04-25T16:15:08Z</time></trkpt><trkpt lat="36.21612902432593" lon="-5.7950602661182335"><ele>29.0</ele><time>2026-04-25T16:15:09Z</time></trkpt><trkpt lat="36.21624036587669" lon="-5.795296151116894"><ele>29.0</ele><time>2026-04-25T16:15:10Z</time></trkpt><trkpt lat="36.21633608494792" lon="-5.795541234680624"><ele>29.666666666666664</ele><time>2026-04-25T16:15:11Z</time></trkpt><trkpt lat="36.21643069053391" lon="-5.795787969045951"><ele>30.333333333333336</ele><time>2026-04-25T16:15:12Z</time></trkpt><trkpt lat="36.216536089995046" lon="-5.7960381252506945"><ele>31.0</ele><time>2026-04-25T16:15:13Z</time></trkpt><trkpt lat="36.2166600488778" lon="-5.7962971039202325"><ele>29.5</ele><time>2026-04-25T16:15:14Z</time></trkpt><trkpt lat="36.21678869804601" lon="-5.7965747728282935"><ele>28.0</ele><time>2026-04-25T16:15:15Z</time></trkpt><trkpt lat="36.216914517287506" lon="-5.796868981725517"><ele>28.0</ele><time>2026-04-25T16:15:16Z</time></trkpt><trkpt lat="36.217052205699936" lon="-5.7971669821878375"><ele>28.0</ele><time>2026-04-25T16:15:17Z</time></trkpt><trkpt lat="36.21718143959763" lon="-5.7974687140907495"><ele>29.5</ele><time>2026-04-25T16:15:18Z</time></trkpt><trkpt lat="36.21729542394207" lon="-5.7977791847947575"><ele>31.0</ele><time>2026-04-25T16:15:19Z</time></trkpt><trkpt lat="36.21739909612384" lon="-5.798093654462404"><ele>28.5</ele><time>2026-04-25T16:15:20Z</time></trkpt><trkpt lat="36.21749228659048" lon="-5.798414226123981"><ele>26.0</ele><time>2026-04-25T16:15:21Z</time></trkpt><trkpt lat="36.21757471277644" lon="-5.798734165473249"><ele>26.0</ele><time>2026-04-25T16:15:22Z</time></trkpt><trkpt lat="36.217653738005446" lon="-5.799052379189219"><ele>26.0</ele><time>2026-04-25T16:15:23Z</time></trkpt><trkpt lat="36.217738927792624" lon="-5.799370403054447"><ele>27.0</ele><time>2026-04-25T16:15:24Z</time></trkpt><trkpt lat="36.21782086176441" lon="-5.799676454095224"><ele>28.0</ele><time>2026-04-25T16:15:25Z</time></trkpt><trkpt lat="36.21790270015685" lon="-5.799965287773503"><ele>31.5</ele><time>2026-04-25T16:15:26Z</time></trkpt><trkpt lat="36.218001471195045" lon="-5.800249731354862"><ele>35.0</ele><time>2026-04-25T16:15:26.999Z</time></trkpt><trkpt lat="36.21812247986587" lon="-5.8005252700051"><ele>34.0</ele><time>2026-04-25T16:15:27.999Z</time></trkpt><trkpt lat="36.218272303928565" lon="-5.800785139208958"><ele>33.0</ele><time>2026-04-25T16:15:28.999Z</time></trkpt><trkpt lat="36.218445711095185" lon="-5.8010232170676765"><ele>33.0</ele><time>2026-04-25T16:15:29.999Z</time></trkpt><trkpt lat="36.21863445319962" lon="-5.801264998100491"><ele>33.0</ele><time>2026-04-25T16:15:30.999Z</time></trkpt><trkpt lat="36.21883065976889" lon="-5.801514349042725"><ele>30.0</ele><time>2026-04-25T16:15:31.999Z</time></trkpt><trkpt lat="36.219021995600066" lon="-5.801768874240503"><ele>27.0</ele><time>2026-04-25T16:15:32.999Z</time></trkpt><trkpt lat="36.2192091912738" lon="-5.802016597038694"><ele>27.0</ele><time>2026-04-25T16:15:33.999Z</time></trkpt><trkpt lat="36.219398123513855" lon="-5.802259414246828"><ele>27.0</ele><time>2026-04-25T16:15:34.999Z</time></trkpt><trkpt lat="36.21958735525167" lon="-5.802503079262667"><ele>26.0</ele><time>2026-04-25T16:15:35.999Z</time></trkpt><trkpt lat="36.219774812939974" lon="-5.802746971119447"><ele>25.0</ele><time>2026-04-25T16:15:36.999Z</time></trkpt><trkpt lat="36.219961815510565" lon="-5.802989734023341"><ele>25.0</ele><time>2026-04-25T16:15:37.999Z</time></trkpt><trkpt lat="36.22014316156177" lon="-5.8032288139782615"><ele>25.0</ele><time>2026-04-25T16:15:38.999Z</time></trkpt><trkpt lat="36.22031756706078" lon="-5.803456762578796"><ele>26.0</ele><time>2026-04-25T16:15:39.999Z</time></trkpt><trkpt lat="36.220488897804884" lon="-5.803672529582729"><ele>27.0</ele><time>2026-04-25T16:15:40.999Z</time></trkpt><trkpt lat="36.22065023671688" lon="-5.803880504017473"><ele>24.0</ele><time>2026-04-25T16:15:41.999Z</time></trkpt><trkpt lat="36.2208038249422" lon="-5.804081983128462"><ele>21.0</ele><time>2026-04-25T16:15:42.999Z</time></trkpt><trkpt lat="36.22095187769556" lon="-5.804282593932028"><ele>18.0</ele><time>2026-04-25T16:15:43.999Z</time></trkpt><trkpt lat="36.22109016886574" lon="-5.80448805678196"><ele>17.333333333333332</ele><time>2026-04-25T16:15:44.999Z</time></trkpt><trkpt lat="36.22121786540893" lon="-5.804707936110209"><ele>16.666666666666664</ele><time>2026-04-25T16:15:45.999Z</time></trkpt><trkpt lat="36.22133318133455" lon="-5.804948473057037"><ele>16.0</ele><time>2026-04-25T16:15:46.999Z</time></trkpt><trkpt lat="36.2214399125454" lon="-5.8052025308819"><ele>16.5</ele><time>2026-04-25T16:15:47.999Z</time></trkpt><trkpt lat="36.22154362644051" lon="-5.8054679152934625"><ele>17.0</ele><time>2026-04-25T16:15:48.999Z</time></trkpt><trkpt lat="36.22165098602851" lon="-5.805731867523766"><ele>17.0</ele><time>2026-04-25T16:15:49.999Z</time></trkpt><trkpt lat="36.22175602606596" lon="-5.80599171986727"><ele>17.0</ele><time>2026-04-25T16:15:50.999Z</time></trkpt><trkpt lat="36.221865849891415" lon="-5.8062504174064244"><ele>19.5</ele><time>2026-04-25T16:15:51.999Z</time></trkpt><trkpt lat="36.221976368371266" lon="-5.806506541424178"><ele>22.0</ele><time>2026-04-25T16:15:52.999Z</time></trkpt><trkpt lat="36.2220812360797" lon="-5.806766579456099"><ele>24.0</ele><time>2026-04-25T16:15:53.999Z</time></trkpt><trkpt lat="36.222185504128475" lon="-5.807022271636027"><ele>26.0</ele><time>2026-04-25T16:15:54.999Z</time></trkpt><trkpt lat="36.22228926200563" lon="-5.807282337180778"><ele>26.0</ele><time>2026-04-25T16:15:55.999Z</time></trkpt><trkpt lat="36.22239458081377" lon="-5.807538940647323"><ele>26.0</ele><time>2026-04-25T16:15:56.999Z</time></trkpt><trkpt lat="36.22250122269503" lon="-5.807796431493839"><ele>26.0</ele><time>2026-04-25T16:15:57.999Z</time></trkpt><trkpt lat="36.22260518353927" lon="-5.808048222762674"><ele>26.0</ele><time>2026-04-25T16:15:58.999Z</time></trkpt><trkpt lat="36.22270603648307" lon="-5.808290881853914"><ele>26.0</ele><time>2026-04-25T16:15:59.999Z</time></trkpt><trkpt lat="36.22280683303332" lon="-5.80854012962334"><ele>27.0</ele><time>2026-04-25T16:16:00.999Z</time></trkpt><trkpt lat="36.22290729605786" lon="-5.808790024388502"><ele>28.0</ele><time>2026-04-25T16:16:01.999Z</time></trkpt><trkpt lat="36.22300782986035" lon="-5.80904241133272"><ele>28.0</ele><time>2026-04-25T16:16:02.999Z</time></trkpt><trkpt lat="36.22310997538074" lon="-5.809290800027174"><ele>28.0</ele><time>2026-04-25T16:16:03.999Z</time></trkpt><trkpt lat="36.22321150854408" lon="-5.809538645031087"><ele>28.0</ele><time>2026-04-25T16:16:04.999Z</time></trkpt><trkpt lat="36.2233103923926" lon="-5.809784098566664"><ele>24.333333333333336</ele><time>2026-04-25T16:16:05.999Z</time></trkpt><trkpt lat="36.223409837775996" lon="-5.810021232514957"><ele>20.666666666666668</ele><time>2026-04-25T16:16:06.999Z</time></trkpt><trkpt lat="36.223509961920406" lon="-5.810255340921602"><ele>17.0</ele><time>2026-04-25T16:16:07.999Z</time></trkpt><trkpt lat="36.22360693494172" lon="-5.810488650762014"><ele>17.0</ele><time>2026-04-25T16:16:08.999Z</time></trkpt><trkpt lat="36.22370208879575" lon="-5.810725018100099"><ele>17.0</ele><time>2026-04-25T16:16:09.999Z</time></trkpt><trkpt lat="36.22379760921297" lon="-5.810954475303827"><ele>17.0</ele><time>2026-04-25T16:16:10.999Z</time></trkpt><trkpt lat="36.22389191688071" lon="-5.81119183264926"><ele>16.333333333333336</ele><time>2026-04-25T16:16:11.999Z</time></trkpt><trkpt lat="36.223985850561256" lon="-5.8114305817166505"><ele>15.666666666666668</ele><time>2026-04-25T16:16:12.999Z</time></trkpt><trkpt lat="36.224081698320674" lon="-5.811667071487684"><ele>15.0</ele><time>2026-04-25T16:16:13.999Z</time></trkpt><trkpt lat="36.22417448217105" lon="-5.811904591515193"><ele>15.0</ele><time>2026-04-25T16:16:14.999Z</time></trkpt><trkpt lat="36.22427368342889" lon="-5.812142371251538"><ele>15.0</ele><time>2026-04-25T16:16:15.999Z</time></trkpt><trkpt lat="36.22437472508439" lon="-5.812382984295645"><ele>15.0</ele><time>2026-04-25T16:16:16.999Z</time></trkpt><trkpt lat="36.22447792156243" lon="-5.812629378945248"><ele>15.5</ele><time>2026-04-25T16:16:17.999Z</time></trkpt><trkpt lat="36.224580703766414" lon="-5.81287611175892"><ele>16.0</ele><time>2026-04-25T16:16:18.999Z</time></trkpt><trkpt lat="36.22468630155446" lon="-5.813136269366813"><ele>16.0</ele><time>2026-04-25T16:16:19.999Z</time></trkpt><trkpt lat="36.224795416076134" lon="-5.813409591720128"><ele>16.0</ele><time>2026-04-25T16:16:20.999Z</time></trkpt><trkpt lat="36.22491317981901" lon="-5.813696157698335"><ele>13.0</ele><time>2026-04-25T16:16:21.999Z</time></trkpt><trkpt lat="36.22503552252088" lon="-5.813993742781898"><ele>10.0</ele><time>2026-04-25T16:16:22.999Z</time></trkpt><trkpt lat="36.22515636095947" lon="-5.81430260837"><ele>12.0</ele><time>2026-04-25T16:16:23.999Z</time></trkpt><trkpt lat="36.225279768007326" lon="-5.814622197458972"><ele>14.0</ele><time>2026-04-25T16:16:24.999Z</time></trkpt><trkpt lat="36.22540417779871" lon="-5.814945610903609"><ele>15.5</ele><time>2026-04-25T16:16:25.999Z</time></trkpt><trkpt lat="36.22554993841225" lon="-5.815261813535678"><ele>17.0</ele><time>2026-04-25T16:16:26.999Z</time></trkpt><trkpt lat="36.22566842163383" lon="-5.815595962968999"><ele>14.0</ele><time>2026-04-25T16:16:27.999Z</time></trkpt><trkpt lat="36.225803981919334" lon="-5.815917098899692"><ele>11.0</ele><time>2026-04-25T16:16:28.998Z</time></trkpt><trkpt lat="36.22594203205226" lon="-5.816240334289755"><ele>11.0</ele><time>2026-04-25T16:16:29.998Z</time></trkpt><trkpt lat="36.22607576625813" lon="-5.816562570669219"><ele>11.0</ele><time>2026-04-25T16:16:30.998Z</time></trkpt><trkpt lat="36.22621044084232" lon="-5.8168875067143455"><ele>11.5</ele><time>2026-04-25T16:16:31.998Z</time></trkpt><trkpt lat="36.226342879508614" lon="-5.817209165581806"><ele>12.0</ele><time>2026-04-25T16:16:32.998Z</time></trkpt><trkpt lat="36.22647451494142" lon="-5.817533625374682"><ele>10.5</ele><time>2026-04-25T16:16:33.998Z</time></trkpt><trkpt lat="36.22660815399748" lon="-5.8178579592834385"><ele>9.0</ele><time>2026-04-25T16:16:34.998Z</time></trkpt><trkpt lat="36.22674066611991" lon="-5.818180145780544"><ele>9.5</ele><time>2026-04-25T16:16:35.998Z</time></trkpt><trkpt lat="36.22687323880253" lon="-5.818502398214655"><ele>10.0</ele><time>2026-04-25T16:16:36.998Z</time></trkpt><trkpt lat="36.22700560173793" lon="-5.818823516522684"><ele>10.0</ele><time>2026-04-25T16:16:37.998Z</time></trkpt><trkpt lat="36.22713635189499" lon="-5.819142110568127"><ele>10.0</ele><time>2026-04-25T16:16:38.998Z</time></trkpt><trkpt lat="36.227267699612675" lon="-5.819459071236986"><ele>10.0</ele><time>2026-04-25T16:16:39.998Z</time></trkpt><trkpt lat="36.22739908275593" lon="-5.819776813480598"><ele>10.0</ele><time>2026-04-25T16:16:40.998Z</time></trkpt><trkpt lat="36.22752996897087" lon="-5.820092875546982"><ele>10.5</ele><time>2026-04-25T16:16:41.998Z</time></trkpt><trkpt lat="36.22765761014356" lon="-5.820411110389452"><ele>11.0</ele><time>2026-04-25T16:16:42.998Z</time></trkpt><trkpt lat="36.22778459863175" lon="-5.820730032643334"><ele>12.0</ele><time>2026-04-25T16:16:43.998Z</time></trkpt><trkpt lat="36.22791441460223" lon="-5.821052480532262"><ele>13.0</ele><time>2026-04-25T16:16:45Z</time></trkpt><trkpt lat="36.228044246052455" lon="-5.821373160006684"><ele>11.5</ele><time>2026-04-25T16:16:46Z</time></trkpt><trkpt lat="36.22817671480942" lon="-5.821693120896758"><ele>10.0</ele><time>2026-04-25T16:16:47Z</time></trkpt><trkpt lat="36.228311624550194" lon="-5.822012331700734"><ele>10.0</ele><time>2026-04-25T16:16:48Z</time></trkpt><trkpt lat="36.22844495436662" lon="-5.8223335088912735"><ele>10.0</ele><time>2026-04-25T16:16:49Z</time></trkpt><trkpt lat="36.22857430619327" lon="-5.8226517189309375"><ele>10.0</ele><time>2026-04-25T16:16:50Z</time></trkpt><trkpt lat="36.22870190759855" lon="-5.822969214787496"><ele>10.0</ele><time>2026-04-25T16:16:51Z</time></trkpt><trkpt lat="36.2288248097138" lon="-5.823288140968318"><ele>10.5</ele><time>2026-04-25T16:16:52Z</time></trkpt><trkpt lat="36.22894651280432" lon="-5.823603124501399"><ele>11.0</ele><time>2026-04-25T16:16:53Z</time></trkpt><trkpt lat="36.22906838636513" lon="-5.823918178553714"><ele>9.5</ele><time>2026-04-25T16:16:54Z</time></trkpt><trkpt lat="36.229194236717646" lon="-5.824229851707476"><ele>8.0</ele><time>2026-04-25T16:16:55Z</time></trkpt><trkpt lat="36.22932001375693" lon="-5.8245398592726785"><ele>8.0</ele><time>2026-04-25T16:16:56Z</time></trkpt><trkpt lat="36.229447391379345" lon="-5.824850060302422"><ele>8.0</ele><time>2026-04-25T16:16:57Z</time></trkpt><trkpt lat="36.229572806266816" lon="-5.825158079291611"><ele>8.0</ele><time>2026-04-25T16:16:58Z</time></trkpt><trkpt lat="36.22969741033421" lon="-5.825468735613731"><ele>8.0</ele><time>2026-04-25T16:16:59Z</time></trkpt><trkpt lat="36.2298217815305" lon="-5.8257769649147635"><ele>8.5</ele><time>2026-04-25T16:17:00Z</time></trkpt><trkpt lat="36.22994318479835" lon="-5.826087846943317"><ele>9.0</ele><time>2026-04-25T16:17:01Z</time></trkpt><trkpt lat="36.230066202085894" lon="-5.826399929723607"><ele>9.0</ele><time>2026-04-25T16:17:02Z</time></trkpt><trkpt lat="36.23019063974216" lon="-5.8267095732356395"><ele>9.0</ele><time>2026-04-25T16:17:03Z</time></trkpt><trkpt lat="36.23031571018012" lon="-5.827017486045509"><ele>11.0</ele><time>2026-04-25T16:17:04Z</time></trkpt><trkpt lat="36.230440490421294" lon="-5.827326554447976"><ele>13.0</ele><time>2026-04-25T16:17:05Z</time></trkpt><trkpt lat="36.23056461175261" lon="-5.827633304461475"><ele>12.5</ele><time>2026-04-25T16:17:06Z</time></trkpt><trkpt lat="36.23068867212509" lon="-5.827938863655972"><ele>12.0</ele><time>2026-04-25T16:17:07Z</time></trkpt><trkpt lat="36.23081285363254" lon="-5.82824538504833"><ele>13.5</ele><time>2026-04-25T16:17:08Z</time></trkpt><trkpt lat="36.23093781957977" lon="-5.828555088558587"><ele>15.0</ele><time>2026-04-25T16:17:09Z</time></trkpt><trkpt lat="36.23105946910156" lon="-5.828866782015087"><ele>15.0</ele><time>2026-04-25T16:17:10Z</time></trkpt><trkpt lat="36.23118331796468" lon="-5.829178246812876"><ele>15.0</ele><time>2026-04-25T16:17:11Z</time></trkpt><trkpt lat="36.231308340772294" lon="-5.82948865187289"><ele>16.0</ele><time>2026-04-25T16:17:12Z</time></trkpt><trkpt lat="36.23142922519783" lon="-5.8297894396567065"><ele>17.0</ele><time>2026-04-25T16:17:13Z</time></trkpt><trkpt lat="36.231539540369894" lon="-5.83008573737697"><ele>17.0</ele><time>2026-04-25T16:17:14Z</time></trkpt><trkpt lat="36.23164126467164" lon="-5.830387555837153"><ele>17.0</ele><time>2026-04-25T16:17:15Z</time></trkpt><trkpt lat="36.23173776680403" lon="-5.8306907300018604"><ele>17.0</ele><time>2026-04-25T16:17:16Z</time></trkpt><trkpt lat="36.23181499574007" lon="-5.831004017673401"><ele>17.0</ele><time>2026-04-25T16:17:17Z</time></trkpt><trkpt lat="36.231881762756046" lon="-5.8313253427833365"><ele>17.0</ele><time>2026-04-25T16:17:18Z</time></trkpt><trkpt lat="36.23193587827502" lon="-5.831649839692183"><ele>17.0</ele><time>2026-04-25T16:17:19Z</time></trkpt><trkpt lat="36.231976286733165" lon="-5.831976302990844"><ele>16.5</ele><time>2026-04-25T16:17:20Z</time></trkpt><trkpt lat="36.231994729542144" lon="-5.83230706720121"><ele>16.0</ele><time>2026-04-25T16:17:21Z</time></trkpt><trkpt lat="36.23200301854265" lon="-5.832641276104399"><ele>13.5</ele><time>2026-04-25T16:17:22Z</time></trkpt><trkpt lat="36.23199864491707" lon="-5.83297963053395"><ele>11.0</ele><time>2026-04-25T16:17:23Z</time></trkpt><trkpt lat="36.23197507082824" lon="-5.833313794326562"><ele>9.0</ele><time>2026-04-25T16:17:24Z</time></trkpt><trkpt lat="36.23193985325913" lon="-5.833647344076103"><ele>7.0</ele><time>2026-04-25T16:17:25Z</time></trkpt><trkpt lat="36.23189229845264" lon="-5.83397847686748"><ele>6.5</ele><time>2026-04-25T16:17:26Z</time></trkpt><trkpt lat="36.23182685129707" lon="-5.834305978392712"><ele>6.0</ele><time>2026-04-25T16:17:27Z</time></trkpt><trkpt lat="36.23174853147629" lon="-5.83462721788457"><ele>6.0</ele><time>2026-04-25T16:17:28Z</time></trkpt><trkpt lat="36.23166437621007" lon="-5.834945789930082"><ele>6.0</ele><time>2026-04-25T16:17:28.999Z</time></trkpt><trkpt lat="36.23157369356746" lon="-5.835263423269481"><ele>6.0</ele><time>2026-04-25T16:17:29.999Z</time></trkpt><trkpt lat="36.23148431566426" lon="-5.835587474290726"><ele>6.0</ele><time>2026-04-25T16:17:30.999Z</time></trkpt><trkpt lat="36.231394843178364" lon="-5.835914963171025"><ele>5.5</ele><time>2026-04-25T16:17:31.999Z</time></trkpt><trkpt lat="36.231305931452965" lon="-5.836240440970951"><ele>5.0</ele><time>2026-04-25T16:17:32.999Z</time></trkpt><trkpt lat="36.23121604069333" lon="-5.836568029403804"><ele>6.5</ele><time>2026-04-25T16:17:33.999Z</time></trkpt><trkpt lat="36.2311228428054" lon="-5.836897924245756"><ele>8.0</ele><time>2026-04-25T16:17:34.999Z</time></trkpt><trkpt lat="36.2310272903404" lon="-5.837224810679845"><ele>8.0</ele><time>2026-04-25T16:17:35.999Z</time></trkpt><trkpt lat="36.230936357420916" lon="-5.837557627972069"><ele>8.0</ele><time>2026-04-25T16:17:36.999Z</time></trkpt><trkpt lat="36.230846495750065" lon="-5.837893876490127"><ele>8.0</ele><time>2026-04-25T16:17:37.999Z</time></trkpt><trkpt lat="36.230752799776674" lon="-5.8382256815603695"><ele>8.0</ele><time>2026-04-25T16:17:38.999Z</time></trkpt><trkpt lat="36.23065812225623" lon="-5.8385625850690515"><ele>14.5</ele><time>2026-04-25T16:17:39.999Z</time></trkpt><trkpt lat="36.230563872818244" lon="-5.838898272214005"><ele>21.0</ele><time>2026-04-25T16:17:40.999Z</time></trkpt><trkpt lat="36.230467772109975" lon="-5.839231968079481"><ele>19.5</ele><time>2026-04-25T16:17:41.999Z</time></trkpt><trkpt lat="36.230376099656944" lon="-5.8395663498759305"><ele>18.0</ele><time>2026-04-25T16:17:42.999Z</time></trkpt><trkpt lat="36.230287274359746" lon="-5.839900758333442"><ele>17.5</ele><time>2026-04-25T16:17:43.999Z</time></trkpt><trkpt lat="36.23019779002217" lon="-5.8402308091309765"><ele>17.0</ele><time>2026-04-25T16:17:44.999Z</time></trkpt><trkpt lat="36.23010579382099" lon="-5.840559427747582"><ele>17.0</ele><time>2026-04-25T16:17:45.999Z</time></trkpt><trkpt lat="36.23001378601217" lon="-5.840884994401514"><ele>17.0</ele><time>2026-04-25T16:17:46.999Z</time></trkpt><trkpt lat="36.22994343646147" lon="-5.841203444918604"><ele>18.5</ele><time>2026-04-25T16:17:47.999Z</time></trkpt><trkpt lat="36.22984678429299" lon="-5.841495879089942"><ele>20.0</ele><time>2026-04-25T16:17:48.999Z</time></trkpt><trkpt lat="36.22977492142663" lon="-5.841771491702633"><ele>22.333333333333336</ele><time>2026-04-25T16:17:49.999Z</time></trkpt><trkpt lat="36.2297058372658" lon="-5.842033850786726"><ele>24.666666666666668</ele><time>2026-04-25T16:17:50.999Z</time></trkpt><trkpt lat="36.22963589036589" lon="-5.842284595172596"><ele>27.0</ele><time>2026-04-25T16:17:51.999Z</time></trkpt><trkpt lat="36.22956655379432" lon="-5.842534987540465"><ele>27.333333333333336</ele><time>2026-04-25T16:17:52.999Z</time></trkpt><trkpt lat="36.22949908401921" lon="-5.842786787281874"><ele>27.666666666666668</ele><time>2026-04-25T16:17:53.999Z</time></trkpt><trkpt lat="36.22943382212363" lon="-5.84304342098068"><ele>28.0</ele><time>2026-04-25T16:17:54.999Z</time></trkpt><trkpt lat="36.229363625703336" lon="-5.843300856410255"><ele>28.0</ele><time>2026-04-25T16:17:55.999Z</time></trkpt><trkpt lat="36.229290366433624" lon="-5.843562656696422"><ele>28.0</ele><time>2026-04-25T16:17:56.999Z</time></trkpt><trkpt lat="36.229213582591036" lon="-5.843823335476897"><ele>28.0</ele><time>2026-04-25T16:17:57.999Z</time></trkpt><trkpt lat="36.22913343411233" lon="-5.844082498919531"><ele>27.0</ele><time>2026-04-25T16:17:58.999Z</time></trkpt><trkpt lat="36.22904273867156" lon="-5.844344557437025"><ele>26.0</ele><time>2026-04-25T16:17:59.999Z</time></trkpt><trkpt lat="36.228941495806225" lon="-5.844600690204701"><ele>26.0</ele><time>2026-04-25T16:18:00.999Z</time></trkpt><trkpt lat="36.2288239543717" lon="-5.844854169495682"><ele>26.0</ele><time>2026-04-25T16:18:01.999Z</time></trkpt><trkpt lat="36.22869651587798" lon="-5.84510365573327"><ele>22.5</ele><time>2026-04-25T16:18:02.999Z</time></trkpt><trkpt lat="36.228558798562226" lon="-5.845348146793744"><ele>19.0</ele><time>2026-04-25T16:18:03.999Z</time></trkpt><trkpt lat="36.22840669225702" lon="-5.845581565157471"><ele>19.0</ele><time>2026-04-25T16:18:04.999Z</time></trkpt><trkpt lat="36.22824570195143" lon="-5.845808119373376"><ele>19.0</ele><time>2026-04-25T16:18:05.999Z</time></trkpt><trkpt lat="36.22806702032741" lon="-5.8460239706901636"><ele>18.0</ele><time>2026-04-25T16:18:06.999Z</time></trkpt><trkpt lat="36.22788080480192" lon="-5.84623374762771"><ele>17.0</ele><time>2026-04-25T16:18:07.999Z</time></trkpt><trkpt lat="36.22768304411577" lon="-5.846433231260324"><ele>17.0</ele><time>2026-04-25T16:18:08.999Z</time></trkpt><trkpt lat="36.2274813401877" lon="-5.846628168806631"><ele>17.0</ele><time>2026-04-25T16:18:09.999Z</time></trkpt><trkpt lat="36.22728045178737" lon="-5.846822395526065"><ele>15.5</ele><time>2026-04-25T16:18:10.999Z</time></trkpt><trkpt lat="36.22708682346567" lon="-5.84701045014839"><ele>14.0</ele><time>2026-04-25T16:18:11.999Z</time></trkpt><trkpt lat="36.226894354675885" lon="-5.847200223851006"><ele>14.0</ele><time>2026-04-25T16:18:12.999Z</time></trkpt><trkpt lat="36.226701666186926" lon="-5.847393969077157"><ele>14.0</ele><time>2026-04-25T16:18:13.999Z</time></trkpt><trkpt lat="36.22650670488103" lon="-5.84758240875194"><ele>13.0</ele><time>2026-04-25T16:18:14.999Z</time></trkpt><trkpt lat="36.226311897207474" lon="-5.847772145217883"><ele>12.0</ele><time>2026-04-25T16:18:15.999Z</time></trkpt><trkpt lat="36.226123839136214" lon="-5.847950975436357"><ele>12.0</ele><time>2026-04-25T16:18:16.999Z</time></trkpt><trkpt lat="36.225938753427606" lon="-5.848133090063861"><ele>12.0</ele><time>2026-04-25T16:18:17.999Z</time></trkpt><trkpt lat="36.22575455715928" lon="-5.848313180721575"><ele>11.5</ele><time>2026-04-25T16:18:18.999Z</time></trkpt><trkpt lat="36.22557221559795" lon="-5.848492559222761"><ele>11.0</ele><time>2026-04-25T16:18:19.999Z</time></trkpt><trkpt lat="36.2253902293723" lon="-5.848669338970515"><ele>11.0</ele><time>2026-04-25T16:18:20.999Z</time></trkpt><trkpt lat="36.22520366971883" lon="-5.848849772082802"><ele>11.0</ele><time>2026-04-25T16:18:21.999Z</time></trkpt><trkpt lat="36.22502162551668" lon="-5.849020712652331"><ele>11.0</ele><time>2026-04-25T16:18:22.999Z</time></trkpt><trkpt lat="36.224841450006195" lon="-5.849193106819016"><ele>11.0</ele><time>2026-04-25T16:18:23.999Z</time></trkpt><trkpt lat="36.2246618643717" lon="-5.849364907876113"><ele>11.0</ele><time>2026-04-25T16:18:24.999Z</time></trkpt><trkpt lat="36.224481817188966" lon="-5.849534809381358"><ele>11.0</ele><time>2026-04-25T16:18:25.999Z</time></trkpt><trkpt lat="36.224301127444164" lon="-5.849705821340855"><ele>11.0</ele><time>2026-04-25T16:18:26.999Z</time></trkpt><trkpt lat="36.22411863890278" lon="-5.849883773850623"><ele>11.0</ele><time>2026-04-25T16:18:27.999Z</time></trkpt><trkpt lat="36.223937693142894" lon="-5.850060757561797"><ele>9.5</ele><time>2026-04-25T16:18:28.999Z</time></trkpt><trkpt lat="36.22375424846646" lon="-5.850234743504084"><ele>8.0</ele><time>2026-04-25T16:18:29.998Z</time></trkpt><trkpt lat="36.22356694442153" lon="-5.850413565139266"><ele>8.0</ele><time>2026-04-25T16:18:30.998Z</time></trkpt><trkpt lat="36.22336768360518" lon="-5.8506050689722695"><ele>8.0</ele><time>2026-04-25T16:18:31.998Z</time></trkpt><trkpt lat="36.22314268338578" lon="-5.850822123880582"><ele>8.0</ele><time>2026-04-25T16:18:32.998Z</time></trkpt><trkpt lat="36.222897737296606" lon="-5.8510500024666605"><ele>8.0</ele><time>2026-04-25T16:18:33.998Z</time></trkpt><trkpt lat="36.222658247048045" lon="-5.851304737021635"><ele>8.0</ele><time>2026-04-25T16:18:34.998Z</time></trkpt><trkpt lat="36.222403599723414" lon="-5.8515520740329645"><ele>8.0</ele><time>2026-04-25T16:18:35.998Z</time></trkpt><trkpt lat="36.222157162538664" lon="-5.851792342530285"><ele>8.5</ele><time>2026-04-25T16:18:36.998Z</time></trkpt><trkpt lat="36.22192789719069" lon="-5.852016170016254"><ele>9.0</ele><time>2026-04-25T16:18:37.998Z</time></trkpt><trkpt lat="36.221711483666866" lon="-5.852208659339312"><ele>9.0</ele><time>2026-04-25T16:18:38.998Z</time></trkpt><trkpt lat="36.22150487324591" lon="-5.852414873617199"><ele>9.0</ele><time>2026-04-25T16:18:39.998Z</time></trkpt><trkpt lat="36.22131153921359" lon="-5.852605671940144"><ele>12.0</ele><time>2026-04-25T16:18:40.998Z</time></trkpt><trkpt lat="36.22113380175708" lon="-5.852788153264324"><ele>15.0</ele><time>2026-04-25T16:18:41.998Z</time></trkpt><trkpt lat="36.220971477612046" lon="-5.8529814562372176"><ele>15.0</ele><time>2026-04-25T16:18:42.998Z</time></trkpt><trkpt lat="36.22084358809248" lon="-5.85320981117955"><ele>15.0</ele><time>2026-04-25T16:18:43.998Z</time></trkpt><trkpt lat="36.22070668205073" lon="-5.853425037205574"><ele>15.0</ele><time>2026-04-25T16:18:44.998Z</time></trkpt><trkpt lat="36.22060216081316" lon="-5.853652787148412"><ele>15.666666666666668</ele><time>2026-04-25T16:18:45.998Z</time></trkpt><trkpt lat="36.22050146689458" lon="-5.8538795707632305"><ele>16.333333333333336</ele><time>2026-04-25T16:18:46.998Z</time></trkpt><trkpt lat="36.22039373157544" lon="-5.854101392908666"><ele>17.0</ele><time>2026-04-25T16:18:47.998Z</time></trkpt><trkpt lat="36.2202809055939" lon="-5.8543262260994595"><ele>17.0</ele><time>2026-04-25T16:18:48.998Z</time></trkpt><trkpt lat="36.2201708045606" lon="-5.854559752223031"><ele>17.0</ele><time>2026-04-25T16:18:49.998Z</time></trkpt><trkpt lat="36.22006296124009" lon="-5.8547880706875"><ele>17.0</ele><time>2026-04-25T16:18:51Z</time></trkpt><trkpt lat="36.21995454122747" lon="-5.855018740952934"><ele>16.666666666666668</ele><time>2026-04-25T16:18:52Z</time></trkpt><trkpt lat="36.21984237941816" lon="-5.855251106887244"><ele>16.333333333333332</ele><time>2026-04-25T16:18:53Z</time></trkpt><trkpt lat="36.219725592100644" lon="-5.855489990754391"><ele>16.0</ele><time>2026-04-25T16:18:54Z</time></trkpt><trkpt lat="36.21960172973129" lon="-5.855742503576183"><ele>15.0</ele><time>2026-04-25T16:18:55Z</time></trkpt><trkpt lat="36.219475863096775" lon="-5.8560058807461335"><ele>14.0</ele><time>2026-04-25T16:18:56Z</time></trkpt><trkpt lat="36.219350754031126" lon="-5.856276701124954"><ele>14.0</ele><time>2026-04-25T16:18:57Z</time></trkpt><trkpt lat="36.21922599015742" lon="-5.856552944766427"><ele>14.0</ele><time>2026-04-25T16:18:58Z</time></trkpt><trkpt lat="36.219098735412096" lon="-5.856837408976276"><ele>13.5</ele><time>2026-04-25T16:18:59Z</time></trkpt><trkpt lat="36.21897407620768" lon="-5.857122981584706"><ele>13.0</ele><time>2026-04-25T16:19:00Z</time></trkpt><trkpt lat="36.21885715553302" lon="-5.857418729743532"><ele>11.5</ele><time>2026-04-25T16:19:01Z</time></trkpt><trkpt lat="36.218755689657854" lon="-5.85772668126607"><ele>10.0</ele><time>2026-04-25T16:19:02Z</time></trkpt><trkpt lat="36.21867695212637" lon="-5.858045332162378"><ele>10.0</ele><time>2026-04-25T16:19:03Z</time></trkpt><trkpt lat="36.218610105078334" lon="-5.858359132378976"><ele>10.0</ele><time>2026-04-25T16:19:04Z</time></trkpt><trkpt lat="36.21855497844254" lon="-5.858674216056702"><ele>10.0</ele><time>2026-04-25T16:19:05Z</time></trkpt><trkpt lat="36.21851324450866" lon="-5.858992010647873"><ele>10.0</ele><time>2026-04-25T16:19:06Z</time></trkpt><trkpt lat="36.21848364524318" lon="-5.859313931582631"><ele>10.0</ele><time>2026-04-25T16:19:07Z</time></trkpt><trkpt lat="36.21846735282017" lon="-5.859634317463285"><ele>10.0</ele><time>2026-04-25T16:19:08Z</time></trkpt><trkpt lat="36.218470249340996" lon="-5.859956814847547"><ele>10.0</ele><time>2026-04-25T16:19:09Z</time></trkpt><trkpt lat="36.2184835808419" lon="-5.860276473659586"><ele>10.0</ele><time>2026-04-25T16:19:10Z</time></trkpt><trkpt lat="36.2185093746243" lon="-5.860593919573433"><ele>10.0</ele><time>2026-04-25T16:19:11Z</time></trkpt><trkpt lat="36.21854736995719" lon="-5.860901762202862"><ele>10.0</ele><time>2026-04-25T16:19:12Z</time></trkpt><trkpt lat="36.218598714475256" lon="-5.861203315466946"><ele>9.5</ele><time>2026-04-25T16:19:13Z</time></trkpt><trkpt lat="36.2186584477081" lon="-5.861497794212688"><ele>9.0</ele><time>2026-04-25T16:19:14Z</time></trkpt><trkpt lat="36.21873080329461" lon="-5.861785554707312"><ele>9.0</ele><time>2026-04-25T16:19:15Z</time></trkpt><trkpt lat="36.218807667067104" lon="-5.862075658440535"><ele>9.0</ele><time>2026-04-25T16:19:16Z</time></trkpt><trkpt lat="36.218885558615746" lon="-5.862371821377468"><ele>9.5</ele><time>2026-04-25T16:19:17Z</time></trkpt><trkpt lat="36.2189636363652" lon="-5.8626744861347495"><ele>10.0</ele><time>2026-04-25T16:19:18Z</time></trkpt><trkpt lat="36.2190416621949" lon="-5.862977786306043"><ele>10.0</ele><time>2026-04-25T16:19:19Z</time></trkpt><trkpt lat="36.21912136552624" lon="-5.863285875641857"><ele>10.0</ele><time>2026-04-25T16:19:20Z</time></trkpt><trkpt lat="36.21920523157206" lon="-5.863600258360444"><ele>11.0</ele><time>2026-04-25T16:19:21Z</time></trkpt><trkpt lat="36.21928985595867" lon="-5.863920924133914"><ele>12.0</ele><time>2026-04-25T16:19:22Z</time></trkpt><trkpt lat="36.219372023605345" lon="-5.864242559204972"><ele>13.5</ele><time>2026-04-25T16:19:23Z</time></trkpt><trkpt lat="36.21945492459768" lon="-5.86456590651406"><ele>15.0</ele><time>2026-04-25T16:19:24Z</time></trkpt><trkpt lat="36.21953876072497" lon="-5.864887630490177"><ele>17.5</ele><time>2026-04-25T16:19:25Z</time></trkpt><trkpt lat="36.21962257818605" lon="-5.865208985239243"><ele>20.0</ele><time>2026-04-25T16:19:26Z</time></trkpt><trkpt lat="36.219707338105344" lon="-5.86553515204459"><ele>20.0</ele><time>2026-04-25T16:19:27Z</time></trkpt><trkpt lat="36.219792423884556" lon="-5.865858032452726"><ele>20.0</ele><time>2026-04-25T16:19:28Z</time></trkpt><trkpt lat="36.21987226529893" lon="-5.866159062909999"><ele>21.0</ele><time>2026-04-25T16:19:29Z</time></trkpt><trkpt lat="36.21994543177674" lon="-5.866442143232604"><ele>22.0</ele><time>2026-04-25T16:19:30Z</time></trkpt><trkpt lat="36.22001634327603" lon="-5.86671525500232"><ele>22.0</ele><time>2026-04-25T16:19:31Z</time></trkpt><trkpt lat="36.22008638628141" lon="-5.866979155905175"><ele>22.0</ele><time>2026-04-25T16:19:32Z</time></trkpt><trkpt lat="36.220154937246456" lon="-5.867240738156562"><ele>22.0</ele><time>2026-04-25T16:19:32.999Z</time></trkpt><trkpt lat="36.220224982324254" lon="-5.8675141638895285"><ele>20.5</ele><time>2026-04-25T16:19:33.999Z</time></trkpt><trkpt lat="36.220295059112026" lon="-5.867798641421827"><ele>19.0</ele><time>2026-04-25T16:19:34.999Z</time></trkpt><trkpt lat="36.22036956963698" lon="-5.868097332247475"><ele>19.0</ele><time>2026-04-25T16:19:35.999Z</time></trkpt><trkpt lat="36.22045725049771" lon="-5.868431664897328"><ele>19.0</ele><time>2026-04-25T16:19:36.999Z</time></trkpt><trkpt lat="36.22054731686747" lon="-5.868788579003624"><ele>16.5</ele><time>2026-04-25T16:19:37.999Z</time></trkpt><trkpt lat="36.220636788848815" lon="-5.869152713296224"><ele>14.0</ele><time>2026-04-25T16:19:38.999Z</time></trkpt><trkpt lat="36.22074924036685" lon="-5.869525719911229"><ele>13.0</ele><time>2026-04-25T16:19:39.999Z</time></trkpt><trkpt lat="36.220851594454686" lon="-5.86991898844121"><ele>12.0</ele><time>2026-04-25T16:19:40.999Z</time></trkpt><trkpt lat="36.22095289862784" lon="-5.8703082231194665"><ele>12.0</ele><time>2026-04-25T16:19:41.999Z</time></trkpt><trkpt lat="36.221035143350925" lon="-5.870688929532321"><ele>12.0</ele><time>2026-04-25T16:19:42.999Z</time></trkpt><trkpt lat="36.22113115579589" lon="-5.871058159627638"><ele>10.5</ele><time>2026-04-25T16:19:43.999Z</time></trkpt><trkpt lat="36.22123532483904" lon="-5.871418812832953"><ele>9.0</ele><time>2026-04-25T16:19:44.999Z</time></trkpt><trkpt lat="36.22132920064786" lon="-5.871768366877119"><ele>9.0</ele><time>2026-04-25T16:19:45.999Z</time></trkpt><trkpt lat="36.221414747286154" lon="-5.872101640919831"><ele>9.0</ele><time>2026-04-25T16:19:46.999Z</time></trkpt><trkpt lat="36.22150436969897" lon="-5.872435533604838"><ele>8.5</ele><time>2026-04-25T16:19:47.999Z</time></trkpt><trkpt lat="36.22160666655217" lon="-5.87276227488575"><ele>8.0</ele><time>2026-04-25T16:19:48.999Z</time></trkpt><trkpt lat="36.22171361903021" lon="-5.87308782401589"><ele>8.0</ele><time>2026-04-25T16:19:49.999Z</time></trkpt><trkpt lat="36.221840394771895" lon="-5.873406248222502"><ele>8.0</ele><time>2026-04-25T16:19:50.999Z</time></trkpt><trkpt lat="36.22198266269798" lon="-5.87371990057951"><ele>9.0</ele><time>2026-04-25T16:19:51.999Z</time></trkpt><trkpt lat="36.22214269829355" lon="-5.87402512771746"><ele>10.0</ele><time>2026-04-25T16:19:52.999Z</time></trkpt><trkpt lat="36.22232060099574" lon="-5.87431322657148"><ele>11.5</ele><time>2026-04-25T16:19:53.999Z</time></trkpt><trkpt lat="36.22251836910173" lon="-5.874581808062427"><ele>13.0</ele><time>2026-04-25T16:19:54.999Z</time></trkpt><trkpt lat="36.22273606165624" lon="-5.874835545462911"><ele>13.0</ele><time>2026-04-25T16:19:55.999Z</time></trkpt><trkpt lat="36.22296054989621" lon="-5.87507948429753"><ele>13.0</ele><time>2026-04-25T16:19:56.999Z</time></trkpt><trkpt lat="36.22318798571495" lon="-5.8753177373606755"><ele>14.5</ele><time>2026-04-25T16:19:57.999Z</time></trkpt><trkpt lat="36.22340930498628" lon="-5.875557502372119"><ele>16.0</ele><time>2026-04-25T16:19:58.999Z</time></trkpt><trkpt lat="36.22363366228312" lon="-5.875794136603452"><ele>17.0</ele><time>2026-04-25T16:19:59.999Z</time></trkpt><trkpt lat="36.223866313851865" lon="-5.876021782148778"><ele>18.0</ele><time>2026-04-25T16:20:00.999Z</time></trkpt><trkpt lat="36.22410102995716" lon="-5.876246089825275"><ele>19.0</ele><time>2026-04-25T16:20:01.999Z</time></trkpt><trkpt lat="36.22429699304204" lon="-5.876501224873414"><ele>20.0</ele><time>2026-04-25T16:20:02.999Z</time></trkpt><trkpt lat="36.224517005871405" lon="-5.876734377018398"><ele>21.5</ele><time>2026-04-25T16:20:03.999Z</time></trkpt><trkpt lat="36.22473939106251" lon="-5.876963846390685"><ele>23.0</ele><time>2026-04-25T16:20:04.999Z</time></trkpt><trkpt lat="36.22496220811912" lon="-5.877193281370133"><ele>24.5</ele><time>2026-04-25T16:20:05.999Z</time></trkpt><trkpt lat="36.22518727531591" lon="-5.877425774648452"><ele>26.0</ele><time>2026-04-25T16:20:06.999Z</time></trkpt><trkpt lat="36.225411250409735" lon="-5.877661079638748"><ele>27.0</ele><time>2026-04-25T16:20:07.999Z</time></trkpt><trkpt lat="36.22562647473029" lon="-5.877905204261033"><ele>28.0</ele><time>2026-04-25T16:20:08.999Z</time></trkpt><trkpt lat="36.22584722313733" lon="-5.878139849793257"><ele>29.5</ele><time>2026-04-25T16:20:09.999Z</time></trkpt><trkpt lat="36.22606416077642" lon="-5.878371332531362"><ele>31.0</ele><time>2026-04-25T16:20:10.999Z</time></trkpt><trkpt lat="36.22628349858013" lon="-5.878602568107889"><ele>29.0</ele><time>2026-04-25T16:20:11.999Z</time></trkpt><trkpt lat="36.22650060447919" lon="-5.878831025255075"><ele>27.0</ele><time>2026-04-25T16:20:12.999Z</time></trkpt><trkpt lat="36.22671759330268" lon="-5.879057088108307"><ele>27.0</ele><time>2026-04-25T16:20:13.999Z</time></trkpt><trkpt lat="36.226931035892385" lon="-5.879279089666767"><ele>27.0</ele><time>2026-04-25T16:20:14.999Z</time></trkpt><trkpt lat="36.22714081811536" lon="-5.879505371246205"><ele>24.0</ele><time>2026-04-25T16:20:15.999Z</time></trkpt><trkpt lat="36.22735250783294" lon="-5.8797328620966445"><ele>21.0</ele><time>2026-04-25T16:20:16.999Z</time></trkpt><trkpt lat="36.22756541535568" lon="-5.879961516953379"><ele>22.0</ele><time>2026-04-25T16:20:17.999Z</time></trkpt><trkpt lat="36.227780726492306" lon="-5.880188163996402"><ele>23.0</ele><time>2026-04-25T16:20:18.999Z</time></trkpt><trkpt lat="36.22799666774527" lon="-5.880415118265262"><ele>19.5</ele><time>2026-04-25T16:20:19.999Z</time></trkpt><trkpt lat="36.22820967857771" lon="-5.8806441230278805"><ele>16.0</ele><time>2026-04-25T16:20:20.999Z</time></trkpt><trkpt lat="36.22842375098348" lon="-5.880875071563318"><ele>17.5</ele><time>2026-04-25T16:20:21.999Z</time></trkpt><trkpt lat="36.228648250161264" lon="-5.881112753651814"><ele>19.0</ele><time>2026-04-25T16:20:22.999Z</time></trkpt><trkpt lat="36.22885641951588" lon="-5.881325931228811"><ele>18.5</ele><time>2026-04-25T16:20:23.999Z</time></trkpt><trkpt lat="36.2290640581663" lon="-5.881550613436038"><ele>18.0</ele><time>2026-04-25T16:20:24.999Z</time></trkpt><trkpt lat="36.22927216555805" lon="-5.881770559575547"><ele>19.0</ele><time>2026-04-25T16:20:25.999Z</time></trkpt><trkpt lat="36.22948055780884" lon="-5.8819933782331635"><ele>20.0</ele><time>2026-04-25T16:20:26.999Z</time></trkpt><trkpt lat="36.229689954151254" lon="-5.882205378973899"><ele>18.5</ele><time>2026-04-25T16:20:27.999Z</time></trkpt><trkpt lat="36.229908370361315" lon="-5.882410102227057"><ele>17.0</ele><time>2026-04-25T16:20:28.999Z</time></trkpt><trkpt lat="36.230131030639136" lon="-5.882597257056214"><ele>17.0</ele><time>2026-04-25T16:20:29.999Z</time></trkpt><trkpt lat="36.23036199341602" lon="-5.882758040125867"><ele>17.0</ele><time>2026-04-25T16:20:30.999Z</time></trkpt><trkpt lat="36.23059656443905" lon="-5.882889988072986"><ele>16.0</ele><time>2026-04-25T16:20:31.999Z</time></trkpt><trkpt lat="36.23082924510777" lon="-5.883029973475628"><ele>15.0</ele><time>2026-04-25T16:20:32.999Z</time></trkpt><trkpt lat="36.23106157282273" lon="-5.883172189517103"><ele>15.0</ele><time>2026-04-25T16:20:33.999Z</time></trkpt><trkpt lat="36.23129142367732" lon="-5.883315083046758"><ele>15.0</ele><time>2026-04-25T16:20:34.998Z</time></trkpt><trkpt lat="36.231523598993476" lon="-5.883457461222095"><ele>15.0</ele><time>2026-04-25T16:20:35.998Z</time></trkpt><trkpt lat="36.23175007705976" lon="-5.883596115733325"><ele>15.0</ele><time>2026-04-25T16:20:36.998Z</time></trkpt><trkpt lat="36.23197867255546" lon="-5.883732731735465"><ele>15.0</ele><time>2026-04-25T16:20:37.998Z</time></trkpt><trkpt lat="36.232208139675365" lon="-5.8838735463788225"><ele>15.0</ele><time>2026-04-25T16:20:38.998Z</time></trkpt><trkpt lat="36.23243669850304" lon="-5.884009635685876"><ele>16.0</ele><time>2026-04-25T16:20:39.998Z</time></trkpt><trkpt lat="36.232663514001835" lon="-5.884146890846439"><ele>17.0</ele><time>2026-04-25T16:20:40.998Z</time></trkpt><trkpt lat="36.23288756054548" lon="-5.884278689852152"><ele>18.0</ele><time>2026-04-25T16:20:41.998Z</time></trkpt><trkpt lat="36.23311117540954" lon="-5.884417781413408"><ele>19.0</ele><time>2026-04-25T16:20:42.998Z</time></trkpt><trkpt lat="36.23333588283207" lon="-5.8845538095669765"><ele>19.0</ele><time>2026-04-25T16:20:43.998Z</time></trkpt><trkpt lat="36.23356070998796" lon="-5.884694586047107"><ele>19.0</ele><time>2026-04-25T16:20:44.998Z</time></trkpt><trkpt lat="36.2337855649107" lon="-5.884826807732329"><ele>20.5</ele><time>2026-04-25T16:20:45.998Z</time></trkpt><trkpt lat="36.23400450675176" lon="-5.884959698604817"><ele>22.0</ele><time>2026-04-25T16:20:46.998Z</time></trkpt><trkpt lat="36.23422580970175" lon="-5.885092406326487"><ele>23.0</ele><time>2026-04-25T16:20:47.998Z</time></trkpt><trkpt lat="36.23444989652582" lon="-5.885223749225105"><ele>24.0</ele><time>2026-04-25T16:20:48.998Z</time></trkpt><trkpt lat="36.23467244239411" lon="-5.885360326623067"><ele>24.0</ele><time>2026-04-25T16:20:49.998Z</time></trkpt><trkpt lat="36.23489374751677" lon="-5.885494271985247"><ele>24.0</ele><time>2026-04-25T16:20:50.998Z</time></trkpt><trkpt lat="36.23511806935492" lon="-5.885626047017245"><ele>24.0</ele><time>2026-04-25T16:20:51.998Z</time></trkpt><trkpt lat="36.235343561331355" lon="-5.885763796906661"><ele>24.0</ele><time>2026-04-25T16:20:52.998Z</time></trkpt><trkpt lat="36.23556914777678" lon="-5.885896355306424"><ele>26.5</ele><time>2026-04-25T16:20:53.998Z</time></trkpt><trkpt lat="36.235796585014064" lon="-5.886031501367241"><ele>29.0</ele><time>2026-04-25T16:20:54.998Z</time></trkpt><trkpt lat="36.23602437778976" lon="-5.886168732764917"><ele>29.0</ele><time>2026-04-25T16:20:55.998Z</time></trkpt><trkpt lat="36.23625115261455" lon="-5.886303283813144"><ele>29.0</ele><time>2026-04-25T16:20:57Z</time></trkpt><trkpt lat="36.236475321991" lon="-5.886438283070237"><ele>31.0</ele><time>2026-04-25T16:20:58Z</time></trkpt><trkpt lat="36.236699441918496" lon="-5.886573024173393"><ele>33.0</ele><time>2026-04-25T16:20:59Z</time></trkpt><trkpt lat="36.23692191926428" lon="-5.886700367290168"><ele>34.0</ele><time>2026-04-25T16:21:00Z</time></trkpt><trkpt lat="36.23714357767216" lon="-5.8868133740801944"><ele>35.0</ele><time>2026-04-25T16:21:01Z</time></trkpt><trkpt lat="36.23736554746724" lon="-5.886914788581157"><ele>37.5</ele><time>2026-04-25T16:21:02Z</time></trkpt><trkpt lat="36.23758913116975" lon="-5.886998052181027"><ele>40.0</ele><time>2026-04-25T16:21:03Z</time></trkpt><trkpt lat="36.237813531900905" lon="-5.88705926566807"><ele>40.0</ele><time>2026-04-25T16:21:04Z</time></trkpt><trkpt lat="36.238035024075224" lon="-5.887112851166692"><ele>40.0</ele><time>2026-04-25T16:21:05Z</time></trkpt><trkpt lat="36.23825648737851" lon="-5.887172650840712"><ele>42.0</ele><time>2026-04-25T16:21:06Z</time></trkpt><trkpt lat="36.23847537597568" lon="-5.887233298145524"><ele>44.0</ele><time>2026-04-25T16:21:07Z</time></trkpt><trkpt lat="36.23869570573614" lon="-5.887296321552904"><ele>44.0</ele><time>2026-04-25T16:21:08Z</time></trkpt><trkpt lat="36.23891780733633" lon="-5.887378184471774"><ele>44.0</ele><time>2026-04-25T16:21:09Z</time></trkpt><trkpt lat="36.23914106381933" lon="-5.887472511362835"><ele>45.0</ele><time>2026-04-25T16:21:10Z</time></trkpt><trkpt lat="36.239352127435" lon="-5.887583181357032"><ele>46.0</ele><time>2026-04-25T16:21:11Z</time></trkpt><trkpt lat="36.23956032375168" lon="-5.887714965660895"><ele>47.0</ele><time>2026-04-25T16:21:12Z</time></trkpt><trkpt lat="36.239764615918624" lon="-5.887864282430118"><ele>48.0</ele><time>2026-04-25T16:21:13Z</time></trkpt><trkpt lat="36.239964503841264" lon="-5.888024945318535"><ele>48.0</ele><time>2026-04-25T16:21:14Z</time></trkpt><trkpt lat="36.240157011406545" lon="-5.888199949659606"><ele>48.0</ele><time>2026-04-25T16:21:15Z</time></trkpt><trkpt lat="36.24034608564977" lon="-5.888387827018712"><ele>48.5</ele><time>2026-04-25T16:21:16Z</time></trkpt><trkpt lat="36.24053662869152" lon="-5.888604500768144"><ele>49.0</ele><time>2026-04-25T16:21:17Z</time></trkpt><trkpt lat="36.24072636560884" lon="-5.888846672005387"><ele>49.0</ele><time>2026-04-25T16:21:18Z</time></trkpt><trkpt lat="36.24092316230367" lon="-5.889102562499212"><ele>49.0</ele><time>2026-04-25T16:21:19Z</time></trkpt><trkpt lat="36.24111898203142" lon="-5.889353983767649"><ele>49.0</ele><time>2026-04-25T16:21:20Z</time></trkpt><trkpt lat="36.241319890716234" lon="-5.8896058131839695"><ele>49.0</ele><time>2026-04-25T16:21:21Z</time></trkpt><trkpt lat="36.24151640493148" lon="-5.889857172139233"><ele>49.5</ele><time>2026-04-25T16:21:22Z</time></trkpt><trkpt lat="36.24171486821606" lon="-5.890111499458876"><ele>50.0</ele><time>2026-04-25T16:21:23Z</time></trkpt><trkpt lat="36.24191392027543" lon="-5.890362973806398"><ele>50.0</ele><time>2026-04-25T16:21:24Z</time></trkpt><trkpt lat="36.2421096809458" lon="-5.890620512206895"><ele>50.0</ele><time>2026-04-25T16:21:25Z</time></trkpt><trkpt lat="36.242304084820994" lon="-5.8908759978390295"><ele>50.0</ele><time>2026-04-25T16:21:26Z</time></trkpt><trkpt lat="36.24249770865847" lon="-5.891128014297293"><ele>50.0</ele><time>2026-04-25T16:21:27Z</time></trkpt><trkpt lat="36.24269092423147" lon="-5.891374826638864"><ele>50.0</ele><time>2026-04-25T16:21:28Z</time></trkpt><trkpt lat="36.24287874317844" lon="-5.891619356196286"><ele>50.0</ele><time>2026-04-25T16:21:29Z</time></trkpt><trkpt lat="36.24306282988455" lon="-5.891860297269716"><ele>50.0</ele><time>2026-04-25T16:21:29.999Z</time></trkpt><trkpt lat="36.24324826662838" lon="-5.892097142900596"><ele>50.0</ele><time>2026-04-25T16:21:30.999Z</time></trkpt><trkpt lat="36.243434900752234" lon="-5.892334536437483"><ele>50.0</ele><time>2026-04-25T16:21:31.999Z</time></trkpt><trkpt lat="36.243629717668085" lon="-5.892569265829504"><ele>50.0</ele><time>2026-04-25T16:21:32.999Z</time></trkpt><trkpt lat="36.243815212929086" lon="-5.892803977052209"><ele>49.5</ele><time>2026-04-25T16:21:33.999Z</time></trkpt><trkpt lat="36.243988323835886" lon="-5.893027954129806"><ele>49.0</ele><time>2026-04-25T16:21:34.999Z</time></trkpt><trkpt lat="36.24415181533512" lon="-5.893257910962141"><ele>48.5</ele><time>2026-04-25T16:21:35.999Z</time></trkpt><trkpt lat="36.244324097975074" lon="-5.8934827887770265"><ele>48.0</ele><time>2026-04-25T16:21:36.999Z</time></trkpt><trkpt lat="36.24448610078942" lon="-5.8937086658210145"><ele>48.0</ele><time>2026-04-25T16:21:37.999Z</time></trkpt><trkpt lat="36.2446191195911" lon="-5.893943684342182"><ele>48.0</ele><time>2026-04-25T16:21:38.999Z</time></trkpt><trkpt lat="36.24472985824231" lon="-5.894201859242519"><ele>47.333333333333336</ele><time>2026-04-25T16:21:39.999Z</time></trkpt><trkpt lat="36.24480690047653" lon="-5.894462722284596"><ele>46.66666666666667</ele><time>2026-04-25T16:21:40.999Z</time></trkpt><trkpt lat="36.24485745850187" lon="-5.8947325582168775"><ele>46.0</ele><time>2026-04-25T16:21:41.999Z</time></trkpt><trkpt lat="36.24489710131025" lon="-5.895009222954125"><ele>46.0</ele><time>2026-04-25T16:21:42.999Z</time></trkpt><trkpt lat="36.244935763562836" lon="-5.895295350127962"><ele>46.0</ele><time>2026-04-25T16:21:43.999Z</time></trkpt><trkpt lat="36.24497334294692" lon="-5.895585014956161"><ele>46.0</ele><time>2026-04-25T16:21:44.999Z</time></trkpt><trkpt lat="36.245015748792454" lon="-5.8958811724461775"><ele>46.0</ele><time>2026-04-25T16:21:45.999Z</time></trkpt><trkpt lat="36.24506398257515" lon="-5.896186188423226"><ele>46.0</ele><time>2026-04-25T16:21:46.999Z</time></trkpt><trkpt lat="36.245113066562155" lon="-5.896498636031174"><ele>46.0</ele><time>2026-04-25T16:21:47.999Z</time></trkpt><trkpt lat="36.245157861077914" lon="-5.896813265480722"><ele>46.5</ele><time>2026-04-25T16:21:48.999Z</time></trkpt><trkpt lat="36.24520251956834" lon="-5.89712650697206"><ele>47.0</ele><time>2026-04-25T16:21:49.999Z</time></trkpt><trkpt lat="36.245246532049876" lon="-5.897443941892428"><ele>47.0</ele><time>2026-04-25T16:21:50.999Z</time></trkpt><trkpt lat="36.24529308259904" lon="-5.897758925647137"><ele>47.0</ele><time>2026-04-25T16:21:51.999Z</time></trkpt><trkpt lat="36.24533954856261" lon="-5.898075236582111"><ele>47.0</ele><time>2026-04-25T16:21:52.999Z</time></trkpt><trkpt lat="36.24538737451334" lon="-5.898391720178632"><ele>47.0</ele><time>2026-04-25T16:21:53.999Z</time></trkpt><trkpt lat="36.24543382519621" lon="-5.898711513833117"><ele>46.5</ele><time>2026-04-25T16:21:54.999Z</time></trkpt><trkpt lat="36.24548184997629" lon="-5.899036908701302"><ele>46.0</ele><time>2026-04-25T16:21:55.999Z</time></trkpt><trkpt lat="36.2455289608127" lon="-5.899359314678487"><ele>45.0</ele><time>2026-04-25T16:21:56.999Z</time></trkpt><trkpt lat="36.24557702273599" lon="-5.899684952677848"><ele>44.0</ele><time>2026-04-25T16:21:57.999Z</time></trkpt><trkpt lat="36.24562433436978" lon="-5.9000161132329065"><ele>45.5</ele><time>2026-04-25T16:21:58.999Z</time></trkpt><trkpt lat="36.24566907628424" lon="-5.900349155790087"><ele>47.0</ele><time>2026-04-25T16:21:59.999Z</time></trkpt><trkpt lat="36.24571304507915" lon="-5.900676063546185"><ele>47.0</ele><time>2026-04-25T16:22:00.999Z</time></trkpt><trkpt lat="36.24576159617576" lon="-5.901001077581492"><ele>47.0</ele><time>2026-04-25T16:22:01.999Z</time></trkpt><trkpt lat="36.24581150785378" lon="-5.901322424163055"><ele>47.0</ele><time>2026-04-25T16:22:02.999Z</time></trkpt><trkpt lat="36.24586067679427" lon="-5.901646285798076"><ele>47.0</ele><time>2026-04-25T16:22:03.999Z</time></trkpt><trkpt lat="36.24590814887669" lon="-5.901971895977344"><ele>47.0</ele><time>2026-04-25T16:22:04.999Z</time></trkpt><trkpt lat="36.24595578223555" lon="-5.902298370765841"><ele>47.0</ele><time>2026-04-25T16:22:05.999Z</time></trkpt><trkpt lat="36.24600726268913" lon="-5.902628992244541"><ele>47.0</ele><time>2026-04-25T16:22:06.999Z</time></trkpt><trkpt lat="36.24605784536017" lon="-5.902960019686961"><ele>47.0</ele><time>2026-04-25T16:22:07.999Z</time></trkpt><trkpt lat="36.24610923788985" lon="-5.903295523364888"><ele>46.5</ele><time>2026-04-25T16:22:08.999Z</time></trkpt><trkpt lat="36.24615921976783" lon="-5.903629691627479"><ele>46.0</ele><time>2026-04-25T16:22:09.999Z</time></trkpt><trkpt lat="36.24620838374162" lon="-5.903959761493819"><ele>49.5</ele><time>2026-04-25T16:22:10.999Z</time></trkpt><trkpt lat="36.24625826186439" lon="-5.9042944147904395"><ele>53.0</ele><time>2026-04-25T16:22:11.999Z</time></trkpt><trkpt lat="36.246315271938585" lon="-5.904619231645542"><ele>53.0</ele><time>2026-04-25T16:22:12.999Z</time></trkpt><trkpt lat="36.246363863786016" lon="-5.90495384331668"><ele>53.0</ele><time>2026-04-25T16:22:13.999Z</time></trkpt><trkpt lat="36.24641378251956" lon="-5.905287800744824"><ele>50.5</ele><time>2026-04-25T16:22:14.999Z</time></trkpt><trkpt lat="36.246465912778376" lon="-5.905618046016833"><ele>48.0</ele><time>2026-04-25T16:22:15.999Z</time></trkpt><trkpt lat="36.24651406331439" lon="-5.905955020632447"><ele>48.0</ele><time>2026-04-25T16:22:16.999Z</time></trkpt><trkpt lat="36.246564966973025" lon="-5.906285012522765"><ele>48.0</ele><time>2026-04-25T16:22:17.999Z</time></trkpt><trkpt lat="36.246613228902866" lon="-5.9066120021916095"><ele>47.5</ele><time>2026-04-25T16:22:18.999Z</time></trkpt><trkpt lat="36.24666143527579" lon="-5.906941069769104"><ele>47.0</ele><time>2026-04-25T16:22:19.999Z</time></trkpt><trkpt lat="36.24671022614436" lon="-5.9072633513429125"><ele>48.0</ele><time>2026-04-25T16:22:20.999Z</time></trkpt><trkpt lat="36.2467598059414" lon="-5.907577720579835"><ele>49.0</ele><time>2026-04-25T16:22:21.999Z</time></trkpt><trkpt lat="36.246808150966736" lon="-5.907895858398546"><ele>49.0</ele><time>2026-04-25T16:22:22.999Z</time></trkpt><trkpt lat="36.24685010148643" lon="-5.908214949340547"><ele>49.0</ele><time>2026-04-25T16:22:23.999Z</time></trkpt><trkpt lat="36.24689673129804" lon="-5.90853959240598"><ele>48.0</ele><time>2026-04-25T16:22:24.999Z</time></trkpt><trkpt lat="36.24695267297667" lon="-5.9088562920753365"><ele>47.0</ele><time>2026-04-25T16:22:25.999Z</time></trkpt><trkpt lat="36.24699594150552" lon="-5.9091705330987185"><ele>48.5</ele><time>2026-04-25T16:22:26.999Z</time></trkpt><trkpt lat="36.247040952114375" lon="-5.9094844741759545"><ele>50.0</ele><time>2026-04-25T16:22:27.999Z</time></trkpt><trkpt lat="36.2470900900469" lon="-5.909796275112485"><ele>47.0</ele><time>2026-04-25T16:22:28.999Z</time></trkpt><trkpt lat="36.24713768560625" lon="-5.910109761180711"><ele>44.0</ele><time>2026-04-25T16:22:29.999Z</time></trkpt><trkpt lat="36.247187495376245" lon="-5.9104240492943125"><ele>44.0</ele><time>2026-04-25T16:22:30.999Z</time></trkpt><trkpt lat="36.24723805173918" lon="-5.9107423727524555"><ele>44.0</ele><time>2026-04-25T16:22:31.999Z</time></trkpt><trkpt lat="36.24728351749009" lon="-5.91106049470997"><ele>44.0</ele><time>2026-04-25T16:22:32.999Z</time></trkpt><trkpt lat="36.24733174065988" lon="-5.911385753397472"><ele>44.0</ele><time>2026-04-25T16:22:33.999Z</time></trkpt><trkpt lat="36.24737816185506" lon="-5.911721992520559"><ele>43.0</ele><time>2026-04-25T16:22:34.999Z</time></trkpt><trkpt lat="36.24744057721277" lon="-5.912063375515829"><ele>42.0</ele><time>2026-04-25T16:22:35.999Z</time></trkpt><trkpt lat="36.24749636002706" lon="-5.9124302911054265"><ele>40.5</ele><time>2026-04-25T16:22:36.999Z</time></trkpt><trkpt lat="36.24755374724205" lon="-5.912807759762383"><ele>39.0</ele><time>2026-04-25T16:22:37.999Z</time></trkpt><trkpt lat="36.24761297990859" lon="-5.913197367034016"><ele>39.5</ele><time>2026-04-25T16:22:38.998Z</time></trkpt><trkpt lat="36.24766175284164" lon="-5.913598035241957"><ele>40.0</ele><time>2026-04-25T16:22:39.998Z</time></trkpt><trkpt lat="36.24773079932727" lon="-5.913989844702727"><ele>40.0</ele><time>2026-04-25T16:22:40.998Z</time></trkpt><trkpt lat="36.247787361931536" lon="-5.914384416425768"><ele>40.0</ele><time>2026-04-25T16:22:41.998Z</time></trkpt><trkpt lat="36.24784081556552" lon="-5.914773092915506"><ele>39.0</ele><time>2026-04-25T16:22:42.998Z</time></trkpt><trkpt lat="36.24789768308806" lon="-5.915142530842432"><ele>38.0</ele><time>2026-04-25T16:22:43.998Z</time></trkpt><trkpt lat="36.24795020835382" lon="-5.915509866697947"><ele>38.0</ele><time>2026-04-25T16:22:44.998Z</time></trkpt><trkpt lat="36.248003911833436" lon="-5.915863399171355"><ele>38.0</ele><time>2026-04-25T16:22:45.998Z</time></trkpt><trkpt lat="36.248058615081725" lon="-5.9162062232729475"><ele>37.5</ele><time>2026-04-25T16:22:46.998Z</time></trkpt><trkpt lat="36.248112951207744" lon="-5.916541502058966"><ele>37.0</ele><time>2026-04-25T16:22:47.998Z</time></trkpt><trkpt lat="36.24816426580367" lon="-5.9168784414149975"><ele>37.0</ele><time>2026-04-25T16:22:48.998Z</time></trkpt><trkpt lat="36.24821568809502" lon="-5.917214267260165"><ele>37.0</ele><time>2026-04-25T16:22:49.998Z</time></trkpt><trkpt lat="36.2482711128958" lon="-5.917548115278802"><ele>34.5</ele><time>2026-04-25T16:22:50.998Z</time></trkpt><trkpt lat="36.24833310147658" lon="-5.917882678150682"><ele>32.0</ele><time>2026-04-25T16:22:51.998Z</time></trkpt><trkpt lat="36.24840856701824" lon="-5.918216886167507"><ele>31.0</ele><time>2026-04-25T16:22:52.998Z</time></trkpt><trkpt lat="36.248490191473486" lon="-5.918550624696303"><ele>30.0</ele><time>2026-04-25T16:22:53.998Z</time></trkpt><trkpt lat="36.24857749333742" lon="-5.918883258186161"><ele>30.0</ele><time>2026-04-25T16:22:54.998Z</time></trkpt><trkpt lat="36.248663648572375" lon="-5.919210470894358"><ele>30.0</ele><time>2026-04-25T16:22:55.998Z</time></trkpt><trkpt lat="36.24874798046523" lon="-5.919528619737263"><ele>29.0</ele><time>2026-04-25T16:22:56.998Z</time></trkpt><trkpt lat="36.248833744770124" lon="-5.919849482346172"><ele>28.0</ele><time>2026-04-25T16:22:57.998Z</time></trkpt><trkpt lat="36.248915442907915" lon="-5.920168727398293"><ele>27.0</ele><time>2026-04-25T16:22:58.998Z</time></trkpt><trkpt lat="36.24900250114944" lon="-5.920487273259331"><ele>26.0</ele><time>2026-04-25T16:22:59.998Z</time></trkpt><trkpt lat="36.2490928094938" lon="-5.92080772321628"><ele>25.5</ele><time>2026-04-25T16:23:00.998Z</time></trkpt><trkpt lat="36.24918006815096" lon="-5.921129790482487"><ele>25.0</ele><time>2026-04-25T16:23:01.998Z</time></trkpt><trkpt lat="36.24926321755524" lon="-5.921449934970626"><ele>25.0</ele><time>2026-04-25T16:23:03Z</time></trkpt><trkpt lat="36.24934792882349" lon="-5.921768094828194"><ele>25.0</ele><time>2026-04-25T16:23:04Z</time></trkpt><trkpt lat="36.24943077574427" lon="-5.922085441473939"><ele>25.0</ele><time>2026-04-25T16:23:05Z</time></trkpt><trkpt lat="36.24951512022075" lon="-5.922398287853546"><ele>25.0</ele><time>2026-04-25T16:23:06Z</time></trkpt><trkpt lat="36.24959954762999" lon="-5.922711127844361"><ele>25.5</ele><time>2026-04-25T16:23:07Z</time></trkpt><trkpt lat="36.249683044688844" lon="-5.923029398015469"><ele>26.0</ele><time>2026-04-25T16:23:08Z</time></trkpt><trkpt lat="36.24976511521948" lon="-5.923349076256878"><ele>26.5</ele><time>2026-04-25T16:23:09Z</time></trkpt><trkpt lat="36.24984450866829" lon="-5.923669973369868"><ele>27.0</ele><time>2026-04-25T16:23:10Z</time></trkpt><trkpt lat="36.24992793163167" lon="-5.923989693900214"><ele>26.5</ele><time>2026-04-25T16:23:11Z</time></trkpt><trkpt lat="36.250012731591276" lon="-5.924306422910474"><ele>26.0</ele><time>2026-04-25T16:23:12Z</time></trkpt><trkpt lat="36.250097282657265" lon="-5.924620355888788"><ele>26.0</ele><time>2026-04-25T16:23:13Z</time></trkpt><trkpt lat="36.25018292222077" lon="-5.924934905190415"><ele>26.0</ele><time>2026-04-25T16:23:14Z</time></trkpt><trkpt lat="36.25026531296279" lon="-5.925246520004841"><ele>25.5</ele><time>2026-04-25T16:23:15Z</time></trkpt><trkpt lat="36.25035280731618" lon="-5.925558700110432"><ele>25.0</ele><time>2026-04-25T16:23:16Z</time></trkpt><trkpt lat="36.250441556754915" lon="-5.92587328692366"><ele>25.0</ele><time>2026-04-25T16:23:17Z</time></trkpt><trkpt lat="36.25052710739577" lon="-5.926195029191791"><ele>25.0</ele><time>2026-04-25T16:23:18Z</time></trkpt><trkpt lat="36.25060892158964" lon="-5.926517064307199"><ele>27.5</ele><time>2026-04-25T16:23:19Z</time></trkpt><trkpt lat="36.250690768221254" lon="-5.926838539600607"><ele>30.0</ele><time>2026-04-25T16:23:20Z</time></trkpt><trkpt lat="36.25077708929018" lon="-5.927162881363576"><ele>30.0</ele><time>2026-04-25T16:23:21Z</time></trkpt><trkpt lat="36.250863406021054" lon="-5.927489647068809"><ele>30.0</ele><time>2026-04-25T16:23:22Z</time></trkpt><trkpt lat="36.250950355431804" lon="-5.927819856143095"><ele>30.0</ele><time>2026-04-25T16:23:23Z</time></trkpt><trkpt lat="36.251042219869966" lon="-5.928149395144261"><ele>30.0</ele><time>2026-04-25T16:23:24Z</time></trkpt><trkpt lat="36.2511325401776" lon="-5.92848222673463"><ele>30.0</ele><time>2026-04-25T16:23:25Z</time></trkpt><trkpt lat="36.25122334065843" lon="-5.928819342032596"><ele>30.0</ele><time>2026-04-25T16:23:26Z</time></trkpt><trkpt lat="36.25130749584946" lon="-5.929162425860823"><ele>29.5</ele><time>2026-04-25T16:23:27Z</time></trkpt><trkpt lat="36.25139974113859" lon="-5.929503925216268"><ele>29.0</ele><time>2026-04-25T16:23:28Z</time></trkpt><trkpt lat="36.251479780795236" lon="-5.929850417416601"><ele>31.5</ele><time>2026-04-25T16:23:29Z</time></trkpt><trkpt lat="36.25156503747899" lon="-5.930191700761628"><ele>34.0</ele><time>2026-04-25T16:23:30Z</time></trkpt><trkpt lat="36.251652699778624" lon="-5.9305277666965575"><ele>34.0</ele><time>2026-04-25T16:23:31Z</time></trkpt><trkpt lat="36.25174416832802" lon="-5.930860838409421"><ele>34.0</ele><time>2026-04-25T16:23:32Z</time></trkpt><trkpt lat="36.25183651388839" lon="-5.931188797755046"><ele>35.0</ele><time>2026-04-25T16:23:33Z</time></trkpt><trkpt lat="36.25192737732907" lon="-5.931516002950469"><ele>36.0</ele><time>2026-04-25T16:23:34Z</time></trkpt><trkpt lat="36.25201571742552" lon="-5.931842265529712"><ele>37.5</ele><time>2026-04-25T16:23:35Z</time></trkpt><trkpt lat="36.25210389573224" lon="-5.932169634668265"><ele>39.0</ele><time>2026-04-25T16:23:36Z</time></trkpt><trkpt lat="36.252188855738815" lon="-5.932499556110315"><ele>40.0</ele><time>2026-04-25T16:23:37Z</time></trkpt><trkpt lat="36.25227421189666" lon="-5.932831196852853"><ele>41.0</ele><time>2026-04-25T16:23:38Z</time></trkpt><trkpt lat="36.25235823606866" lon="-5.933162533232156"><ele>43.0</ele><time>2026-04-25T16:23:39Z</time></trkpt><trkpt lat="36.25244116907823" lon="-5.933494394376118"><ele>45.0</ele><time>2026-04-25T16:23:40Z</time></trkpt><trkpt lat="36.25252883267726" lon="-5.93382436510858"><ele>45.0</ele><time>2026-04-25T16:23:41Z</time></trkpt><trkpt lat="36.25261663068138" lon="-5.9341548248068765"><ele>45.0</ele><time>2026-04-25T16:23:42Z</time></trkpt><trkpt lat="36.25270517542695" lon="-5.934482190258837"><ele>46.5</ele><time>2026-04-25T16:23:43Z</time></trkpt><trkpt lat="36.25279015635887" lon="-5.934810742895294"><ele>48.0</ele><time>2026-04-25T16:23:44Z</time></trkpt><trkpt lat="36.252876693071386" lon="-5.935139214156309"><ele>50.0</ele><time>2026-04-25T16:23:44.999Z</time></trkpt><trkpt lat="36.2529618748272" lon="-5.935466588251409"><ele>52.0</ele><time>2026-04-25T16:23:45.999Z</time></trkpt><trkpt lat="36.25303847078833" lon="-5.935782455653182"><ele>51.0</ele><time>2026-04-25T16:23:46.999Z</time></trkpt><trkpt lat="36.2531234576636" lon="-5.936089720714062"><ele>50.0</ele><time>2026-04-25T16:23:47.999Z</time></trkpt><trkpt lat="36.25321441624627" lon="-5.936402709115858"><ele>50.5</ele><time>2026-04-25T16:23:48.999Z</time></trkpt><trkpt lat="36.253302434498195" lon="-5.936725324604444"><ele>51.0</ele><time>2026-04-25T16:23:49.999Z</time></trkpt><trkpt lat="36.253388375460325" lon="-5.937055840563534"><ele>51.0</ele><time>2026-04-25T16:23:50.999Z</time></trkpt><trkpt lat="36.253474715028325" lon="-5.93738420707041"><ele>51.0</ele><time>2026-04-25T16:23:51.999Z</time></trkpt><trkpt lat="36.25356006945392" lon="-5.937713746083219"><ele>52.5</ele><time>2026-04-25T16:23:52.999Z</time></trkpt><trkpt lat="36.25364526572213" lon="-5.938038555048207"><ele>54.0</ele><time>2026-04-25T16:23:53.999Z</time></trkpt><trkpt lat="36.25373157416047" lon="-5.938364440450893"><ele>57.5</ele><time>2026-04-25T16:23:54.999Z</time></trkpt><trkpt lat="36.253817225574025" lon="-5.938686975373516"><ele>61.0</ele><time>2026-04-25T16:23:55.999Z</time></trkpt><trkpt lat="36.253900835249866" lon="-5.939008089449695"><ele>59.5</ele><time>2026-04-25T16:23:56.999Z</time></trkpt><trkpt lat="36.25398481555432" lon="-5.939326622913071"><ele>58.0</ele><time>2026-04-25T16:23:57.999Z</time></trkpt><trkpt lat="36.2540673731205" lon="-5.939645771848336"><ele>58.0</ele><time>2026-04-25T16:23:58.999Z</time></trkpt><trkpt lat="36.2541483271907" lon="-5.939957324551821"><ele>58.0</ele><time>2026-04-25T16:23:59.999Z</time></trkpt><trkpt lat="36.254232064620815" lon="-5.94026688519744"><ele>59.5</ele><time>2026-04-25T16:24:00.999Z</time></trkpt><trkpt lat="36.25431375008413" lon="-5.940575504230645"><ele>61.0</ele><time>2026-04-25T16:24:01.999Z</time></trkpt><trkpt lat="36.25439541743622" lon="-5.940885045190284"><ele>65.0</ele><time>2026-04-25T16:24:02.999Z</time></trkpt><trkpt lat="36.25447846935271" lon="-5.94119372021186"><ele>69.0</ele><time>2026-04-25T16:24:03.999Z</time></trkpt><trkpt lat="36.25455943574988" lon="-5.941502940110602"><ele>70.0</ele><time>2026-04-25T16:24:04.999Z</time></trkpt><trkpt lat="36.25464078963814" lon="-5.9418136455947375"><ele>71.0</ele><time>2026-04-25T16:24:05.999Z</time></trkpt><trkpt lat="36.254721526565454" lon="-5.942121027715702"><ele>67.5</ele><time>2026-04-25T16:24:06.999Z</time></trkpt><trkpt lat="36.25480566833258" lon="-5.94242303728531"><ele>64.0</ele><time>2026-04-25T16:24:07.999Z</time></trkpt><trkpt lat="36.25488381767674" lon="-5.942726534509598"><ele>64.0</ele><time>2026-04-25T16:24:08.999Z</time></trkpt><trkpt lat="36.25495431742584" lon="-5.9430336124129095"><ele>64.0</ele><time>2026-04-25T16:24:09.999Z</time></trkpt><trkpt lat="36.25502031441242" lon="-5.94334807857319"><ele>64.5</ele><time>2026-04-25T16:24:10.999Z</time></trkpt><trkpt lat="36.25507990537647" lon="-5.943656601407699"><ele>65.0</ele><time>2026-04-25T16:24:11.999Z</time></trkpt><trkpt lat="36.255129427596536" lon="-5.943951249261059"><ele>63.0</ele><time>2026-04-25T16:24:12.999Z</time></trkpt><trkpt lat="36.25517994322087" lon="-5.9442359848037265"><ele>61.0</ele><time>2026-04-25T16:24:13.999Z</time></trkpt><trkpt lat="36.25523632448786" lon="-5.944524074922281"><ele>61.0</ele><time>2026-04-25T16:24:14.999Z</time></trkpt><trkpt lat="36.2552939942165" lon="-5.944820945713544"><ele>61.0</ele><time>2026-04-25T16:24:15.999Z</time></trkpt><trkpt lat="36.255351215414905" lon="-5.945120059814534"><ele>54.0</ele><time>2026-04-25T16:24:16.999Z</time></trkpt><trkpt lat="36.2554043267851" lon="-5.945416413241625"><ele>47.0</ele><time>2026-04-25T16:24:17.999Z</time></trkpt><trkpt lat="36.25545736133613" lon="-5.945704333742325"><ele>43.0</ele><time>2026-04-25T16:24:18.999Z</time></trkpt><trkpt lat="36.25550526978991" lon="-5.945986335483658"><ele>39.0</ele><time>2026-04-25T16:24:19.999Z</time></trkpt><trkpt lat="36.255548929299174" lon="-5.946260599414689"><ele>39.0</ele><time>2026-04-25T16:24:20.999Z</time></trkpt><trkpt lat="36.25558882968769" lon="-5.946522546538863"><ele>39.0</ele><time>2026-04-25T16:24:21.999Z</time></trkpt><trkpt lat="36.25560999564571" lon="-5.946776928165329"><ele>39.0</ele><time>2026-04-25T16:24:22.999Z</time></trkpt><trkpt lat="36.2556028654953" lon="-5.947028442173616"><ele>37.333333333333336</ele><time>2026-04-25T16:24:23.999Z</time></trkpt><trkpt lat="36.255560618841116" lon="-5.947267757433356"><ele>35.66666666666667</ele><time>2026-04-25T16:24:24.999Z</time></trkpt><trkpt lat="36.25547556808387" lon="-5.947508590612859"><ele>34.0</ele><time>2026-04-25T16:24:25.999Z</time></trkpt><trkpt lat="36.25535132483884" lon="-5.947729406435667"><ele>33.5</ele><time>2026-04-25T16:24:26.999Z</time></trkpt><trkpt lat="36.25519504089702" lon="-5.947937146423169"><ele>33.0</ele><time>2026-04-25T16:24:27.999Z</time></trkpt><trkpt lat="36.25502692805026" lon="-5.948141936016734"><ele>33.0</ele><time>2026-04-25T16:24:28.999Z</time></trkpt><trkpt lat="36.25485695687219" lon="-5.9483565626322585"><ele>33.0</ele><time>2026-04-25T16:24:29.999Z</time></trkpt><trkpt lat="36.25468662914744" lon="-5.948572618036545"><ele>29.0</ele><time>2026-04-25T16:24:30.999Z</time></trkpt><trkpt lat="36.25451597407575" lon="-5.948784241137087"><ele>25.0</ele><time>2026-04-25T16:24:31.999Z</time></trkpt><trkpt lat="36.25434652764157" lon="-5.94899409802909"><ele>25.0</ele><time>2026-04-25T16:24:32.999Z</time></trkpt><trkpt lat="36.254176150444735" lon="-5.949205213557462"><ele>25.0</ele><time>2026-04-25T16:24:33.999Z</time></trkpt><trkpt lat="36.254004926042384" lon="-5.949415654123973"><ele>22.0</ele><time>2026-04-25T16:24:34.999Z</time></trkpt><trkpt lat="36.253833994272874" lon="-5.949624199710748"><ele>19.0</ele><time>2026-04-25T16:24:35.999Z</time></trkpt><trkpt lat="36.25366250532204" lon="-5.949835745576096"><ele>23.0</ele><time>2026-04-25T16:24:36.999Z</time></trkpt><trkpt lat="36.253490350037694" lon="-5.95004368038806"><ele>27.0</ele><time>2026-04-25T16:24:37.999Z</time></trkpt><trkpt lat="36.25331951154949" lon="-5.9502575996645595"><ele>27.0</ele><time>2026-04-25T16:24:38.999Z</time></trkpt><trkpt lat="36.253150054054" lon="-5.950473598782905"><ele>27.0</ele><time>2026-04-25T16:24:39.999Z</time></trkpt><trkpt lat="36.25297900207047" lon="-5.950684072964162"><ele>25.666666666666668</ele><time>2026-04-25T16:24:40.999Z</time></trkpt><trkpt lat="36.2528194961448" lon="-5.950878149998439"><ele>24.333333333333336</ele><time>2026-04-25T16:24:41.999Z</time></trkpt><trkpt lat="36.25266990363738" lon="-5.951057218991357"><ele>23.0</ele><time>2026-04-25T16:24:42.999Z</time></trkpt><trkpt lat="36.25253818363844" lon="-5.951221554760422"><ele>23.0</ele><time>2026-04-25T16:24:43.999Z</time></trkpt><trkpt lat="36.25241696932068" lon="-5.951393335006823"><ele>23.0</ele><time>2026-04-25T16:24:44.999Z</time></trkpt><trkpt lat="36.25231431388913" lon="-5.9515867473402535"><ele>23.0</ele><time>2026-04-25T16:24:45.999Z</time></trkpt><trkpt lat="36.252224004795885" lon="-5.9517618982720855"><ele>18.666666666666668</ele><time>2026-04-25T16:24:46.999Z</time></trkpt><trkpt lat="36.25215587366424" lon="-5.9519382967596695"><ele>14.333333333333334</ele><time>2026-04-25T16:24:47.999Z</time></trkpt><trkpt lat="36.25208938166193" lon="-5.952126203537536"><ele>10.0</ele><time>2026-04-25T16:24:48.999Z</time></trkpt><trkpt lat="36.25206090676997" lon="-5.952341344460767"><ele>8.0</ele><time>2026-04-25T16:24:49.999Z</time></trkpt><trkpt lat="36.25204809219867" lon="-5.952567067411048"><ele>6.0</ele><time>2026-04-25T16:24:50.999Z</time></trkpt><trkpt lat="36.25206190764212" lon="-5.952801769349665"><ele>4.0</ele><time>2026-04-25T16:24:51.999Z</time></trkpt><trkpt lat="36.25210540827944" lon="-5.9530257182668915"><ele>4.0</ele><time>2026-04-25T16:24:52.999Z</time></trkpt><trkpt lat="36.252175651734554" lon="-5.953244547191726"><ele>4.0</ele><time>2026-04-25T16:24:53.999Z</time></trkpt><trkpt lat="36.2522684436701" lon="-5.953449980014687"><ele>4.0</ele><time>2026-04-25T16:24:54.999Z</time></trkpt><trkpt lat="36.25237503429492" lon="-5.953631635798487"><ele>6.333333333333333</ele><time>2026-04-25T16:24:55.998Z</time></trkpt><trkpt lat="36.252505833930144" lon="-5.95379756205599"><ele>8.666666666666666</ele><time>2026-04-25T16:24:56.998Z</time></trkpt><trkpt lat="36.252646704240796" lon="-5.953949364700407"><ele>11.0</ele><time>2026-04-25T16:24:57.998Z</time></trkpt><trkpt lat="36.25279721669414" lon="-5.9540955713084625"><ele>11.333333333333332</ele><time>2026-04-25T16:24:58.998Z</time></trkpt><trkpt lat="36.25295118376696" lon="-5.9542469625464625"><ele>11.666666666666666</ele><time>2026-04-25T16:24:59.998Z</time></trkpt><trkpt lat="36.253110283135534" lon="-5.95440277675658"><ele>12.0</ele><time>2026-04-25T16:25:00.998Z</time></trkpt><trkpt lat="36.25327678465067" lon="-5.954564403890785"><ele>12.0</ele><time>2026-04-25T16:25:01.998Z</time></trkpt><trkpt lat="36.253445096726885" lon="-5.954731478896446"><ele>12.0</ele><time>2026-04-25T16:25:02.998Z</time></trkpt><trkpt lat="36.253615570052055" lon="-5.95490537599552"><ele>12.0</ele><time>2026-04-25T16:25:03.998Z</time></trkpt><trkpt lat="36.253793140039775" lon="-5.955079662366126"><ele>13.0</ele><time>2026-04-25T16:25:04.998Z</time></trkpt><trkpt lat="36.25397696729727" lon="-5.955253186718796"><ele>14.0</ele><time>2026-04-25T16:25:05.998Z</time></trkpt><trkpt lat="36.25416750362746" lon="-5.955429849864121"><ele>14.0</ele><time>2026-04-25T16:25:06.998Z</time></trkpt><trkpt lat="36.254361287694" lon="-5.955608227206527"><ele>14.0</ele><time>2026-04-25T16:25:07.998Z</time></trkpt><trkpt lat="36.25455994394382" lon="-5.955788172327472"><ele>13.5</ele><time>2026-04-25T16:25:09Z</time></trkpt><trkpt lat="36.25476368649548" lon="-5.955966235505996"><ele>13.0</ele><time>2026-04-25T16:25:10Z</time></trkpt><trkpt lat="36.25496815846903" lon="-5.956148378277804"><ele>13.0</ele><time>2026-04-25T16:25:11Z</time></trkpt><trkpt lat="36.25516940564622" lon="-5.9563316572652525"><ele>13.0</ele><time>2026-04-25T16:25:12Z</time></trkpt><trkpt lat="36.25536751510276" lon="-5.956514053594544"><ele>13.0</ele><time>2026-04-25T16:25:13Z</time></trkpt><trkpt lat="36.25556601630738" lon="-5.956688145583408"><ele>13.0</ele><time>2026-04-25T16:25:14Z</time></trkpt><trkpt lat="36.255766788093524" lon="-5.956853574620486"><ele>9.5</ele><time>2026-04-25T16:25:15Z</time></trkpt><trkpt lat="36.25597656691729" lon="-5.957001005701353"><ele>6.0</ele><time>2026-04-25T16:25:16Z</time></trkpt><trkpt lat="36.256196621710366" lon="-5.957131033164793"><ele>6.0</ele><time>2026-04-25T16:25:17Z</time></trkpt><trkpt lat="36.256405899708156" lon="-5.9572479829773695"><ele>6.0</ele><time>2026-04-25T16:25:18Z</time></trkpt><trkpt lat="36.2566016068128" lon="-5.957356615367334"><ele>6.0</ele><time>2026-04-25T16:25:19Z</time></trkpt><trkpt lat="36.25679607370072" lon="-5.9574686478906465"><ele>5.0</ele><time>2026-04-25T16:25:20Z</time></trkpt><trkpt lat="36.25699499100191" lon="-5.957577802827904"><ele>4.0</ele><time>2026-04-25T16:25:21Z</time></trkpt><trkpt lat="36.25719369980206" lon="-5.957694655953611"><ele>3.0</ele><time>2026-04-25T16:25:22Z</time></trkpt><trkpt lat="36.25738509061113" lon="-5.957814829772912"><ele>3.0</ele><time>2026-04-25T16:25:23Z</time></trkpt><trkpt lat="36.25757052854147" lon="-5.957936421854363"><ele>3.0</ele><time>2026-04-25T16:25:24Z</time></trkpt><trkpt lat="36.25775218401948" lon="-5.958073797988011"><ele>3.0</ele><time>2026-04-25T16:25:25Z</time></trkpt><trkpt lat="36.25792243107964" lon="-5.958233228460889"><ele>2.6666666666666665</ele><time>2026-04-25T16:25:26Z</time></trkpt><trkpt lat="36.25807897313982" lon="-5.958411995917713"><ele>2.333333333333333</ele><time>2026-04-25T16:25:27Z</time></trkpt><trkpt lat="36.25821187859412" lon="-5.958613262172203"><ele>2.0</ele><time>2026-04-25T16:25:28Z</time></trkpt><trkpt lat="36.25832756194711" lon="-5.95882643510555"><ele>2.0</ele><time>2026-04-25T16:25:29Z</time></trkpt><trkpt lat="36.258422642110034" lon="-5.959027169260719"><ele>2.0</ele><time>2026-04-25T16:25:30Z</time></trkpt><trkpt lat="36.25850576281412" lon="-5.95920208077366"><ele>2.0</ele><time>2026-04-25T16:25:31Z</time></trkpt><trkpt lat="36.25858823586703" lon="-5.959371871524013"><ele>2.75</ele><time>2026-04-25T16:25:32Z</time></trkpt><trkpt lat="36.258662959888085" lon="-5.959529980117815"><ele>3.5</ele><time>2026-04-25T16:25:33Z</time></trkpt><trkpt lat="36.258729070675116" lon="-5.9596672816756415"><ele>4.25</ele><time>2026-04-25T16:25:34Z</time></trkpt><trkpt lat="36.258788605908094" lon="-5.9597889047712425"><ele>5.0</ele><time>2026-04-25T16:25:35Z</time></trkpt><trkpt lat="36.25884135735951" lon="-5.9599002967251815"><ele>5.0</ele><time>2026-04-25T16:25:36Z</time></trkpt><trkpt lat="36.258887900411175" lon="-5.9599970180157715"><ele>5.0</ele><time>2026-04-25T16:25:37Z</time></trkpt><trkpt lat="36.25892674329751" lon="-5.9600859678732885"><ele>5.0</ele><time>2026-04-25T16:25:38Z</time></trkpt><trkpt lat="36.258978873332396" lon="-5.96015571922874"><ele>5.0</ele><time>2026-04-25T16:25:39Z</time></trkpt><trkpt lat="36.25902140823141" lon="-5.96024573471032"><ele>5.0</ele><time>2026-04-25T16:25:40Z</time></trkpt><trkpt lat="36.25906583552541" lon="-5.9603384287482974"><ele>5.0</ele><time>2026-04-25T16:25:41Z</time></trkpt><trkpt lat="36.25910718736034" lon="-5.960432693147655"><ele>5.5</ele><time>2026-04-25T16:25:42Z</time></trkpt><trkpt lat="36.25913680637531" lon="-5.960513202751641"><ele>6.0</ele><time>2026-04-25T16:25:43Z</time></trkpt><trkpt lat="36.25916245773389" lon="-5.9605863967865815"><ele>6.5</ele><time>2026-04-25T16:25:44Z</time></trkpt><trkpt lat="36.25920416182768" lon="-5.960657606647696"><ele>7.0</ele><time>2026-04-25T16:25:46Z</time></trkpt><trkpt lat="36.259264407227455" lon="-5.960737086637744"><ele>7.499999999999999</ele><time>2026-04-25T16:25:50Z</time></trkpt><trkpt lat="36.25931699426465" lon="-5.960796034521918"><ele>8.0</ele><time>2026-04-25T16:25:51Z</time></trkpt><trkpt lat="36.25936334737188" lon="-5.960887806243467"><ele>8.75</ele><time>2026-04-25T16:25:52Z</time></trkpt><trkpt lat="36.259402083530354" lon="-5.961002422639294"><ele>9.5</ele><time>2026-04-25T16:25:53Z</time></trkpt><trkpt lat="36.2595019502816" lon="-5.961059010617299"><ele>10.25</ele><time>2026-04-25T16:25:53.999Z</time></trkpt><trkpt lat="36.25953751713143" lon="-5.961248128175359"><ele>11.0</ele><time>2026-04-25T16:25:54.999Z</time></trkpt><trkpt lat="36.259652215835686" lon="-5.96137470615314"><ele>11.0</ele><time>2026-04-25T16:25:55.999Z</time></trkpt><trkpt lat="36.259772611589696" lon="-5.96148810656072"><ele>11.0</ele><time>2026-04-25T16:25:56.999Z</time></trkpt><trkpt lat="36.25987694692979" lon="-5.9615796312850735"><ele>11.0</ele><time>2026-04-25T16:25:57.999Z</time></trkpt><trkpt lat="36.259985870045966" lon="-5.961670260417362"><ele>11.0</ele><time>2026-04-25T16:25:58.999Z</time></trkpt><trkpt lat="36.26009900107101" lon="-5.961769402865545"><ele>13.5</ele><time>2026-04-25T16:25:59.999Z</time></trkpt><trkpt lat="36.26021729220058" lon="-5.961867351024748"><ele>16.0</ele><time>2026-04-25T16:26:00.999Z</time></trkpt><trkpt lat="36.26033633191071" lon="-5.961955029583608"><ele>18.5</ele><time>2026-04-25T16:26:01.999Z</time></trkpt><trkpt lat="36.26045909446924" lon="-5.9620523785720625"><ele>21.0</ele><time>2026-04-25T16:26:02.999Z</time></trkpt><trkpt lat="36.26057419969998" lon="-5.962180350305648"><ele>18.666666666666668</ele><time>2026-04-25T16:26:03.999Z</time></trkpt><trkpt lat="36.26066331580645" lon="-5.962331179377344"><ele>16.333333333333336</ele><time>2026-04-25T16:26:04.999Z</time></trkpt><trkpt lat="36.26072879353782" lon="-5.962493744263565"><ele>14.0</ele><time>2026-04-25T16:26:05.999Z</time></trkpt><trkpt lat="36.26076572808949" lon="-5.96268551758841"><ele>14.0</ele><time>2026-04-25T16:26:06.999Z</time></trkpt><trkpt lat="36.260794818409" lon="-5.962862141092774"><ele>14.0</ele><time>2026-04-25T16:26:07.999Z</time></trkpt><trkpt lat="36.260803469334114" lon="-5.9630398203742"><ele>14.0</ele><time>2026-04-25T16:26:08.999Z</time></trkpt><trkpt lat="36.260802649565605" lon="-5.963218756842824"><ele>14.0</ele><time>2026-04-25T16:26:09.999Z</time></trkpt><trkpt lat="36.26079889562103" lon="-5.96338794646168"><ele>14.2</ele><time>2026-04-25T16:26:10.999Z</time></trkpt><trkpt lat="36.26079680330911" lon="-5.963533386151423"><ele>14.399999999999999</ele><time>2026-04-25T16:26:11.999Z</time></trkpt><trkpt lat="36.26080310568626" lon="-5.963660613479192"><ele>14.6</ele><time>2026-04-25T16:26:12.999Z</time></trkpt><trkpt lat="36.26080845317426" lon="-5.963793874297633"><ele>14.8</ele><time>2026-04-25T16:26:13.999Z</time></trkpt><trkpt lat="36.260813714184124" lon="-5.96391128384347"><ele>15.0</ele><time>2026-04-25T16:26:14.999Z</time></trkpt><trkpt lat="36.260821204796194" lon="-5.964022027385207"><ele>15.0</ele><time>2026-04-25T16:26:15.999Z</time></trkpt><trkpt lat="36.26082713028403" lon="-5.964130525052818"><ele>15.0</ele><time>2026-04-25T16:26:16.999Z</time></trkpt><trkpt lat="36.26083453000919" lon="-5.9642466634460405"><ele>15.0</ele><time>2026-04-25T16:26:17.999Z</time></trkpt><trkpt lat="36.26083625609889" lon="-5.964376994426726"><ele>15.0</ele><time>2026-04-25T16:26:18.999Z</time></trkpt><trkpt lat="36.260841250082535" lon="-5.964508978707309"><ele>15.0</ele><time>2026-04-25T16:26:19.999Z</time></trkpt><trkpt lat="36.26085023498076" lon="-5.964621604458225"><ele>15.166666666666666</ele><time>2026-04-25T16:26:20.999Z</time></trkpt><trkpt lat="36.260863178526606" lon="-5.964712544881017"><ele>15.333333333333332</ele><time>2026-04-25T16:26:21.999Z</time></trkpt><trkpt lat="36.26088448582751" lon="-5.964807986115241"><ele>15.5</ele><time>2026-04-25T16:26:22.999Z</time></trkpt><trkpt lat="36.260901139766155" lon="-5.964909154429039"><ele>15.666666666666666</ele><time>2026-04-25T16:26:23.999Z</time></trkpt><trkpt lat="36.260911774210214" lon="-5.965021042213105"><ele>15.833333333333332</ele><time>2026-04-25T16:26:24.999Z</time></trkpt><trkpt lat="36.26092770101746" lon="-5.965154760033799"><ele>16.0</ele><time>2026-04-25T16:26:25.999Z</time></trkpt><trkpt lat="36.26094521594897" lon="-5.965297932449155"><ele>16.0</ele><time>2026-04-25T16:26:26.999Z</time></trkpt><trkpt lat="36.26095359782132" lon="-5.9654359027779895"><ele>16.0</ele><time>2026-04-25T16:26:27.999Z</time></trkpt><trkpt lat="36.26097323449686" lon="-5.965557866140621"><ele>16.0</ele><time>2026-04-25T16:26:28.999Z</time></trkpt><trkpt lat="36.26097387206466" lon="-5.965680227274506"><ele>16.0</ele><time>2026-04-25T16:26:29.999Z</time></trkpt><trkpt lat="36.2609701711371" lon="-5.9658110740941686"><ele>16.0</ele><time>2026-04-25T16:26:30.999Z</time></trkpt><trkpt lat="36.26096484430862" lon="-5.96595000308352"><ele>17.0</ele><time>2026-04-25T16:26:31.999Z</time></trkpt><trkpt lat="36.26095788125928" lon="-5.966095155853152"><ele>18.0</ele><time>2026-04-25T16:26:32.999Z</time></trkpt><trkpt lat="36.2609490500437" lon="-5.966259214128994"><ele>19.0</ele><time>2026-04-25T16:26:33.999Z</time></trkpt><trkpt lat="36.26093788518774" lon="-5.9664489232034335"><ele>20.0</ele><time>2026-04-25T16:26:34.999Z</time></trkpt><trkpt lat="36.26092326505188" lon="-5.966653669483696"><ele>19.666666666666668</ele><time>2026-04-25T16:26:35.999Z</time></trkpt><trkpt lat="36.26090871234486" lon="-5.966869821754289"><ele>19.333333333333332</ele><time>2026-04-25T16:26:36.999Z</time></trkpt><trkpt lat="36.26089485877804" lon="-5.967089358856147"><ele>19.0</ele><time>2026-04-25T16:26:37.999Z</time></trkpt><trkpt lat="36.260879999060734" lon="-5.967310877556319"><ele>19.0</ele><time>2026-04-25T16:26:38.999Z</time></trkpt><trkpt lat="36.260865504049" lon="-5.967512914448601"><ele>19.0</ele><time>2026-04-25T16:26:39.999Z</time></trkpt><trkpt lat="36.260851318836366" lon="-5.967710913901709"><ele>19.0</ele><time>2026-04-25T16:26:40.999Z</time></trkpt><trkpt lat="36.26082143592656" lon="-5.967913504257336"><ele>19.333333333333332</ele><time>2026-04-25T16:26:41.999Z</time></trkpt><trkpt lat="36.26081258876577" lon="-5.968114805729784"><ele>19.666666666666668</ele><time>2026-04-25T16:26:42.999Z</time></trkpt><trkpt lat="36.26080628131701" lon="-5.968313940088256"><ele>20.0</ele><time>2026-04-25T16:26:43.999Z</time></trkpt><trkpt lat="36.26079145884223" lon="-5.968490056300582"><ele>20.0</ele><time>2026-04-25T16:26:44.999Z</time></trkpt><trkpt lat="36.260781653899805" lon="-5.968648189711089"><ele>20.0</ele><time>2026-04-25T16:26:45.999Z</time></trkpt><trkpt lat="36.260769036830304" lon="-5.968808709350509"><ele>20.0</ele><time>2026-04-25T16:26:46.999Z</time></trkpt><trkpt lat="36.260752989794604" lon="-5.968972202467683"><ele>20.0</ele><time>2026-04-25T16:26:47.999Z</time></trkpt><trkpt lat="36.26074194020265" lon="-5.969121735476865"><ele>19.5</ele><time>2026-04-25T16:26:48.999Z</time></trkpt><trkpt lat="36.260733186749" lon="-5.9692678111610595"><ele>19.0</ele><time>2026-04-25T16:26:49.999Z</time></trkpt><trkpt lat="36.26072114524828" lon="-5.969420577439693"><ele>18.5</ele><time>2026-04-25T16:26:50.999Z</time></trkpt><trkpt lat="36.26071049219858" lon="-5.969577838367471"><ele>18.0</ele><time>2026-04-25T16:26:51.999Z</time></trkpt><trkpt lat="36.260697835704484" lon="-5.969735018427021"><ele>18.0</ele><time>2026-04-25T16:26:52.999Z</time></trkpt><trkpt lat="36.26068954701527" lon="-5.969888501462234"><ele>18.0</ele><time>2026-04-25T16:26:53.999Z</time></trkpt><trkpt lat="36.26068117921249" lon="-5.970043502623687"><ele>18.0</ele><time>2026-04-25T16:26:54.999Z</time></trkpt><trkpt lat="36.260671668549186" lon="-5.970207500370947"><ele>18.0</ele><time>2026-04-25T16:26:55.999Z</time></trkpt><trkpt lat="36.26065699025495" lon="-5.970385053398061"><ele>17.666666666666668</ele><time>2026-04-25T16:26:56.999Z</time></trkpt><trkpt lat="36.260642956520336" lon="-5.970582381687688"><ele>17.333333333333336</ele><time>2026-04-25T16:26:57.999Z</time></trkpt><trkpt lat="36.26063172398264" lon="-5.97079453986506"><ele>17.0</ele><time>2026-04-25T16:26:58.999Z</time></trkpt><trkpt lat="36.26061654182536" lon="-5.971009142896812"><ele>19.666666666666668</ele><time>2026-04-25T16:26:59.999Z</time></trkpt><trkpt lat="36.26060119828255" lon="-5.971206400470567"><ele>22.333333333333336</ele><time>2026-04-25T16:27:00.999Z</time></trkpt><trkpt lat="36.260588094152105" lon="-5.971403150648991"><ele>25.0</ele><time>2026-04-25T16:27:01.999Z</time></trkpt><trkpt lat="36.26057219171149" lon="-5.971612605435485"><ele>24.666666666666668</ele><time>2026-04-25T16:27:02.999Z</time></trkpt><trkpt lat="36.26055314773709" lon="-5.9718141630364165"><ele>24.333333333333336</ele><time>2026-04-25T16:27:03.999Z</time></trkpt><trkpt lat="36.26053520172978" lon="-5.972025983078412"><ele>24.0</ele><time>2026-04-25T16:27:04.999Z</time></trkpt><trkpt lat="36.260512609541145" lon="-5.972234749951844"><ele>24.0</ele><time>2026-04-25T16:27:05.999Z</time></trkpt><trkpt lat="36.26048635012595" lon="-5.972436415798455"><ele>24.0</ele><time>2026-04-25T16:27:06.998Z</time></trkpt><trkpt lat="36.26045990947848" lon="-5.9726272432327105"><ele>24.0</ele><time>2026-04-25T16:27:07.998Z</time></trkpt><trkpt lat="36.26042206983105" lon="-5.972812033429641"><ele>24.5</ele><time>2026-04-25T16:27:08.998Z</time></trkpt><trkpt lat="36.26037931909148" lon="-5.972985112737684"><ele>25.0</ele><time>2026-04-25T16:27:09.998Z</time></trkpt><trkpt lat="36.26033541462241" lon="-5.973147644143929"><ele>25.5</ele><time>2026-04-25T16:27:10.998Z</time></trkpt><trkpt lat="36.26029360778541" lon="-5.973302321027526"><ele>26.0</ele><time>2026-04-25T16:27:11.998Z</time></trkpt><trkpt lat="36.260254078124326" lon="-5.9734386419341465"><ele>24.400000000000002</ele><time>2026-04-25T16:27:12.998Z</time></trkpt><trkpt lat="36.260216117549525" lon="-5.973565832386074"><ele>22.8</ele><time>2026-04-25T16:27:13.998Z</time></trkpt><trkpt lat="36.26017479209997" lon="-5.973688770621718"><ele>21.200000000000003</ele><time>2026-04-25T16:27:15Z</time></trkpt><trkpt lat="36.26013479944524" lon="-5.973817797674925"><ele>19.6</ele><time>2026-04-25T16:27:16Z</time></trkpt><trkpt lat="36.260079202555886" lon="-5.973949698907522"><ele>18.0</ele><time>2026-04-25T16:27:17Z</time></trkpt><trkpt lat="36.26002361621624" lon="-5.974074280134145"><ele>17.5</ele><time>2026-04-25T16:27:18Z</time></trkpt><trkpt lat="36.259954178762506" lon="-5.974221378048124"><ele>17.0</ele><time>2026-04-25T16:27:19Z</time></trkpt><trkpt lat="36.2598795485071" lon="-5.974373153354762"><ele>16.5</ele><time>2026-04-25T16:27:20Z</time></trkpt><trkpt lat="36.259811841616234" lon="-5.97450905958387"><ele>16.0</ele><time>2026-04-25T16:27:21Z</time></trkpt><trkpt lat="36.259735274272565" lon="-5.974644361890005"><ele>16.75</ele><time>2026-04-25T16:27:22Z</time></trkpt><trkpt lat="36.259649681019944" lon="-5.974783120924967"><ele>17.5</ele><time>2026-04-25T16:27:23Z</time></trkpt><trkpt lat="36.25956097357004" lon="-5.9749158104916145"><ele>18.25</ele><time>2026-04-25T16:27:24Z</time></trkpt><trkpt lat="36.259466003586354" lon="-5.975048831229114"><ele>19.0</ele><time>2026-04-25T16:27:25Z</time></trkpt><trkpt lat="36.259368087713064" lon="-5.975181386327813"><ele>19.0</ele><time>2026-04-25T16:27:26Z</time></trkpt><trkpt lat="36.259265403967696" lon="-5.975315367462919"><ele>19.0</ele><time>2026-04-25T16:27:27Z</time></trkpt><trkpt lat="36.25915373272017" lon="-5.975440222111207"><ele>19.0</ele><time>2026-04-25T16:27:28Z</time></trkpt><trkpt lat="36.259046038759045" lon="-5.975555937477785"><ele>19.0</ele><time>2026-04-25T16:27:29Z</time></trkpt><trkpt lat="36.25893445138837" lon="-5.975675202807641"><ele>19.333333333333332</ele><time>2026-04-25T16:27:30Z</time></trkpt><trkpt lat="36.25882118919147" lon="-5.975794325714839"><ele>19.666666666666668</ele><time>2026-04-25T16:27:31Z</time></trkpt><trkpt lat="36.2587125206838" lon="-5.975919013557081"><ele>20.0</ele><time>2026-04-25T16:27:32Z</time></trkpt><trkpt lat="36.25860002398654" lon="-5.976051993659299"><ele>20.0</ele><time>2026-04-25T16:27:33Z</time></trkpt><trkpt lat="36.25848643720014" lon="-5.976190516491037"><ele>20.0</ele><time>2026-04-25T16:27:34Z</time></trkpt><trkpt lat="36.25837405576748" lon="-5.976340056750616"><ele>20.0</ele><time>2026-04-25T16:27:35Z</time></trkpt><trkpt lat="36.25824994364101" lon="-5.9765072955054235"><ele>20.0</ele><time>2026-04-25T16:27:36Z</time></trkpt><trkpt lat="36.25812890594546" lon="-5.976667795249132"><ele>20.0</ele><time>2026-04-25T16:27:37Z</time></trkpt><trkpt lat="36.25801070411437" lon="-5.976819286796214"><ele>20.0</ele><time>2026-04-25T16:27:38Z</time></trkpt><trkpt lat="36.257885359324064" lon="-5.97698208477601"><ele>21.333333333333336</ele><time>2026-04-25T16:27:39Z</time></trkpt><trkpt lat="36.25775338377577" lon="-5.977150311713551"><ele>22.666666666666668</ele><time>2026-04-25T16:27:40Z</time></trkpt><trkpt lat="36.25761136234208" lon="-5.977331376552762"><ele>24.0</ele><time>2026-04-25T16:27:41Z</time></trkpt><trkpt lat="36.257465647937565" lon="-5.977517186254194"><ele>23.0</ele><time>2026-04-25T16:27:42Z</time></trkpt><trkpt lat="36.257325119078025" lon="-5.977694263652"><ele>22.0</ele><time>2026-04-25T16:27:43Z</time></trkpt><trkpt lat="36.257185624004855" lon="-5.977868416534843"><ele>21.0</ele><time>2026-04-25T16:27:44Z</time></trkpt><trkpt lat="36.257042351476336" lon="-5.978046822250447"><ele>21.0</ele><time>2026-04-25T16:27:45Z</time></trkpt><trkpt lat="36.25689227219886" lon="-5.978234539577222"><ele>21.0</ele><time>2026-04-25T16:27:46Z</time></trkpt><trkpt lat="36.25674177245252" lon="-5.978423351037181"><ele>21.0</ele><time>2026-04-25T16:27:47Z</time></trkpt><trkpt lat="36.256593673202815" lon="-5.978609861222046"><ele>21.333333333333332</ele><time>2026-04-25T16:27:48Z</time></trkpt><trkpt lat="36.25645671594162" lon="-5.978785420663035"><ele>21.666666666666664</ele><time>2026-04-25T16:27:49Z</time></trkpt><trkpt lat="36.256317358148145" lon="-5.978966211652468"><ele>22.0</ele><time>2026-04-25T16:27:50Z</time></trkpt><trkpt lat="36.256177379510525" lon="-5.979155271518335"><ele>20.666666666666664</ele><time>2026-04-25T16:27:51Z</time></trkpt><trkpt lat="36.256035827818614" lon="-5.9793545305048275"><ele>19.333333333333332</ele><time>2026-04-25T16:27:52Z</time></trkpt><trkpt lat="36.25589549929914" lon="-5.97955391067231"><ele>18.0</ele><time>2026-04-25T16:27:53Z</time></trkpt><trkpt lat="36.255751500937826" lon="-5.97976502780704"><ele>19.5</ele><time>2026-04-25T16:27:54Z</time></trkpt><trkpt lat="36.25560837961424" lon="-5.979986461841698"><ele>21.0</ele><time>2026-04-25T16:27:55Z</time></trkpt><trkpt lat="36.255460741822645" lon="-5.9802409819832905"><ele>21.0</ele><time>2026-04-25T16:27:56Z</time></trkpt><trkpt lat="36.25531074405647" lon="-5.980518683905408"><ele>21.0</ele><time>2026-04-25T16:27:57Z</time></trkpt><trkpt lat="36.25516090112116" lon="-5.980816891206065"><ele>22.0</ele><time>2026-04-25T16:27:58Z</time></trkpt><trkpt lat="36.25500998959848" lon="-5.981127650111384"><ele>23.0</ele><time>2026-04-25T16:27:59Z</time></trkpt><trkpt lat="36.25487192925529" lon="-5.9814410400779074"><ele>24.0</ele><time>2026-04-25T16:28:00Z</time></trkpt><trkpt lat="36.2547383842964" lon="-5.981760149389852"><ele>25.0</ele><time>2026-04-25T16:28:01Z</time></trkpt><trkpt lat="36.254613212298054" lon="-5.982080149492515"><ele>25.0</ele><time>2026-04-25T16:28:02Z</time></trkpt><trkpt lat="36.25450723411676" lon="-5.982393641990571"><ele>25.0</ele><time>2026-04-25T16:28:03Z</time></trkpt><trkpt lat="36.25440919180784" lon="-5.982693287864595"><ele>30.0</ele><time>2026-04-25T16:28:04Z</time></trkpt><trkpt lat="36.25432110448727" lon="-5.982997743350525"><ele>35.0</ele><time>2026-04-25T16:28:05Z</time></trkpt><trkpt lat="36.254240896732775" lon="-5.983300072713039"><ele>34.0</ele><time>2026-04-25T16:28:06Z</time></trkpt><trkpt lat="36.25416918202522" lon="-5.983605992820927"><ele>33.0</ele><time>2026-04-25T16:28:06.999Z</time></trkpt><trkpt lat="36.25410519063838" lon="-5.983913990165733"><ele>32.0</ele><time>2026-04-25T16:28:07.999Z</time></trkpt><trkpt lat="36.25404797615959" lon="-5.984214796802801"><ele>31.0</ele><time>2026-04-25T16:28:08.999Z</time></trkpt><trkpt lat="36.25399610867886" lon="-5.984523438229789"><ele>28.0</ele><time>2026-04-25T16:28:09.999Z</time></trkpt><trkpt lat="36.253954317253374" lon="-5.984830450766649"><ele>25.0</ele><time>2026-04-25T16:28:10.999Z</time></trkpt><trkpt lat="36.2539200777699" lon="-5.985136341808289"><ele>25.0</ele><time>2026-04-25T16:28:11.999Z</time></trkpt><trkpt lat="36.25389401154998" lon="-5.985440230674802"><ele>25.0</ele><time>2026-04-25T16:28:12.999Z</time></trkpt><trkpt lat="36.253873643673" lon="-5.985741476394867"><ele>25.0</ele><time>2026-04-25T16:28:13.999Z</time></trkpt><trkpt lat="36.25386054721352" lon="-5.986041818807179"><ele>25.0</ele><time>2026-04-25T16:28:14.999Z</time></trkpt><trkpt lat="36.25385928486608" lon="-5.986344873147073"><ele>25.0</ele><time>2026-04-25T16:28:15.999Z</time></trkpt><trkpt lat="36.253862376294194" lon="-5.986651127150136"><ele>25.0</ele><time>2026-04-25T16:28:16.999Z</time></trkpt><trkpt lat="36.25387120484741" lon="-5.986961583322583"><ele>25.5</ele><time>2026-04-25T16:28:17.999Z</time></trkpt><trkpt lat="36.25388078984293" lon="-5.987269872212043"><ele>26.0</ele><time>2026-04-25T16:28:18.999Z</time></trkpt><trkpt lat="36.25389674122412" lon="-5.9875840589943055"><ele>26.5</ele><time>2026-04-25T16:28:19.999Z</time></trkpt><trkpt lat="36.25391474188995" lon="-5.987905591819582"><ele>27.0</ele><time>2026-04-25T16:28:20.999Z</time></trkpt><trkpt lat="36.25393046863198" lon="-5.988239094049809"><ele>28.0</ele><time>2026-04-25T16:28:21.999Z</time></trkpt><trkpt lat="36.253950220798586" lon="-5.9886004090081"><ele>29.0</ele><time>2026-04-25T16:28:22.999Z</time></trkpt><trkpt lat="36.2539630141074" lon="-5.988977136209128"><ele>28.5</ele><time>2026-04-25T16:28:23.999Z</time></trkpt><trkpt lat="36.25395931258839" lon="-5.989365701523183"><ele>28.0</ele><time>2026-04-25T16:28:24.999Z</time></trkpt><trkpt lat="36.25394908430837" lon="-5.989765911699529"><ele>29.5</ele><time>2026-04-25T16:28:25.999Z</time></trkpt><trkpt lat="36.253925368497086" lon="-5.990161702464923"><ele>31.0</ele><time>2026-04-25T16:28:26.999Z</time></trkpt><trkpt lat="36.25389258734344" lon="-5.9905580132398955"><ele>32.0</ele><time>2026-04-25T16:28:27.999Z</time></trkpt><trkpt lat="36.25385074158516" lon="-5.990949162574637"><ele>33.0</ele><time>2026-04-25T16:28:28.999Z</time></trkpt><trkpt lat="36.253797367776365" lon="-5.99133335062253"><ele>35.5</ele><time>2026-04-25T16:28:29.999Z</time></trkpt><trkpt lat="36.25373560473238" lon="-5.991702135851828"><ele>38.0</ele><time>2026-04-25T16:28:30.999Z</time></trkpt><trkpt lat="36.253663587122624" lon="-5.992062603135145"><ele>38.0</ele><time>2026-04-25T16:28:31.999Z</time></trkpt><trkpt lat="36.25358681261002" lon="-5.992418173733463"><ele>38.0</ele><time>2026-04-25T16:28:32.999Z</time></trkpt><trkpt lat="36.25350357678452" lon="-5.992770819955193"><ele>40.0</ele><time>2026-04-25T16:28:33.999Z</time></trkpt><trkpt lat="36.25340659797768" lon="-5.993138179412474"><ele>42.0</ele><time>2026-04-25T16:28:34.999Z</time></trkpt><trkpt lat="36.25329861406329" lon="-5.993507350262707"><ele>43.0</ele><time>2026-04-25T16:28:35.999Z</time></trkpt><trkpt lat="36.253192983939286" lon="-5.993878897564697"><ele>44.0</ele><time>2026-04-25T16:28:36.999Z</time></trkpt><trkpt lat="36.253096411296816" lon="-5.994260761859473"><ele>38.0</ele><time>2026-04-25T16:28:37.999Z</time></trkpt><trkpt lat="36.25300879456675" lon="-5.994644589089437"><ele>32.0</ele><time>2026-04-25T16:28:38.999Z</time></trkpt><trkpt lat="36.25293535363529" lon="-5.995032780301761"><ele>31.0</ele><time>2026-04-25T16:28:39.999Z</time></trkpt><trkpt lat="36.25287148400635" lon="-5.995423446272401"><ele>30.0</ele><time>2026-04-25T16:28:40.999Z</time></trkpt><trkpt lat="36.25282140463898" lon="-5.995819716957463"><ele>32.0</ele><time>2026-04-25T16:28:41.999Z</time></trkpt><trkpt lat="36.25278268198703" lon="-5.996220937072328"><ele>34.0</ele><time>2026-04-25T16:28:42.999Z</time></trkpt><trkpt lat="36.25275423435429" lon="-5.996618423860568"><ele>34.5</ele><time>2026-04-25T16:28:43.999Z</time></trkpt><trkpt lat="36.25272077307843" lon="-5.997020725653484"><ele>35.0</ele><time>2026-04-25T16:28:44.999Z</time></trkpt><trkpt lat="36.25271133715376" lon="-5.997422708369166"><ele>35.0</ele><time>2026-04-25T16:28:45.999Z</time></trkpt><trkpt lat="36.25270768377775" lon="-5.997823320661847"><ele>35.0</ele><time>2026-04-25T16:28:46.999Z</time></trkpt><trkpt lat="36.2527121850872" lon="-5.998225851987718"><ele>37.0</ele><time>2026-04-25T16:28:47.999Z</time></trkpt><trkpt lat="36.252697959710694" lon="-5.99861970961495"><ele>39.0</ele><time>2026-04-25T16:28:48.999Z</time></trkpt><trkpt lat="36.25268237390152" lon="-5.9990129172810835"><ele>42.0</ele><time>2026-04-25T16:28:49.999Z</time></trkpt><trkpt lat="36.252659226689566" lon="-5.999393935900425"><ele>45.0</ele><time>2026-04-25T16:28:50.999Z</time></trkpt><trkpt lat="36.25262297976423" lon="-5.999758809984705"><ele>45.0</ele><time>2026-04-25T16:28:51.999Z</time></trkpt><trkpt lat="36.2525787270571" lon="-6.000110801658281"><ele>45.0</ele><time>2026-04-25T16:28:52.999Z</time></trkpt><trkpt lat="36.25252355925594" lon="-6.000455909125625"><ele>45.0</ele><time>2026-04-25T16:28:53.999Z</time></trkpt><trkpt lat="36.25246143430284" lon="-6.000793980579862"><ele>45.0</ele><time>2026-04-25T16:28:54.999Z</time></trkpt><trkpt lat="36.25239411599421" lon="-6.001114737975673"><ele>47.0</ele><time>2026-04-25T16:28:55.999Z</time></trkpt><trkpt lat="36.252324923491095" lon="-6.001425776961664"><ele>49.0</ele><time>2026-04-25T16:28:56.999Z</time></trkpt><trkpt lat="36.25224790653121" lon="-6.001742806476726"><ele>43.5</ele><time>2026-04-25T16:28:57.999Z</time></trkpt><trkpt lat="36.252163667645306" lon="-6.002059139638439"><ele>38.0</ele><time>2026-04-25T16:28:58.999Z</time></trkpt><trkpt lat="36.25206632765901" lon="-6.002377915259385"><ele>40.0</ele><time>2026-04-25T16:28:59.999Z</time></trkpt><trkpt lat="36.25196242270046" lon="-6.0026978156711674"><ele>42.0</ele><time>2026-04-25T16:29:00.999Z</time></trkpt><trkpt lat="36.25184911821189" lon="-6.003019030908811"><ele>43.0</ele><time>2026-04-25T16:29:01.999Z</time></trkpt><trkpt lat="36.251732290267135" lon="-6.003338566415104"><ele>44.0</ele><time>2026-04-25T16:29:02.999Z</time></trkpt><trkpt lat="36.251611828716364" lon="-6.0036597128570826"><ele>44.0</ele><time>2026-04-25T16:29:03.999Z</time></trkpt><trkpt lat="36.2514937140314" lon="-6.003981435308094"><ele>44.0</ele><time>2026-04-25T16:29:04.999Z</time></trkpt><trkpt lat="36.2513783201569" lon="-6.0042975532263565"><ele>42.5</ele><time>2026-04-25T16:29:05.999Z</time></trkpt><trkpt lat="36.251266134656454" lon="-6.004612875417741"><ele>41.0</ele><time>2026-04-25T16:29:06.999Z</time></trkpt><trkpt lat="36.251156545479176" lon="-6.004930538650727"><ele>41.0</ele><time>2026-04-25T16:29:07.999Z</time></trkpt><trkpt lat="36.25106028432165" lon="-6.005243628636828"><ele>41.0</ele><time>2026-04-25T16:29:08.999Z</time></trkpt><trkpt lat="36.25097407373809" lon="-6.005567560695688"><ele>41.5</ele><time>2026-04-25T16:29:09.999Z</time></trkpt><trkpt lat="36.25089430863829" lon="-6.005900158238504"><ele>42.0</ele><time>2026-04-25T16:29:10.999Z</time></trkpt><trkpt lat="36.25082368586085" lon="-6.006231013816242"><ele>42.0</ele><time>2026-04-25T16:29:11.999Z</time></trkpt><trkpt lat="36.25075655119665" lon="-6.006571467201323"><ele>42.0</ele><time>2026-04-25T16:29:12.999Z</time></trkpt><trkpt lat="36.25069447290351" lon="-6.006905699323192"><ele>42.5</ele><time>2026-04-25T16:29:13.999Z</time></trkpt><trkpt lat="36.250640224735996" lon="-6.007249864105566"><ele>43.0</ele><time>2026-04-25T16:29:14.999Z</time></trkpt><trkpt lat="36.25059727152455" lon="-6.00759223405114"><ele>45.5</ele><time>2026-04-25T16:29:15.999Z</time></trkpt><trkpt lat="36.25055124099596" lon="-6.007941216537397"><ele>48.0</ele><time>2026-04-25T16:29:16.999Z</time></trkpt><trkpt lat="36.25050544382557" lon="-6.008286227651178"><ele>51.5</ele><time>2026-04-25T16:29:17.998Z</time></trkpt><trkpt lat="36.25045630319101" lon="-6.008637593240984"><ele>55.0</ele><time>2026-04-25T16:29:18.998Z</time></trkpt><trkpt lat="36.250405746523306" lon="-6.008986444111816"><ele>58.0</ele><time>2026-04-25T16:29:19.998Z</time></trkpt><trkpt lat="36.25035464544902" lon="-6.00934803056973"><ele>61.0</ele><time>2026-04-25T16:29:21Z</time></trkpt><trkpt lat="36.25030390670207" lon="-6.0097047309009355"><ele>59.5</ele><time>2026-04-25T16:29:22Z</time></trkpt><trkpt lat="36.250252308801336" lon="-6.010058946967669"><ele>58.0</ele><time>2026-04-25T16:29:23Z</time></trkpt><trkpt lat="36.250197590883445" lon="-6.010413031831465"><ele>58.0</ele><time>2026-04-25T16:29:24Z</time></trkpt><trkpt lat="36.250151465561274" lon="-6.010755607859076"><ele>58.0</ele><time>2026-04-25T16:29:25Z</time></trkpt><trkpt lat="36.25010101469093" lon="-6.011107000968927"><ele>55.5</ele><time>2026-04-25T16:29:26Z</time></trkpt><trkpt lat="36.2500515567899" lon="-6.011455787487239"><ele>53.0</ele><time>2026-04-25T16:29:27Z</time></trkpt><trkpt lat="36.25000092426928" lon="-6.011807380992711"><ele>51.0</ele><time>2026-04-25T16:29:28Z</time></trkpt><trkpt lat="36.249946670123116" lon="-6.012168143499937"><ele>49.0</ele><time>2026-04-25T16:29:29Z</time></trkpt><trkpt lat="36.249894279716166" lon="-6.012561107520888"><ele>49.0</ele><time>2026-04-25T16:29:30Z</time></trkpt><trkpt lat="36.249836777565015" lon="-6.0129594099043775"><ele>49.0</ele><time>2026-04-25T16:29:31Z</time></trkpt><trkpt lat="36.2497810939199" lon="-6.013348888647529"><ele>49.5</ele><time>2026-04-25T16:29:32Z</time></trkpt><trkpt lat="36.2497246636007" lon="-6.0137321446371015"><ele>50.0</ele><time>2026-04-25T16:29:33Z</time></trkpt><trkpt lat="36.249670874788094" lon="-6.01411269001549"><ele>49.0</ele><time>2026-04-25T16:29:34Z</time></trkpt><trkpt lat="36.24961959807637" lon="-6.014489422301601"><ele>48.0</ele><time>2026-04-25T16:29:35Z</time></trkpt><trkpt lat="36.24956888407682" lon="-6.014857727896763"><ele>47.0</ele><time>2026-04-25T16:29:36Z</time></trkpt><trkpt lat="36.249516669960684" lon="-6.015226532662684"><ele>46.0</ele><time>2026-04-25T16:29:37Z</time></trkpt><trkpt lat="36.24946591066408" lon="-6.015595930884358"><ele>45.5</ele><time>2026-04-25T16:29:38Z</time></trkpt><trkpt lat="36.24941867240392" lon="-6.015966148470439"><ele>45.0</ele><time>2026-04-25T16:29:39Z</time></trkpt><trkpt lat="36.24938331584987" lon="-6.0163464565840465"><ele>44.5</ele><time>2026-04-25T16:29:40Z</time></trkpt><trkpt lat="36.24935854065516" lon="-6.016733111164412"><ele>44.0</ele><time>2026-04-25T16:29:41Z</time></trkpt><trkpt lat="36.24934913898275" lon="-6.017127982399314"><ele>43.5</ele><time>2026-04-25T16:29:42Z</time></trkpt><trkpt lat="36.24935318492976" lon="-6.017525871996095"><ele>43.0</ele><time>2026-04-25T16:29:43Z</time></trkpt><trkpt lat="36.24936692585759" lon="-6.017926269150415"><ele>41.5</ele><time>2026-04-25T16:29:44Z</time></trkpt><trkpt lat="36.24939856364401" lon="-6.018329756720767"><ele>40.0</ele><time>2026-04-25T16:29:45Z</time></trkpt><trkpt lat="36.24943856747345" lon="-6.01873115614345"><ele>40.0</ele><time>2026-04-25T16:29:46Z</time></trkpt><trkpt lat="36.24949201920511" lon="-6.0191343189707975"><ele>40.0</ele><time>2026-04-25T16:29:47Z</time></trkpt><trkpt lat="36.24956551408248" lon="-6.019535532147112"><ele>38.5</ele><time>2026-04-25T16:29:48Z</time></trkpt><trkpt lat="36.249640726320514" lon="-6.01993411442182"><ele>37.0</ele><time>2026-04-25T16:29:49Z</time></trkpt><trkpt lat="36.24972049621722" lon="-6.02032858618302"><ele>37.0</ele><time>2026-04-25T16:29:50Z</time></trkpt><trkpt lat="36.24982222540503" lon="-6.020723378452158"><ele>37.0</ele><time>2026-04-25T16:29:51Z</time></trkpt><trkpt lat="36.24993536117304" lon="-6.021111602986715"><ele>36.5</ele><time>2026-04-25T16:29:52Z</time></trkpt><trkpt lat="36.25005733282739" lon="-6.021496867335673"><ele>36.0</ele><time>2026-04-25T16:29:53Z</time></trkpt><trkpt lat="36.25019411429945" lon="-6.021880574136876"><ele>35.5</ele><time>2026-04-25T16:29:54Z</time></trkpt><trkpt lat="36.250340042042765" lon="-6.022252261151017"><ele>35.0</ele><time>2026-04-25T16:29:55Z</time></trkpt><trkpt lat="36.250493943785024" lon="-6.022613976268759"><ele>36.0</ele><time>2026-04-25T16:29:56Z</time></trkpt><trkpt lat="36.250667287070605" lon="-6.022967158997832"><ele>37.0</ele><time>2026-04-25T16:29:57Z</time></trkpt><trkpt lat="36.25085109795505" lon="-6.023307660688065"><ele>35.5</ele><time>2026-04-25T16:29:58Z</time></trkpt><trkpt lat="36.25104206444721" lon="-6.02363961801794"><ele>34.0</ele><time>2026-04-25T16:29:59Z</time></trkpt><trkpt lat="36.25123688351108" lon="-6.023969434905161"><ele>33.5</ele><time>2026-04-25T16:30:00Z</time></trkpt><trkpt lat="36.25144170796651" lon="-6.024289708425788"><ele>33.0</ele><time>2026-04-25T16:30:01Z</time></trkpt><trkpt lat="36.25165779833619" lon="-6.024598138918011"><ele>33.5</ele><time>2026-04-25T16:30:02Z</time></trkpt><trkpt lat="36.25188168933908" lon="-6.024890801779747"><ele>34.0</ele><time>2026-04-25T16:30:03Z</time></trkpt><trkpt lat="36.252115164438415" lon="-6.025174723686098"><ele>34.5</ele><time>2026-04-25T16:30:04Z</time></trkpt><trkpt lat="36.25234902118459" lon="-6.0254456036732895"><ele>35.0</ele><time>2026-04-25T16:30:05Z</time></trkpt><trkpt lat="36.252592419067334" lon="-6.025703028955955"><ele>33.5</ele><time>2026-04-25T16:30:06Z</time></trkpt><trkpt lat="36.25284024445303" lon="-6.025951700301275"><ele>32.0</ele><time>2026-04-25T16:30:07Z</time></trkpt><trkpt lat="36.253096248429316" lon="-6.026183626063811"><ele>34.0</ele><time>2026-04-25T16:30:08Z</time></trkpt><trkpt lat="36.25335893522373" lon="-6.026401835842275"><ele>36.0</ele><time>2026-04-25T16:30:09Z</time></trkpt><trkpt lat="36.253625396753016" lon="-6.026611186394493"><ele>35.0</ele><time>2026-04-25T16:30:10Z</time></trkpt><trkpt lat="36.2538984395435" lon="-6.026809696470545"><ele>34.0</ele><time>2026-04-25T16:30:11Z</time></trkpt><trkpt lat="36.25417642367168" lon="-6.0269942690062415"><ele>34.0</ele><time>2026-04-25T16:30:12Z</time></trkpt><trkpt lat="36.25446088573459" lon="-6.027167162942706"><ele>34.0</ele><time>2026-04-25T16:30:12.999Z</time></trkpt><trkpt lat="36.25474984277908" lon="-6.0273237344246695"><ele>35.5</ele><time>2026-04-25T16:30:13.999Z</time></trkpt><trkpt lat="36.25504274038459" lon="-6.027470699889781"><ele>37.0</ele><time>2026-04-25T16:30:14.999Z</time></trkpt><trkpt lat="36.255338212745094" lon="-6.027601933681046"><ele>39.5</ele><time>2026-04-25T16:30:15.999Z</time></trkpt><trkpt lat="36.25563560761259" lon="-6.027726958437189"><ele>42.0</ele><time>2026-04-25T16:30:16.999Z</time></trkpt><trkpt lat="36.2559312869881" lon="-6.027835076825326"><ele>42.0</ele><time>2026-04-25T16:30:17.999Z</time></trkpt><trkpt lat="36.256233696293044" lon="-6.027934165914652"><ele>42.0</ele><time>2026-04-25T16:30:18.999Z</time></trkpt><trkpt lat="36.25652557169035" lon="-6.028028227330559"><ele>42.0</ele><time>2026-04-25T16:30:19.999Z</time></trkpt><trkpt lat="36.25681469240256" lon="-6.028120293103544"><ele>42.0</ele><time>2026-04-25T16:30:20.999Z</time></trkpt><trkpt lat="36.25710414820101" lon="-6.028213277496685"><ele>40.0</ele><time>2026-04-25T16:30:21.999Z</time></trkpt><trkpt lat="36.25738370552579" lon="-6.028304156469579"><ele>38.0</ele><time>2026-04-25T16:30:22.999Z</time></trkpt><trkpt lat="36.257643605778846" lon="-6.028392725501602"><ele>37.5</ele><time>2026-04-25T16:30:23.999Z</time></trkpt><trkpt lat="36.2578905639351" lon="-6.028477348191874"><ele>37.0</ele><time>2026-04-25T16:30:24.999Z</time></trkpt><trkpt lat="36.25814250509606" lon="-6.028558802663859"><ele>35.5</ele><time>2026-04-25T16:30:25.999Z</time></trkpt><trkpt lat="36.25839943994901" lon="-6.028642117205326"><ele>34.0</ele><time>2026-04-25T16:30:26.999Z</time></trkpt><trkpt lat="36.258660341137514" lon="-6.028725210116557"><ele>34.0</ele><time>2026-04-25T16:30:27.999Z</time></trkpt><trkpt lat="36.25891529506005" lon="-6.028807699752841"><ele>34.0</ele><time>2026-04-25T16:30:28.999Z</time></trkpt><trkpt lat="36.259165065284414" lon="-6.028887040335289"><ele>34.0</ele><time>2026-04-25T16:30:29.999Z</time></trkpt><trkpt lat="36.259415976581096" lon="-6.028966147325739"><ele>34.0</ele><time>2026-04-25T16:30:30.999Z</time></trkpt><trkpt lat="36.25966863504422" lon="-6.029046557017109"><ele>32.5</ele><time>2026-04-25T16:30:31.999Z</time></trkpt><trkpt lat="36.25992569717081" lon="-6.029135355418069"><ele>31.0</ele><time>2026-04-25T16:30:32.999Z</time></trkpt><trkpt lat="36.260194245122" lon="-6.029223469482856"><ele>30.5</ele><time>2026-04-25T16:30:33.999Z</time></trkpt><trkpt lat="36.26046583212639" lon="-6.0293132401025025"><ele>30.0</ele><time>2026-04-25T16:30:34.999Z</time></trkpt><trkpt lat="36.2607398755658" lon="-6.02939643333866"><ele>31.5</ele><time>2026-04-25T16:30:35.999Z</time></trkpt><trkpt lat="36.26101923964242" lon="-6.029465427832355"><ele>33.0</ele><time>2026-04-25T16:30:36.999Z</time></trkpt><trkpt lat="36.26130031217414" lon="-6.02953189442788"><ele>34.5</ele><time>2026-04-25T16:30:37.999Z</time></trkpt><trkpt lat="36.26158076438892" lon="-6.029584305584362"><ele>36.0</ele><time>2026-04-25T16:30:38.999Z</time></trkpt><trkpt lat="36.26186564759201" lon="-6.029622616822406"><ele>36.0</ele><time>2026-04-25T16:30:39.999Z</time></trkpt><trkpt lat="36.26215109150451" lon="-6.0296529373368175"><ele>36.0</ele><time>2026-04-25T16:30:40.999Z</time></trkpt><trkpt lat="36.26243941155874" lon="-6.029669108838507"><ele>34.5</ele><time>2026-04-25T16:30:41.999Z</time></trkpt><trkpt lat="36.262732458547234" lon="-6.029675353834136"><ele>33.0</ele><time>2026-04-25T16:30:42.999Z</time></trkpt><trkpt lat="36.26302136912389" lon="-6.0296779528773365"><ele>33.0</ele><time>2026-04-25T16:30:43.999Z</time></trkpt><trkpt lat="36.26331315081678" lon="-6.029666969635488"><ele>33.0</ele><time>2026-04-25T16:30:44.999Z</time></trkpt><trkpt lat="36.263602966522136" lon="-6.029645622338893"><ele>33.0</ele><time>2026-04-25T16:30:45.999Z</time></trkpt><trkpt lat="36.26389259653022" lon="-6.029612782499494"><ele>33.0</ele><time>2026-04-25T16:30:46.999Z</time></trkpt><trkpt lat="36.264180106379456" lon="-6.0295710251830945"><ele>34.0</ele><time>2026-04-25T16:30:47.999Z</time></trkpt><trkpt lat="36.264465947208" lon="-6.029520131151256"><ele>35.0</ele><time>2026-04-25T16:30:48.999Z</time></trkpt><trkpt lat="36.26475268000934" lon="-6.0294551665345075"><ele>36.0</ele><time>2026-04-25T16:30:49.999Z</time></trkpt><trkpt lat="36.26503555521944" lon="-6.02937985960633"><ele>37.0</ele><time>2026-04-25T16:30:50.999Z</time></trkpt><trkpt lat="36.265316915573706" lon="-6.029294243370473"><ele>37.0</ele><time>2026-04-25T16:30:51.999Z</time></trkpt><trkpt lat="36.265598086399244" lon="-6.029198256420139"><ele>37.0</ele><time>2026-04-25T16:30:52.999Z</time></trkpt><trkpt lat="36.26587154440458" lon="-6.029099892319795"><ele>39.5</ele><time>2026-04-25T16:30:53.999Z</time></trkpt><trkpt lat="36.266146913393825" lon="-6.028990289252516"><ele>42.0</ele><time>2026-04-25T16:30:54.999Z</time></trkpt><trkpt lat="36.26641692383383" lon="-6.028873847019758"><ele>42.5</ele><time>2026-04-25T16:30:55.999Z</time></trkpt><trkpt lat="36.266686951325354" lon="-6.028751333191788"><ele>43.0</ele><time>2026-04-25T16:30:56.999Z</time></trkpt><trkpt lat="36.266955899294814" lon="-6.02863532162966"><ele>43.0</ele><time>2026-04-25T16:30:57.999Z</time></trkpt><trkpt lat="36.26721911775598" lon="-6.028525069177563"><ele>43.0</ele><time>2026-04-25T16:30:58.999Z</time></trkpt><trkpt lat="36.26747738781153" lon="-6.0284193285658985"><ele>43.0</ele><time>2026-04-25T16:30:59.999Z</time></trkpt><trkpt lat="36.26773750486988" lon="-6.0283198403044596"><ele>43.0</ele><time>2026-04-25T16:31:00.999Z</time></trkpt><trkpt lat="36.26799901603485" lon="-6.028234317018485"><ele>45.0</ele><time>2026-04-25T16:31:01.999Z</time></trkpt><trkpt lat="36.26826515645937" lon="-6.028149456774919"><ele>47.0</ele><time>2026-04-25T16:31:02.999Z</time></trkpt><trkpt lat="36.268529202852015" lon="-6.0280733986705"><ele>47.0</ele><time>2026-04-25T16:31:03.999Z</time></trkpt><trkpt lat="36.26879357154528" lon="-6.028004049658883"><ele>47.0</ele><time>2026-04-25T16:31:04.999Z</time></trkpt><trkpt lat="36.269053978711376" lon="-6.027942994110613"><ele>47.0</ele><time>2026-04-25T16:31:05.999Z</time></trkpt><trkpt lat="36.26931603040479" lon="-6.027893507695292"><ele>47.0</ele><time>2026-04-25T16:31:06.999Z</time></trkpt><trkpt lat="36.26957923934766" lon="-6.0278547795968835"><ele>49.0</ele><time>2026-04-25T16:31:07.999Z</time></trkpt><trkpt lat="36.26984591561461" lon="-6.0278227741344255"><ele>51.0</ele><time>2026-04-25T16:31:08.999Z</time></trkpt><trkpt lat="36.27011076598243" lon="-6.027797656417854"><ele>51.0</ele><time>2026-04-25T16:31:09.999Z</time></trkpt><trkpt lat="36.27037424054982" lon="-6.0277846494927045"><ele>51.0</ele><time>2026-04-25T16:31:10.999Z</time></trkpt><trkpt lat="36.27063624685661" lon="-6.027778914490324"><ele>53.0</ele><time>2026-04-25T16:31:11.999Z</time></trkpt><trkpt lat="36.27090242396607" lon="-6.0277793511718345"><ele>55.0</ele><time>2026-04-25T16:31:12.999Z</time></trkpt><trkpt lat="36.271162452255666" lon="-6.027790710511545"><ele>55.0</ele><time>2026-04-25T16:31:13.999Z</time></trkpt><trkpt lat="36.271432699332614" lon="-6.027814558732842"><ele>55.0</ele><time>2026-04-25T16:31:14.999Z</time></trkpt><trkpt lat="36.27170495400533" lon="-6.027833796150605"><ele>54.0</ele><time>2026-04-25T16:31:15.999Z</time></trkpt><trkpt lat="36.27196879078717" lon="-6.02786562649085"><ele>53.0</ele><time>2026-04-25T16:31:16.999Z</time></trkpt><trkpt lat="36.272236898647805" lon="-6.027908217924258"><ele>50.0</ele><time>2026-04-25T16:31:17.999Z</time></trkpt><trkpt lat="36.272503926919406" lon="-6.027968958183835"><ele>47.0</ele><time>2026-04-25T16:31:18.999Z</time></trkpt><trkpt lat="36.27276914470787" lon="-6.028032071824238"><ele>47.0</ele><time>2026-04-25T16:31:19.999Z</time></trkpt><trkpt lat="36.273034135409155" lon="-6.028101376314986"><ele>47.0</ele><time>2026-04-25T16:31:20.999Z</time></trkpt><trkpt lat="36.27329729605678" lon="-6.028179279758931"><ele>48.5</ele><time>2026-04-25T16:31:21.999Z</time></trkpt><trkpt lat="36.27355444906943" lon="-6.028261293979139"><ele>50.0</ele><time>2026-04-25T16:31:22.999Z</time></trkpt><trkpt lat="36.27381181429488" lon="-6.028349948158926"><ele>51.0</ele><time>2026-04-25T16:31:23.998Z</time></trkpt><trkpt lat="36.2740637339753" lon="-6.028451201646217"><ele>52.0</ele><time>2026-04-25T16:31:24.998Z</time></trkpt><trkpt lat="36.27431932573828" lon="-6.028567125944462"><ele>52.0</ele><time>2026-04-25T16:31:25.998Z</time></trkpt><trkpt lat="36.27457132420955" lon="-6.028685730893119"><ele>52.0</ele><time>2026-04-25T16:31:27Z</time></trkpt><trkpt lat="36.27482172643758" lon="-6.028811782300205"><ele>51.5</ele><time>2026-04-25T16:31:28Z</time></trkpt><trkpt lat="36.27506952109344" lon="-6.0289459377695165"><ele>51.0</ele><time>2026-04-25T16:31:29Z</time></trkpt><trkpt lat="36.275315139426155" lon="-6.029087310431887"><ele>53.0</ele><time>2026-04-25T16:31:30Z</time></trkpt><trkpt lat="36.27555794900868" lon="-6.029237090070319"><ele>55.0</ele><time>2026-04-25T16:31:31Z</time></trkpt><trkpt lat="36.27579557303963" lon="-6.029393583998559"><ele>50.0</ele><time>2026-04-25T16:31:32Z</time></trkpt><trkpt lat="36.276030938125245" lon="-6.029558759617894"><ele>45.0</ele><time>2026-04-25T16:31:33Z</time></trkpt><trkpt lat="36.276257646128514" lon="-6.029735497975114"><ele>44.0</ele><time>2026-04-25T16:31:34Z</time></trkpt><trkpt lat="36.27649400006373" lon="-6.029921044623567"><ele>43.0</ele><time>2026-04-25T16:31:35Z</time></trkpt><trkpt lat="36.27672336319034" lon="-6.030108891745421"><ele>41.5</ele><time>2026-04-25T16:31:36Z</time></trkpt><trkpt lat="36.2769530544416" lon="-6.030300053043974"><ele>40.0</ele><time>2026-04-25T16:31:37Z</time></trkpt><trkpt lat="36.277175414060515" lon="-6.0304993076506"><ele>40.5</ele><time>2026-04-25T16:31:38Z</time></trkpt><trkpt lat="36.27739646122056" lon="-6.030706618826894"><ele>41.0</ele><time>2026-04-25T16:31:39Z</time></trkpt><trkpt lat="36.27761450613375" lon="-6.030923053947535"><ele>39.0</ele><time>2026-04-25T16:31:40Z</time></trkpt><trkpt lat="36.2778268534259" lon="-6.031144746453252"><ele>37.0</ele><time>2026-04-25T16:31:41Z</time></trkpt><trkpt lat="36.27803748567367" lon="-6.031372923183805"><ele>36.5</ele><time>2026-04-25T16:31:42Z</time></trkpt><trkpt lat="36.27824559945502" lon="-6.031607613300052"><ele>36.0</ele><time>2026-04-25T16:31:43Z</time></trkpt><trkpt lat="36.2784496415299" lon="-6.031846002189997"><ele>35.0</ele><time>2026-04-25T16:31:44Z</time></trkpt><trkpt lat="36.278645989285216" lon="-6.032089471429665"><ele>34.0</ele><time>2026-04-25T16:31:45Z</time></trkpt><trkpt lat="36.27883581053046" lon="-6.0323433135372495"><ele>32.0</ele><time>2026-04-25T16:31:46Z</time></trkpt><trkpt lat="36.27902121836374" lon="-6.032599658209419"><ele>30.0</ele><time>2026-04-25T16:31:47Z</time></trkpt><trkpt lat="36.27920356255236" lon="-6.032867880396506"><ele>30.0</ele><time>2026-04-25T16:31:48Z</time></trkpt><trkpt lat="36.279373964973054" lon="-6.033147895879243"><ele>30.0</ele><time>2026-04-25T16:31:49Z</time></trkpt><trkpt lat="36.27953773264939" lon="-6.03343233060364"><ele>30.0</ele><time>2026-04-25T16:31:50Z</time></trkpt><trkpt lat="36.279684146110746" lon="-6.033724224154054"><ele>30.0</ele><time>2026-04-25T16:31:51Z</time></trkpt><trkpt lat="36.27982925945517" lon="-6.034026823112384"><ele>26.0</ele><time>2026-04-25T16:31:52Z</time></trkpt><trkpt lat="36.27997091964054" lon="-6.034335364872341"><ele>22.0</ele><time>2026-04-25T16:31:53Z</time></trkpt><trkpt lat="36.28010018623223" lon="-6.034643092388087"><ele>22.0</ele><time>2026-04-25T16:31:54Z</time></trkpt><trkpt lat="36.28022626373884" lon="-6.034957741682493"><ele>22.0</ele><time>2026-04-25T16:31:55Z</time></trkpt><trkpt lat="36.280345675223344" lon="-6.035280267806701"><ele>21.5</ele><time>2026-04-25T16:31:56Z</time></trkpt><trkpt lat="36.28046977930235" lon="-6.035597387793948"><ele>21.0</ele><time>2026-04-25T16:31:57Z</time></trkpt><trkpt lat="36.280589263450516" lon="-6.03590995552478"><ele>19.5</ele><time>2026-04-25T16:31:58Z</time></trkpt><trkpt lat="36.28070861888534" lon="-6.0362198684180886"><ele>18.0</ele><time>2026-04-25T16:31:59Z</time></trkpt><trkpt lat="36.2808240814254" lon="-6.036521248890425"><ele>18.0</ele><time>2026-04-25T16:32:00Z</time></trkpt><trkpt lat="36.28093960266744" lon="-6.036813934786755"><ele>18.0</ele><time>2026-04-25T16:32:01Z</time></trkpt><trkpt lat="36.28105561109132" lon="-6.037106453264152"><ele>18.0</ele><time>2026-04-25T16:32:02Z</time></trkpt><trkpt lat="36.28116999168711" lon="-6.037398058138281"><ele>18.0</ele><time>2026-04-25T16:32:03Z</time></trkpt><trkpt lat="36.28128008155706" lon="-6.03768836163155"><ele>17.5</ele><time>2026-04-25T16:32:04Z</time></trkpt><trkpt lat="36.28139058320325" lon="-6.037976446478182"><ele>17.0</ele><time>2026-04-25T16:32:04.999Z</time></trkpt><trkpt lat="36.281500124334435" lon="-6.038267484069878"><ele>17.5</ele><time>2026-04-25T16:32:05.999Z</time></trkpt><trkpt lat="36.281611341149876" lon="-6.038556285766069"><ele>18.0</ele><time>2026-04-25T16:32:06.999Z</time></trkpt><trkpt lat="36.28172088015317" lon="-6.038848820400125"><ele>18.5</ele><time>2026-04-25T16:32:07.999Z</time></trkpt><trkpt lat="36.28183181771837" lon="-6.039144132641925"><ele>19.0</ele><time>2026-04-25T16:32:08.999Z</time></trkpt><trkpt lat="36.28194456701311" lon="-6.039442129697487"><ele>19.0</ele><time>2026-04-25T16:32:09.999Z</time></trkpt><trkpt lat="36.282053422682786" lon="-6.0397337806440765"><ele>19.0</ele><time>2026-04-25T16:32:10.999Z</time></trkpt><trkpt lat="36.282159171060044" lon="-6.040025207447656"><ele>17.0</ele><time>2026-04-25T16:32:11.999Z</time></trkpt><trkpt lat="36.28226142991752" lon="-6.040317399308261"><ele>15.0</ele><time>2026-04-25T16:32:12.999Z</time></trkpt><trkpt lat="36.28236450109074" lon="-6.040606191964278"><ele>15.0</ele><time>2026-04-25T16:32:13.999Z</time></trkpt><trkpt lat="36.282463389391935" lon="-6.040890687778144"><ele>15.0</ele><time>2026-04-25T16:32:14.999Z</time></trkpt><trkpt lat="36.28256411241906" lon="-6.041176568366908"><ele>15.0</ele><time>2026-04-25T16:32:15.999Z</time></trkpt><trkpt lat="36.282664511511" lon="-6.041462821940045"><ele>15.0</ele><time>2026-04-25T16:32:16.999Z</time></trkpt><trkpt lat="36.282763772122074" lon="-6.041747527370361"><ele>15.0</ele><time>2026-04-25T16:32:17.999Z</time></trkpt><trkpt lat="36.2828654681612" lon="-6.042037194176663"><ele>15.0</ele><time>2026-04-25T16:32:18.999Z</time></trkpt><trkpt lat="36.282968693512096" lon="-6.042330598432771"><ele>15.0</ele><time>2026-04-25T16:32:19.999Z</time></trkpt><trkpt lat="36.28307293584323" lon="-6.0426256382014145"><ele>15.0</ele><time>2026-04-25T16:32:20.999Z</time></trkpt><trkpt lat="36.28318008449098" lon="-6.042928642379604"><ele>14.0</ele><time>2026-04-25T16:32:21.999Z</time></trkpt><trkpt lat="36.28328804545734" lon="-6.043233566419603"><ele>13.0</ele><time>2026-04-25T16:32:22.999Z</time></trkpt><trkpt lat="36.28339656684639" lon="-6.04353993239699"><ele>12.5</ele><time>2026-04-25T16:32:23.999Z</time></trkpt><trkpt lat="36.283505689340394" lon="-6.043843444907398"><ele>12.0</ele><time>2026-04-25T16:32:24.999Z</time></trkpt><trkpt lat="36.283613933873866" lon="-6.0441545351910815"><ele>11.5</ele><time>2026-04-25T16:32:25.999Z</time></trkpt><trkpt lat="36.28372116061566" lon="-6.044465878213595"><ele>11.0</ele><time>2026-04-25T16:32:26.999Z</time></trkpt><trkpt lat="36.283829113250455" lon="-6.04477669173846"><ele>10.5</ele><time>2026-04-25T16:32:27.999Z</time></trkpt><trkpt lat="36.283938485100116" lon="-6.045088110353645"><ele>10.0</ele><time>2026-04-25T16:32:28.999Z</time></trkpt><trkpt lat="36.28405019950821" lon="-6.045400293996635"><ele>10.0</ele><time>2026-04-25T16:32:29.999Z</time></trkpt><trkpt lat="36.28415971093941" lon="-6.045709728318924"><ele>10.0</ele><time>2026-04-25T16:32:30.999Z</time></trkpt><trkpt lat="36.28427118516675" lon="-6.046024856797312"><ele>10.5</ele><time>2026-04-25T16:32:31.999Z</time></trkpt><trkpt lat="36.28438073186644" lon="-6.046335660960234"><ele>11.0</ele><time>2026-04-25T16:32:32.999Z</time></trkpt><trkpt lat="36.28448437099375" lon="-6.04665108752477"><ele>13.0</ele><time>2026-04-25T16:32:33.999Z</time></trkpt><trkpt lat="36.28459656277503" lon="-6.046961288474611"><ele>15.0</ele><time>2026-04-25T16:32:34.999Z</time></trkpt><trkpt lat="36.28469539103105" lon="-6.0472540390648195"><ele>13.0</ele><time>2026-04-25T16:32:35.999Z</time></trkpt><trkpt lat="36.284789356596406" lon="-6.04752923536167"><ele>11.0</ele><time>2026-04-25T16:32:36.999Z</time></trkpt><trkpt lat="36.28488855714595" lon="-6.047797020141737"><ele>11.0</ele><time>2026-04-25T16:32:37.999Z</time></trkpt><trkpt lat="36.2849886581068" lon="-6.048068721950944"><ele>11.0</ele><time>2026-04-25T16:32:38.999Z</time></trkpt><trkpt lat="36.285082325095026" lon="-6.04833360341146"><ele>11.0</ele><time>2026-04-25T16:32:39.999Z</time></trkpt><trkpt lat="36.28517522565302" lon="-6.048599239336483"><ele>11.0</ele><time>2026-04-25T16:32:40.999Z</time></trkpt><trkpt lat="36.285269952977345" lon="-6.048864758713166"><ele>11.0</ele><time>2026-04-25T16:32:41.999Z</time></trkpt><trkpt lat="36.28535906438081" lon="-6.049114339388274"><ele>11.0</ele><time>2026-04-25T16:32:42.999Z</time></trkpt><trkpt lat="36.285446714788634" lon="-6.049350715812348"><ele>11.0</ele><time>2026-04-25T16:32:43.999Z</time></trkpt><trkpt lat="36.285543704173804" lon="-6.0495956298062366"><ele>10.0</ele><time>2026-04-25T16:32:44.999Z</time></trkpt><trkpt lat="36.28564274884725" lon="-6.04983443543344"><ele>9.0</ele><time>2026-04-25T16:32:45.999Z</time></trkpt><trkpt lat="36.28574322474803" lon="-6.050074556730351"><ele>8.0</ele><time>2026-04-25T16:32:46.999Z</time></trkpt><trkpt lat="36.28585503508799" lon="-6.050312784776587"><ele>7.5</ele><time>2026-04-25T16:32:47.999Z</time></trkpt><trkpt lat="36.285972252628994" lon="-6.050555720912197"><ele>7.0</ele><time>2026-04-25T16:32:48.999Z</time></trkpt><trkpt lat="36.28609600537404" lon="-6.050801554940836"><ele>6.5</ele><time>2026-04-25T16:32:49.999Z</time></trkpt><trkpt lat="36.28622316625438" lon="-6.051044501544459"><ele>6.0</ele><time>2026-04-25T16:32:50.999Z</time></trkpt><trkpt lat="36.286356936855185" lon="-6.051288366337946"><ele>6.0</ele><time>2026-04-25T16:32:51.999Z</time></trkpt><trkpt lat="36.28649941494726" lon="-6.051532604823425"><ele>6.0</ele><time>2026-04-25T16:32:52.999Z</time></trkpt><trkpt lat="36.28664565012416" lon="-6.051767531896389"><ele>5.5</ele><time>2026-04-25T16:32:53.999Z</time></trkpt><trkpt lat="36.28679392725098" lon="-6.05200237344135"><ele>5.0</ele><time>2026-04-25T16:32:54.999Z</time></trkpt><trkpt lat="36.286942982174686" lon="-6.052231321412027"><ele>5.0</ele><time>2026-04-25T16:32:55.999Z</time></trkpt><trkpt lat="36.28709982526439" lon="-6.052453600303519"><ele>5.0</ele><time>2026-04-25T16:32:56.999Z</time></trkpt><trkpt lat="36.287257613727725" lon="-6.052667759498146"><ele>5.0</ele><time>2026-04-25T16:32:57.999Z</time></trkpt><trkpt lat="36.287421984055825" lon="-6.0528796609924695"><ele>5.0</ele><time>2026-04-25T16:32:58.999Z</time></trkpt><trkpt lat="36.28758797568729" lon="-6.053091204014095"><ele>6.0</ele><time>2026-04-25T16:32:59.999Z</time></trkpt><trkpt lat="36.28775103569941" lon="-6.05329166662284"><ele>7.0</ele><time>2026-04-25T16:33:00.999Z</time></trkpt><trkpt lat="36.287914827274854" lon="-6.053483297219705"><ele>7.0</ele><time>2026-04-25T16:33:01.999Z</time></trkpt><trkpt lat="36.28808232431496" lon="-6.053666718497928"><ele>7.0</ele><time>2026-04-25T16:33:02.999Z</time></trkpt><trkpt lat="36.28825446137106" lon="-6.05384975510733"><ele>8.0</ele><time>2026-04-25T16:33:03.999Z</time></trkpt><trkpt lat="36.28843289311738" lon="-6.054026813483042"><ele>9.0</ele><time>2026-04-25T16:33:04.999Z</time></trkpt><trkpt lat="36.288622194061425" lon="-6.054202668867525"><ele>9.0</ele><time>2026-04-25T16:33:05.999Z</time></trkpt><trkpt lat="36.28881436799035" lon="-6.0543709091823485"><ele>9.0</ele><time>2026-04-25T16:33:06.999Z</time></trkpt><trkpt lat="36.28900397881072" lon="-6.054533141520557"><ele>9.0</ele><time>2026-04-25T16:33:07.999Z</time></trkpt><trkpt lat="36.289182821517294" lon="-6.0546765350055"><ele>9.0</ele><time>2026-04-25T16:33:08.999Z</time></trkpt><trkpt lat="36.28934854965597" lon="-6.0548095316165975"><ele>9.0</ele><time>2026-04-25T16:33:09.999Z</time></trkpt><trkpt lat="36.28951108788921" lon="-6.054929312079157"><ele>9.0</ele><time>2026-04-25T16:33:10.999Z</time></trkpt><trkpt lat="36.289676646576744" lon="-6.0550307604772255"><ele>9.0</ele><time>2026-04-25T16:33:11.999Z</time></trkpt><trkpt lat="36.28984384693511" lon="-6.05511085385543"><ele>9.0</ele><time>2026-04-25T16:33:12.998Z</time></trkpt><trkpt lat="36.29000863610957" lon="-6.055177392991246"><ele>9.0</ele><time>2026-04-25T16:33:13.998Z</time></trkpt><trkpt lat="36.29017643236934" lon="-6.055230858870585"><ele>9.0</ele><time>2026-04-25T16:33:14.998Z</time></trkpt><trkpt lat="36.29034871321802" lon="-6.055266465333653"><ele>9.0</ele><time>2026-04-25T16:33:15.998Z</time></trkpt><trkpt lat="36.29052146633025" lon="-6.055284340886012"><ele>9.666666666666666</ele><time>2026-04-25T16:33:16.998Z</time></trkpt><trkpt lat="36.29069336907666" lon="-6.0552908593634855"><ele>10.333333333333332</ele><time>2026-04-25T16:33:17.998Z</time></trkpt><trkpt lat="36.29086220995233" lon="-6.05528627956561"><ele>11.0</ele><time>2026-04-25T16:33:18.998Z</time></trkpt><trkpt lat="36.291031332952464" lon="-6.055265801975371"><ele>11.0</ele><time>2026-04-25T16:33:19.998Z</time></trkpt><trkpt lat="36.29121197303596" lon="-6.055227719089943"><ele>11.0</ele><time>2026-04-25T16:33:20.998Z</time></trkpt><trkpt lat="36.29140782889273" lon="-6.055188301882648"><ele>11.0</ele><time>2026-04-25T16:33:21.998Z</time></trkpt><trkpt lat="36.29160383069845" lon="-6.0551667404458716"><ele>12.0</ele><time>2026-04-25T16:33:22.998Z</time></trkpt><trkpt lat="36.29178345145159" lon="-6.055172651285143"><ele>13.0</ele><time>2026-04-25T16:33:23.998Z</time></trkpt><trkpt lat="36.29194824040113" lon="-6.0551956222483225"><ele>14.0</ele><time>2026-04-25T16:33:24.998Z</time></trkpt><trkpt lat="36.29208835780774" lon="-6.055233516711995"><ele>14.0</ele><time>2026-04-25T16:33:25.998Z</time></trkpt><trkpt lat="36.2922100992861" lon="-6.055262220723387"><ele>14.0</ele><time>2026-04-25T16:33:26.998Z</time></trkpt><trkpt lat="36.29232482653681" lon="-6.055268555479001"><ele>14.0</ele><time>2026-04-25T16:33:27.998Z</time></trkpt><trkpt lat="36.29242826064677" lon="-6.055245337722733"><ele>14.0</ele><time>2026-04-25T16:33:28.998Z</time></trkpt><trkpt lat="36.2925342782178" lon="-6.055196185241682"><ele>14.2</ele><time>2026-04-25T16:33:29.998Z</time></trkpt><trkpt lat="36.29263695626459" lon="-6.055161634423911"><ele>14.399999999999999</ele><time>2026-04-25T16:33:30.998Z</time></trkpt><trkpt lat="36.292732855615505" lon="-6.05515603399482"><ele>14.6</ele><time>2026-04-25T16:33:31.998Z</time></trkpt><trkpt lat="36.292815406722" lon="-6.055209309401531"><ele>14.8</ele><time>2026-04-25T16:33:33Z</time></trkpt><trkpt lat="36.292859211105295" lon="-6.055314502566328"><ele>15.0</ele><time>2026-04-25T16:33:34Z</time></trkpt><trkpt lat="36.29287659146193" lon="-6.055417749909621"><ele>15.0</ele><time>2026-04-25T16:33:35Z</time></trkpt><trkpt lat="36.292898328726885" lon="-6.055504582338823"><ele>15.0</ele><time>2026-04-25T16:33:36Z</time></trkpt><trkpt lat="36.29285077300249" lon="-6.055628644014817"><ele>15.0</ele><time>2026-04-25T16:33:37Z</time></trkpt><trkpt lat="36.292763267333335" lon="-6.055747328488732"><ele>15.0</ele><time>2026-04-25T16:33:38Z</time></trkpt><trkpt lat="36.2926232978085" lon="-6.055872865797422"><ele>15.0</ele><time>2026-04-25T16:33:39Z</time></trkpt><trkpt lat="36.292515941279554" lon="-6.056065332291899"><ele>15.0</ele><time>2026-04-25T16:33:40Z</time></trkpt><trkpt lat="36.29248204404068" lon="-6.056351131353864"><ele>15.0</ele><time>2026-04-25T16:33:41Z</time></trkpt><trkpt lat="36.292406901056715" lon="-6.056617362532559"><ele>15.0</ele><time>2026-04-25T16:33:42Z</time></trkpt><trkpt lat="36.292358561814694" lon="-6.0568580946228705"><ele>15.0</ele><time>2026-04-25T16:33:43Z</time></trkpt><trkpt lat="36.29229649533154" lon="-6.057079379612025"><ele>15.0</ele><time>2026-04-25T16:33:44Z</time></trkpt><trkpt lat="36.29226695055515" lon="-6.057282351172849"><ele>14.5</ele><time>2026-04-25T16:33:45Z</time></trkpt><trkpt lat="36.29226039120638" lon="-6.057472406787354"><ele>14.0</ele><time>2026-04-25T16:33:46Z</time></trkpt><trkpt lat="36.292288484431936" lon="-6.057646680171032"><ele>13.5</ele><time>2026-04-25T16:33:47Z</time></trkpt><trkpt lat="36.2923512926022" lon="-6.05778677155901"><ele>13.0</ele><time>2026-04-25T16:33:48Z</time></trkpt><trkpt lat="36.29233741357479" lon="-6.057914249464971"><ele>13.0</ele><time>2026-04-25T16:33:49Z</time></trkpt><trkpt lat="36.2923007982493" lon="-6.058031300733624"><ele>13.0</ele><time>2026-04-25T16:33:50Z</time></trkpt><trkpt lat="36.29219702114861" lon="-6.058141570142371"><ele>13.0</ele><time>2026-04-25T16:33:51Z</time></trkpt><trkpt lat="36.29206783248351" lon="-6.058311539164046"><ele>13.0</ele><time>2026-04-25T16:33:52Z</time></trkpt><trkpt lat="36.291977654384645" lon="-6.05853678520619"><ele>14.0</ele><time>2026-04-25T16:33:53Z</time></trkpt><trkpt lat="36.29192394327028" lon="-6.058796008320049"><ele>15.0</ele><time>2026-04-25T16:33:54Z</time></trkpt><trkpt lat="36.29187375554662" lon="-6.059013953806819"><ele>16.0</ele><time>2026-04-25T16:33:55Z</time></trkpt><trkpt lat="36.29182338108582" lon="-6.059229042687434"><ele>16.0</ele><time>2026-04-25T16:33:56Z</time></trkpt><trkpt lat="36.291758296537836" lon="-6.059434938718562"><ele>16.0</ele><time>2026-04-25T16:33:57Z</time></trkpt><trkpt lat="36.291711280127096" lon="-6.059640391821567"><ele>16.0</ele><time>2026-04-25T16:33:58Z</time></trkpt><trkpt lat="36.29167632248946" lon="-6.059833391279423"><ele>15.333333333333332</ele><time>2026-04-25T16:33:59Z</time></trkpt><trkpt lat="36.29163075076861" lon="-6.060045259011517"><ele>14.666666666666668</ele><time>2026-04-25T16:34:00Z</time></trkpt><trkpt lat="36.29158257818117" lon="-6.060259200381468"><ele>14.0</ele><time>2026-04-25T16:34:01Z</time></trkpt><trkpt lat="36.291538037139325" lon="-6.060464377419136"><ele>14.0</ele><time>2026-04-25T16:34:02Z</time></trkpt><trkpt lat="36.29149690926603" lon="-6.06066031230222"><ele>14.0</ele><time>2026-04-25T16:34:03Z</time></trkpt><trkpt lat="36.29145133451109" lon="-6.060863175669914"><ele>14.0</ele><time>2026-04-25T16:34:04Z</time></trkpt><trkpt lat="36.29139948574448" lon="-6.061070322508715"><ele>13.333333333333334</ele><time>2026-04-25T16:34:05Z</time></trkpt><trkpt lat="36.291348884744046" lon="-6.061273554053625"><ele>12.666666666666668</ele><time>2026-04-25T16:34:06Z</time></trkpt><trkpt lat="36.291291793581486" lon="-6.061470575590025"><ele>12.0</ele><time>2026-04-25T16:34:07Z</time></trkpt><trkpt lat="36.291214704124876" lon="-6.061671603153407"><ele>11.333333333333334</ele><time>2026-04-25T16:34:08Z</time></trkpt><trkpt lat="36.29111913950479" lon="-6.061873854500378"><ele>10.666666666666668</ele><time>2026-04-25T16:34:09Z</time></trkpt><trkpt lat="36.291008754094" lon="-6.0620780318984275"><ele>10.0</ele><time>2026-04-25T16:34:10Z</time></trkpt><trkpt lat="36.29088739052638" lon="-6.062269855498995"><ele>10.0</ele><time>2026-04-25T16:34:11Z</time></trkpt><trkpt lat="36.29076900045985" lon="-6.062436215410768"><ele>10.0</ele><time>2026-04-25T16:34:12Z</time></trkpt><trkpt lat="36.29066100329388" lon="-6.062582390541548"><ele>10.0</ele><time>2026-04-25T16:34:13Z</time></trkpt><trkpt lat="36.29056696072182" lon="-6.06271670978679"><ele>10.0</ele><time>2026-04-25T16:34:14Z</time></trkpt><trkpt lat="36.29048212573953" lon="-6.062845703234827"><ele>10.0</ele><time>2026-04-25T16:34:15Z</time></trkpt><trkpt lat="36.2904004308804" lon="-6.062970276267159"><ele>10.0</ele><time>2026-04-25T16:34:16Z</time></trkpt><trkpt lat="36.29032446606454" lon="-6.063084874701388"><ele>10.0</ele><time>2026-04-25T16:34:17Z</time></trkpt><trkpt lat="36.290254969391356" lon="-6.063201704474677"><ele>10.2</ele><time>2026-04-25T16:34:18Z</time></trkpt><trkpt lat="36.290202641889934" lon="-6.063319508467736"><ele>10.4</ele><time>2026-04-25T16:34:19Z</time></trkpt><trkpt lat="36.29017542330107" lon="-6.06344222227119"><ele>10.600000000000001</ele><time>2026-04-25T16:34:20Z</time></trkpt><trkpt lat="36.29016936108064" lon="-6.063570488066307"><ele>10.8</ele><time>2026-04-25T16:34:21Z</time></trkpt><trkpt lat="36.29015577426152" lon="-6.063699579990391"><ele>11.0</ele><time>2026-04-25T16:34:22Z</time></trkpt><trkpt lat="36.29009902521772" lon="-6.063792256969222"><ele>11.0</ele><time>2026-04-25T16:34:23Z</time></trkpt><trkpt lat="36.290016722515276" lon="-6.063855050511978"><ele>11.0</ele><time>2026-04-25T16:34:23.999Z</time></trkpt><trkpt lat="36.2899234833789" lon="-6.063922626988627"><ele>11.0</ele><time>2026-04-25T16:34:24.999Z</time></trkpt><trkpt lat="36.28983374466949" lon="-6.064030582710781"><ele>11.0</ele><time>2026-04-25T16:34:25.999Z</time></trkpt><trkpt lat="36.28974815360885" lon="-6.0641268485746265"><ele>11.0</ele><time>2026-04-25T16:34:26.999Z</time></trkpt><trkpt lat="36.28971906607248" lon="-6.064281397671351"><ele>11.200000000000001</ele><time>2026-04-25T16:34:27.999Z</time></trkpt><trkpt lat="36.28968146773139" lon="-6.064406356546476"><ele>11.4</ele><time>2026-04-25T16:34:28.999Z</time></trkpt><trkpt lat="36.28964055409197" lon="-6.064520726443864"><ele>11.6</ele><time>2026-04-25T16:34:29.999Z</time></trkpt><trkpt lat="36.2896027296069" lon="-6.064638612891431"><ele>11.8</ele><time>2026-04-25T16:34:30.999Z</time></trkpt><trkpt lat="36.28957316196881" lon="-6.064758213174429"><ele>12.0</ele><time>2026-04-25T16:34:31.999Z</time></trkpt><trkpt lat="36.28956742228727" lon="-6.064879306637902"><ele>11.833333333333334</ele><time>2026-04-25T16:34:32.999Z</time></trkpt><trkpt lat="36.289570219433365" lon="-6.0649885381935995"><ele>11.666666666666666</ele><time>2026-04-25T16:34:33.999Z</time></trkpt><trkpt lat="36.28956258092154" lon="-6.065086491192131"><ele>11.5</ele><time>2026-04-25T16:34:34.999Z</time></trkpt><trkpt lat="36.28950980773675" lon="-6.065157203024307"><ele>11.333333333333332</ele><time>2026-04-25T16:34:35.999Z</time></trkpt><trkpt lat="36.289417642691426" lon="-6.065196198607115"><ele>11.166666666666666</ele><time>2026-04-25T16:34:36.999Z</time></trkpt><trkpt lat="36.28931313106695" lon="-6.065216349679183"><ele>11.0</ele><time>2026-04-25T16:34:37.999Z</time></trkpt><trkpt lat="36.28921191457155" lon="-6.065253392071665"><ele>11.0</ele><time>2026-04-25T16:34:38.999Z</time></trkpt><trkpt lat="36.2891132585634" lon="-6.065383995733909"><ele>11.0</ele><time>2026-04-25T16:34:39.999Z</time></trkpt><trkpt lat="36.28900204754116" lon="-6.0655152109253985"><ele>11.0</ele><time>2026-04-25T16:34:40.999Z</time></trkpt><trkpt lat="36.28888552917437" lon="-6.065647935124876"><ele>10.666666666666666</ele><time>2026-04-25T16:34:41.999Z</time></trkpt><trkpt lat="36.288750353450915" lon="-6.0657859780664385"><ele>10.333333333333334</ele><time>2026-04-25T16:34:42.999Z</time></trkpt><trkpt lat="36.288588719659614" lon="-6.0659362738682585"><ele>10.0</ele><time>2026-04-25T16:34:43.999Z</time></trkpt><trkpt lat="36.288424394147086" lon="-6.06613780696942"><ele>10.0</ele><time>2026-04-25T16:34:44.999Z</time></trkpt><trkpt lat="36.288238250084014" lon="-6.066338330824456"><ele>10.0</ele><time>2026-04-25T16:34:45.999Z</time></trkpt><trkpt lat="36.28805317838081" lon="-6.066547005398712"><ele>9.5</ele><time>2026-04-25T16:34:46.999Z</time></trkpt><trkpt lat="36.28786161329361" lon="-6.066753583479204"><ele>9.0</ele><time>2026-04-25T16:34:47.999Z</time></trkpt><trkpt lat="36.28770087215823" lon="-6.0669821331947595"><ele>9.0</ele><time>2026-04-25T16:34:48.999Z</time></trkpt><trkpt lat="36.28754987037345" lon="-6.067223003795995"><ele>9.0</ele><time>2026-04-25T16:34:49.999Z</time></trkpt><trkpt lat="36.28739857330889" lon="-6.067468838529019"><ele>9.5</ele><time>2026-04-25T16:34:50.999Z</time></trkpt><trkpt lat="36.2872497779989" lon="-6.067705959163136"><ele>10.0</ele><time>2026-04-25T16:34:51.999Z</time></trkpt><trkpt lat="36.287108440593265" lon="-6.067929003825804"><ele>10.0</ele><time>2026-04-25T16:34:52.999Z</time></trkpt><trkpt lat="36.28696405008679" lon="-6.068138008148868"><ele>10.0</ele><time>2026-04-25T16:34:53.999Z</time></trkpt><trkpt lat="36.28681191759045" lon="-6.0683509298273846"><ele>10.333333333333334</ele><time>2026-04-25T16:34:54.999Z</time></trkpt><trkpt lat="36.286659933865096" lon="-6.068559281392489"><ele>10.666666666666666</ele><time>2026-04-25T16:34:55.999Z</time></trkpt><trkpt lat="36.28650963443246" lon="-6.068759230681832"><ele>11.0</ele><time>2026-04-25T16:34:56.999Z</time></trkpt><trkpt lat="36.28636036777404" lon="-6.0689565734050195"><ele>11.333333333333332</ele><time>2026-04-25T16:34:57.999Z</time></trkpt><trkpt lat="36.2862072369368" lon="-6.069147635477736"><ele>11.666666666666666</ele><time>2026-04-25T16:34:58.999Z</time></trkpt><trkpt lat="36.286049247537306" lon="-6.069339699213134"><ele>12.0</ele><time>2026-04-25T16:34:59.999Z</time></trkpt><trkpt lat="36.28587099835354" lon="-6.0695247817332865"><ele>12.0</ele><time>2026-04-25T16:35:00.999Z</time></trkpt><trkpt lat="36.285677606602064" lon="-6.0697100804887585"><ele>12.0</ele><time>2026-04-25T16:35:01.999Z</time></trkpt><trkpt lat="36.2854650489839" lon="-6.069892719204678"><ele>12.0</ele><time>2026-04-25T16:35:02.999Z</time></trkpt><trkpt lat="36.28523806276289" lon="-6.070072632897963"><ele>12.0</ele><time>2026-04-25T16:35:03.999Z</time></trkpt><trkpt lat="36.28499478728014" lon="-6.070257464077338"><ele>10.5</ele><time>2026-04-25T16:35:04.999Z</time></trkpt><trkpt lat="36.28474503856587" lon="-6.070444758023402"><ele>9.0</ele><time>2026-04-25T16:35:05.999Z</time></trkpt><trkpt lat="36.28450594107294" lon="-6.070626646930229"><ele>10.5</ele><time>2026-04-25T16:35:06.999Z</time></trkpt><trkpt lat="36.28426896952992" lon="-6.070810055327917"><ele>12.0</ele><time>2026-04-25T16:35:07.999Z</time></trkpt><trkpt lat="36.28403944890632" lon="-6.070991410094943"><ele>11.5</ele><time>2026-04-25T16:35:08.999Z</time></trkpt><trkpt lat="36.283812684934375" lon="-6.0711791898160445"><ele>11.0</ele><time>2026-04-25T16:35:09.999Z</time></trkpt><trkpt lat="36.28358816930781" lon="-6.071370737343158"><ele>11.0</ele><time>2026-04-25T16:35:10.999Z</time></trkpt><trkpt lat="36.28336335103902" lon="-6.0715707166873845"><ele>11.0</ele><time>2026-04-25T16:35:11.999Z</time></trkpt><trkpt lat="36.28314363072953" lon="-6.071776081537837"><ele>14.0</ele><time>2026-04-25T16:35:12.999Z</time></trkpt><trkpt lat="36.28293685977976" lon="-6.071986234564233"><ele>17.0</ele><time>2026-04-25T16:35:13.999Z</time></trkpt><trkpt lat="36.282738277331305" lon="-6.0721952845097"><ele>17.0</ele><time>2026-04-25T16:35:14.999Z</time></trkpt><trkpt lat="36.2825559831552" lon="-6.072389632920017"><ele>17.0</ele><time>2026-04-25T16:35:15.999Z</time></trkpt><trkpt lat="36.28237780349281" lon="-6.07257811146805"><ele>22.0</ele><time>2026-04-25T16:35:16.999Z</time></trkpt><trkpt lat="36.282197054653665" lon="-6.072771807916619"><ele>27.0</ele><time>2026-04-25T16:35:17.999Z</time></trkpt><trkpt lat="36.28201540313674" lon="-6.072962644431901"><ele>27.0</ele><time>2026-04-25T16:35:18.999Z</time></trkpt><trkpt lat="36.2818373918343" lon="-6.073148585579166"><ele>27.0</ele><time>2026-04-25T16:35:19.999Z</time></trkpt><trkpt lat="36.28167250183991" lon="-6.073351334053093"><ele>28.0</ele><time>2026-04-25T16:35:20.999Z</time></trkpt><trkpt lat="36.281487863220676" lon="-6.073517038355045"><ele>29.0</ele><time>2026-04-25T16:35:21.999Z</time></trkpt><trkpt lat="36.28131240460914" lon="-6.07369250069715"><ele>29.0</ele><time>2026-04-25T16:35:22.999Z</time></trkpt><trkpt lat="36.28113331627974" lon="-6.073861228286356"><ele>29.0</ele><time>2026-04-25T16:35:23.999Z</time></trkpt><trkpt lat="36.28094966224529" lon="-6.074023826566734"><ele>27.0</ele><time>2026-04-25T16:35:24.999Z</time></trkpt><trkpt lat="36.280772945739585" lon="-6.074204318458347"><ele>25.0</ele><time>2026-04-25T16:35:25.999Z</time></trkpt><trkpt lat="36.28058628491355" lon="-6.074366896586697"><ele>25.0</ele><time>2026-04-25T16:35:26.999Z</time></trkpt><trkpt lat="36.28040311595937" lon="-6.074503114922506"><ele>25.0</ele><time>2026-04-25T16:35:27.999Z</time></trkpt><trkpt lat="36.28023252494537" lon="-6.074657161406378"><ele>25.0</ele><time>2026-04-25T16:35:28.999Z</time></trkpt><trkpt lat="36.28005747381155" lon="-6.074815772089834"><ele>25.0</ele><time>2026-04-25T16:35:29.999Z</time></trkpt><trkpt lat="36.27987664599984" lon="-6.074987332567265"><ele>25.0</ele><time>2026-04-25T16:35:30.999Z</time></trkpt><trkpt lat="36.27969708387825" lon="-6.075172050147767"><ele>25.0</ele><time>2026-04-25T16:35:31.999Z</time></trkpt><trkpt lat="36.27953797154596" lon="-6.075388402688333"><ele>25.0</ele><time>2026-04-25T16:35:32.999Z</time></trkpt><trkpt lat="36.2793682146488" lon="-6.075582382867328"><ele>25.666666666666668</ele><time>2026-04-25T16:35:33.999Z</time></trkpt><trkpt lat="36.27921958921412" lon="-6.075788304439898"><ele>26.333333333333336</ele><time>2026-04-25T16:35:34.999Z</time></trkpt><trkpt lat="36.27906969745833" lon="-6.075966789631005"><ele>27.0</ele><time>2026-04-25T16:35:35.998Z</time></trkpt><trkpt lat="36.27890434463498" lon="-6.076119986102707"><ele>27.0</ele><time>2026-04-25T16:35:36.998Z</time></trkpt><trkpt lat="36.27875548066483" lon="-6.076273912534293"><ele>27.0</ele><time>2026-04-25T16:35:37.998Z</time></trkpt><trkpt lat="36.278495638818626" lon="-6.076550085649717"><ele>29.333333333333336</ele><time>2026-04-25T16:35:40Z</time></trkpt><trkpt lat="36.278395352880224" lon="-6.076702604833264"><ele>31.666666666666668</ele><time>2026-04-25T16:35:41Z</time></trkpt><trkpt lat="36.27830472984004" lon="-6.076878924858269"><ele>34.0</ele><time>2026-04-25T16:35:42Z</time></trkpt><trkpt lat="36.27822872420547" lon="-6.077082041186283"><ele>34.0</ele><time>2026-04-25T16:35:43Z</time></trkpt><trkpt lat="36.27815524802813" lon="-6.077287861427613"><ele>34.0</ele><time>2026-04-25T16:35:44Z</time></trkpt><trkpt lat="36.27810701331877" lon="-6.077497477039389"><ele>34.0</ele><time>2026-04-25T16:35:45Z</time></trkpt><trkpt lat="36.27806335984111" lon="-6.077684350805099"><ele>31.25</ele><time>2026-04-25T16:35:46Z</time></trkpt><trkpt lat="36.27802130939688" lon="-6.077846616885664"><ele>28.5</ele><time>2026-04-25T16:35:47Z</time></trkpt><trkpt lat="36.27798100481784" lon="-6.078005241058441"><ele>25.75</ele><time>2026-04-25T16:35:48Z</time></trkpt><trkpt lat="36.27794503513472" lon="-6.078163819584027"><ele>23.0</ele><time>2026-04-25T16:35:49Z</time></trkpt><trkpt lat="36.27788148292177" lon="-6.078433471865342"><ele>23.0</ele><time>2026-04-25T16:35:51Z</time></trkpt><trkpt lat="36.27786097955467" lon="-6.078555782917865"><ele>23.0</ele><time>2026-04-25T16:35:52Z</time></trkpt><trkpt lat="36.27786793668228" lon="-6.078674443545142"><ele>23.0</ele><time>2026-04-25T16:35:53Z</time></trkpt><trkpt lat="36.277880004286644" lon="-6.078778852293954"><ele>23.0</ele><time>2026-04-25T16:35:54Z</time></trkpt><trkpt lat="36.27786821131713" lon="-6.078875753982842"><ele>23.0</ele><time>2026-04-25T16:35:55Z</time></trkpt><trkpt lat="36.277824419620224" lon="-6.07894825379366"><ele>23.0</ele><time>2026-04-25T16:35:56Z</time></trkpt><trkpt lat="36.277768753092055" lon="-6.079017084495236"><ele>23.0</ele><time>2026-04-25T16:35:57Z</time></trkpt><trkpt lat="36.27765427667801" lon="-6.0789951324650655"><ele>23.0</ele><time>2026-04-25T16:35:58Z</time></trkpt><trkpt lat="36.27755581169375" lon="-6.078960862639468"><ele>23.0</ele><time>2026-04-25T16:35:59Z</time></trkpt><trkpt lat="36.27745860067027" lon="-6.07894964912335"><ele>23.0</ele><time>2026-04-25T16:36:00Z</time></trkpt><trkpt lat="36.27737718340072" lon="-6.079005249307599"><ele>23.0</ele><time>2026-04-25T16:36:01Z</time></trkpt><trkpt lat="36.27733803016501" lon="-6.079139493086955"><ele>23.799999999999997</ele><time>2026-04-25T16:36:02Z</time></trkpt><trkpt lat="36.277272470327055" lon="-6.079229313734448"><ele>24.6</ele><time>2026-04-25T16:36:03Z</time></trkpt><trkpt lat="36.27722325208316" lon="-6.079325074645971"><ele>25.400000000000002</ele><time>2026-04-25T16:36:04Z</time></trkpt><trkpt lat="36.27717258901239" lon="-6.079428424943418"><ele>26.200000000000003</ele><time>2026-04-25T16:36:05Z</time></trkpt><trkpt lat="36.277132158279116" lon="-6.079528620389313"><ele>27.0</ele><time>2026-04-25T16:36:06Z</time></trkpt><trkpt lat="36.27710094604984" lon="-6.079618804750405"><ele>26.166666666666668</ele><time>2026-04-25T16:36:07Z</time></trkpt><trkpt lat="36.27707032298603" lon="-6.079705498502276"><ele>25.333333333333332</ele><time>2026-04-25T16:36:08Z</time></trkpt><trkpt lat="36.277044436975864" lon="-6.079780529264305"><ele>24.5</ele><time>2026-04-25T16:36:09Z</time></trkpt><trkpt lat="36.277018709498755" lon="-6.079861406728076"><ele>23.666666666666664</ele><time>2026-04-25T16:36:10Z</time></trkpt><trkpt lat="36.27698741240112" lon="-6.079950959914831"><ele>22.833333333333332</ele><time>2026-04-25T16:36:11Z</time></trkpt><trkpt lat="36.27694588885784" lon="-6.08005254318861"><ele>22.0</ele><time>2026-04-25T16:36:12Z</time></trkpt><trkpt lat="36.27690082617128" lon="-6.080153690952355"><ele>22.0</ele><time>2026-04-25T16:36:13Z</time></trkpt><trkpt lat="36.27686993140509" lon="-6.080240857354676"><ele>22.0</ele><time>2026-04-25T16:36:14Z</time></trkpt><trkpt lat="36.27684082390663" lon="-6.080317312994754"><ele>22.0</ele><time>2026-04-25T16:36:15Z</time></trkpt><trkpt lat="36.27681168641837" lon="-6.08039610123326"><ele>22.0</ele><time>2026-04-25T16:36:16Z</time></trkpt><trkpt lat="36.27675744271572" lon="-6.080453416323063"><ele>22.0</ele><time>2026-04-25T16:36:17Z</time></trkpt><trkpt lat="36.27673139542284" lon="-6.080540393388019"><ele>22.0</ele><time>2026-04-25T16:36:18Z</time></trkpt><trkpt lat="36.27668675917349" lon="-6.080611380857922"><ele>22.0</ele><time>2026-04-25T16:36:19Z</time></trkpt><trkpt lat="36.27663289588719" lon="-6.0806944421582045"><ele>23.200000000000003</ele><time>2026-04-25T16:36:20Z</time></trkpt><trkpt lat="36.27654838583705" lon="-6.0808203839763815"><ele>24.4</ele><time>2026-04-25T16:36:21Z</time></trkpt><trkpt lat="36.27648303278347" lon="-6.080914061191346"><ele>25.599999999999998</ele><time>2026-04-25T16:36:22Z</time></trkpt><trkpt lat="36.276445698962085" lon="-6.081019055227006"><ele>26.799999999999997</ele><time>2026-04-25T16:36:23Z</time></trkpt><trkpt lat="36.27640570037873" lon="-6.081105084794262"><ele>28.0</ele><time>2026-04-25T16:36:24Z</time></trkpt><trkpt lat="36.27636807478308" lon="-6.081186261682143"><ele>27.000000000000004</ele><time>2026-04-25T16:36:25Z</time></trkpt><trkpt lat="36.27633453369211" lon="-6.081264783130674"><ele>26.0</ele><time>2026-04-25T16:36:25.999Z</time></trkpt><trkpt lat="36.27629648624882" lon="-6.081353337357178"><ele>25.0</ele><time>2026-04-25T16:36:26.999Z</time></trkpt><trkpt lat="36.2762506971366" lon="-6.081458657813432"><ele>24.0</ele><time>2026-04-25T16:36:27.999Z</time></trkpt><trkpt lat="36.27618824457977" lon="-6.081515413141452"><ele>23.0</ele><time>2026-04-25T16:36:28.999Z</time></trkpt><trkpt lat="36.276177573226406" lon="-6.081597497079471"><ele>22.0</ele><time>2026-04-25T16:36:29.999Z</time></trkpt><trkpt lat="36.276142012690215" lon="-6.08170782408686"><ele>22.0</ele><time>2026-04-25T16:36:31.999Z</time></trkpt><trkpt lat="36.276090428777" lon="-6.081791066413655"><ele>22.0</ele><time>2026-04-25T16:36:33.999Z</time></trkpt><trkpt lat="36.276074415357876" lon="-6.081895963164286"><ele>22.0</ele><time>2026-04-25T16:36:35.999Z</time></trkpt><trkpt lat="36.2760589246555" lon="-6.0820237334392795"><ele>22.0</ele><time>2026-04-25T16:36:37.999Z</time></trkpt><trkpt lat="36.276058593048106" lon="-6.082121572712647"><ele>22.0</ele><time>2026-04-25T16:36:39.999Z</time></trkpt><trkpt lat="36.2760497558253" lon="-6.0822412548890625"><ele>22.0</ele><time>2026-04-25T16:36:41.999Z</time></trkpt><trkpt lat="36.27603459851601" lon="-6.0823880905891095"><ele>22.0</ele><time>2026-04-25T16:36:43.999Z</time></trkpt><trkpt lat="36.2760290073247" lon="-6.082515844268876"><ele>22.0</ele><time>2026-04-25T16:36:45.999Z</time></trkpt><trkpt lat="36.2760296549758" lon="-6.082612355730204"><ele>22.0</ele><time>2026-04-25T16:36:47.999Z</time></trkpt><trkpt lat="36.276041436267214" lon="-6.0827022215100595"><ele>22.0</ele><time>2026-04-25T16:36:49.999Z</time></trkpt><trkpt lat="36.27603945502133" lon="-6.082806179993047"><ele>22.8</ele><time>2026-04-25T16:36:51.999Z</time></trkpt><trkpt lat="36.276054835657696" lon="-6.08292417388191"><ele>23.6</ele><time>2026-04-25T16:36:53.999Z</time></trkpt><trkpt lat="36.27605061437071" lon="-6.083059722191034"><ele>24.400000000000002</ele><time>2026-04-25T16:36:55.999Z</time></trkpt><trkpt lat="36.276071655363786" lon="-6.083200904536364"><ele>25.200000000000003</ele><time>2026-04-25T16:36:57.999Z</time></trkpt><trkpt lat="36.276064884808456" lon="-6.08328919835317"><ele>26.0</ele><time>2026-04-25T16:36:58.999Z</time></trkpt><trkpt lat="36.27607638944608" lon="-6.083438282101961"><ele>26.4</ele><time>2026-04-25T16:37:00.999Z</time></trkpt><trkpt lat="36.27610481081578" lon="-6.083578991376197"><ele>26.8</ele><time>2026-04-25T16:37:02.999Z</time></trkpt><trkpt lat="36.27613001029827" lon="-6.08371213450469"><ele>27.199999999999996</ele><time>2026-04-25T16:37:04.999Z</time></trkpt><trkpt lat="36.27614345754847" lon="-6.083846195245181"><ele>27.599999999999998</ele><time>2026-04-25T16:37:06.999Z</time></trkpt><trkpt lat="36.27616226033146" lon="-6.083958131773188"><ele>28.0</ele><time>2026-04-25T16:37:08.999Z</time></trkpt><trkpt lat="36.27617414311691" lon="-6.084049233253284"><ele>27.4</ele><time>2026-04-25T16:37:10.999Z</time></trkpt><trkpt lat="36.27619213445118" lon="-6.084151832190627"><ele>26.799999999999997</ele><time>2026-04-25T16:37:12.999Z</time></trkpt><trkpt lat="36.276202456292935" lon="-6.084231029312939"><ele>26.2</ele><time>2026-04-25T16:37:14.999Z</time></trkpt><trkpt lat="36.27621345944084" lon="-6.084341730925772"><ele>25.6</ele><time>2026-04-25T16:37:16.999Z</time></trkpt><trkpt lat="36.27622750979458" lon="-6.084467511065272"><ele>25.0</ele><time>2026-04-25T16:37:18.999Z</time></trkpt><trkpt lat="36.276230945444" lon="-6.084603302532388"><ele>25.0</ele><time>2026-04-25T16:37:20.999Z</time></trkpt><trkpt lat="36.27623908752811" lon="-6.084717146802423"><ele>25.0</ele><time>2026-04-25T16:37:22.999Z</time></trkpt><trkpt lat="36.27623588711711" lon="-6.084817917705641"><ele>25.0</ele><time>2026-04-25T16:37:24.999Z</time></trkpt><trkpt lat="36.27623472706534" lon="-6.084922629894433"><ele>25.0</ele><time>2026-04-25T16:37:26.999Z</time></trkpt><trkpt lat="36.27625508819787" lon="-6.08504020380527"><ele>25.0</ele><time>2026-04-25T16:37:28.999Z</time></trkpt><trkpt lat="36.276261309023404" lon="-6.085160218029254"><ele>25.0</ele><time>2026-04-25T16:37:30.999Z</time></trkpt><trkpt lat="36.27625040039276" lon="-6.085258099983191"><ele>25.0</ele><time>2026-04-25T16:37:32.999Z</time></trkpt><trkpt lat="36.27626705734095" lon="-6.085339823661023"><ele>25.0</ele><time>2026-04-25T16:37:35.998Z</time></trkpt><trkpt lat="36.27609769558848" lon="-6.085345349641459"><ele>25.0</ele><time>2026-04-25T16:37:38.998Z</time></trkpt><trkpt lat="36.27602955996095" lon="-6.085374189101157"><ele>25.0</ele><time>2026-04-25T16:37:40.998Z</time></trkpt><trkpt lat="36.27596496425998" lon="-6.085406374993371"><ele>25.000000000000004</ele><time>2026-04-25T16:37:42.998Z</time></trkpt><trkpt lat="36.27587357292062" lon="-6.085404311776211"><ele>25.0</ele><time>2026-04-25T16:37:44.999Z</time></trkpt><trkpt lat="36.27577708112295" lon="-6.0853970175964385"><ele>25.0</ele><time>2026-04-25T16:37:46.999Z</time></trkpt><trkpt lat="36.275705025486275" lon="-6.085402420507272"><ele>25.0</ele><time>2026-04-25T16:37:48.999Z</time></trkpt><trkpt lat="36.27562377210141" lon="-6.085395372967827"><ele>25.000000000000004</ele><time>2026-04-25T16:37:50.999Z</time></trkpt><trkpt lat="36.27555745791214" lon="-6.085382364399548"><ele>25.0</ele><time>2026-04-25T16:37:52.999Z</time></trkpt><trkpt lat="36.27548921836033" lon="-6.085368828838305"><ele>23.8</ele><time>2026-04-25T16:37:54.999Z</time></trkpt><trkpt lat="36.27541923807338" lon="-6.085346027200466"><ele>22.6</ele><time>2026-04-25T16:37:56.999Z</time></trkpt><trkpt lat="36.27534048214725" lon="-6.085470776920958"><ele>21.4</ele><time>2026-04-25T16:38:00.999Z</time></trkpt><trkpt lat="36.27535355920559" lon="-6.085570165087138"><ele>20.2</ele><time>2026-04-25T16:38:02.999Z</time></trkpt><trkpt lat="36.275337312321405" lon="-6.085675306207463"><ele>19.0</ele><time>2026-04-25T16:38:05.999Z</time></trkpt><trkpt lat="36.27528744069789" lon="-6.08575755164696"><ele>18.833333333333332</ele><time>2026-04-25T16:38:08.999Z</time></trkpt><trkpt lat="36.27528620702159" lon="-6.0858506018311225"><ele>18.666666666666664</ele><time>2026-04-25T16:38:10.999Z</time></trkpt><trkpt lat="36.27529267154556" lon="-6.085939681950667"><ele>18.5</ele><time>2026-04-25T16:38:13.999Z</time></trkpt><trkpt lat="36.27523241338726" lon="-6.085968854545443"><ele>18.333333333333332</ele><time>2026-04-25T16:38:15.999Z</time></trkpt><trkpt lat="36.275140665784" lon="-6.085982378665504"><ele>18.166666666666668</ele><time>2026-04-25T16:38:17.999Z</time></trkpt><trkpt lat="36.275128170354165" lon="-6.086114262649312"><ele>18.0</ele><time>2026-04-25T16:38:20.999Z</time></trkpt><trkpt lat="36.27511988393067" lon="-6.086191869619604"><ele>18.0</ele><time>2026-04-25T16:38:21.999Z</time></trkpt><trkpt lat="36.27512415247091" lon="-6.08628229676579"><ele>18.0</ele><time>2026-04-25T16:38:22.999Z</time></trkpt><trkpt lat="36.27512815717526" lon="-6.086367135005728"><ele>18.0</ele><time>2026-04-25T16:38:23.999Z</time></trkpt><trkpt lat="36.27514213667439" lon="-6.086495846046573"><ele>18.0</ele><time>2026-04-25T16:38:25.999Z</time></trkpt><trkpt lat="36.27513025143304" lon="-6.086593568441205"><ele>18.0</ele><time>2026-04-25T16:38:28.999Z</time></trkpt><trkpt lat="36.27503925843858" lon="-6.08662673472544"><ele>18.0</ele><time>2026-04-25T16:38:30.999Z</time></trkpt><trkpt lat="36.27494646112984" lon="-6.086604694507771"><ele>18.000000000000004</ele><time>2026-04-25T16:38:32.999Z</time></trkpt><trkpt lat="36.27488389171394" lon="-6.086563611509728"><ele>18.0</ele><time>2026-04-25T16:38:34.999Z</time></trkpt><trkpt lat="36.27480622807506" lon="-6.086551820316565"><ele>18.0</ele><time>2026-04-25T16:38:38.999Z</time></trkpt><trkpt lat="36.27473594403912" lon="-6.086500675610238"><ele>18.0</ele><time>2026-04-25T16:38:44.999Z</time></trkpt><trkpt lat="36.2746609100292" lon="-6.0864681585792875"><ele>18.0</ele><time>2026-04-25T16:38:47.999Z</time></trkpt><trkpt lat="36.27460144640728" lon="-6.086436658364901"><ele>18.000000000000004</ele><time>2026-04-25T16:38:49.999Z</time></trkpt><trkpt lat="36.27453834214271" lon="-6.086408849971434"><ele>18.0</ele><time>2026-04-25T16:38:53.999Z</time></trkpt><trkpt lat="36.27450655590392" lon="-6.086306664321029"><ele>12.0</ele><time>2026-04-25T16:39:06.999Z</time></trkpt><trkpt lat="36.274521288659024" lon="-6.086228910899353"><ele>12.0</ele><time>2026-04-25T16:39:08.999Z</time></trkpt><trkpt lat="36.274512380456876" lon="-6.086139074115974"><ele>12.0</ele><time>2026-04-25T16:39:11.999Z</time></trkpt><trkpt lat="36.2745112807051" lon="-6.086054735981143"><ele>12.0</ele><time>2026-04-25T16:41:42.999Z</time></trkpt></trkseg></trk></gpx>